<?xml version="1.0" encoding="UTF-8" standalone="no" ?>
<gpx xmlns="http://www.topografix.com/GPX/1/1" xmlns:xsi="http://www.w3.org/2001/XMLSchema-instance" xsi:schemaLocation="http://www.topografix.com/GPX/1/1 http://www.topografix.com/GPX/1/1/gpx.xsd" version="1.1" creator="VisuGPX - https://www.visugpx.com">
  <metadata>
    <name>CMC Refuge de Campana de Cloutou</name>
    <desc><![CDATA[Belle randonnée avec un météo très acceptable pour la saison.
Dommage que les lacs soient vides !]]></desc>
  </metadata>
  <trk>
    <name><![CDATA[CMC Refuge de Campana de Cloutou_1]]></name>
    <trkseg>
      <trkpt lat="42.91654" lon="0.20952">
        <ele>1412.3</ele>
        <time>2016-10-16T08:55:17Z</time>
      </trkpt>
      <trkpt lat="42.91647" lon="0.20958">
        <ele>1412.3</ele>
        <time>2016-10-16T08:55:22Z</time>
      </trkpt>
      <trkpt lat="42.9164" lon="0.20978">
        <ele>1424.4460652624</ele>
        <time>2016-10-16T08:55:27Z</time>
      </trkpt>
      <trkpt lat="42.91635" lon="0.20994">
        <ele>1432.8923712364</ele>
        <time>2016-10-16T08:55:32Z</time>
      </trkpt>
      <trkpt lat="42.91634" lon="0.20997">
        <ele>1432.8923712364</ele>
        <time>2016-10-16T08:55:37Z</time>
      </trkpt>
      <trkpt lat="42.91634" lon="0.21">
        <ele>1432.8923712364</ele>
        <time>2016-10-16T08:55:42Z</time>
      </trkpt>
      <trkpt lat="42.91634" lon="0.21002">
        <ele>1432.8923712364</ele>
        <time>2016-10-16T08:55:47Z</time>
      </trkpt>
      <trkpt lat="42.91632" lon="0.21009">
        <ele>1440.6529727217</ele>
        <time>2016-10-16T08:55:52Z</time>
      </trkpt>
      <trkpt lat="42.91624" lon="0.21013">
        <ele>1440.6529727217</ele>
        <time>2016-10-16T08:55:57Z</time>
      </trkpt>
      <trkpt lat="42.91617" lon="0.2102">
        <ele>1447.9772041729</ele>
        <time>2016-10-16T08:56:02Z</time>
      </trkpt>
      <trkpt lat="42.91616" lon="0.21026">
        <ele>1447.9772041729</ele>
        <time>2016-10-16T08:56:07Z</time>
      </trkpt>
      <trkpt lat="42.91612" lon="0.2103">
        <ele>1447.9772041729</ele>
        <time>2016-10-16T08:56:12Z</time>
      </trkpt>
      <trkpt lat="42.91612" lon="0.21037">
        <ele>1454.8549678908</ele>
        <time>2016-10-16T08:56:17Z</time>
      </trkpt>
      <trkpt lat="42.9161" lon="0.21044">
        <ele>1454.8549678908</ele>
        <time>2016-10-16T08:56:22Z</time>
      </trkpt>
      <trkpt lat="42.9161" lon="0.21052">
        <ele>1461.1118374213</ele>
        <time>2016-10-16T08:56:27Z</time>
      </trkpt>
      <trkpt lat="42.91608" lon="0.21059">
        <ele>1461.1118374213</ele>
        <time>2016-10-16T08:56:32Z</time>
      </trkpt>
      <trkpt lat="42.91603" lon="0.21063">
        <ele>1466.6215673657</ele>
        <time>2016-10-16T08:56:37Z</time>
      </trkpt>
      <trkpt lat="42.91603" lon="0.21069">
        <ele>1466.6215673657</ele>
        <time>2016-10-16T08:56:42Z</time>
      </trkpt>
      <trkpt lat="42.91604" lon="0.21078">
        <ele>1471.3348317609</ele>
        <time>2016-10-16T08:56:47Z</time>
      </trkpt>
      <trkpt lat="42.91604" lon="0.21086">
        <ele>1471.3348317609</ele>
        <time>2016-10-16T08:56:52Z</time>
      </trkpt>
      <trkpt lat="42.91601" lon="0.21094">
        <ele>1475.162665604</ele>
        <time>2016-10-16T08:56:57Z</time>
      </trkpt>
      <trkpt lat="42.91599" lon="0.21099">
        <ele>1475.162665604</ele>
        <time>2016-10-16T08:57:02Z</time>
      </trkpt>
      <trkpt lat="42.91596" lon="0.21106">
        <ele>1478.047178177</ele>
        <time>2016-10-16T08:57:07Z</time>
      </trkpt>
      <trkpt lat="42.91596" lon="0.2111">
        <ele>1478.047178177</ele>
        <time>2016-10-16T08:57:12Z</time>
      </trkpt>
      <trkpt lat="42.91594" lon="0.21117">
        <ele>1478.047178177</ele>
        <time>2016-10-16T08:57:17Z</time>
      </trkpt>
      <trkpt lat="42.91593" lon="0.21119">
        <ele>1480.0264044017</ele>
        <time>2016-10-16T08:57:22Z</time>
      </trkpt>
      <trkpt lat="42.9159" lon="0.21123">
        <ele>1480.0264044017</ele>
        <time>2016-10-16T08:57:27Z</time>
      </trkpt>
      <trkpt lat="42.91588" lon="0.21123">
        <ele>1480.0264044017</ele>
        <time>2016-10-16T08:57:32Z</time>
      </trkpt>
      <trkpt lat="42.91588" lon="0.21124">
        <ele>1480.0264044017</ele>
        <time>2016-10-16T08:57:37Z</time>
      </trkpt>
      <trkpt lat="42.91584" lon="0.2113">
        <ele>1481.3970480008</ele>
        <time>2016-10-16T08:57:42Z</time>
      </trkpt>
      <trkpt lat="42.91582" lon="0.21133">
        <ele>1481.3970480008</ele>
        <time>2016-10-16T08:57:47Z</time>
      </trkpt>
      <trkpt lat="42.91584" lon="0.21135">
        <ele>1481.3970480008</ele>
        <time>2016-10-16T08:57:52Z</time>
      </trkpt>
      <trkpt lat="42.9158" lon="0.2114">
        <ele>1482.0899451341</ele>
        <time>2016-10-16T08:57:57Z</time>
      </trkpt>
      <trkpt lat="42.91579" lon="0.21142">
        <ele>1482.0899451341</ele>
        <time>2016-10-16T08:58:02Z</time>
      </trkpt>
      <trkpt lat="42.91579" lon="0.21143">
        <ele>1482.0899451341</ele>
        <time>2016-10-16T08:58:07Z</time>
      </trkpt>
      <trkpt lat="42.91576" lon="0.21144">
        <ele>1482.0899451341</ele>
        <time>2016-10-16T08:58:12Z</time>
      </trkpt>
      <trkpt lat="42.91575" lon="0.21144">
        <ele>1482.0899451341</ele>
        <time>2016-10-16T08:58:17Z</time>
      </trkpt>
      <trkpt lat="42.91572" lon="0.21146">
        <ele>1482.3983984845</ele>
        <time>2016-10-16T08:58:22Z</time>
      </trkpt>
      <trkpt lat="42.91572" lon="0.21149">
        <ele>1482.3983984845</ele>
        <time>2016-10-16T08:58:27Z</time>
      </trkpt>
      <trkpt lat="42.91572" lon="0.21153">
        <ele>1482.3983984845</ele>
        <time>2016-10-16T08:58:32Z</time>
      </trkpt>
      <trkpt lat="42.91571" lon="0.21155">
        <ele>1482.3983984845</ele>
        <time>2016-10-16T08:58:37Z</time>
      </trkpt>
      <trkpt lat="42.91573" lon="0.2116">
        <ele>1482.3965777475</ele>
        <time>2016-10-16T08:58:42Z</time>
      </trkpt>
      <trkpt lat="42.91573" lon="0.21161">
        <ele>1482.3965777475</ele>
        <time>2016-10-16T08:58:47Z</time>
      </trkpt>
      <trkpt lat="42.91573" lon="0.2116">
        <ele>1482.3965777475</ele>
        <time>2016-10-16T08:58:52Z</time>
      </trkpt>
      <trkpt lat="42.91572" lon="0.2116">
        <ele>1482.3965777475</ele>
        <time>2016-10-16T08:58:57Z</time>
      </trkpt>
      <trkpt lat="42.91571" lon="0.21159">
        <ele>1482.3965777475</ele>
        <time>2016-10-16T08:59:02Z</time>
      </trkpt>
      <trkpt lat="42.91571" lon="0.21161">
        <ele>1482.3965777475</ele>
        <time>2016-10-16T08:59:07Z</time>
      </trkpt>
      <trkpt lat="42.91571" lon="0.21164">
        <ele>1482.3965777475</ele>
        <time>2016-10-16T08:59:12Z</time>
      </trkpt>
      <trkpt lat="42.91571" lon="0.21167">
        <ele>1482.3965777475</ele>
        <time>2016-10-16T08:59:17Z</time>
      </trkpt>
      <trkpt lat="42.9157" lon="0.21171">
        <ele>1482.5105655132</ele>
        <time>2016-10-16T08:59:22Z</time>
      </trkpt>
      <trkpt lat="42.91568" lon="0.21173">
        <ele>1482.5105655132</ele>
        <time>2016-10-16T08:59:27Z</time>
      </trkpt>
      <trkpt lat="42.91565" lon="0.21175">
        <ele>1482.5105655132</ele>
        <time>2016-10-16T08:59:32Z</time>
      </trkpt>
      <trkpt lat="42.91566" lon="0.21174">
        <ele>1482.5105655132</ele>
        <time>2016-10-16T08:59:37Z</time>
      </trkpt>
      <trkpt lat="42.91566" lon="0.21176">
        <ele>1482.5105655132</ele>
        <time>2016-10-16T08:59:42Z</time>
      </trkpt>
      <trkpt lat="42.91567" lon="0.21177">
        <ele>1482.5105655132</ele>
        <time>2016-10-16T08:59:47Z</time>
      </trkpt>
      <trkpt lat="42.91567" lon="0.2118">
        <ele>1482.5853021251</ele>
        <time>2016-10-16T08:59:52Z</time>
      </trkpt>
      <trkpt lat="42.91566" lon="0.21186">
        <ele>1482.5853021251</ele>
        <time>2016-10-16T08:59:57Z</time>
      </trkpt>
      <trkpt lat="42.91563" lon="0.21188">
        <ele>1482.5853021251</ele>
        <time>2016-10-16T09:00:02Z</time>
      </trkpt>
      <trkpt lat="42.91564" lon="0.21188">
        <ele>1482.5036305914</ele>
        <time>2016-10-16T09:00:07Z</time>
      </trkpt>
      <trkpt lat="42.91565" lon="0.21191">
        <ele>1482.5036305914</ele>
        <time>2016-10-16T09:00:12Z</time>
      </trkpt>
      <trkpt lat="42.91566" lon="0.2119">
        <ele>1482.5036305914</ele>
        <time>2016-10-16T09:00:17Z</time>
      </trkpt>
      <trkpt lat="42.91567" lon="0.21192">
        <ele>1482.5036305914</ele>
        <time>2016-10-16T09:00:22Z</time>
      </trkpt>
      <trkpt lat="42.91566" lon="0.21193">
        <ele>1482.5036305914</ele>
        <time>2016-10-16T09:00:27Z</time>
      </trkpt>
      <trkpt lat="42.91565" lon="0.21196">
        <ele>1482.4873872047</ele>
        <time>2016-10-16T09:00:32Z</time>
      </trkpt>
      <trkpt lat="42.91565" lon="0.21195">
        <ele>1482.4873872047</ele>
        <time>2016-10-16T09:00:37Z</time>
      </trkpt>
      <trkpt lat="42.91564" lon="0.21197">
        <ele>1482.4873872047</ele>
        <time>2016-10-16T09:00:42Z</time>
      </trkpt>
      <trkpt lat="42.91563" lon="0.21198">
        <ele>1482.4873872047</ele>
        <time>2016-10-16T09:00:47Z</time>
      </trkpt>
      <trkpt lat="42.91561" lon="0.21197">
        <ele>1482.4873872047</ele>
        <time>2016-10-16T09:00:52Z</time>
      </trkpt>
      <trkpt lat="42.91557" lon="0.21199">
        <ele>1482.8930288037</ele>
        <time>2016-10-16T09:00:57Z</time>
      </trkpt>
      <trkpt lat="42.91555" lon="0.21204">
        <ele>1482.8930288037</ele>
        <time>2016-10-16T09:01:02Z</time>
      </trkpt>
      <trkpt lat="42.91553" lon="0.21204">
        <ele>1482.8930288037</ele>
        <time>2016-10-16T09:01:07Z</time>
      </trkpt>
      <trkpt lat="42.91553" lon="0.21208">
        <ele>1482.8930288037</ele>
        <time>2016-10-16T09:01:12Z</time>
      </trkpt>
      <trkpt lat="42.91555" lon="0.21209">
        <ele>1483.6032075686</ele>
        <time>2016-10-16T09:01:17Z</time>
      </trkpt>
      <trkpt lat="42.91557" lon="0.21213">
        <ele>1483.6032075686</ele>
        <time>2016-10-16T09:01:22Z</time>
      </trkpt>
      <trkpt lat="42.91559" lon="0.21215">
        <ele>1483.6032075686</ele>
        <time>2016-10-16T09:01:27Z</time>
      </trkpt>
      <trkpt lat="42.91558" lon="0.21216">
        <ele>1483.6032075686</ele>
        <time>2016-10-16T09:01:32Z</time>
      </trkpt>
      <trkpt lat="42.91559" lon="0.21218">
        <ele>1484.4771759069</ele>
        <time>2016-10-16T09:01:37Z</time>
      </trkpt>
      <trkpt lat="42.9156" lon="0.21217">
        <ele>1484.4771759069</ele>
        <time>2016-10-16T09:01:42Z</time>
      </trkpt>
      <trkpt lat="42.91562" lon="0.21222">
        <ele>1484.4771759069</ele>
        <time>2016-10-16T09:01:47Z</time>
      </trkpt>
      <trkpt lat="42.91561" lon="0.21227">
        <ele>1484.4771759069</ele>
        <time>2016-10-16T09:01:52Z</time>
      </trkpt>
      <trkpt lat="42.91562" lon="0.21231">
        <ele>1485.4916202023</ele>
        <time>2016-10-16T09:01:57Z</time>
      </trkpt>
      <trkpt lat="42.91562" lon="0.21232">
        <ele>1485.4916202023</ele>
        <time>2016-10-16T09:02:02Z</time>
      </trkpt>
      <trkpt lat="42.91562" lon="0.21237">
        <ele>1485.4916202023</ele>
        <time>2016-10-16T09:02:07Z</time>
      </trkpt>
      <trkpt lat="42.9156" lon="0.21236">
        <ele>1485.4916202023</ele>
        <time>2016-10-16T09:02:12Z</time>
      </trkpt>
      <trkpt lat="42.91557" lon="0.21236">
        <ele>1486.5925475428</ele>
        <time>2016-10-16T09:02:17Z</time>
      </trkpt>
      <trkpt lat="42.91554" lon="0.21236">
        <ele>1486.5925475428</ele>
        <time>2016-10-16T09:02:22Z</time>
      </trkpt>
      <trkpt lat="42.91551" lon="0.21239">
        <ele>1486.5925475428</ele>
        <time>2016-10-16T09:02:27Z</time>
      </trkpt>
      <trkpt lat="42.91549" lon="0.21239">
        <ele>1487.744195808</ele>
        <time>2016-10-16T09:02:32Z</time>
      </trkpt>
      <trkpt lat="42.91547" lon="0.21243">
        <ele>1487.744195808</ele>
        <time>2016-10-16T09:02:37Z</time>
      </trkpt>
      <trkpt lat="42.91546" lon="0.21245">
        <ele>1487.744195808</ele>
        <time>2016-10-16T09:02:42Z</time>
      </trkpt>
      <trkpt lat="42.91547" lon="0.2125">
        <ele>1487.744195808</ele>
        <time>2016-10-16T09:02:47Z</time>
      </trkpt>
      <trkpt lat="42.91547" lon="0.21253">
        <ele>1489.0567961184</ele>
        <time>2016-10-16T09:02:52Z</time>
      </trkpt>
      <trkpt lat="42.91548" lon="0.21256">
        <ele>1489.0567961184</ele>
        <time>2016-10-16T09:02:57Z</time>
      </trkpt>
      <trkpt lat="42.91549" lon="0.21256">
        <ele>1489.0567961184</ele>
        <time>2016-10-16T09:03:02Z</time>
      </trkpt>
      <trkpt lat="42.9155" lon="0.21258">
        <ele>1489.0567961184</ele>
        <time>2016-10-16T09:03:07Z</time>
      </trkpt>
      <trkpt lat="42.91552" lon="0.21265">
        <ele>1490.3560067928</ele>
        <time>2016-10-16T09:03:12Z</time>
      </trkpt>
      <trkpt lat="42.91553" lon="0.2127">
        <ele>1490.3560067928</ele>
        <time>2016-10-16T09:03:17Z</time>
      </trkpt>
      <trkpt lat="42.91554" lon="0.21272">
        <ele>1490.3560067928</ele>
        <time>2016-10-16T09:03:22Z</time>
      </trkpt>
      <trkpt lat="42.91555" lon="0.21275">
        <ele>1490.3560067928</ele>
        <time>2016-10-16T09:03:27Z</time>
      </trkpt>
      <trkpt lat="42.91555" lon="0.21279">
        <ele>1491.7394356666</ele>
        <time>2016-10-16T09:03:32Z</time>
      </trkpt>
      <trkpt lat="42.91555" lon="0.21285">
        <ele>1491.7394356666</ele>
        <time>2016-10-16T09:03:37Z</time>
      </trkpt>
      <trkpt lat="42.91555" lon="0.21287">
        <ele>1491.7394356666</ele>
        <time>2016-10-16T09:03:42Z</time>
      </trkpt>
      <trkpt lat="42.91554" lon="0.21287">
        <ele>1491.7394356666</ele>
        <time>2016-10-16T09:03:47Z</time>
      </trkpt>
      <trkpt lat="42.91555" lon="0.21291">
        <ele>1491.7394356666</ele>
        <time>2016-10-16T09:03:52Z</time>
      </trkpt>
      <trkpt lat="42.91557" lon="0.21294">
        <ele>1493.2242272235</ele>
        <time>2016-10-16T09:03:57Z</time>
      </trkpt>
      <trkpt lat="42.91564" lon="0.21297">
        <ele>1493.2242272235</ele>
        <time>2016-10-16T09:04:02Z</time>
      </trkpt>
      <trkpt lat="42.91567" lon="0.21299">
        <ele>1494.5333022085</ele>
        <time>2016-10-16T09:04:07Z</time>
      </trkpt>
      <trkpt lat="42.91567" lon="0.213">
        <ele>1494.5333022085</ele>
        <time>2016-10-16T09:04:12Z</time>
      </trkpt>
      <trkpt lat="42.91568" lon="0.21304">
        <ele>1494.5333022085</ele>
        <time>2016-10-16T09:04:17Z</time>
      </trkpt>
      <trkpt lat="42.91569" lon="0.21307">
        <ele>1494.5333022085</ele>
        <time>2016-10-16T09:04:22Z</time>
      </trkpt>
      <trkpt lat="42.9157" lon="0.21311">
        <ele>1495.9002571603</ele>
        <time>2016-10-16T09:04:27Z</time>
      </trkpt>
      <trkpt lat="42.91571" lon="0.21311">
        <ele>1495.9002571603</ele>
        <time>2016-10-16T09:04:32Z</time>
      </trkpt>
      <trkpt lat="42.91576" lon="0.21312">
        <ele>1495.9002571603</ele>
        <time>2016-10-16T09:04:37Z</time>
      </trkpt>
      <trkpt lat="42.91579" lon="0.21316">
        <ele>1497.1791681366</ele>
        <time>2016-10-16T09:04:42Z</time>
      </trkpt>
      <trkpt lat="42.9158" lon="0.21317">
        <ele>1497.1791681366</ele>
        <time>2016-10-16T09:04:47Z</time>
      </trkpt>
      <trkpt lat="42.91581" lon="0.21318">
        <ele>1497.1791681366</ele>
        <time>2016-10-16T09:04:52Z</time>
      </trkpt>
      <trkpt lat="42.91581" lon="0.21321">
        <ele>1497.1791681366</ele>
        <time>2016-10-16T09:04:57Z</time>
      </trkpt>
      <trkpt lat="42.91581" lon="0.21322">
        <ele>1497.1791681366</ele>
        <time>2016-10-16T09:05:02Z</time>
      </trkpt>
      <trkpt lat="42.91581" lon="0.21322">
        <ele>1497.1791681366</ele>
        <time>2016-10-16T09:05:07Z</time>
      </trkpt>
      <trkpt lat="42.91581" lon="0.21322">
        <ele>1497.1791681366</ele>
        <time>2016-10-16T09:05:12Z</time>
      </trkpt>
      <trkpt lat="42.91581" lon="0.21322">
        <ele>1497.1791681366</ele>
        <time>2016-10-16T09:05:17Z</time>
      </trkpt>
      <trkpt lat="42.91581" lon="0.21322">
        <ele>1497.1791681366</ele>
        <time>2016-10-16T09:05:22Z</time>
      </trkpt>
      <trkpt lat="42.91581" lon="0.21322">
        <ele>1497.1791681366</ele>
        <time>2016-10-16T09:05:27Z</time>
      </trkpt>
      <trkpt lat="42.91581" lon="0.21321">
        <ele>1497.1791681366</ele>
        <time>2016-10-16T09:05:32Z</time>
      </trkpt>
      <trkpt lat="42.91581" lon="0.21322">
        <ele>1497.1791681366</ele>
        <time>2016-10-16T09:05:37Z</time>
      </trkpt>
      <trkpt lat="42.91581" lon="0.21325">
        <ele>1497.1791681366</ele>
        <time>2016-10-16T09:05:42Z</time>
      </trkpt>
      <trkpt lat="42.91581" lon="0.21324">
        <ele>1498.4300961172</ele>
        <time>2016-10-16T09:05:47Z</time>
      </trkpt>
      <trkpt lat="42.91582" lon="0.21325">
        <ele>1498.4300961172</ele>
        <time>2016-10-16T09:05:52Z</time>
      </trkpt>
      <trkpt lat="42.91584" lon="0.21326">
        <ele>1498.4300961172</ele>
        <time>2016-10-16T09:05:57Z</time>
      </trkpt>
      <trkpt lat="42.91584" lon="0.21326">
        <ele>1498.4300961172</ele>
        <time>2016-10-16T09:06:02Z</time>
      </trkpt>
      <trkpt lat="42.91584" lon="0.21326">
        <ele>1498.4300961172</ele>
        <time>2016-10-16T09:06:07Z</time>
      </trkpt>
      <trkpt lat="42.91584" lon="0.21323">
        <ele>1498.4300961172</ele>
        <time>2016-10-16T09:06:12Z</time>
      </trkpt>
      <trkpt lat="42.91584" lon="0.21324">
        <ele>1498.4300961172</ele>
        <time>2016-10-16T09:06:17Z</time>
      </trkpt>
      <trkpt lat="42.91584" lon="0.21326">
        <ele>1498.4300961172</ele>
        <time>2016-10-16T09:06:22Z</time>
      </trkpt>
      <trkpt lat="42.91584" lon="0.21326">
        <ele>1498.4300961172</ele>
        <time>2016-10-16T09:06:27Z</time>
      </trkpt>
      <trkpt lat="42.91584" lon="0.21326">
        <ele>1498.4300961172</ele>
        <time>2016-10-16T09:06:32Z</time>
      </trkpt>
      <trkpt lat="42.91585" lon="0.21325">
        <ele>1499.7653591543</ele>
        <time>2016-10-16T09:06:37Z</time>
      </trkpt>
      <trkpt lat="42.91585" lon="0.21325">
        <ele>1499.7653591543</ele>
        <time>2016-10-16T09:06:42Z</time>
      </trkpt>
      <trkpt lat="42.91586" lon="0.21326">
        <ele>1499.7653591543</ele>
        <time>2016-10-16T09:06:47Z</time>
      </trkpt>
      <trkpt lat="42.91585" lon="0.21325">
        <ele>1499.7653591543</ele>
        <time>2016-10-16T09:06:52Z</time>
      </trkpt>
      <trkpt lat="42.91584" lon="0.21324">
        <ele>1499.7653591543</ele>
        <time>2016-10-16T09:06:57Z</time>
      </trkpt>
      <trkpt lat="42.91584" lon="0.21324">
        <ele>1499.7653591543</ele>
        <time>2016-10-16T09:07:02Z</time>
      </trkpt>
      <trkpt lat="42.91584" lon="0.21324">
        <ele>1499.7653591543</ele>
        <time>2016-10-16T09:07:07Z</time>
      </trkpt>
      <trkpt lat="42.91585" lon="0.21326">
        <ele>1499.7653591543</ele>
        <time>2016-10-16T09:07:12Z</time>
      </trkpt>
      <trkpt lat="42.91587" lon="0.21329">
        <ele>1499.7653591543</ele>
        <time>2016-10-16T09:07:17Z</time>
      </trkpt>
      <trkpt lat="42.91586" lon="0.21331">
        <ele>1501.2912883524</ele>
        <time>2016-10-16T09:07:22Z</time>
      </trkpt>
      <trkpt lat="42.91585" lon="0.21333">
        <ele>1501.2912883524</ele>
        <time>2016-10-16T09:07:27Z</time>
      </trkpt>
      <trkpt lat="42.91586" lon="0.21332">
        <ele>1501.2912883524</ele>
        <time>2016-10-16T09:07:32Z</time>
      </trkpt>
      <trkpt lat="42.91586" lon="0.21335">
        <ele>1501.2912883524</ele>
        <time>2016-10-16T09:07:37Z</time>
      </trkpt>
      <trkpt lat="42.91584" lon="0.21338">
        <ele>1501.2912883524</ele>
        <time>2016-10-16T09:07:42Z</time>
      </trkpt>
      <trkpt lat="42.91583" lon="0.21339">
        <ele>1502.8990204466</ele>
        <time>2016-10-16T09:07:47Z</time>
      </trkpt>
      <trkpt lat="42.91583" lon="0.21339">
        <ele>1502.8990204466</ele>
        <time>2016-10-16T09:07:52Z</time>
      </trkpt>
      <trkpt lat="42.91584" lon="0.21341">
        <ele>1502.8990204466</ele>
        <time>2016-10-16T09:07:57Z</time>
      </trkpt>
      <trkpt lat="42.91585" lon="0.21342">
        <ele>1502.8990204466</ele>
        <time>2016-10-16T09:08:02Z</time>
      </trkpt>
      <trkpt lat="42.91585" lon="0.21344">
        <ele>1502.8990204466</ele>
        <time>2016-10-16T09:08:07Z</time>
      </trkpt>
      <trkpt lat="42.91583" lon="0.21348">
        <ele>1502.8990204466</ele>
        <time>2016-10-16T09:08:12Z</time>
      </trkpt>
      <trkpt lat="42.91581" lon="0.21347">
        <ele>1504.5433225588</ele>
        <time>2016-10-16T09:08:17Z</time>
      </trkpt>
      <trkpt lat="42.91578" lon="0.2135">
        <ele>1504.5433225588</ele>
        <time>2016-10-16T09:08:22Z</time>
      </trkpt>
      <trkpt lat="42.91578" lon="0.21354">
        <ele>1504.5433225588</ele>
        <time>2016-10-16T09:08:27Z</time>
      </trkpt>
      <trkpt lat="42.91578" lon="0.21354">
        <ele>1504.5433225588</ele>
        <time>2016-10-16T09:08:32Z</time>
      </trkpt>
      <trkpt lat="42.91579" lon="0.21356">
        <ele>1504.5433225588</ele>
        <time>2016-10-16T09:08:37Z</time>
      </trkpt>
      <trkpt lat="42.91579" lon="0.21362">
        <ele>1506.2531359694</ele>
        <time>2016-10-16T09:08:42Z</time>
      </trkpt>
      <trkpt lat="42.91579" lon="0.21365">
        <ele>1506.2531359694</ele>
        <time>2016-10-16T09:08:47Z</time>
      </trkpt>
      <trkpt lat="42.91578" lon="0.21368">
        <ele>1506.2531359694</ele>
        <time>2016-10-16T09:08:52Z</time>
      </trkpt>
      <trkpt lat="42.91575" lon="0.21371">
        <ele>1506.2531359694</ele>
        <time>2016-10-16T09:08:57Z</time>
      </trkpt>
      <trkpt lat="42.91574" lon="0.21372">
        <ele>1507.9137885377</ele>
        <time>2016-10-16T09:09:02Z</time>
      </trkpt>
      <trkpt lat="42.91575" lon="0.21374">
        <ele>1507.9137885377</ele>
        <time>2016-10-16T09:09:07Z</time>
      </trkpt>
      <trkpt lat="42.91575" lon="0.21375">
        <ele>1507.9137885377</ele>
        <time>2016-10-16T09:09:12Z</time>
      </trkpt>
      <trkpt lat="42.91577" lon="0.21376">
        <ele>1507.9137885377</ele>
        <time>2016-10-16T09:09:17Z</time>
      </trkpt>
      <trkpt lat="42.91577" lon="0.21378">
        <ele>1507.9137885377</ele>
        <time>2016-10-16T09:09:22Z</time>
      </trkpt>
      <trkpt lat="42.91573" lon="0.21378">
        <ele>1509.6469825778</ele>
        <time>2016-10-16T09:09:27Z</time>
      </trkpt>
      <trkpt lat="42.91571" lon="0.21379">
        <ele>1509.6469825778</ele>
        <time>2016-10-16T09:09:32Z</time>
      </trkpt>
      <trkpt lat="42.91571" lon="0.21384">
        <ele>1509.6469825778</ele>
        <time>2016-10-16T09:09:37Z</time>
      </trkpt>
      <trkpt lat="42.91568" lon="0.21387">
        <ele>1511.308038039</ele>
        <time>2016-10-16T09:09:42Z</time>
      </trkpt>
      <trkpt lat="42.91568" lon="0.2139">
        <ele>1511.308038039</ele>
        <time>2016-10-16T09:09:47Z</time>
      </trkpt>
      <trkpt lat="42.91569" lon="0.21393">
        <ele>1511.308038039</ele>
        <time>2016-10-16T09:09:52Z</time>
      </trkpt>
      <trkpt lat="42.9157" lon="0.21397">
        <ele>1511.308038039</ele>
        <time>2016-10-16T09:09:57Z</time>
      </trkpt>
      <trkpt lat="42.9157" lon="0.21397">
        <ele>1511.308038039</ele>
        <time>2016-10-16T09:10:02Z</time>
      </trkpt>
      <trkpt lat="42.9157" lon="0.21399">
        <ele>1513.0951595735</ele>
        <time>2016-10-16T09:10:07Z</time>
      </trkpt>
      <trkpt lat="42.91571" lon="0.21401">
        <ele>1513.0951595735</ele>
        <time>2016-10-16T09:10:12Z</time>
      </trkpt>
      <trkpt lat="42.9157" lon="0.21399">
        <ele>1513.0951595735</ele>
        <time>2016-10-16T09:10:17Z</time>
      </trkpt>
      <trkpt lat="42.91568" lon="0.21405">
        <ele>1513.0951595735</ele>
        <time>2016-10-16T09:10:22Z</time>
      </trkpt>
      <trkpt lat="42.91565" lon="0.21408">
        <ele>1514.8733819874</ele>
        <time>2016-10-16T09:10:27Z</time>
      </trkpt>
      <trkpt lat="42.91565" lon="0.21409">
        <ele>1514.8733819874</ele>
        <time>2016-10-16T09:10:32Z</time>
      </trkpt>
      <trkpt lat="42.91565" lon="0.21411">
        <ele>1514.8733819874</ele>
        <time>2016-10-16T09:10:37Z</time>
      </trkpt>
      <trkpt lat="42.91563" lon="0.21412">
        <ele>1514.8733819874</ele>
        <time>2016-10-16T09:10:42Z</time>
      </trkpt>
      <trkpt lat="42.91561" lon="0.21413">
        <ele>1514.8733819874</ele>
        <time>2016-10-16T09:10:47Z</time>
      </trkpt>
      <trkpt lat="42.91559" lon="0.21416">
        <ele>1516.7803629423</ele>
        <time>2016-10-16T09:10:52Z</time>
      </trkpt>
      <trkpt lat="42.91559" lon="0.21421">
        <ele>1516.7803629423</ele>
        <time>2016-10-16T09:10:57Z</time>
      </trkpt>
      <trkpt lat="42.91559" lon="0.21427">
        <ele>1516.7803629423</ele>
        <time>2016-10-16T09:11:02Z</time>
      </trkpt>
      <trkpt lat="42.91558" lon="0.21431">
        <ele>1518.6488475732</ele>
        <time>2016-10-16T09:11:07Z</time>
      </trkpt>
      <trkpt lat="42.91557" lon="0.21436">
        <ele>1518.6488475732</ele>
        <time>2016-10-16T09:11:12Z</time>
      </trkpt>
      <trkpt lat="42.91556" lon="0.21442">
        <ele>1518.6488475732</ele>
        <time>2016-10-16T09:11:17Z</time>
      </trkpt>
      <trkpt lat="42.91556" lon="0.21444">
        <ele>1520.4701490801</ele>
        <time>2016-10-16T09:11:22Z</time>
      </trkpt>
      <trkpt lat="42.91556" lon="0.21447">
        <ele>1520.4701490801</ele>
        <time>2016-10-16T09:11:27Z</time>
      </trkpt>
      <trkpt lat="42.91553" lon="0.2145">
        <ele>1520.4701490801</ele>
        <time>2016-10-16T09:11:32Z</time>
      </trkpt>
      <trkpt lat="42.9155" lon="0.21451">
        <ele>1522.2362267662</ele>
        <time>2016-10-16T09:11:37Z</time>
      </trkpt>
      <trkpt lat="42.91547" lon="0.21455">
        <ele>1522.2362267662</ele>
        <time>2016-10-16T09:11:42Z</time>
      </trkpt>
      <trkpt lat="42.91547" lon="0.21455">
        <ele>1522.2362267662</ele>
        <time>2016-10-16T09:11:47Z</time>
      </trkpt>
      <trkpt lat="42.91547" lon="0.21455">
        <ele>1522.2362267662</ele>
        <time>2016-10-16T09:11:52Z</time>
      </trkpt>
      <trkpt lat="42.91546" lon="0.21458">
        <ele>1522.2362267662</ele>
        <time>2016-10-16T09:11:57Z</time>
      </trkpt>
      <trkpt lat="42.91542" lon="0.21461">
        <ele>1524.074746486</ele>
        <time>2016-10-16T09:12:02Z</time>
      </trkpt>
      <trkpt lat="42.91541" lon="0.21461">
        <ele>1524.074746486</ele>
        <time>2016-10-16T09:12:07Z</time>
      </trkpt>
      <trkpt lat="42.91541" lon="0.2146">
        <ele>1524.074746486</ele>
        <time>2016-10-16T09:12:12Z</time>
      </trkpt>
      <trkpt lat="42.91541" lon="0.2146">
        <ele>1524.074746486</ele>
        <time>2016-10-16T09:12:17Z</time>
      </trkpt>
      <trkpt lat="42.91541" lon="0.2146">
        <ele>1524.074746486</ele>
        <time>2016-10-16T09:12:22Z</time>
      </trkpt>
      <trkpt lat="42.91541" lon="0.2146">
        <ele>1524.074746486</ele>
        <time>2016-10-16T09:12:27Z</time>
      </trkpt>
      <trkpt lat="42.91541" lon="0.21459">
        <ele>1524.074746486</ele>
        <time>2016-10-16T09:12:32Z</time>
      </trkpt>
      <trkpt lat="42.91542" lon="0.21459">
        <ele>1524.074746486</ele>
        <time>2016-10-16T09:12:37Z</time>
      </trkpt>
      <trkpt lat="42.91542" lon="0.21459">
        <ele>1524.074746486</ele>
        <time>2016-10-16T09:12:42Z</time>
      </trkpt>
      <trkpt lat="42.91542" lon="0.21459">
        <ele>1524.074746486</ele>
        <time>2016-10-16T09:12:47Z</time>
      </trkpt>
      <trkpt lat="42.91542" lon="0.21459">
        <ele>1524.074746486</ele>
        <time>2016-10-16T09:12:52Z</time>
      </trkpt>
      <trkpt lat="42.91542" lon="0.21459">
        <ele>1524.074746486</ele>
        <time>2016-10-16T09:12:57Z</time>
      </trkpt>
      <trkpt lat="42.91542" lon="0.21459">
        <ele>1524.074746486</ele>
        <time>2016-10-16T09:13:02Z</time>
      </trkpt>
      <trkpt lat="42.91543" lon="0.21459">
        <ele>1524.074746486</ele>
        <time>2016-10-16T09:13:07Z</time>
      </trkpt>
      <trkpt lat="42.91543" lon="0.21459">
        <ele>1524.074746486</ele>
        <time>2016-10-16T09:13:12Z</time>
      </trkpt>
      <trkpt lat="42.91543" lon="0.21459">
        <ele>1524.074746486</ele>
        <time>2016-10-16T09:13:17Z</time>
      </trkpt>
      <trkpt lat="42.91543" lon="0.21459">
        <ele>1524.074746486</ele>
        <time>2016-10-16T09:13:22Z</time>
      </trkpt>
      <trkpt lat="42.91544" lon="0.21458">
        <ele>1524.074746486</ele>
        <time>2016-10-16T09:13:27Z</time>
      </trkpt>
      <trkpt lat="42.91544" lon="0.21458">
        <ele>1524.074746486</ele>
        <time>2016-10-16T09:13:32Z</time>
      </trkpt>
      <trkpt lat="42.9155" lon="0.21461">
        <ele>1526.0442478297</ele>
        <time>2016-10-16T09:13:37Z</time>
      </trkpt>
      <trkpt lat="42.91555" lon="0.21463">
        <ele>1526.0442478297</ele>
        <time>2016-10-16T09:13:42Z</time>
      </trkpt>
      <trkpt lat="42.91556" lon="0.21463">
        <ele>1526.0442478297</ele>
        <time>2016-10-16T09:13:47Z</time>
      </trkpt>
      <trkpt lat="42.91557" lon="0.21457">
        <ele>1528.0475677477</ele>
        <time>2016-10-16T09:13:52Z</time>
      </trkpt>
      <trkpt lat="42.91558" lon="0.21452">
        <ele>1528.0475677477</ele>
        <time>2016-10-16T09:13:57Z</time>
      </trkpt>
      <trkpt lat="42.91559" lon="0.21452">
        <ele>1528.0475677477</ele>
        <time>2016-10-16T09:14:02Z</time>
      </trkpt>
      <trkpt lat="42.91559" lon="0.21451">
        <ele>1528.0475677477</ele>
        <time>2016-10-16T09:14:07Z</time>
      </trkpt>
      <trkpt lat="42.91559" lon="0.21451">
        <ele>1528.0475677477</ele>
        <time>2016-10-16T09:14:12Z</time>
      </trkpt>
      <trkpt lat="42.91559" lon="0.21451">
        <ele>1528.0475677477</ele>
        <time>2016-10-16T09:14:17Z</time>
      </trkpt>
      <trkpt lat="42.9156" lon="0.2145">
        <ele>1528.0475677477</ele>
        <time>2016-10-16T09:14:22Z</time>
      </trkpt>
      <trkpt lat="42.9156" lon="0.2145">
        <ele>1528.0475677477</ele>
        <time>2016-10-16T09:14:27Z</time>
      </trkpt>
      <trkpt lat="42.9156" lon="0.2145">
        <ele>1528.0475677477</ele>
        <time>2016-10-16T09:14:32Z</time>
      </trkpt>
      <trkpt lat="42.9156" lon="0.2145">
        <ele>1528.0475677477</ele>
        <time>2016-10-16T09:14:37Z</time>
      </trkpt>
      <trkpt lat="42.9156" lon="0.2145">
        <ele>1528.0475677477</ele>
        <time>2016-10-16T09:14:42Z</time>
      </trkpt>
      <trkpt lat="42.91561" lon="0.2145">
        <ele>1528.0475677477</ele>
        <time>2016-10-16T09:14:47Z</time>
      </trkpt>
      <trkpt lat="42.91561" lon="0.2145">
        <ele>1528.0475677477</ele>
        <time>2016-10-16T09:14:52Z</time>
      </trkpt>
      <trkpt lat="42.91562" lon="0.21451">
        <ele>1528.0475677477</ele>
        <time>2016-10-16T09:14:57Z</time>
      </trkpt>
      <trkpt lat="42.91562" lon="0.21451">
        <ele>1528.0475677477</ele>
        <time>2016-10-16T09:15:02Z</time>
      </trkpt>
      <trkpt lat="42.91562" lon="0.21454">
        <ele>1530.2957215562</ele>
        <time>2016-10-16T09:15:07Z</time>
      </trkpt>
      <trkpt lat="42.91564" lon="0.21459">
        <ele>1530.2957215562</ele>
        <time>2016-10-16T09:15:12Z</time>
      </trkpt>
      <trkpt lat="42.91564" lon="0.21459">
        <ele>1530.2957215562</ele>
        <time>2016-10-16T09:15:17Z</time>
      </trkpt>
      <trkpt lat="42.91564" lon="0.21462">
        <ele>1530.2957215562</ele>
        <time>2016-10-16T09:15:22Z</time>
      </trkpt>
      <trkpt lat="42.91563" lon="0.21463">
        <ele>1530.2957215562</ele>
        <time>2016-10-16T09:15:27Z</time>
      </trkpt>
      <trkpt lat="42.91563" lon="0.21463">
        <ele>1530.2957215562</ele>
        <time>2016-10-16T09:15:32Z</time>
      </trkpt>
      <trkpt lat="42.91563" lon="0.21463">
        <ele>1530.2957215562</ele>
        <time>2016-10-16T09:15:37Z</time>
      </trkpt>
      <trkpt lat="42.91562" lon="0.21464">
        <ele>1530.2957215562</ele>
        <time>2016-10-16T09:15:42Z</time>
      </trkpt>
      <trkpt lat="42.91562" lon="0.21464">
        <ele>1530.2957215562</ele>
        <time>2016-10-16T09:15:47Z</time>
      </trkpt>
      <trkpt lat="42.91562" lon="0.21464">
        <ele>1532.4695661943</ele>
        <time>2016-10-16T09:15:52Z</time>
      </trkpt>
      <trkpt lat="42.91561" lon="0.21465">
        <ele>1532.4695661943</ele>
        <time>2016-10-16T09:15:57Z</time>
      </trkpt>
      <trkpt lat="42.9156" lon="0.21468">
        <ele>1532.4695661943</ele>
        <time>2016-10-16T09:16:02Z</time>
      </trkpt>
      <trkpt lat="42.91557" lon="0.21474">
        <ele>1532.4695661943</ele>
        <time>2016-10-16T09:16:07Z</time>
      </trkpt>
      <trkpt lat="42.91554" lon="0.21479">
        <ele>1534.7873513127</ele>
        <time>2016-10-16T09:16:12Z</time>
      </trkpt>
      <trkpt lat="42.91551" lon="0.21483">
        <ele>1534.7873513127</ele>
        <time>2016-10-16T09:16:17Z</time>
      </trkpt>
      <trkpt lat="42.9155" lon="0.21487">
        <ele>1534.7873513127</ele>
        <time>2016-10-16T09:16:22Z</time>
      </trkpt>
      <trkpt lat="42.91548" lon="0.21495">
        <ele>1537.0876462708</ele>
        <time>2016-10-16T09:16:27Z</time>
      </trkpt>
      <trkpt lat="42.91546" lon="0.21502">
        <ele>1537.0876462708</ele>
        <time>2016-10-16T09:16:32Z</time>
      </trkpt>
      <trkpt lat="42.91543" lon="0.21507">
        <ele>1539.2066223818</ele>
        <time>2016-10-16T09:16:37Z</time>
      </trkpt>
      <trkpt lat="42.91541" lon="0.21513">
        <ele>1539.2066223818</ele>
        <time>2016-10-16T09:16:42Z</time>
      </trkpt>
      <trkpt lat="42.91543" lon="0.21518">
        <ele>1539.2066223818</ele>
        <time>2016-10-16T09:16:47Z</time>
      </trkpt>
      <trkpt lat="42.91543" lon="0.21523">
        <ele>1541.2351742353</ele>
        <time>2016-10-16T09:16:52Z</time>
      </trkpt>
      <trkpt lat="42.91543" lon="0.21527">
        <ele>1541.2351742353</ele>
        <time>2016-10-16T09:16:57Z</time>
      </trkpt>
      <trkpt lat="42.91544" lon="0.21532">
        <ele>1541.2351742353</ele>
        <time>2016-10-16T09:17:02Z</time>
      </trkpt>
      <trkpt lat="42.91544" lon="0.21537">
        <ele>1543.1820135976</ele>
        <time>2016-10-16T09:17:07Z</time>
      </trkpt>
      <trkpt lat="42.91542" lon="0.21542">
        <ele>1543.1820135976</ele>
        <time>2016-10-16T09:17:12Z</time>
      </trkpt>
      <trkpt lat="42.91539" lon="0.21545">
        <ele>1543.1820135976</ele>
        <time>2016-10-16T09:17:17Z</time>
      </trkpt>
      <trkpt lat="42.91536" lon="0.2155">
        <ele>1545.0853826223</ele>
        <time>2016-10-16T09:17:22Z</time>
      </trkpt>
      <trkpt lat="42.91533" lon="0.21558">
        <ele>1545.0853826223</ele>
        <time>2016-10-16T09:17:27Z</time>
      </trkpt>
      <trkpt lat="42.9153" lon="0.21563">
        <ele>1546.8457447891</ele>
        <time>2016-10-16T09:17:32Z</time>
      </trkpt>
      <trkpt lat="42.91528" lon="0.21571">
        <ele>1546.8457447891</ele>
        <time>2016-10-16T09:17:37Z</time>
      </trkpt>
      <trkpt lat="42.91526" lon="0.21577">
        <ele>1548.4618819963</ele>
        <time>2016-10-16T09:17:42Z</time>
      </trkpt>
      <trkpt lat="42.91524" lon="0.21582">
        <ele>1548.4618819963</ele>
        <time>2016-10-16T09:17:47Z</time>
      </trkpt>
      <trkpt lat="42.91523" lon="0.21588">
        <ele>1548.4618819963</ele>
        <time>2016-10-16T09:17:52Z</time>
      </trkpt>
      <trkpt lat="42.91522" lon="0.21593">
        <ele>1550.0224252571</ele>
        <time>2016-10-16T09:17:57Z</time>
      </trkpt>
      <trkpt lat="42.91519" lon="0.21598">
        <ele>1550.0224252571</ele>
        <time>2016-10-16T09:18:02Z</time>
      </trkpt>
      <trkpt lat="42.91516" lon="0.21603">
        <ele>1551.4451935271</ele>
        <time>2016-10-16T09:18:07Z</time>
      </trkpt>
      <trkpt lat="42.91512" lon="0.2161">
        <ele>1551.4451935271</ele>
        <time>2016-10-16T09:18:12Z</time>
      </trkpt>
      <trkpt lat="42.91509" lon="0.21615">
        <ele>1552.7293266347</ele>
        <time>2016-10-16T09:18:17Z</time>
      </trkpt>
      <trkpt lat="42.91505" lon="0.21619">
        <ele>1552.7293266347</ele>
        <time>2016-10-16T09:18:22Z</time>
      </trkpt>
      <trkpt lat="42.91501" lon="0.21622">
        <ele>1553.8447527433</ele>
        <time>2016-10-16T09:18:27Z</time>
      </trkpt>
      <trkpt lat="42.91498" lon="0.21627">
        <ele>1553.8447527433</ele>
        <time>2016-10-16T09:18:32Z</time>
      </trkpt>
      <trkpt lat="42.91493" lon="0.2163">
        <ele>1554.7937548699</ele>
        <time>2016-10-16T09:18:37Z</time>
      </trkpt>
      <trkpt lat="42.9149" lon="0.21634">
        <ele>1554.7937548699</ele>
        <time>2016-10-16T09:18:42Z</time>
      </trkpt>
      <trkpt lat="42.91487" lon="0.21639">
        <ele>1555.5640255011</ele>
        <time>2016-10-16T09:18:47Z</time>
      </trkpt>
      <trkpt lat="42.91485" lon="0.21642">
        <ele>1555.5640255011</ele>
        <time>2016-10-16T09:18:52Z</time>
      </trkpt>
      <trkpt lat="42.91483" lon="0.21646">
        <ele>1555.5640255011</ele>
        <time>2016-10-16T09:18:57Z</time>
      </trkpt>
      <trkpt lat="42.91479" lon="0.21652">
        <ele>1556.1886415738</ele>
        <time>2016-10-16T09:19:02Z</time>
      </trkpt>
      <trkpt lat="42.91476" lon="0.21658">
        <ele>1556.1886415738</ele>
        <time>2016-10-16T09:19:07Z</time>
      </trkpt>
      <trkpt lat="42.91473" lon="0.21661">
        <ele>1556.6688894205</ele>
        <time>2016-10-16T09:19:12Z</time>
      </trkpt>
      <trkpt lat="42.9147" lon="0.21665">
        <ele>1556.6688894205</ele>
        <time>2016-10-16T09:19:17Z</time>
      </trkpt>
      <trkpt lat="42.91467" lon="0.21669">
        <ele>1556.6688894205</ele>
        <time>2016-10-16T09:19:22Z</time>
      </trkpt>
      <trkpt lat="42.91464" lon="0.21672">
        <ele>1557.0061790469</ele>
        <time>2016-10-16T09:19:27Z</time>
      </trkpt>
      <trkpt lat="42.9146" lon="0.21675">
        <ele>1557.0061790469</ele>
        <time>2016-10-16T09:19:32Z</time>
      </trkpt>
      <trkpt lat="42.91456" lon="0.21679">
        <ele>1557.216618751</ele>
        <time>2016-10-16T09:19:37Z</time>
      </trkpt>
      <trkpt lat="42.91452" lon="0.21679">
        <ele>1557.216618751</ele>
        <time>2016-10-16T09:19:42Z</time>
      </trkpt>
      <trkpt lat="42.91447" lon="0.2168">
        <ele>1557.216618751</ele>
        <time>2016-10-16T09:19:47Z</time>
      </trkpt>
      <trkpt lat="42.91442" lon="0.21681">
        <ele>1557.3152006003</ele>
        <time>2016-10-16T09:19:52Z</time>
      </trkpt>
      <trkpt lat="42.91437" lon="0.2168">
        <ele>1557.3152006003</ele>
        <time>2016-10-16T09:19:57Z</time>
      </trkpt>
      <trkpt lat="42.91431" lon="0.21681">
        <ele>1557.3013258742</ele>
        <time>2016-10-16T09:20:02Z</time>
      </trkpt>
      <trkpt lat="42.91427" lon="0.21682">
        <ele>1557.3013258742</ele>
        <time>2016-10-16T09:20:07Z</time>
      </trkpt>
      <trkpt lat="42.91421" lon="0.21683">
        <ele>1557.2036435289</ele>
        <time>2016-10-16T09:20:12Z</time>
      </trkpt>
      <trkpt lat="42.91415" lon="0.21682">
        <ele>1557.2036435289</ele>
        <time>2016-10-16T09:20:17Z</time>
      </trkpt>
      <trkpt lat="42.91412" lon="0.21681">
        <ele>1557.0196270564</ele>
        <time>2016-10-16T09:20:22Z</time>
      </trkpt>
      <trkpt lat="42.91407" lon="0.21678">
        <ele>1557.0196270564</ele>
        <time>2016-10-16T09:20:27Z</time>
      </trkpt>
      <trkpt lat="42.914" lon="0.21678">
        <ele>1556.776021762</ele>
        <time>2016-10-16T09:20:32Z</time>
      </trkpt>
      <trkpt lat="42.91394" lon="0.21674">
        <ele>1556.776021762</ele>
        <time>2016-10-16T09:20:37Z</time>
      </trkpt>
      <trkpt lat="42.9139" lon="0.21671">
        <ele>1556.4685837288</ele>
        <time>2016-10-16T09:20:42Z</time>
      </trkpt>
      <trkpt lat="42.91386" lon="0.21669">
        <ele>1556.4685837288</ele>
        <time>2016-10-16T09:20:47Z</time>
      </trkpt>
      <trkpt lat="42.91379" lon="0.21668">
        <ele>1556.1223625507</ele>
        <time>2016-10-16T09:20:52Z</time>
      </trkpt>
      <trkpt lat="42.91373" lon="0.21665">
        <ele>1556.1223625507</ele>
        <time>2016-10-16T09:20:57Z</time>
      </trkpt>
      <trkpt lat="42.91369" lon="0.21661">
        <ele>1555.7315658598</ele>
        <time>2016-10-16T09:21:02Z</time>
      </trkpt>
      <trkpt lat="42.91365" lon="0.21658">
        <ele>1555.7315658598</ele>
        <time>2016-10-16T09:21:07Z</time>
      </trkpt>
      <trkpt lat="42.91361" lon="0.21655">
        <ele>1555.305272855</ele>
        <time>2016-10-16T09:21:12Z</time>
      </trkpt>
      <trkpt lat="42.91355" lon="0.21653">
        <ele>1555.305272855</ele>
        <time>2016-10-16T09:21:17Z</time>
      </trkpt>
      <trkpt lat="42.9135" lon="0.21651">
        <ele>1554.8662697252</ele>
        <time>2016-10-16T09:21:22Z</time>
      </trkpt>
      <trkpt lat="42.91347" lon="0.21647">
        <ele>1554.8662697252</ele>
        <time>2016-10-16T09:21:27Z</time>
      </trkpt>
      <trkpt lat="42.91341" lon="0.21643">
        <ele>1554.4066629074</ele>
        <time>2016-10-16T09:21:32Z</time>
      </trkpt>
      <trkpt lat="42.91337" lon="0.2164">
        <ele>1554.4066629074</ele>
        <time>2016-10-16T09:21:37Z</time>
      </trkpt>
      <trkpt lat="42.91331" lon="0.21638">
        <ele>1553.9334835644</ele>
        <time>2016-10-16T09:21:42Z</time>
      </trkpt>
      <trkpt lat="42.91327" lon="0.21635">
        <ele>1553.9334835644</ele>
        <time>2016-10-16T09:21:47Z</time>
      </trkpt>
      <trkpt lat="42.9132" lon="0.21631">
        <ele>1553.4531196884</ele>
        <time>2016-10-16T09:21:52Z</time>
      </trkpt>
      <trkpt lat="42.91315" lon="0.21628">
        <ele>1553.4531196884</ele>
        <time>2016-10-16T09:21:57Z</time>
      </trkpt>
      <trkpt lat="42.91309" lon="0.21625">
        <ele>1552.9857625056</ele>
        <time>2016-10-16T09:22:02Z</time>
      </trkpt>
      <trkpt lat="42.91304" lon="0.21623">
        <ele>1552.9857625056</ele>
        <time>2016-10-16T09:22:07Z</time>
      </trkpt>
      <trkpt lat="42.91298" lon="0.21621">
        <ele>1552.521068535</ele>
        <time>2016-10-16T09:22:12Z</time>
      </trkpt>
      <trkpt lat="42.91294" lon="0.21619">
        <ele>1552.521068535</ele>
        <time>2016-10-16T09:22:17Z</time>
      </trkpt>
      <trkpt lat="42.91288" lon="0.21615">
        <ele>1552.0781137722</ele>
        <time>2016-10-16T09:22:22Z</time>
      </trkpt>
      <trkpt lat="42.91282" lon="0.21612">
        <ele>1552.0781137722</ele>
        <time>2016-10-16T09:22:27Z</time>
      </trkpt>
      <trkpt lat="42.91277" lon="0.21608">
        <ele>1551.6599137018</ele>
        <time>2016-10-16T09:22:32Z</time>
      </trkpt>
      <trkpt lat="42.91271" lon="0.21605">
        <ele>1551.6599137018</ele>
        <time>2016-10-16T09:22:37Z</time>
      </trkpt>
      <trkpt lat="42.91266" lon="0.21601">
        <ele>1551.2690130617</ele>
        <time>2016-10-16T09:22:42Z</time>
      </trkpt>
      <trkpt lat="42.9126" lon="0.21598">
        <ele>1551.2690130617</ele>
        <time>2016-10-16T09:22:47Z</time>
      </trkpt>
      <trkpt lat="42.91253" lon="0.21595">
        <ele>1550.9075107957</ele>
        <time>2016-10-16T09:22:52Z</time>
      </trkpt>
      <trkpt lat="42.91247" lon="0.21592">
        <ele>1550.9075107957</ele>
        <time>2016-10-16T09:22:57Z</time>
      </trkpt>
      <trkpt lat="42.9124" lon="0.21586">
        <ele>1550.5770856587</ele>
        <time>2016-10-16T09:23:02Z</time>
      </trkpt>
      <trkpt lat="42.91234" lon="0.21584">
        <ele>1550.5770856587</ele>
        <time>2016-10-16T09:23:07Z</time>
      </trkpt>
      <trkpt lat="42.91227" lon="0.21583">
        <ele>1550.2790223793</ele>
        <time>2016-10-16T09:23:12Z</time>
      </trkpt>
      <trkpt lat="42.91221" lon="0.21581">
        <ele>1550.2790223793</ele>
        <time>2016-10-16T09:23:17Z</time>
      </trkpt>
      <trkpt lat="42.91216" lon="0.21578">
        <ele>1550.0286585035</ele>
        <time>2016-10-16T09:23:22Z</time>
      </trkpt>
      <trkpt lat="42.91211" lon="0.21574">
        <ele>1550.0286585035</ele>
        <time>2016-10-16T09:23:27Z</time>
      </trkpt>
      <trkpt lat="42.91205" lon="0.21569">
        <ele>1549.8110511521</ele>
        <time>2016-10-16T09:23:32Z</time>
      </trkpt>
      <trkpt lat="42.91197" lon="0.21566">
        <ele>1549.8110511521</ele>
        <time>2016-10-16T09:23:37Z</time>
      </trkpt>
      <trkpt lat="42.91193" lon="0.21561">
        <ele>1549.6409284594</ele>
        <time>2016-10-16T09:23:42Z</time>
      </trkpt>
      <trkpt lat="42.91189" lon="0.21556">
        <ele>1549.6409284594</ele>
        <time>2016-10-16T09:23:47Z</time>
      </trkpt>
      <trkpt lat="42.91185" lon="0.21551">
        <ele>1549.5027881062</ele>
        <time>2016-10-16T09:23:52Z</time>
      </trkpt>
      <trkpt lat="42.9118" lon="0.21545">
        <ele>1549.5027881062</ele>
        <time>2016-10-16T09:23:57Z</time>
      </trkpt>
      <trkpt lat="42.91176" lon="0.21541">
        <ele>1549.4108552881</ele>
        <time>2016-10-16T09:24:02Z</time>
      </trkpt>
      <trkpt lat="42.91172" lon="0.21537">
        <ele>1549.4108552881</ele>
        <time>2016-10-16T09:24:07Z</time>
      </trkpt>
      <trkpt lat="42.91169" lon="0.21537">
        <ele>1549.4108552881</ele>
        <time>2016-10-16T09:24:12Z</time>
      </trkpt>
      <trkpt lat="42.91167" lon="0.2153">
        <ele>1549.3635976247</ele>
        <time>2016-10-16T09:24:17Z</time>
      </trkpt>
      <trkpt lat="42.91165" lon="0.21524">
        <ele>1549.3635976247</ele>
        <time>2016-10-16T09:24:22Z</time>
      </trkpt>
      <trkpt lat="42.91161" lon="0.21519">
        <ele>1549.3593161583</ele>
        <time>2016-10-16T09:24:27Z</time>
      </trkpt>
      <trkpt lat="42.91158" lon="0.21514">
        <ele>1549.3593161583</ele>
        <time>2016-10-16T09:24:32Z</time>
      </trkpt>
      <trkpt lat="42.91154" lon="0.21511">
        <ele>1549.3961697458</ele>
        <time>2016-10-16T09:24:37Z</time>
      </trkpt>
      <trkpt lat="42.91148" lon="0.21508">
        <ele>1549.3961697458</ele>
        <time>2016-10-16T09:24:42Z</time>
      </trkpt>
      <trkpt lat="42.91143" lon="0.21504">
        <ele>1549.4577740334</ele>
        <time>2016-10-16T09:24:47Z</time>
      </trkpt>
      <trkpt lat="42.9114" lon="0.21499">
        <ele>1549.4577740334</ele>
        <time>2016-10-16T09:24:52Z</time>
      </trkpt>
      <trkpt lat="42.91135" lon="0.21494">
        <ele>1549.5575980659</ele>
        <time>2016-10-16T09:24:57Z</time>
      </trkpt>
      <trkpt lat="42.91133" lon="0.21489">
        <ele>1549.5575980659</ele>
        <time>2016-10-16T09:25:02Z</time>
      </trkpt>
      <trkpt lat="42.91129" lon="0.21486">
        <ele>1549.6934663225</ele>
        <time>2016-10-16T09:25:07Z</time>
      </trkpt>
      <trkpt lat="42.91125" lon="0.21481">
        <ele>1549.6934663225</ele>
        <time>2016-10-16T09:25:12Z</time>
      </trkpt>
      <trkpt lat="42.91124" lon="0.21477">
        <ele>1549.6934663225</ele>
        <time>2016-10-16T09:25:17Z</time>
      </trkpt>
      <trkpt lat="42.91123" lon="0.21475">
        <ele>1549.8919952216</ele>
        <time>2016-10-16T09:25:22Z</time>
      </trkpt>
      <trkpt lat="42.9112" lon="0.21472">
        <ele>1549.8919952216</ele>
        <time>2016-10-16T09:25:27Z</time>
      </trkpt>
      <trkpt lat="42.91119" lon="0.21471">
        <ele>1549.8919952216</ele>
        <time>2016-10-16T09:25:32Z</time>
      </trkpt>
      <trkpt lat="42.91119" lon="0.2147">
        <ele>1549.8919952216</ele>
        <time>2016-10-16T09:25:37Z</time>
      </trkpt>
      <trkpt lat="42.91119" lon="0.2147">
        <ele>1549.8919952216</ele>
        <time>2016-10-16T09:25:42Z</time>
      </trkpt>
      <trkpt lat="42.91117" lon="0.21472">
        <ele>1549.8919952216</ele>
        <time>2016-10-16T09:25:47Z</time>
      </trkpt>
      <trkpt lat="42.91112" lon="0.21482">
        <ele>1550.1631357674</ele>
        <time>2016-10-16T09:25:52Z</time>
      </trkpt>
      <trkpt lat="42.91108" lon="0.21489">
        <ele>1550.1631357674</ele>
        <time>2016-10-16T09:25:57Z</time>
      </trkpt>
      <trkpt lat="42.91103" lon="0.21495">
        <ele>1550.4725345265</ele>
        <time>2016-10-16T09:26:02Z</time>
      </trkpt>
      <trkpt lat="42.91098" lon="0.21499">
        <ele>1550.4725345265</ele>
        <time>2016-10-16T09:26:07Z</time>
      </trkpt>
      <trkpt lat="42.91095" lon="0.21503">
        <ele>1550.8170150107</ele>
        <time>2016-10-16T09:26:12Z</time>
      </trkpt>
      <trkpt lat="42.91092" lon="0.21508">
        <ele>1550.8170150107</ele>
        <time>2016-10-16T09:26:17Z</time>
      </trkpt>
      <trkpt lat="42.91091" lon="0.21512">
        <ele>1550.8170150107</ele>
        <time>2016-10-16T09:26:22Z</time>
      </trkpt>
      <trkpt lat="42.9109" lon="0.21515">
        <ele>1551.2078762894</ele>
        <time>2016-10-16T09:26:27Z</time>
      </trkpt>
      <trkpt lat="42.91092" lon="0.21517">
        <ele>1551.2078762894</ele>
        <time>2016-10-16T09:26:32Z</time>
      </trkpt>
      <trkpt lat="42.91091" lon="0.21519">
        <ele>1551.2078762894</ele>
        <time>2016-10-16T09:26:37Z</time>
      </trkpt>
      <trkpt lat="42.9109" lon="0.21524">
        <ele>1551.2078762894</ele>
        <time>2016-10-16T09:26:42Z</time>
      </trkpt>
      <trkpt lat="42.91088" lon="0.2153">
        <ele>1551.6409602696</ele>
        <time>2016-10-16T09:26:47Z</time>
      </trkpt>
      <trkpt lat="42.91083" lon="0.21533">
        <ele>1551.6409602696</ele>
        <time>2016-10-16T09:26:52Z</time>
      </trkpt>
      <trkpt lat="42.91077" lon="0.21538">
        <ele>1552.0833905329</ele>
        <time>2016-10-16T09:26:57Z</time>
      </trkpt>
      <trkpt lat="42.91071" lon="0.21539">
        <ele>1552.0833905329</ele>
        <time>2016-10-16T09:27:02Z</time>
      </trkpt>
      <trkpt lat="42.91066" lon="0.21538">
        <ele>1552.5334681219</ele>
        <time>2016-10-16T09:27:07Z</time>
      </trkpt>
      <trkpt lat="42.91062" lon="0.21537">
        <ele>1552.5334681219</ele>
        <time>2016-10-16T09:27:12Z</time>
      </trkpt>
      <trkpt lat="42.91057" lon="0.21539">
        <ele>1552.5334681219</ele>
        <time>2016-10-16T09:27:17Z</time>
      </trkpt>
      <trkpt lat="42.91051" lon="0.21541">
        <ele>1552.9751286431</ele>
        <time>2016-10-16T09:27:22Z</time>
      </trkpt>
      <trkpt lat="42.91047" lon="0.21541">
        <ele>1552.9751286431</ele>
        <time>2016-10-16T09:27:27Z</time>
      </trkpt>
      <trkpt lat="42.91045" lon="0.21537">
        <ele>1552.9751286431</ele>
        <time>2016-10-16T09:27:32Z</time>
      </trkpt>
      <trkpt lat="42.91044" lon="0.21532">
        <ele>1553.4223075461</ele>
        <time>2016-10-16T09:27:37Z</time>
      </trkpt>
      <trkpt lat="42.91041" lon="0.21529">
        <ele>1553.4223075461</ele>
        <time>2016-10-16T09:27:42Z</time>
      </trkpt>
      <trkpt lat="42.91037" lon="0.21527">
        <ele>1553.4223075461</ele>
        <time>2016-10-16T09:27:47Z</time>
      </trkpt>
      <trkpt lat="42.91034" lon="0.21526">
        <ele>1553.8590265096</ele>
        <time>2016-10-16T09:27:52Z</time>
      </trkpt>
      <trkpt lat="42.91032" lon="0.21525">
        <ele>1553.8590265096</ele>
        <time>2016-10-16T09:27:57Z</time>
      </trkpt>
      <trkpt lat="42.9103" lon="0.2152">
        <ele>1553.8590265096</ele>
        <time>2016-10-16T09:28:02Z</time>
      </trkpt>
      <trkpt lat="42.91026" lon="0.21517">
        <ele>1554.2993159102</ele>
        <time>2016-10-16T09:28:07Z</time>
      </trkpt>
      <trkpt lat="42.91025" lon="0.21514">
        <ele>1554.2993159102</ele>
        <time>2016-10-16T09:28:12Z</time>
      </trkpt>
      <trkpt lat="42.91023" lon="0.21511">
        <ele>1554.2993159102</ele>
        <time>2016-10-16T09:28:17Z</time>
      </trkpt>
      <trkpt lat="42.91019" lon="0.21507">
        <ele>1554.741721563</ele>
        <time>2016-10-16T09:28:22Z</time>
      </trkpt>
      <trkpt lat="42.91015" lon="0.21506">
        <ele>1554.741721563</ele>
        <time>2016-10-16T09:28:27Z</time>
      </trkpt>
      <trkpt lat="42.91012" lon="0.21506">
        <ele>1554.741721563</ele>
        <time>2016-10-16T09:28:32Z</time>
      </trkpt>
      <trkpt lat="42.91006" lon="0.21504">
        <ele>1555.184870645</ele>
        <time>2016-10-16T09:28:37Z</time>
      </trkpt>
      <trkpt lat="42.91003" lon="0.21497">
        <ele>1555.184870645</ele>
        <time>2016-10-16T09:28:42Z</time>
      </trkpt>
      <trkpt lat="42.91001" lon="0.21491">
        <ele>1555.627474551</ele>
        <time>2016-10-16T09:28:47Z</time>
      </trkpt>
      <trkpt lat="42.90996" lon="0.21487">
        <ele>1555.627474551</ele>
        <time>2016-10-16T09:28:52Z</time>
      </trkpt>
      <trkpt lat="42.90992" lon="0.21485">
        <ele>1556.0683309877</ele>
        <time>2016-10-16T09:28:57Z</time>
      </trkpt>
      <trkpt lat="42.90987" lon="0.21483">
        <ele>1556.0683309877</ele>
        <time>2016-10-16T09:29:02Z</time>
      </trkpt>
      <trkpt lat="42.90982" lon="0.21481">
        <ele>1556.5063253585</ele>
        <time>2016-10-16T09:29:07Z</time>
      </trkpt>
      <trkpt lat="42.90976" lon="0.2148">
        <ele>1556.5063253585</ele>
        <time>2016-10-16T09:29:12Z</time>
      </trkpt>
      <trkpt lat="42.90974" lon="0.21481">
        <ele>1556.5063253585</ele>
        <time>2016-10-16T09:29:17Z</time>
      </trkpt>
      <trkpt lat="42.90966" lon="0.21477">
        <ele>1556.9980848885</ele>
        <time>2016-10-16T09:29:22Z</time>
      </trkpt>
      <trkpt lat="42.90963" lon="0.21477">
        <ele>1556.9980848885</ele>
        <time>2016-10-16T09:29:27Z</time>
      </trkpt>
      <trkpt lat="42.90959" lon="0.21473">
        <ele>1556.9980848885</ele>
        <time>2016-10-16T09:29:32Z</time>
      </trkpt>
      <trkpt lat="42.90955" lon="0.21469">
        <ele>1557.5238581513</ele>
        <time>2016-10-16T09:29:37Z</time>
      </trkpt>
      <trkpt lat="42.90952" lon="0.21467">
        <ele>1557.5238581513</ele>
        <time>2016-10-16T09:29:42Z</time>
      </trkpt>
      <trkpt lat="42.90949" lon="0.21464">
        <ele>1557.5238581513</ele>
        <time>2016-10-16T09:29:47Z</time>
      </trkpt>
      <trkpt lat="42.90947" lon="0.21461">
        <ele>1558.0652582192</ele>
        <time>2016-10-16T09:29:52Z</time>
      </trkpt>
      <trkpt lat="42.90944" lon="0.21456">
        <ele>1558.0652582192</ele>
        <time>2016-10-16T09:29:57Z</time>
      </trkpt>
      <trkpt lat="42.90941" lon="0.21452">
        <ele>1558.6052170859</ele>
        <time>2016-10-16T09:30:02Z</time>
      </trkpt>
      <trkpt lat="42.90939" lon="0.2145">
        <ele>1558.6052170859</ele>
        <time>2016-10-16T09:30:07Z</time>
      </trkpt>
      <trkpt lat="42.90937" lon="0.21448">
        <ele>1558.6052170859</ele>
        <time>2016-10-16T09:30:12Z</time>
      </trkpt>
      <trkpt lat="42.90934" lon="0.21447">
        <ele>1558.6052170859</ele>
        <time>2016-10-16T09:30:17Z</time>
      </trkpt>
      <trkpt lat="42.9093" lon="0.21444">
        <ele>1559.1855879954</ele>
        <time>2016-10-16T09:30:22Z</time>
      </trkpt>
      <trkpt lat="42.90925" lon="0.21443">
        <ele>1559.1855879954</ele>
        <time>2016-10-16T09:30:27Z</time>
      </trkpt>
      <trkpt lat="42.90921" lon="0.21444">
        <ele>1559.7585803297</ele>
        <time>2016-10-16T09:30:32Z</time>
      </trkpt>
      <trkpt lat="42.90918" lon="0.21443">
        <ele>1559.7585803297</ele>
        <time>2016-10-16T09:30:37Z</time>
      </trkpt>
      <trkpt lat="42.90915" lon="0.21441">
        <ele>1559.7585803297</ele>
        <time>2016-10-16T09:30:42Z</time>
      </trkpt>
      <trkpt lat="42.90912" lon="0.21439">
        <ele>1560.3376048024</ele>
        <time>2016-10-16T09:30:47Z</time>
      </trkpt>
      <trkpt lat="42.90909" lon="0.21436">
        <ele>1560.3376048024</ele>
        <time>2016-10-16T09:30:52Z</time>
      </trkpt>
      <trkpt lat="42.90906" lon="0.21431">
        <ele>1560.3376048024</ele>
        <time>2016-10-16T09:30:57Z</time>
      </trkpt>
      <trkpt lat="42.90901" lon="0.21428">
        <ele>1560.9350932966</ele>
        <time>2016-10-16T09:31:02Z</time>
      </trkpt>
      <trkpt lat="42.90896" lon="0.21425">
        <ele>1560.9350932966</ele>
        <time>2016-10-16T09:31:07Z</time>
      </trkpt>
      <trkpt lat="42.90893" lon="0.21423">
        <ele>1561.5193047259</ele>
        <time>2016-10-16T09:31:12Z</time>
      </trkpt>
      <trkpt lat="42.9089" lon="0.21417">
        <ele>1561.5193047259</ele>
        <time>2016-10-16T09:31:17Z</time>
      </trkpt>
      <trkpt lat="42.90886" lon="0.21414">
        <ele>1562.1041310426</ele>
        <time>2016-10-16T09:31:22Z</time>
      </trkpt>
      <trkpt lat="42.90885" lon="0.21406">
        <ele>1562.1041310426</ele>
        <time>2016-10-16T09:31:27Z</time>
      </trkpt>
      <trkpt lat="42.90884" lon="0.21402">
        <ele>1562.6880619626</ele>
        <time>2016-10-16T09:31:32Z</time>
      </trkpt>
      <trkpt lat="42.90882" lon="0.21397">
        <ele>1562.6880619626</ele>
        <time>2016-10-16T09:31:37Z</time>
      </trkpt>
      <trkpt lat="42.90879" lon="0.2139">
        <ele>1563.2697343185</ele>
        <time>2016-10-16T09:31:42Z</time>
      </trkpt>
      <trkpt lat="42.90876" lon="0.21388">
        <ele>1563.2697343185</ele>
        <time>2016-10-16T09:31:47Z</time>
      </trkpt>
      <trkpt lat="42.90871" lon="0.21384">
        <ele>1563.8479268354</ele>
        <time>2016-10-16T09:31:52Z</time>
      </trkpt>
      <trkpt lat="42.90864" lon="0.21381">
        <ele>1563.8479268354</ele>
        <time>2016-10-16T09:31:57Z</time>
      </trkpt>
      <trkpt lat="42.9086" lon="0.21377">
        <ele>1564.4215546377</ele>
        <time>2016-10-16T09:32:02Z</time>
      </trkpt>
      <trkpt lat="42.90857" lon="0.21373">
        <ele>1564.4215546377</ele>
        <time>2016-10-16T09:32:07Z</time>
      </trkpt>
      <trkpt lat="42.90853" lon="0.21369">
        <ele>1564.4215546377</ele>
        <time>2016-10-16T09:32:12Z</time>
      </trkpt>
      <trkpt lat="42.90852" lon="0.21364">
        <ele>1565.0328973772</ele>
        <time>2016-10-16T09:32:17Z</time>
      </trkpt>
      <trkpt lat="42.90849" lon="0.21359">
        <ele>1565.0328973772</ele>
        <time>2016-10-16T09:32:22Z</time>
      </trkpt>
      <trkpt lat="42.90846" lon="0.21356">
        <ele>1565.0328973772</ele>
        <time>2016-10-16T09:32:27Z</time>
      </trkpt>
      <trkpt lat="42.90841" lon="0.21353">
        <ele>1565.6778288106</ele>
        <time>2016-10-16T09:32:32Z</time>
      </trkpt>
      <trkpt lat="42.90839" lon="0.21349">
        <ele>1565.6778288106</ele>
        <time>2016-10-16T09:32:37Z</time>
      </trkpt>
      <trkpt lat="42.90835" lon="0.21343">
        <ele>1566.3092382659</ele>
        <time>2016-10-16T09:32:42Z</time>
      </trkpt>
      <trkpt lat="42.9083" lon="0.21339">
        <ele>1566.3092382659</ele>
        <time>2016-10-16T09:32:47Z</time>
      </trkpt>
      <trkpt lat="42.90827" lon="0.21335">
        <ele>1566.9412003271</ele>
        <time>2016-10-16T09:32:52Z</time>
      </trkpt>
      <trkpt lat="42.90822" lon="0.21331">
        <ele>1566.9412003271</ele>
        <time>2016-10-16T09:32:57Z</time>
      </trkpt>
      <trkpt lat="42.90817" lon="0.21326">
        <ele>1567.5579738507</ele>
        <time>2016-10-16T09:33:02Z</time>
      </trkpt>
      <trkpt lat="42.90813" lon="0.21322">
        <ele>1567.5579738507</ele>
        <time>2016-10-16T09:33:07Z</time>
      </trkpt>
      <trkpt lat="42.9081" lon="0.21318">
        <ele>1568.1738823218</ele>
        <time>2016-10-16T09:33:12Z</time>
      </trkpt>
      <trkpt lat="42.90808" lon="0.21312">
        <ele>1568.1738823218</ele>
        <time>2016-10-16T09:33:17Z</time>
      </trkpt>
      <trkpt lat="42.90804" lon="0.21308">
        <ele>1568.8022429891</ele>
        <time>2016-10-16T09:33:22Z</time>
      </trkpt>
      <trkpt lat="42.90799" lon="0.21304">
        <ele>1568.8022429891</ele>
        <time>2016-10-16T09:33:27Z</time>
      </trkpt>
      <trkpt lat="42.90796" lon="0.21299">
        <ele>1569.4265808143</ele>
        <time>2016-10-16T09:33:32Z</time>
      </trkpt>
      <trkpt lat="42.90794" lon="0.21298">
        <ele>1569.4265808143</ele>
        <time>2016-10-16T09:33:37Z</time>
      </trkpt>
      <trkpt lat="42.90791" lon="0.21297">
        <ele>1569.4265808143</ele>
        <time>2016-10-16T09:33:42Z</time>
      </trkpt>
      <trkpt lat="42.90787" lon="0.21296">
        <ele>1570.074920402</ele>
        <time>2016-10-16T09:33:47Z</time>
      </trkpt>
      <trkpt lat="42.90781" lon="0.21295">
        <ele>1570.074920402</ele>
        <time>2016-10-16T09:33:52Z</time>
      </trkpt>
      <trkpt lat="42.90779" lon="0.21292">
        <ele>1570.7155584656</ele>
        <time>2016-10-16T09:33:57Z</time>
      </trkpt>
      <trkpt lat="42.90774" lon="0.21289">
        <ele>1570.7155584656</ele>
        <time>2016-10-16T09:34:02Z</time>
      </trkpt>
      <trkpt lat="42.90769" lon="0.21287">
        <ele>1571.3480089062</ele>
        <time>2016-10-16T09:34:07Z</time>
      </trkpt>
      <trkpt lat="42.90763" lon="0.21282">
        <ele>1571.3480089062</ele>
        <time>2016-10-16T09:34:12Z</time>
      </trkpt>
      <trkpt lat="42.90761" lon="0.21279">
        <ele>1571.9862994173</ele>
        <time>2016-10-16T09:34:17Z</time>
      </trkpt>
      <trkpt lat="42.90757" lon="0.21278">
        <ele>1571.9862994173</ele>
        <time>2016-10-16T09:34:22Z</time>
      </trkpt>
      <trkpt lat="42.90756" lon="0.21274">
        <ele>1571.9862994173</ele>
        <time>2016-10-16T09:34:27Z</time>
      </trkpt>
      <trkpt lat="42.90754" lon="0.2127">
        <ele>1572.6578657191</ele>
        <time>2016-10-16T09:34:32Z</time>
      </trkpt>
      <trkpt lat="42.90752" lon="0.21266">
        <ele>1572.6578657191</ele>
        <time>2016-10-16T09:34:37Z</time>
      </trkpt>
      <trkpt lat="42.90751" lon="0.21263">
        <ele>1572.6578657191</ele>
        <time>2016-10-16T09:34:42Z</time>
      </trkpt>
      <trkpt lat="42.90753" lon="0.21257">
        <ele>1573.3448433656</ele>
        <time>2016-10-16T09:34:47Z</time>
      </trkpt>
      <trkpt lat="42.9075" lon="0.2125">
        <ele>1573.3448433656</ele>
        <time>2016-10-16T09:34:52Z</time>
      </trkpt>
      <trkpt lat="42.9075" lon="0.21244">
        <ele>1574.0162682874</ele>
        <time>2016-10-16T09:34:57Z</time>
      </trkpt>
      <trkpt lat="42.90746" lon="0.21236">
        <ele>1574.0162682874</ele>
        <time>2016-10-16T09:35:02Z</time>
      </trkpt>
      <trkpt lat="42.90744" lon="0.21231">
        <ele>1574.67236008</ele>
        <time>2016-10-16T09:35:07Z</time>
      </trkpt>
      <trkpt lat="42.90742" lon="0.21226">
        <ele>1574.67236008</ele>
        <time>2016-10-16T09:35:12Z</time>
      </trkpt>
      <trkpt lat="42.90741" lon="0.21219">
        <ele>1575.3134071447</ele>
        <time>2016-10-16T09:35:17Z</time>
      </trkpt>
      <trkpt lat="42.90738" lon="0.21213">
        <ele>1575.3134071447</ele>
        <time>2016-10-16T09:35:22Z</time>
      </trkpt>
      <trkpt lat="42.90735" lon="0.21208">
        <ele>1575.9541716359</ele>
        <time>2016-10-16T09:35:27Z</time>
      </trkpt>
      <trkpt lat="42.90732" lon="0.21204">
        <ele>1575.9541716359</ele>
        <time>2016-10-16T09:35:32Z</time>
      </trkpt>
      <trkpt lat="42.90729" lon="0.21199">
        <ele>1575.9541716359</ele>
        <time>2016-10-16T09:35:37Z</time>
      </trkpt>
      <trkpt lat="42.90725" lon="0.21195">
        <ele>1576.6083725104</ele>
        <time>2016-10-16T09:35:42Z</time>
      </trkpt>
      <trkpt lat="42.9072" lon="0.21192">
        <ele>1576.6083725104</ele>
        <time>2016-10-16T09:35:47Z</time>
      </trkpt>
      <trkpt lat="42.90718" lon="0.21187">
        <ele>1577.2598999506</ele>
        <time>2016-10-16T09:35:52Z</time>
      </trkpt>
      <trkpt lat="42.90715" lon="0.21184">
        <ele>1577.2598999506</ele>
        <time>2016-10-16T09:35:57Z</time>
      </trkpt>
      <trkpt lat="42.90713" lon="0.2118">
        <ele>1577.2598999506</ele>
        <time>2016-10-16T09:36:02Z</time>
      </trkpt>
      <trkpt lat="42.90713" lon="0.21179">
        <ele>1577.2598999506</ele>
        <time>2016-10-16T09:36:07Z</time>
      </trkpt>
      <trkpt lat="42.90713" lon="0.21179">
        <ele>1577.2598999506</ele>
        <time>2016-10-16T09:36:12Z</time>
      </trkpt>
      <trkpt lat="42.90713" lon="0.21179">
        <ele>1577.2598999506</ele>
        <time>2016-10-16T09:36:17Z</time>
      </trkpt>
      <trkpt lat="42.90713" lon="0.21179">
        <ele>1577.2598999506</ele>
        <time>2016-10-16T09:36:22Z</time>
      </trkpt>
      <trkpt lat="42.90713" lon="0.2118">
        <ele>1577.2598999506</ele>
        <time>2016-10-16T09:36:27Z</time>
      </trkpt>
      <trkpt lat="42.90713" lon="0.2118">
        <ele>1577.2598999506</ele>
        <time>2016-10-16T09:36:32Z</time>
      </trkpt>
      <trkpt lat="42.90712" lon="0.21177">
        <ele>1577.9803423722</ele>
        <time>2016-10-16T09:36:37Z</time>
      </trkpt>
      <trkpt lat="42.90713" lon="0.21172">
        <ele>1577.9803423722</ele>
        <time>2016-10-16T09:36:42Z</time>
      </trkpt>
      <trkpt lat="42.90713" lon="0.21167">
        <ele>1577.9803423722</ele>
        <time>2016-10-16T09:36:47Z</time>
      </trkpt>
      <trkpt lat="42.90711" lon="0.21161">
        <ele>1578.7782282651</ele>
        <time>2016-10-16T09:36:52Z</time>
      </trkpt>
      <trkpt lat="42.9071" lon="0.21153">
        <ele>1578.7782282651</ele>
        <time>2016-10-16T09:36:57Z</time>
      </trkpt>
      <trkpt lat="42.90708" lon="0.21149">
        <ele>1579.5604005327</ele>
        <time>2016-10-16T09:37:02Z</time>
      </trkpt>
      <trkpt lat="42.90704" lon="0.21146">
        <ele>1579.5604005327</ele>
        <time>2016-10-16T09:37:07Z</time>
      </trkpt>
      <trkpt lat="42.907" lon="0.2114">
        <ele>1580.3415068821</ele>
        <time>2016-10-16T09:37:12Z</time>
      </trkpt>
      <trkpt lat="42.90694" lon="0.21134">
        <ele>1580.3415068821</ele>
        <time>2016-10-16T09:37:17Z</time>
      </trkpt>
      <trkpt lat="42.90692" lon="0.21131">
        <ele>1581.0919252629</ele>
        <time>2016-10-16T09:37:22Z</time>
      </trkpt>
      <trkpt lat="42.9069" lon="0.21129">
        <ele>1581.0919252629</ele>
        <time>2016-10-16T09:37:27Z</time>
      </trkpt>
      <trkpt lat="42.90685" lon="0.21127">
        <ele>1581.0919252629</ele>
        <time>2016-10-16T09:37:32Z</time>
      </trkpt>
      <trkpt lat="42.90682" lon="0.21123">
        <ele>1581.8419781586</ele>
        <time>2016-10-16T09:37:37Z</time>
      </trkpt>
      <trkpt lat="42.90678" lon="0.21119">
        <ele>1581.8419781586</ele>
        <time>2016-10-16T09:37:42Z</time>
      </trkpt>
      <trkpt lat="42.90676" lon="0.21117">
        <ele>1581.8419781586</ele>
        <time>2016-10-16T09:37:47Z</time>
      </trkpt>
      <trkpt lat="42.90674" lon="0.21114">
        <ele>1582.5909754797</ele>
        <time>2016-10-16T09:37:52Z</time>
      </trkpt>
      <trkpt lat="42.90669" lon="0.21112">
        <ele>1582.5909754797</ele>
        <time>2016-10-16T09:37:57Z</time>
      </trkpt>
      <trkpt lat="42.90667" lon="0.21115">
        <ele>1582.5909754797</ele>
        <time>2016-10-16T09:38:02Z</time>
      </trkpt>
      <trkpt lat="42.90667" lon="0.21114">
        <ele>1582.5909754797</ele>
        <time>2016-10-16T09:38:07Z</time>
      </trkpt>
      <trkpt lat="42.90664" lon="0.21114">
        <ele>1583.3239055313</ele>
        <time>2016-10-16T09:38:12Z</time>
      </trkpt>
      <trkpt lat="42.90663" lon="0.21115">
        <ele>1583.3239055313</ele>
        <time>2016-10-16T09:38:17Z</time>
      </trkpt>
      <trkpt lat="42.90663" lon="0.21115">
        <ele>1583.3239055313</ele>
        <time>2016-10-16T09:38:22Z</time>
      </trkpt>
      <trkpt lat="42.90663" lon="0.21114">
        <ele>1583.3239055313</ele>
        <time>2016-10-16T09:38:27Z</time>
      </trkpt>
      <trkpt lat="42.90663" lon="0.21115">
        <ele>1583.3239055313</ele>
        <time>2016-10-16T09:38:32Z</time>
      </trkpt>
      <trkpt lat="42.90663" lon="0.21115">
        <ele>1583.3239055313</ele>
        <time>2016-10-16T09:38:37Z</time>
      </trkpt>
      <trkpt lat="42.90662" lon="0.21114">
        <ele>1583.3239055313</ele>
        <time>2016-10-16T09:38:42Z</time>
      </trkpt>
      <trkpt lat="42.90662" lon="0.21115">
        <ele>1583.3239055313</ele>
        <time>2016-10-16T09:38:47Z</time>
      </trkpt>
      <trkpt lat="42.90662" lon="0.21115">
        <ele>1583.3239055313</ele>
        <time>2016-10-16T09:38:52Z</time>
      </trkpt>
      <trkpt lat="42.90662" lon="0.21115">
        <ele>1583.3239055313</ele>
        <time>2016-10-16T09:38:57Z</time>
      </trkpt>
      <trkpt lat="42.90663" lon="0.21117">
        <ele>1583.3239055313</ele>
        <time>2016-10-16T09:39:02Z</time>
      </trkpt>
      <trkpt lat="42.90664" lon="0.21117">
        <ele>1583.3239055313</ele>
        <time>2016-10-16T09:39:07Z</time>
      </trkpt>
      <trkpt lat="42.90664" lon="0.21117">
        <ele>1583.3239055313</ele>
        <time>2016-10-16T09:39:12Z</time>
      </trkpt>
      <trkpt lat="42.90664" lon="0.21117">
        <ele>1583.3239055313</ele>
        <time>2016-10-16T09:39:17Z</time>
      </trkpt>
      <trkpt lat="42.90664" lon="0.21117">
        <ele>1583.3239055313</ele>
        <time>2016-10-16T09:39:22Z</time>
      </trkpt>
      <trkpt lat="42.90665" lon="0.21117">
        <ele>1583.3239055313</ele>
        <time>2016-10-16T09:39:27Z</time>
      </trkpt>
      <trkpt lat="42.90664" lon="0.21117">
        <ele>1583.3239055313</ele>
        <time>2016-10-16T09:39:32Z</time>
      </trkpt>
      <trkpt lat="42.90664" lon="0.21117">
        <ele>1583.3239055313</ele>
        <time>2016-10-16T09:39:37Z</time>
      </trkpt>
      <trkpt lat="42.90664" lon="0.21117">
        <ele>1583.3239055313</ele>
        <time>2016-10-16T09:39:42Z</time>
      </trkpt>
      <trkpt lat="42.90664" lon="0.21117">
        <ele>1583.3239055313</ele>
        <time>2016-10-16T09:39:47Z</time>
      </trkpt>
      <trkpt lat="42.90665" lon="0.21118">
        <ele>1583.3239055313</ele>
        <time>2016-10-16T09:39:52Z</time>
      </trkpt>
      <trkpt lat="42.90665" lon="0.21118">
        <ele>1584.0989960699</ele>
        <time>2016-10-16T09:39:57Z</time>
      </trkpt>
      <trkpt lat="42.90665" lon="0.21118">
        <ele>1584.0989960699</ele>
        <time>2016-10-16T09:40:02Z</time>
      </trkpt>
      <trkpt lat="42.90665" lon="0.21117">
        <ele>1584.0989960699</ele>
        <time>2016-10-16T09:40:07Z</time>
      </trkpt>
      <trkpt lat="42.90666" lon="0.21118">
        <ele>1584.0989960699</ele>
        <time>2016-10-16T09:40:12Z</time>
      </trkpt>
      <trkpt lat="42.90666" lon="0.21118">
        <ele>1584.0989960699</ele>
        <time>2016-10-16T09:40:17Z</time>
      </trkpt>
      <trkpt lat="42.90666" lon="0.21118">
        <ele>1584.0989960699</ele>
        <time>2016-10-16T09:40:22Z</time>
      </trkpt>
      <trkpt lat="42.90667" lon="0.21117">
        <ele>1584.0989960699</ele>
        <time>2016-10-16T09:40:27Z</time>
      </trkpt>
      <trkpt lat="42.90667" lon="0.21117">
        <ele>1584.0989960699</ele>
        <time>2016-10-16T09:40:32Z</time>
      </trkpt>
      <trkpt lat="42.90667" lon="0.21117">
        <ele>1584.0989960699</ele>
        <time>2016-10-16T09:40:37Z</time>
      </trkpt>
      <trkpt lat="42.90666" lon="0.21118">
        <ele>1584.0989960699</ele>
        <time>2016-10-16T09:40:42Z</time>
      </trkpt>
      <trkpt lat="42.90666" lon="0.21118">
        <ele>1584.0989960699</ele>
        <time>2016-10-16T09:40:47Z</time>
      </trkpt>
      <trkpt lat="42.90666" lon="0.21119">
        <ele>1584.0989960699</ele>
        <time>2016-10-16T09:40:52Z</time>
      </trkpt>
      <trkpt lat="42.90665" lon="0.2112">
        <ele>1584.0989960699</ele>
        <time>2016-10-16T09:40:57Z</time>
      </trkpt>
      <trkpt lat="42.90665" lon="0.21119">
        <ele>1584.0989960699</ele>
        <time>2016-10-16T09:41:02Z</time>
      </trkpt>
      <trkpt lat="42.90671" lon="0.21116">
        <ele>1584.9268799696</ele>
        <time>2016-10-16T09:41:07Z</time>
      </trkpt>
      <trkpt lat="42.90673" lon="0.21115">
        <ele>1584.9268799696</ele>
        <time>2016-10-16T09:41:12Z</time>
      </trkpt>
      <trkpt lat="42.90673" lon="0.21115">
        <ele>1584.9268799696</ele>
        <time>2016-10-16T09:41:17Z</time>
      </trkpt>
      <trkpt lat="42.90674" lon="0.21116">
        <ele>1584.9268799696</ele>
        <time>2016-10-16T09:41:22Z</time>
      </trkpt>
      <trkpt lat="42.90674" lon="0.21116">
        <ele>1584.9268799696</ele>
        <time>2016-10-16T09:41:27Z</time>
      </trkpt>
      <trkpt lat="42.90674" lon="0.21116">
        <ele>1584.9268799696</ele>
        <time>2016-10-16T09:41:32Z</time>
      </trkpt>
      <trkpt lat="42.90675" lon="0.21116">
        <ele>1584.9268799696</ele>
        <time>2016-10-16T09:41:37Z</time>
      </trkpt>
      <trkpt lat="42.90675" lon="0.21116">
        <ele>1584.9268799696</ele>
        <time>2016-10-16T09:41:42Z</time>
      </trkpt>
      <trkpt lat="42.90676" lon="0.21116">
        <ele>1584.9268799696</ele>
        <time>2016-10-16T09:41:47Z</time>
      </trkpt>
      <trkpt lat="42.90678" lon="0.21115">
        <ele>1584.9268799696</ele>
        <time>2016-10-16T09:41:52Z</time>
      </trkpt>
      <trkpt lat="42.90677" lon="0.21118">
        <ele>1585.7596502311</ele>
        <time>2016-10-16T09:41:57Z</time>
      </trkpt>
      <trkpt lat="42.90671" lon="0.21123">
        <ele>1585.7596502311</ele>
        <time>2016-10-16T09:42:02Z</time>
      </trkpt>
      <trkpt lat="42.90668" lon="0.21123">
        <ele>1586.5961729409</ele>
        <time>2016-10-16T09:42:07Z</time>
      </trkpt>
      <trkpt lat="42.90666" lon="0.21123">
        <ele>1586.5961729409</ele>
        <time>2016-10-16T09:42:12Z</time>
      </trkpt>
      <trkpt lat="42.90666" lon="0.21122">
        <ele>1586.5961729409</ele>
        <time>2016-10-16T09:42:17Z</time>
      </trkpt>
      <trkpt lat="42.90665" lon="0.21122">
        <ele>1586.5961729409</ele>
        <time>2016-10-16T09:42:22Z</time>
      </trkpt>
      <trkpt lat="42.90666" lon="0.21121">
        <ele>1586.5961729409</ele>
        <time>2016-10-16T09:42:27Z</time>
      </trkpt>
      <trkpt lat="42.90666" lon="0.21121">
        <ele>1586.5961729409</ele>
        <time>2016-10-16T09:42:32Z</time>
      </trkpt>
      <trkpt lat="42.90666" lon="0.21121">
        <ele>1586.5961729409</ele>
        <time>2016-10-16T09:42:37Z</time>
      </trkpt>
      <trkpt lat="42.90666" lon="0.21121">
        <ele>1586.5961729409</ele>
        <time>2016-10-16T09:42:42Z</time>
      </trkpt>
      <trkpt lat="42.90666" lon="0.2112">
        <ele>1586.5961729409</ele>
        <time>2016-10-16T09:42:47Z</time>
      </trkpt>
      <trkpt lat="42.90665" lon="0.21119">
        <ele>1586.5961729409</ele>
        <time>2016-10-16T09:42:52Z</time>
      </trkpt>
      <trkpt lat="42.90664" lon="0.21118">
        <ele>1586.5961729409</ele>
        <time>2016-10-16T09:42:57Z</time>
      </trkpt>
      <trkpt lat="42.90664" lon="0.21118">
        <ele>1586.5961729409</ele>
        <time>2016-10-16T09:43:02Z</time>
      </trkpt>
      <trkpt lat="42.9066" lon="0.21122">
        <ele>1587.608354954</ele>
        <time>2016-10-16T09:43:07Z</time>
      </trkpt>
      <trkpt lat="42.90655" lon="0.21122">
        <ele>1587.608354954</ele>
        <time>2016-10-16T09:43:12Z</time>
      </trkpt>
      <trkpt lat="42.90653" lon="0.21122">
        <ele>1587.608354954</ele>
        <time>2016-10-16T09:43:17Z</time>
      </trkpt>
      <trkpt lat="42.9065" lon="0.21121">
        <ele>1588.637969855</ele>
        <time>2016-10-16T09:43:22Z</time>
      </trkpt>
      <trkpt lat="42.90644" lon="0.21119">
        <ele>1588.637969855</ele>
        <time>2016-10-16T09:43:27Z</time>
      </trkpt>
      <trkpt lat="42.90639" lon="0.21117">
        <ele>1589.6248674998</ele>
        <time>2016-10-16T09:43:32Z</time>
      </trkpt>
      <trkpt lat="42.90634" lon="0.21115">
        <ele>1589.6248674998</ele>
        <time>2016-10-16T09:43:37Z</time>
      </trkpt>
      <trkpt lat="42.90629" lon="0.21114">
        <ele>1590.556704812</ele>
        <time>2016-10-16T09:43:42Z</time>
      </trkpt>
      <trkpt lat="42.90625" lon="0.21113">
        <ele>1590.556704812</ele>
        <time>2016-10-16T09:43:47Z</time>
      </trkpt>
      <trkpt lat="42.90623" lon="0.21111">
        <ele>1590.556704812</ele>
        <time>2016-10-16T09:43:52Z</time>
      </trkpt>
      <trkpt lat="42.90619" lon="0.2111">
        <ele>1591.4654688444</ele>
        <time>2016-10-16T09:43:57Z</time>
      </trkpt>
      <trkpt lat="42.90617" lon="0.21107">
        <ele>1591.4654688444</ele>
        <time>2016-10-16T09:44:02Z</time>
      </trkpt>
      <trkpt lat="42.90613" lon="0.21106">
        <ele>1591.4654688444</ele>
        <time>2016-10-16T09:44:07Z</time>
      </trkpt>
      <trkpt lat="42.90609" lon="0.21104">
        <ele>1592.3376637022</ele>
        <time>2016-10-16T09:44:12Z</time>
      </trkpt>
      <trkpt lat="42.90604" lon="0.21103">
        <ele>1592.3376637022</ele>
        <time>2016-10-16T09:44:17Z</time>
      </trkpt>
      <trkpt lat="42.90602" lon="0.211">
        <ele>1592.3376637022</ele>
        <time>2016-10-16T09:44:22Z</time>
      </trkpt>
      <trkpt lat="42.90598" lon="0.21097">
        <ele>1593.2329784631</ele>
        <time>2016-10-16T09:44:27Z</time>
      </trkpt>
      <trkpt lat="42.90594" lon="0.21095">
        <ele>1593.2329784631</ele>
        <time>2016-10-16T09:44:32Z</time>
      </trkpt>
      <trkpt lat="42.9059" lon="0.21093">
        <ele>1593.2329784631</ele>
        <time>2016-10-16T09:44:37Z</time>
      </trkpt>
      <trkpt lat="42.90587" lon="0.2109">
        <ele>1594.1778651432</ele>
        <time>2016-10-16T09:44:42Z</time>
      </trkpt>
      <trkpt lat="42.90584" lon="0.21088">
        <ele>1594.1778651432</ele>
        <time>2016-10-16T09:44:47Z</time>
      </trkpt>
      <trkpt lat="42.90581" lon="0.21083">
        <ele>1594.1778651432</ele>
        <time>2016-10-16T09:44:52Z</time>
      </trkpt>
      <trkpt lat="42.90579" lon="0.21079">
        <ele>1595.2111391709</ele>
        <time>2016-10-16T09:44:57Z</time>
      </trkpt>
      <trkpt lat="42.9058" lon="0.21078">
        <ele>1595.2111391709</ele>
        <time>2016-10-16T09:45:02Z</time>
      </trkpt>
      <trkpt lat="42.90579" lon="0.21076">
        <ele>1595.2111391709</ele>
        <time>2016-10-16T09:45:07Z</time>
      </trkpt>
      <trkpt lat="42.90576" lon="0.21074">
        <ele>1595.2111391709</ele>
        <time>2016-10-16T09:45:12Z</time>
      </trkpt>
      <trkpt lat="42.90574" lon="0.21072">
        <ele>1595.2111391709</ele>
        <time>2016-10-16T09:45:17Z</time>
      </trkpt>
      <trkpt lat="42.90573" lon="0.2107">
        <ele>1596.5126626709</ele>
        <time>2016-10-16T09:45:22Z</time>
      </trkpt>
      <trkpt lat="42.9057" lon="0.21066">
        <ele>1596.5126626709</ele>
        <time>2016-10-16T09:45:27Z</time>
      </trkpt>
      <trkpt lat="42.90568" lon="0.21063">
        <ele>1596.5126626709</ele>
        <time>2016-10-16T09:45:32Z</time>
      </trkpt>
      <trkpt lat="42.90564" lon="0.21059">
        <ele>1597.9025013938</ele>
        <time>2016-10-16T09:45:37Z</time>
      </trkpt>
      <trkpt lat="42.90561" lon="0.21056">
        <ele>1597.9025013938</ele>
        <time>2016-10-16T09:45:42Z</time>
      </trkpt>
      <trkpt lat="42.90558" lon="0.21055">
        <ele>1597.9025013938</ele>
        <time>2016-10-16T09:45:47Z</time>
      </trkpt>
      <trkpt lat="42.90553" lon="0.21053">
        <ele>1599.4010735062</ele>
        <time>2016-10-16T09:45:52Z</time>
      </trkpt>
      <trkpt lat="42.90552" lon="0.21048">
        <ele>1599.4010735062</ele>
        <time>2016-10-16T09:45:57Z</time>
      </trkpt>
      <trkpt lat="42.90551" lon="0.21048">
        <ele>1599.4010735062</ele>
        <time>2016-10-16T09:46:02Z</time>
      </trkpt>
      <trkpt lat="42.9055" lon="0.21044">
        <ele>1599.4010735062</ele>
        <time>2016-10-16T09:46:07Z</time>
      </trkpt>
      <trkpt lat="42.90549" lon="0.21041">
        <ele>1601.0558549746</ele>
        <time>2016-10-16T09:46:12Z</time>
      </trkpt>
      <trkpt lat="42.90547" lon="0.21037">
        <ele>1601.0558549746</ele>
        <time>2016-10-16T09:46:17Z</time>
      </trkpt>
      <trkpt lat="42.90547" lon="0.21035">
        <ele>1601.0558549746</ele>
        <time>2016-10-16T09:46:22Z</time>
      </trkpt>
      <trkpt lat="42.90548" lon="0.21035">
        <ele>1601.0558549746</ele>
        <time>2016-10-16T09:46:27Z</time>
      </trkpt>
      <trkpt lat="42.90548" lon="0.21031">
        <ele>1602.809562327</ele>
        <time>2016-10-16T09:46:32Z</time>
      </trkpt>
      <trkpt lat="42.90549" lon="0.21028">
        <ele>1602.809562327</ele>
        <time>2016-10-16T09:46:37Z</time>
      </trkpt>
      <trkpt lat="42.90547" lon="0.21026">
        <ele>1602.809562327</ele>
        <time>2016-10-16T09:46:42Z</time>
      </trkpt>
      <trkpt lat="42.90547" lon="0.21027">
        <ele>1602.809562327</ele>
        <time>2016-10-16T09:46:47Z</time>
      </trkpt>
      <trkpt lat="42.90548" lon="0.21027">
        <ele>1602.809562327</ele>
        <time>2016-10-16T09:46:52Z</time>
      </trkpt>
      <trkpt lat="42.90546" lon="0.2102">
        <ele>1604.8827026694</ele>
        <time>2016-10-16T09:46:57Z</time>
      </trkpt>
      <trkpt lat="42.90544" lon="0.21017">
        <ele>1604.8827026694</ele>
        <time>2016-10-16T09:47:02Z</time>
      </trkpt>
      <trkpt lat="42.90543" lon="0.21015">
        <ele>1604.8827026694</ele>
        <time>2016-10-16T09:47:07Z</time>
      </trkpt>
      <trkpt lat="42.90543" lon="0.21015">
        <ele>1604.8827026694</ele>
        <time>2016-10-16T09:47:12Z</time>
      </trkpt>
      <trkpt lat="42.90538" lon="0.21014">
        <ele>1607.1040537998</ele>
        <time>2016-10-16T09:47:17Z</time>
      </trkpt>
      <trkpt lat="42.90535" lon="0.21014">
        <ele>1607.1040537998</ele>
        <time>2016-10-16T09:47:22Z</time>
      </trkpt>
      <trkpt lat="42.90532" lon="0.2101">
        <ele>1607.1040537998</ele>
        <time>2016-10-16T09:47:27Z</time>
      </trkpt>
      <trkpt lat="42.90531" lon="0.21009">
        <ele>1609.4875497514</ele>
        <time>2016-10-16T09:47:32Z</time>
      </trkpt>
      <trkpt lat="42.90528" lon="0.21009">
        <ele>1609.4875497514</ele>
        <time>2016-10-16T09:47:37Z</time>
      </trkpt>
      <trkpt lat="42.90527" lon="0.2101">
        <ele>1609.4875497514</ele>
        <time>2016-10-16T09:47:42Z</time>
      </trkpt>
      <trkpt lat="42.90528" lon="0.21008">
        <ele>1609.4875497514</ele>
        <time>2016-10-16T09:47:47Z</time>
      </trkpt>
      <trkpt lat="42.90529" lon="0.21007">
        <ele>1609.4875497514</ele>
        <time>2016-10-16T09:47:52Z</time>
      </trkpt>
      <trkpt lat="42.90529" lon="0.21005">
        <ele>1609.4875497514</ele>
        <time>2016-10-16T09:47:57Z</time>
      </trkpt>
      <trkpt lat="42.90527" lon="0.21">
        <ele>1612.2618813381</ele>
        <time>2016-10-16T09:48:02Z</time>
      </trkpt>
      <trkpt lat="42.90527" lon="0.21">
        <ele>1612.2618813381</ele>
        <time>2016-10-16T09:48:07Z</time>
      </trkpt>
      <trkpt lat="42.90531" lon="0.20999">
        <ele>1612.2618813381</ele>
        <time>2016-10-16T09:48:12Z</time>
      </trkpt>
      <trkpt lat="42.90532" lon="0.20997">
        <ele>1612.2618813381</ele>
        <time>2016-10-16T09:48:17Z</time>
      </trkpt>
      <trkpt lat="42.90533" lon="0.20992">
        <ele>1615.1767647509</ele>
        <time>2016-10-16T09:48:22Z</time>
      </trkpt>
      <trkpt lat="42.90535" lon="0.2099">
        <ele>1615.1767647509</ele>
        <time>2016-10-16T09:48:27Z</time>
      </trkpt>
      <trkpt lat="42.90538" lon="0.20985">
        <ele>1615.1767647509</ele>
        <time>2016-10-16T09:48:32Z</time>
      </trkpt>
      <trkpt lat="42.90538" lon="0.20981">
        <ele>1618.1008719834</ele>
        <time>2016-10-16T09:48:37Z</time>
      </trkpt>
      <trkpt lat="42.90537" lon="0.20978">
        <ele>1618.1008719834</ele>
        <time>2016-10-16T09:48:42Z</time>
      </trkpt>
      <trkpt lat="42.90535" lon="0.20976">
        <ele>1618.1008719834</ele>
        <time>2016-10-16T09:48:47Z</time>
      </trkpt>
      <trkpt lat="42.90536" lon="0.20973">
        <ele>1618.1008719834</ele>
        <time>2016-10-16T09:48:52Z</time>
      </trkpt>
      <trkpt lat="42.90537" lon="0.2097">
        <ele>1621.0711151345</ele>
        <time>2016-10-16T09:48:57Z</time>
      </trkpt>
      <trkpt lat="42.90539" lon="0.20967">
        <ele>1621.0711151345</ele>
        <time>2016-10-16T09:49:02Z</time>
      </trkpt>
      <trkpt lat="42.90538" lon="0.20963">
        <ele>1621.0711151345</ele>
        <time>2016-10-16T09:49:07Z</time>
      </trkpt>
      <trkpt lat="42.90537" lon="0.20961">
        <ele>1621.0711151345</ele>
        <time>2016-10-16T09:49:12Z</time>
      </trkpt>
      <trkpt lat="42.90539" lon="0.2096">
        <ele>1621.0711151345</ele>
        <time>2016-10-16T09:49:17Z</time>
      </trkpt>
      <trkpt lat="42.90536" lon="0.20958">
        <ele>1624.1360826419</ele>
        <time>2016-10-16T09:49:22Z</time>
      </trkpt>
      <trkpt lat="42.90536" lon="0.20957">
        <ele>1624.1360826419</ele>
        <time>2016-10-16T09:49:27Z</time>
      </trkpt>
      <trkpt lat="42.90541" lon="0.20953">
        <ele>1624.1360826419</ele>
        <time>2016-10-16T09:49:32Z</time>
      </trkpt>
      <trkpt lat="42.90544" lon="0.20951">
        <ele>1627.2109431867</ele>
        <time>2016-10-16T09:49:37Z</time>
      </trkpt>
      <trkpt lat="42.90547" lon="0.20945">
        <ele>1627.2109431867</ele>
        <time>2016-10-16T09:49:42Z</time>
      </trkpt>
      <trkpt lat="42.90548" lon="0.20942">
        <ele>1627.2109431867</ele>
        <time>2016-10-16T09:49:47Z</time>
      </trkpt>
      <trkpt lat="42.90551" lon="0.20938">
        <ele>1630.3468934136</ele>
        <time>2016-10-16T09:49:52Z</time>
      </trkpt>
      <trkpt lat="42.90553" lon="0.20934">
        <ele>1630.3468934136</ele>
        <time>2016-10-16T09:49:57Z</time>
      </trkpt>
      <trkpt lat="42.90557" lon="0.20933">
        <ele>1630.3468934136</ele>
        <time>2016-10-16T09:50:02Z</time>
      </trkpt>
      <trkpt lat="42.90559" lon="0.20933">
        <ele>1633.5913297349</ele>
        <time>2016-10-16T09:50:07Z</time>
      </trkpt>
      <trkpt lat="42.90561" lon="0.20929">
        <ele>1633.5913297349</ele>
        <time>2016-10-16T09:50:12Z</time>
      </trkpt>
      <trkpt lat="42.9056" lon="0.20926">
        <ele>1633.5913297349</ele>
        <time>2016-10-16T09:50:17Z</time>
      </trkpt>
      <trkpt lat="42.90558" lon="0.20924">
        <ele>1633.5913297349</ele>
        <time>2016-10-16T09:50:22Z</time>
      </trkpt>
      <trkpt lat="42.90558" lon="0.2092">
        <ele>1637.0600580322</ele>
        <time>2016-10-16T09:50:27Z</time>
      </trkpt>
      <trkpt lat="42.90559" lon="0.20917">
        <ele>1637.0600580322</ele>
        <time>2016-10-16T09:50:32Z</time>
      </trkpt>
      <trkpt lat="42.90559" lon="0.20918">
        <ele>1637.0600580322</ele>
        <time>2016-10-16T09:50:37Z</time>
      </trkpt>
      <trkpt lat="42.9056" lon="0.20914">
        <ele>1637.0600580322</ele>
        <time>2016-10-16T09:50:42Z</time>
      </trkpt>
      <trkpt lat="42.90558" lon="0.2091">
        <ele>1640.6869621007</ele>
        <time>2016-10-16T09:50:47Z</time>
      </trkpt>
      <trkpt lat="42.90557" lon="0.20907">
        <ele>1640.6869621007</ele>
        <time>2016-10-16T09:50:52Z</time>
      </trkpt>
      <trkpt lat="42.9055" lon="0.20901">
        <ele>1644.0934490803</ele>
        <time>2016-10-16T09:50:57Z</time>
      </trkpt>
      <trkpt lat="42.90545" lon="0.20897">
        <ele>1644.0934490803</ele>
        <time>2016-10-16T09:51:02Z</time>
      </trkpt>
      <trkpt lat="42.90541" lon="0.20897">
        <ele>1647.3474400031</ele>
        <time>2016-10-16T09:51:07Z</time>
      </trkpt>
      <trkpt lat="42.90536" lon="0.20895">
        <ele>1647.3474400031</ele>
        <time>2016-10-16T09:51:12Z</time>
      </trkpt>
      <trkpt lat="42.90537" lon="0.20897">
        <ele>1647.3474400031</ele>
        <time>2016-10-16T09:51:17Z</time>
      </trkpt>
      <trkpt lat="42.90534" lon="0.20903">
        <ele>1650.5412837013</ele>
        <time>2016-10-16T09:51:22Z</time>
      </trkpt>
      <trkpt lat="42.90531" lon="0.209">
        <ele>1650.5412837013</ele>
        <time>2016-10-16T09:51:27Z</time>
      </trkpt>
      <trkpt lat="42.90527" lon="0.20898">
        <ele>1650.5412837013</ele>
        <time>2016-10-16T09:51:32Z</time>
      </trkpt>
      <trkpt lat="42.90519" lon="0.20894">
        <ele>1653.6311846919</ele>
        <time>2016-10-16T09:51:37Z</time>
      </trkpt>
      <trkpt lat="42.90513" lon="0.20894">
        <ele>1653.6311846919</ele>
        <time>2016-10-16T09:51:42Z</time>
      </trkpt>
      <trkpt lat="42.90513" lon="0.20893">
        <ele>1653.6311846919</ele>
        <time>2016-10-16T09:51:47Z</time>
      </trkpt>
      <trkpt lat="42.90508" lon="0.20895">
        <ele>1656.7211406425</ele>
        <time>2016-10-16T09:51:52Z</time>
      </trkpt>
      <trkpt lat="42.90508" lon="0.20897">
        <ele>1656.7211406425</ele>
        <time>2016-10-16T09:51:57Z</time>
      </trkpt>
      <trkpt lat="42.90509" lon="0.20901">
        <ele>1656.7211406425</ele>
        <time>2016-10-16T09:52:02Z</time>
      </trkpt>
      <trkpt lat="42.90501" lon="0.20901">
        <ele>1659.7923944134</ele>
        <time>2016-10-16T09:52:07Z</time>
      </trkpt>
      <trkpt lat="42.905" lon="0.20904">
        <ele>1659.7923944134</ele>
        <time>2016-10-16T09:52:12Z</time>
      </trkpt>
      <trkpt lat="42.90502" lon="0.20902">
        <ele>1659.7923944134</ele>
        <time>2016-10-16T09:52:17Z</time>
      </trkpt>
      <trkpt lat="42.90499" lon="0.209">
        <ele>1659.7923944134</ele>
        <time>2016-10-16T09:52:22Z</time>
      </trkpt>
      <trkpt lat="42.90499" lon="0.20898">
        <ele>1659.7923944134</ele>
        <time>2016-10-16T09:52:27Z</time>
      </trkpt>
      <trkpt lat="42.90497" lon="0.20896">
        <ele>1663.1304272351</ele>
        <time>2016-10-16T09:52:32Z</time>
      </trkpt>
      <trkpt lat="42.90498" lon="0.209">
        <ele>1663.1304272351</ele>
        <time>2016-10-16T09:52:37Z</time>
      </trkpt>
      <trkpt lat="42.90499" lon="0.20902">
        <ele>1663.1304272351</ele>
        <time>2016-10-16T09:52:42Z</time>
      </trkpt>
      <trkpt lat="42.90497" lon="0.20902">
        <ele>1663.1304272351</ele>
        <time>2016-10-16T09:52:47Z</time>
      </trkpt>
      <trkpt lat="42.90496" lon="0.20904">
        <ele>1663.1304272351</ele>
        <time>2016-10-16T09:52:52Z</time>
      </trkpt>
      <trkpt lat="42.90492" lon="0.20904">
        <ele>1666.7541864265</ele>
        <time>2016-10-16T09:52:57Z</time>
      </trkpt>
      <trkpt lat="42.90489" lon="0.20906">
        <ele>1666.7541864265</ele>
        <time>2016-10-16T09:53:02Z</time>
      </trkpt>
      <trkpt lat="42.90488" lon="0.20911">
        <ele>1666.7541864265</ele>
        <time>2016-10-16T09:53:07Z</time>
      </trkpt>
      <trkpt lat="42.90489" lon="0.20914">
        <ele>1670.2626788851</ele>
        <time>2016-10-16T09:53:12Z</time>
      </trkpt>
      <trkpt lat="42.90491" lon="0.20915">
        <ele>1670.2626788851</ele>
        <time>2016-10-16T09:53:17Z</time>
      </trkpt>
      <trkpt lat="42.90491" lon="0.20918">
        <ele>1670.2626788851</ele>
        <time>2016-10-16T09:53:22Z</time>
      </trkpt>
      <trkpt lat="42.9049" lon="0.2092">
        <ele>1670.2626788851</ele>
        <time>2016-10-16T09:53:27Z</time>
      </trkpt>
      <trkpt lat="42.90492" lon="0.20922">
        <ele>1670.2626788851</ele>
        <time>2016-10-16T09:53:32Z</time>
      </trkpt>
      <trkpt lat="42.90491" lon="0.20924">
        <ele>1673.9189579419</ele>
        <time>2016-10-16T09:53:37Z</time>
      </trkpt>
      <trkpt lat="42.90493" lon="0.20932">
        <ele>1673.9189579419</ele>
        <time>2016-10-16T09:53:42Z</time>
      </trkpt>
      <trkpt lat="42.90494" lon="0.20934">
        <ele>1673.9189579419</ele>
        <time>2016-10-16T09:53:47Z</time>
      </trkpt>
      <trkpt lat="42.90494" lon="0.2094">
        <ele>1677.3900717157</ele>
        <time>2016-10-16T09:53:52Z</time>
      </trkpt>
      <trkpt lat="42.90494" lon="0.20942">
        <ele>1677.3900717157</ele>
        <time>2016-10-16T09:53:57Z</time>
      </trkpt>
      <trkpt lat="42.90491" lon="0.20941">
        <ele>1677.3900717157</ele>
        <time>2016-10-16T09:54:02Z</time>
      </trkpt>
      <trkpt lat="42.90488" lon="0.2094">
        <ele>1677.3900717157</ele>
        <time>2016-10-16T09:54:07Z</time>
      </trkpt>
      <trkpt lat="42.90489" lon="0.20939">
        <ele>1677.3900717157</ele>
        <time>2016-10-16T09:54:12Z</time>
      </trkpt>
      <trkpt lat="42.90486" lon="0.20945">
        <ele>1680.9014367432</ele>
        <time>2016-10-16T09:54:17Z</time>
      </trkpt>
      <trkpt lat="42.90484" lon="0.20952">
        <ele>1680.9014367432</ele>
        <time>2016-10-16T09:54:22Z</time>
      </trkpt>
      <trkpt lat="42.90484" lon="0.20954">
        <ele>1680.9014367432</ele>
        <time>2016-10-16T09:54:27Z</time>
      </trkpt>
      <trkpt lat="42.90485" lon="0.20954">
        <ele>1680.9014367432</ele>
        <time>2016-10-16T09:54:32Z</time>
      </trkpt>
      <trkpt lat="42.90481" lon="0.20961">
        <ele>1684.2584649745</ele>
        <time>2016-10-16T09:54:37Z</time>
      </trkpt>
      <trkpt lat="42.90479" lon="0.20958">
        <ele>1684.2584649745</ele>
        <time>2016-10-16T09:54:42Z</time>
      </trkpt>
      <trkpt lat="42.90478" lon="0.20957">
        <ele>1684.2584649745</ele>
        <time>2016-10-16T09:54:47Z</time>
      </trkpt>
      <trkpt lat="42.90478" lon="0.20957">
        <ele>1684.2584649745</ele>
        <time>2016-10-16T09:54:52Z</time>
      </trkpt>
      <trkpt lat="42.90478" lon="0.20957">
        <ele>1684.2584649745</ele>
        <time>2016-10-16T09:54:57Z</time>
      </trkpt>
      <trkpt lat="42.90481" lon="0.20955">
        <ele>1684.2584649745</ele>
        <time>2016-10-16T09:55:02Z</time>
      </trkpt>
      <trkpt lat="42.9048" lon="0.20957">
        <ele>1687.3679396985</ele>
        <time>2016-10-16T09:55:07Z</time>
      </trkpt>
      <trkpt lat="42.90479" lon="0.20958">
        <ele>1687.3679396985</ele>
        <time>2016-10-16T09:55:12Z</time>
      </trkpt>
      <trkpt lat="42.90479" lon="0.20956">
        <ele>1687.3679396985</ele>
        <time>2016-10-16T09:55:17Z</time>
      </trkpt>
      <trkpt lat="42.90474" lon="0.2095">
        <ele>1690.288471804</ele>
        <time>2016-10-16T09:55:22Z</time>
      </trkpt>
      <trkpt lat="42.90471" lon="0.20949">
        <ele>1690.288471804</ele>
        <time>2016-10-16T09:55:27Z</time>
      </trkpt>
      <trkpt lat="42.90469" lon="0.20947">
        <ele>1690.288471804</ele>
        <time>2016-10-16T09:55:32Z</time>
      </trkpt>
      <trkpt lat="42.90466" lon="0.20944">
        <ele>1693.0318329581</ele>
        <time>2016-10-16T09:55:37Z</time>
      </trkpt>
      <trkpt lat="42.90464" lon="0.20944">
        <ele>1693.0318329581</ele>
        <time>2016-10-16T09:55:42Z</time>
      </trkpt>
      <trkpt lat="42.90464" lon="0.20944">
        <ele>1693.0318329581</ele>
        <time>2016-10-16T09:55:47Z</time>
      </trkpt>
      <trkpt lat="42.90466" lon="0.20946">
        <ele>1693.0318329581</ele>
        <time>2016-10-16T09:55:52Z</time>
      </trkpt>
      <trkpt lat="42.90466" lon="0.20944">
        <ele>1693.0318329581</ele>
        <time>2016-10-16T09:55:57Z</time>
      </trkpt>
      <trkpt lat="42.90466" lon="0.20939">
        <ele>1695.7392906164</ele>
        <time>2016-10-16T09:56:02Z</time>
      </trkpt>
      <trkpt lat="42.90462" lon="0.20935">
        <ele>1695.7392906164</ele>
        <time>2016-10-16T09:56:07Z</time>
      </trkpt>
      <trkpt lat="42.90459" lon="0.20933">
        <ele>1695.7392906164</ele>
        <time>2016-10-16T09:56:12Z</time>
      </trkpt>
      <trkpt lat="42.90456" lon="0.20932">
        <ele>1698.3258246039</ele>
        <time>2016-10-16T09:56:17Z</time>
      </trkpt>
      <trkpt lat="42.90454" lon="0.20933">
        <ele>1698.3258246039</ele>
        <time>2016-10-16T09:56:22Z</time>
      </trkpt>
      <trkpt lat="42.90452" lon="0.20938">
        <ele>1698.3258246039</ele>
        <time>2016-10-16T09:56:27Z</time>
      </trkpt>
      <trkpt lat="42.9045" lon="0.2094">
        <ele>1700.7852024763</ele>
        <time>2016-10-16T09:56:32Z</time>
      </trkpt>
      <trkpt lat="42.90449" lon="0.20942">
        <ele>1700.7852024763</ele>
        <time>2016-10-16T09:56:37Z</time>
      </trkpt>
      <trkpt lat="42.90447" lon="0.20944">
        <ele>1700.7852024763</ele>
        <time>2016-10-16T09:56:42Z</time>
      </trkpt>
      <trkpt lat="42.90447" lon="0.20952">
        <ele>1703.1842001439</ele>
        <time>2016-10-16T09:56:47Z</time>
      </trkpt>
      <trkpt lat="42.90446" lon="0.20955">
        <ele>1703.1842001439</ele>
        <time>2016-10-16T09:56:52Z</time>
      </trkpt>
      <trkpt lat="42.90445" lon="0.20958">
        <ele>1703.1842001439</ele>
        <time>2016-10-16T09:56:57Z</time>
      </trkpt>
      <trkpt lat="42.90447" lon="0.20962">
        <ele>1703.1842001439</ele>
        <time>2016-10-16T09:57:02Z</time>
      </trkpt>
      <trkpt lat="42.90449" lon="0.20964">
        <ele>1705.613808583</ele>
        <time>2016-10-16T09:57:07Z</time>
      </trkpt>
      <trkpt lat="42.9045" lon="0.20969">
        <ele>1705.613808583</ele>
        <time>2016-10-16T09:57:12Z</time>
      </trkpt>
      <trkpt lat="42.90447" lon="0.2097">
        <ele>1705.613808583</ele>
        <time>2016-10-16T09:57:17Z</time>
      </trkpt>
      <trkpt lat="42.90447" lon="0.20966">
        <ele>1707.9710232391</ele>
        <time>2016-10-16T09:57:22Z</time>
      </trkpt>
      <trkpt lat="42.90446" lon="0.20965">
        <ele>1707.9710232391</ele>
        <time>2016-10-16T09:57:27Z</time>
      </trkpt>
      <trkpt lat="42.90438" lon="0.20963">
        <ele>1710.160718352</ele>
        <time>2016-10-16T09:57:32Z</time>
      </trkpt>
      <trkpt lat="42.90438" lon="0.20959">
        <ele>1710.160718352</ele>
        <time>2016-10-16T09:57:37Z</time>
      </trkpt>
      <trkpt lat="42.90438" lon="0.20956">
        <ele>1710.160718352</ele>
        <time>2016-10-16T09:57:42Z</time>
      </trkpt>
      <trkpt lat="42.90439" lon="0.20953">
        <ele>1710.160718352</ele>
        <time>2016-10-16T09:57:47Z</time>
      </trkpt>
      <trkpt lat="42.90434" lon="0.20945">
        <ele>1712.4411920739</ele>
        <time>2016-10-16T09:57:52Z</time>
      </trkpt>
      <trkpt lat="42.90431" lon="0.20942">
        <ele>1712.4411920739</ele>
        <time>2016-10-16T09:57:57Z</time>
      </trkpt>
      <trkpt lat="42.90429" lon="0.2094">
        <ele>1712.4411920739</ele>
        <time>2016-10-16T09:58:02Z</time>
      </trkpt>
      <trkpt lat="42.90424" lon="0.20939">
        <ele>1714.6769139176</ele>
        <time>2016-10-16T09:58:07Z</time>
      </trkpt>
      <trkpt lat="42.9042" lon="0.20937">
        <ele>1714.6769139176</ele>
        <time>2016-10-16T09:58:12Z</time>
      </trkpt>
      <trkpt lat="42.90415" lon="0.20934">
        <ele>1716.7425145798</ele>
        <time>2016-10-16T09:58:17Z</time>
      </trkpt>
      <trkpt lat="42.90412" lon="0.20934">
        <ele>1716.7425145798</ele>
        <time>2016-10-16T09:58:22Z</time>
      </trkpt>
      <trkpt lat="42.90409" lon="0.20934">
        <ele>1716.7425145798</ele>
        <time>2016-10-16T09:58:27Z</time>
      </trkpt>
      <trkpt lat="42.90412" lon="0.20936">
        <ele>1716.7425145798</ele>
        <time>2016-10-16T09:58:32Z</time>
      </trkpt>
      <trkpt lat="42.9041" lon="0.20937">
        <ele>1718.7673703943</ele>
        <time>2016-10-16T09:58:37Z</time>
      </trkpt>
      <trkpt lat="42.90408" lon="0.20936">
        <ele>1718.7673703943</ele>
        <time>2016-10-16T09:58:42Z</time>
      </trkpt>
      <trkpt lat="42.90406" lon="0.20933">
        <ele>1718.7673703943</ele>
        <time>2016-10-16T09:58:47Z</time>
      </trkpt>
      <trkpt lat="42.90403" lon="0.2093">
        <ele>1718.7673703943</ele>
        <time>2016-10-16T09:58:52Z</time>
      </trkpt>
      <trkpt lat="42.90399" lon="0.20927">
        <ele>1720.828295007</ele>
        <time>2016-10-16T09:58:57Z</time>
      </trkpt>
      <trkpt lat="42.90396" lon="0.20926">
        <ele>1720.828295007</ele>
        <time>2016-10-16T09:59:02Z</time>
      </trkpt>
      <trkpt lat="42.90394" lon="0.20924">
        <ele>1720.828295007</ele>
        <time>2016-10-16T09:59:07Z</time>
      </trkpt>
      <trkpt lat="42.90393" lon="0.20921">
        <ele>1720.828295007</ele>
        <time>2016-10-16T09:59:12Z</time>
      </trkpt>
      <trkpt lat="42.90391" lon="0.20918">
        <ele>1722.9387646295</ele>
        <time>2016-10-16T09:59:17Z</time>
      </trkpt>
      <trkpt lat="42.90391" lon="0.20918">
        <ele>1722.9387646295</ele>
        <time>2016-10-16T09:59:22Z</time>
      </trkpt>
      <trkpt lat="42.90392" lon="0.20915">
        <ele>1722.9387646295</ele>
        <time>2016-10-16T09:59:27Z</time>
      </trkpt>
      <trkpt lat="42.90391" lon="0.20914">
        <ele>1722.9387646295</ele>
        <time>2016-10-16T09:59:32Z</time>
      </trkpt>
      <trkpt lat="42.90391" lon="0.20914">
        <ele>1722.9387646295</ele>
        <time>2016-10-16T09:59:37Z</time>
      </trkpt>
      <trkpt lat="42.9039" lon="0.20915">
        <ele>1722.9387646295</ele>
        <time>2016-10-16T09:59:42Z</time>
      </trkpt>
      <trkpt lat="42.90389" lon="0.20914">
        <ele>1722.9387646295</ele>
        <time>2016-10-16T09:59:47Z</time>
      </trkpt>
      <trkpt lat="42.90388" lon="0.20915">
        <ele>1722.9387646295</ele>
        <time>2016-10-16T09:59:52Z</time>
      </trkpt>
      <trkpt lat="42.90389" lon="0.2092">
        <ele>1725.3993913965</ele>
        <time>2016-10-16T09:59:57Z</time>
      </trkpt>
      <trkpt lat="42.90388" lon="0.20918">
        <ele>1725.3993913965</ele>
        <time>2016-10-16T10:00:02Z</time>
      </trkpt>
      <trkpt lat="42.90388" lon="0.20917">
        <ele>1725.3993913965</ele>
        <time>2016-10-16T10:00:07Z</time>
      </trkpt>
      <trkpt lat="42.90385" lon="0.20912">
        <ele>1725.3993913965</ele>
        <time>2016-10-16T10:00:12Z</time>
      </trkpt>
      <trkpt lat="42.90382" lon="0.2091">
        <ele>1727.8536684569</ele>
        <time>2016-10-16T10:00:17Z</time>
      </trkpt>
      <trkpt lat="42.90377" lon="0.20907">
        <ele>1727.8536684569</ele>
        <time>2016-10-16T10:00:22Z</time>
      </trkpt>
      <trkpt lat="42.90377" lon="0.20907">
        <ele>1727.8536684569</ele>
        <time>2016-10-16T10:00:27Z</time>
      </trkpt>
      <trkpt lat="42.90377" lon="0.20907">
        <ele>1727.8536684569</ele>
        <time>2016-10-16T10:00:32Z</time>
      </trkpt>
      <trkpt lat="42.90375" lon="0.20907">
        <ele>1727.8536684569</ele>
        <time>2016-10-16T10:00:37Z</time>
      </trkpt>
      <trkpt lat="42.9037" lon="0.20904">
        <ele>1730.2883693583</ele>
        <time>2016-10-16T10:00:42Z</time>
      </trkpt>
      <trkpt lat="42.90365" lon="0.20901">
        <ele>1730.2883693583</ele>
        <time>2016-10-16T10:00:47Z</time>
      </trkpt>
      <trkpt lat="42.90364" lon="0.20899">
        <ele>1730.2883693583</ele>
        <time>2016-10-16T10:00:52Z</time>
      </trkpt>
      <trkpt lat="42.9036" lon="0.20897">
        <ele>1732.8066075632</ele>
        <time>2016-10-16T10:00:57Z</time>
      </trkpt>
      <trkpt lat="42.90358" lon="0.20895">
        <ele>1732.8066075632</ele>
        <time>2016-10-16T10:01:02Z</time>
      </trkpt>
      <trkpt lat="42.90354" lon="0.20891">
        <ele>1732.8066075632</ele>
        <time>2016-10-16T10:01:07Z</time>
      </trkpt>
      <trkpt lat="42.90354" lon="0.2089">
        <ele>1732.8066075632</ele>
        <time>2016-10-16T10:01:12Z</time>
      </trkpt>
      <trkpt lat="42.90353" lon="0.20892">
        <ele>1735.4748860701</ele>
        <time>2016-10-16T10:01:17Z</time>
      </trkpt>
      <trkpt lat="42.90349" lon="0.20886">
        <ele>1735.4748860701</ele>
        <time>2016-10-16T10:01:22Z</time>
      </trkpt>
      <trkpt lat="42.90345" lon="0.20884">
        <ele>1737.9941411491</ele>
        <time>2016-10-16T10:01:27Z</time>
      </trkpt>
      <trkpt lat="42.9034" lon="0.20881">
        <ele>1737.9941411491</ele>
        <time>2016-10-16T10:01:32Z</time>
      </trkpt>
      <trkpt lat="42.90337" lon="0.2088">
        <ele>1737.9941411491</ele>
        <time>2016-10-16T10:01:37Z</time>
      </trkpt>
      <trkpt lat="42.90334" lon="0.20877">
        <ele>1740.4623995412</ele>
        <time>2016-10-16T10:01:42Z</time>
      </trkpt>
      <trkpt lat="42.9033" lon="0.20876">
        <ele>1740.4623995412</ele>
        <time>2016-10-16T10:01:47Z</time>
      </trkpt>
      <trkpt lat="42.90326" lon="0.20875">
        <ele>1740.4623995412</ele>
        <time>2016-10-16T10:01:52Z</time>
      </trkpt>
      <trkpt lat="42.9032" lon="0.20872">
        <ele>1742.8985859466</ele>
        <time>2016-10-16T10:01:57Z</time>
      </trkpt>
      <trkpt lat="42.90321" lon="0.20873">
        <ele>1742.8985859466</ele>
        <time>2016-10-16T10:02:02Z</time>
      </trkpt>
      <trkpt lat="42.9032" lon="0.20872">
        <ele>1742.8985859466</ele>
        <time>2016-10-16T10:02:07Z</time>
      </trkpt>
      <trkpt lat="42.90321" lon="0.20872">
        <ele>1742.8985859466</ele>
        <time>2016-10-16T10:02:12Z</time>
      </trkpt>
      <trkpt lat="42.90321" lon="0.20872">
        <ele>1742.8985859466</ele>
        <time>2016-10-16T10:02:17Z</time>
      </trkpt>
      <trkpt lat="42.9032" lon="0.20871">
        <ele>1742.8985859466</ele>
        <time>2016-10-16T10:02:22Z</time>
      </trkpt>
      <trkpt lat="42.90321" lon="0.20872">
        <ele>1742.8985859466</ele>
        <time>2016-10-16T10:02:27Z</time>
      </trkpt>
      <trkpt lat="42.90321" lon="0.20872">
        <ele>1742.8985859466</ele>
        <time>2016-10-16T10:02:32Z</time>
      </trkpt>
      <trkpt lat="42.90321" lon="0.20871">
        <ele>1742.8985859466</ele>
        <time>2016-10-16T10:02:37Z</time>
      </trkpt>
      <trkpt lat="42.90318" lon="0.20869">
        <ele>1742.8985859466</ele>
        <time>2016-10-16T10:02:42Z</time>
      </trkpt>
      <trkpt lat="42.90315" lon="0.20867">
        <ele>1745.8247233267</ele>
        <time>2016-10-16T10:02:47Z</time>
      </trkpt>
      <trkpt lat="42.90314" lon="0.20866">
        <ele>1745.8247233267</ele>
        <time>2016-10-16T10:02:52Z</time>
      </trkpt>
      <trkpt lat="42.90313" lon="0.20864">
        <ele>1745.8247233267</ele>
        <time>2016-10-16T10:02:57Z</time>
      </trkpt>
      <trkpt lat="42.90311" lon="0.20862">
        <ele>1745.8247233267</ele>
        <time>2016-10-16T10:03:02Z</time>
      </trkpt>
      <trkpt lat="42.90308" lon="0.2086">
        <ele>1748.6855199089</ele>
        <time>2016-10-16T10:03:07Z</time>
      </trkpt>
      <trkpt lat="42.90304" lon="0.2086">
        <ele>1748.6855199089</ele>
        <time>2016-10-16T10:03:12Z</time>
      </trkpt>
      <trkpt lat="42.90299" lon="0.20859">
        <ele>1748.6855199089</ele>
        <time>2016-10-16T10:03:17Z</time>
      </trkpt>
      <trkpt lat="42.90296" lon="0.2086">
        <ele>1751.384587496</ele>
        <time>2016-10-16T10:03:22Z</time>
      </trkpt>
      <trkpt lat="42.90291" lon="0.20857">
        <ele>1751.384587496</ele>
        <time>2016-10-16T10:03:27Z</time>
      </trkpt>
      <trkpt lat="42.90288" lon="0.20856">
        <ele>1751.384587496</ele>
        <time>2016-10-16T10:03:32Z</time>
      </trkpt>
      <trkpt lat="42.90283" lon="0.20854">
        <ele>1753.8619000384</ele>
        <time>2016-10-16T10:03:37Z</time>
      </trkpt>
      <trkpt lat="42.90282" lon="0.20851">
        <ele>1753.8619000384</ele>
        <time>2016-10-16T10:03:42Z</time>
      </trkpt>
      <trkpt lat="42.90282" lon="0.20848">
        <ele>1753.8619000384</ele>
        <time>2016-10-16T10:03:47Z</time>
      </trkpt>
      <trkpt lat="42.90283" lon="0.20848">
        <ele>1753.8619000384</ele>
        <time>2016-10-16T10:03:52Z</time>
      </trkpt>
      <trkpt lat="42.9028" lon="0.20846">
        <ele>1756.1921675155</ele>
        <time>2016-10-16T10:03:57Z</time>
      </trkpt>
      <trkpt lat="42.90276" lon="0.20846">
        <ele>1756.1921675155</ele>
        <time>2016-10-16T10:04:02Z</time>
      </trkpt>
      <trkpt lat="42.90271" lon="0.20848">
        <ele>1758.2720926602</ele>
        <time>2016-10-16T10:04:07Z</time>
      </trkpt>
      <trkpt lat="42.90273" lon="0.20847">
        <ele>1758.2720926602</ele>
        <time>2016-10-16T10:04:12Z</time>
      </trkpt>
      <trkpt lat="42.90273" lon="0.20847">
        <ele>1758.2720926602</ele>
        <time>2016-10-16T10:04:17Z</time>
      </trkpt>
      <trkpt lat="42.90274" lon="0.20844">
        <ele>1758.2720926602</ele>
        <time>2016-10-16T10:04:22Z</time>
      </trkpt>
      <trkpt lat="42.90276" lon="0.20842">
        <ele>1758.2720926602</ele>
        <time>2016-10-16T10:04:27Z</time>
      </trkpt>
      <trkpt lat="42.90275" lon="0.2084">
        <ele>1758.2720926602</ele>
        <time>2016-10-16T10:04:32Z</time>
      </trkpt>
      <trkpt lat="42.90274" lon="0.2084">
        <ele>1760.2948889718</ele>
        <time>2016-10-16T10:04:37Z</time>
      </trkpt>
      <trkpt lat="42.90271" lon="0.20837">
        <ele>1760.2948889718</ele>
        <time>2016-10-16T10:04:42Z</time>
      </trkpt>
      <trkpt lat="42.90268" lon="0.20838">
        <ele>1760.2948889718</ele>
        <time>2016-10-16T10:04:47Z</time>
      </trkpt>
      <trkpt lat="42.90264" lon="0.20837">
        <ele>1762.1515075205</ele>
        <time>2016-10-16T10:04:52Z</time>
      </trkpt>
      <trkpt lat="42.90263" lon="0.20836">
        <ele>1762.1515075205</ele>
        <time>2016-10-16T10:04:57Z</time>
      </trkpt>
      <trkpt lat="42.90262" lon="0.20834">
        <ele>1762.1515075205</ele>
        <time>2016-10-16T10:05:02Z</time>
      </trkpt>
      <trkpt lat="42.90263" lon="0.20832">
        <ele>1762.1515075205</ele>
        <time>2016-10-16T10:05:07Z</time>
      </trkpt>
      <trkpt lat="42.90262" lon="0.20833">
        <ele>1762.1515075205</ele>
        <time>2016-10-16T10:05:12Z</time>
      </trkpt>
      <trkpt lat="42.90256" lon="0.2083">
        <ele>1763.8998856877</ele>
        <time>2016-10-16T10:05:17Z</time>
      </trkpt>
      <trkpt lat="42.90256" lon="0.2083">
        <ele>1763.8998856877</ele>
        <time>2016-10-16T10:05:22Z</time>
      </trkpt>
      <trkpt lat="42.90254" lon="0.20829">
        <ele>1763.8998856877</ele>
        <time>2016-10-16T10:05:27Z</time>
      </trkpt>
      <trkpt lat="42.90254" lon="0.20829">
        <ele>1763.8998856877</ele>
        <time>2016-10-16T10:05:32Z</time>
      </trkpt>
      <trkpt lat="42.90254" lon="0.2083">
        <ele>1763.8998856877</ele>
        <time>2016-10-16T10:05:37Z</time>
      </trkpt>
      <trkpt lat="42.90254" lon="0.2083">
        <ele>1763.8998856877</ele>
        <time>2016-10-16T10:05:42Z</time>
      </trkpt>
      <trkpt lat="42.90252" lon="0.20829">
        <ele>1763.8998856877</ele>
        <time>2016-10-16T10:05:47Z</time>
      </trkpt>
      <trkpt lat="42.90252" lon="0.20828">
        <ele>1763.8998856877</ele>
        <time>2016-10-16T10:05:52Z</time>
      </trkpt>
      <trkpt lat="42.90253" lon="0.20829">
        <ele>1763.8998856877</ele>
        <time>2016-10-16T10:05:57Z</time>
      </trkpt>
      <trkpt lat="42.90251" lon="0.20828">
        <ele>1763.8998856877</ele>
        <time>2016-10-16T10:06:02Z</time>
      </trkpt>
      <trkpt lat="42.90249" lon="0.20829">
        <ele>1765.7525118234</ele>
        <time>2016-10-16T10:06:07Z</time>
      </trkpt>
      <trkpt lat="42.90248" lon="0.20827">
        <ele>1765.7525118234</ele>
        <time>2016-10-16T10:06:12Z</time>
      </trkpt>
      <trkpt lat="42.90248" lon="0.20826">
        <ele>1765.7525118234</ele>
        <time>2016-10-16T10:06:17Z</time>
      </trkpt>
      <trkpt lat="42.90247" lon="0.20826">
        <ele>1765.7525118234</ele>
        <time>2016-10-16T10:06:22Z</time>
      </trkpt>
      <trkpt lat="42.90247" lon="0.20827">
        <ele>1765.7525118234</ele>
        <time>2016-10-16T10:06:27Z</time>
      </trkpt>
      <trkpt lat="42.90244" lon="0.2083">
        <ele>1765.7525118234</ele>
        <time>2016-10-16T10:06:32Z</time>
      </trkpt>
      <trkpt lat="42.9024" lon="0.20828">
        <ele>1767.5312584109</ele>
        <time>2016-10-16T10:06:37Z</time>
      </trkpt>
      <trkpt lat="42.90237" lon="0.20827">
        <ele>1767.5312584109</ele>
        <time>2016-10-16T10:06:42Z</time>
      </trkpt>
      <trkpt lat="42.9023" lon="0.2083">
        <ele>1769.1144922584</ele>
        <time>2016-10-16T10:06:47Z</time>
      </trkpt>
      <trkpt lat="42.90228" lon="0.2083">
        <ele>1769.1144922584</ele>
        <time>2016-10-16T10:06:52Z</time>
      </trkpt>
      <trkpt lat="42.90224" lon="0.20827">
        <ele>1769.1144922584</ele>
        <time>2016-10-16T10:06:57Z</time>
      </trkpt>
      <trkpt lat="42.90221" lon="0.20829">
        <ele>1770.5917816897</ele>
        <time>2016-10-16T10:07:02Z</time>
      </trkpt>
      <trkpt lat="42.90218" lon="0.20826">
        <ele>1770.5917816897</ele>
        <time>2016-10-16T10:07:07Z</time>
      </trkpt>
      <trkpt lat="42.90217" lon="0.20829">
        <ele>1770.5917816897</ele>
        <time>2016-10-16T10:07:12Z</time>
      </trkpt>
      <trkpt lat="42.90216" lon="0.2083">
        <ele>1770.5917816897</ele>
        <time>2016-10-16T10:07:17Z</time>
      </trkpt>
      <trkpt lat="42.90216" lon="0.2083">
        <ele>1770.5917816897</ele>
        <time>2016-10-16T10:07:22Z</time>
      </trkpt>
      <trkpt lat="42.90217" lon="0.20831">
        <ele>1770.5917816897</ele>
        <time>2016-10-16T10:07:27Z</time>
      </trkpt>
      <trkpt lat="42.90216" lon="0.20831">
        <ele>1770.5917816897</ele>
        <time>2016-10-16T10:07:32Z</time>
      </trkpt>
      <trkpt lat="42.90216" lon="0.20833">
        <ele>1772.262535762</ele>
        <time>2016-10-16T10:07:37Z</time>
      </trkpt>
      <trkpt lat="42.90216" lon="0.20833">
        <ele>1772.262535762</ele>
        <time>2016-10-16T10:07:42Z</time>
      </trkpt>
      <trkpt lat="42.90213" lon="0.20829">
        <ele>1772.262535762</ele>
        <time>2016-10-16T10:07:47Z</time>
      </trkpt>
      <trkpt lat="42.90212" lon="0.20828">
        <ele>1772.262535762</ele>
        <time>2016-10-16T10:07:52Z</time>
      </trkpt>
      <trkpt lat="42.90212" lon="0.20827">
        <ele>1772.262535762</ele>
        <time>2016-10-16T10:07:57Z</time>
      </trkpt>
      <trkpt lat="42.90213" lon="0.20825">
        <ele>1774.0000658859</ele>
        <time>2016-10-16T10:08:02Z</time>
      </trkpt>
      <trkpt lat="42.90214" lon="0.20828">
        <ele>1774.0000658859</ele>
        <time>2016-10-16T10:08:07Z</time>
      </trkpt>
      <trkpt lat="42.90213" lon="0.20827">
        <ele>1774.0000658859</ele>
        <time>2016-10-16T10:08:12Z</time>
      </trkpt>
      <trkpt lat="42.90212" lon="0.20827">
        <ele>1774.0000658859</ele>
        <time>2016-10-16T10:08:17Z</time>
      </trkpt>
      <trkpt lat="42.90212" lon="0.20821">
        <ele>1775.8020373735</ele>
        <time>2016-10-16T10:08:22Z</time>
      </trkpt>
      <trkpt lat="42.90211" lon="0.20816">
        <ele>1775.8020373735</ele>
        <time>2016-10-16T10:08:27Z</time>
      </trkpt>
      <trkpt lat="42.90212" lon="0.20814">
        <ele>1775.8020373735</ele>
        <time>2016-10-16T10:08:32Z</time>
      </trkpt>
      <trkpt lat="42.90214" lon="0.20812">
        <ele>1775.8020373735</ele>
        <time>2016-10-16T10:08:37Z</time>
      </trkpt>
      <trkpt lat="42.90212" lon="0.20805">
        <ele>1777.6804594021</ele>
        <time>2016-10-16T10:08:42Z</time>
      </trkpt>
      <trkpt lat="42.9021" lon="0.20805">
        <ele>1777.6804594021</ele>
        <time>2016-10-16T10:08:47Z</time>
      </trkpt>
      <trkpt lat="42.90209" lon="0.20804">
        <ele>1777.6804594021</ele>
        <time>2016-10-16T10:08:52Z</time>
      </trkpt>
      <trkpt lat="42.90207" lon="0.20801">
        <ele>1777.6804594021</ele>
        <time>2016-10-16T10:08:57Z</time>
      </trkpt>
      <trkpt lat="42.90206" lon="0.20798">
        <ele>1777.6804594021</ele>
        <time>2016-10-16T10:09:02Z</time>
      </trkpt>
      <trkpt lat="42.90206" lon="0.20798">
        <ele>1777.6804594021</ele>
        <time>2016-10-16T10:09:07Z</time>
      </trkpt>
      <trkpt lat="42.90205" lon="0.20795">
        <ele>1779.7614730957</ele>
        <time>2016-10-16T10:09:12Z</time>
      </trkpt>
      <trkpt lat="42.90203" lon="0.20793">
        <ele>1779.7614730957</ele>
        <time>2016-10-16T10:09:17Z</time>
      </trkpt>
      <trkpt lat="42.90203" lon="0.20794">
        <ele>1779.7614730957</ele>
        <time>2016-10-16T10:09:22Z</time>
      </trkpt>
      <trkpt lat="42.90202" lon="0.2079">
        <ele>1779.7614730957</ele>
        <time>2016-10-16T10:09:27Z</time>
      </trkpt>
      <trkpt lat="42.90198" lon="0.20788">
        <ele>1781.8154564662</ele>
        <time>2016-10-16T10:09:32Z</time>
      </trkpt>
      <trkpt lat="42.90197" lon="0.20787">
        <ele>1781.8154564662</ele>
        <time>2016-10-16T10:09:37Z</time>
      </trkpt>
      <trkpt lat="42.90196" lon="0.20788">
        <ele>1781.8154564662</ele>
        <time>2016-10-16T10:09:42Z</time>
      </trkpt>
      <trkpt lat="42.9019" lon="0.20789">
        <ele>1781.8154564662</ele>
        <time>2016-10-16T10:09:47Z</time>
      </trkpt>
      <trkpt lat="42.9019" lon="0.2079">
        <ele>1781.8154564662</ele>
        <time>2016-10-16T10:09:52Z</time>
      </trkpt>
      <trkpt lat="42.9019" lon="0.20788">
        <ele>1784.0331806031</ele>
        <time>2016-10-16T10:09:57Z</time>
      </trkpt>
      <trkpt lat="42.9019" lon="0.20787">
        <ele>1784.0331806031</ele>
        <time>2016-10-16T10:10:02Z</time>
      </trkpt>
      <trkpt lat="42.90187" lon="0.20784">
        <ele>1784.0331806031</ele>
        <time>2016-10-16T10:10:07Z</time>
      </trkpt>
      <trkpt lat="42.90185" lon="0.20781">
        <ele>1784.0331806031</ele>
        <time>2016-10-16T10:10:12Z</time>
      </trkpt>
      <trkpt lat="42.90184" lon="0.2078">
        <ele>1784.0331806031</ele>
        <time>2016-10-16T10:10:17Z</time>
      </trkpt>
      <trkpt lat="42.90181" lon="0.20778">
        <ele>1786.3747155474</ele>
        <time>2016-10-16T10:10:22Z</time>
      </trkpt>
      <trkpt lat="42.90179" lon="0.20778">
        <ele>1786.3747155474</ele>
        <time>2016-10-16T10:10:27Z</time>
      </trkpt>
      <trkpt lat="42.90179" lon="0.2078">
        <ele>1786.3747155474</ele>
        <time>2016-10-16T10:10:32Z</time>
      </trkpt>
      <trkpt lat="42.90177" lon="0.2078">
        <ele>1786.3747155474</ele>
        <time>2016-10-16T10:10:37Z</time>
      </trkpt>
      <trkpt lat="42.90174" lon="0.2078">
        <ele>1786.3747155474</ele>
        <time>2016-10-16T10:10:42Z</time>
      </trkpt>
      <trkpt lat="42.90174" lon="0.20779">
        <ele>1788.8458915354</ele>
        <time>2016-10-16T10:10:47Z</time>
      </trkpt>
      <trkpt lat="42.90174" lon="0.20778">
        <ele>1788.8458915354</ele>
        <time>2016-10-16T10:10:52Z</time>
      </trkpt>
      <trkpt lat="42.90174" lon="0.20778">
        <ele>1788.8458915354</ele>
        <time>2016-10-16T10:10:57Z</time>
      </trkpt>
      <trkpt lat="42.90174" lon="0.20778">
        <ele>1788.8458915354</ele>
        <time>2016-10-16T10:11:02Z</time>
      </trkpt>
      <trkpt lat="42.90174" lon="0.20777">
        <ele>1788.8458915354</ele>
        <time>2016-10-16T10:11:07Z</time>
      </trkpt>
      <trkpt lat="42.90174" lon="0.20777">
        <ele>1788.8458915354</ele>
        <time>2016-10-16T10:11:12Z</time>
      </trkpt>
      <trkpt lat="42.90174" lon="0.20778">
        <ele>1788.8458915354</ele>
        <time>2016-10-16T10:11:17Z</time>
      </trkpt>
      <trkpt lat="42.90174" lon="0.20777">
        <ele>1788.8458915354</ele>
        <time>2016-10-16T10:11:22Z</time>
      </trkpt>
      <trkpt lat="42.90174" lon="0.20777">
        <ele>1788.8458915354</ele>
        <time>2016-10-16T10:11:27Z</time>
      </trkpt>
      <trkpt lat="42.90174" lon="0.20777">
        <ele>1788.8458915354</ele>
        <time>2016-10-16T10:11:32Z</time>
      </trkpt>
      <trkpt lat="42.90174" lon="0.20777">
        <ele>1788.8458915354</ele>
        <time>2016-10-16T10:11:37Z</time>
      </trkpt>
      <trkpt lat="42.90174" lon="0.20776">
        <ele>1788.8458915354</ele>
        <time>2016-10-16T10:11:42Z</time>
      </trkpt>
      <trkpt lat="42.90174" lon="0.20776">
        <ele>1788.8458915354</ele>
        <time>2016-10-16T10:11:47Z</time>
      </trkpt>
      <trkpt lat="42.90174" lon="0.20776">
        <ele>1788.8458915354</ele>
        <time>2016-10-16T10:11:52Z</time>
      </trkpt>
      <trkpt lat="42.90174" lon="0.20776">
        <ele>1788.8458915354</ele>
        <time>2016-10-16T10:11:57Z</time>
      </trkpt>
      <trkpt lat="42.90174" lon="0.20776">
        <ele>1788.8458915354</ele>
        <time>2016-10-16T10:12:02Z</time>
      </trkpt>
      <trkpt lat="42.90174" lon="0.20776">
        <ele>1788.8458915354</ele>
        <time>2016-10-16T10:12:07Z</time>
      </trkpt>
      <trkpt lat="42.90174" lon="0.20777">
        <ele>1788.8458915354</ele>
        <time>2016-10-16T10:12:12Z</time>
      </trkpt>
      <trkpt lat="42.90174" lon="0.20777">
        <ele>1788.8458915354</ele>
        <time>2016-10-16T10:12:17Z</time>
      </trkpt>
      <trkpt lat="42.90174" lon="0.20777">
        <ele>1788.8458915354</ele>
        <time>2016-10-16T10:12:22Z</time>
      </trkpt>
      <trkpt lat="42.90175" lon="0.20777">
        <ele>1788.8458915354</ele>
        <time>2016-10-16T10:12:27Z</time>
      </trkpt>
      <trkpt lat="42.90174" lon="0.20777">
        <ele>1788.8458915354</ele>
        <time>2016-10-16T10:12:32Z</time>
      </trkpt>
      <trkpt lat="42.90174" lon="0.20777">
        <ele>1788.8458915354</ele>
        <time>2016-10-16T10:12:37Z</time>
      </trkpt>
      <trkpt lat="42.90174" lon="0.20777">
        <ele>1788.8458915354</ele>
        <time>2016-10-16T10:12:42Z</time>
      </trkpt>
      <trkpt lat="42.90166" lon="0.20812">
        <ele>1791.6534467055</ele>
        <time>2016-10-16T10:12:47Z</time>
      </trkpt>
      <trkpt lat="42.90164" lon="0.20828">
        <ele>1794.1088585876</ele>
        <time>2016-10-16T10:12:52Z</time>
      </trkpt>
      <trkpt lat="42.90163" lon="0.20828">
        <ele>1794.1088585876</ele>
        <time>2016-10-16T10:12:57Z</time>
      </trkpt>
      <trkpt lat="42.90164" lon="0.20831">
        <ele>1794.1088585876</ele>
        <time>2016-10-16T10:13:02Z</time>
      </trkpt>
      <trkpt lat="42.90164" lon="0.20834">
        <ele>1794.1088585876</ele>
        <time>2016-10-16T10:13:07Z</time>
      </trkpt>
      <trkpt lat="42.90165" lon="0.20834">
        <ele>1794.1088585876</ele>
        <time>2016-10-16T10:13:12Z</time>
      </trkpt>
      <trkpt lat="42.90165" lon="0.20834">
        <ele>1794.1088585876</ele>
        <time>2016-10-16T10:13:17Z</time>
      </trkpt>
      <trkpt lat="42.90165" lon="0.20833">
        <ele>1794.1088585876</ele>
        <time>2016-10-16T10:13:22Z</time>
      </trkpt>
      <trkpt lat="42.90166" lon="0.20832">
        <ele>1794.1088585876</ele>
        <time>2016-10-16T10:13:27Z</time>
      </trkpt>
      <trkpt lat="42.90166" lon="0.2083">
        <ele>1794.1088585876</ele>
        <time>2016-10-16T10:13:32Z</time>
      </trkpt>
      <trkpt lat="42.90166" lon="0.20827">
        <ele>1796.6127238492</ele>
        <time>2016-10-16T10:13:37Z</time>
      </trkpt>
      <trkpt lat="42.90166" lon="0.20818">
        <ele>1796.6127238492</ele>
        <time>2016-10-16T10:13:42Z</time>
      </trkpt>
      <trkpt lat="42.90166" lon="0.20817">
        <ele>1796.6127238492</ele>
        <time>2016-10-16T10:13:47Z</time>
      </trkpt>
      <trkpt lat="42.90165" lon="0.20809">
        <ele>1799.4063328768</ele>
        <time>2016-10-16T10:13:52Z</time>
      </trkpt>
      <trkpt lat="42.9016" lon="0.20804">
        <ele>1799.4063328768</ele>
        <time>2016-10-16T10:13:57Z</time>
      </trkpt>
      <trkpt lat="42.90161" lon="0.20793">
        <ele>1802.2512447224</ele>
        <time>2016-10-16T10:14:02Z</time>
      </trkpt>
      <trkpt lat="42.90162" lon="0.20783">
        <ele>1802.2512447224</ele>
        <time>2016-10-16T10:14:07Z</time>
      </trkpt>
      <trkpt lat="42.90162" lon="0.20778">
        <ele>1805.0848797774</ele>
        <time>2016-10-16T10:14:12Z</time>
      </trkpt>
      <trkpt lat="42.90163" lon="0.20778">
        <ele>1805.0848797774</ele>
        <time>2016-10-16T10:14:17Z</time>
      </trkpt>
      <trkpt lat="42.90163" lon="0.20775">
        <ele>1805.0848797774</ele>
        <time>2016-10-16T10:14:22Z</time>
      </trkpt>
      <trkpt lat="42.90163" lon="0.20769">
        <ele>1805.0848797774</ele>
        <time>2016-10-16T10:14:27Z</time>
      </trkpt>
      <trkpt lat="42.90161" lon="0.20766">
        <ele>1808.0798379471</ele>
        <time>2016-10-16T10:14:32Z</time>
      </trkpt>
      <trkpt lat="42.90161" lon="0.20767">
        <ele>1808.0798379471</ele>
        <time>2016-10-16T10:14:37Z</time>
      </trkpt>
      <trkpt lat="42.90161" lon="0.20765">
        <ele>1808.0798379471</ele>
        <time>2016-10-16T10:14:42Z</time>
      </trkpt>
      <trkpt lat="42.9016" lon="0.20762">
        <ele>1808.0798379471</ele>
        <time>2016-10-16T10:14:47Z</time>
      </trkpt>
      <trkpt lat="42.90161" lon="0.20759">
        <ele>1808.0798379471</ele>
        <time>2016-10-16T10:14:52Z</time>
      </trkpt>
      <trkpt lat="42.90159" lon="0.20756">
        <ele>1811.1361664903</ele>
        <time>2016-10-16T10:14:57Z</time>
      </trkpt>
      <trkpt lat="42.90158" lon="0.20751">
        <ele>1811.1361664903</ele>
        <time>2016-10-16T10:15:02Z</time>
      </trkpt>
      <trkpt lat="42.90157" lon="0.20746">
        <ele>1811.1361664903</ele>
        <time>2016-10-16T10:15:07Z</time>
      </trkpt>
      <trkpt lat="42.90157" lon="0.20745">
        <ele>1811.1361664903</ele>
        <time>2016-10-16T10:15:12Z</time>
      </trkpt>
      <trkpt lat="42.90157" lon="0.20742">
        <ele>1814.0601902335</ele>
        <time>2016-10-16T10:15:17Z</time>
      </trkpt>
      <trkpt lat="42.90156" lon="0.2074">
        <ele>1814.0601902335</ele>
        <time>2016-10-16T10:15:22Z</time>
      </trkpt>
      <trkpt lat="42.90156" lon="0.20738">
        <ele>1814.0601902335</ele>
        <time>2016-10-16T10:15:27Z</time>
      </trkpt>
      <trkpt lat="42.90156" lon="0.20738">
        <ele>1814.0601902335</ele>
        <time>2016-10-16T10:15:32Z</time>
      </trkpt>
      <trkpt lat="42.90157" lon="0.20737">
        <ele>1814.0601902335</ele>
        <time>2016-10-16T10:15:37Z</time>
      </trkpt>
      <trkpt lat="42.90157" lon="0.20739">
        <ele>1814.0601902335</ele>
        <time>2016-10-16T10:15:42Z</time>
      </trkpt>
      <trkpt lat="42.90157" lon="0.20736">
        <ele>1814.0601902335</ele>
        <time>2016-10-16T10:15:47Z</time>
      </trkpt>
      <trkpt lat="42.90157" lon="0.20734">
        <ele>1814.0601902335</ele>
        <time>2016-10-16T10:15:52Z</time>
      </trkpt>
      <trkpt lat="42.90156" lon="0.20732">
        <ele>1816.9754567548</ele>
        <time>2016-10-16T10:15:57Z</time>
      </trkpt>
      <trkpt lat="42.90154" lon="0.20731">
        <ele>1816.9754567548</ele>
        <time>2016-10-16T10:16:02Z</time>
      </trkpt>
      <trkpt lat="42.90154" lon="0.20729">
        <ele>1816.9754567548</ele>
        <time>2016-10-16T10:16:07Z</time>
      </trkpt>
      <trkpt lat="42.90156" lon="0.20727">
        <ele>1816.9754567548</ele>
        <time>2016-10-16T10:16:12Z</time>
      </trkpt>
      <trkpt lat="42.90157" lon="0.20727">
        <ele>1816.9754567548</ele>
        <time>2016-10-16T10:16:17Z</time>
      </trkpt>
      <trkpt lat="42.90158" lon="0.20723">
        <ele>1819.7082361451</ele>
        <time>2016-10-16T10:16:22Z</time>
      </trkpt>
      <trkpt lat="42.90154" lon="0.2072">
        <ele>1819.7082361451</ele>
        <time>2016-10-16T10:16:27Z</time>
      </trkpt>
      <trkpt lat="42.90153" lon="0.20717">
        <ele>1819.7082361451</ele>
        <time>2016-10-16T10:16:32Z</time>
      </trkpt>
      <trkpt lat="42.90154" lon="0.20711">
        <ele>1822.1845390981</ele>
        <time>2016-10-16T10:16:37Z</time>
      </trkpt>
      <trkpt lat="42.90155" lon="0.20708">
        <ele>1822.1845390981</ele>
        <time>2016-10-16T10:16:42Z</time>
      </trkpt>
      <trkpt lat="42.90153" lon="0.20707">
        <ele>1822.1845390981</ele>
        <time>2016-10-16T10:16:47Z</time>
      </trkpt>
      <trkpt lat="42.90152" lon="0.20703">
        <ele>1822.1845390981</ele>
        <time>2016-10-16T10:16:52Z</time>
      </trkpt>
      <trkpt lat="42.9015" lon="0.20699">
        <ele>1824.4662332481</ele>
        <time>2016-10-16T10:16:57Z</time>
      </trkpt>
      <trkpt lat="42.90147" lon="0.20694">
        <ele>1824.4662332481</ele>
        <time>2016-10-16T10:17:02Z</time>
      </trkpt>
      <trkpt lat="42.90147" lon="0.20691">
        <ele>1824.4662332481</ele>
        <time>2016-10-16T10:17:07Z</time>
      </trkpt>
      <trkpt lat="42.90145" lon="0.20686">
        <ele>1826.5391346119</ele>
        <time>2016-10-16T10:17:12Z</time>
      </trkpt>
      <trkpt lat="42.90146" lon="0.20681">
        <ele>1826.5391346119</ele>
        <time>2016-10-16T10:17:17Z</time>
      </trkpt>
      <trkpt lat="42.90144" lon="0.20679">
        <ele>1826.5391346119</ele>
        <time>2016-10-16T10:17:22Z</time>
      </trkpt>
      <trkpt lat="42.90144" lon="0.20675">
        <ele>1826.5391346119</ele>
        <time>2016-10-16T10:17:27Z</time>
      </trkpt>
      <trkpt lat="42.90143" lon="0.20674">
        <ele>1828.4771552432</ele>
        <time>2016-10-16T10:17:32Z</time>
      </trkpt>
      <trkpt lat="42.90143" lon="0.20669">
        <ele>1828.4771552432</ele>
        <time>2016-10-16T10:17:37Z</time>
      </trkpt>
      <trkpt lat="42.90141" lon="0.20665">
        <ele>1828.4771552432</ele>
        <time>2016-10-16T10:17:42Z</time>
      </trkpt>
      <trkpt lat="42.90137" lon="0.20659">
        <ele>1830.2770994889</ele>
        <time>2016-10-16T10:17:47Z</time>
      </trkpt>
      <trkpt lat="42.90134" lon="0.20656">
        <ele>1830.2770994889</ele>
        <time>2016-10-16T10:17:52Z</time>
      </trkpt>
      <trkpt lat="42.90132" lon="0.20654">
        <ele>1830.2770994889</ele>
        <time>2016-10-16T10:17:57Z</time>
      </trkpt>
      <trkpt lat="42.90128" lon="0.20649">
        <ele>1831.9652112919</ele>
        <time>2016-10-16T10:18:02Z</time>
      </trkpt>
      <trkpt lat="42.90127" lon="0.20649">
        <ele>1831.9652112919</ele>
        <time>2016-10-16T10:18:07Z</time>
      </trkpt>
      <trkpt lat="42.90127" lon="0.20647">
        <ele>1831.9652112919</ele>
        <time>2016-10-16T10:18:12Z</time>
      </trkpt>
      <trkpt lat="42.90127" lon="0.20647">
        <ele>1831.9652112919</ele>
        <time>2016-10-16T10:18:17Z</time>
      </trkpt>
      <trkpt lat="42.90126" lon="0.20645">
        <ele>1831.9652112919</ele>
        <time>2016-10-16T10:18:22Z</time>
      </trkpt>
      <trkpt lat="42.90124" lon="0.20642">
        <ele>1831.9652112919</ele>
        <time>2016-10-16T10:18:27Z</time>
      </trkpt>
      <trkpt lat="42.90124" lon="0.20639">
        <ele>1833.9408008011</ele>
        <time>2016-10-16T10:18:32Z</time>
      </trkpt>
      <trkpt lat="42.90123" lon="0.20634">
        <ele>1833.9408008011</ele>
        <time>2016-10-16T10:18:37Z</time>
      </trkpt>
      <trkpt lat="42.90121" lon="0.20633">
        <ele>1833.9408008011</ele>
        <time>2016-10-16T10:18:42Z</time>
      </trkpt>
      <trkpt lat="42.90121" lon="0.20631">
        <ele>1833.9408008011</ele>
        <time>2016-10-16T10:18:47Z</time>
      </trkpt>
      <trkpt lat="42.90121" lon="0.20632">
        <ele>1833.9408008011</ele>
        <time>2016-10-16T10:18:52Z</time>
      </trkpt>
      <trkpt lat="42.90119" lon="0.20628">
        <ele>1836.2559820297</ele>
        <time>2016-10-16T10:18:57Z</time>
      </trkpt>
      <trkpt lat="42.90116" lon="0.20624">
        <ele>1836.2559820297</ele>
        <time>2016-10-16T10:19:02Z</time>
      </trkpt>
      <trkpt lat="42.90117" lon="0.20625">
        <ele>1836.2559820297</ele>
        <time>2016-10-16T10:19:07Z</time>
      </trkpt>
      <trkpt lat="42.90116" lon="0.20623">
        <ele>1836.2559820297</ele>
        <time>2016-10-16T10:19:12Z</time>
      </trkpt>
      <trkpt lat="42.90112" lon="0.20617">
        <ele>1838.7851406131</ele>
        <time>2016-10-16T10:19:17Z</time>
      </trkpt>
      <trkpt lat="42.90111" lon="0.2061">
        <ele>1838.7851406131</ele>
        <time>2016-10-16T10:19:22Z</time>
      </trkpt>
      <trkpt lat="42.9011" lon="0.20609">
        <ele>1838.7851406131</ele>
        <time>2016-10-16T10:19:27Z</time>
      </trkpt>
      <trkpt lat="42.9011" lon="0.2061">
        <ele>1838.7851406131</ele>
        <time>2016-10-16T10:19:32Z</time>
      </trkpt>
      <trkpt lat="42.9011" lon="0.20609">
        <ele>1838.7851406131</ele>
        <time>2016-10-16T10:19:37Z</time>
      </trkpt>
      <trkpt lat="42.90108" lon="0.20605">
        <ele>1841.5265642871</ele>
        <time>2016-10-16T10:19:42Z</time>
      </trkpt>
      <trkpt lat="42.90108" lon="0.206">
        <ele>1841.5265642871</ele>
        <time>2016-10-16T10:19:47Z</time>
      </trkpt>
      <trkpt lat="42.90106" lon="0.20594">
        <ele>1841.5265642871</ele>
        <time>2016-10-16T10:19:52Z</time>
      </trkpt>
      <trkpt lat="42.90107" lon="0.20589">
        <ele>1844.2763031401</ele>
        <time>2016-10-16T10:19:57Z</time>
      </trkpt>
      <trkpt lat="42.90106" lon="0.20586">
        <ele>1844.2763031401</ele>
        <time>2016-10-16T10:20:02Z</time>
      </trkpt>
      <trkpt lat="42.90106" lon="0.20584">
        <ele>1844.2763031401</ele>
        <time>2016-10-16T10:20:07Z</time>
      </trkpt>
      <trkpt lat="42.90104" lon="0.2058">
        <ele>1844.2763031401</ele>
        <time>2016-10-16T10:20:12Z</time>
      </trkpt>
      <trkpt lat="42.90103" lon="0.20578">
        <ele>1844.2763031401</ele>
        <time>2016-10-16T10:20:17Z</time>
      </trkpt>
      <trkpt lat="42.90103" lon="0.20578">
        <ele>1847.1479903348</ele>
        <time>2016-10-16T10:20:22Z</time>
      </trkpt>
      <trkpt lat="42.90103" lon="0.20575">
        <ele>1847.1479903348</ele>
        <time>2016-10-16T10:20:27Z</time>
      </trkpt>
      <trkpt lat="42.90102" lon="0.20571">
        <ele>1847.1479903348</ele>
        <time>2016-10-16T10:20:32Z</time>
      </trkpt>
      <trkpt lat="42.901" lon="0.20567">
        <ele>1847.1479903348</ele>
        <time>2016-10-16T10:20:37Z</time>
      </trkpt>
      <trkpt lat="42.90099" lon="0.20567">
        <ele>1850.0736310262</ele>
        <time>2016-10-16T10:20:42Z</time>
      </trkpt>
      <trkpt lat="42.90097" lon="0.20564">
        <ele>1850.0736310262</ele>
        <time>2016-10-16T10:20:47Z</time>
      </trkpt>
      <trkpt lat="42.90095" lon="0.20562">
        <ele>1850.0736310262</ele>
        <time>2016-10-16T10:20:52Z</time>
      </trkpt>
      <trkpt lat="42.90094" lon="0.20562">
        <ele>1850.0736310262</ele>
        <time>2016-10-16T10:20:57Z</time>
      </trkpt>
      <trkpt lat="42.90094" lon="0.20557">
        <ele>1852.9900731245</ele>
        <time>2016-10-16T10:21:02Z</time>
      </trkpt>
      <trkpt lat="42.90094" lon="0.20554">
        <ele>1852.9900731245</ele>
        <time>2016-10-16T10:21:07Z</time>
      </trkpt>
      <trkpt lat="42.90094" lon="0.20554">
        <ele>1852.9900731245</ele>
        <time>2016-10-16T10:21:12Z</time>
      </trkpt>
      <trkpt lat="42.90092" lon="0.2055">
        <ele>1852.9900731245</ele>
        <time>2016-10-16T10:21:17Z</time>
      </trkpt>
      <trkpt lat="42.90091" lon="0.20547">
        <ele>1852.9900731245</ele>
        <time>2016-10-16T10:21:22Z</time>
      </trkpt>
      <trkpt lat="42.90086" lon="0.20541">
        <ele>1855.982944364</ele>
        <time>2016-10-16T10:21:27Z</time>
      </trkpt>
      <trkpt lat="42.90084" lon="0.20537">
        <ele>1855.982944364</ele>
        <time>2016-10-16T10:21:32Z</time>
      </trkpt>
      <trkpt lat="42.90082" lon="0.20535">
        <ele>1855.982944364</ele>
        <time>2016-10-16T10:21:37Z</time>
      </trkpt>
      <trkpt lat="42.90082" lon="0.2053">
        <ele>1858.8719758588</ele>
        <time>2016-10-16T10:21:42Z</time>
      </trkpt>
      <trkpt lat="42.90081" lon="0.20532">
        <ele>1858.8719758588</ele>
        <time>2016-10-16T10:21:47Z</time>
      </trkpt>
      <trkpt lat="42.9008" lon="0.20528">
        <ele>1858.8719758588</ele>
        <time>2016-10-16T10:21:52Z</time>
      </trkpt>
      <trkpt lat="42.9008" lon="0.20526">
        <ele>1858.8719758588</ele>
        <time>2016-10-16T10:21:57Z</time>
      </trkpt>
      <trkpt lat="42.9008" lon="0.20522">
        <ele>1858.8719758588</ele>
        <time>2016-10-16T10:22:02Z</time>
      </trkpt>
      <trkpt lat="42.9008" lon="0.20518">
        <ele>1861.8219003391</ele>
        <time>2016-10-16T10:22:07Z</time>
      </trkpt>
      <trkpt lat="42.9008" lon="0.20516">
        <ele>1861.8219003391</ele>
        <time>2016-10-16T10:22:12Z</time>
      </trkpt>
      <trkpt lat="42.9008" lon="0.2052">
        <ele>1861.8219003391</ele>
        <time>2016-10-16T10:22:17Z</time>
      </trkpt>
      <trkpt lat="42.90079" lon="0.20516">
        <ele>1861.8219003391</ele>
        <time>2016-10-16T10:22:22Z</time>
      </trkpt>
      <trkpt lat="42.90077" lon="0.20511">
        <ele>1864.7257943409</ele>
        <time>2016-10-16T10:22:27Z</time>
      </trkpt>
      <trkpt lat="42.90075" lon="0.20505">
        <ele>1864.7257943409</ele>
        <time>2016-10-16T10:22:32Z</time>
      </trkpt>
      <trkpt lat="42.90075" lon="0.20502">
        <ele>1864.7257943409</ele>
        <time>2016-10-16T10:22:37Z</time>
      </trkpt>
      <trkpt lat="42.90075" lon="0.20502">
        <ele>1864.7257943409</ele>
        <time>2016-10-16T10:22:42Z</time>
      </trkpt>
      <trkpt lat="42.90074" lon="0.20499">
        <ele>1867.55679276</ele>
        <time>2016-10-16T10:22:47Z</time>
      </trkpt>
      <trkpt lat="42.90074" lon="0.20496">
        <ele>1867.55679276</ele>
        <time>2016-10-16T10:22:52Z</time>
      </trkpt>
      <trkpt lat="42.90072" lon="0.2049">
        <ele>1867.55679276</ele>
        <time>2016-10-16T10:22:57Z</time>
      </trkpt>
      <trkpt lat="42.90073" lon="0.20489">
        <ele>1867.55679276</ele>
        <time>2016-10-16T10:23:02Z</time>
      </trkpt>
      <trkpt lat="42.90074" lon="0.20487">
        <ele>1870.26140784</ele>
        <time>2016-10-16T10:23:07Z</time>
      </trkpt>
      <trkpt lat="42.90072" lon="0.20487">
        <ele>1870.26140784</ele>
        <time>2016-10-16T10:23:12Z</time>
      </trkpt>
      <trkpt lat="42.90073" lon="0.20487">
        <ele>1870.26140784</ele>
        <time>2016-10-16T10:23:17Z</time>
      </trkpt>
      <trkpt lat="42.9007" lon="0.20486">
        <ele>1870.26140784</ele>
        <time>2016-10-16T10:23:22Z</time>
      </trkpt>
      <trkpt lat="42.90068" lon="0.20483">
        <ele>1870.26140784</ele>
        <time>2016-10-16T10:23:27Z</time>
      </trkpt>
      <trkpt lat="42.90067" lon="0.20484">
        <ele>1870.26140784</ele>
        <time>2016-10-16T10:23:32Z</time>
      </trkpt>
      <trkpt lat="42.90063" lon="0.2048">
        <ele>1872.8769255806</ele>
        <time>2016-10-16T10:23:37Z</time>
      </trkpt>
      <trkpt lat="42.90059" lon="0.20476">
        <ele>1872.8769255806</ele>
        <time>2016-10-16T10:23:42Z</time>
      </trkpt>
      <trkpt lat="42.90055" lon="0.20473">
        <ele>1875.3661114009</ele>
        <time>2016-10-16T10:23:47Z</time>
      </trkpt>
      <trkpt lat="42.90053" lon="0.20471">
        <ele>1875.3661114009</ele>
        <time>2016-10-16T10:23:52Z</time>
      </trkpt>
      <trkpt lat="42.90052" lon="0.20472">
        <ele>1875.3661114009</ele>
        <time>2016-10-16T10:23:57Z</time>
      </trkpt>
      <trkpt lat="42.90048" lon="0.20468">
        <ele>1875.3661114009</ele>
        <time>2016-10-16T10:24:02Z</time>
      </trkpt>
      <trkpt lat="42.90046" lon="0.20467">
        <ele>1878.0407114364</ele>
        <time>2016-10-16T10:24:07Z</time>
      </trkpt>
      <trkpt lat="42.90046" lon="0.20463">
        <ele>1878.0407114364</ele>
        <time>2016-10-16T10:24:12Z</time>
      </trkpt>
      <trkpt lat="42.90044" lon="0.20459">
        <ele>1878.0407114364</ele>
        <time>2016-10-16T10:24:17Z</time>
      </trkpt>
      <trkpt lat="42.90042" lon="0.20454">
        <ele>1880.8287973319</ele>
        <time>2016-10-16T10:24:22Z</time>
      </trkpt>
      <trkpt lat="42.90039" lon="0.2045">
        <ele>1880.8287973319</ele>
        <time>2016-10-16T10:24:27Z</time>
      </trkpt>
      <trkpt lat="42.90037" lon="0.20445">
        <ele>1880.8287973319</ele>
        <time>2016-10-16T10:24:32Z</time>
      </trkpt>
      <trkpt lat="42.90036" lon="0.20441">
        <ele>1883.7787197143</ele>
        <time>2016-10-16T10:24:37Z</time>
      </trkpt>
      <trkpt lat="42.90035" lon="0.20438">
        <ele>1883.7787197143</ele>
        <time>2016-10-16T10:24:42Z</time>
      </trkpt>
      <trkpt lat="42.90034" lon="0.20433">
        <ele>1883.7787197143</ele>
        <time>2016-10-16T10:24:47Z</time>
      </trkpt>
      <trkpt lat="42.90033" lon="0.20432">
        <ele>1883.7787197143</ele>
        <time>2016-10-16T10:24:52Z</time>
      </trkpt>
      <trkpt lat="42.90033" lon="0.20428">
        <ele>1886.9780826686</ele>
        <time>2016-10-16T10:24:57Z</time>
      </trkpt>
      <trkpt lat="42.9003" lon="0.20426">
        <ele>1886.9780826686</ele>
        <time>2016-10-16T10:25:02Z</time>
      </trkpt>
      <trkpt lat="42.90029" lon="0.20424">
        <ele>1886.9780826686</ele>
        <time>2016-10-16T10:25:07Z</time>
      </trkpt>
      <trkpt lat="42.90026" lon="0.2042">
        <ele>1886.9780826686</ele>
        <time>2016-10-16T10:25:12Z</time>
      </trkpt>
      <trkpt lat="42.90025" lon="0.2042">
        <ele>1890.2191611243</ele>
        <time>2016-10-16T10:25:17Z</time>
      </trkpt>
      <trkpt lat="42.90021" lon="0.2042">
        <ele>1890.2191611243</ele>
        <time>2016-10-16T10:25:22Z</time>
      </trkpt>
      <trkpt lat="42.90019" lon="0.20422">
        <ele>1890.2191611243</ele>
        <time>2016-10-16T10:25:27Z</time>
      </trkpt>
      <trkpt lat="42.90017" lon="0.20419">
        <ele>1893.3814592117</ele>
        <time>2016-10-16T10:25:32Z</time>
      </trkpt>
      <trkpt lat="42.90013" lon="0.20416">
        <ele>1893.3814592117</ele>
        <time>2016-10-16T10:25:37Z</time>
      </trkpt>
      <trkpt lat="42.9001" lon="0.20416">
        <ele>1893.3814592117</ele>
        <time>2016-10-16T10:25:42Z</time>
      </trkpt>
      <trkpt lat="42.90003" lon="0.20416">
        <ele>1896.4256436541</ele>
        <time>2016-10-16T10:25:47Z</time>
      </trkpt>
      <trkpt lat="42.90002" lon="0.20417">
        <ele>1896.4256436541</ele>
        <time>2016-10-16T10:25:52Z</time>
      </trkpt>
      <trkpt lat="42.89998" lon="0.20419">
        <ele>1896.4256436541</ele>
        <time>2016-10-16T10:25:57Z</time>
      </trkpt>
      <trkpt lat="42.89996" lon="0.20419">
        <ele>1896.4256436541</ele>
        <time>2016-10-16T10:26:02Z</time>
      </trkpt>
      <trkpt lat="42.89992" lon="0.20418">
        <ele>1899.4165170212</ele>
        <time>2016-10-16T10:26:07Z</time>
      </trkpt>
      <trkpt lat="42.89991" lon="0.2042">
        <ele>1899.4165170212</ele>
        <time>2016-10-16T10:26:12Z</time>
      </trkpt>
      <trkpt lat="42.89984" lon="0.20423">
        <ele>1902.1693210569</ele>
        <time>2016-10-16T10:26:17Z</time>
      </trkpt>
      <trkpt lat="42.89984" lon="0.20429">
        <ele>1902.1693210569</ele>
        <time>2016-10-16T10:26:22Z</time>
      </trkpt>
      <trkpt lat="42.89984" lon="0.20429">
        <ele>1902.1693210569</ele>
        <time>2016-10-16T10:26:27Z</time>
      </trkpt>
      <trkpt lat="42.89984" lon="0.20429">
        <ele>1902.1693210569</ele>
        <time>2016-10-16T10:26:32Z</time>
      </trkpt>
      <trkpt lat="42.89986" lon="0.20426">
        <ele>1902.1693210569</ele>
        <time>2016-10-16T10:26:37Z</time>
      </trkpt>
      <trkpt lat="42.89986" lon="0.20426">
        <ele>1902.1693210569</ele>
        <time>2016-10-16T10:26:42Z</time>
      </trkpt>
      <trkpt lat="42.89985" lon="0.20426">
        <ele>1902.1693210569</ele>
        <time>2016-10-16T10:26:47Z</time>
      </trkpt>
      <trkpt lat="42.89984" lon="0.20421">
        <ele>1904.9314996148</ele>
        <time>2016-10-16T10:26:52Z</time>
      </trkpt>
      <trkpt lat="42.89981" lon="0.20419">
        <ele>1904.9314996148</ele>
        <time>2016-10-16T10:26:57Z</time>
      </trkpt>
      <trkpt lat="42.89981" lon="0.20417">
        <ele>1904.9314996148</ele>
        <time>2016-10-16T10:27:02Z</time>
      </trkpt>
      <trkpt lat="42.8998" lon="0.20414">
        <ele>1904.9314996148</ele>
        <time>2016-10-16T10:27:07Z</time>
      </trkpt>
      <trkpt lat="42.89978" lon="0.20411">
        <ele>1907.773810425</ele>
        <time>2016-10-16T10:27:12Z</time>
      </trkpt>
      <trkpt lat="42.89975" lon="0.20409">
        <ele>1907.773810425</ele>
        <time>2016-10-16T10:27:17Z</time>
      </trkpt>
      <trkpt lat="42.89974" lon="0.20407">
        <ele>1907.773810425</ele>
        <time>2016-10-16T10:27:22Z</time>
      </trkpt>
      <trkpt lat="42.89972" lon="0.20403">
        <ele>1910.6319274855</ele>
        <time>2016-10-16T10:27:27Z</time>
      </trkpt>
      <trkpt lat="42.8997" lon="0.204">
        <ele>1910.6319274855</ele>
        <time>2016-10-16T10:27:32Z</time>
      </trkpt>
      <trkpt lat="42.89968" lon="0.20396">
        <ele>1910.6319274855</ele>
        <time>2016-10-16T10:27:37Z</time>
      </trkpt>
      <trkpt lat="42.89966" lon="0.20393">
        <ele>1913.4750661482</ele>
        <time>2016-10-16T10:27:42Z</time>
      </trkpt>
      <trkpt lat="42.89966" lon="0.20391">
        <ele>1913.4750661482</ele>
        <time>2016-10-16T10:27:47Z</time>
      </trkpt>
      <trkpt lat="42.89966" lon="0.20389">
        <ele>1913.4750661482</ele>
        <time>2016-10-16T10:27:52Z</time>
      </trkpt>
      <trkpt lat="42.89965" lon="0.20386">
        <ele>1913.4750661482</ele>
        <time>2016-10-16T10:27:57Z</time>
      </trkpt>
      <trkpt lat="42.89964" lon="0.20381">
        <ele>1916.4044828286</ele>
        <time>2016-10-16T10:28:02Z</time>
      </trkpt>
      <trkpt lat="42.89962" lon="0.20378">
        <ele>1916.4044828286</ele>
        <time>2016-10-16T10:28:07Z</time>
      </trkpt>
      <trkpt lat="42.89961" lon="0.20375">
        <ele>1916.4044828286</ele>
        <time>2016-10-16T10:28:12Z</time>
      </trkpt>
      <trkpt lat="42.8996" lon="0.20371">
        <ele>1916.4044828286</ele>
        <time>2016-10-16T10:28:17Z</time>
      </trkpt>
      <trkpt lat="42.89959" lon="0.20367">
        <ele>1919.412913177</ele>
        <time>2016-10-16T10:28:22Z</time>
      </trkpt>
      <trkpt lat="42.89958" lon="0.20361">
        <ele>1919.412913177</ele>
        <time>2016-10-16T10:28:27Z</time>
      </trkpt>
      <trkpt lat="42.89955" lon="0.20356">
        <ele>1919.412913177</ele>
        <time>2016-10-16T10:28:32Z</time>
      </trkpt>
      <trkpt lat="42.89955" lon="0.20355">
        <ele>1922.3493307855</ele>
        <time>2016-10-16T10:28:37Z</time>
      </trkpt>
      <trkpt lat="42.89954" lon="0.20351">
        <ele>1922.3493307855</ele>
        <time>2016-10-16T10:28:42Z</time>
      </trkpt>
      <trkpt lat="42.89952" lon="0.20346">
        <ele>1922.3493307855</ele>
        <time>2016-10-16T10:28:47Z</time>
      </trkpt>
      <trkpt lat="42.89951" lon="0.20338">
        <ele>1925.1749202553</ele>
        <time>2016-10-16T10:28:52Z</time>
      </trkpt>
      <trkpt lat="42.89949" lon="0.20335">
        <ele>1925.1749202553</ele>
        <time>2016-10-16T10:28:57Z</time>
      </trkpt>
      <trkpt lat="42.89949" lon="0.20329">
        <ele>1925.1749202553</ele>
        <time>2016-10-16T10:29:02Z</time>
      </trkpt>
      <trkpt lat="42.89949" lon="0.20323">
        <ele>1927.8828869632</ele>
        <time>2016-10-16T10:29:07Z</time>
      </trkpt>
      <trkpt lat="42.8995" lon="0.20315">
        <ele>1927.8828869632</ele>
        <time>2016-10-16T10:29:12Z</time>
      </trkpt>
      <trkpt lat="42.89949" lon="0.20312">
        <ele>1927.8828869632</ele>
        <time>2016-10-16T10:29:17Z</time>
      </trkpt>
      <trkpt lat="42.89949" lon="0.20311">
        <ele>1930.4528892344</ele>
        <time>2016-10-16T10:29:22Z</time>
      </trkpt>
      <trkpt lat="42.89947" lon="0.20306">
        <ele>1930.4528892344</ele>
        <time>2016-10-16T10:29:27Z</time>
      </trkpt>
      <trkpt lat="42.89944" lon="0.20302">
        <ele>1930.4528892344</ele>
        <time>2016-10-16T10:29:32Z</time>
      </trkpt>
      <trkpt lat="42.89944" lon="0.20296">
        <ele>1932.8520882053</ele>
        <time>2016-10-16T10:29:37Z</time>
      </trkpt>
      <trkpt lat="42.89942" lon="0.20291">
        <ele>1932.8520882053</ele>
        <time>2016-10-16T10:29:42Z</time>
      </trkpt>
      <trkpt lat="42.89942" lon="0.20288">
        <ele>1932.8520882053</ele>
        <time>2016-10-16T10:29:47Z</time>
      </trkpt>
      <trkpt lat="42.89942" lon="0.20285">
        <ele>1932.8520882053</ele>
        <time>2016-10-16T10:29:52Z</time>
      </trkpt>
      <trkpt lat="42.89941" lon="0.20281">
        <ele>1935.2667326998</ele>
        <time>2016-10-16T10:29:57Z</time>
      </trkpt>
      <trkpt lat="42.89939" lon="0.20278">
        <ele>1935.2667326998</ele>
        <time>2016-10-16T10:30:02Z</time>
      </trkpt>
      <trkpt lat="42.89939" lon="0.20275">
        <ele>1935.2667326998</ele>
        <time>2016-10-16T10:30:07Z</time>
      </trkpt>
      <trkpt lat="42.89935" lon="0.20269">
        <ele>1937.7108499473</ele>
        <time>2016-10-16T10:30:12Z</time>
      </trkpt>
      <trkpt lat="42.89931" lon="0.20265">
        <ele>1937.7108499473</ele>
        <time>2016-10-16T10:30:17Z</time>
      </trkpt>
      <trkpt lat="42.89926" lon="0.20262">
        <ele>1940.0388533636</ele>
        <time>2016-10-16T10:30:22Z</time>
      </trkpt>
      <trkpt lat="42.89922" lon="0.20257">
        <ele>1940.0388533636</ele>
        <time>2016-10-16T10:30:27Z</time>
      </trkpt>
      <trkpt lat="42.89918" lon="0.20252">
        <ele>1942.231482872</ele>
        <time>2016-10-16T10:30:32Z</time>
      </trkpt>
      <trkpt lat="42.89913" lon="0.20249">
        <ele>1942.231482872</ele>
        <time>2016-10-16T10:30:37Z</time>
      </trkpt>
      <trkpt lat="42.8991" lon="0.20249">
        <ele>1942.231482872</ele>
        <time>2016-10-16T10:30:42Z</time>
      </trkpt>
      <trkpt lat="42.89906" lon="0.2024">
        <ele>1944.3577522151</ele>
        <time>2016-10-16T10:30:47Z</time>
      </trkpt>
      <trkpt lat="42.899" lon="0.20235">
        <ele>1944.3577522151</ele>
        <time>2016-10-16T10:30:52Z</time>
      </trkpt>
      <trkpt lat="42.89898" lon="0.20232">
        <ele>1946.2944544018</ele>
        <time>2016-10-16T10:30:57Z</time>
      </trkpt>
      <trkpt lat="42.89894" lon="0.20232">
        <ele>1946.2944544018</ele>
        <time>2016-10-16T10:31:02Z</time>
      </trkpt>
      <trkpt lat="42.89892" lon="0.2023">
        <ele>1946.2944544018</ele>
        <time>2016-10-16T10:31:07Z</time>
      </trkpt>
      <trkpt lat="42.89889" lon="0.20227">
        <ele>1948.1153109598</ele>
        <time>2016-10-16T10:31:12Z</time>
      </trkpt>
      <trkpt lat="42.89884" lon="0.20224">
        <ele>1948.1153109598</ele>
        <time>2016-10-16T10:31:17Z</time>
      </trkpt>
      <trkpt lat="42.8988" lon="0.20219">
        <ele>1949.7448365994</ele>
        <time>2016-10-16T10:31:22Z</time>
      </trkpt>
      <trkpt lat="42.89878" lon="0.20214">
        <ele>1949.7448365994</ele>
        <time>2016-10-16T10:31:27Z</time>
      </trkpt>
      <trkpt lat="42.89877" lon="0.2021">
        <ele>1949.7448365994</ele>
        <time>2016-10-16T10:31:32Z</time>
      </trkpt>
      <trkpt lat="42.89872" lon="0.20205">
        <ele>1951.2289044289</ele>
        <time>2016-10-16T10:31:37Z</time>
      </trkpt>
      <trkpt lat="42.89869" lon="0.20202">
        <ele>1951.2289044289</ele>
        <time>2016-10-16T10:31:42Z</time>
      </trkpt>
      <trkpt lat="42.89867" lon="0.20198">
        <ele>1951.2289044289</ele>
        <time>2016-10-16T10:31:47Z</time>
      </trkpt>
      <trkpt lat="42.89864" lon="0.20197">
        <ele>1952.5671720433</ele>
        <time>2016-10-16T10:31:52Z</time>
      </trkpt>
      <trkpt lat="42.89862" lon="0.20193">
        <ele>1952.5671720433</ele>
        <time>2016-10-16T10:31:57Z</time>
      </trkpt>
      <trkpt lat="42.8986" lon="0.20187">
        <ele>1952.5671720433</ele>
        <time>2016-10-16T10:32:02Z</time>
      </trkpt>
      <trkpt lat="42.89857" lon="0.20178">
        <ele>1953.7452910191</ele>
        <time>2016-10-16T10:32:07Z</time>
      </trkpt>
      <trkpt lat="42.89853" lon="0.20173">
        <ele>1953.7452910191</ele>
        <time>2016-10-16T10:32:12Z</time>
      </trkpt>
      <trkpt lat="42.89852" lon="0.20164">
        <ele>1954.7359667341</ele>
        <time>2016-10-16T10:32:17Z</time>
      </trkpt>
      <trkpt lat="42.89853" lon="0.20161">
        <ele>1954.7359667341</ele>
        <time>2016-10-16T10:32:22Z</time>
      </trkpt>
      <trkpt lat="42.89851" lon="0.20158">
        <ele>1954.7359667341</ele>
        <time>2016-10-16T10:32:27Z</time>
      </trkpt>
      <trkpt lat="42.8985" lon="0.20153">
        <ele>1955.5720317233</ele>
        <time>2016-10-16T10:32:32Z</time>
      </trkpt>
      <trkpt lat="42.8985" lon="0.20149">
        <ele>1955.5720317233</ele>
        <time>2016-10-16T10:32:37Z</time>
      </trkpt>
      <trkpt lat="42.89853" lon="0.20141">
        <ele>1956.2410485278</ele>
        <time>2016-10-16T10:32:42Z</time>
      </trkpt>
      <trkpt lat="42.89855" lon="0.20137">
        <ele>1956.2410485278</ele>
        <time>2016-10-16T10:32:47Z</time>
      </trkpt>
      <trkpt lat="42.89857" lon="0.20136">
        <ele>1956.2410485278</ele>
        <time>2016-10-16T10:32:52Z</time>
      </trkpt>
      <trkpt lat="42.89857" lon="0.20134">
        <ele>1956.2410485278</ele>
        <time>2016-10-16T10:32:57Z</time>
      </trkpt>
      <trkpt lat="42.89858" lon="0.20132">
        <ele>1956.8039483482</ele>
        <time>2016-10-16T10:33:02Z</time>
      </trkpt>
      <trkpt lat="42.8986" lon="0.20126">
        <ele>1956.8039483482</ele>
        <time>2016-10-16T10:33:07Z</time>
      </trkpt>
      <trkpt lat="42.8986" lon="0.20122">
        <ele>1956.8039483482</ele>
        <time>2016-10-16T10:33:12Z</time>
      </trkpt>
      <trkpt lat="42.89863" lon="0.20119">
        <ele>1957.2453484158</ele>
        <time>2016-10-16T10:33:17Z</time>
      </trkpt>
      <trkpt lat="42.89862" lon="0.20118">
        <ele>1957.2453484158</ele>
        <time>2016-10-16T10:33:22Z</time>
      </trkpt>
      <trkpt lat="42.89864" lon="0.20115">
        <ele>1957.2453484158</ele>
        <time>2016-10-16T10:33:27Z</time>
      </trkpt>
      <trkpt lat="42.89864" lon="0.20111">
        <ele>1957.2453484158</ele>
        <time>2016-10-16T10:33:32Z</time>
      </trkpt>
      <trkpt lat="42.89866" lon="0.20109">
        <ele>1957.5800679925</ele>
        <time>2016-10-16T10:33:37Z</time>
      </trkpt>
      <trkpt lat="42.89867" lon="0.20107">
        <ele>1957.5800679925</ele>
        <time>2016-10-16T10:33:42Z</time>
      </trkpt>
      <trkpt lat="42.89867" lon="0.20107">
        <ele>1957.5800679925</ele>
        <time>2016-10-16T10:33:47Z</time>
      </trkpt>
      <trkpt lat="42.89868" lon="0.20105">
        <ele>1957.5800679925</ele>
        <time>2016-10-16T10:33:52Z</time>
      </trkpt>
      <trkpt lat="42.89868" lon="0.20102">
        <ele>1957.5800679925</ele>
        <time>2016-10-16T10:33:57Z</time>
      </trkpt>
      <trkpt lat="42.89867" lon="0.20101">
        <ele>1957.5800679925</ele>
        <time>2016-10-16T10:34:02Z</time>
      </trkpt>
      <trkpt lat="42.89868" lon="0.20098">
        <ele>1957.8652685353</ele>
        <time>2016-10-16T10:34:07Z</time>
      </trkpt>
      <trkpt lat="42.89869" lon="0.20096">
        <ele>1957.8652685353</ele>
        <time>2016-10-16T10:34:12Z</time>
      </trkpt>
      <trkpt lat="42.89871" lon="0.20094">
        <ele>1957.8652685353</ele>
        <time>2016-10-16T10:34:17Z</time>
      </trkpt>
      <trkpt lat="42.89871" lon="0.20092">
        <ele>1957.8652685353</ele>
        <time>2016-10-16T10:34:22Z</time>
      </trkpt>
      <trkpt lat="42.89871" lon="0.20088">
        <ele>1957.8652685353</ele>
        <time>2016-10-16T10:34:27Z</time>
      </trkpt>
      <trkpt lat="42.89871" lon="0.20085">
        <ele>1958.0962946978</ele>
        <time>2016-10-16T10:34:32Z</time>
      </trkpt>
      <trkpt lat="42.8987" lon="0.20082">
        <ele>1958.0962946978</ele>
        <time>2016-10-16T10:34:37Z</time>
      </trkpt>
      <trkpt lat="42.89871" lon="0.2008">
        <ele>1958.0962946978</ele>
        <time>2016-10-16T10:34:42Z</time>
      </trkpt>
      <trkpt lat="42.89872" lon="0.2008">
        <ele>1958.0962946978</ele>
        <time>2016-10-16T10:34:47Z</time>
      </trkpt>
      <trkpt lat="42.89871" lon="0.20077">
        <ele>1958.0962946978</ele>
        <time>2016-10-16T10:34:52Z</time>
      </trkpt>
      <trkpt lat="42.89872" lon="0.20077">
        <ele>1958.0962946978</ele>
        <time>2016-10-16T10:34:57Z</time>
      </trkpt>
      <trkpt lat="42.89872" lon="0.20076">
        <ele>1958.0962946978</ele>
        <time>2016-10-16T10:35:02Z</time>
      </trkpt>
      <trkpt lat="42.89873" lon="0.2007">
        <ele>1958.3265075334</ele>
        <time>2016-10-16T10:35:07Z</time>
      </trkpt>
      <trkpt lat="42.89875" lon="0.20066">
        <ele>1958.3265075334</ele>
        <time>2016-10-16T10:35:12Z</time>
      </trkpt>
      <trkpt lat="42.89873" lon="0.20064">
        <ele>1958.3265075334</ele>
        <time>2016-10-16T10:35:17Z</time>
      </trkpt>
      <trkpt lat="42.89872" lon="0.20061">
        <ele>1958.3265075334</ele>
        <time>2016-10-16T10:35:22Z</time>
      </trkpt>
      <trkpt lat="42.89871" lon="0.20057">
        <ele>1958.504341522</ele>
        <time>2016-10-16T10:35:27Z</time>
      </trkpt>
      <trkpt lat="42.8987" lon="0.20053">
        <ele>1958.504341522</ele>
        <time>2016-10-16T10:35:32Z</time>
      </trkpt>
      <trkpt lat="42.8987" lon="0.20051">
        <ele>1958.504341522</ele>
        <time>2016-10-16T10:35:37Z</time>
      </trkpt>
      <trkpt lat="42.89872" lon="0.20048">
        <ele>1958.504341522</ele>
        <time>2016-10-16T10:35:42Z</time>
      </trkpt>
      <trkpt lat="42.89873" lon="0.20048">
        <ele>1958.504341522</ele>
        <time>2016-10-16T10:35:47Z</time>
      </trkpt>
      <trkpt lat="42.89869" lon="0.20046">
        <ele>1958.6829044077</ele>
        <time>2016-10-16T10:35:52Z</time>
      </trkpt>
      <trkpt lat="42.89865" lon="0.20048">
        <ele>1958.6829044077</ele>
        <time>2016-10-16T10:35:57Z</time>
      </trkpt>
      <trkpt lat="42.89866" lon="0.20046">
        <ele>1958.6829044077</ele>
        <time>2016-10-16T10:36:02Z</time>
      </trkpt>
      <trkpt lat="42.89864" lon="0.20045">
        <ele>1958.6829044077</ele>
        <time>2016-10-16T10:36:07Z</time>
      </trkpt>
      <trkpt lat="42.8986" lon="0.20043">
        <ele>1958.8247869744</ele>
        <time>2016-10-16T10:36:12Z</time>
      </trkpt>
      <trkpt lat="42.89858" lon="0.20039">
        <ele>1958.8247869744</ele>
        <time>2016-10-16T10:36:17Z</time>
      </trkpt>
      <trkpt lat="42.89857" lon="0.20039">
        <ele>1958.8247869744</ele>
        <time>2016-10-16T10:36:22Z</time>
      </trkpt>
      <trkpt lat="42.89856" lon="0.2004">
        <ele>1958.8247869744</ele>
        <time>2016-10-16T10:36:27Z</time>
      </trkpt>
      <trkpt lat="42.89856" lon="0.2004">
        <ele>1958.8247869744</ele>
        <time>2016-10-16T10:36:32Z</time>
      </trkpt>
      <trkpt lat="42.89851" lon="0.20044">
        <ele>1958.9096884045</ele>
        <time>2016-10-16T10:36:37Z</time>
      </trkpt>
      <trkpt lat="42.89848" lon="0.20041">
        <ele>1958.9096884045</ele>
        <time>2016-10-16T10:36:42Z</time>
      </trkpt>
      <trkpt lat="42.89842" lon="0.20039">
        <ele>1958.9187992387</ele>
        <time>2016-10-16T10:36:47Z</time>
      </trkpt>
      <trkpt lat="42.8984" lon="0.20037">
        <ele>1958.9187992387</ele>
        <time>2016-10-16T10:36:52Z</time>
      </trkpt>
      <trkpt lat="42.89838" lon="0.20034">
        <ele>1958.9187992387</ele>
        <time>2016-10-16T10:36:57Z</time>
      </trkpt>
      <trkpt lat="42.89838" lon="0.20032">
        <ele>1958.9187992387</ele>
        <time>2016-10-16T10:37:02Z</time>
      </trkpt>
      <trkpt lat="42.89835" lon="0.20027">
        <ele>1958.8923835504</ele>
        <time>2016-10-16T10:37:07Z</time>
      </trkpt>
      <trkpt lat="42.89835" lon="0.20027">
        <ele>1958.8923835504</ele>
        <time>2016-10-16T10:37:12Z</time>
      </trkpt>
      <trkpt lat="42.89832" lon="0.20029">
        <ele>1958.8923835504</ele>
        <time>2016-10-16T10:37:17Z</time>
      </trkpt>
      <trkpt lat="42.89831" lon="0.20026">
        <ele>1958.8923835504</ele>
        <time>2016-10-16T10:37:22Z</time>
      </trkpt>
      <trkpt lat="42.89828" lon="0.20023">
        <ele>1958.8923835504</ele>
        <time>2016-10-16T10:37:27Z</time>
      </trkpt>
      <trkpt lat="42.89826" lon="0.20022">
        <ele>1958.838854787</ele>
        <time>2016-10-16T10:37:32Z</time>
      </trkpt>
      <trkpt lat="42.89824" lon="0.20022">
        <ele>1958.838854787</ele>
        <time>2016-10-16T10:37:37Z</time>
      </trkpt>
      <trkpt lat="42.89823" lon="0.20022">
        <ele>1958.838854787</ele>
        <time>2016-10-16T10:37:42Z</time>
      </trkpt>
      <trkpt lat="42.89822" lon="0.20022">
        <ele>1958.838854787</ele>
        <time>2016-10-16T10:37:47Z</time>
      </trkpt>
      <trkpt lat="42.89817" lon="0.20018">
        <ele>1958.7514985144</ele>
        <time>2016-10-16T10:37:52Z</time>
      </trkpt>
      <trkpt lat="42.89813" lon="0.20014">
        <ele>1958.7514985144</ele>
        <time>2016-10-16T10:37:57Z</time>
      </trkpt>
      <trkpt lat="42.89807" lon="0.20014">
        <ele>1958.6240096828</ele>
        <time>2016-10-16T10:38:02Z</time>
      </trkpt>
      <trkpt lat="42.89803" lon="0.20012">
        <ele>1958.6240096828</ele>
        <time>2016-10-16T10:38:07Z</time>
      </trkpt>
      <trkpt lat="42.89801" lon="0.20009">
        <ele>1958.6240096828</ele>
        <time>2016-10-16T10:38:12Z</time>
      </trkpt>
      <trkpt lat="42.89798" lon="0.20009">
        <ele>1958.4648879493</ele>
        <time>2016-10-16T10:38:17Z</time>
      </trkpt>
      <trkpt lat="42.89796" lon="0.20007">
        <ele>1958.4648879493</ele>
        <time>2016-10-16T10:38:22Z</time>
      </trkpt>
      <trkpt lat="42.89798" lon="0.20007">
        <ele>1958.4648879493</ele>
        <time>2016-10-16T10:38:27Z</time>
      </trkpt>
      <trkpt lat="42.89798" lon="0.20007">
        <ele>1958.4648879493</ele>
        <time>2016-10-16T10:38:32Z</time>
      </trkpt>
      <trkpt lat="42.89798" lon="0.20007">
        <ele>1958.4648879493</ele>
        <time>2016-10-16T10:38:37Z</time>
      </trkpt>
      <trkpt lat="42.89798" lon="0.20007">
        <ele>1958.4648879493</ele>
        <time>2016-10-16T10:38:42Z</time>
      </trkpt>
      <trkpt lat="42.89798" lon="0.20007">
        <ele>1958.4648879493</ele>
        <time>2016-10-16T10:38:47Z</time>
      </trkpt>
      <trkpt lat="42.89795" lon="0.20008">
        <ele>1958.2963234457</ele>
        <time>2016-10-16T10:38:52Z</time>
      </trkpt>
      <trkpt lat="42.89792" lon="0.20006">
        <ele>1958.2963234457</ele>
        <time>2016-10-16T10:38:57Z</time>
      </trkpt>
      <trkpt lat="42.89788" lon="0.20005">
        <ele>1958.2963234457</ele>
        <time>2016-10-16T10:39:02Z</time>
      </trkpt>
      <trkpt lat="42.89785" lon="0.20004">
        <ele>1958.109893183</ele>
        <time>2016-10-16T10:39:07Z</time>
      </trkpt>
      <trkpt lat="42.89781" lon="0.20003">
        <ele>1958.109893183</ele>
        <time>2016-10-16T10:39:12Z</time>
      </trkpt>
      <trkpt lat="42.89779" lon="0.20001">
        <ele>1958.109893183</ele>
        <time>2016-10-16T10:39:17Z</time>
      </trkpt>
      <trkpt lat="42.89776" lon="0.20002">
        <ele>1957.912065113</ele>
        <time>2016-10-16T10:39:22Z</time>
      </trkpt>
      <trkpt lat="42.89773" lon="0.20003">
        <ele>1957.912065113</ele>
        <time>2016-10-16T10:39:27Z</time>
      </trkpt>
      <trkpt lat="42.89769" lon="0.20001">
        <ele>1957.912065113</ele>
        <time>2016-10-16T10:39:32Z</time>
      </trkpt>
      <trkpt lat="42.89769" lon="0.20001">
        <ele>1957.912065113</ele>
        <time>2016-10-16T10:39:37Z</time>
      </trkpt>
      <trkpt lat="42.89765" lon="0.2">
        <ele>1957.7374961117</ele>
        <time>2016-10-16T10:39:42Z</time>
      </trkpt>
      <trkpt lat="42.89761" lon="0.19998">
        <ele>1957.7374961117</ele>
        <time>2016-10-16T10:39:47Z</time>
      </trkpt>
      <trkpt lat="42.8976" lon="0.19996">
        <ele>1957.7374961117</ele>
        <time>2016-10-16T10:39:52Z</time>
      </trkpt>
      <trkpt lat="42.89758" lon="0.19995">
        <ele>1957.7374961117</ele>
        <time>2016-10-16T10:39:57Z</time>
      </trkpt>
      <trkpt lat="42.89753" lon="0.19993">
        <ele>1957.6180413884</ele>
        <time>2016-10-16T10:40:02Z</time>
      </trkpt>
      <trkpt lat="42.89753" lon="0.19991">
        <ele>1957.6180413884</ele>
        <time>2016-10-16T10:40:07Z</time>
      </trkpt>
      <trkpt lat="42.8975" lon="0.1999">
        <ele>1957.6180413884</ele>
        <time>2016-10-16T10:40:12Z</time>
      </trkpt>
      <trkpt lat="42.89748" lon="0.19989">
        <ele>1957.6180413884</ele>
        <time>2016-10-16T10:40:17Z</time>
      </trkpt>
      <trkpt lat="42.89747" lon="0.1999">
        <ele>1957.6180413884</ele>
        <time>2016-10-16T10:40:22Z</time>
      </trkpt>
      <trkpt lat="42.89749" lon="0.1999">
        <ele>1957.6180413884</ele>
        <time>2016-10-16T10:40:27Z</time>
      </trkpt>
      <trkpt lat="42.89748" lon="0.19989">
        <ele>1957.7269827831</ele>
        <time>2016-10-16T10:40:32Z</time>
      </trkpt>
      <trkpt lat="42.89744" lon="0.19985">
        <ele>1957.7269827831</ele>
        <time>2016-10-16T10:40:37Z</time>
      </trkpt>
      <trkpt lat="42.89743" lon="0.1998">
        <ele>1957.7269827831</ele>
        <time>2016-10-16T10:40:42Z</time>
      </trkpt>
      <trkpt lat="42.89745" lon="0.19981">
        <ele>1957.9934664417</ele>
        <time>2016-10-16T10:40:47Z</time>
      </trkpt>
      <trkpt lat="42.89746" lon="0.19981">
        <ele>1957.9934664417</ele>
        <time>2016-10-16T10:40:52Z</time>
      </trkpt>
      <trkpt lat="42.89744" lon="0.19981">
        <ele>1957.9934664417</ele>
        <time>2016-10-16T10:40:57Z</time>
      </trkpt>
      <trkpt lat="42.89742" lon="0.1998">
        <ele>1957.9934664417</ele>
        <time>2016-10-16T10:41:02Z</time>
      </trkpt>
      <trkpt lat="42.89738" lon="0.1998">
        <ele>1957.9934664417</ele>
        <time>2016-10-16T10:41:07Z</time>
      </trkpt>
      <trkpt lat="42.89733" lon="0.19978">
        <ele>1958.5673839736</ele>
        <time>2016-10-16T10:41:12Z</time>
      </trkpt>
      <trkpt lat="42.89731" lon="0.19976">
        <ele>1958.5673839736</ele>
        <time>2016-10-16T10:41:17Z</time>
      </trkpt>
      <trkpt lat="42.89728" lon="0.19979">
        <ele>1958.5673839736</ele>
        <time>2016-10-16T10:41:22Z</time>
      </trkpt>
      <trkpt lat="42.89724" lon="0.19986">
        <ele>1959.3415859965</ele>
        <time>2016-10-16T10:41:27Z</time>
      </trkpt>
      <trkpt lat="42.89719" lon="0.19992">
        <ele>1959.3415859965</ele>
        <time>2016-10-16T10:41:32Z</time>
      </trkpt>
      <trkpt lat="42.89713" lon="0.19996">
        <ele>1960.2448834829</ele>
        <time>2016-10-16T10:41:37Z</time>
      </trkpt>
      <trkpt lat="42.8971" lon="0.19997">
        <ele>1960.2448834829</ele>
        <time>2016-10-16T10:41:42Z</time>
      </trkpt>
      <trkpt lat="42.89706" lon="0.19998">
        <ele>1960.2448834829</ele>
        <time>2016-10-16T10:41:47Z</time>
      </trkpt>
      <trkpt lat="42.89701" lon="0.19999">
        <ele>1961.455781948</ele>
        <time>2016-10-16T10:41:52Z</time>
      </trkpt>
      <trkpt lat="42.89696" lon="0.20001">
        <ele>1961.455781948</ele>
        <time>2016-10-16T10:41:57Z</time>
      </trkpt>
      <trkpt lat="42.89694" lon="0.20001">
        <ele>1961.455781948</ele>
        <time>2016-10-16T10:42:02Z</time>
      </trkpt>
      <trkpt lat="42.89696" lon="0.20003">
        <ele>1963.0089604679</ele>
        <time>2016-10-16T10:42:07Z</time>
      </trkpt>
      <trkpt lat="42.89692" lon="0.20005">
        <ele>1963.0089604679</ele>
        <time>2016-10-16T10:42:12Z</time>
      </trkpt>
      <trkpt lat="42.89686" lon="0.20003">
        <ele>1964.6472301115</ele>
        <time>2016-10-16T10:42:17Z</time>
      </trkpt>
      <trkpt lat="42.8968" lon="0.20003">
        <ele>1964.6472301115</ele>
        <time>2016-10-16T10:42:22Z</time>
      </trkpt>
      <trkpt lat="42.89677" lon="0.20008">
        <ele>1966.4489767255</ele>
        <time>2016-10-16T10:42:27Z</time>
      </trkpt>
      <trkpt lat="42.89676" lon="0.20011">
        <ele>1966.4489767255</ele>
        <time>2016-10-16T10:42:32Z</time>
      </trkpt>
      <trkpt lat="42.89674" lon="0.20012">
        <ele>1966.4489767255</ele>
        <time>2016-10-16T10:42:37Z</time>
      </trkpt>
      <trkpt lat="42.89672" lon="0.20017">
        <ele>1966.4489767255</ele>
        <time>2016-10-16T10:42:42Z</time>
      </trkpt>
      <trkpt lat="42.89668" lon="0.20027">
        <ele>1968.5871384977</ele>
        <time>2016-10-16T10:42:47Z</time>
      </trkpt>
      <trkpt lat="42.89663" lon="0.20031">
        <ele>1968.5871384977</ele>
        <time>2016-10-16T10:42:52Z</time>
      </trkpt>
      <trkpt lat="42.89658" lon="0.20034">
        <ele>1970.7885797651</ele>
        <time>2016-10-16T10:42:57Z</time>
      </trkpt>
      <trkpt lat="42.89657" lon="0.20035">
        <ele>1970.7885797651</ele>
        <time>2016-10-16T10:43:02Z</time>
      </trkpt>
      <trkpt lat="42.89655" lon="0.20031">
        <ele>1970.7885797651</ele>
        <time>2016-10-16T10:43:07Z</time>
      </trkpt>
      <trkpt lat="42.89655" lon="0.20029">
        <ele>1970.7885797651</ele>
        <time>2016-10-16T10:43:12Z</time>
      </trkpt>
      <trkpt lat="42.89654" lon="0.20027">
        <ele>1970.7885797651</ele>
        <time>2016-10-16T10:43:17Z</time>
      </trkpt>
      <trkpt lat="42.89653" lon="0.20027">
        <ele>1970.7885797651</ele>
        <time>2016-10-16T10:43:22Z</time>
      </trkpt>
      <trkpt lat="42.89653" lon="0.2002">
        <ele>1973.6790546793</ele>
        <time>2016-10-16T10:43:27Z</time>
      </trkpt>
      <trkpt lat="42.89653" lon="0.20016">
        <ele>1973.6790546793</ele>
        <time>2016-10-16T10:43:32Z</time>
      </trkpt>
      <trkpt lat="42.89652" lon="0.20014">
        <ele>1973.6790546793</ele>
        <time>2016-10-16T10:43:37Z</time>
      </trkpt>
      <trkpt lat="42.8965" lon="0.20011">
        <ele>1973.6790546793</ele>
        <time>2016-10-16T10:43:42Z</time>
      </trkpt>
      <trkpt lat="42.89649" lon="0.20008">
        <ele>1976.8996380814</ele>
        <time>2016-10-16T10:43:47Z</time>
      </trkpt>
      <trkpt lat="42.89649" lon="0.20003">
        <ele>1976.8996380814</ele>
        <time>2016-10-16T10:43:52Z</time>
      </trkpt>
      <trkpt lat="42.8965" lon="0.2">
        <ele>1976.8996380814</ele>
        <time>2016-10-16T10:43:57Z</time>
      </trkpt>
      <trkpt lat="42.89652" lon="0.19998">
        <ele>1976.8996380814</ele>
        <time>2016-10-16T10:44:02Z</time>
      </trkpt>
      <trkpt lat="42.89652" lon="0.19993">
        <ele>1980.3185650027</ele>
        <time>2016-10-16T10:44:07Z</time>
      </trkpt>
      <trkpt lat="42.89654" lon="0.19989">
        <ele>1980.3185650027</ele>
        <time>2016-10-16T10:44:12Z</time>
      </trkpt>
      <trkpt lat="42.89653" lon="0.19988">
        <ele>1980.3185650027</ele>
        <time>2016-10-16T10:44:17Z</time>
      </trkpt>
      <trkpt lat="42.89653" lon="0.19988">
        <ele>1980.3185650027</ele>
        <time>2016-10-16T10:44:22Z</time>
      </trkpt>
      <trkpt lat="42.89651" lon="0.19989">
        <ele>1980.3185650027</ele>
        <time>2016-10-16T10:44:27Z</time>
      </trkpt>
      <trkpt lat="42.8965" lon="0.1999">
        <ele>1980.3185650027</ele>
        <time>2016-10-16T10:44:32Z</time>
      </trkpt>
      <trkpt lat="42.8965" lon="0.19991">
        <ele>1980.3185650027</ele>
        <time>2016-10-16T10:44:37Z</time>
      </trkpt>
      <trkpt lat="42.8965" lon="0.19989">
        <ele>1984.0293462619</ele>
        <time>2016-10-16T10:44:42Z</time>
      </trkpt>
      <trkpt lat="42.89651" lon="0.19991">
        <ele>1984.0293462619</ele>
        <time>2016-10-16T10:44:47Z</time>
      </trkpt>
      <trkpt lat="42.89655" lon="0.19992">
        <ele>1984.0293462619</ele>
        <time>2016-10-16T10:44:52Z</time>
      </trkpt>
      <trkpt lat="42.89659" lon="0.19992">
        <ele>1987.7575355363</ele>
        <time>2016-10-16T10:44:57Z</time>
      </trkpt>
      <trkpt lat="42.89664" lon="0.19991">
        <ele>1987.7575355363</ele>
        <time>2016-10-16T10:45:02Z</time>
      </trkpt>
      <trkpt lat="42.89668" lon="0.19989">
        <ele>1991.320884795</ele>
        <time>2016-10-16T10:45:07Z</time>
      </trkpt>
      <trkpt lat="42.8967" lon="0.19988">
        <ele>1991.320884795</ele>
        <time>2016-10-16T10:45:12Z</time>
      </trkpt>
      <trkpt lat="42.8967" lon="0.19988">
        <ele>1991.320884795</ele>
        <time>2016-10-16T10:45:17Z</time>
      </trkpt>
      <trkpt lat="42.89671" lon="0.19988">
        <ele>1991.320884795</ele>
        <time>2016-10-16T10:45:22Z</time>
      </trkpt>
      <trkpt lat="42.8967" lon="0.19987">
        <ele>1991.320884795</ele>
        <time>2016-10-16T10:45:27Z</time>
      </trkpt>
      <trkpt lat="42.8967" lon="0.19987">
        <ele>1991.320884795</ele>
        <time>2016-10-16T10:45:32Z</time>
      </trkpt>
      <trkpt lat="42.8967" lon="0.19987">
        <ele>1991.320884795</ele>
        <time>2016-10-16T10:45:37Z</time>
      </trkpt>
      <trkpt lat="42.8967" lon="0.19987">
        <ele>1991.320884795</ele>
        <time>2016-10-16T10:45:42Z</time>
      </trkpt>
      <trkpt lat="42.89669" lon="0.19987">
        <ele>1991.320884795</ele>
        <time>2016-10-16T10:45:47Z</time>
      </trkpt>
      <trkpt lat="42.89668" lon="0.19989">
        <ele>1991.320884795</ele>
        <time>2016-10-16T10:45:52Z</time>
      </trkpt>
      <trkpt lat="42.89667" lon="0.19991">
        <ele>1991.320884795</ele>
        <time>2016-10-16T10:45:57Z</time>
      </trkpt>
      <trkpt lat="42.89666" lon="0.19991">
        <ele>1991.320884795</ele>
        <time>2016-10-16T10:46:02Z</time>
      </trkpt>
      <trkpt lat="42.89666" lon="0.19991">
        <ele>1991.320884795</ele>
        <time>2016-10-16T10:46:07Z</time>
      </trkpt>
      <trkpt lat="42.89666" lon="0.19992">
        <ele>1995.0266152407</ele>
        <time>2016-10-16T10:46:12Z</time>
      </trkpt>
      <trkpt lat="42.89662" lon="0.19995">
        <ele>1995.0266152407</ele>
        <time>2016-10-16T10:46:17Z</time>
      </trkpt>
      <trkpt lat="42.89657" lon="0.19994">
        <ele>1998.7267187356</ele>
        <time>2016-10-16T10:46:22Z</time>
      </trkpt>
      <trkpt lat="42.89654" lon="0.19992">
        <ele>1998.7267187356</ele>
        <time>2016-10-16T10:46:27Z</time>
      </trkpt>
      <trkpt lat="42.89654" lon="0.1999">
        <ele>1998.7267187356</ele>
        <time>2016-10-16T10:46:32Z</time>
      </trkpt>
      <trkpt lat="42.89654" lon="0.1999">
        <ele>1998.7267187356</ele>
        <time>2016-10-16T10:46:37Z</time>
      </trkpt>
      <trkpt lat="42.89654" lon="0.1999">
        <ele>1998.7267187356</ele>
        <time>2016-10-16T10:46:42Z</time>
      </trkpt>
      <trkpt lat="42.89654" lon="0.1999">
        <ele>1998.7267187356</ele>
        <time>2016-10-16T10:46:47Z</time>
      </trkpt>
      <trkpt lat="42.89653" lon="0.1999">
        <ele>1998.7267187356</ele>
        <time>2016-10-16T10:46:52Z</time>
      </trkpt>
      <trkpt lat="42.89649" lon="0.19992">
        <ele>2002.5867991167</ele>
        <time>2016-10-16T10:46:57Z</time>
      </trkpt>
      <trkpt lat="42.89645" lon="0.19988">
        <ele>2002.5867991167</ele>
        <time>2016-10-16T10:47:02Z</time>
      </trkpt>
      <trkpt lat="42.89645" lon="0.19983">
        <ele>2002.5867991167</ele>
        <time>2016-10-16T10:47:07Z</time>
      </trkpt>
      <trkpt lat="42.89644" lon="0.19977">
        <ele>2006.457319871</ele>
        <time>2016-10-16T10:47:12Z</time>
      </trkpt>
      <trkpt lat="42.89642" lon="0.19972">
        <ele>2006.457319871</ele>
        <time>2016-10-16T10:47:17Z</time>
      </trkpt>
      <trkpt lat="42.89642" lon="0.19967">
        <ele>2006.457319871</ele>
        <time>2016-10-16T10:47:22Z</time>
      </trkpt>
      <trkpt lat="42.89645" lon="0.19965">
        <ele>2010.2718783967</ele>
        <time>2016-10-16T10:47:27Z</time>
      </trkpt>
      <trkpt lat="42.89649" lon="0.19954">
        <ele>2013.7818990827</ele>
        <time>2016-10-16T10:47:32Z</time>
      </trkpt>
      <trkpt lat="42.89644" lon="0.19948">
        <ele>2013.7818990827</ele>
        <time>2016-10-16T10:47:37Z</time>
      </trkpt>
      <trkpt lat="42.89644" lon="0.19947">
        <ele>2013.7818990827</ele>
        <time>2016-10-16T10:47:42Z</time>
      </trkpt>
      <trkpt lat="42.89645" lon="0.19948">
        <ele>2013.7818990827</ele>
        <time>2016-10-16T10:47:47Z</time>
      </trkpt>
      <trkpt lat="42.89646" lon="0.19948">
        <ele>2017.0895249179</ele>
        <time>2016-10-16T10:47:52Z</time>
      </trkpt>
      <trkpt lat="42.89646" lon="0.19948">
        <ele>2017.0895249179</ele>
        <time>2016-10-16T10:47:57Z</time>
      </trkpt>
      <trkpt lat="42.89646" lon="0.19948">
        <ele>2017.0895249179</ele>
        <time>2016-10-16T10:48:02Z</time>
      </trkpt>
      <trkpt lat="42.89645" lon="0.19948">
        <ele>2017.0895249179</ele>
        <time>2016-10-16T10:48:07Z</time>
      </trkpt>
      <trkpt lat="42.89645" lon="0.19948">
        <ele>2017.0895249179</ele>
        <time>2016-10-16T10:48:12Z</time>
      </trkpt>
      <trkpt lat="42.89646" lon="0.19948">
        <ele>2017.0895249179</ele>
        <time>2016-10-16T10:48:17Z</time>
      </trkpt>
      <trkpt lat="42.89645" lon="0.19948">
        <ele>2017.0895249179</ele>
        <time>2016-10-16T10:48:22Z</time>
      </trkpt>
      <trkpt lat="42.89646" lon="0.19948">
        <ele>2017.0895249179</ele>
        <time>2016-10-16T10:48:27Z</time>
      </trkpt>
      <trkpt lat="42.89646" lon="0.19948">
        <ele>2017.0895249179</ele>
        <time>2016-10-16T10:48:32Z</time>
      </trkpt>
      <trkpt lat="42.89646" lon="0.19948">
        <ele>2017.0895249179</ele>
        <time>2016-10-16T10:48:37Z</time>
      </trkpt>
      <trkpt lat="42.89646" lon="0.19948">
        <ele>2017.0895249179</ele>
        <time>2016-10-16T10:48:42Z</time>
      </trkpt>
      <trkpt lat="42.89647" lon="0.19948">
        <ele>2017.0895249179</ele>
        <time>2016-10-16T10:48:47Z</time>
      </trkpt>
      <trkpt lat="42.89647" lon="0.19949">
        <ele>2017.0895249179</ele>
        <time>2016-10-16T10:48:52Z</time>
      </trkpt>
      <trkpt lat="42.89647" lon="0.19948">
        <ele>2017.0895249179</ele>
        <time>2016-10-16T10:48:57Z</time>
      </trkpt>
      <trkpt lat="42.89645" lon="0.19948">
        <ele>2017.0895249179</ele>
        <time>2016-10-16T10:49:02Z</time>
      </trkpt>
      <trkpt lat="42.89644" lon="0.19947">
        <ele>2017.0895249179</ele>
        <time>2016-10-16T10:49:07Z</time>
      </trkpt>
      <trkpt lat="42.89644" lon="0.19948">
        <ele>2017.0895249179</ele>
        <time>2016-10-16T10:49:12Z</time>
      </trkpt>
      <trkpt lat="42.89644" lon="0.19948">
        <ele>2017.0895249179</ele>
        <time>2016-10-16T10:49:17Z</time>
      </trkpt>
      <trkpt lat="42.89643" lon="0.19949">
        <ele>2020.4630546182</ele>
        <time>2016-10-16T10:49:22Z</time>
      </trkpt>
      <trkpt lat="42.8964" lon="0.19949">
        <ele>2020.4630546182</ele>
        <time>2016-10-16T10:49:27Z</time>
      </trkpt>
      <trkpt lat="42.89639" lon="0.1995">
        <ele>2020.4630546182</ele>
        <time>2016-10-16T10:49:32Z</time>
      </trkpt>
      <trkpt lat="42.89639" lon="0.19949">
        <ele>2020.4630546182</ele>
        <time>2016-10-16T10:49:37Z</time>
      </trkpt>
      <trkpt lat="42.89639" lon="0.19951">
        <ele>2020.4630546182</ele>
        <time>2016-10-16T10:49:42Z</time>
      </trkpt>
      <trkpt lat="42.8964" lon="0.19948">
        <ele>2020.4630546182</ele>
        <time>2016-10-16T10:49:47Z</time>
      </trkpt>
      <trkpt lat="42.89641" lon="0.19948">
        <ele>2023.6466687716</ele>
        <time>2016-10-16T10:49:52Z</time>
      </trkpt>
      <trkpt lat="42.89641" lon="0.19952">
        <ele>2023.6466687716</ele>
        <time>2016-10-16T10:49:57Z</time>
      </trkpt>
      <trkpt lat="42.89642" lon="0.19951">
        <ele>2023.6466687716</ele>
        <time>2016-10-16T10:50:02Z</time>
      </trkpt>
      <trkpt lat="42.89643" lon="0.1995">
        <ele>2023.6466687716</ele>
        <time>2016-10-16T10:50:07Z</time>
      </trkpt>
      <trkpt lat="42.89647" lon="0.19942">
        <ele>2026.5049202498</ele>
        <time>2016-10-16T10:50:12Z</time>
      </trkpt>
      <trkpt lat="42.89647" lon="0.19942">
        <ele>2026.5049202498</ele>
        <time>2016-10-16T10:50:17Z</time>
      </trkpt>
      <trkpt lat="42.8965" lon="0.19942">
        <ele>2026.5049202498</ele>
        <time>2016-10-16T10:50:22Z</time>
      </trkpt>
      <trkpt lat="42.89649" lon="0.19939">
        <ele>2026.5049202498</ele>
        <time>2016-10-16T10:50:27Z</time>
      </trkpt>
      <trkpt lat="42.89651" lon="0.19938">
        <ele>2026.5049202498</ele>
        <time>2016-10-16T10:50:32Z</time>
      </trkpt>
      <trkpt lat="42.89651" lon="0.19938">
        <ele>2026.5049202498</ele>
        <time>2016-10-16T10:50:37Z</time>
      </trkpt>
      <trkpt lat="42.89651" lon="0.19937">
        <ele>2026.5049202498</ele>
        <time>2016-10-16T10:50:42Z</time>
      </trkpt>
      <trkpt lat="42.89649" lon="0.19937">
        <ele>2029.1151517159</ele>
        <time>2016-10-16T10:50:47Z</time>
      </trkpt>
      <trkpt lat="42.89651" lon="0.19936">
        <ele>2029.1151517159</ele>
        <time>2016-10-16T10:50:52Z</time>
      </trkpt>
      <trkpt lat="42.8965" lon="0.19936">
        <ele>2029.1151517159</ele>
        <time>2016-10-16T10:50:57Z</time>
      </trkpt>
      <trkpt lat="42.89651" lon="0.19936">
        <ele>2029.1151517159</ele>
        <time>2016-10-16T10:51:02Z</time>
      </trkpt>
      <trkpt lat="42.89651" lon="0.19935">
        <ele>2029.1151517159</ele>
        <time>2016-10-16T10:51:07Z</time>
      </trkpt>
      <trkpt lat="42.89651" lon="0.19935">
        <ele>2029.1151517159</ele>
        <time>2016-10-16T10:51:12Z</time>
      </trkpt>
      <trkpt lat="42.89651" lon="0.19935">
        <ele>2029.1151517159</ele>
        <time>2016-10-16T10:51:17Z</time>
      </trkpt>
      <trkpt lat="42.89649" lon="0.19933">
        <ele>2029.1151517159</ele>
        <time>2016-10-16T10:51:22Z</time>
      </trkpt>
      <trkpt lat="42.89648" lon="0.19933">
        <ele>2029.1151517159</ele>
        <time>2016-10-16T10:51:27Z</time>
      </trkpt>
      <trkpt lat="42.89648" lon="0.19933">
        <ele>2029.1151517159</ele>
        <time>2016-10-16T10:51:32Z</time>
      </trkpt>
      <trkpt lat="42.89648" lon="0.19933">
        <ele>2029.1151517159</ele>
        <time>2016-10-16T10:51:37Z</time>
      </trkpt>
      <trkpt lat="42.89648" lon="0.19934">
        <ele>2029.1151517159</ele>
        <time>2016-10-16T10:51:42Z</time>
      </trkpt>
      <trkpt lat="42.89648" lon="0.19935">
        <ele>2029.1151517159</ele>
        <time>2016-10-16T10:51:47Z</time>
      </trkpt>
      <trkpt lat="42.89647" lon="0.19936">
        <ele>2031.564302667</ele>
        <time>2016-10-16T10:51:52Z</time>
      </trkpt>
      <trkpt lat="42.89646" lon="0.19937">
        <ele>2031.564302667</ele>
        <time>2016-10-16T10:51:57Z</time>
      </trkpt>
      <trkpt lat="42.89646" lon="0.19939">
        <ele>2031.564302667</ele>
        <time>2016-10-16T10:52:02Z</time>
      </trkpt>
      <trkpt lat="42.89646" lon="0.19939">
        <ele>2031.564302667</ele>
        <time>2016-10-16T10:52:07Z</time>
      </trkpt>
      <trkpt lat="42.89646" lon="0.19939">
        <ele>2031.564302667</ele>
        <time>2016-10-16T10:52:12Z</time>
      </trkpt>
      <trkpt lat="42.89645" lon="0.19938">
        <ele>2031.564302667</ele>
        <time>2016-10-16T10:52:17Z</time>
      </trkpt>
      <trkpt lat="42.89644" lon="0.19943">
        <ele>2031.564302667</ele>
        <time>2016-10-16T10:52:22Z</time>
      </trkpt>
      <trkpt lat="42.89644" lon="0.19943">
        <ele>2031.564302667</ele>
        <time>2016-10-16T10:52:27Z</time>
      </trkpt>
      <trkpt lat="42.89644" lon="0.19944">
        <ele>2031.564302667</ele>
        <time>2016-10-16T10:52:32Z</time>
      </trkpt>
      <trkpt lat="42.89644" lon="0.19944">
        <ele>2031.564302667</ele>
        <time>2016-10-16T10:52:37Z</time>
      </trkpt>
      <trkpt lat="42.89644" lon="0.19944">
        <ele>2031.564302667</ele>
        <time>2016-10-16T10:52:42Z</time>
      </trkpt>
      <trkpt lat="42.89643" lon="0.19942">
        <ele>2033.7894356868</ele>
        <time>2016-10-16T10:52:47Z</time>
      </trkpt>
      <trkpt lat="42.89643" lon="0.19943">
        <ele>2033.7894356868</ele>
        <time>2016-10-16T10:52:52Z</time>
      </trkpt>
      <trkpt lat="42.89643" lon="0.19942">
        <ele>2033.7894356868</ele>
        <time>2016-10-16T10:52:57Z</time>
      </trkpt>
      <trkpt lat="42.89643" lon="0.19942">
        <ele>2033.7894356868</ele>
        <time>2016-10-16T10:53:02Z</time>
      </trkpt>
      <trkpt lat="42.89643" lon="0.19942">
        <ele>2033.7894356868</ele>
        <time>2016-10-16T10:53:07Z</time>
      </trkpt>
      <trkpt lat="42.89643" lon="0.19942">
        <ele>2033.7894356868</ele>
        <time>2016-10-16T10:53:12Z</time>
      </trkpt>
      <trkpt lat="42.89643" lon="0.19941">
        <ele>2033.7894356868</ele>
        <time>2016-10-16T10:53:17Z</time>
      </trkpt>
      <trkpt lat="42.89645" lon="0.19936">
        <ele>2033.7894356868</ele>
        <time>2016-10-16T10:53:22Z</time>
      </trkpt>
      <trkpt lat="42.89645" lon="0.19935">
        <ele>2033.7894356868</ele>
        <time>2016-10-16T10:53:27Z</time>
      </trkpt>
      <trkpt lat="42.89645" lon="0.19936">
        <ele>2033.7894356868</ele>
        <time>2016-10-16T10:53:32Z</time>
      </trkpt>
      <trkpt lat="42.89645" lon="0.19936">
        <ele>2033.7894356868</ele>
        <time>2016-10-16T10:53:37Z</time>
      </trkpt>
      <trkpt lat="42.89645" lon="0.19936">
        <ele>2033.7894356868</ele>
        <time>2016-10-16T10:53:42Z</time>
      </trkpt>
      <trkpt lat="42.89645" lon="0.19936">
        <ele>2033.7894356868</ele>
        <time>2016-10-16T10:53:47Z</time>
      </trkpt>
      <trkpt lat="42.89644" lon="0.19935">
        <ele>2033.7894356868</ele>
        <time>2016-10-16T10:53:52Z</time>
      </trkpt>
      <trkpt lat="42.89644" lon="0.19934">
        <ele>2035.8627293488</ele>
        <time>2016-10-16T10:53:57Z</time>
      </trkpt>
      <trkpt lat="42.89644" lon="0.19934">
        <ele>2035.8627293488</ele>
        <time>2016-10-16T10:54:02Z</time>
      </trkpt>
      <trkpt lat="42.89643" lon="0.19935">
        <ele>2035.8627293488</ele>
        <time>2016-10-16T10:54:07Z</time>
      </trkpt>
      <trkpt lat="42.89643" lon="0.19935">
        <ele>2035.8627293488</ele>
        <time>2016-10-16T10:54:12Z</time>
      </trkpt>
      <trkpt lat="42.89643" lon="0.19936">
        <ele>2035.8627293488</ele>
        <time>2016-10-16T10:54:17Z</time>
      </trkpt>
      <trkpt lat="42.89643" lon="0.19937">
        <ele>2035.8627293488</ele>
        <time>2016-10-16T10:54:22Z</time>
      </trkpt>
      <trkpt lat="42.89643" lon="0.19937">
        <ele>2035.8627293488</ele>
        <time>2016-10-16T10:54:27Z</time>
      </trkpt>
      <trkpt lat="42.89642" lon="0.19939">
        <ele>2035.8627293488</ele>
        <time>2016-10-16T10:54:32Z</time>
      </trkpt>
      <trkpt lat="42.89643" lon="0.19939">
        <ele>2035.8627293488</ele>
        <time>2016-10-16T10:54:37Z</time>
      </trkpt>
      <trkpt lat="42.89642" lon="0.1994">
        <ele>2035.8627293488</ele>
        <time>2016-10-16T10:54:42Z</time>
      </trkpt>
      <trkpt lat="42.89643" lon="0.19941">
        <ele>2035.8627293488</ele>
        <time>2016-10-16T10:54:47Z</time>
      </trkpt>
      <trkpt lat="42.89643" lon="0.19942">
        <ele>2035.8627293488</ele>
        <time>2016-10-16T10:54:52Z</time>
      </trkpt>
      <trkpt lat="42.89642" lon="0.19947">
        <ele>2037.7075323802</ele>
        <time>2016-10-16T10:54:57Z</time>
      </trkpt>
      <trkpt lat="42.89642" lon="0.19946">
        <ele>2037.7075323802</ele>
        <time>2016-10-16T10:55:02Z</time>
      </trkpt>
      <trkpt lat="42.89643" lon="0.19945">
        <ele>2037.7075323802</ele>
        <time>2016-10-16T10:55:07Z</time>
      </trkpt>
      <trkpt lat="42.89644" lon="0.19944">
        <ele>2037.7075323802</ele>
        <time>2016-10-16T10:55:12Z</time>
      </trkpt>
      <trkpt lat="42.89644" lon="0.19944">
        <ele>2037.7075323802</ele>
        <time>2016-10-16T10:55:17Z</time>
      </trkpt>
      <trkpt lat="42.89645" lon="0.19944">
        <ele>2037.7075323802</ele>
        <time>2016-10-16T10:55:22Z</time>
      </trkpt>
      <trkpt lat="42.89645" lon="0.19944">
        <ele>2037.7075323802</ele>
        <time>2016-10-16T10:55:27Z</time>
      </trkpt>
      <trkpt lat="42.89645" lon="0.19944">
        <ele>2037.7075323802</ele>
        <time>2016-10-16T10:55:32Z</time>
      </trkpt>
      <trkpt lat="42.89643" lon="0.19944">
        <ele>2037.7075323802</ele>
        <time>2016-10-16T10:55:37Z</time>
      </trkpt>
      <trkpt lat="42.89641" lon="0.19945">
        <ele>2039.3689035705</ele>
        <time>2016-10-16T10:55:42Z</time>
      </trkpt>
      <trkpt lat="42.89636" lon="0.19941">
        <ele>2039.3689035705</ele>
        <time>2016-10-16T10:55:47Z</time>
      </trkpt>
      <trkpt lat="42.89633" lon="0.19937">
        <ele>2040.8027792652</ele>
        <time>2016-10-16T10:55:52Z</time>
      </trkpt>
      <trkpt lat="42.89631" lon="0.1993">
        <ele>2040.8027792652</ele>
        <time>2016-10-16T10:55:57Z</time>
      </trkpt>
      <trkpt lat="42.89628" lon="0.19926">
        <ele>2041.9979216312</ele>
        <time>2016-10-16T10:56:02Z</time>
      </trkpt>
      <trkpt lat="42.89626" lon="0.19923">
        <ele>2041.9979216312</ele>
        <time>2016-10-16T10:56:07Z</time>
      </trkpt>
      <trkpt lat="42.89624" lon="0.1992">
        <ele>2041.9979216312</ele>
        <time>2016-10-16T10:56:12Z</time>
      </trkpt>
      <trkpt lat="42.89623" lon="0.19914">
        <ele>2042.9879374125</ele>
        <time>2016-10-16T10:56:17Z</time>
      </trkpt>
      <trkpt lat="42.89624" lon="0.19909">
        <ele>2042.9879374125</ele>
        <time>2016-10-16T10:56:22Z</time>
      </trkpt>
      <trkpt lat="42.89623" lon="0.19903">
        <ele>2043.7614089358</ele>
        <time>2016-10-16T10:56:27Z</time>
      </trkpt>
      <trkpt lat="42.89621" lon="0.19899">
        <ele>2043.7614089358</ele>
        <time>2016-10-16T10:56:32Z</time>
      </trkpt>
      <trkpt lat="42.89617" lon="0.19894">
        <ele>2043.7614089358</ele>
        <time>2016-10-16T10:56:37Z</time>
      </trkpt>
      <trkpt lat="42.89616" lon="0.19893">
        <ele>2044.3516854688</ele>
        <time>2016-10-16T10:56:42Z</time>
      </trkpt>
      <trkpt lat="42.89615" lon="0.19893">
        <ele>2044.3516854688</ele>
        <time>2016-10-16T10:56:47Z</time>
      </trkpt>
      <trkpt lat="42.89611" lon="0.19891">
        <ele>2044.3516854688</ele>
        <time>2016-10-16T10:56:52Z</time>
      </trkpt>
      <trkpt lat="42.89607" lon="0.19893">
        <ele>2044.7614298203</ele>
        <time>2016-10-16T10:56:57Z</time>
      </trkpt>
      <trkpt lat="42.89604" lon="0.19889">
        <ele>2044.7614298203</ele>
        <time>2016-10-16T10:57:02Z</time>
      </trkpt>
      <trkpt lat="42.89601" lon="0.19885">
        <ele>2044.7614298203</ele>
        <time>2016-10-16T10:57:07Z</time>
      </trkpt>
      <trkpt lat="42.89598" lon="0.19881">
        <ele>2045.0080820883</ele>
        <time>2016-10-16T10:57:12Z</time>
      </trkpt>
      <trkpt lat="42.89598" lon="0.1988">
        <ele>2045.0080820883</ele>
        <time>2016-10-16T10:57:17Z</time>
      </trkpt>
      <trkpt lat="42.89596" lon="0.19877">
        <ele>2045.0080820883</ele>
        <time>2016-10-16T10:57:22Z</time>
      </trkpt>
      <trkpt lat="42.89594" lon="0.19876">
        <ele>2045.0080820883</ele>
        <time>2016-10-16T10:57:27Z</time>
      </trkpt>
      <trkpt lat="42.89594" lon="0.19874">
        <ele>2045.0080820883</ele>
        <time>2016-10-16T10:57:32Z</time>
      </trkpt>
      <trkpt lat="42.89589" lon="0.19875">
        <ele>2045.0938861785</ele>
        <time>2016-10-16T10:57:37Z</time>
      </trkpt>
      <trkpt lat="42.89588" lon="0.19873">
        <ele>2045.0938861785</ele>
        <time>2016-10-16T10:57:42Z</time>
      </trkpt>
      <trkpt lat="42.89588" lon="0.19873">
        <ele>2045.0938861785</ele>
        <time>2016-10-16T10:57:47Z</time>
      </trkpt>
      <trkpt lat="42.89588" lon="0.19871">
        <ele>2045.0938861785</ele>
        <time>2016-10-16T10:57:52Z</time>
      </trkpt>
      <trkpt lat="42.89585" lon="0.19868">
        <ele>2045.0938861785</ele>
        <time>2016-10-16T10:57:57Z</time>
      </trkpt>
      <trkpt lat="42.89582" lon="0.19866">
        <ele>2045.0358050086</ele>
        <time>2016-10-16T10:58:02Z</time>
      </trkpt>
      <trkpt lat="42.89578" lon="0.19865">
        <ele>2045.0358050086</ele>
        <time>2016-10-16T10:58:07Z</time>
      </trkpt>
      <trkpt lat="42.89575" lon="0.19864">
        <ele>2045.0358050086</ele>
        <time>2016-10-16T10:58:12Z</time>
      </trkpt>
      <trkpt lat="42.89573" lon="0.19864">
        <ele>2044.8355522931</ele>
        <time>2016-10-16T10:58:17Z</time>
      </trkpt>
      <trkpt lat="42.89571" lon="0.19863">
        <ele>2044.8355522931</ele>
        <time>2016-10-16T10:58:22Z</time>
      </trkpt>
      <trkpt lat="42.89568" lon="0.19864">
        <ele>2044.8355522931</ele>
        <time>2016-10-16T10:58:27Z</time>
      </trkpt>
      <trkpt lat="42.89564" lon="0.19862">
        <ele>2044.5239242091</ele>
        <time>2016-10-16T10:58:32Z</time>
      </trkpt>
      <trkpt lat="42.89562" lon="0.19861">
        <ele>2044.5239242091</ele>
        <time>2016-10-16T10:58:37Z</time>
      </trkpt>
      <trkpt lat="42.89558" lon="0.19857">
        <ele>2044.5239242091</ele>
        <time>2016-10-16T10:58:42Z</time>
      </trkpt>
      <trkpt lat="42.89555" lon="0.19857">
        <ele>2044.1009152827</ele>
        <time>2016-10-16T10:58:47Z</time>
      </trkpt>
      <trkpt lat="42.8955" lon="0.19855">
        <ele>2044.1009152827</ele>
        <time>2016-10-16T10:58:52Z</time>
      </trkpt>
      <trkpt lat="42.89547" lon="0.19852">
        <ele>2044.1009152827</ele>
        <time>2016-10-16T10:58:57Z</time>
      </trkpt>
      <trkpt lat="42.89544" lon="0.19849">
        <ele>2043.5811979016</ele>
        <time>2016-10-16T10:59:02Z</time>
      </trkpt>
      <trkpt lat="42.89542" lon="0.19848">
        <ele>2043.5811979016</ele>
        <time>2016-10-16T10:59:07Z</time>
      </trkpt>
      <trkpt lat="42.89537" lon="0.19849">
        <ele>2043.5811979016</ele>
        <time>2016-10-16T10:59:12Z</time>
      </trkpt>
      <trkpt lat="42.89536" lon="0.19847">
        <ele>2042.9785757688</ele>
        <time>2016-10-16T10:59:17Z</time>
      </trkpt>
      <trkpt lat="42.89535" lon="0.19845">
        <ele>2042.9785757688</ele>
        <time>2016-10-16T10:59:22Z</time>
      </trkpt>
      <trkpt lat="42.89532" lon="0.19841">
        <ele>2042.9785757688</ele>
        <time>2016-10-16T10:59:27Z</time>
      </trkpt>
      <trkpt lat="42.8953" lon="0.1984">
        <ele>2042.9785757688</ele>
        <time>2016-10-16T10:59:32Z</time>
      </trkpt>
      <trkpt lat="42.89529" lon="0.1984">
        <ele>2042.9785757688</ele>
        <time>2016-10-16T10:59:37Z</time>
      </trkpt>
      <trkpt lat="42.89528" lon="0.19838">
        <ele>2042.2915824143</ele>
        <time>2016-10-16T10:59:42Z</time>
      </trkpt>
      <trkpt lat="42.89527" lon="0.19835">
        <ele>2042.2915824143</ele>
        <time>2016-10-16T10:59:47Z</time>
      </trkpt>
      <trkpt lat="42.89525" lon="0.19836">
        <ele>2042.2915824143</ele>
        <time>2016-10-16T10:59:52Z</time>
      </trkpt>
      <trkpt lat="42.89524" lon="0.19836">
        <ele>2042.2915824143</ele>
        <time>2016-10-16T10:59:57Z</time>
      </trkpt>
      <trkpt lat="42.89522" lon="0.19837">
        <ele>2042.2915824143</ele>
        <time>2016-10-16T11:00:02Z</time>
      </trkpt>
      <trkpt lat="42.8952" lon="0.19835">
        <ele>2041.5622367648</ele>
        <time>2016-10-16T11:00:07Z</time>
      </trkpt>
      <trkpt lat="42.89519" lon="0.19835">
        <ele>2041.5622367648</ele>
        <time>2016-10-16T11:00:12Z</time>
      </trkpt>
      <trkpt lat="42.89517" lon="0.19834">
        <ele>2041.5622367648</ele>
        <time>2016-10-16T11:00:17Z</time>
      </trkpt>
      <trkpt lat="42.89516" lon="0.19831">
        <ele>2041.5622367648</ele>
        <time>2016-10-16T11:00:22Z</time>
      </trkpt>
      <trkpt lat="42.89514" lon="0.19829">
        <ele>2041.5622367648</ele>
        <time>2016-10-16T11:00:27Z</time>
      </trkpt>
      <trkpt lat="42.89512" lon="0.19825">
        <ele>2040.7718390623</ele>
        <time>2016-10-16T11:00:32Z</time>
      </trkpt>
      <trkpt lat="42.89506" lon="0.19826">
        <ele>2040.7718390623</ele>
        <time>2016-10-16T11:00:37Z</time>
      </trkpt>
      <trkpt lat="42.895" lon="0.19824">
        <ele>2039.9607595384</ele>
        <time>2016-10-16T11:00:42Z</time>
      </trkpt>
      <trkpt lat="42.89496" lon="0.19824">
        <ele>2039.9607595384</ele>
        <time>2016-10-16T11:00:47Z</time>
      </trkpt>
      <trkpt lat="42.89492" lon="0.19826">
        <ele>2039.1375071267</ele>
        <time>2016-10-16T11:00:52Z</time>
      </trkpt>
      <trkpt lat="42.89487" lon="0.19825">
        <ele>2039.1375071267</ele>
        <time>2016-10-16T11:00:57Z</time>
      </trkpt>
      <trkpt lat="42.89484" lon="0.19823">
        <ele>2039.1375071267</ele>
        <time>2016-10-16T11:01:02Z</time>
      </trkpt>
      <trkpt lat="42.8948" lon="0.19821">
        <ele>2038.3098573213</ele>
        <time>2016-10-16T11:01:07Z</time>
      </trkpt>
      <trkpt lat="42.89471" lon="0.19813">
        <ele>2037.4848743464</ele>
        <time>2016-10-16T11:01:12Z</time>
      </trkpt>
      <trkpt lat="42.8947" lon="0.19808">
        <ele>2037.4848743464</ele>
        <time>2016-10-16T11:01:17Z</time>
      </trkpt>
      <trkpt lat="42.89469" lon="0.19802">
        <ele>2037.4848743464</ele>
        <time>2016-10-16T11:01:22Z</time>
      </trkpt>
      <trkpt lat="42.89469" lon="0.19799">
        <ele>2036.6833460079</ele>
        <time>2016-10-16T11:01:27Z</time>
      </trkpt>
      <trkpt lat="42.89468" lon="0.19796">
        <ele>2036.6833460079</ele>
        <time>2016-10-16T11:01:32Z</time>
      </trkpt>
      <trkpt lat="42.89468" lon="0.19792">
        <ele>2036.6833460079</ele>
        <time>2016-10-16T11:01:37Z</time>
      </trkpt>
      <trkpt lat="42.89464" lon="0.19789">
        <ele>2035.9098875328</ele>
        <time>2016-10-16T11:01:42Z</time>
      </trkpt>
      <trkpt lat="42.89459" lon="0.19785">
        <ele>2035.9098875328</ele>
        <time>2016-10-16T11:01:47Z</time>
      </trkpt>
      <trkpt lat="42.89456" lon="0.19782">
        <ele>2035.1685215026</ele>
        <time>2016-10-16T11:01:52Z</time>
      </trkpt>
      <trkpt lat="42.89455" lon="0.19779">
        <ele>2035.1685215026</ele>
        <time>2016-10-16T11:01:57Z</time>
      </trkpt>
      <trkpt lat="42.89452" lon="0.19777">
        <ele>2035.1685215026</ele>
        <time>2016-10-16T11:02:02Z</time>
      </trkpt>
      <trkpt lat="42.89451" lon="0.19776">
        <ele>2035.1685215026</ele>
        <time>2016-10-16T11:02:07Z</time>
      </trkpt>
      <trkpt lat="42.89447" lon="0.19772">
        <ele>2034.4771162019</ele>
        <time>2016-10-16T11:02:12Z</time>
      </trkpt>
      <trkpt lat="42.89444" lon="0.19771">
        <ele>2034.4771162019</ele>
        <time>2016-10-16T11:02:17Z</time>
      </trkpt>
      <trkpt lat="42.89443" lon="0.19769">
        <ele>2034.4771162019</ele>
        <time>2016-10-16T11:02:22Z</time>
      </trkpt>
      <trkpt lat="42.89441" lon="0.19766">
        <ele>2034.4771162019</ele>
        <time>2016-10-16T11:02:27Z</time>
      </trkpt>
      <trkpt lat="42.89439" lon="0.19764">
        <ele>2033.8519035235</ele>
        <time>2016-10-16T11:02:32Z</time>
      </trkpt>
      <trkpt lat="42.89438" lon="0.19762">
        <ele>2033.8519035235</ele>
        <time>2016-10-16T11:02:37Z</time>
      </trkpt>
      <trkpt lat="42.89437" lon="0.19758">
        <ele>2033.8519035235</ele>
        <time>2016-10-16T11:02:42Z</time>
      </trkpt>
      <trkpt lat="42.89435" lon="0.19755">
        <ele>2033.8519035235</ele>
        <time>2016-10-16T11:02:47Z</time>
      </trkpt>
      <trkpt lat="42.89432" lon="0.19752">
        <ele>2033.3075511614</ele>
        <time>2016-10-16T11:02:52Z</time>
      </trkpt>
      <trkpt lat="42.89431" lon="0.19747">
        <ele>2033.3075511614</ele>
        <time>2016-10-16T11:02:57Z</time>
      </trkpt>
      <trkpt lat="42.8943" lon="0.19744">
        <ele>2033.3075511614</ele>
        <time>2016-10-16T11:03:02Z</time>
      </trkpt>
      <trkpt lat="42.89429" lon="0.19741">
        <ele>2033.3075511614</ele>
        <time>2016-10-16T11:03:07Z</time>
      </trkpt>
      <trkpt lat="42.89428" lon="0.19737">
        <ele>2032.8428240519</ele>
        <time>2016-10-16T11:03:12Z</time>
      </trkpt>
      <trkpt lat="42.89428" lon="0.19735">
        <ele>2032.8428240519</ele>
        <time>2016-10-16T11:03:17Z</time>
      </trkpt>
      <trkpt lat="42.89425" lon="0.19734">
        <ele>2032.8428240519</ele>
        <time>2016-10-16T11:03:22Z</time>
      </trkpt>
      <trkpt lat="42.89422" lon="0.19731">
        <ele>2032.8428240519</ele>
        <time>2016-10-16T11:03:27Z</time>
      </trkpt>
      <trkpt lat="42.89417" lon="0.1973">
        <ele>2032.4561672282</ele>
        <time>2016-10-16T11:03:32Z</time>
      </trkpt>
      <trkpt lat="42.89412" lon="0.1973">
        <ele>2032.4561672282</ele>
        <time>2016-10-16T11:03:37Z</time>
      </trkpt>
      <trkpt lat="42.89408" lon="0.19728">
        <ele>2032.4561672282</ele>
        <time>2016-10-16T11:03:42Z</time>
      </trkpt>
      <trkpt lat="42.89406" lon="0.19724">
        <ele>2032.1457349626</ele>
        <time>2016-10-16T11:03:47Z</time>
      </trkpt>
      <trkpt lat="42.89408" lon="0.19721">
        <ele>2032.1457349626</ele>
        <time>2016-10-16T11:03:52Z</time>
      </trkpt>
      <trkpt lat="42.89407" lon="0.19718">
        <ele>2032.1457349626</ele>
        <time>2016-10-16T11:03:57Z</time>
      </trkpt>
      <trkpt lat="42.89406" lon="0.19717">
        <ele>2032.1457349626</ele>
        <time>2016-10-16T11:04:02Z</time>
      </trkpt>
      <trkpt lat="42.89404" lon="0.19716">
        <ele>2031.9094197093</ele>
        <time>2016-10-16T11:04:07Z</time>
      </trkpt>
      <trkpt lat="42.89401" lon="0.19713">
        <ele>2031.9094197093</ele>
        <time>2016-10-16T11:04:12Z</time>
      </trkpt>
      <trkpt lat="42.894" lon="0.19711">
        <ele>2031.9094197093</ele>
        <time>2016-10-16T11:04:17Z</time>
      </trkpt>
      <trkpt lat="42.89399" lon="0.1971">
        <ele>2031.9094197093</ele>
        <time>2016-10-16T11:04:22Z</time>
      </trkpt>
      <trkpt lat="42.89397" lon="0.19711">
        <ele>2031.9094197093</ele>
        <time>2016-10-16T11:04:27Z</time>
      </trkpt>
      <trkpt lat="42.89395" lon="0.19713">
        <ele>2031.7592918135</ele>
        <time>2016-10-16T11:04:32Z</time>
      </trkpt>
      <trkpt lat="42.89395" lon="0.19715">
        <ele>2031.7592918135</ele>
        <time>2016-10-16T11:04:37Z</time>
      </trkpt>
      <trkpt lat="42.89394" lon="0.19715">
        <ele>2031.7592918135</ele>
        <time>2016-10-16T11:04:42Z</time>
      </trkpt>
      <trkpt lat="42.89388" lon="0.1972">
        <ele>2031.7592918135</ele>
        <time>2016-10-16T11:04:47Z</time>
      </trkpt>
      <trkpt lat="42.89385" lon="0.19724">
        <ele>2031.6917063179</ele>
        <time>2016-10-16T11:04:52Z</time>
      </trkpt>
      <trkpt lat="42.89382" lon="0.19727">
        <ele>2031.6917063179</ele>
        <time>2016-10-16T11:04:57Z</time>
      </trkpt>
      <trkpt lat="42.89382" lon="0.19728">
        <ele>2031.6917063179</ele>
        <time>2016-10-16T11:05:02Z</time>
      </trkpt>
      <trkpt lat="42.89378" lon="0.19729">
        <ele>2031.6917063179</ele>
        <time>2016-10-16T11:05:07Z</time>
      </trkpt>
      <trkpt lat="42.89373" lon="0.19727">
        <ele>2031.7172951545</ele>
        <time>2016-10-16T11:05:12Z</time>
      </trkpt>
      <trkpt lat="42.89372" lon="0.19728">
        <ele>2031.7172951545</ele>
        <time>2016-10-16T11:05:17Z</time>
      </trkpt>
      <trkpt lat="42.89372" lon="0.19728">
        <ele>2031.7172951545</ele>
        <time>2016-10-16T11:05:22Z</time>
      </trkpt>
      <trkpt lat="42.89371" lon="0.19728">
        <ele>2031.7172951545</ele>
        <time>2016-10-16T11:05:27Z</time>
      </trkpt>
      <trkpt lat="42.89368" lon="0.19728">
        <ele>2031.7172951545</ele>
        <time>2016-10-16T11:05:32Z</time>
      </trkpt>
      <trkpt lat="42.89364" lon="0.19731">
        <ele>2031.9031281517</ele>
        <time>2016-10-16T11:05:37Z</time>
      </trkpt>
      <trkpt lat="42.89362" lon="0.19732">
        <ele>2031.9031281517</ele>
        <time>2016-10-16T11:05:42Z</time>
      </trkpt>
      <trkpt lat="42.8936" lon="0.19731">
        <ele>2031.9031281517</ele>
        <time>2016-10-16T11:05:47Z</time>
      </trkpt>
      <trkpt lat="42.89359" lon="0.19735">
        <ele>2031.9031281517</ele>
        <time>2016-10-16T11:05:52Z</time>
      </trkpt>
      <trkpt lat="42.89357" lon="0.19736">
        <ele>2031.9031281517</ele>
        <time>2016-10-16T11:05:57Z</time>
      </trkpt>
      <trkpt lat="42.89356" lon="0.19738">
        <ele>2032.2675084466</ele>
        <time>2016-10-16T11:06:02Z</time>
      </trkpt>
      <trkpt lat="42.89356" lon="0.19739">
        <ele>2032.2675084466</ele>
        <time>2016-10-16T11:06:07Z</time>
      </trkpt>
      <trkpt lat="42.89356" lon="0.19739">
        <ele>2032.2675084466</ele>
        <time>2016-10-16T11:06:12Z</time>
      </trkpt>
      <trkpt lat="42.89355" lon="0.19738">
        <ele>2032.2675084466</ele>
        <time>2016-10-16T11:06:17Z</time>
      </trkpt>
      <trkpt lat="42.89351" lon="0.19739">
        <ele>2032.2675084466</ele>
        <time>2016-10-16T11:06:22Z</time>
      </trkpt>
      <trkpt lat="42.8935" lon="0.19739">
        <ele>2032.2675084466</ele>
        <time>2016-10-16T11:06:27Z</time>
      </trkpt>
      <trkpt lat="42.89349" lon="0.1974">
        <ele>2032.2675084466</ele>
        <time>2016-10-16T11:06:32Z</time>
      </trkpt>
      <trkpt lat="42.89344" lon="0.19741">
        <ele>2032.9276232522</ele>
        <time>2016-10-16T11:06:37Z</time>
      </trkpt>
      <trkpt lat="42.8934" lon="0.19741">
        <ele>2032.9276232522</ele>
        <time>2016-10-16T11:06:42Z</time>
      </trkpt>
      <trkpt lat="42.89335" lon="0.19743">
        <ele>2033.7172719192</ele>
        <time>2016-10-16T11:06:47Z</time>
      </trkpt>
      <trkpt lat="42.89332" lon="0.19743">
        <ele>2033.7172719192</ele>
        <time>2016-10-16T11:06:52Z</time>
      </trkpt>
      <trkpt lat="42.8933" lon="0.19741">
        <ele>2033.7172719192</ele>
        <time>2016-10-16T11:06:57Z</time>
      </trkpt>
      <trkpt lat="42.89325" lon="0.19738">
        <ele>2034.698138815</ele>
        <time>2016-10-16T11:07:02Z</time>
      </trkpt>
      <trkpt lat="42.89321" lon="0.1974">
        <ele>2034.698138815</ele>
        <time>2016-10-16T11:07:07Z</time>
      </trkpt>
      <trkpt lat="42.8932" lon="0.19741">
        <ele>2034.698138815</ele>
        <time>2016-10-16T11:07:12Z</time>
      </trkpt>
      <trkpt lat="42.89319" lon="0.19744">
        <ele>2034.698138815</ele>
        <time>2016-10-16T11:07:17Z</time>
      </trkpt>
      <trkpt lat="42.8932" lon="0.19746">
        <ele>2034.698138815</ele>
        <time>2016-10-16T11:07:22Z</time>
      </trkpt>
      <trkpt lat="42.89321" lon="0.19748">
        <ele>2035.9267257157</ele>
        <time>2016-10-16T11:07:27Z</time>
      </trkpt>
      <trkpt lat="42.89321" lon="0.19749">
        <ele>2035.9267257157</ele>
        <time>2016-10-16T11:07:32Z</time>
      </trkpt>
      <trkpt lat="42.8932" lon="0.19748">
        <ele>2035.9267257157</ele>
        <time>2016-10-16T11:07:37Z</time>
      </trkpt>
      <trkpt lat="42.89318" lon="0.19748">
        <ele>2035.9267257157</ele>
        <time>2016-10-16T11:07:42Z</time>
      </trkpt>
      <trkpt lat="42.89317" lon="0.19748">
        <ele>2035.9267257157</ele>
        <time>2016-10-16T11:07:47Z</time>
      </trkpt>
      <trkpt lat="42.89312" lon="0.19748">
        <ele>2037.3248875237</ele>
        <time>2016-10-16T11:07:52Z</time>
      </trkpt>
      <trkpt lat="42.89311" lon="0.19748">
        <ele>2037.3248875237</ele>
        <time>2016-10-16T11:07:57Z</time>
      </trkpt>
      <trkpt lat="42.89312" lon="0.19748">
        <ele>2037.3248875237</ele>
        <time>2016-10-16T11:08:02Z</time>
      </trkpt>
      <trkpt lat="42.89309" lon="0.19747">
        <ele>2037.3248875237</ele>
        <time>2016-10-16T11:08:07Z</time>
      </trkpt>
      <trkpt lat="42.89309" lon="0.19746">
        <ele>2037.3248875237</ele>
        <time>2016-10-16T11:08:12Z</time>
      </trkpt>
      <trkpt lat="42.89307" lon="0.19743">
        <ele>2037.3248875237</ele>
        <time>2016-10-16T11:08:17Z</time>
      </trkpt>
      <trkpt lat="42.89306" lon="0.19741">
        <ele>2038.9781794715</ele>
        <time>2016-10-16T11:08:22Z</time>
      </trkpt>
      <trkpt lat="42.89304" lon="0.19738">
        <ele>2038.9781794715</ele>
        <time>2016-10-16T11:08:27Z</time>
      </trkpt>
      <trkpt lat="42.89302" lon="0.19736">
        <ele>2038.9781794715</ele>
        <time>2016-10-16T11:08:32Z</time>
      </trkpt>
      <trkpt lat="42.89302" lon="0.19737">
        <ele>2038.9781794715</ele>
        <time>2016-10-16T11:08:37Z</time>
      </trkpt>
      <trkpt lat="42.89298" lon="0.19734">
        <ele>2040.763329265</ele>
        <time>2016-10-16T11:08:42Z</time>
      </trkpt>
      <trkpt lat="42.89296" lon="0.19733">
        <ele>2040.763329265</ele>
        <time>2016-10-16T11:08:47Z</time>
      </trkpt>
      <trkpt lat="42.89294" lon="0.19734">
        <ele>2040.763329265</ele>
        <time>2016-10-16T11:08:52Z</time>
      </trkpt>
      <trkpt lat="42.89291" lon="0.19736">
        <ele>2040.763329265</ele>
        <time>2016-10-16T11:08:57Z</time>
      </trkpt>
      <trkpt lat="42.89288" lon="0.19736">
        <ele>2042.6377504317</ele>
        <time>2016-10-16T11:09:02Z</time>
      </trkpt>
      <trkpt lat="42.89287" lon="0.19739">
        <ele>2042.6377504317</ele>
        <time>2016-10-16T11:09:07Z</time>
      </trkpt>
      <trkpt lat="42.89285" lon="0.19743">
        <ele>2042.6377504317</ele>
        <time>2016-10-16T11:09:12Z</time>
      </trkpt>
      <trkpt lat="42.89285" lon="0.19743">
        <ele>2042.6377504317</ele>
        <time>2016-10-16T11:09:17Z</time>
      </trkpt>
      <trkpt lat="42.89287" lon="0.19751">
        <ele>2044.5328729244</ele>
        <time>2016-10-16T11:09:22Z</time>
      </trkpt>
      <trkpt lat="42.89288" lon="0.19756">
        <ele>2044.5328729244</ele>
        <time>2016-10-16T11:09:27Z</time>
      </trkpt>
      <trkpt lat="42.89283" lon="0.19753">
        <ele>2044.5328729244</ele>
        <time>2016-10-16T11:09:32Z</time>
      </trkpt>
      <trkpt lat="42.8928" lon="0.19753">
        <ele>2046.4139044597</ele>
        <time>2016-10-16T11:09:37Z</time>
      </trkpt>
      <trkpt lat="42.89275" lon="0.19757">
        <ele>2046.4139044597</ele>
        <time>2016-10-16T11:09:42Z</time>
      </trkpt>
      <trkpt lat="42.89271" lon="0.19762">
        <ele>2048.2198172521</ele>
        <time>2016-10-16T11:09:47Z</time>
      </trkpt>
      <trkpt lat="42.89269" lon="0.19767">
        <ele>2048.2198172521</ele>
        <time>2016-10-16T11:09:52Z</time>
      </trkpt>
      <trkpt lat="42.89267" lon="0.19774">
        <ele>2049.9663379881</ele>
        <time>2016-10-16T11:09:57Z</time>
      </trkpt>
      <trkpt lat="42.89264" lon="0.19778">
        <ele>2049.9663379881</ele>
        <time>2016-10-16T11:10:02Z</time>
      </trkpt>
      <trkpt lat="42.89267" lon="0.19779">
        <ele>2049.9663379881</ele>
        <time>2016-10-16T11:10:07Z</time>
      </trkpt>
      <trkpt lat="42.89266" lon="0.19782">
        <ele>2049.9663379881</ele>
        <time>2016-10-16T11:10:12Z</time>
      </trkpt>
      <trkpt lat="42.89264" lon="0.19783">
        <ele>2051.7114555523</ele>
        <time>2016-10-16T11:10:17Z</time>
      </trkpt>
      <trkpt lat="42.89259" lon="0.19784">
        <ele>2051.7114555523</ele>
        <time>2016-10-16T11:10:22Z</time>
      </trkpt>
      <trkpt lat="42.89255" lon="0.19788">
        <ele>2053.3648202413</ele>
        <time>2016-10-16T11:10:27Z</time>
      </trkpt>
      <trkpt lat="42.89252" lon="0.19791">
        <ele>2053.3648202413</ele>
        <time>2016-10-16T11:10:32Z</time>
      </trkpt>
      <trkpt lat="42.89249" lon="0.19793">
        <ele>2053.3648202413</ele>
        <time>2016-10-16T11:10:37Z</time>
      </trkpt>
      <trkpt lat="42.89248" lon="0.19795">
        <ele>2053.3648202413</ele>
        <time>2016-10-16T11:10:42Z</time>
      </trkpt>
      <trkpt lat="42.89248" lon="0.19799">
        <ele>2055.0015372015</ele>
        <time>2016-10-16T11:10:47Z</time>
      </trkpt>
      <trkpt lat="42.89245" lon="0.19802">
        <ele>2055.0015372015</ele>
        <time>2016-10-16T11:10:52Z</time>
      </trkpt>
      <trkpt lat="42.89243" lon="0.19808">
        <ele>2055.0015372015</ele>
        <time>2016-10-16T11:10:57Z</time>
      </trkpt>
      <trkpt lat="42.8924" lon="0.19814">
        <ele>2056.6048209986</ele>
        <time>2016-10-16T11:11:02Z</time>
      </trkpt>
      <trkpt lat="42.89239" lon="0.19818">
        <ele>2056.6048209986</ele>
        <time>2016-10-16T11:11:07Z</time>
      </trkpt>
      <trkpt lat="42.89237" lon="0.19821">
        <ele>2056.6048209986</ele>
        <time>2016-10-16T11:11:12Z</time>
      </trkpt>
      <trkpt lat="42.89233" lon="0.19825">
        <ele>2058.1736781005</ele>
        <time>2016-10-16T11:11:17Z</time>
      </trkpt>
      <trkpt lat="42.89231" lon="0.1983">
        <ele>2058.1736781005</ele>
        <time>2016-10-16T11:11:22Z</time>
      </trkpt>
      <trkpt lat="42.8923" lon="0.19834">
        <ele>2058.1736781005</ele>
        <time>2016-10-16T11:11:27Z</time>
      </trkpt>
      <trkpt lat="42.89229" lon="0.19836">
        <ele>2059.7073447764</ele>
        <time>2016-10-16T11:11:32Z</time>
      </trkpt>
      <trkpt lat="42.89228" lon="0.19837">
        <ele>2059.7073447764</ele>
        <time>2016-10-16T11:11:37Z</time>
      </trkpt>
      <trkpt lat="42.89229" lon="0.1984">
        <ele>2059.7073447764</ele>
        <time>2016-10-16T11:11:42Z</time>
      </trkpt>
      <trkpt lat="42.89231" lon="0.19844">
        <ele>2059.7073447764</ele>
        <time>2016-10-16T11:11:47Z</time>
      </trkpt>
      <trkpt lat="42.89232" lon="0.19847">
        <ele>2061.2052777195</ele>
        <time>2016-10-16T11:11:52Z</time>
      </trkpt>
      <trkpt lat="42.89235" lon="0.19851">
        <ele>2061.2052777195</ele>
        <time>2016-10-16T11:11:57Z</time>
      </trkpt>
      <trkpt lat="42.89238" lon="0.19854">
        <ele>2061.2052777195</ele>
        <time>2016-10-16T11:12:02Z</time>
      </trkpt>
      <trkpt lat="42.89239" lon="0.1986">
        <ele>2062.6239104101</ele>
        <time>2016-10-16T11:12:07Z</time>
      </trkpt>
      <trkpt lat="42.8924" lon="0.19863">
        <ele>2062.6239104101</ele>
        <time>2016-10-16T11:12:12Z</time>
      </trkpt>
      <trkpt lat="42.89243" lon="0.19866">
        <ele>2062.6239104101</ele>
        <time>2016-10-16T11:12:17Z</time>
      </trkpt>
      <trkpt lat="42.8925" lon="0.19869">
        <ele>2063.9519947576</ele>
        <time>2016-10-16T11:12:22Z</time>
      </trkpt>
      <trkpt lat="42.8925" lon="0.1987">
        <ele>2063.9519947576</ele>
        <time>2016-10-16T11:12:27Z</time>
      </trkpt>
      <trkpt lat="42.89251" lon="0.19874">
        <ele>2063.9519947576</ele>
        <time>2016-10-16T11:12:32Z</time>
      </trkpt>
      <trkpt lat="42.89254" lon="0.19882">
        <ele>2065.179438651</ele>
        <time>2016-10-16T11:12:37Z</time>
      </trkpt>
      <trkpt lat="42.89259" lon="0.19885">
        <ele>2065.179438651</ele>
        <time>2016-10-16T11:12:42Z</time>
      </trkpt>
      <trkpt lat="42.89265" lon="0.19889">
        <ele>2066.297250551</ele>
        <time>2016-10-16T11:12:47Z</time>
      </trkpt>
      <trkpt lat="42.89267" lon="0.19894">
        <ele>2066.297250551</ele>
        <time>2016-10-16T11:12:52Z</time>
      </trkpt>
      <trkpt lat="42.89267" lon="0.19899">
        <ele>2066.297250551</ele>
        <time>2016-10-16T11:12:57Z</time>
      </trkpt>
      <trkpt lat="42.89268" lon="0.19906">
        <ele>2067.3118950355</ele>
        <time>2016-10-16T11:13:02Z</time>
      </trkpt>
      <trkpt lat="42.89271" lon="0.19912">
        <ele>2067.3118950355</ele>
        <time>2016-10-16T11:13:07Z</time>
      </trkpt>
      <trkpt lat="42.89274" lon="0.19917">
        <ele>2068.2297271104</ele>
        <time>2016-10-16T11:13:12Z</time>
      </trkpt>
      <trkpt lat="42.89273" lon="0.19921">
        <ele>2068.2297271104</ele>
        <time>2016-10-16T11:13:17Z</time>
      </trkpt>
      <trkpt lat="42.89272" lon="0.19922">
        <ele>2068.2297271104</ele>
        <time>2016-10-16T11:13:22Z</time>
      </trkpt>
      <trkpt lat="42.89272" lon="0.19924">
        <ele>2068.2297271104</ele>
        <time>2016-10-16T11:13:27Z</time>
      </trkpt>
      <trkpt lat="42.89272" lon="0.19928">
        <ele>2068.2297271104</ele>
        <time>2016-10-16T11:13:32Z</time>
      </trkpt>
      <trkpt lat="42.89273" lon="0.19932">
        <ele>2069.1002138108</ele>
        <time>2016-10-16T11:13:37Z</time>
      </trkpt>
      <trkpt lat="42.89274" lon="0.19934">
        <ele>2069.1002138108</ele>
        <time>2016-10-16T11:13:42Z</time>
      </trkpt>
      <trkpt lat="42.89274" lon="0.19935">
        <ele>2069.1002138108</ele>
        <time>2016-10-16T11:13:47Z</time>
      </trkpt>
      <trkpt lat="42.89275" lon="0.19936">
        <ele>2069.1002138108</ele>
        <time>2016-10-16T11:13:52Z</time>
      </trkpt>
      <trkpt lat="42.89276" lon="0.19937">
        <ele>2069.1002138108</ele>
        <time>2016-10-16T11:13:57Z</time>
      </trkpt>
      <trkpt lat="42.89275" lon="0.19939">
        <ele>2069.1002138108</ele>
        <time>2016-10-16T11:14:02Z</time>
      </trkpt>
      <trkpt lat="42.89271" lon="0.19943">
        <ele>2069.9838035751</ele>
        <time>2016-10-16T11:14:07Z</time>
      </trkpt>
      <trkpt lat="42.8927" lon="0.19948">
        <ele>2069.9838035751</ele>
        <time>2016-10-16T11:14:12Z</time>
      </trkpt>
      <trkpt lat="42.89267" lon="0.19952">
        <ele>2069.9838035751</ele>
        <time>2016-10-16T11:14:17Z</time>
      </trkpt>
      <trkpt lat="42.89269" lon="0.19955">
        <ele>2070.8500690693</ele>
        <time>2016-10-16T11:14:22Z</time>
      </trkpt>
      <trkpt lat="42.89275" lon="0.19955">
        <ele>2070.8500690693</ele>
        <time>2016-10-16T11:14:27Z</time>
      </trkpt>
      <trkpt lat="42.89276" lon="0.19953">
        <ele>2070.8500690693</ele>
        <time>2016-10-16T11:14:32Z</time>
      </trkpt>
      <trkpt lat="42.89279" lon="0.19953">
        <ele>2071.6709315585</ele>
        <time>2016-10-16T11:14:37Z</time>
      </trkpt>
      <trkpt lat="42.89279" lon="0.19954">
        <ele>2071.6709315585</ele>
        <time>2016-10-16T11:14:42Z</time>
      </trkpt>
      <trkpt lat="42.89281" lon="0.19956">
        <ele>2071.6709315585</ele>
        <time>2016-10-16T11:14:47Z</time>
      </trkpt>
      <trkpt lat="42.89285" lon="0.19959">
        <ele>2071.6709315585</ele>
        <time>2016-10-16T11:14:52Z</time>
      </trkpt>
      <trkpt lat="42.89286" lon="0.19962">
        <ele>2072.4782081504</ele>
        <time>2016-10-16T11:14:57Z</time>
      </trkpt>
      <trkpt lat="42.89286" lon="0.19966">
        <ele>2072.4782081504</ele>
        <time>2016-10-16T11:15:02Z</time>
      </trkpt>
      <trkpt lat="42.89286" lon="0.19971">
        <ele>2072.4782081504</ele>
        <time>2016-10-16T11:15:07Z</time>
      </trkpt>
      <trkpt lat="42.89288" lon="0.19975">
        <ele>2073.2438301054</ele>
        <time>2016-10-16T11:15:12Z</time>
      </trkpt>
      <trkpt lat="42.89289" lon="0.19978">
        <ele>2073.2438301054</ele>
        <time>2016-10-16T11:15:17Z</time>
      </trkpt>
      <trkpt lat="42.8929" lon="0.19983">
        <ele>2073.2438301054</ele>
        <time>2016-10-16T11:15:22Z</time>
      </trkpt>
      <trkpt lat="42.8929" lon="0.19987">
        <ele>2073.2438301054</ele>
        <time>2016-10-16T11:15:27Z</time>
      </trkpt>
      <trkpt lat="42.8929" lon="0.19987">
        <ele>2073.985194844</ele>
        <time>2016-10-16T11:15:32Z</time>
      </trkpt>
      <trkpt lat="42.89289" lon="0.19989">
        <ele>2073.985194844</ele>
        <time>2016-10-16T11:15:37Z</time>
      </trkpt>
      <trkpt lat="42.89289" lon="0.19994">
        <ele>2073.985194844</ele>
        <time>2016-10-16T11:15:42Z</time>
      </trkpt>
      <trkpt lat="42.89289" lon="0.19996">
        <ele>2073.985194844</ele>
        <time>2016-10-16T11:15:47Z</time>
      </trkpt>
      <trkpt lat="42.89288" lon="0.19995">
        <ele>2073.985194844</ele>
        <time>2016-10-16T11:15:52Z</time>
      </trkpt>
      <trkpt lat="42.89292" lon="0.19994">
        <ele>2074.74736233</ele>
        <time>2016-10-16T11:15:57Z</time>
      </trkpt>
      <trkpt lat="42.89292" lon="0.19993">
        <ele>2074.74736233</ele>
        <time>2016-10-16T11:16:02Z</time>
      </trkpt>
      <trkpt lat="42.8929" lon="0.19997">
        <ele>2074.74736233</ele>
        <time>2016-10-16T11:16:07Z</time>
      </trkpt>
      <trkpt lat="42.89291" lon="0.19997">
        <ele>2074.74736233</ele>
        <time>2016-10-16T11:16:12Z</time>
      </trkpt>
      <trkpt lat="42.8929" lon="0.19999">
        <ele>2074.74736233</ele>
        <time>2016-10-16T11:16:17Z</time>
      </trkpt>
      <trkpt lat="42.8929" lon="0.2">
        <ele>2074.74736233</ele>
        <time>2016-10-16T11:16:22Z</time>
      </trkpt>
      <trkpt lat="42.89286" lon="0.20002">
        <ele>2075.6585375486</ele>
        <time>2016-10-16T11:16:27Z</time>
      </trkpt>
      <trkpt lat="42.89283" lon="0.20006">
        <ele>2075.6585375486</ele>
        <time>2016-10-16T11:16:32Z</time>
      </trkpt>
      <trkpt lat="42.89282" lon="0.20007">
        <ele>2075.6585375486</ele>
        <time>2016-10-16T11:16:37Z</time>
      </trkpt>
      <trkpt lat="42.89281" lon="0.20008">
        <ele>2075.6585375486</ele>
        <time>2016-10-16T11:16:42Z</time>
      </trkpt>
      <trkpt lat="42.89279" lon="0.20008">
        <ele>2076.606555324</ele>
        <time>2016-10-16T11:16:47Z</time>
      </trkpt>
      <trkpt lat="42.89276" lon="0.20008">
        <ele>2076.606555324</ele>
        <time>2016-10-16T11:16:52Z</time>
      </trkpt>
      <trkpt lat="42.89275" lon="0.20013">
        <ele>2076.606555324</ele>
        <time>2016-10-16T11:16:57Z</time>
      </trkpt>
      <trkpt lat="42.89275" lon="0.20014">
        <ele>2076.606555324</ele>
        <time>2016-10-16T11:17:02Z</time>
      </trkpt>
      <trkpt lat="42.89277" lon="0.20016">
        <ele>2077.5738943217</ele>
        <time>2016-10-16T11:17:07Z</time>
      </trkpt>
      <trkpt lat="42.89278" lon="0.20016">
        <ele>2077.5738943217</ele>
        <time>2016-10-16T11:17:12Z</time>
      </trkpt>
      <trkpt lat="42.89277" lon="0.20017">
        <ele>2077.5738943217</ele>
        <time>2016-10-16T11:17:17Z</time>
      </trkpt>
      <trkpt lat="42.89276" lon="0.20017">
        <ele>2077.5738943217</ele>
        <time>2016-10-16T11:17:22Z</time>
      </trkpt>
      <trkpt lat="42.89277" lon="0.2002">
        <ele>2077.5738943217</ele>
        <time>2016-10-16T11:17:27Z</time>
      </trkpt>
      <trkpt lat="42.89277" lon="0.20021">
        <ele>2077.5738943217</ele>
        <time>2016-10-16T11:17:32Z</time>
      </trkpt>
      <trkpt lat="42.89277" lon="0.2002">
        <ele>2077.5738943217</ele>
        <time>2016-10-16T11:17:37Z</time>
      </trkpt>
      <trkpt lat="42.89274" lon="0.20023">
        <ele>2078.6307717126</ele>
        <time>2016-10-16T11:17:42Z</time>
      </trkpt>
      <trkpt lat="42.89273" lon="0.20023">
        <ele>2078.6307717126</ele>
        <time>2016-10-16T11:17:47Z</time>
      </trkpt>
      <trkpt lat="42.89273" lon="0.20024">
        <ele>2078.6307717126</ele>
        <time>2016-10-16T11:17:52Z</time>
      </trkpt>
      <trkpt lat="42.89275" lon="0.20026">
        <ele>2078.6307717126</ele>
        <time>2016-10-16T11:17:57Z</time>
      </trkpt>
      <trkpt lat="42.89271" lon="0.20026">
        <ele>2078.6307717126</ele>
        <time>2016-10-16T11:18:02Z</time>
      </trkpt>
      <trkpt lat="42.8927" lon="0.20025">
        <ele>2078.6307717126</ele>
        <time>2016-10-16T11:18:07Z</time>
      </trkpt>
      <trkpt lat="42.8927" lon="0.20026">
        <ele>2078.6307717126</ele>
        <time>2016-10-16T11:18:12Z</time>
      </trkpt>
      <trkpt lat="42.89269" lon="0.20027">
        <ele>2079.8132107213</ele>
        <time>2016-10-16T11:18:17Z</time>
      </trkpt>
      <trkpt lat="42.8927" lon="0.20027">
        <ele>2079.8132107213</ele>
        <time>2016-10-16T11:18:22Z</time>
      </trkpt>
      <trkpt lat="42.89268" lon="0.20029">
        <ele>2079.8132107213</ele>
        <time>2016-10-16T11:18:27Z</time>
      </trkpt>
      <trkpt lat="42.89266" lon="0.20029">
        <ele>2079.8132107213</ele>
        <time>2016-10-16T11:18:32Z</time>
      </trkpt>
      <trkpt lat="42.89266" lon="0.20029">
        <ele>2079.8132107213</ele>
        <time>2016-10-16T11:18:37Z</time>
      </trkpt>
      <trkpt lat="42.89265" lon="0.2003">
        <ele>2079.8132107213</ele>
        <time>2016-10-16T11:18:42Z</time>
      </trkpt>
      <trkpt lat="42.89264" lon="0.20032">
        <ele>2079.8132107213</ele>
        <time>2016-10-16T11:18:47Z</time>
      </trkpt>
      <trkpt lat="42.89264" lon="0.20032">
        <ele>2079.8132107213</ele>
        <time>2016-10-16T11:18:52Z</time>
      </trkpt>
      <trkpt lat="42.89263" lon="0.20033">
        <ele>2079.8132107213</ele>
        <time>2016-10-16T11:18:57Z</time>
      </trkpt>
      <trkpt lat="42.89262" lon="0.20036">
        <ele>2081.1975064818</ele>
        <time>2016-10-16T11:19:02Z</time>
      </trkpt>
      <trkpt lat="42.89262" lon="0.20041">
        <ele>2081.1975064818</ele>
        <time>2016-10-16T11:19:07Z</time>
      </trkpt>
      <trkpt lat="42.89262" lon="0.20045">
        <ele>2081.1975064818</ele>
        <time>2016-10-16T11:19:12Z</time>
      </trkpt>
      <trkpt lat="42.89261" lon="0.20047">
        <ele>2081.1975064818</ele>
        <time>2016-10-16T11:19:17Z</time>
      </trkpt>
      <trkpt lat="42.89261" lon="0.20049">
        <ele>2082.5655980682</ele>
        <time>2016-10-16T11:19:22Z</time>
      </trkpt>
      <trkpt lat="42.89262" lon="0.2005">
        <ele>2082.5655980682</ele>
        <time>2016-10-16T11:19:27Z</time>
      </trkpt>
      <trkpt lat="42.89262" lon="0.20053">
        <ele>2082.5655980682</ele>
        <time>2016-10-16T11:19:32Z</time>
      </trkpt>
      <trkpt lat="42.8926" lon="0.20058">
        <ele>2082.5655980682</ele>
        <time>2016-10-16T11:19:37Z</time>
      </trkpt>
      <trkpt lat="42.89261" lon="0.20061">
        <ele>2083.9749266879</ele>
        <time>2016-10-16T11:19:42Z</time>
      </trkpt>
      <trkpt lat="42.89261" lon="0.20064">
        <ele>2083.9749266879</ele>
        <time>2016-10-16T11:19:47Z</time>
      </trkpt>
      <trkpt lat="42.89259" lon="0.20064">
        <ele>2083.9749266879</ele>
        <time>2016-10-16T11:19:52Z</time>
      </trkpt>
      <trkpt lat="42.89258" lon="0.20063">
        <ele>2083.9749266879</ele>
        <time>2016-10-16T11:19:57Z</time>
      </trkpt>
      <trkpt lat="42.89257" lon="0.20067">
        <ele>2083.9749266879</ele>
        <time>2016-10-16T11:20:02Z</time>
      </trkpt>
      <trkpt lat="42.89261" lon="0.20069">
        <ele>2085.593926747</ele>
        <time>2016-10-16T11:20:07Z</time>
      </trkpt>
      <trkpt lat="42.89262" lon="0.20069">
        <ele>2085.593926747</ele>
        <time>2016-10-16T11:20:12Z</time>
      </trkpt>
      <trkpt lat="42.8926" lon="0.20069">
        <ele>2085.593926747</ele>
        <time>2016-10-16T11:20:17Z</time>
      </trkpt>
      <trkpt lat="42.89255" lon="0.20069">
        <ele>2087.3907686676</ele>
        <time>2016-10-16T11:20:22Z</time>
      </trkpt>
      <trkpt lat="42.89252" lon="0.2007">
        <ele>2087.3907686676</ele>
        <time>2016-10-16T11:20:27Z</time>
      </trkpt>
      <trkpt lat="42.89251" lon="0.2007">
        <ele>2087.3907686676</ele>
        <time>2016-10-16T11:20:32Z</time>
      </trkpt>
      <trkpt lat="42.8925" lon="0.20071">
        <ele>2087.3907686676</ele>
        <time>2016-10-16T11:20:37Z</time>
      </trkpt>
      <trkpt lat="42.8925" lon="0.20071">
        <ele>2087.3907686676</ele>
        <time>2016-10-16T11:20:42Z</time>
      </trkpt>
      <trkpt lat="42.8925" lon="0.20071">
        <ele>2087.3907686676</ele>
        <time>2016-10-16T11:20:47Z</time>
      </trkpt>
      <trkpt lat="42.8925" lon="0.20071">
        <ele>2087.3907686676</ele>
        <time>2016-10-16T11:20:52Z</time>
      </trkpt>
      <trkpt lat="42.8925" lon="0.20071">
        <ele>2087.3907686676</ele>
        <time>2016-10-16T11:20:57Z</time>
      </trkpt>
      <trkpt lat="42.8925" lon="0.20063">
        <ele>2089.4652072046</ele>
        <time>2016-10-16T11:21:02Z</time>
      </trkpt>
      <trkpt lat="42.89254" lon="0.20061">
        <ele>2089.4652072046</ele>
        <time>2016-10-16T11:21:07Z</time>
      </trkpt>
      <trkpt lat="42.89255" lon="0.20062">
        <ele>2089.4652072046</ele>
        <time>2016-10-16T11:21:12Z</time>
      </trkpt>
      <trkpt lat="42.89255" lon="0.20063">
        <ele>2089.4652072046</ele>
        <time>2016-10-16T11:21:17Z</time>
      </trkpt>
      <trkpt lat="42.89255" lon="0.20063">
        <ele>2089.4652072046</ele>
        <time>2016-10-16T11:21:22Z</time>
      </trkpt>
      <trkpt lat="42.89254" lon="0.20068">
        <ele>2091.5630727053</ele>
        <time>2016-10-16T11:21:27Z</time>
      </trkpt>
      <trkpt lat="42.89254" lon="0.20068">
        <ele>2091.5630727053</ele>
        <time>2016-10-16T11:21:32Z</time>
      </trkpt>
      <trkpt lat="42.89254" lon="0.20069">
        <ele>2091.5630727053</ele>
        <time>2016-10-16T11:21:37Z</time>
      </trkpt>
      <trkpt lat="42.89254" lon="0.20069">
        <ele>2091.5630727053</ele>
        <time>2016-10-16T11:21:42Z</time>
      </trkpt>
      <trkpt lat="42.89253" lon="0.20069">
        <ele>2091.5630727053</ele>
        <time>2016-10-16T11:21:47Z</time>
      </trkpt>
      <trkpt lat="42.89253" lon="0.2007">
        <ele>2091.5630727053</ele>
        <time>2016-10-16T11:21:52Z</time>
      </trkpt>
      <trkpt lat="42.89253" lon="0.2007">
        <ele>2091.5630727053</ele>
        <time>2016-10-16T11:21:57Z</time>
      </trkpt>
      <trkpt lat="42.89251" lon="0.20071">
        <ele>2091.5630727053</ele>
        <time>2016-10-16T11:22:02Z</time>
      </trkpt>
      <trkpt lat="42.89251" lon="0.20072">
        <ele>2091.5630727053</ele>
        <time>2016-10-16T11:22:07Z</time>
      </trkpt>
      <trkpt lat="42.89251" lon="0.20072">
        <ele>2091.5630727053</ele>
        <time>2016-10-16T11:22:12Z</time>
      </trkpt>
      <trkpt lat="42.89251" lon="0.20074">
        <ele>2091.5630727053</ele>
        <time>2016-10-16T11:22:17Z</time>
      </trkpt>
      <trkpt lat="42.8925" lon="0.20076">
        <ele>2091.5630727053</ele>
        <time>2016-10-16T11:22:22Z</time>
      </trkpt>
      <trkpt lat="42.89249" lon="0.20078">
        <ele>2094.2702895595</ele>
        <time>2016-10-16T11:22:27Z</time>
      </trkpt>
      <trkpt lat="42.89245" lon="0.20079">
        <ele>2094.2702895595</ele>
        <time>2016-10-16T11:22:32Z</time>
      </trkpt>
      <trkpt lat="42.89245" lon="0.20081">
        <ele>2094.2702895595</ele>
        <time>2016-10-16T11:22:37Z</time>
      </trkpt>
      <trkpt lat="42.89243" lon="0.20078">
        <ele>2094.2702895595</ele>
        <time>2016-10-16T11:22:42Z</time>
      </trkpt>
      <trkpt lat="42.89239" lon="0.20079">
        <ele>2097.4219490477</ele>
        <time>2016-10-16T11:22:47Z</time>
      </trkpt>
      <trkpt lat="42.89234" lon="0.20081">
        <ele>2097.4219490477</ele>
        <time>2016-10-16T11:22:52Z</time>
      </trkpt>
      <trkpt lat="42.8923" lon="0.20085">
        <ele>2100.5758593189</ele>
        <time>2016-10-16T11:22:57Z</time>
      </trkpt>
      <trkpt lat="42.89227" lon="0.2009">
        <ele>2100.5758593189</ele>
        <time>2016-10-16T11:23:02Z</time>
      </trkpt>
      <trkpt lat="42.89225" lon="0.20093">
        <ele>2100.5758593189</ele>
        <time>2016-10-16T11:23:07Z</time>
      </trkpt>
      <trkpt lat="42.89224" lon="0.20093">
        <ele>2103.7547212619</ele>
        <time>2016-10-16T11:23:12Z</time>
      </trkpt>
      <trkpt lat="42.89224" lon="0.20093">
        <ele>2103.7547212619</ele>
        <time>2016-10-16T11:23:17Z</time>
      </trkpt>
      <trkpt lat="42.89223" lon="0.20094">
        <ele>2103.7547212619</ele>
        <time>2016-10-16T11:23:22Z</time>
      </trkpt>
      <trkpt lat="42.89223" lon="0.20094">
        <ele>2103.7547212619</ele>
        <time>2016-10-16T11:23:27Z</time>
      </trkpt>
      <trkpt lat="42.89223" lon="0.20094">
        <ele>2103.7547212619</ele>
        <time>2016-10-16T11:23:32Z</time>
      </trkpt>
      <trkpt lat="42.89224" lon="0.2009">
        <ele>2103.7547212619</ele>
        <time>2016-10-16T11:23:37Z</time>
      </trkpt>
      <trkpt lat="42.89223" lon="0.20092">
        <ele>2103.7547212619</ele>
        <time>2016-10-16T11:23:42Z</time>
      </trkpt>
      <trkpt lat="42.89222" lon="0.20097">
        <ele>2107.080469854</ele>
        <time>2016-10-16T11:23:47Z</time>
      </trkpt>
      <trkpt lat="42.89221" lon="0.20097">
        <ele>2107.080469854</ele>
        <time>2016-10-16T11:23:52Z</time>
      </trkpt>
      <trkpt lat="42.89221" lon="0.20102">
        <ele>2107.080469854</ele>
        <time>2016-10-16T11:23:57Z</time>
      </trkpt>
      <trkpt lat="42.89221" lon="0.20103">
        <ele>2107.080469854</ele>
        <time>2016-10-16T11:24:02Z</time>
      </trkpt>
      <trkpt lat="42.89221" lon="0.20103">
        <ele>2107.080469854</ele>
        <time>2016-10-16T11:24:07Z</time>
      </trkpt>
      <trkpt lat="42.89221" lon="0.20102">
        <ele>2107.080469854</ele>
        <time>2016-10-16T11:24:12Z</time>
      </trkpt>
      <trkpt lat="42.8922" lon="0.20109">
        <ele>2110.3054976717</ele>
        <time>2016-10-16T11:24:17Z</time>
      </trkpt>
      <trkpt lat="42.89219" lon="0.20111">
        <ele>2110.3054976717</ele>
        <time>2016-10-16T11:24:22Z</time>
      </trkpt>
      <trkpt lat="42.89219" lon="0.20111">
        <ele>2110.3054976717</ele>
        <time>2016-10-16T11:24:27Z</time>
      </trkpt>
      <trkpt lat="42.89219" lon="0.2011">
        <ele>2110.3054976717</ele>
        <time>2016-10-16T11:24:32Z</time>
      </trkpt>
      <trkpt lat="42.89218" lon="0.2011">
        <ele>2110.3054976717</ele>
        <time>2016-10-16T11:24:37Z</time>
      </trkpt>
      <trkpt lat="42.89219" lon="0.2011">
        <ele>2110.3054976717</ele>
        <time>2016-10-16T11:24:42Z</time>
      </trkpt>
      <trkpt lat="42.89219" lon="0.20111">
        <ele>2110.3054976717</ele>
        <time>2016-10-16T11:24:47Z</time>
      </trkpt>
      <trkpt lat="42.8922" lon="0.2011">
        <ele>2110.3054976717</ele>
        <time>2016-10-16T11:24:52Z</time>
      </trkpt>
      <trkpt lat="42.8922" lon="0.2011">
        <ele>2110.3054976717</ele>
        <time>2016-10-16T11:24:57Z</time>
      </trkpt>
      <trkpt lat="42.89219" lon="0.2011">
        <ele>2110.3054976717</ele>
        <time>2016-10-16T11:25:02Z</time>
      </trkpt>
      <trkpt lat="42.89219" lon="0.2011">
        <ele>2110.3054976717</ele>
        <time>2016-10-16T11:25:07Z</time>
      </trkpt>
      <trkpt lat="42.89219" lon="0.20109">
        <ele>2110.3054976717</ele>
        <time>2016-10-16T11:25:12Z</time>
      </trkpt>
      <trkpt lat="42.89219" lon="0.20109">
        <ele>2110.3054976717</ele>
        <time>2016-10-16T11:25:17Z</time>
      </trkpt>
      <trkpt lat="42.89219" lon="0.20109">
        <ele>2110.3054976717</ele>
        <time>2016-10-16T11:25:22Z</time>
      </trkpt>
      <trkpt lat="42.89219" lon="0.20109">
        <ele>2110.3054976717</ele>
        <time>2016-10-16T11:25:27Z</time>
      </trkpt>
      <trkpt lat="42.89219" lon="0.20109">
        <ele>2110.3054976717</ele>
        <time>2016-10-16T11:25:32Z</time>
      </trkpt>
      <trkpt lat="42.89219" lon="0.20109">
        <ele>2110.3054976717</ele>
        <time>2016-10-16T11:25:37Z</time>
      </trkpt>
      <trkpt lat="42.89219" lon="0.20108">
        <ele>2110.3054976717</ele>
        <time>2016-10-16T11:25:42Z</time>
      </trkpt>
      <trkpt lat="42.89216" lon="0.20106">
        <ele>2113.6619397978</ele>
        <time>2016-10-16T11:25:47Z</time>
      </trkpt>
      <trkpt lat="42.89214" lon="0.20105">
        <ele>2113.6619397978</ele>
        <time>2016-10-16T11:25:52Z</time>
      </trkpt>
      <trkpt lat="42.8921" lon="0.20105">
        <ele>2113.6619397978</ele>
        <time>2016-10-16T11:25:57Z</time>
      </trkpt>
      <trkpt lat="42.89208" lon="0.20105">
        <ele>2113.6619397978</ele>
        <time>2016-10-16T11:26:02Z</time>
      </trkpt>
      <trkpt lat="42.89206" lon="0.20104">
        <ele>2117.0187679216</ele>
        <time>2016-10-16T11:26:07Z</time>
      </trkpt>
      <trkpt lat="42.89204" lon="0.20101">
        <ele>2117.0187679216</ele>
        <time>2016-10-16T11:26:12Z</time>
      </trkpt>
      <trkpt lat="42.892" lon="0.20099">
        <ele>2117.0187679216</ele>
        <time>2016-10-16T11:26:17Z</time>
      </trkpt>
      <trkpt lat="42.89198" lon="0.20098">
        <ele>2120.2402997446</ele>
        <time>2016-10-16T11:26:22Z</time>
      </trkpt>
      <trkpt lat="42.89196" lon="0.20097">
        <ele>2120.2402997446</ele>
        <time>2016-10-16T11:26:27Z</time>
      </trkpt>
      <trkpt lat="42.89193" lon="0.20098">
        <ele>2120.2402997446</ele>
        <time>2016-10-16T11:26:32Z</time>
      </trkpt>
      <trkpt lat="42.89188" lon="0.20097">
        <ele>2123.2878062855</ele>
        <time>2016-10-16T11:26:37Z</time>
      </trkpt>
      <trkpt lat="42.89186" lon="0.20097">
        <ele>2123.2878062855</ele>
        <time>2016-10-16T11:26:42Z</time>
      </trkpt>
      <trkpt lat="42.8918" lon="0.20098">
        <ele>2123.2878062855</ele>
        <time>2016-10-16T11:26:47Z</time>
      </trkpt>
      <trkpt lat="42.89176" lon="0.20096">
        <ele>2126.154859305</ele>
        <time>2016-10-16T11:26:52Z</time>
      </trkpt>
      <trkpt lat="42.89173" lon="0.20096">
        <ele>2126.154859305</ele>
        <time>2016-10-16T11:26:57Z</time>
      </trkpt>
      <trkpt lat="42.8917" lon="0.20095">
        <ele>2126.154859305</ele>
        <time>2016-10-16T11:27:02Z</time>
      </trkpt>
      <trkpt lat="42.89168" lon="0.20098">
        <ele>2126.154859305</ele>
        <time>2016-10-16T11:27:07Z</time>
      </trkpt>
      <trkpt lat="42.89167" lon="0.20097">
        <ele>2128.8793910733</ele>
        <time>2016-10-16T11:27:12Z</time>
      </trkpt>
      <trkpt lat="42.89163" lon="0.20092">
        <ele>2128.8793910733</ele>
        <time>2016-10-16T11:27:17Z</time>
      </trkpt>
      <trkpt lat="42.89162" lon="0.20092">
        <ele>2128.8793910733</ele>
        <time>2016-10-16T11:27:22Z</time>
      </trkpt>
      <trkpt lat="42.89161" lon="0.20096">
        <ele>2131.3962193429</ele>
        <time>2016-10-16T11:27:27Z</time>
      </trkpt>
      <trkpt lat="42.89162" lon="0.20095">
        <ele>2131.3962193429</ele>
        <time>2016-10-16T11:27:32Z</time>
      </trkpt>
      <trkpt lat="42.89162" lon="0.20095">
        <ele>2131.3962193429</ele>
        <time>2016-10-16T11:27:37Z</time>
      </trkpt>
      <trkpt lat="42.89162" lon="0.20096">
        <ele>2131.3962193429</ele>
        <time>2016-10-16T11:27:42Z</time>
      </trkpt>
      <trkpt lat="42.89161" lon="0.20094">
        <ele>2131.3962193429</ele>
        <time>2016-10-16T11:27:47Z</time>
      </trkpt>
      <trkpt lat="42.89158" lon="0.20093">
        <ele>2131.3962193429</ele>
        <time>2016-10-16T11:27:52Z</time>
      </trkpt>
      <trkpt lat="42.89154" lon="0.20092">
        <ele>2133.7465598097</ele>
        <time>2016-10-16T11:27:57Z</time>
      </trkpt>
      <trkpt lat="42.89153" lon="0.20092">
        <ele>2133.7465598097</ele>
        <time>2016-10-16T11:28:02Z</time>
      </trkpt>
      <trkpt lat="42.89152" lon="0.2009">
        <ele>2133.7465598097</ele>
        <time>2016-10-16T11:28:07Z</time>
      </trkpt>
      <trkpt lat="42.8915" lon="0.20089">
        <ele>2133.7465598097</ele>
        <time>2016-10-16T11:28:12Z</time>
      </trkpt>
      <trkpt lat="42.89149" lon="0.20088">
        <ele>2133.7465598097</ele>
        <time>2016-10-16T11:28:17Z</time>
      </trkpt>
      <trkpt lat="42.89148" lon="0.20087">
        <ele>2133.7465598097</ele>
        <time>2016-10-16T11:28:22Z</time>
      </trkpt>
      <trkpt lat="42.89147" lon="0.20087">
        <ele>2133.7465598097</ele>
        <time>2016-10-16T11:28:27Z</time>
      </trkpt>
      <trkpt lat="42.89144" lon="0.20087">
        <ele>2135.9836253306</ele>
        <time>2016-10-16T11:28:32Z</time>
      </trkpt>
      <trkpt lat="42.89143" lon="0.20087">
        <ele>2135.9836253306</ele>
        <time>2016-10-16T11:28:37Z</time>
      </trkpt>
      <trkpt lat="42.89141" lon="0.20086">
        <ele>2135.9836253306</ele>
        <time>2016-10-16T11:28:42Z</time>
      </trkpt>
      <trkpt lat="42.89139" lon="0.20086">
        <ele>2135.9836253306</ele>
        <time>2016-10-16T11:28:47Z</time>
      </trkpt>
      <trkpt lat="42.89135" lon="0.20087">
        <ele>2138.0274799566</ele>
        <time>2016-10-16T11:28:52Z</time>
      </trkpt>
      <trkpt lat="42.89133" lon="0.20088">
        <ele>2138.0274799566</ele>
        <time>2016-10-16T11:28:57Z</time>
      </trkpt>
      <trkpt lat="42.89132" lon="0.2009">
        <ele>2138.0274799566</ele>
        <time>2016-10-16T11:29:02Z</time>
      </trkpt>
      <trkpt lat="42.89134" lon="0.20091">
        <ele>2138.0274799566</ele>
        <time>2016-10-16T11:29:07Z</time>
      </trkpt>
      <trkpt lat="42.89133" lon="0.2009">
        <ele>2138.0274799566</ele>
        <time>2016-10-16T11:29:12Z</time>
      </trkpt>
      <trkpt lat="42.89132" lon="0.2009">
        <ele>2138.0274799566</ele>
        <time>2016-10-16T11:29:17Z</time>
      </trkpt>
      <trkpt lat="42.89132" lon="0.20088">
        <ele>2139.905616353</ele>
        <time>2016-10-16T11:29:22Z</time>
      </trkpt>
      <trkpt lat="42.89131" lon="0.20091">
        <ele>2139.905616353</ele>
        <time>2016-10-16T11:29:27Z</time>
      </trkpt>
      <trkpt lat="42.89129" lon="0.20092">
        <ele>2139.905616353</ele>
        <time>2016-10-16T11:29:32Z</time>
      </trkpt>
      <trkpt lat="42.89129" lon="0.20091">
        <ele>2139.905616353</ele>
        <time>2016-10-16T11:29:37Z</time>
      </trkpt>
      <trkpt lat="42.89129" lon="0.20094">
        <ele>2139.905616353</ele>
        <time>2016-10-16T11:29:42Z</time>
      </trkpt>
      <trkpt lat="42.8913" lon="0.20095">
        <ele>2139.905616353</ele>
        <time>2016-10-16T11:29:47Z</time>
      </trkpt>
      <trkpt lat="42.8913" lon="0.20096">
        <ele>2139.905616353</ele>
        <time>2016-10-16T11:29:52Z</time>
      </trkpt>
      <trkpt lat="42.89131" lon="0.20096">
        <ele>2139.905616353</ele>
        <time>2016-10-16T11:29:57Z</time>
      </trkpt>
      <trkpt lat="42.89131" lon="0.20096">
        <ele>2139.905616353</ele>
        <time>2016-10-16T11:30:02Z</time>
      </trkpt>
      <trkpt lat="42.89131" lon="0.20097">
        <ele>2139.905616353</ele>
        <time>2016-10-16T11:30:07Z</time>
      </trkpt>
      <trkpt lat="42.89132" lon="0.20097">
        <ele>2141.6296910593</ele>
        <time>2016-10-16T11:30:12Z</time>
      </trkpt>
      <trkpt lat="42.89132" lon="0.20097">
        <ele>2141.6296910593</ele>
        <time>2016-10-16T11:30:17Z</time>
      </trkpt>
      <trkpt lat="42.89132" lon="0.20097">
        <ele>2141.6296910593</ele>
        <time>2016-10-16T11:30:22Z</time>
      </trkpt>
      <trkpt lat="42.89132" lon="0.20097">
        <ele>2141.6296910593</ele>
        <time>2016-10-16T11:30:27Z</time>
      </trkpt>
      <trkpt lat="42.89133" lon="0.20097">
        <ele>2141.6296910593</ele>
        <time>2016-10-16T11:30:32Z</time>
      </trkpt>
      <trkpt lat="42.89133" lon="0.20097">
        <ele>2141.6296910593</ele>
        <time>2016-10-16T11:30:37Z</time>
      </trkpt>
      <trkpt lat="42.89133" lon="0.20098">
        <ele>2141.6296910593</ele>
        <time>2016-10-16T11:30:42Z</time>
      </trkpt>
      <trkpt lat="42.89133" lon="0.201">
        <ele>2141.6296910593</ele>
        <time>2016-10-16T11:30:47Z</time>
      </trkpt>
      <trkpt lat="42.89133" lon="0.20102">
        <ele>2141.6296910593</ele>
        <time>2016-10-16T11:30:52Z</time>
      </trkpt>
      <trkpt lat="42.89133" lon="0.20102">
        <ele>2141.6296910593</ele>
        <time>2016-10-16T11:30:57Z</time>
      </trkpt>
      <trkpt lat="42.89133" lon="0.20103">
        <ele>2141.6296910593</ele>
        <time>2016-10-16T11:31:02Z</time>
      </trkpt>
      <trkpt lat="42.89132" lon="0.20104">
        <ele>2141.6296910593</ele>
        <time>2016-10-16T11:31:07Z</time>
      </trkpt>
      <trkpt lat="42.89129" lon="0.20106">
        <ele>2143.3407582632</ele>
        <time>2016-10-16T11:31:12Z</time>
      </trkpt>
      <trkpt lat="42.89127" lon="0.20106">
        <ele>2143.3407582632</ele>
        <time>2016-10-16T11:31:17Z</time>
      </trkpt>
      <trkpt lat="42.89126" lon="0.20107">
        <ele>2143.3407582632</ele>
        <time>2016-10-16T11:31:22Z</time>
      </trkpt>
      <trkpt lat="42.89123" lon="0.2011">
        <ele>2143.3407582632</ele>
        <time>2016-10-16T11:31:27Z</time>
      </trkpt>
      <trkpt lat="42.89119" lon="0.20113">
        <ele>2144.9246706835</ele>
        <time>2016-10-16T11:31:32Z</time>
      </trkpt>
      <trkpt lat="42.89117" lon="0.20112">
        <ele>2144.9246706835</ele>
        <time>2016-10-16T11:31:37Z</time>
      </trkpt>
      <trkpt lat="42.89115" lon="0.20112">
        <ele>2144.9246706835</ele>
        <time>2016-10-16T11:31:42Z</time>
      </trkpt>
      <trkpt lat="42.89112" lon="0.20109">
        <ele>2144.9246706835</ele>
        <time>2016-10-16T11:31:47Z</time>
      </trkpt>
      <trkpt lat="42.89112" lon="0.20109">
        <ele>2144.9246706835</ele>
        <time>2016-10-16T11:31:52Z</time>
      </trkpt>
      <trkpt lat="42.89112" lon="0.2011">
        <ele>2146.3770040053</ele>
        <time>2016-10-16T11:31:57Z</time>
      </trkpt>
      <trkpt lat="42.89109" lon="0.20115">
        <ele>2146.3770040053</ele>
        <time>2016-10-16T11:32:02Z</time>
      </trkpt>
      <trkpt lat="42.89107" lon="0.20118">
        <ele>2146.3770040053</ele>
        <time>2016-10-16T11:32:07Z</time>
      </trkpt>
      <trkpt lat="42.89106" lon="0.20124">
        <ele>2147.7229435488</ele>
        <time>2016-10-16T11:32:12Z</time>
      </trkpt>
      <trkpt lat="42.89105" lon="0.20125">
        <ele>2147.7229435488</ele>
        <time>2016-10-16T11:32:17Z</time>
      </trkpt>
      <trkpt lat="42.89106" lon="0.20123">
        <ele>2147.7229435488</ele>
        <time>2016-10-16T11:32:22Z</time>
      </trkpt>
      <trkpt lat="42.89105" lon="0.20126">
        <ele>2147.7229435488</ele>
        <time>2016-10-16T11:32:27Z</time>
      </trkpt>
      <trkpt lat="42.89103" lon="0.20128">
        <ele>2147.7229435488</ele>
        <time>2016-10-16T11:32:32Z</time>
      </trkpt>
      <trkpt lat="42.89101" lon="0.2013">
        <ele>2149.0438505197</ele>
        <time>2016-10-16T11:32:37Z</time>
      </trkpt>
      <trkpt lat="42.89099" lon="0.20133">
        <ele>2149.0438505197</ele>
        <time>2016-10-16T11:32:42Z</time>
      </trkpt>
      <trkpt lat="42.89097" lon="0.20141">
        <ele>2150.2134963725</ele>
        <time>2016-10-16T11:32:47Z</time>
      </trkpt>
      <trkpt lat="42.89092" lon="0.20146">
        <ele>2150.2134963725</ele>
        <time>2016-10-16T11:32:52Z</time>
      </trkpt>
      <trkpt lat="42.8909" lon="0.20147">
        <ele>2150.2134963725</ele>
        <time>2016-10-16T11:32:57Z</time>
      </trkpt>
      <trkpt lat="42.89088" lon="0.20147">
        <ele>2151.288344509</ele>
        <time>2016-10-16T11:33:02Z</time>
      </trkpt>
      <trkpt lat="42.89088" lon="0.20149">
        <ele>2151.288344509</ele>
        <time>2016-10-16T11:33:07Z</time>
      </trkpt>
      <trkpt lat="42.89089" lon="0.20152">
        <ele>2151.288344509</ele>
        <time>2016-10-16T11:33:12Z</time>
      </trkpt>
      <trkpt lat="42.89089" lon="0.20152">
        <ele>2151.288344509</ele>
        <time>2016-10-16T11:33:17Z</time>
      </trkpt>
      <trkpt lat="42.89085" lon="0.20154">
        <ele>2151.288344509</ele>
        <time>2016-10-16T11:33:22Z</time>
      </trkpt>
      <trkpt lat="42.89084" lon="0.2016">
        <ele>2152.3642605362</ele>
        <time>2016-10-16T11:33:27Z</time>
      </trkpt>
      <trkpt lat="42.89081" lon="0.2016">
        <ele>2152.3642605362</ele>
        <time>2016-10-16T11:33:32Z</time>
      </trkpt>
      <trkpt lat="42.89079" lon="0.20162">
        <ele>2152.3642605362</ele>
        <time>2016-10-16T11:33:37Z</time>
      </trkpt>
      <trkpt lat="42.89079" lon="0.20165">
        <ele>2152.3642605362</ele>
        <time>2016-10-16T11:33:42Z</time>
      </trkpt>
      <trkpt lat="42.89078" lon="0.20164">
        <ele>2152.3642605362</ele>
        <time>2016-10-16T11:33:47Z</time>
      </trkpt>
      <trkpt lat="42.89078" lon="0.20164">
        <ele>2152.3642605362</ele>
        <time>2016-10-16T11:33:52Z</time>
      </trkpt>
      <trkpt lat="42.89075" lon="0.20168">
        <ele>2153.4868715456</ele>
        <time>2016-10-16T11:33:57Z</time>
      </trkpt>
      <trkpt lat="42.89072" lon="0.20167">
        <ele>2153.4868715456</ele>
        <time>2016-10-16T11:34:02Z</time>
      </trkpt>
      <trkpt lat="42.8907" lon="0.20169">
        <ele>2153.4868715456</ele>
        <time>2016-10-16T11:34:07Z</time>
      </trkpt>
      <trkpt lat="42.89068" lon="0.20173">
        <ele>2154.5110070023</ele>
        <time>2016-10-16T11:34:12Z</time>
      </trkpt>
      <trkpt lat="42.89066" lon="0.20173">
        <ele>2154.5110070023</ele>
        <time>2016-10-16T11:34:17Z</time>
      </trkpt>
      <trkpt lat="42.89067" lon="0.2018">
        <ele>2154.5110070023</ele>
        <time>2016-10-16T11:34:22Z</time>
      </trkpt>
      <trkpt lat="42.89066" lon="0.20181">
        <ele>2154.5110070023</ele>
        <time>2016-10-16T11:34:27Z</time>
      </trkpt>
      <trkpt lat="42.89064" lon="0.20187">
        <ele>2155.4898009328</ele>
        <time>2016-10-16T11:34:32Z</time>
      </trkpt>
      <trkpt lat="42.8906" lon="0.20195">
        <ele>2155.4898009328</ele>
        <time>2016-10-16T11:34:37Z</time>
      </trkpt>
      <trkpt lat="42.89057" lon="0.20202">
        <ele>2156.3429213053</ele>
        <time>2016-10-16T11:34:42Z</time>
      </trkpt>
      <trkpt lat="42.89055" lon="0.20203">
        <ele>2156.3429213053</ele>
        <time>2016-10-16T11:34:47Z</time>
      </trkpt>
      <trkpt lat="42.89052" lon="0.20205">
        <ele>2156.3429213053</ele>
        <time>2016-10-16T11:34:52Z</time>
      </trkpt>
      <trkpt lat="42.8905" lon="0.20206">
        <ele>2156.3429213053</ele>
        <time>2016-10-16T11:34:57Z</time>
      </trkpt>
      <trkpt lat="42.89051" lon="0.20206">
        <ele>2156.3429213053</ele>
        <time>2016-10-16T11:35:02Z</time>
      </trkpt>
      <trkpt lat="42.8905" lon="0.20207">
        <ele>2156.3429213053</ele>
        <time>2016-10-16T11:35:07Z</time>
      </trkpt>
      <trkpt lat="42.89049" lon="0.20211">
        <ele>2157.2124572026</ele>
        <time>2016-10-16T11:35:12Z</time>
      </trkpt>
      <trkpt lat="42.89047" lon="0.20214">
        <ele>2157.2124572026</ele>
        <time>2016-10-16T11:35:17Z</time>
      </trkpt>
      <trkpt lat="42.89046" lon="0.20218">
        <ele>2157.2124572026</ele>
        <time>2016-10-16T11:35:22Z</time>
      </trkpt>
      <trkpt lat="42.89043" lon="0.20224">
        <ele>2157.9994274651</ele>
        <time>2016-10-16T11:35:27Z</time>
      </trkpt>
      <trkpt lat="42.89043" lon="0.20226">
        <ele>2157.9994274651</ele>
        <time>2016-10-16T11:35:32Z</time>
      </trkpt>
      <trkpt lat="42.8904" lon="0.20229">
        <ele>2157.9994274651</ele>
        <time>2016-10-16T11:35:37Z</time>
      </trkpt>
      <trkpt lat="42.89039" lon="0.2023">
        <ele>2157.9994274651</ele>
        <time>2016-10-16T11:35:42Z</time>
      </trkpt>
      <trkpt lat="42.89036" lon="0.20235">
        <ele>2158.7564473448</ele>
        <time>2016-10-16T11:35:47Z</time>
      </trkpt>
      <trkpt lat="42.89035" lon="0.20238">
        <ele>2158.7564473448</ele>
        <time>2016-10-16T11:35:52Z</time>
      </trkpt>
      <trkpt lat="42.89035" lon="0.20238">
        <ele>2158.7564473448</ele>
        <time>2016-10-16T11:35:57Z</time>
      </trkpt>
      <trkpt lat="42.89039" lon="0.20241">
        <ele>2158.7564473448</ele>
        <time>2016-10-16T11:36:02Z</time>
      </trkpt>
      <trkpt lat="42.89039" lon="0.20245">
        <ele>2159.4170359116</ele>
        <time>2016-10-16T11:36:07Z</time>
      </trkpt>
      <trkpt lat="42.89038" lon="0.20248">
        <ele>2159.4170359116</ele>
        <time>2016-10-16T11:36:12Z</time>
      </trkpt>
      <trkpt lat="42.89035" lon="0.20254">
        <ele>2159.4170359116</ele>
        <time>2016-10-16T11:36:17Z</time>
      </trkpt>
      <trkpt lat="42.89033" lon="0.20257">
        <ele>2159.9918873547</ele>
        <time>2016-10-16T11:36:22Z</time>
      </trkpt>
      <trkpt lat="42.89033" lon="0.20259">
        <ele>2159.9918873547</ele>
        <time>2016-10-16T11:36:27Z</time>
      </trkpt>
      <trkpt lat="42.89033" lon="0.20259">
        <ele>2159.9918873547</ele>
        <time>2016-10-16T11:36:32Z</time>
      </trkpt>
      <trkpt lat="42.89033" lon="0.20259">
        <ele>2159.9918873547</ele>
        <time>2016-10-16T11:36:37Z</time>
      </trkpt>
      <trkpt lat="42.89032" lon="0.2026">
        <ele>2159.9918873547</ele>
        <time>2016-10-16T11:36:42Z</time>
      </trkpt>
      <trkpt lat="42.89032" lon="0.20261">
        <ele>2159.9918873547</ele>
        <time>2016-10-16T11:36:47Z</time>
      </trkpt>
      <trkpt lat="42.8903" lon="0.20263">
        <ele>2159.9918873547</ele>
        <time>2016-10-16T11:36:52Z</time>
      </trkpt>
      <trkpt lat="42.89029" lon="0.20264">
        <ele>2159.9918873547</ele>
        <time>2016-10-16T11:36:57Z</time>
      </trkpt>
      <trkpt lat="42.89027" lon="0.20265">
        <ele>2160.4911078436</ele>
        <time>2016-10-16T11:37:02Z</time>
      </trkpt>
      <trkpt lat="42.89026" lon="0.20265">
        <ele>2160.4911078436</ele>
        <time>2016-10-16T11:37:07Z</time>
      </trkpt>
      <trkpt lat="42.89024" lon="0.20264">
        <ele>2160.4911078436</ele>
        <time>2016-10-16T11:37:12Z</time>
      </trkpt>
      <trkpt lat="42.89022" lon="0.20261">
        <ele>2160.4911078436</ele>
        <time>2016-10-16T11:37:17Z</time>
      </trkpt>
      <trkpt lat="42.89022" lon="0.20261">
        <ele>2160.4911078436</ele>
        <time>2016-10-16T11:37:22Z</time>
      </trkpt>
      <trkpt lat="42.89018" lon="0.20263">
        <ele>2160.8953999111</ele>
        <time>2016-10-16T11:37:27Z</time>
      </trkpt>
      <trkpt lat="42.89017" lon="0.20265">
        <ele>2160.8953999111</ele>
        <time>2016-10-16T11:37:32Z</time>
      </trkpt>
      <trkpt lat="42.89016" lon="0.20267">
        <ele>2160.8953999111</ele>
        <time>2016-10-16T11:37:37Z</time>
      </trkpt>
      <trkpt lat="42.89015" lon="0.20269">
        <ele>2160.8953999111</ele>
        <time>2016-10-16T11:37:42Z</time>
      </trkpt>
      <trkpt lat="42.89014" lon="0.20272">
        <ele>2160.8953999111</ele>
        <time>2016-10-16T11:37:47Z</time>
      </trkpt>
      <trkpt lat="42.89012" lon="0.20273">
        <ele>2161.201501711</ele>
        <time>2016-10-16T11:37:52Z</time>
      </trkpt>
      <trkpt lat="42.89008" lon="0.20275">
        <ele>2161.201501711</ele>
        <time>2016-10-16T11:37:57Z</time>
      </trkpt>
      <trkpt lat="42.89002" lon="0.2028">
        <ele>2161.3921877765</ele>
        <time>2016-10-16T11:38:02Z</time>
      </trkpt>
      <trkpt lat="42.89" lon="0.20283">
        <ele>2161.3921877765</ele>
        <time>2016-10-16T11:38:07Z</time>
      </trkpt>
      <trkpt lat="42.88997" lon="0.20288">
        <ele>2161.3921877765</ele>
        <time>2016-10-16T11:38:12Z</time>
      </trkpt>
      <trkpt lat="42.88997" lon="0.20289">
        <ele>2161.3921877765</ele>
        <time>2016-10-16T11:38:17Z</time>
      </trkpt>
      <trkpt lat="42.88994" lon="0.20291">
        <ele>2161.4805682629</ele>
        <time>2016-10-16T11:38:22Z</time>
      </trkpt>
      <trkpt lat="42.88991" lon="0.20296">
        <ele>2161.4805682629</ele>
        <time>2016-10-16T11:38:27Z</time>
      </trkpt>
      <trkpt lat="42.88987" lon="0.203">
        <ele>2161.4789933086</ele>
        <time>2016-10-16T11:38:32Z</time>
      </trkpt>
      <trkpt lat="42.88986" lon="0.20302">
        <ele>2161.4789933086</ele>
        <time>2016-10-16T11:38:37Z</time>
      </trkpt>
      <trkpt lat="42.88985" lon="0.20303">
        <ele>2161.4789933086</ele>
        <time>2016-10-16T11:38:42Z</time>
      </trkpt>
      <trkpt lat="42.88983" lon="0.20305">
        <ele>2161.4789933086</ele>
        <time>2016-10-16T11:38:47Z</time>
      </trkpt>
      <trkpt lat="42.88982" lon="0.20311">
        <ele>2161.3990660763</ele>
        <time>2016-10-16T11:38:52Z</time>
      </trkpt>
      <trkpt lat="42.88982" lon="0.20311">
        <ele>2161.3990660763</ele>
        <time>2016-10-16T11:38:57Z</time>
      </trkpt>
      <trkpt lat="42.88982" lon="0.20313">
        <ele>2161.3990660763</ele>
        <time>2016-10-16T11:39:02Z</time>
      </trkpt>
      <trkpt lat="42.88983" lon="0.20317">
        <ele>2161.3990660763</ele>
        <time>2016-10-16T11:39:07Z</time>
      </trkpt>
      <trkpt lat="42.88982" lon="0.2032">
        <ele>2161.3990660763</ele>
        <time>2016-10-16T11:39:12Z</time>
      </trkpt>
      <trkpt lat="42.88982" lon="0.20325">
        <ele>2161.2372459219</ele>
        <time>2016-10-16T11:39:17Z</time>
      </trkpt>
      <trkpt lat="42.88978" lon="0.20325">
        <ele>2161.2372459219</ele>
        <time>2016-10-16T11:39:22Z</time>
      </trkpt>
      <trkpt lat="42.88976" lon="0.20327">
        <ele>2161.2372459219</ele>
        <time>2016-10-16T11:39:27Z</time>
      </trkpt>
      <trkpt lat="42.88975" lon="0.20327">
        <ele>2161.2372459219</ele>
        <time>2016-10-16T11:39:32Z</time>
      </trkpt>
      <trkpt lat="42.88974" lon="0.20328">
        <ele>2161.2372459219</ele>
        <time>2016-10-16T11:39:37Z</time>
      </trkpt>
      <trkpt lat="42.88975" lon="0.20328">
        <ele>2161.2372459219</ele>
        <time>2016-10-16T11:39:42Z</time>
      </trkpt>
      <trkpt lat="42.88975" lon="0.20332">
        <ele>2161.0191963236</ele>
        <time>2016-10-16T11:39:47Z</time>
      </trkpt>
      <trkpt lat="42.88974" lon="0.20336">
        <ele>2161.0191963236</ele>
        <time>2016-10-16T11:39:52Z</time>
      </trkpt>
      <trkpt lat="42.88975" lon="0.20337">
        <ele>2161.0191963236</ele>
        <time>2016-10-16T11:39:57Z</time>
      </trkpt>
      <trkpt lat="42.88973" lon="0.20341">
        <ele>2161.0191963236</ele>
        <time>2016-10-16T11:40:02Z</time>
      </trkpt>
      <trkpt lat="42.88973" lon="0.20341">
        <ele>2161.0191963236</ele>
        <time>2016-10-16T11:40:07Z</time>
      </trkpt>
      <trkpt lat="42.88973" lon="0.20343">
        <ele>2161.0191963236</ele>
        <time>2016-10-16T11:40:12Z</time>
      </trkpt>
      <trkpt lat="42.88973" lon="0.20345">
        <ele>2160.7399155895</ele>
        <time>2016-10-16T11:40:17Z</time>
      </trkpt>
      <trkpt lat="42.88969" lon="0.20347">
        <ele>2160.7399155895</ele>
        <time>2016-10-16T11:40:22Z</time>
      </trkpt>
      <trkpt lat="42.88967" lon="0.20351">
        <ele>2160.7399155895</ele>
        <time>2016-10-16T11:40:27Z</time>
      </trkpt>
      <trkpt lat="42.88966" lon="0.20353">
        <ele>2160.4236408766</ele>
        <time>2016-10-16T11:40:32Z</time>
      </trkpt>
      <trkpt lat="42.88965" lon="0.20353">
        <ele>2160.4236408766</ele>
        <time>2016-10-16T11:40:37Z</time>
      </trkpt>
      <trkpt lat="42.88963" lon="0.20355">
        <ele>2160.4236408766</ele>
        <time>2016-10-16T11:40:42Z</time>
      </trkpt>
      <trkpt lat="42.8896" lon="0.20359">
        <ele>2160.4236408766</ele>
        <time>2016-10-16T11:40:47Z</time>
      </trkpt>
      <trkpt lat="42.88958" lon="0.20361">
        <ele>2160.0495700366</ele>
        <time>2016-10-16T11:40:52Z</time>
      </trkpt>
      <trkpt lat="42.88957" lon="0.20364">
        <ele>2160.0495700366</ele>
        <time>2016-10-16T11:40:57Z</time>
      </trkpt>
      <trkpt lat="42.88955" lon="0.20366">
        <ele>2160.0495700366</ele>
        <time>2016-10-16T11:41:02Z</time>
      </trkpt>
      <trkpt lat="42.88955" lon="0.20369">
        <ele>2160.0495700366</ele>
        <time>2016-10-16T11:41:07Z</time>
      </trkpt>
      <trkpt lat="42.88954" lon="0.20373">
        <ele>2159.6416890158</ele>
        <time>2016-10-16T11:41:12Z</time>
      </trkpt>
      <trkpt lat="42.88955" lon="0.20374">
        <ele>2159.6416890158</ele>
        <time>2016-10-16T11:41:17Z</time>
      </trkpt>
      <trkpt lat="42.88953" lon="0.20376">
        <ele>2159.6416890158</ele>
        <time>2016-10-16T11:41:22Z</time>
      </trkpt>
      <trkpt lat="42.8895" lon="0.20374">
        <ele>2159.6416890158</ele>
        <time>2016-10-16T11:41:27Z</time>
      </trkpt>
      <trkpt lat="42.88949" lon="0.20373">
        <ele>2159.6416890158</ele>
        <time>2016-10-16T11:41:32Z</time>
      </trkpt>
      <trkpt lat="42.88948" lon="0.20373">
        <ele>2159.6416890158</ele>
        <time>2016-10-16T11:41:37Z</time>
      </trkpt>
      <trkpt lat="42.88948" lon="0.20372">
        <ele>2159.1933531522</ele>
        <time>2016-10-16T11:41:42Z</time>
      </trkpt>
      <trkpt lat="42.88947" lon="0.20373">
        <ele>2159.1933531522</ele>
        <time>2016-10-16T11:41:47Z</time>
      </trkpt>
      <trkpt lat="42.88946" lon="0.20378">
        <ele>2159.1933531522</ele>
        <time>2016-10-16T11:41:52Z</time>
      </trkpt>
      <trkpt lat="42.88944" lon="0.20381">
        <ele>2159.1933531522</ele>
        <time>2016-10-16T11:41:57Z</time>
      </trkpt>
      <trkpt lat="42.88942" lon="0.20382">
        <ele>2158.6983729238</ele>
        <time>2016-10-16T11:42:02Z</time>
      </trkpt>
      <trkpt lat="42.8894" lon="0.20382">
        <ele>2158.6983729238</ele>
        <time>2016-10-16T11:42:07Z</time>
      </trkpt>
      <trkpt lat="42.88937" lon="0.20386">
        <ele>2158.6983729238</ele>
        <time>2016-10-16T11:42:12Z</time>
      </trkpt>
      <trkpt lat="42.88936" lon="0.20388">
        <ele>2158.6983729238</ele>
        <time>2016-10-16T11:42:17Z</time>
      </trkpt>
      <trkpt lat="42.88935" lon="0.20389">
        <ele>2158.6983729238</ele>
        <time>2016-10-16T11:42:22Z</time>
      </trkpt>
      <trkpt lat="42.88934" lon="0.2039">
        <ele>2158.1798153899</ele>
        <time>2016-10-16T11:42:27Z</time>
      </trkpt>
      <trkpt lat="42.88934" lon="0.2039">
        <ele>2158.1798153899</ele>
        <time>2016-10-16T11:42:32Z</time>
      </trkpt>
      <trkpt lat="42.88932" lon="0.20388">
        <ele>2158.1798153899</ele>
        <time>2016-10-16T11:42:37Z</time>
      </trkpt>
      <trkpt lat="42.8893" lon="0.20382">
        <ele>2158.1798153899</ele>
        <time>2016-10-16T11:42:42Z</time>
      </trkpt>
      <trkpt lat="42.8893" lon="0.2038">
        <ele>2157.6301416298</ele>
        <time>2016-10-16T11:42:47Z</time>
      </trkpt>
      <trkpt lat="42.8893" lon="0.20376">
        <ele>2157.6301416298</ele>
        <time>2016-10-16T11:42:52Z</time>
      </trkpt>
      <trkpt lat="42.8893" lon="0.20376">
        <ele>2157.6301416298</ele>
        <time>2016-10-16T11:42:57Z</time>
      </trkpt>
      <trkpt lat="42.8893" lon="0.20376">
        <ele>2157.6301416298</ele>
        <time>2016-10-16T11:43:02Z</time>
      </trkpt>
      <trkpt lat="42.88928" lon="0.2038">
        <ele>2157.6301416298</ele>
        <time>2016-10-16T11:43:07Z</time>
      </trkpt>
      <trkpt lat="42.88926" lon="0.20387">
        <ele>2157.0422946977</ele>
        <time>2016-10-16T11:43:12Z</time>
      </trkpt>
      <trkpt lat="42.88925" lon="0.20392">
        <ele>2157.0422946977</ele>
        <time>2016-10-16T11:43:17Z</time>
      </trkpt>
      <trkpt lat="42.88922" lon="0.20397">
        <ele>2157.0422946977</ele>
        <time>2016-10-16T11:43:22Z</time>
      </trkpt>
      <trkpt lat="42.88921" lon="0.20402">
        <ele>2156.4385030328</ele>
        <time>2016-10-16T11:43:27Z</time>
      </trkpt>
      <trkpt lat="42.88921" lon="0.20407">
        <ele>2156.4385030328</ele>
        <time>2016-10-16T11:43:32Z</time>
      </trkpt>
      <trkpt lat="42.88919" lon="0.20409">
        <ele>2156.4385030328</ele>
        <time>2016-10-16T11:43:37Z</time>
      </trkpt>
      <trkpt lat="42.88917" lon="0.20415">
        <ele>2155.8248307776</ele>
        <time>2016-10-16T11:43:42Z</time>
      </trkpt>
      <trkpt lat="42.88915" lon="0.20422">
        <ele>2155.8248307776</ele>
        <time>2016-10-16T11:43:47Z</time>
      </trkpt>
      <trkpt lat="42.88912" lon="0.20427">
        <ele>2155.2067571457</ele>
        <time>2016-10-16T11:43:52Z</time>
      </trkpt>
      <trkpt lat="42.88908" lon="0.20428">
        <ele>2155.2067571457</ele>
        <time>2016-10-16T11:43:57Z</time>
      </trkpt>
      <trkpt lat="42.88904" lon="0.20431">
        <ele>2155.2067571457</ele>
        <time>2016-10-16T11:44:02Z</time>
      </trkpt>
      <trkpt lat="42.88901" lon="0.20434">
        <ele>2154.5747912843</ele>
        <time>2016-10-16T11:44:07Z</time>
      </trkpt>
      <trkpt lat="42.88899" lon="0.20442">
        <ele>2154.5747912843</ele>
        <time>2016-10-16T11:44:12Z</time>
      </trkpt>
      <trkpt lat="42.88899" lon="0.20439">
        <ele>2154.5747912843</ele>
        <time>2016-10-16T11:44:17Z</time>
      </trkpt>
      <trkpt lat="42.88899" lon="0.20437">
        <ele>2153.9488308961</ele>
        <time>2016-10-16T11:44:22Z</time>
      </trkpt>
      <trkpt lat="42.88899" lon="0.20436">
        <ele>2153.9488308961</ele>
        <time>2016-10-16T11:44:27Z</time>
      </trkpt>
      <trkpt lat="42.88899" lon="0.20436">
        <ele>2153.9488308961</ele>
        <time>2016-10-16T11:44:32Z</time>
      </trkpt>
      <trkpt lat="42.889" lon="0.20436">
        <ele>2153.9488308961</ele>
        <time>2016-10-16T11:44:37Z</time>
      </trkpt>
      <trkpt lat="42.88901" lon="0.20438">
        <ele>2153.9488308961</ele>
        <time>2016-10-16T11:44:42Z</time>
      </trkpt>
      <trkpt lat="42.88901" lon="0.20438">
        <ele>2153.9488308961</ele>
        <time>2016-10-16T11:44:47Z</time>
      </trkpt>
      <trkpt lat="42.88901" lon="0.20438">
        <ele>2153.9488308961</ele>
        <time>2016-10-16T11:44:52Z</time>
      </trkpt>
      <trkpt lat="42.88901" lon="0.20438">
        <ele>2153.9488308961</ele>
        <time>2016-10-16T11:44:57Z</time>
      </trkpt>
      <trkpt lat="42.88901" lon="0.20438">
        <ele>2153.9488308961</ele>
        <time>2016-10-16T11:45:02Z</time>
      </trkpt>
      <trkpt lat="42.88901" lon="0.20438">
        <ele>2153.9488308961</ele>
        <time>2016-10-16T11:45:07Z</time>
      </trkpt>
      <trkpt lat="42.88901" lon="0.20438">
        <ele>2153.9488308961</ele>
        <time>2016-10-16T11:45:12Z</time>
      </trkpt>
      <trkpt lat="42.88901" lon="0.20438">
        <ele>2153.9488308961</ele>
        <time>2016-10-16T11:45:17Z</time>
      </trkpt>
      <trkpt lat="42.88902" lon="0.20438">
        <ele>2153.9488308961</ele>
        <time>2016-10-16T11:45:22Z</time>
      </trkpt>
      <trkpt lat="42.88902" lon="0.20437">
        <ele>2153.9488308961</ele>
        <time>2016-10-16T11:45:27Z</time>
      </trkpt>
      <trkpt lat="42.88901" lon="0.20437">
        <ele>2153.9488308961</ele>
        <time>2016-10-16T11:45:32Z</time>
      </trkpt>
      <trkpt lat="42.88901" lon="0.20437">
        <ele>2153.9488308961</ele>
        <time>2016-10-16T11:45:37Z</time>
      </trkpt>
      <trkpt lat="42.88901" lon="0.20437">
        <ele>2153.9488308961</ele>
        <time>2016-10-16T11:45:42Z</time>
      </trkpt>
      <trkpt lat="42.88901" lon="0.20437">
        <ele>2153.9488308961</ele>
        <time>2016-10-16T11:45:47Z</time>
      </trkpt>
      <trkpt lat="42.88901" lon="0.20437">
        <ele>2153.9488308961</ele>
        <time>2016-10-16T11:45:52Z</time>
      </trkpt>
      <trkpt lat="42.88901" lon="0.20437">
        <ele>2153.9488308961</ele>
        <time>2016-10-16T11:45:57Z</time>
      </trkpt>
      <trkpt lat="42.88902" lon="0.20437">
        <ele>2153.9488308961</ele>
        <time>2016-10-16T11:46:02Z</time>
      </trkpt>
      <trkpt lat="42.88901" lon="0.20438">
        <ele>2153.9488308961</ele>
        <time>2016-10-16T11:46:07Z</time>
      </trkpt>
      <trkpt lat="42.88901" lon="0.20438">
        <ele>2153.9488308961</ele>
        <time>2016-10-16T11:46:12Z</time>
      </trkpt>
      <trkpt lat="42.88903" lon="0.20438">
        <ele>2153.2318357374</ele>
        <time>2016-10-16T11:46:17Z</time>
      </trkpt>
      <trkpt lat="42.88903" lon="0.20438">
        <ele>2153.2318357374</ele>
        <time>2016-10-16T11:46:22Z</time>
      </trkpt>
      <trkpt lat="42.88903" lon="0.20438">
        <ele>2153.2318357374</ele>
        <time>2016-10-16T11:46:27Z</time>
      </trkpt>
      <trkpt lat="42.88903" lon="0.20438">
        <ele>2153.2318357374</ele>
        <time>2016-10-16T11:46:32Z</time>
      </trkpt>
      <trkpt lat="42.88903" lon="0.20437">
        <ele>2153.2318357374</ele>
        <time>2016-10-16T11:46:37Z</time>
      </trkpt>
      <trkpt lat="42.88903" lon="0.20437">
        <ele>2153.2318357374</ele>
        <time>2016-10-16T11:46:42Z</time>
      </trkpt>
      <trkpt lat="42.88903" lon="0.20438">
        <ele>2153.2318357374</ele>
        <time>2016-10-16T11:46:47Z</time>
      </trkpt>
      <trkpt lat="42.88903" lon="0.20437">
        <ele>2153.2318357374</ele>
        <time>2016-10-16T11:46:52Z</time>
      </trkpt>
      <trkpt lat="42.88903" lon="0.20437">
        <ele>2153.2318357374</ele>
        <time>2016-10-16T11:46:57Z</time>
      </trkpt>
      <trkpt lat="42.88903" lon="0.20437">
        <ele>2153.2318357374</ele>
        <time>2016-10-16T11:47:02Z</time>
      </trkpt>
      <trkpt lat="42.88903" lon="0.20437">
        <ele>2153.2318357374</ele>
        <time>2016-10-16T11:47:07Z</time>
      </trkpt>
      <trkpt lat="42.88903" lon="0.20437">
        <ele>2153.2318357374</ele>
        <time>2016-10-16T11:47:12Z</time>
      </trkpt>
      <trkpt lat="42.88903" lon="0.20437">
        <ele>2153.2318357374</ele>
        <time>2016-10-16T11:47:17Z</time>
      </trkpt>
      <trkpt lat="42.88903" lon="0.20437">
        <ele>2153.2318357374</ele>
        <time>2016-10-16T11:47:22Z</time>
      </trkpt>
      <trkpt lat="42.88903" lon="0.20437">
        <ele>2153.2318357374</ele>
        <time>2016-10-16T11:47:27Z</time>
      </trkpt>
      <trkpt lat="42.88903" lon="0.20437">
        <ele>2153.2318357374</ele>
        <time>2016-10-16T11:47:32Z</time>
      </trkpt>
      <trkpt lat="42.88903" lon="0.20437">
        <ele>2153.2318357374</ele>
        <time>2016-10-16T11:47:37Z</time>
      </trkpt>
      <trkpt lat="42.88902" lon="0.20436">
        <ele>2153.2318357374</ele>
        <time>2016-10-16T11:47:42Z</time>
      </trkpt>
      <trkpt lat="42.88902" lon="0.20435">
        <ele>2153.2318357374</ele>
        <time>2016-10-16T11:47:47Z</time>
      </trkpt>
      <trkpt lat="42.88902" lon="0.20434">
        <ele>2153.2318357374</ele>
        <time>2016-10-16T11:47:52Z</time>
      </trkpt>
      <trkpt lat="42.88902" lon="0.20432">
        <ele>2153.2318357374</ele>
        <time>2016-10-16T11:47:57Z</time>
      </trkpt>
      <trkpt lat="42.88902" lon="0.20431">
        <ele>2153.2318357374</ele>
        <time>2016-10-16T11:48:02Z</time>
      </trkpt>
      <trkpt lat="42.88902" lon="0.20431">
        <ele>2153.2318357374</ele>
        <time>2016-10-16T11:48:07Z</time>
      </trkpt>
      <trkpt lat="42.88902" lon="0.20433">
        <ele>2153.2318357374</ele>
        <time>2016-10-16T11:48:12Z</time>
      </trkpt>
      <trkpt lat="42.88902" lon="0.20433">
        <ele>2153.2318357374</ele>
        <time>2016-10-16T11:48:17Z</time>
      </trkpt>
      <trkpt lat="42.88902" lon="0.20433">
        <ele>2153.2318357374</ele>
        <time>2016-10-16T11:48:22Z</time>
      </trkpt>
      <trkpt lat="42.88901" lon="0.20433">
        <ele>2153.2318357374</ele>
        <time>2016-10-16T11:48:27Z</time>
      </trkpt>
      <trkpt lat="42.88901" lon="0.20432">
        <ele>2152.3195672845</ele>
        <time>2016-10-16T11:48:32Z</time>
      </trkpt>
      <trkpt lat="42.889" lon="0.20433">
        <ele>2152.3195672845</ele>
        <time>2016-10-16T11:48:37Z</time>
      </trkpt>
      <trkpt lat="42.88899" lon="0.20435">
        <ele>2152.3195672845</ele>
        <time>2016-10-16T11:48:42Z</time>
      </trkpt>
      <trkpt lat="42.88899" lon="0.20435">
        <ele>2152.3195672845</ele>
        <time>2016-10-16T11:48:47Z</time>
      </trkpt>
      <trkpt lat="42.88899" lon="0.20435">
        <ele>2152.3195672845</ele>
        <time>2016-10-16T11:48:52Z</time>
      </trkpt>
      <trkpt lat="42.88899" lon="0.20435">
        <ele>2152.3195672845</ele>
        <time>2016-10-16T11:48:57Z</time>
      </trkpt>
      <trkpt lat="42.88899" lon="0.20435">
        <ele>2152.3195672845</ele>
        <time>2016-10-16T11:49:02Z</time>
      </trkpt>
      <trkpt lat="42.88899" lon="0.20436">
        <ele>2152.3195672845</ele>
        <time>2016-10-16T11:49:07Z</time>
      </trkpt>
      <trkpt lat="42.88899" lon="0.20436">
        <ele>2152.3195672845</ele>
        <time>2016-10-16T11:49:12Z</time>
      </trkpt>
      <trkpt lat="42.88899" lon="0.20436">
        <ele>2152.3195672845</ele>
        <time>2016-10-16T11:49:17Z</time>
      </trkpt>
      <trkpt lat="42.889" lon="0.20435">
        <ele>2152.3195672845</ele>
        <time>2016-10-16T11:49:22Z</time>
      </trkpt>
      <trkpt lat="42.889" lon="0.20434">
        <ele>2152.3195672845</ele>
        <time>2016-10-16T11:49:27Z</time>
      </trkpt>
      <trkpt lat="42.889" lon="0.20436">
        <ele>2152.3195672845</ele>
        <time>2016-10-16T11:49:32Z</time>
      </trkpt>
      <trkpt lat="42.889" lon="0.20438">
        <ele>2151.288753782</ele>
        <time>2016-10-16T11:49:37Z</time>
      </trkpt>
      <trkpt lat="42.88901" lon="0.2044">
        <ele>2151.288753782</ele>
        <time>2016-10-16T11:49:42Z</time>
      </trkpt>
      <trkpt lat="42.88901" lon="0.20443">
        <ele>2151.288753782</ele>
        <time>2016-10-16T11:49:47Z</time>
      </trkpt>
      <trkpt lat="42.889" lon="0.20443">
        <ele>2151.288753782</ele>
        <time>2016-10-16T11:49:52Z</time>
      </trkpt>
      <trkpt lat="42.88899" lon="0.20442">
        <ele>2151.288753782</ele>
        <time>2016-10-16T11:49:57Z</time>
      </trkpt>
      <trkpt lat="42.88899" lon="0.20441">
        <ele>2151.288753782</ele>
        <time>2016-10-16T11:50:02Z</time>
      </trkpt>
      <trkpt lat="42.889" lon="0.20442">
        <ele>2151.288753782</ele>
        <time>2016-10-16T11:50:07Z</time>
      </trkpt>
      <trkpt lat="42.88901" lon="0.20442">
        <ele>2151.288753782</ele>
        <time>2016-10-16T11:50:12Z</time>
      </trkpt>
      <trkpt lat="42.88901" lon="0.20442">
        <ele>2150.2682915362</ele>
        <time>2016-10-16T11:50:17Z</time>
      </trkpt>
      <trkpt lat="42.88901" lon="0.20441">
        <ele>2150.2682915362</ele>
        <time>2016-10-16T11:50:22Z</time>
      </trkpt>
      <trkpt lat="42.88901" lon="0.20441">
        <ele>2150.2682915362</ele>
        <time>2016-10-16T11:50:27Z</time>
      </trkpt>
      <trkpt lat="42.88902" lon="0.20441">
        <ele>2150.2682915362</ele>
        <time>2016-10-16T11:50:32Z</time>
      </trkpt>
      <trkpt lat="42.88902" lon="0.2044">
        <ele>2150.2682915362</ele>
        <time>2016-10-16T11:50:37Z</time>
      </trkpt>
      <trkpt lat="42.88902" lon="0.20441">
        <ele>2150.2682915362</ele>
        <time>2016-10-16T11:50:42Z</time>
      </trkpt>
      <trkpt lat="42.88902" lon="0.20441">
        <ele>2150.2682915362</ele>
        <time>2016-10-16T11:50:47Z</time>
      </trkpt>
      <trkpt lat="42.88902" lon="0.20441">
        <ele>2150.2682915362</ele>
        <time>2016-10-16T11:50:52Z</time>
      </trkpt>
      <trkpt lat="42.88902" lon="0.20441">
        <ele>2150.2682915362</ele>
        <time>2016-10-16T11:50:57Z</time>
      </trkpt>
      <trkpt lat="42.88902" lon="0.20441">
        <ele>2150.2682915362</ele>
        <time>2016-10-16T11:51:02Z</time>
      </trkpt>
      <trkpt lat="42.88903" lon="0.20441">
        <ele>2150.2682915362</ele>
        <time>2016-10-16T11:51:07Z</time>
      </trkpt>
      <trkpt lat="42.88903" lon="0.20441">
        <ele>2150.2682915362</ele>
        <time>2016-10-16T11:51:12Z</time>
      </trkpt>
      <trkpt lat="42.88904" lon="0.20444">
        <ele>2150.2682915362</ele>
        <time>2016-10-16T11:51:17Z</time>
      </trkpt>
      <trkpt lat="42.88905" lon="0.20446">
        <ele>2150.2682915362</ele>
        <time>2016-10-16T11:51:22Z</time>
      </trkpt>
      <trkpt lat="42.88906" lon="0.20447">
        <ele>2150.2682915362</ele>
        <time>2016-10-16T11:51:27Z</time>
      </trkpt>
      <trkpt lat="42.88906" lon="0.2045">
        <ele>2149.2044721725</ele>
        <time>2016-10-16T11:51:32Z</time>
      </trkpt>
      <trkpt lat="42.88907" lon="0.20457">
        <ele>2149.2044721725</ele>
        <time>2016-10-16T11:51:37Z</time>
      </trkpt>
      <trkpt lat="42.88907" lon="0.20462">
        <ele>2149.2044721725</ele>
        <time>2016-10-16T11:51:42Z</time>
      </trkpt>
      <trkpt lat="42.88905" lon="0.20467">
        <ele>2148.1771798662</ele>
        <time>2016-10-16T11:51:47Z</time>
      </trkpt>
      <trkpt lat="42.88902" lon="0.20468">
        <ele>2148.1771798662</ele>
        <time>2016-10-16T11:51:52Z</time>
      </trkpt>
      <trkpt lat="42.88901" lon="0.20469">
        <ele>2148.1771798662</ele>
        <time>2016-10-16T11:51:57Z</time>
      </trkpt>
      <trkpt lat="42.889" lon="0.20472">
        <ele>2148.1771798662</ele>
        <time>2016-10-16T11:52:02Z</time>
      </trkpt>
      <trkpt lat="42.88899" lon="0.2047">
        <ele>2148.1771798662</ele>
        <time>2016-10-16T11:52:07Z</time>
      </trkpt>
      <trkpt lat="42.88899" lon="0.20471">
        <ele>2147.1736864043</ele>
        <time>2016-10-16T11:52:12Z</time>
      </trkpt>
      <trkpt lat="42.889" lon="0.20477">
        <ele>2147.1736864043</ele>
        <time>2016-10-16T11:52:17Z</time>
      </trkpt>
      <trkpt lat="42.88899" lon="0.20479">
        <ele>2147.1736864043</ele>
        <time>2016-10-16T11:52:22Z</time>
      </trkpt>
      <trkpt lat="42.88898" lon="0.20482">
        <ele>2147.1736864043</ele>
        <time>2016-10-16T11:52:27Z</time>
      </trkpt>
      <trkpt lat="42.88896" lon="0.20487">
        <ele>2146.2107792866</ele>
        <time>2016-10-16T11:52:32Z</time>
      </trkpt>
      <trkpt lat="42.88894" lon="0.2049">
        <ele>2146.2107792866</ele>
        <time>2016-10-16T11:52:37Z</time>
      </trkpt>
      <trkpt lat="42.88893" lon="0.20493">
        <ele>2146.2107792866</ele>
        <time>2016-10-16T11:52:42Z</time>
      </trkpt>
      <trkpt lat="42.88892" lon="0.20496">
        <ele>2146.2107792866</ele>
        <time>2016-10-16T11:52:47Z</time>
      </trkpt>
      <trkpt lat="42.88889" lon="0.20498">
        <ele>2145.303725129</ele>
        <time>2016-10-16T11:52:52Z</time>
      </trkpt>
      <trkpt lat="42.88887" lon="0.20502">
        <ele>2145.303725129</ele>
        <time>2016-10-16T11:52:57Z</time>
      </trkpt>
      <trkpt lat="42.88887" lon="0.20503">
        <ele>2145.303725129</ele>
        <time>2016-10-16T11:53:02Z</time>
      </trkpt>
      <trkpt lat="42.88886" lon="0.20505">
        <ele>2145.303725129</ele>
        <time>2016-10-16T11:53:07Z</time>
      </trkpt>
      <trkpt lat="42.88885" lon="0.2051">
        <ele>2144.4663403277</ele>
        <time>2016-10-16T11:53:12Z</time>
      </trkpt>
      <trkpt lat="42.88882" lon="0.20512">
        <ele>2144.4663403277</ele>
        <time>2016-10-16T11:53:17Z</time>
      </trkpt>
      <trkpt lat="42.88878" lon="0.20514">
        <ele>2144.4663403277</ele>
        <time>2016-10-16T11:53:22Z</time>
      </trkpt>
      <trkpt lat="42.88874" lon="0.20517">
        <ele>2143.6966503097</ele>
        <time>2016-10-16T11:53:27Z</time>
      </trkpt>
      <trkpt lat="42.88871" lon="0.20519">
        <ele>2143.6966503097</ele>
        <time>2016-10-16T11:53:32Z</time>
      </trkpt>
      <trkpt lat="42.88869" lon="0.20519">
        <ele>2143.6966503097</ele>
        <time>2016-10-16T11:53:37Z</time>
      </trkpt>
      <trkpt lat="42.88868" lon="0.2052">
        <ele>2143.6966503097</ele>
        <time>2016-10-16T11:53:42Z</time>
      </trkpt>
      <trkpt lat="42.88866" lon="0.2052">
        <ele>2143.0068807483</ele>
        <time>2016-10-16T11:53:47Z</time>
      </trkpt>
      <trkpt lat="42.8886" lon="0.2052">
        <ele>2143.0068807483</ele>
        <time>2016-10-16T11:53:52Z</time>
      </trkpt>
      <trkpt lat="42.8886" lon="0.2052">
        <ele>2143.0068807483</ele>
        <time>2016-10-16T11:53:57Z</time>
      </trkpt>
      <trkpt lat="42.88857" lon="0.20519">
        <ele>2143.0068807483</ele>
        <time>2016-10-16T11:54:02Z</time>
      </trkpt>
      <trkpt lat="42.88852" lon="0.2052">
        <ele>2142.3935621741</ele>
        <time>2016-10-16T11:54:07Z</time>
      </trkpt>
      <trkpt lat="42.88849" lon="0.20519">
        <ele>2142.3935621741</ele>
        <time>2016-10-16T11:54:12Z</time>
      </trkpt>
      <trkpt lat="42.88846" lon="0.2052">
        <ele>2142.3935621741</ele>
        <time>2016-10-16T11:54:17Z</time>
      </trkpt>
      <trkpt lat="42.88843" lon="0.20521">
        <ele>2141.853108848</ele>
        <time>2016-10-16T11:54:22Z</time>
      </trkpt>
      <trkpt lat="42.88841" lon="0.20523">
        <ele>2141.853108848</ele>
        <time>2016-10-16T11:54:27Z</time>
      </trkpt>
      <trkpt lat="42.8884" lon="0.20522">
        <ele>2141.853108848</ele>
        <time>2016-10-16T11:54:32Z</time>
      </trkpt>
      <trkpt lat="42.88838" lon="0.20521">
        <ele>2141.853108848</ele>
        <time>2016-10-16T11:54:37Z</time>
      </trkpt>
      <trkpt lat="42.88835" lon="0.20519">
        <ele>2141.853108848</ele>
        <time>2016-10-16T11:54:42Z</time>
      </trkpt>
      <trkpt lat="42.88833" lon="0.20519">
        <ele>2141.3818431436</ele>
        <time>2016-10-16T11:54:47Z</time>
      </trkpt>
      <trkpt lat="42.88832" lon="0.2052">
        <ele>2141.3818431436</ele>
        <time>2016-10-16T11:54:52Z</time>
      </trkpt>
      <trkpt lat="42.88828" lon="0.2052">
        <ele>2141.3818431436</ele>
        <time>2016-10-16T11:54:57Z</time>
      </trkpt>
      <trkpt lat="42.88824" lon="0.20523">
        <ele>2140.97601903</ele>
        <time>2016-10-16T11:55:02Z</time>
      </trkpt>
      <trkpt lat="42.88821" lon="0.20525">
        <ele>2140.97601903</ele>
        <time>2016-10-16T11:55:07Z</time>
      </trkpt>
      <trkpt lat="42.88819" lon="0.20524">
        <ele>2140.97601903</ele>
        <time>2016-10-16T11:55:12Z</time>
      </trkpt>
      <trkpt lat="42.88816" lon="0.20523">
        <ele>2140.97601903</ele>
        <time>2016-10-16T11:55:17Z</time>
      </trkpt>
      <trkpt lat="42.88813" lon="0.20523">
        <ele>2140.6318445548</ele>
        <time>2016-10-16T11:55:22Z</time>
      </trkpt>
      <trkpt lat="42.88809" lon="0.20523">
        <ele>2140.6318445548</ele>
        <time>2016-10-16T11:55:27Z</time>
      </trkpt>
      <trkpt lat="42.88806" lon="0.20528">
        <ele>2140.6318445548</ele>
        <time>2016-10-16T11:55:32Z</time>
      </trkpt>
      <trkpt lat="42.88802" lon="0.20526">
        <ele>2140.3455032463</ele>
        <time>2016-10-16T11:55:37Z</time>
      </trkpt>
      <trkpt lat="42.88798" lon="0.20527">
        <ele>2140.3455032463</ele>
        <time>2016-10-16T11:55:42Z</time>
      </trkpt>
      <trkpt lat="42.88796" lon="0.20528">
        <ele>2140.3455032463</ele>
        <time>2016-10-16T11:55:47Z</time>
      </trkpt>
      <trkpt lat="42.88793" lon="0.20527">
        <ele>2140.1131743644</ele>
        <time>2016-10-16T11:55:52Z</time>
      </trkpt>
      <trkpt lat="42.88789" lon="0.20525">
        <ele>2140.1131743644</ele>
        <time>2016-10-16T11:55:57Z</time>
      </trkpt>
      <trkpt lat="42.88786" lon="0.20524">
        <ele>2140.1131743644</ele>
        <time>2016-10-16T11:56:02Z</time>
      </trkpt>
      <trkpt lat="42.88783" lon="0.20525">
        <ele>2139.931051947</ele>
        <time>2016-10-16T11:56:07Z</time>
      </trkpt>
      <trkpt lat="42.8878" lon="0.20527">
        <ele>2139.931051947</ele>
        <time>2016-10-16T11:56:12Z</time>
      </trkpt>
      <trkpt lat="42.88778" lon="0.20528">
        <ele>2139.931051947</ele>
        <time>2016-10-16T11:56:17Z</time>
      </trkpt>
      <trkpt lat="42.88775" lon="0.20527">
        <ele>2139.7809514671</ele>
        <time>2016-10-16T11:56:22Z</time>
      </trkpt>
      <trkpt lat="42.88771" lon="0.20522">
        <ele>2139.7809514671</ele>
        <time>2016-10-16T11:56:27Z</time>
      </trkpt>
      <trkpt lat="42.8877" lon="0.20521">
        <ele>2139.7809514671</ele>
        <time>2016-10-16T11:56:32Z</time>
      </trkpt>
      <trkpt lat="42.88767" lon="0.20521">
        <ele>2139.6746587246</ele>
        <time>2016-10-16T11:56:37Z</time>
      </trkpt>
      <trkpt lat="42.88766" lon="0.20521">
        <ele>2139.6746587246</ele>
        <time>2016-10-16T11:56:42Z</time>
      </trkpt>
      <trkpt lat="42.88764" lon="0.20522">
        <ele>2139.6746587246</ele>
        <time>2016-10-16T11:56:47Z</time>
      </trkpt>
      <trkpt lat="42.88763" lon="0.20522">
        <ele>2139.6746587246</ele>
        <time>2016-10-16T11:56:52Z</time>
      </trkpt>
      <trkpt lat="42.88762" lon="0.20525">
        <ele>2139.6746587246</ele>
        <time>2016-10-16T11:56:57Z</time>
      </trkpt>
      <trkpt lat="42.88762" lon="0.20527">
        <ele>2139.6746587246</ele>
        <time>2016-10-16T11:57:02Z</time>
      </trkpt>
      <trkpt lat="42.88761" lon="0.20526">
        <ele>2139.6746587246</ele>
        <time>2016-10-16T11:57:07Z</time>
      </trkpt>
      <trkpt lat="42.88756" lon="0.20526">
        <ele>2139.5940590105</ele>
        <time>2016-10-16T11:57:12Z</time>
      </trkpt>
      <trkpt lat="42.88754" lon="0.20526">
        <ele>2139.5940590105</ele>
        <time>2016-10-16T11:57:17Z</time>
      </trkpt>
      <trkpt lat="42.88753" lon="0.20525">
        <ele>2139.5940590105</ele>
        <time>2016-10-16T11:57:22Z</time>
      </trkpt>
      <trkpt lat="42.88752" lon="0.20525">
        <ele>2139.5940590105</ele>
        <time>2016-10-16T11:57:27Z</time>
      </trkpt>
      <trkpt lat="42.8875" lon="0.20525">
        <ele>2139.5940590105</ele>
        <time>2016-10-16T11:57:32Z</time>
      </trkpt>
      <trkpt lat="42.88747" lon="0.20528">
        <ele>2139.5366259784</ele>
        <time>2016-10-16T11:57:37Z</time>
      </trkpt>
      <trkpt lat="42.88745" lon="0.20529">
        <ele>2139.5366259784</ele>
        <time>2016-10-16T11:57:42Z</time>
      </trkpt>
      <trkpt lat="42.88744" lon="0.20531">
        <ele>2139.5366259784</ele>
        <time>2016-10-16T11:57:47Z</time>
      </trkpt>
      <trkpt lat="42.88743" lon="0.20532">
        <ele>2139.5366259784</ele>
        <time>2016-10-16T11:57:52Z</time>
      </trkpt>
      <trkpt lat="42.88742" lon="0.20535">
        <ele>2139.5366259784</ele>
        <time>2016-10-16T11:57:57Z</time>
      </trkpt>
      <trkpt lat="42.88741" lon="0.20539">
        <ele>2139.5142917451</ele>
        <time>2016-10-16T11:58:02Z</time>
      </trkpt>
      <trkpt lat="42.88738" lon="0.20537">
        <ele>2139.5142917451</ele>
        <time>2016-10-16T11:58:07Z</time>
      </trkpt>
      <trkpt lat="42.88734" lon="0.20533">
        <ele>2139.5142917451</ele>
        <time>2016-10-16T11:58:12Z</time>
      </trkpt>
      <trkpt lat="42.88733" lon="0.20532">
        <ele>2139.5235370617</ele>
        <time>2016-10-16T11:58:17Z</time>
      </trkpt>
      <trkpt lat="42.8873" lon="0.20533">
        <ele>2139.5235370617</ele>
        <time>2016-10-16T11:58:22Z</time>
      </trkpt>
      <trkpt lat="42.88728" lon="0.20534">
        <ele>2139.5235370617</ele>
        <time>2016-10-16T11:58:27Z</time>
      </trkpt>
      <trkpt lat="42.88725" lon="0.20534">
        <ele>2139.5235370617</ele>
        <time>2016-10-16T11:58:32Z</time>
      </trkpt>
      <trkpt lat="42.88722" lon="0.20533">
        <ele>2139.5465440304</ele>
        <time>2016-10-16T11:58:37Z</time>
      </trkpt>
      <trkpt lat="42.88722" lon="0.20532">
        <ele>2139.5465440304</ele>
        <time>2016-10-16T11:58:42Z</time>
      </trkpt>
      <trkpt lat="42.8872" lon="0.20533">
        <ele>2139.5465440304</ele>
        <time>2016-10-16T11:58:47Z</time>
      </trkpt>
      <trkpt lat="42.88719" lon="0.20532">
        <ele>2139.5465440304</ele>
        <time>2016-10-16T11:58:52Z</time>
      </trkpt>
      <trkpt lat="42.88717" lon="0.20531">
        <ele>2139.5465440304</ele>
        <time>2016-10-16T11:58:57Z</time>
      </trkpt>
      <trkpt lat="42.88717" lon="0.20533">
        <ele>2139.5465440304</ele>
        <time>2016-10-16T11:59:02Z</time>
      </trkpt>
      <trkpt lat="42.88716" lon="0.20535">
        <ele>2139.5667151311</ele>
        <time>2016-10-16T11:59:07Z</time>
      </trkpt>
      <trkpt lat="42.88713" lon="0.20536">
        <ele>2139.5667151311</ele>
        <time>2016-10-16T11:59:12Z</time>
      </trkpt>
      <trkpt lat="42.88711" lon="0.20536">
        <ele>2139.5667151311</ele>
        <time>2016-10-16T11:59:17Z</time>
      </trkpt>
      <trkpt lat="42.88709" lon="0.20536">
        <ele>2139.5667151311</ele>
        <time>2016-10-16T11:59:22Z</time>
      </trkpt>
      <trkpt lat="42.88707" lon="0.20536">
        <ele>2139.5667151311</ele>
        <time>2016-10-16T11:59:27Z</time>
      </trkpt>
      <trkpt lat="42.88706" lon="0.20533">
        <ele>2139.5974596508</ele>
        <time>2016-10-16T11:59:32Z</time>
      </trkpt>
      <trkpt lat="42.88706" lon="0.20532">
        <ele>2139.5974596508</ele>
        <time>2016-10-16T11:59:37Z</time>
      </trkpt>
      <trkpt lat="42.88705" lon="0.20532">
        <ele>2139.5974596508</ele>
        <time>2016-10-16T11:59:42Z</time>
      </trkpt>
      <trkpt lat="42.88702" lon="0.20538">
        <ele>2139.5974596508</ele>
        <time>2016-10-16T11:59:47Z</time>
      </trkpt>
      <trkpt lat="42.88697" lon="0.20539">
        <ele>2139.6367253849</ele>
        <time>2016-10-16T11:59:52Z</time>
      </trkpt>
      <trkpt lat="42.88695" lon="0.20539">
        <ele>2139.6367253849</ele>
        <time>2016-10-16T11:59:57Z</time>
      </trkpt>
      <trkpt lat="42.88693" lon="0.20541">
        <ele>2139.6367253849</ele>
        <time>2016-10-16T12:00:02Z</time>
      </trkpt>
      <trkpt lat="42.8869" lon="0.20544">
        <ele>2139.6367253849</ele>
        <time>2016-10-16T12:00:07Z</time>
      </trkpt>
      <trkpt lat="42.88689" lon="0.20543">
        <ele>2139.6367253849</ele>
        <time>2016-10-16T12:00:12Z</time>
      </trkpt>
      <trkpt lat="42.88686" lon="0.20545">
        <ele>2139.6537356063</ele>
        <time>2016-10-16T12:00:17Z</time>
      </trkpt>
      <trkpt lat="42.8868" lon="0.20547">
        <ele>2139.6537356063</ele>
        <time>2016-10-16T12:00:22Z</time>
      </trkpt>
      <trkpt lat="42.88676" lon="0.20548">
        <ele>2139.6920694736</ele>
        <time>2016-10-16T12:00:27Z</time>
      </trkpt>
      <trkpt lat="42.88673" lon="0.20546">
        <ele>2139.6920694736</ele>
        <time>2016-10-16T12:00:32Z</time>
      </trkpt>
      <trkpt lat="42.8867" lon="0.20544">
        <ele>2139.6920694736</ele>
        <time>2016-10-16T12:00:37Z</time>
      </trkpt>
      <trkpt lat="42.88667" lon="0.20543">
        <ele>2139.734383378</ele>
        <time>2016-10-16T12:00:42Z</time>
      </trkpt>
      <trkpt lat="42.88666" lon="0.20543">
        <ele>2139.734383378</ele>
        <time>2016-10-16T12:00:47Z</time>
      </trkpt>
      <trkpt lat="42.88666" lon="0.2055">
        <ele>2139.734383378</ele>
        <time>2016-10-16T12:00:52Z</time>
      </trkpt>
      <trkpt lat="42.88664" lon="0.20553">
        <ele>2139.734383378</ele>
        <time>2016-10-16T12:00:57Z</time>
      </trkpt>
      <trkpt lat="42.88663" lon="0.20554">
        <ele>2139.764584808</ele>
        <time>2016-10-16T12:01:02Z</time>
      </trkpt>
      <trkpt lat="42.88659" lon="0.20557">
        <ele>2139.764584808</ele>
        <time>2016-10-16T12:01:07Z</time>
      </trkpt>
      <trkpt lat="42.88656" lon="0.20563">
        <ele>2139.8110239903</ele>
        <time>2016-10-16T12:01:12Z</time>
      </trkpt>
      <trkpt lat="42.88655" lon="0.20562">
        <ele>2139.8110239903</ele>
        <time>2016-10-16T12:01:17Z</time>
      </trkpt>
      <trkpt lat="42.88651" lon="0.20566">
        <ele>2139.8110239903</ele>
        <time>2016-10-16T12:01:22Z</time>
      </trkpt>
      <trkpt lat="42.8865" lon="0.20568">
        <ele>2139.8110239903</ele>
        <time>2016-10-16T12:01:27Z</time>
      </trkpt>
      <trkpt lat="42.8865" lon="0.20565">
        <ele>2139.8422764984</ele>
        <time>2016-10-16T12:01:32Z</time>
      </trkpt>
      <trkpt lat="42.88646" lon="0.20563">
        <ele>2139.8422764984</ele>
        <time>2016-10-16T12:01:37Z</time>
      </trkpt>
      <trkpt lat="42.88644" lon="0.20565">
        <ele>2139.8422764984</ele>
        <time>2016-10-16T12:01:42Z</time>
      </trkpt>
      <trkpt lat="42.8864" lon="0.20567">
        <ele>2139.8725045691</ele>
        <time>2016-10-16T12:01:47Z</time>
      </trkpt>
      <trkpt lat="42.8864" lon="0.20569">
        <ele>2139.8725045691</ele>
        <time>2016-10-16T12:01:52Z</time>
      </trkpt>
      <trkpt lat="42.88638" lon="0.20573">
        <ele>2139.8725045691</ele>
        <time>2016-10-16T12:01:57Z</time>
      </trkpt>
      <trkpt lat="42.88638" lon="0.20577">
        <ele>2139.8725045691</ele>
        <time>2016-10-16T12:02:02Z</time>
      </trkpt>
      <trkpt lat="42.88637" lon="0.2058">
        <ele>2139.8716058302</ele>
        <time>2016-10-16T12:02:07Z</time>
      </trkpt>
      <trkpt lat="42.88634" lon="0.20587">
        <ele>2139.8716058302</ele>
        <time>2016-10-16T12:02:12Z</time>
      </trkpt>
      <trkpt lat="42.88633" lon="0.20593">
        <ele>2139.8982530519</ele>
        <time>2016-10-16T12:02:17Z</time>
      </trkpt>
      <trkpt lat="42.88633" lon="0.20595">
        <ele>2139.8982530519</ele>
        <time>2016-10-16T12:02:22Z</time>
      </trkpt>
      <trkpt lat="42.88631" lon="0.206">
        <ele>2139.8982530519</ele>
        <time>2016-10-16T12:02:27Z</time>
      </trkpt>
      <trkpt lat="42.88629" lon="0.20605">
        <ele>2139.9202780246</ele>
        <time>2016-10-16T12:02:32Z</time>
      </trkpt>
      <trkpt lat="42.88627" lon="0.20609">
        <ele>2139.9202780246</ele>
        <time>2016-10-16T12:02:37Z</time>
      </trkpt>
      <trkpt lat="42.88624" lon="0.20609">
        <ele>2139.9202780246</ele>
        <time>2016-10-16T12:02:42Z</time>
      </trkpt>
      <trkpt lat="42.88621" lon="0.20614">
        <ele>2139.9367267902</ele>
        <time>2016-10-16T12:02:47Z</time>
      </trkpt>
      <trkpt lat="42.8862" lon="0.20619">
        <ele>2139.9367267902</ele>
        <time>2016-10-16T12:02:52Z</time>
      </trkpt>
      <trkpt lat="42.88618" lon="0.20621">
        <ele>2139.9367267902</ele>
        <time>2016-10-16T12:02:57Z</time>
      </trkpt>
      <trkpt lat="42.88615" lon="0.20625">
        <ele>2139.9323386071</ele>
        <time>2016-10-16T12:03:02Z</time>
      </trkpt>
      <trkpt lat="42.88615" lon="0.20624">
        <ele>2139.9323386071</ele>
        <time>2016-10-16T12:03:07Z</time>
      </trkpt>
      <trkpt lat="42.88614" lon="0.20625">
        <ele>2139.9323386071</ele>
        <time>2016-10-16T12:03:12Z</time>
      </trkpt>
      <trkpt lat="42.88614" lon="0.20625">
        <ele>2139.9323386071</ele>
        <time>2016-10-16T12:03:17Z</time>
      </trkpt>
      <trkpt lat="42.88612" lon="0.20623">
        <ele>2139.9323386071</ele>
        <time>2016-10-16T12:03:22Z</time>
      </trkpt>
      <trkpt lat="42.8861" lon="0.20623">
        <ele>2139.9323386071</ele>
        <time>2016-10-16T12:03:27Z</time>
      </trkpt>
      <trkpt lat="42.88607" lon="0.20625">
        <ele>2139.8786419957</ele>
        <time>2016-10-16T12:03:32Z</time>
      </trkpt>
      <trkpt lat="42.88605" lon="0.20628">
        <ele>2139.8786419957</ele>
        <time>2016-10-16T12:03:37Z</time>
      </trkpt>
      <trkpt lat="42.88602" lon="0.20633">
        <ele>2139.8786419957</ele>
        <time>2016-10-16T12:03:42Z</time>
      </trkpt>
      <trkpt lat="42.886" lon="0.20636">
        <ele>2139.8214736603</ele>
        <time>2016-10-16T12:03:47Z</time>
      </trkpt>
      <trkpt lat="42.886" lon="0.20636">
        <ele>2139.8214736603</ele>
        <time>2016-10-16T12:03:52Z</time>
      </trkpt>
      <trkpt lat="42.886" lon="0.20639">
        <ele>2139.8214736603</ele>
        <time>2016-10-16T12:03:57Z</time>
      </trkpt>
      <trkpt lat="42.88601" lon="0.2064">
        <ele>2139.8214736603</ele>
        <time>2016-10-16T12:04:02Z</time>
      </trkpt>
      <trkpt lat="42.88599" lon="0.2064">
        <ele>2139.8214736603</ele>
        <time>2016-10-16T12:04:07Z</time>
      </trkpt>
      <trkpt lat="42.88598" lon="0.20641">
        <ele>2139.8214736603</ele>
        <time>2016-10-16T12:04:12Z</time>
      </trkpt>
      <trkpt lat="42.88597" lon="0.20639">
        <ele>2139.8214736603</ele>
        <time>2016-10-16T12:04:17Z</time>
      </trkpt>
      <trkpt lat="42.88593" lon="0.20639">
        <ele>2139.7456927146</ele>
        <time>2016-10-16T12:04:22Z</time>
      </trkpt>
      <trkpt lat="42.88592" lon="0.20639">
        <ele>2139.7456927146</ele>
        <time>2016-10-16T12:04:27Z</time>
      </trkpt>
      <trkpt lat="42.8859" lon="0.2064">
        <ele>2139.7456927146</ele>
        <time>2016-10-16T12:04:32Z</time>
      </trkpt>
      <trkpt lat="42.88587" lon="0.20642">
        <ele>2139.7456927146</ele>
        <time>2016-10-16T12:04:37Z</time>
      </trkpt>
      <trkpt lat="42.88586" lon="0.20644">
        <ele>2139.7456927146</ele>
        <time>2016-10-16T12:04:42Z</time>
      </trkpt>
      <trkpt lat="42.88586" lon="0.20641">
        <ele>2139.6517592367</ele>
        <time>2016-10-16T12:04:47Z</time>
      </trkpt>
      <trkpt lat="42.88581" lon="0.20641">
        <ele>2139.6517592367</ele>
        <time>2016-10-16T12:04:52Z</time>
      </trkpt>
      <trkpt lat="42.88582" lon="0.20643">
        <ele>2139.6517592367</ele>
        <time>2016-10-16T12:04:57Z</time>
      </trkpt>
      <trkpt lat="42.88581" lon="0.20644">
        <ele>2139.6517592367</ele>
        <time>2016-10-16T12:05:02Z</time>
      </trkpt>
      <trkpt lat="42.88578" lon="0.20646">
        <ele>2139.5401766139</ele>
        <time>2016-10-16T12:05:07Z</time>
      </trkpt>
      <trkpt lat="42.88578" lon="0.20649">
        <ele>2139.5401766139</ele>
        <time>2016-10-16T12:05:12Z</time>
      </trkpt>
      <trkpt lat="42.88575" lon="0.20652">
        <ele>2139.5401766139</ele>
        <time>2016-10-16T12:05:17Z</time>
      </trkpt>
      <trkpt lat="42.8857" lon="0.20656">
        <ele>2139.4114874659</ele>
        <time>2016-10-16T12:05:22Z</time>
      </trkpt>
      <trkpt lat="42.88567" lon="0.20653">
        <ele>2139.4114874659</ele>
        <time>2016-10-16T12:05:27Z</time>
      </trkpt>
      <trkpt lat="42.88565" lon="0.20651">
        <ele>2139.4114874659</ele>
        <time>2016-10-16T12:05:32Z</time>
      </trkpt>
      <trkpt lat="42.88565" lon="0.20652">
        <ele>2139.4114874659</ele>
        <time>2016-10-16T12:05:37Z</time>
      </trkpt>
      <trkpt lat="42.88565" lon="0.20652">
        <ele>2139.4114874659</ele>
        <time>2016-10-16T12:05:42Z</time>
      </trkpt>
      <trkpt lat="42.88566" lon="0.20652">
        <ele>2139.4114874659</ele>
        <time>2016-10-16T12:05:47Z</time>
      </trkpt>
      <trkpt lat="42.88563" lon="0.20655">
        <ele>2139.2662694892</ele>
        <time>2016-10-16T12:05:52Z</time>
      </trkpt>
      <trkpt lat="42.8856" lon="0.20657">
        <ele>2139.2662694892</ele>
        <time>2016-10-16T12:05:57Z</time>
      </trkpt>
      <trkpt lat="42.88557" lon="0.20659">
        <ele>2139.2662694892</ele>
        <time>2016-10-16T12:06:02Z</time>
      </trkpt>
      <trkpt lat="42.88553" lon="0.2066">
        <ele>2139.1051312614</ele>
        <time>2016-10-16T12:06:07Z</time>
      </trkpt>
      <trkpt lat="42.88548" lon="0.2066">
        <ele>2139.1051312614</ele>
        <time>2016-10-16T12:06:12Z</time>
      </trkpt>
      <trkpt lat="42.88544" lon="0.20661">
        <ele>2139.1051312614</ele>
        <time>2016-10-16T12:06:17Z</time>
      </trkpt>
      <trkpt lat="42.88539" lon="0.20661">
        <ele>2138.9287080467</ele>
        <time>2016-10-16T12:06:22Z</time>
      </trkpt>
      <trkpt lat="42.88534" lon="0.20662">
        <ele>2138.9287080467</ele>
        <time>2016-10-16T12:06:27Z</time>
      </trkpt>
      <trkpt lat="42.88529" lon="0.2066">
        <ele>2138.7520687763</ele>
        <time>2016-10-16T12:06:32Z</time>
      </trkpt>
      <trkpt lat="42.88526" lon="0.20659">
        <ele>2138.7520687763</ele>
        <time>2016-10-16T12:06:37Z</time>
      </trkpt>
      <trkpt lat="42.88524" lon="0.20656">
        <ele>2138.7520687763</ele>
        <time>2016-10-16T12:06:42Z</time>
      </trkpt>
      <trkpt lat="42.88524" lon="0.20653">
        <ele>2138.7520687763</ele>
        <time>2016-10-16T12:06:47Z</time>
      </trkpt>
      <trkpt lat="42.88525" lon="0.20648">
        <ele>2138.5603795823</ele>
        <time>2016-10-16T12:06:52Z</time>
      </trkpt>
      <trkpt lat="42.88526" lon="0.20641">
        <ele>2138.5603795823</ele>
        <time>2016-10-16T12:06:57Z</time>
      </trkpt>
      <trkpt lat="42.88527" lon="0.20637">
        <ele>2138.5603795823</ele>
        <time>2016-10-16T12:07:02Z</time>
      </trkpt>
      <trkpt lat="42.88529" lon="0.20631">
        <ele>2138.368785856</ele>
        <time>2016-10-16T12:07:07Z</time>
      </trkpt>
      <trkpt lat="42.88529" lon="0.20627">
        <ele>2138.368785856</ele>
        <time>2016-10-16T12:07:12Z</time>
      </trkpt>
      <trkpt lat="42.88529" lon="0.20625">
        <ele>2138.368785856</ele>
        <time>2016-10-16T12:07:17Z</time>
      </trkpt>
      <trkpt lat="42.88529" lon="0.20625">
        <ele>2138.368785856</ele>
        <time>2016-10-16T12:07:22Z</time>
      </trkpt>
      <trkpt lat="42.88528" lon="0.20621">
        <ele>2138.368785856</ele>
        <time>2016-10-16T12:07:27Z</time>
      </trkpt>
      <trkpt lat="42.88527" lon="0.20616">
        <ele>2138.1481111272</ele>
        <time>2016-10-16T12:07:32Z</time>
      </trkpt>
      <trkpt lat="42.88526" lon="0.20615">
        <ele>2138.1481111272</ele>
        <time>2016-10-16T12:07:37Z</time>
      </trkpt>
      <trkpt lat="42.88525" lon="0.20611">
        <ele>2138.1481111272</ele>
        <time>2016-10-16T12:07:42Z</time>
      </trkpt>
      <trkpt lat="42.88524" lon="0.20607">
        <ele>2138.1481111272</ele>
        <time>2016-10-16T12:07:47Z</time>
      </trkpt>
      <trkpt lat="42.88521" lon="0.20604">
        <ele>2137.9002494333</ele>
        <time>2016-10-16T12:07:52Z</time>
      </trkpt>
      <trkpt lat="42.8852" lon="0.20602">
        <ele>2137.9002494333</ele>
        <time>2016-10-16T12:07:57Z</time>
      </trkpt>
      <trkpt lat="42.88519" lon="0.20597">
        <ele>2137.9002494333</ele>
        <time>2016-10-16T12:08:02Z</time>
      </trkpt>
      <trkpt lat="42.88518" lon="0.20593">
        <ele>2137.6414654101</ele>
        <time>2016-10-16T12:08:07Z</time>
      </trkpt>
      <trkpt lat="42.88516" lon="0.20586">
        <ele>2137.6414654101</ele>
        <time>2016-10-16T12:08:12Z</time>
      </trkpt>
      <trkpt lat="42.88516" lon="0.20585">
        <ele>2137.6414654101</ele>
        <time>2016-10-16T12:08:17Z</time>
      </trkpt>
      <trkpt lat="42.88515" lon="0.20582">
        <ele>2137.6414654101</ele>
        <time>2016-10-16T12:08:22Z</time>
      </trkpt>
      <trkpt lat="42.88518" lon="0.20574">
        <ele>2137.3292361612</ele>
        <time>2016-10-16T12:08:27Z</time>
      </trkpt>
      <trkpt lat="42.88519" lon="0.20569">
        <ele>2137.3292361612</ele>
        <time>2016-10-16T12:08:32Z</time>
      </trkpt>
      <trkpt lat="42.88518" lon="0.20567">
        <ele>2137.3292361612</ele>
        <time>2016-10-16T12:08:37Z</time>
      </trkpt>
      <trkpt lat="42.88516" lon="0.20566">
        <ele>2137.3292361612</ele>
        <time>2016-10-16T12:08:42Z</time>
      </trkpt>
      <trkpt lat="42.88514" lon="0.20565">
        <ele>2137.010798779</ele>
        <time>2016-10-16T12:08:47Z</time>
      </trkpt>
      <trkpt lat="42.88514" lon="0.20563">
        <ele>2137.010798779</ele>
        <time>2016-10-16T12:08:52Z</time>
      </trkpt>
      <trkpt lat="42.88513" lon="0.20561">
        <ele>2137.010798779</ele>
        <time>2016-10-16T12:08:57Z</time>
      </trkpt>
      <trkpt lat="42.88512" lon="0.20558">
        <ele>2137.010798779</ele>
        <time>2016-10-16T12:09:02Z</time>
      </trkpt>
      <trkpt lat="42.88513" lon="0.20558">
        <ele>2137.010798779</ele>
        <time>2016-10-16T12:09:07Z</time>
      </trkpt>
      <trkpt lat="42.88513" lon="0.20558">
        <ele>2137.010798779</ele>
        <time>2016-10-16T12:09:12Z</time>
      </trkpt>
      <trkpt lat="42.88511" lon="0.20557">
        <ele>2137.010798779</ele>
        <time>2016-10-16T12:09:17Z</time>
      </trkpt>
      <trkpt lat="42.8851" lon="0.20555">
        <ele>2136.6290779296</ele>
        <time>2016-10-16T12:09:22Z</time>
      </trkpt>
      <trkpt lat="42.88507" lon="0.20555">
        <ele>2136.6290779296</ele>
        <time>2016-10-16T12:09:27Z</time>
      </trkpt>
      <trkpt lat="42.88502" lon="0.20557">
        <ele>2136.6290779296</ele>
        <time>2016-10-16T12:09:32Z</time>
      </trkpt>
      <trkpt lat="42.88499" lon="0.20557">
        <ele>2136.2322624875</ele>
        <time>2016-10-16T12:09:37Z</time>
      </trkpt>
      <trkpt lat="42.88497" lon="0.20555">
        <ele>2136.2322624875</ele>
        <time>2016-10-16T12:09:42Z</time>
      </trkpt>
      <trkpt lat="42.88495" lon="0.20554">
        <ele>2136.2322624875</ele>
        <time>2016-10-16T12:09:47Z</time>
      </trkpt>
      <trkpt lat="42.8849" lon="0.20553">
        <ele>2135.8506468124</ele>
        <time>2016-10-16T12:09:52Z</time>
      </trkpt>
      <trkpt lat="42.88487" lon="0.20549">
        <ele>2135.8506468124</ele>
        <time>2016-10-16T12:09:57Z</time>
      </trkpt>
      <trkpt lat="42.88486" lon="0.20544">
        <ele>2135.8506468124</ele>
        <time>2016-10-16T12:10:02Z</time>
      </trkpt>
      <trkpt lat="42.88482" lon="0.20541">
        <ele>2135.4834471963</ele>
        <time>2016-10-16T12:10:07Z</time>
      </trkpt>
      <trkpt lat="42.88478" lon="0.20537">
        <ele>2135.4834471963</ele>
        <time>2016-10-16T12:10:12Z</time>
      </trkpt>
      <trkpt lat="42.88476" lon="0.20537">
        <ele>2135.4834471963</ele>
        <time>2016-10-16T12:10:17Z</time>
      </trkpt>
      <trkpt lat="42.88474" lon="0.2054">
        <ele>2135.1587296544</ele>
        <time>2016-10-16T12:10:22Z</time>
      </trkpt>
      <trkpt lat="42.88471" lon="0.20536">
        <ele>2135.1587296544</ele>
        <time>2016-10-16T12:10:27Z</time>
      </trkpt>
      <trkpt lat="42.88468" lon="0.20538">
        <ele>2135.1587296544</ele>
        <time>2016-10-16T12:10:32Z</time>
      </trkpt>
      <trkpt lat="42.88467" lon="0.20538">
        <ele>2135.1587296544</ele>
        <time>2016-10-16T12:10:37Z</time>
      </trkpt>
      <trkpt lat="42.8847" lon="0.20528">
        <ele>2134.873565866</ele>
        <time>2016-10-16T12:10:42Z</time>
      </trkpt>
      <trkpt lat="42.88472" lon="0.20527">
        <ele>2134.873565866</ele>
        <time>2016-10-16T12:10:47Z</time>
      </trkpt>
      <trkpt lat="42.88472" lon="0.20529">
        <ele>2134.873565866</ele>
        <time>2016-10-16T12:10:52Z</time>
      </trkpt>
      <trkpt lat="42.88471" lon="0.20529">
        <ele>2134.873565866</ele>
        <time>2016-10-16T12:10:57Z</time>
      </trkpt>
      <trkpt lat="42.88471" lon="0.2053">
        <ele>2134.873565866</ele>
        <time>2016-10-16T12:11:02Z</time>
      </trkpt>
      <trkpt lat="42.88468" lon="0.2053">
        <ele>2134.873565866</ele>
        <time>2016-10-16T12:11:07Z</time>
      </trkpt>
      <trkpt lat="42.88467" lon="0.2053">
        <ele>2134.873565866</ele>
        <time>2016-10-16T12:11:12Z</time>
      </trkpt>
      <trkpt lat="42.88465" lon="0.20528">
        <ele>2134.6683726445</ele>
        <time>2016-10-16T12:11:17Z</time>
      </trkpt>
      <trkpt lat="42.88462" lon="0.20527">
        <ele>2134.6683726445</ele>
        <time>2016-10-16T12:11:22Z</time>
      </trkpt>
      <trkpt lat="42.88464" lon="0.20528">
        <ele>2134.6683726445</ele>
        <time>2016-10-16T12:11:27Z</time>
      </trkpt>
      <trkpt lat="42.88464" lon="0.20523">
        <ele>2134.6683726445</ele>
        <time>2016-10-16T12:11:32Z</time>
      </trkpt>
      <trkpt lat="42.88463" lon="0.2052">
        <ele>2134.5371470822</ele>
        <time>2016-10-16T12:11:37Z</time>
      </trkpt>
      <trkpt lat="42.88466" lon="0.20514">
        <ele>2134.5371470822</ele>
        <time>2016-10-16T12:11:42Z</time>
      </trkpt>
      <trkpt lat="42.88467" lon="0.20514">
        <ele>2134.5371470822</ele>
        <time>2016-10-16T12:11:47Z</time>
      </trkpt>
      <trkpt lat="42.8847" lon="0.2051">
        <ele>2134.4597154454</ele>
        <time>2016-10-16T12:11:52Z</time>
      </trkpt>
      <trkpt lat="42.88471" lon="0.20508">
        <ele>2134.4597154454</ele>
        <time>2016-10-16T12:11:57Z</time>
      </trkpt>
      <trkpt lat="42.88471" lon="0.20505">
        <ele>2134.4597154454</ele>
        <time>2016-10-16T12:12:02Z</time>
      </trkpt>
      <trkpt lat="42.88473" lon="0.20499">
        <ele>2134.4597154454</ele>
        <time>2016-10-16T12:12:07Z</time>
      </trkpt>
      <trkpt lat="42.88473" lon="0.20499">
        <ele>2134.4597154454</ele>
        <time>2016-10-16T12:12:12Z</time>
      </trkpt>
      <trkpt lat="42.88474" lon="0.20498">
        <ele>2134.4460644938</ele>
        <time>2016-10-16T12:12:17Z</time>
      </trkpt>
      <trkpt lat="42.88476" lon="0.20493">
        <ele>2134.4460644938</ele>
        <time>2016-10-16T12:12:22Z</time>
      </trkpt>
      <trkpt lat="42.88477" lon="0.20491">
        <ele>2134.4460644938</ele>
        <time>2016-10-16T12:12:27Z</time>
      </trkpt>
      <trkpt lat="42.88479" lon="0.20488">
        <ele>2134.476454298</ele>
        <time>2016-10-16T12:12:32Z</time>
      </trkpt>
      <trkpt lat="42.88475" lon="0.20489">
        <ele>2134.476454298</ele>
        <time>2016-10-16T12:12:37Z</time>
      </trkpt>
      <trkpt lat="42.88475" lon="0.20489">
        <ele>2134.476454298</ele>
        <time>2016-10-16T12:12:42Z</time>
      </trkpt>
      <trkpt lat="42.88475" lon="0.20488">
        <ele>2134.476454298</ele>
        <time>2016-10-16T12:12:47Z</time>
      </trkpt>
      <trkpt lat="42.88475" lon="0.20485">
        <ele>2134.476454298</ele>
        <time>2016-10-16T12:12:52Z</time>
      </trkpt>
      <trkpt lat="42.88472" lon="0.20486">
        <ele>2134.5468919204</ele>
        <time>2016-10-16T12:12:57Z</time>
      </trkpt>
      <trkpt lat="42.88472" lon="0.20486">
        <ele>2134.5468919204</ele>
        <time>2016-10-16T12:13:02Z</time>
      </trkpt>
      <trkpt lat="42.88472" lon="0.20486">
        <ele>2134.5468919204</ele>
        <time>2016-10-16T12:13:07Z</time>
      </trkpt>
      <trkpt lat="42.88471" lon="0.20486">
        <ele>2134.5468919204</ele>
        <time>2016-10-16T12:13:12Z</time>
      </trkpt>
      <trkpt lat="42.88468" lon="0.20487">
        <ele>2134.5468919204</ele>
        <time>2016-10-16T12:13:17Z</time>
      </trkpt>
      <trkpt lat="42.88466" lon="0.20488">
        <ele>2134.5468919204</ele>
        <time>2016-10-16T12:13:22Z</time>
      </trkpt>
      <trkpt lat="42.88463" lon="0.20488">
        <ele>2134.6679874093</ele>
        <time>2016-10-16T12:13:27Z</time>
      </trkpt>
      <trkpt lat="42.8846" lon="0.2049">
        <ele>2134.6679874093</ele>
        <time>2016-10-16T12:13:32Z</time>
      </trkpt>
      <trkpt lat="42.8846" lon="0.2049">
        <ele>2134.6679874093</ele>
        <time>2016-10-16T12:13:37Z</time>
      </trkpt>
      <trkpt lat="42.88457" lon="0.20489">
        <ele>2134.6679874093</ele>
        <time>2016-10-16T12:13:42Z</time>
      </trkpt>
      <trkpt lat="42.88453" lon="0.20489">
        <ele>2134.8494420279</ele>
        <time>2016-10-16T12:13:47Z</time>
      </trkpt>
      <trkpt lat="42.88449" lon="0.20492">
        <ele>2134.8494420279</ele>
        <time>2016-10-16T12:13:52Z</time>
      </trkpt>
      <trkpt lat="42.88449" lon="0.20493">
        <ele>2134.8494420279</ele>
        <time>2016-10-16T12:13:57Z</time>
      </trkpt>
      <trkpt lat="42.8845" lon="0.20492">
        <ele>2134.8494420279</ele>
        <time>2016-10-16T12:14:02Z</time>
      </trkpt>
      <trkpt lat="42.88449" lon="0.2049">
        <ele>2134.8494420279</ele>
        <time>2016-10-16T12:14:07Z</time>
      </trkpt>
      <trkpt lat="42.88449" lon="0.2049">
        <ele>2134.8494420279</ele>
        <time>2016-10-16T12:14:12Z</time>
      </trkpt>
      <trkpt lat="42.88449" lon="0.2049">
        <ele>2134.8494420279</ele>
        <time>2016-10-16T12:14:17Z</time>
      </trkpt>
      <trkpt lat="42.88449" lon="0.20491">
        <ele>2134.8494420279</ele>
        <time>2016-10-16T12:14:22Z</time>
      </trkpt>
      <trkpt lat="42.88449" lon="0.2049">
        <ele>2134.8494420279</ele>
        <time>2016-10-16T12:14:27Z</time>
      </trkpt>
      <trkpt lat="42.88449" lon="0.2049">
        <ele>2134.8494420279</ele>
        <time>2016-10-16T12:14:32Z</time>
      </trkpt>
      <trkpt lat="42.88449" lon="0.2049">
        <ele>2134.8494420279</ele>
        <time>2016-10-16T12:14:37Z</time>
      </trkpt>
      <trkpt lat="42.88449" lon="0.2049">
        <ele>2134.8494420279</ele>
        <time>2016-10-16T12:14:42Z</time>
      </trkpt>
      <trkpt lat="42.8845" lon="0.20489">
        <ele>2135.114501042</ele>
        <time>2016-10-16T12:14:47Z</time>
      </trkpt>
      <trkpt lat="42.88451" lon="0.20488">
        <ele>2135.114501042</ele>
        <time>2016-10-16T12:14:52Z</time>
      </trkpt>
      <trkpt lat="42.88451" lon="0.20488">
        <ele>2135.114501042</ele>
        <time>2016-10-16T12:14:57Z</time>
      </trkpt>
      <trkpt lat="42.8845" lon="0.20488">
        <ele>2135.114501042</ele>
        <time>2016-10-16T12:15:02Z</time>
      </trkpt>
      <trkpt lat="42.88448" lon="0.20485">
        <ele>2135.114501042</ele>
        <time>2016-10-16T12:15:07Z</time>
      </trkpt>
      <trkpt lat="42.88446" lon="0.20484">
        <ele>2135.114501042</ele>
        <time>2016-10-16T12:15:12Z</time>
      </trkpt>
      <trkpt lat="42.88445" lon="0.20482">
        <ele>2135.5133072375</ele>
        <time>2016-10-16T12:15:17Z</time>
      </trkpt>
      <trkpt lat="42.88443" lon="0.20481">
        <ele>2135.5133072375</ele>
        <time>2016-10-16T12:15:22Z</time>
      </trkpt>
      <trkpt lat="42.8844" lon="0.2048">
        <ele>2135.5133072375</ele>
        <time>2016-10-16T12:15:27Z</time>
      </trkpt>
      <trkpt lat="42.88439" lon="0.2048">
        <ele>2135.5133072375</ele>
        <time>2016-10-16T12:15:32Z</time>
      </trkpt>
      <trkpt lat="42.88437" lon="0.20479">
        <ele>2135.5133072375</ele>
        <time>2016-10-16T12:15:37Z</time>
      </trkpt>
      <trkpt lat="42.88437" lon="0.20479">
        <ele>2135.5133072375</ele>
        <time>2016-10-16T12:15:42Z</time>
      </trkpt>
      <trkpt lat="42.88434" lon="0.20476">
        <ele>2136.0487318719</ele>
        <time>2016-10-16T12:15:47Z</time>
      </trkpt>
      <trkpt lat="42.88437" lon="0.20469">
        <ele>2136.0487318719</ele>
        <time>2016-10-16T12:15:52Z</time>
      </trkpt>
      <trkpt lat="42.88439" lon="0.20466">
        <ele>2136.0487318719</ele>
        <time>2016-10-16T12:15:57Z</time>
      </trkpt>
      <trkpt lat="42.88439" lon="0.20466">
        <ele>2136.6077871027</ele>
        <time>2016-10-16T12:16:02Z</time>
      </trkpt>
      <trkpt lat="42.88441" lon="0.20463">
        <ele>2136.6077871027</ele>
        <time>2016-10-16T12:16:07Z</time>
      </trkpt>
      <trkpt lat="42.88443" lon="0.2046">
        <ele>2136.6077871027</ele>
        <time>2016-10-16T12:16:12Z</time>
      </trkpt>
      <trkpt lat="42.88444" lon="0.20456">
        <ele>2137.201035698</ele>
        <time>2016-10-16T12:16:17Z</time>
      </trkpt>
      <trkpt lat="42.88446" lon="0.20455">
        <ele>2137.201035698</ele>
        <time>2016-10-16T12:16:22Z</time>
      </trkpt>
      <trkpt lat="42.88448" lon="0.20454">
        <ele>2137.201035698</ele>
        <time>2016-10-16T12:16:27Z</time>
      </trkpt>
      <trkpt lat="42.88449" lon="0.20452">
        <ele>2137.201035698</ele>
        <time>2016-10-16T12:16:32Z</time>
      </trkpt>
      <trkpt lat="42.88449" lon="0.20449">
        <ele>2137.201035698</ele>
        <time>2016-10-16T12:16:37Z</time>
      </trkpt>
      <trkpt lat="42.8845" lon="0.20448">
        <ele>2137.8382006949</ele>
        <time>2016-10-16T12:16:42Z</time>
      </trkpt>
      <trkpt lat="42.88451" lon="0.20445">
        <ele>2137.8382006949</ele>
        <time>2016-10-16T12:16:47Z</time>
      </trkpt>
      <trkpt lat="42.88452" lon="0.20445">
        <ele>2137.8382006949</ele>
        <time>2016-10-16T12:16:52Z</time>
      </trkpt>
      <trkpt lat="42.88454" lon="0.20444">
        <ele>2137.8382006949</ele>
        <time>2016-10-16T12:16:57Z</time>
      </trkpt>
      <trkpt lat="42.88453" lon="0.20442">
        <ele>2137.8382006949</ele>
        <time>2016-10-16T12:17:02Z</time>
      </trkpt>
      <trkpt lat="42.8845" lon="0.20443">
        <ele>2138.4993817425</ele>
        <time>2016-10-16T12:17:07Z</time>
      </trkpt>
      <trkpt lat="42.88447" lon="0.20444">
        <ele>2138.4993817425</ele>
        <time>2016-10-16T12:17:12Z</time>
      </trkpt>
      <trkpt lat="42.8844" lon="0.20446">
        <ele>2139.1517021082</ele>
        <time>2016-10-16T12:17:17Z</time>
      </trkpt>
      <trkpt lat="42.88437" lon="0.20445">
        <ele>2139.1517021082</ele>
        <time>2016-10-16T12:17:22Z</time>
      </trkpt>
      <trkpt lat="42.88434" lon="0.20443">
        <ele>2139.1517021082</ele>
        <time>2016-10-16T12:17:27Z</time>
      </trkpt>
      <trkpt lat="42.88431" lon="0.20441">
        <ele>2139.8368245955</ele>
        <time>2016-10-16T12:17:32Z</time>
      </trkpt>
      <trkpt lat="42.88431" lon="0.20442">
        <ele>2139.8368245955</ele>
        <time>2016-10-16T12:17:37Z</time>
      </trkpt>
      <trkpt lat="42.88431" lon="0.20442">
        <ele>2139.8368245955</ele>
        <time>2016-10-16T12:17:42Z</time>
      </trkpt>
      <trkpt lat="42.8843" lon="0.20442">
        <ele>2139.8368245955</ele>
        <time>2016-10-16T12:17:47Z</time>
      </trkpt>
      <trkpt lat="42.88425" lon="0.20443">
        <ele>2139.8368245955</ele>
        <time>2016-10-16T12:17:52Z</time>
      </trkpt>
      <trkpt lat="42.88421" lon="0.20443">
        <ele>2140.5788959028</ele>
        <time>2016-10-16T12:17:57Z</time>
      </trkpt>
      <trkpt lat="42.88419" lon="0.20443">
        <ele>2140.5788959028</ele>
        <time>2016-10-16T12:18:02Z</time>
      </trkpt>
      <trkpt lat="42.88419" lon="0.20444">
        <ele>2140.5788959028</ele>
        <time>2016-10-16T12:18:07Z</time>
      </trkpt>
      <trkpt lat="42.88419" lon="0.20444">
        <ele>2140.5788959028</ele>
        <time>2016-10-16T12:18:12Z</time>
      </trkpt>
      <trkpt lat="42.88417" lon="0.20441">
        <ele>2140.5788959028</ele>
        <time>2016-10-16T12:18:17Z</time>
      </trkpt>
      <trkpt lat="42.88416" lon="0.20439">
        <ele>2140.5788959028</ele>
        <time>2016-10-16T12:18:22Z</time>
      </trkpt>
      <trkpt lat="42.88415" lon="0.20437">
        <ele>2140.5788959028</ele>
        <time>2016-10-16T12:18:27Z</time>
      </trkpt>
      <trkpt lat="42.88414" lon="0.20435">
        <ele>2141.4001801697</ele>
        <time>2016-10-16T12:18:32Z</time>
      </trkpt>
      <trkpt lat="42.88416" lon="0.20435">
        <ele>2141.4001801697</ele>
        <time>2016-10-16T12:18:37Z</time>
      </trkpt>
      <trkpt lat="42.88419" lon="0.20436">
        <ele>2141.4001801697</ele>
        <time>2016-10-16T12:18:42Z</time>
      </trkpt>
      <trkpt lat="42.88418" lon="0.20437">
        <ele>2141.4001801697</ele>
        <time>2016-10-16T12:18:47Z</time>
      </trkpt>
      <trkpt lat="42.88417" lon="0.20437">
        <ele>2141.4001801697</ele>
        <time>2016-10-16T12:18:52Z</time>
      </trkpt>
      <trkpt lat="42.88417" lon="0.20437">
        <ele>2141.4001801697</ele>
        <time>2016-10-16T12:18:57Z</time>
      </trkpt>
      <trkpt lat="42.88418" lon="0.20437">
        <ele>2142.3067271491</ele>
        <time>2016-10-16T12:19:02Z</time>
      </trkpt>
      <trkpt lat="42.88418" lon="0.20434">
        <ele>2142.3067271491</ele>
        <time>2016-10-16T12:19:07Z</time>
      </trkpt>
      <trkpt lat="42.88419" lon="0.2043">
        <ele>2142.3067271491</ele>
        <time>2016-10-16T12:19:12Z</time>
      </trkpt>
      <trkpt lat="42.88417" lon="0.20428">
        <ele>2142.3067271491</ele>
        <time>2016-10-16T12:19:17Z</time>
      </trkpt>
      <trkpt lat="42.88413" lon="0.20427">
        <ele>2143.3039610698</ele>
        <time>2016-10-16T12:19:22Z</time>
      </trkpt>
      <trkpt lat="42.88412" lon="0.20427">
        <ele>2143.3039610698</ele>
        <time>2016-10-16T12:19:27Z</time>
      </trkpt>
      <trkpt lat="42.88411" lon="0.20424">
        <ele>2143.3039610698</ele>
        <time>2016-10-16T12:19:32Z</time>
      </trkpt>
      <trkpt lat="42.88408" lon="0.20426">
        <ele>2143.3039610698</ele>
        <time>2016-10-16T12:19:37Z</time>
      </trkpt>
      <trkpt lat="42.88405" lon="0.20429">
        <ele>2144.396715237</ele>
        <time>2016-10-16T12:19:42Z</time>
      </trkpt>
      <trkpt lat="42.88401" lon="0.20432">
        <ele>2144.396715237</ele>
        <time>2016-10-16T12:19:47Z</time>
      </trkpt>
      <trkpt lat="42.88396" lon="0.20436">
        <ele>2145.4883880389</ele>
        <time>2016-10-16T12:19:52Z</time>
      </trkpt>
      <trkpt lat="42.88396" lon="0.20436">
        <ele>2145.4883880389</ele>
        <time>2016-10-16T12:19:57Z</time>
      </trkpt>
      <trkpt lat="42.88395" lon="0.20435">
        <ele>2145.4883880389</ele>
        <time>2016-10-16T12:20:02Z</time>
      </trkpt>
      <trkpt lat="42.88394" lon="0.20434">
        <ele>2145.4883880389</ele>
        <time>2016-10-16T12:20:07Z</time>
      </trkpt>
      <trkpt lat="42.88392" lon="0.20437">
        <ele>2145.4883880389</ele>
        <time>2016-10-16T12:20:12Z</time>
      </trkpt>
      <trkpt lat="42.8839" lon="0.20437">
        <ele>2145.4883880389</ele>
        <time>2016-10-16T12:20:17Z</time>
      </trkpt>
      <trkpt lat="42.88389" lon="0.20441">
        <ele>2146.763358607</ele>
        <time>2016-10-16T12:20:22Z</time>
      </trkpt>
      <trkpt lat="42.88388" lon="0.20447">
        <ele>2146.763358607</ele>
        <time>2016-10-16T12:20:27Z</time>
      </trkpt>
      <trkpt lat="42.88385" lon="0.2045">
        <ele>2146.763358607</ele>
        <time>2016-10-16T12:20:32Z</time>
      </trkpt>
      <trkpt lat="42.88383" lon="0.20448">
        <ele>2148.0461551954</ele>
        <time>2016-10-16T12:20:37Z</time>
      </trkpt>
      <trkpt lat="42.88383" lon="0.20448">
        <ele>2148.0461551954</ele>
        <time>2016-10-16T12:20:42Z</time>
      </trkpt>
      <trkpt lat="42.88381" lon="0.20451">
        <ele>2148.0461551954</ele>
        <time>2016-10-16T12:20:47Z</time>
      </trkpt>
      <trkpt lat="42.88378" lon="0.20457">
        <ele>2148.0461551954</ele>
        <time>2016-10-16T12:20:52Z</time>
      </trkpt>
      <trkpt lat="42.88374" lon="0.20464">
        <ele>2149.3471863706</ele>
        <time>2016-10-16T12:20:57Z</time>
      </trkpt>
      <trkpt lat="42.88374" lon="0.20468">
        <ele>2149.3471863706</ele>
        <time>2016-10-16T12:21:02Z</time>
      </trkpt>
      <trkpt lat="42.88374" lon="0.20468">
        <ele>2149.3471863706</ele>
        <time>2016-10-16T12:21:07Z</time>
      </trkpt>
      <trkpt lat="42.88374" lon="0.20468">
        <ele>2149.3471863706</ele>
        <time>2016-10-16T12:21:12Z</time>
      </trkpt>
      <trkpt lat="42.88374" lon="0.20469">
        <ele>2149.3471863706</ele>
        <time>2016-10-16T12:21:17Z</time>
      </trkpt>
      <trkpt lat="42.88374" lon="0.20469">
        <ele>2149.3471863706</ele>
        <time>2016-10-16T12:21:22Z</time>
      </trkpt>
      <trkpt lat="42.88374" lon="0.20469">
        <ele>2149.3471863706</ele>
        <time>2016-10-16T12:21:27Z</time>
      </trkpt>
      <trkpt lat="42.88374" lon="0.20469">
        <ele>2149.3471863706</ele>
        <time>2016-10-16T12:21:32Z</time>
      </trkpt>
      <trkpt lat="42.88374" lon="0.20469">
        <ele>2149.3471863706</ele>
        <time>2016-10-16T12:21:37Z</time>
      </trkpt>
      <trkpt lat="42.88374" lon="0.20469">
        <ele>2149.3471863706</ele>
        <time>2016-10-16T12:21:42Z</time>
      </trkpt>
      <trkpt lat="42.88374" lon="0.2047">
        <ele>2149.3471863706</ele>
        <time>2016-10-16T12:21:47Z</time>
      </trkpt>
      <trkpt lat="42.88374" lon="0.2047">
        <ele>2149.3471863706</ele>
        <time>2016-10-16T12:21:52Z</time>
      </trkpt>
      <trkpt lat="42.88374" lon="0.2047">
        <ele>2149.3471863706</ele>
        <time>2016-10-16T12:21:57Z</time>
      </trkpt>
      <trkpt lat="42.88375" lon="0.20468">
        <ele>2149.3471863706</ele>
        <time>2016-10-16T12:22:02Z</time>
      </trkpt>
      <trkpt lat="42.88375" lon="0.20469">
        <ele>2149.3471863706</ele>
        <time>2016-10-16T12:22:07Z</time>
      </trkpt>
      <trkpt lat="42.88375" lon="0.20468">
        <ele>2149.3471863706</ele>
        <time>2016-10-16T12:22:12Z</time>
      </trkpt>
      <trkpt lat="42.88375" lon="0.20469">
        <ele>2149.3471863706</ele>
        <time>2016-10-16T12:22:17Z</time>
      </trkpt>
      <trkpt lat="42.88375" lon="0.20469">
        <ele>2149.3471863706</ele>
        <time>2016-10-16T12:22:22Z</time>
      </trkpt>
      <trkpt lat="42.88375" lon="0.20469">
        <ele>2149.3471863706</ele>
        <time>2016-10-16T12:22:27Z</time>
      </trkpt>
      <trkpt lat="42.88375" lon="0.20469">
        <ele>2149.3471863706</ele>
        <time>2016-10-16T12:22:32Z</time>
      </trkpt>
      <trkpt lat="42.88375" lon="0.20468">
        <ele>2149.3471863706</ele>
        <time>2016-10-16T12:22:37Z</time>
      </trkpt>
      <trkpt lat="42.88375" lon="0.20468">
        <ele>2149.3471863706</ele>
        <time>2016-10-16T12:22:42Z</time>
      </trkpt>
      <trkpt lat="42.88376" lon="0.20468">
        <ele>2149.3471863706</ele>
        <time>2016-10-16T12:22:47Z</time>
      </trkpt>
      <trkpt lat="42.88376" lon="0.20468">
        <ele>2149.3471863706</ele>
        <time>2016-10-16T12:22:52Z</time>
      </trkpt>
      <trkpt lat="42.88376" lon="0.20467">
        <ele>2149.3471863706</ele>
        <time>2016-10-16T12:22:57Z</time>
      </trkpt>
      <trkpt lat="42.88375" lon="0.20468">
        <ele>2150.7770059379</ele>
        <time>2016-10-16T12:23:02Z</time>
      </trkpt>
      <trkpt lat="42.88372" lon="0.20469">
        <ele>2150.7770059379</ele>
        <time>2016-10-16T12:23:07Z</time>
      </trkpt>
      <trkpt lat="42.88368" lon="0.20475">
        <ele>2152.2071947705</ele>
        <time>2016-10-16T12:23:12Z</time>
      </trkpt>
      <trkpt lat="42.88364" lon="0.2048">
        <ele>2152.2071947705</ele>
        <time>2016-10-16T12:23:17Z</time>
      </trkpt>
      <trkpt lat="42.88363" lon="0.20487">
        <ele>2153.6341466499</ele>
        <time>2016-10-16T12:23:22Z</time>
      </trkpt>
      <trkpt lat="42.88365" lon="0.20493">
        <ele>2153.6341466499</ele>
        <time>2016-10-16T12:23:27Z</time>
      </trkpt>
      <trkpt lat="42.88364" lon="0.20498">
        <ele>2153.6341466499</ele>
        <time>2016-10-16T12:23:32Z</time>
      </trkpt>
      <trkpt lat="42.88362" lon="0.20502">
        <ele>2155.0690355703</ele>
        <time>2016-10-16T12:23:37Z</time>
      </trkpt>
      <trkpt lat="42.88361" lon="0.20507">
        <ele>2155.0690355703</ele>
        <time>2016-10-16T12:23:42Z</time>
      </trkpt>
      <trkpt lat="42.8836" lon="0.20511">
        <ele>2155.0690355703</ele>
        <time>2016-10-16T12:23:47Z</time>
      </trkpt>
      <trkpt lat="42.88357" lon="0.20511">
        <ele>2156.4934685771</ele>
        <time>2016-10-16T12:23:52Z</time>
      </trkpt>
      <trkpt lat="42.88354" lon="0.2051">
        <ele>2156.4934685771</ele>
        <time>2016-10-16T12:23:57Z</time>
      </trkpt>
      <trkpt lat="42.8835" lon="0.20511">
        <ele>2156.4934685771</ele>
        <time>2016-10-16T12:24:02Z</time>
      </trkpt>
      <trkpt lat="42.88346" lon="0.20512">
        <ele>2157.8761231079</ele>
        <time>2016-10-16T12:24:07Z</time>
      </trkpt>
      <trkpt lat="42.88341" lon="0.20517">
        <ele>2157.8761231079</ele>
        <time>2016-10-16T12:24:12Z</time>
      </trkpt>
      <trkpt lat="42.88338" lon="0.2052">
        <ele>2159.1593754549</ele>
        <time>2016-10-16T12:24:17Z</time>
      </trkpt>
      <trkpt lat="42.88335" lon="0.20518">
        <ele>2159.1593754549</ele>
        <time>2016-10-16T12:24:22Z</time>
      </trkpt>
      <trkpt lat="42.88333" lon="0.20519">
        <ele>2159.1593754549</ele>
        <time>2016-10-16T12:24:27Z</time>
      </trkpt>
      <trkpt lat="42.88332" lon="0.20518">
        <ele>2159.1593754549</ele>
        <time>2016-10-16T12:24:32Z</time>
      </trkpt>
      <trkpt lat="42.88332" lon="0.20518">
        <ele>2159.1593754549</ele>
        <time>2016-10-16T12:24:37Z</time>
      </trkpt>
      <trkpt lat="42.8833" lon="0.20514">
        <ele>2160.4055068075</ele>
        <time>2016-10-16T12:24:42Z</time>
      </trkpt>
      <trkpt lat="42.88329" lon="0.20515">
        <ele>2160.4055068075</ele>
        <time>2016-10-16T12:24:47Z</time>
      </trkpt>
      <trkpt lat="42.88329" lon="0.20515">
        <ele>2160.4055068075</ele>
        <time>2016-10-16T12:24:52Z</time>
      </trkpt>
      <trkpt lat="42.88328" lon="0.20515">
        <ele>2160.4055068075</ele>
        <time>2016-10-16T12:24:57Z</time>
      </trkpt>
      <trkpt lat="42.88328" lon="0.20516">
        <ele>2160.4055068075</ele>
        <time>2016-10-16T12:25:02Z</time>
      </trkpt>
      <trkpt lat="42.88328" lon="0.20516">
        <ele>2160.4055068075</ele>
        <time>2016-10-16T12:25:07Z</time>
      </trkpt>
      <trkpt lat="42.88324" lon="0.20517">
        <ele>2160.4055068075</ele>
        <time>2016-10-16T12:25:12Z</time>
      </trkpt>
      <trkpt lat="42.88321" lon="0.2052">
        <ele>2161.6436096144</ele>
        <time>2016-10-16T12:25:17Z</time>
      </trkpt>
      <trkpt lat="42.8832" lon="0.2052">
        <ele>2161.6436096144</ele>
        <time>2016-10-16T12:25:22Z</time>
      </trkpt>
      <trkpt lat="42.88319" lon="0.2052">
        <ele>2161.6436096144</ele>
        <time>2016-10-16T12:25:27Z</time>
      </trkpt>
      <trkpt lat="42.88318" lon="0.20521">
        <ele>2161.6436096144</ele>
        <time>2016-10-16T12:25:32Z</time>
      </trkpt>
      <trkpt lat="42.88316" lon="0.2052">
        <ele>2161.6436096144</ele>
        <time>2016-10-16T12:25:37Z</time>
      </trkpt>
      <trkpt lat="42.88314" lon="0.20519">
        <ele>2161.6436096144</ele>
        <time>2016-10-16T12:25:42Z</time>
      </trkpt>
      <trkpt lat="42.88313" lon="0.20519">
        <ele>2161.6436096144</ele>
        <time>2016-10-16T12:25:47Z</time>
      </trkpt>
      <trkpt lat="42.88313" lon="0.20518">
        <ele>2161.6436096144</ele>
        <time>2016-10-16T12:25:52Z</time>
      </trkpt>
      <trkpt lat="42.88312" lon="0.20517">
        <ele>2162.8575325376</ele>
        <time>2016-10-16T12:25:57Z</time>
      </trkpt>
      <trkpt lat="42.88312" lon="0.20517">
        <ele>2162.8575325376</ele>
        <time>2016-10-16T12:26:02Z</time>
      </trkpt>
      <trkpt lat="42.88312" lon="0.20517">
        <ele>2162.8575325376</ele>
        <time>2016-10-16T12:26:07Z</time>
      </trkpt>
      <trkpt lat="42.88311" lon="0.20517">
        <ele>2162.8575325376</ele>
        <time>2016-10-16T12:26:12Z</time>
      </trkpt>
      <trkpt lat="42.88308" lon="0.20514">
        <ele>2162.8575325376</ele>
        <time>2016-10-16T12:26:17Z</time>
      </trkpt>
      <trkpt lat="42.88305" lon="0.20514">
        <ele>2162.8575325376</ele>
        <time>2016-10-16T12:26:22Z</time>
      </trkpt>
      <trkpt lat="42.88303" lon="0.20517">
        <ele>2164.0468928796</ele>
        <time>2016-10-16T12:26:27Z</time>
      </trkpt>
      <trkpt lat="42.88301" lon="0.20517">
        <ele>2164.0468928796</ele>
        <time>2016-10-16T12:26:32Z</time>
      </trkpt>
      <trkpt lat="42.883" lon="0.20516">
        <ele>2164.0468928796</ele>
        <time>2016-10-16T12:26:37Z</time>
      </trkpt>
      <trkpt lat="42.88299" lon="0.20517">
        <ele>2164.0468928796</ele>
        <time>2016-10-16T12:26:42Z</time>
      </trkpt>
      <trkpt lat="42.88296" lon="0.20516">
        <ele>2164.0468928796</ele>
        <time>2016-10-16T12:26:47Z</time>
      </trkpt>
      <trkpt lat="42.88294" lon="0.20516">
        <ele>2164.0468928796</ele>
        <time>2016-10-16T12:26:52Z</time>
      </trkpt>
      <trkpt lat="42.88293" lon="0.20515">
        <ele>2165.2403291041</ele>
        <time>2016-10-16T12:26:57Z</time>
      </trkpt>
      <trkpt lat="42.88297" lon="0.20516">
        <ele>2165.2403291041</ele>
        <time>2016-10-16T12:27:02Z</time>
      </trkpt>
      <trkpt lat="42.88296" lon="0.20516">
        <ele>2165.2403291041</ele>
        <time>2016-10-16T12:27:07Z</time>
      </trkpt>
      <trkpt lat="42.88292" lon="0.20517">
        <ele>2166.4212313871</ele>
        <time>2016-10-16T12:27:12Z</time>
      </trkpt>
      <trkpt lat="42.8829" lon="0.20517">
        <ele>2166.4212313871</ele>
        <time>2016-10-16T12:27:17Z</time>
      </trkpt>
      <trkpt lat="42.88286" lon="0.20518">
        <ele>2166.4212313871</ele>
        <time>2016-10-16T12:27:22Z</time>
      </trkpt>
      <trkpt lat="42.88284" lon="0.20518">
        <ele>2166.4212313871</ele>
        <time>2016-10-16T12:27:27Z</time>
      </trkpt>
      <trkpt lat="42.88282" lon="0.20519">
        <ele>2167.6463992185</ele>
        <time>2016-10-16T12:27:32Z</time>
      </trkpt>
      <trkpt lat="42.8828" lon="0.20518">
        <ele>2167.6463992185</ele>
        <time>2016-10-16T12:27:37Z</time>
      </trkpt>
      <trkpt lat="42.88278" lon="0.20517">
        <ele>2167.6463992185</ele>
        <time>2016-10-16T12:27:42Z</time>
      </trkpt>
      <trkpt lat="42.88275" lon="0.20516">
        <ele>2167.6463992185</ele>
        <time>2016-10-16T12:27:47Z</time>
      </trkpt>
      <trkpt lat="42.88272" lon="0.20519">
        <ele>2168.9251986294</ele>
        <time>2016-10-16T12:27:52Z</time>
      </trkpt>
      <trkpt lat="42.8827" lon="0.20521">
        <ele>2168.9251986294</ele>
        <time>2016-10-16T12:27:57Z</time>
      </trkpt>
      <trkpt lat="42.88267" lon="0.20523">
        <ele>2168.9251986294</ele>
        <time>2016-10-16T12:28:02Z</time>
      </trkpt>
      <trkpt lat="42.88267" lon="0.20525">
        <ele>2168.9251986294</ele>
        <time>2016-10-16T12:28:07Z</time>
      </trkpt>
      <trkpt lat="42.88265" lon="0.20525">
        <ele>2168.9251986294</ele>
        <time>2016-10-16T12:28:12Z</time>
      </trkpt>
      <trkpt lat="42.8826" lon="0.20527">
        <ele>2170.2950741934</ele>
        <time>2016-10-16T12:28:17Z</time>
      </trkpt>
      <trkpt lat="42.88257" lon="0.20532">
        <ele>2170.2950741934</ele>
        <time>2016-10-16T12:28:22Z</time>
      </trkpt>
      <trkpt lat="42.88256" lon="0.20537">
        <ele>2170.2950741934</ele>
        <time>2016-10-16T12:28:27Z</time>
      </trkpt>
      <trkpt lat="42.88255" lon="0.20538">
        <ele>2171.6752686099</ele>
        <time>2016-10-16T12:28:32Z</time>
      </trkpt>
      <trkpt lat="42.88255" lon="0.20538">
        <ele>2171.6752686099</ele>
        <time>2016-10-16T12:28:37Z</time>
      </trkpt>
      <trkpt lat="42.88253" lon="0.20541">
        <ele>2171.6752686099</ele>
        <time>2016-10-16T12:28:42Z</time>
      </trkpt>
      <trkpt lat="42.88251" lon="0.20539">
        <ele>2171.6752686099</ele>
        <time>2016-10-16T12:28:47Z</time>
      </trkpt>
      <trkpt lat="42.88248" lon="0.20535">
        <ele>2173.1207200222</ele>
        <time>2016-10-16T12:28:52Z</time>
      </trkpt>
      <trkpt lat="42.88246" lon="0.20535">
        <ele>2173.1207200222</ele>
        <time>2016-10-16T12:28:57Z</time>
      </trkpt>
      <trkpt lat="42.88247" lon="0.20533">
        <ele>2173.1207200222</ele>
        <time>2016-10-16T12:29:02Z</time>
      </trkpt>
      <trkpt lat="42.88247" lon="0.20532">
        <ele>2173.1207200222</ele>
        <time>2016-10-16T12:29:07Z</time>
      </trkpt>
      <trkpt lat="42.88246" lon="0.20531">
        <ele>2173.1207200222</ele>
        <time>2016-10-16T12:29:12Z</time>
      </trkpt>
      <trkpt lat="42.88246" lon="0.20531">
        <ele>2173.1207200222</ele>
        <time>2016-10-16T12:29:17Z</time>
      </trkpt>
      <trkpt lat="42.88244" lon="0.20528">
        <ele>2173.1207200222</ele>
        <time>2016-10-16T12:29:22Z</time>
      </trkpt>
      <trkpt lat="42.88244" lon="0.20528">
        <ele>2173.1207200222</ele>
        <time>2016-10-16T12:29:27Z</time>
      </trkpt>
      <trkpt lat="42.88244" lon="0.20528">
        <ele>2173.1207200222</ele>
        <time>2016-10-16T12:29:32Z</time>
      </trkpt>
      <trkpt lat="42.88244" lon="0.20528">
        <ele>2173.1207200222</ele>
        <time>2016-10-16T12:29:37Z</time>
      </trkpt>
      <trkpt lat="42.88244" lon="0.20528">
        <ele>2173.1207200222</ele>
        <time>2016-10-16T12:29:42Z</time>
      </trkpt>
      <trkpt lat="42.88243" lon="0.20529">
        <ele>2173.1207200222</ele>
        <time>2016-10-16T12:29:47Z</time>
      </trkpt>
      <trkpt lat="42.88242" lon="0.20527">
        <ele>2174.7110611535</ele>
        <time>2016-10-16T12:29:52Z</time>
      </trkpt>
      <trkpt lat="42.88242" lon="0.20525">
        <ele>2174.7110611535</ele>
        <time>2016-10-16T12:29:57Z</time>
      </trkpt>
      <trkpt lat="42.8824" lon="0.20523">
        <ele>2174.7110611535</ele>
        <time>2016-10-16T12:30:02Z</time>
      </trkpt>
      <trkpt lat="42.88238" lon="0.20521">
        <ele>2174.7110611535</ele>
        <time>2016-10-16T12:30:07Z</time>
      </trkpt>
      <trkpt lat="42.88234" lon="0.20519">
        <ele>2176.3468257489</ele>
        <time>2016-10-16T12:30:12Z</time>
      </trkpt>
      <trkpt lat="42.88232" lon="0.20521">
        <ele>2176.3468257489</ele>
        <time>2016-10-16T12:30:17Z</time>
      </trkpt>
      <trkpt lat="42.88228" lon="0.20521">
        <ele>2176.3468257489</ele>
        <time>2016-10-16T12:30:22Z</time>
      </trkpt>
      <trkpt lat="42.88224" lon="0.20523">
        <ele>2177.9646394974</ele>
        <time>2016-10-16T12:30:27Z</time>
      </trkpt>
      <trkpt lat="42.88221" lon="0.20523">
        <ele>2177.9646394974</ele>
        <time>2016-10-16T12:30:32Z</time>
      </trkpt>
      <trkpt lat="42.8822" lon="0.20523">
        <ele>2177.9646394974</ele>
        <time>2016-10-16T12:30:37Z</time>
      </trkpt>
      <trkpt lat="42.8822" lon="0.20523">
        <ele>2177.9646394974</ele>
        <time>2016-10-16T12:30:42Z</time>
      </trkpt>
      <trkpt lat="42.8822" lon="0.20522">
        <ele>2177.9646394974</ele>
        <time>2016-10-16T12:30:47Z</time>
      </trkpt>
      <trkpt lat="42.88217" lon="0.2052">
        <ele>2177.9646394974</ele>
        <time>2016-10-16T12:30:52Z</time>
      </trkpt>
      <trkpt lat="42.88217" lon="0.20521">
        <ele>2179.5779798093</ele>
        <time>2016-10-16T12:30:57Z</time>
      </trkpt>
      <trkpt lat="42.88215" lon="0.20523">
        <ele>2179.5779798093</ele>
        <time>2016-10-16T12:31:02Z</time>
      </trkpt>
      <trkpt lat="42.88213" lon="0.20526">
        <ele>2179.5779798093</ele>
        <time>2016-10-16T12:31:07Z</time>
      </trkpt>
      <trkpt lat="42.8821" lon="0.2053">
        <ele>2179.5779798093</ele>
        <time>2016-10-16T12:31:12Z</time>
      </trkpt>
      <trkpt lat="42.8821" lon="0.20533">
        <ele>2181.1994368681</ele>
        <time>2016-10-16T12:31:17Z</time>
      </trkpt>
      <trkpt lat="42.88209" lon="0.20536">
        <ele>2181.1994368681</ele>
        <time>2016-10-16T12:31:22Z</time>
      </trkpt>
      <trkpt lat="42.8821" lon="0.20541">
        <ele>2181.1994368681</ele>
        <time>2016-10-16T12:31:27Z</time>
      </trkpt>
      <trkpt lat="42.88208" lon="0.20546">
        <ele>2182.7830986402</ele>
        <time>2016-10-16T12:31:32Z</time>
      </trkpt>
      <trkpt lat="42.88205" lon="0.20549">
        <ele>2182.7830986402</ele>
        <time>2016-10-16T12:31:37Z</time>
      </trkpt>
      <trkpt lat="42.88203" lon="0.20551">
        <ele>2182.7830986402</ele>
        <time>2016-10-16T12:31:42Z</time>
      </trkpt>
      <trkpt lat="42.882" lon="0.20551">
        <ele>2182.7830986402</ele>
        <time>2016-10-16T12:31:47Z</time>
      </trkpt>
      <trkpt lat="42.88198" lon="0.20553">
        <ele>2184.4019099818</ele>
        <time>2016-10-16T12:31:52Z</time>
      </trkpt>
      <trkpt lat="42.88196" lon="0.20555">
        <ele>2184.4019099818</ele>
        <time>2016-10-16T12:31:57Z</time>
      </trkpt>
      <trkpt lat="42.88193" lon="0.20558">
        <ele>2184.4019099818</ele>
        <time>2016-10-16T12:32:02Z</time>
      </trkpt>
      <trkpt lat="42.8819" lon="0.2056">
        <ele>2185.979335806</ele>
        <time>2016-10-16T12:32:07Z</time>
      </trkpt>
      <trkpt lat="42.88186" lon="0.20563">
        <ele>2185.979335806</ele>
        <time>2016-10-16T12:32:12Z</time>
      </trkpt>
      <trkpt lat="42.88181" lon="0.20565">
        <ele>2187.4734885639</ele>
        <time>2016-10-16T12:32:17Z</time>
      </trkpt>
      <trkpt lat="42.8818" lon="0.2057">
        <ele>2187.4734885639</ele>
        <time>2016-10-16T12:32:22Z</time>
      </trkpt>
      <trkpt lat="42.88178" lon="0.20573">
        <ele>2187.4734885639</ele>
        <time>2016-10-16T12:32:27Z</time>
      </trkpt>
      <trkpt lat="42.88175" lon="0.20577">
        <ele>2188.9467544402</ele>
        <time>2016-10-16T12:32:32Z</time>
      </trkpt>
      <trkpt lat="42.88175" lon="0.20577">
        <ele>2188.9467544402</ele>
        <time>2016-10-16T12:32:37Z</time>
      </trkpt>
      <trkpt lat="42.88174" lon="0.20576">
        <ele>2188.9467544402</ele>
        <time>2016-10-16T12:32:42Z</time>
      </trkpt>
      <trkpt lat="42.88172" lon="0.20577">
        <ele>2188.9467544402</ele>
        <time>2016-10-16T12:32:47Z</time>
      </trkpt>
      <trkpt lat="42.8817" lon="0.20577">
        <ele>2188.9467544402</ele>
        <time>2016-10-16T12:32:52Z</time>
      </trkpt>
      <trkpt lat="42.88167" lon="0.20576">
        <ele>2190.5147231992</ele>
        <time>2016-10-16T12:32:57Z</time>
      </trkpt>
      <trkpt lat="42.88167" lon="0.20577">
        <ele>2190.5147231992</ele>
        <time>2016-10-16T12:33:02Z</time>
      </trkpt>
      <trkpt lat="42.88166" lon="0.20576">
        <ele>2190.5147231992</ele>
        <time>2016-10-16T12:33:07Z</time>
      </trkpt>
      <trkpt lat="42.88165" lon="0.20575">
        <ele>2190.5147231992</ele>
        <time>2016-10-16T12:33:12Z</time>
      </trkpt>
      <trkpt lat="42.88163" lon="0.20572">
        <ele>2190.5147231992</ele>
        <time>2016-10-16T12:33:17Z</time>
      </trkpt>
      <trkpt lat="42.88162" lon="0.20571">
        <ele>2190.5147231992</ele>
        <time>2016-10-16T12:33:22Z</time>
      </trkpt>
      <trkpt lat="42.88161" lon="0.20567">
        <ele>2192.1546090772</ele>
        <time>2016-10-16T12:33:27Z</time>
      </trkpt>
      <trkpt lat="42.8816" lon="0.20564">
        <ele>2192.1546090772</ele>
        <time>2016-10-16T12:33:32Z</time>
      </trkpt>
      <trkpt lat="42.88159" lon="0.2056">
        <ele>2192.1546090772</ele>
        <time>2016-10-16T12:33:37Z</time>
      </trkpt>
      <trkpt lat="42.88157" lon="0.20554">
        <ele>2193.7010664287</ele>
        <time>2016-10-16T12:33:42Z</time>
      </trkpt>
      <trkpt lat="42.88157" lon="0.2055">
        <ele>2193.7010664287</ele>
        <time>2016-10-16T12:33:47Z</time>
      </trkpt>
      <trkpt lat="42.88157" lon="0.20547">
        <ele>2193.7010664287</ele>
        <time>2016-10-16T12:33:52Z</time>
      </trkpt>
      <trkpt lat="42.88157" lon="0.20544">
        <ele>2193.7010664287</ele>
        <time>2016-10-16T12:33:57Z</time>
      </trkpt>
      <trkpt lat="42.88157" lon="0.20541">
        <ele>2195.1741683381</ele>
        <time>2016-10-16T12:34:02Z</time>
      </trkpt>
      <trkpt lat="42.88156" lon="0.20541">
        <ele>2195.1741683381</ele>
        <time>2016-10-16T12:34:07Z</time>
      </trkpt>
      <trkpt lat="42.88157" lon="0.20538">
        <ele>2195.1741683381</ele>
        <time>2016-10-16T12:34:12Z</time>
      </trkpt>
      <trkpt lat="42.88157" lon="0.20538">
        <ele>2195.1741683381</ele>
        <time>2016-10-16T12:34:17Z</time>
      </trkpt>
      <trkpt lat="42.88158" lon="0.20539">
        <ele>2195.1741683381</ele>
        <time>2016-10-16T12:34:22Z</time>
      </trkpt>
      <trkpt lat="42.8816" lon="0.20542">
        <ele>2195.1741683381</ele>
        <time>2016-10-16T12:34:27Z</time>
      </trkpt>
      <trkpt lat="42.88163" lon="0.20542">
        <ele>2196.6072049552</ele>
        <time>2016-10-16T12:34:32Z</time>
      </trkpt>
      <trkpt lat="42.88164" lon="0.20542">
        <ele>2196.6072049552</ele>
        <time>2016-10-16T12:34:37Z</time>
      </trkpt>
      <trkpt lat="42.88164" lon="0.20542">
        <ele>2196.6072049552</ele>
        <time>2016-10-16T12:34:42Z</time>
      </trkpt>
      <trkpt lat="42.88165" lon="0.20542">
        <ele>2196.6072049552</ele>
        <time>2016-10-16T12:34:47Z</time>
      </trkpt>
      <trkpt lat="42.88165" lon="0.20537">
        <ele>2196.6072049552</ele>
        <time>2016-10-16T12:34:52Z</time>
      </trkpt>
      <trkpt lat="42.88166" lon="0.20535">
        <ele>2196.6072049552</ele>
        <time>2016-10-16T12:34:57Z</time>
      </trkpt>
      <trkpt lat="42.88167" lon="0.20534">
        <ele>2196.6072049552</ele>
        <time>2016-10-16T12:35:02Z</time>
      </trkpt>
      <trkpt lat="42.88185" lon="0.20509">
        <ele>2198.1897279525</ele>
        <time>2016-10-16T12:35:12Z</time>
      </trkpt>
      <trkpt lat="42.88153" lon="0.20541">
        <ele>2199.6070367681</ele>
        <time>2016-10-16T12:35:37Z</time>
      </trkpt>
      <trkpt lat="42.88158" lon="0.20543">
        <ele>2199.6070367681</ele>
        <time>2016-10-16T12:35:42Z</time>
      </trkpt>
      <trkpt lat="42.88165" lon="0.20544">
        <ele>2200.8130671241</ele>
        <time>2016-10-16T12:35:47Z</time>
      </trkpt>
      <trkpt lat="42.88166" lon="0.20539">
        <ele>2200.8130671241</ele>
        <time>2016-10-16T12:35:52Z</time>
      </trkpt>
      <trkpt lat="42.88166" lon="0.20534">
        <ele>2200.8130671241</ele>
        <time>2016-10-16T12:35:57Z</time>
      </trkpt>
      <trkpt lat="42.88165" lon="0.20533">
        <ele>2200.8130671241</ele>
        <time>2016-10-16T12:36:02Z</time>
      </trkpt>
      <trkpt lat="42.88165" lon="0.20534">
        <ele>2201.8954935806</ele>
        <time>2016-10-16T12:36:07Z</time>
      </trkpt>
      <trkpt lat="42.88165" lon="0.20534">
        <ele>2201.8954935806</ele>
        <time>2016-10-16T12:36:12Z</time>
      </trkpt>
      <trkpt lat="42.88165" lon="0.20535">
        <ele>2201.8954935806</ele>
        <time>2016-10-16T12:36:17Z</time>
      </trkpt>
      <trkpt lat="42.88164" lon="0.20535">
        <ele>2201.8954935806</ele>
        <time>2016-10-16T12:36:22Z</time>
      </trkpt>
      <trkpt lat="42.88164" lon="0.20537">
        <ele>2201.8954935806</ele>
        <time>2016-10-16T12:36:27Z</time>
      </trkpt>
      <trkpt lat="42.88164" lon="0.20537">
        <ele>2201.8954935806</ele>
        <time>2016-10-16T12:36:32Z</time>
      </trkpt>
      <trkpt lat="42.88165" lon="0.20538">
        <ele>2201.8954935806</ele>
        <time>2016-10-16T12:36:37Z</time>
      </trkpt>
      <trkpt lat="42.88165" lon="0.20538">
        <ele>2201.8954935806</ele>
        <time>2016-10-16T12:36:42Z</time>
      </trkpt>
      <trkpt lat="42.88164" lon="0.20538">
        <ele>2201.8954935806</ele>
        <time>2016-10-16T12:36:47Z</time>
      </trkpt>
      <trkpt lat="42.88178" lon="0.2055">
        <ele>2203.5844559689</ele>
        <time>2016-10-16T13:26:43Z</time>
      </trkpt>
      <trkpt lat="42.88192" lon="0.20566">
        <ele>2203.3555410924</ele>
        <time>2016-10-16T13:26:48Z</time>
      </trkpt>
      <trkpt lat="42.88195" lon="0.20566">
        <ele>2203.3555410924</ele>
        <time>2016-10-16T13:26:53Z</time>
      </trkpt>
      <trkpt lat="42.88192" lon="0.20564">
        <ele>2203.3555410924</ele>
        <time>2016-10-16T13:26:58Z</time>
      </trkpt>
      <trkpt lat="42.88194" lon="0.20568">
        <ele>2204.3946615077</ele>
        <time>2016-10-16T13:27:03Z</time>
      </trkpt>
      <trkpt lat="42.88194" lon="0.20568">
        <ele>2204.3946615077</ele>
        <time>2016-10-16T13:27:08Z</time>
      </trkpt>
      <trkpt lat="42.88194" lon="0.20568">
        <ele>2204.3946615077</ele>
        <time>2016-10-16T13:27:13Z</time>
      </trkpt>
      <trkpt lat="42.88196" lon="0.20562">
        <ele>2204.3946615077</ele>
        <time>2016-10-16T13:27:18Z</time>
      </trkpt>
      <trkpt lat="42.88197" lon="0.20563">
        <ele>2204.3946615077</ele>
        <time>2016-10-16T13:27:23Z</time>
      </trkpt>
      <trkpt lat="42.88197" lon="0.20563">
        <ele>2204.3946615077</ele>
        <time>2016-10-16T13:27:28Z</time>
      </trkpt>
      <trkpt lat="42.88197" lon="0.20561">
        <ele>2204.3946615077</ele>
        <time>2016-10-16T13:27:33Z</time>
      </trkpt>
      <trkpt lat="42.88199" lon="0.2056">
        <ele>2205.5718305288</ele>
        <time>2016-10-16T13:27:38Z</time>
      </trkpt>
      <trkpt lat="42.88204" lon="0.2056">
        <ele>2205.5718305288</ele>
        <time>2016-10-16T13:27:43Z</time>
      </trkpt>
      <trkpt lat="42.88206" lon="0.2056">
        <ele>2205.5718305288</ele>
        <time>2016-10-16T13:27:48Z</time>
      </trkpt>
      <trkpt lat="42.88206" lon="0.2056">
        <ele>2205.5718305288</ele>
        <time>2016-10-16T13:27:53Z</time>
      </trkpt>
      <trkpt lat="42.88206" lon="0.2056">
        <ele>2205.5718305288</ele>
        <time>2016-10-16T13:27:58Z</time>
      </trkpt>
      <trkpt lat="42.88207" lon="0.2056">
        <ele>2205.5718305288</ele>
        <time>2016-10-16T13:28:03Z</time>
      </trkpt>
      <trkpt lat="42.88207" lon="0.2056">
        <ele>2205.5718305288</ele>
        <time>2016-10-16T13:28:08Z</time>
      </trkpt>
      <trkpt lat="42.88207" lon="0.20559">
        <ele>2206.5170371653</ele>
        <time>2016-10-16T13:28:13Z</time>
      </trkpt>
      <trkpt lat="42.88207" lon="0.20558">
        <ele>2206.5170371653</ele>
        <time>2016-10-16T13:28:18Z</time>
      </trkpt>
      <trkpt lat="42.88209" lon="0.20557">
        <ele>2206.5170371653</ele>
        <time>2016-10-16T13:28:23Z</time>
      </trkpt>
      <trkpt lat="42.88213" lon="0.20553">
        <ele>2206.5170371653</ele>
        <time>2016-10-16T13:28:28Z</time>
      </trkpt>
      <trkpt lat="42.88216" lon="0.20547">
        <ele>2207.4213389078</ele>
        <time>2016-10-16T13:28:33Z</time>
      </trkpt>
      <trkpt lat="42.88214" lon="0.20536">
        <ele>2207.4213389078</ele>
        <time>2016-10-16T13:28:38Z</time>
      </trkpt>
      <trkpt lat="42.88212" lon="0.2053">
        <ele>2208.2457270167</ele>
        <time>2016-10-16T13:28:43Z</time>
      </trkpt>
      <trkpt lat="42.88213" lon="0.20528">
        <ele>2208.2457270167</ele>
        <time>2016-10-16T13:28:48Z</time>
      </trkpt>
      <trkpt lat="42.88214" lon="0.20525">
        <ele>2208.2457270167</ele>
        <time>2016-10-16T13:28:53Z</time>
      </trkpt>
      <trkpt lat="42.8822" lon="0.20527">
        <ele>2208.9975313898</ele>
        <time>2016-10-16T13:28:58Z</time>
      </trkpt>
      <trkpt lat="42.88222" lon="0.20528">
        <ele>2208.9975313898</ele>
        <time>2016-10-16T13:29:03Z</time>
      </trkpt>
      <trkpt lat="42.88221" lon="0.20527">
        <ele>2208.9975313898</ele>
        <time>2016-10-16T13:29:08Z</time>
      </trkpt>
      <trkpt lat="42.88222" lon="0.20526">
        <ele>2208.9975313898</ele>
        <time>2016-10-16T13:29:13Z</time>
      </trkpt>
      <trkpt lat="42.88226" lon="0.20527">
        <ele>2208.9975313898</ele>
        <time>2016-10-16T13:29:18Z</time>
      </trkpt>
      <trkpt lat="42.88227" lon="0.20527">
        <ele>2209.5972901742</ele>
        <time>2016-10-16T13:29:23Z</time>
      </trkpt>
      <trkpt lat="42.8823" lon="0.20528">
        <ele>2209.5972901742</ele>
        <time>2016-10-16T13:29:28Z</time>
      </trkpt>
      <trkpt lat="42.88232" lon="0.20529">
        <ele>2209.5972901742</ele>
        <time>2016-10-16T13:29:33Z</time>
      </trkpt>
      <trkpt lat="42.88234" lon="0.2053">
        <ele>2209.5972901742</ele>
        <time>2016-10-16T13:29:38Z</time>
      </trkpt>
      <trkpt lat="42.88236" lon="0.2053">
        <ele>2210.0006310183</ele>
        <time>2016-10-16T13:29:43Z</time>
      </trkpt>
      <trkpt lat="42.88239" lon="0.20533">
        <ele>2210.0006310183</ele>
        <time>2016-10-16T13:29:48Z</time>
      </trkpt>
      <trkpt lat="42.88239" lon="0.20533">
        <ele>2210.0006310183</ele>
        <time>2016-10-16T13:29:53Z</time>
      </trkpt>
      <trkpt lat="42.88239" lon="0.20532">
        <ele>2210.0006310183</ele>
        <time>2016-10-16T13:29:58Z</time>
      </trkpt>
      <trkpt lat="42.88239" lon="0.20532">
        <ele>2210.0006310183</ele>
        <time>2016-10-16T13:30:03Z</time>
      </trkpt>
      <trkpt lat="42.88239" lon="0.20532">
        <ele>2210.0006310183</ele>
        <time>2016-10-16T13:30:08Z</time>
      </trkpt>
      <trkpt lat="42.8824" lon="0.20531">
        <ele>2210.0006310183</ele>
        <time>2016-10-16T13:30:13Z</time>
      </trkpt>
      <trkpt lat="42.8824" lon="0.20533">
        <ele>2210.0006310183</ele>
        <time>2016-10-16T13:30:18Z</time>
      </trkpt>
      <trkpt lat="42.88241" lon="0.20534">
        <ele>2210.0006310183</ele>
        <time>2016-10-16T13:30:23Z</time>
      </trkpt>
      <trkpt lat="42.88243" lon="0.20535">
        <ele>2210.1093440543</ele>
        <time>2016-10-16T13:30:28Z</time>
      </trkpt>
      <trkpt lat="42.88244" lon="0.20535">
        <ele>2210.1093440543</ele>
        <time>2016-10-16T13:30:33Z</time>
      </trkpt>
      <trkpt lat="42.88246" lon="0.20535">
        <ele>2210.1093440543</ele>
        <time>2016-10-16T13:30:38Z</time>
      </trkpt>
      <trkpt lat="42.88247" lon="0.20534">
        <ele>2210.1093440543</ele>
        <time>2016-10-16T13:30:43Z</time>
      </trkpt>
      <trkpt lat="42.88248" lon="0.20534">
        <ele>2210.1093440543</ele>
        <time>2016-10-16T13:30:48Z</time>
      </trkpt>
      <trkpt lat="42.8825" lon="0.20535">
        <ele>2210.1093440543</ele>
        <time>2016-10-16T13:30:53Z</time>
      </trkpt>
      <trkpt lat="42.88252" lon="0.20536">
        <ele>2209.9629485644</ele>
        <time>2016-10-16T13:30:58Z</time>
      </trkpt>
      <trkpt lat="42.88253" lon="0.20537">
        <ele>2209.9629485644</ele>
        <time>2016-10-16T13:31:03Z</time>
      </trkpt>
      <trkpt lat="42.88253" lon="0.20538">
        <ele>2209.9629485644</ele>
        <time>2016-10-16T13:31:08Z</time>
      </trkpt>
      <trkpt lat="42.88255" lon="0.20539">
        <ele>2209.9629485644</ele>
        <time>2016-10-16T13:31:13Z</time>
      </trkpt>
      <trkpt lat="42.88258" lon="0.20541">
        <ele>2209.9629485644</ele>
        <time>2016-10-16T13:31:18Z</time>
      </trkpt>
      <trkpt lat="42.88259" lon="0.2054">
        <ele>2209.9629485644</ele>
        <time>2016-10-16T13:31:23Z</time>
      </trkpt>
      <trkpt lat="42.88265" lon="0.20534">
        <ele>2209.5843439322</ele>
        <time>2016-10-16T13:31:28Z</time>
      </trkpt>
      <trkpt lat="42.88268" lon="0.2053">
        <ele>2209.5843439322</ele>
        <time>2016-10-16T13:31:33Z</time>
      </trkpt>
      <trkpt lat="42.8827" lon="0.20529">
        <ele>2209.5843439322</ele>
        <time>2016-10-16T13:31:38Z</time>
      </trkpt>
      <trkpt lat="42.88274" lon="0.20526">
        <ele>2209.0962446168</ele>
        <time>2016-10-16T13:31:43Z</time>
      </trkpt>
      <trkpt lat="42.88277" lon="0.20527">
        <ele>2209.0962446168</ele>
        <time>2016-10-16T13:31:48Z</time>
      </trkpt>
      <trkpt lat="42.88279" lon="0.20527">
        <ele>2209.0962446168</ele>
        <time>2016-10-16T13:31:53Z</time>
      </trkpt>
      <trkpt lat="42.88283" lon="0.20526">
        <ele>2209.0962446168</ele>
        <time>2016-10-16T13:31:58Z</time>
      </trkpt>
      <trkpt lat="42.88285" lon="0.20526">
        <ele>2208.482914227</ele>
        <time>2016-10-16T13:32:03Z</time>
      </trkpt>
      <trkpt lat="42.88286" lon="0.20526">
        <ele>2208.482914227</ele>
        <time>2016-10-16T13:32:08Z</time>
      </trkpt>
      <trkpt lat="42.88287" lon="0.20526">
        <ele>2208.482914227</ele>
        <time>2016-10-16T13:32:13Z</time>
      </trkpt>
      <trkpt lat="42.88287" lon="0.20527">
        <ele>2208.482914227</ele>
        <time>2016-10-16T13:32:18Z</time>
      </trkpt>
      <trkpt lat="42.88289" lon="0.20526">
        <ele>2208.482914227</ele>
        <time>2016-10-16T13:32:23Z</time>
      </trkpt>
      <trkpt lat="42.88293" lon="0.20525">
        <ele>2208.482914227</ele>
        <time>2016-10-16T13:32:28Z</time>
      </trkpt>
      <trkpt lat="42.88297" lon="0.20525">
        <ele>2207.7588906244</ele>
        <time>2016-10-16T13:32:33Z</time>
      </trkpt>
      <trkpt lat="42.883" lon="0.20524">
        <ele>2207.7588906244</ele>
        <time>2016-10-16T13:32:38Z</time>
      </trkpt>
      <trkpt lat="42.88302" lon="0.20523">
        <ele>2207.7588906244</ele>
        <time>2016-10-16T13:32:43Z</time>
      </trkpt>
      <trkpt lat="42.88306" lon="0.20522">
        <ele>2206.9522982386</ele>
        <time>2016-10-16T13:32:48Z</time>
      </trkpt>
      <trkpt lat="42.8831" lon="0.20524">
        <ele>2206.9522982386</ele>
        <time>2016-10-16T13:32:53Z</time>
      </trkpt>
      <trkpt lat="42.88314" lon="0.20525">
        <ele>2206.9522982386</ele>
        <time>2016-10-16T13:32:58Z</time>
      </trkpt>
      <trkpt lat="42.88318" lon="0.20526">
        <ele>2206.0749372668</ele>
        <time>2016-10-16T13:33:03Z</time>
      </trkpt>
      <trkpt lat="42.88324" lon="0.20526">
        <ele>2206.0749372668</ele>
        <time>2016-10-16T13:33:08Z</time>
      </trkpt>
      <trkpt lat="42.88327" lon="0.20523">
        <ele>2205.1522607527</ele>
        <time>2016-10-16T13:33:13Z</time>
      </trkpt>
      <trkpt lat="42.88328" lon="0.2052">
        <ele>2205.1522607527</ele>
        <time>2016-10-16T13:33:18Z</time>
      </trkpt>
      <trkpt lat="42.88329" lon="0.20518">
        <ele>2205.1522607527</ele>
        <time>2016-10-16T13:33:23Z</time>
      </trkpt>
      <trkpt lat="42.88331" lon="0.20519">
        <ele>2205.1522607527</ele>
        <time>2016-10-16T13:33:28Z</time>
      </trkpt>
      <trkpt lat="42.88333" lon="0.2052">
        <ele>2205.1522607527</ele>
        <time>2016-10-16T13:33:33Z</time>
      </trkpt>
      <trkpt lat="42.88336" lon="0.20523">
        <ele>2204.1502339186</ele>
        <time>2016-10-16T13:33:38Z</time>
      </trkpt>
      <trkpt lat="42.88336" lon="0.20523">
        <ele>2204.1502339186</ele>
        <time>2016-10-16T13:33:43Z</time>
      </trkpt>
      <trkpt lat="42.88336" lon="0.20523">
        <ele>2204.1502339186</ele>
        <time>2016-10-16T13:33:48Z</time>
      </trkpt>
      <trkpt lat="42.88339" lon="0.20521">
        <ele>2204.1502339186</ele>
        <time>2016-10-16T13:33:53Z</time>
      </trkpt>
      <trkpt lat="42.88343" lon="0.20518">
        <ele>2204.1502339186</ele>
        <time>2016-10-16T13:33:58Z</time>
      </trkpt>
      <trkpt lat="42.88343" lon="0.20516">
        <ele>2203.080667203</ele>
        <time>2016-10-16T13:34:03Z</time>
      </trkpt>
      <trkpt lat="42.88343" lon="0.20516">
        <ele>2203.080667203</ele>
        <time>2016-10-16T13:34:08Z</time>
      </trkpt>
      <trkpt lat="42.88343" lon="0.20516">
        <ele>2203.080667203</ele>
        <time>2016-10-16T13:34:13Z</time>
      </trkpt>
      <trkpt lat="42.88341" lon="0.20516">
        <ele>2203.080667203</ele>
        <time>2016-10-16T13:34:18Z</time>
      </trkpt>
      <trkpt lat="42.88342" lon="0.20517">
        <ele>2203.080667203</ele>
        <time>2016-10-16T13:34:23Z</time>
      </trkpt>
      <trkpt lat="42.88345" lon="0.20517">
        <ele>2203.080667203</ele>
        <time>2016-10-16T13:34:28Z</time>
      </trkpt>
      <trkpt lat="42.88349" lon="0.20517">
        <ele>2201.997805819</ele>
        <time>2016-10-16T13:34:33Z</time>
      </trkpt>
      <trkpt lat="42.88352" lon="0.20516">
        <ele>2201.997805819</ele>
        <time>2016-10-16T13:34:38Z</time>
      </trkpt>
      <trkpt lat="42.88353" lon="0.20515">
        <ele>2201.997805819</ele>
        <time>2016-10-16T13:34:43Z</time>
      </trkpt>
      <trkpt lat="42.88354" lon="0.20515">
        <ele>2201.997805819</ele>
        <time>2016-10-16T13:34:48Z</time>
      </trkpt>
      <trkpt lat="42.88356" lon="0.20515">
        <ele>2201.997805819</ele>
        <time>2016-10-16T13:34:53Z</time>
      </trkpt>
      <trkpt lat="42.88357" lon="0.20516">
        <ele>2201.997805819</ele>
        <time>2016-10-16T13:34:58Z</time>
      </trkpt>
      <trkpt lat="42.88358" lon="0.20515">
        <ele>2200.9374070881</ele>
        <time>2016-10-16T13:35:03Z</time>
      </trkpt>
      <trkpt lat="42.88359" lon="0.20514">
        <ele>2200.9374070881</ele>
        <time>2016-10-16T13:35:08Z</time>
      </trkpt>
      <trkpt lat="42.8836" lon="0.20513">
        <ele>2200.9374070881</ele>
        <time>2016-10-16T13:35:13Z</time>
      </trkpt>
      <trkpt lat="42.88363" lon="0.20514">
        <ele>2200.9374070881</ele>
        <time>2016-10-16T13:35:18Z</time>
      </trkpt>
      <trkpt lat="42.88364" lon="0.20514">
        <ele>2200.9374070881</ele>
        <time>2016-10-16T13:35:23Z</time>
      </trkpt>
      <trkpt lat="42.88364" lon="0.20513">
        <ele>2200.9374070881</ele>
        <time>2016-10-16T13:35:28Z</time>
      </trkpt>
      <trkpt lat="42.88366" lon="0.20513">
        <ele>2199.8891680575</ele>
        <time>2016-10-16T13:35:33Z</time>
      </trkpt>
      <trkpt lat="42.88367" lon="0.20508">
        <ele>2199.8891680575</ele>
        <time>2016-10-16T13:35:38Z</time>
      </trkpt>
      <trkpt lat="42.8837" lon="0.20508">
        <ele>2199.8891680575</ele>
        <time>2016-10-16T13:35:43Z</time>
      </trkpt>
      <trkpt lat="42.8837" lon="0.20506">
        <ele>2198.8865977598</ele>
        <time>2016-10-16T13:35:48Z</time>
      </trkpt>
      <trkpt lat="42.8837" lon="0.20506">
        <ele>2198.8865977598</ele>
        <time>2016-10-16T13:35:53Z</time>
      </trkpt>
      <trkpt lat="42.88371" lon="0.20506">
        <ele>2198.8865977598</ele>
        <time>2016-10-16T13:35:58Z</time>
      </trkpt>
      <trkpt lat="42.88374" lon="0.20507">
        <ele>2198.8865977598</ele>
        <time>2016-10-16T13:36:03Z</time>
      </trkpt>
      <trkpt lat="42.88375" lon="0.20508">
        <ele>2198.8865977598</ele>
        <time>2016-10-16T13:36:08Z</time>
      </trkpt>
      <trkpt lat="42.88378" lon="0.20508">
        <ele>2198.8865977598</ele>
        <time>2016-10-16T13:36:13Z</time>
      </trkpt>
      <trkpt lat="42.88379" lon="0.20508">
        <ele>2197.9172323364</ele>
        <time>2016-10-16T13:36:18Z</time>
      </trkpt>
      <trkpt lat="42.88381" lon="0.2051">
        <ele>2197.9172323364</ele>
        <time>2016-10-16T13:36:23Z</time>
      </trkpt>
      <trkpt lat="42.88384" lon="0.20509">
        <ele>2197.9172323364</ele>
        <time>2016-10-16T13:36:28Z</time>
      </trkpt>
      <trkpt lat="42.88387" lon="0.20505">
        <ele>2196.9836869892</ele>
        <time>2016-10-16T13:36:33Z</time>
      </trkpt>
      <trkpt lat="42.8839" lon="0.20501">
        <ele>2196.9836869892</ele>
        <time>2016-10-16T13:36:38Z</time>
      </trkpt>
      <trkpt lat="42.88391" lon="0.20496">
        <ele>2196.9836869892</ele>
        <time>2016-10-16T13:36:43Z</time>
      </trkpt>
      <trkpt lat="42.8839" lon="0.20495">
        <ele>2196.9836869892</ele>
        <time>2016-10-16T13:36:48Z</time>
      </trkpt>
      <trkpt lat="42.8839" lon="0.20494">
        <ele>2196.9836869892</ele>
        <time>2016-10-16T13:36:53Z</time>
      </trkpt>
      <trkpt lat="42.8839" lon="0.20493">
        <ele>2196.0881263167</ele>
        <time>2016-10-16T13:36:58Z</time>
      </trkpt>
      <trkpt lat="42.8839" lon="0.20493">
        <ele>2196.0881263167</ele>
        <time>2016-10-16T13:37:03Z</time>
      </trkpt>
      <trkpt lat="42.8839" lon="0.20493">
        <ele>2196.0881263167</ele>
        <time>2016-10-16T13:37:08Z</time>
      </trkpt>
      <trkpt lat="42.8839" lon="0.20493">
        <ele>2196.0881263167</ele>
        <time>2016-10-16T13:37:13Z</time>
      </trkpt>
      <trkpt lat="42.8839" lon="0.20493">
        <ele>2196.0881263167</ele>
        <time>2016-10-16T13:37:18Z</time>
      </trkpt>
      <trkpt lat="42.88389" lon="0.20493">
        <ele>2196.0881263167</ele>
        <time>2016-10-16T13:37:23Z</time>
      </trkpt>
      <trkpt lat="42.8839" lon="0.20488">
        <ele>2196.0881263167</ele>
        <time>2016-10-16T13:37:28Z</time>
      </trkpt>
      <trkpt lat="42.88389" lon="0.20482">
        <ele>2196.0881263167</ele>
        <time>2016-10-16T13:37:33Z</time>
      </trkpt>
      <trkpt lat="42.88388" lon="0.20476">
        <ele>2195.2178777571</ele>
        <time>2016-10-16T13:37:38Z</time>
      </trkpt>
      <trkpt lat="42.88389" lon="0.20472">
        <ele>2195.2178777571</ele>
        <time>2016-10-16T13:37:43Z</time>
      </trkpt>
      <trkpt lat="42.8839" lon="0.20469">
        <ele>2195.2178777571</ele>
        <time>2016-10-16T13:37:48Z</time>
      </trkpt>
      <trkpt lat="42.88392" lon="0.20466">
        <ele>2195.2178777571</ele>
        <time>2016-10-16T13:37:53Z</time>
      </trkpt>
      <trkpt lat="42.88394" lon="0.20459">
        <ele>2194.3609666411</ele>
        <time>2016-10-16T13:37:58Z</time>
      </trkpt>
      <trkpt lat="42.88396" lon="0.20457">
        <ele>2194.3609666411</ele>
        <time>2016-10-16T13:38:03Z</time>
      </trkpt>
      <trkpt lat="42.88397" lon="0.20454">
        <ele>2194.3609666411</ele>
        <time>2016-10-16T13:38:08Z</time>
      </trkpt>
      <trkpt lat="42.88399" lon="0.20451">
        <ele>2194.3609666411</ele>
        <time>2016-10-16T13:38:13Z</time>
      </trkpt>
      <trkpt lat="42.88402" lon="0.2045">
        <ele>2193.5060977803</ele>
        <time>2016-10-16T13:38:18Z</time>
      </trkpt>
      <trkpt lat="42.88402" lon="0.20449">
        <ele>2193.5060977803</ele>
        <time>2016-10-16T13:38:23Z</time>
      </trkpt>
      <trkpt lat="42.88402" lon="0.20448">
        <ele>2193.5060977803</ele>
        <time>2016-10-16T13:38:28Z</time>
      </trkpt>
      <trkpt lat="42.88403" lon="0.20449">
        <ele>2193.5060977803</ele>
        <time>2016-10-16T13:38:33Z</time>
      </trkpt>
      <trkpt lat="42.88403" lon="0.2045">
        <ele>2193.5060977803</ele>
        <time>2016-10-16T13:38:38Z</time>
      </trkpt>
      <trkpt lat="42.88406" lon="0.20445">
        <ele>2193.5060977803</ele>
        <time>2016-10-16T13:38:43Z</time>
      </trkpt>
      <trkpt lat="42.88407" lon="0.2044">
        <ele>2192.6282260263</ele>
        <time>2016-10-16T13:38:48Z</time>
      </trkpt>
      <trkpt lat="42.88408" lon="0.20436">
        <ele>2192.6282260263</ele>
        <time>2016-10-16T13:38:53Z</time>
      </trkpt>
      <trkpt lat="42.8841" lon="0.20436">
        <ele>2192.6282260263</ele>
        <time>2016-10-16T13:38:58Z</time>
      </trkpt>
      <trkpt lat="42.88412" lon="0.20433">
        <ele>2192.6282260263</ele>
        <time>2016-10-16T13:39:03Z</time>
      </trkpt>
      <trkpt lat="42.88414" lon="0.20431">
        <ele>2191.6896369259</ele>
        <time>2016-10-16T13:39:08Z</time>
      </trkpt>
      <trkpt lat="42.88416" lon="0.20432">
        <ele>2191.6896369259</ele>
        <time>2016-10-16T13:39:13Z</time>
      </trkpt>
      <trkpt lat="42.88419" lon="0.20434">
        <ele>2191.6896369259</ele>
        <time>2016-10-16T13:39:18Z</time>
      </trkpt>
      <trkpt lat="42.8842" lon="0.20433">
        <ele>2191.6896369259</ele>
        <time>2016-10-16T13:39:23Z</time>
      </trkpt>
      <trkpt lat="42.8842" lon="0.20432">
        <ele>2191.6896369259</ele>
        <time>2016-10-16T13:39:28Z</time>
      </trkpt>
      <trkpt lat="42.88434" lon="0.20425">
        <ele>2190.7418616944</ele>
        <time>2016-10-16T13:39:33Z</time>
      </trkpt>
      <trkpt lat="42.88435" lon="0.20421">
        <ele>2190.7418616944</ele>
        <time>2016-10-16T13:39:38Z</time>
      </trkpt>
      <trkpt lat="42.88427" lon="0.20431">
        <ele>2189.8325110219</ele>
        <time>2016-10-16T13:39:43Z</time>
      </trkpt>
      <trkpt lat="42.88428" lon="0.20442">
        <ele>2189.8325110219</ele>
        <time>2016-10-16T13:39:48Z</time>
      </trkpt>
      <trkpt lat="42.88433" lon="0.20445">
        <ele>2188.9621975208</ele>
        <time>2016-10-16T13:39:53Z</time>
      </trkpt>
      <trkpt lat="42.88434" lon="0.20445">
        <ele>2188.9621975208</ele>
        <time>2016-10-16T13:39:58Z</time>
      </trkpt>
      <trkpt lat="42.88436" lon="0.20446">
        <ele>2188.9621975208</ele>
        <time>2016-10-16T13:40:03Z</time>
      </trkpt>
      <trkpt lat="42.88435" lon="0.20446">
        <ele>2188.9621975208</ele>
        <time>2016-10-16T13:40:08Z</time>
      </trkpt>
      <trkpt lat="42.88435" lon="0.20447">
        <ele>2188.9621975208</ele>
        <time>2016-10-16T13:40:13Z</time>
      </trkpt>
      <trkpt lat="42.88437" lon="0.20448">
        <ele>2188.9621975208</ele>
        <time>2016-10-16T13:40:18Z</time>
      </trkpt>
      <trkpt lat="42.88438" lon="0.20448">
        <ele>2188.9621975208</ele>
        <time>2016-10-16T13:40:23Z</time>
      </trkpt>
      <trkpt lat="42.88436" lon="0.20448">
        <ele>2188.9621975208</ele>
        <time>2016-10-16T13:40:28Z</time>
      </trkpt>
      <trkpt lat="42.88438" lon="0.2045">
        <ele>2188.015932512</ele>
        <time>2016-10-16T13:40:33Z</time>
      </trkpt>
      <trkpt lat="42.88439" lon="0.20452">
        <ele>2188.015932512</ele>
        <time>2016-10-16T13:40:38Z</time>
      </trkpt>
      <trkpt lat="42.8844" lon="0.20456">
        <ele>2188.015932512</ele>
        <time>2016-10-16T13:40:43Z</time>
      </trkpt>
      <trkpt lat="42.8844" lon="0.20459">
        <ele>2188.015932512</ele>
        <time>2016-10-16T13:40:48Z</time>
      </trkpt>
      <trkpt lat="42.8844" lon="0.20459">
        <ele>2188.015932512</ele>
        <time>2016-10-16T13:40:53Z</time>
      </trkpt>
      <trkpt lat="42.88442" lon="0.20459">
        <ele>2187.0169315295</ele>
        <time>2016-10-16T13:40:58Z</time>
      </trkpt>
      <trkpt lat="42.88443" lon="0.20461">
        <ele>2187.0169315295</ele>
        <time>2016-10-16T13:41:03Z</time>
      </trkpt>
      <trkpt lat="42.88444" lon="0.2046">
        <ele>2187.0169315295</ele>
        <time>2016-10-16T13:41:08Z</time>
      </trkpt>
      <trkpt lat="42.88446" lon="0.20463">
        <ele>2187.0169315295</ele>
        <time>2016-10-16T13:41:13Z</time>
      </trkpt>
      <trkpt lat="42.88446" lon="0.20469">
        <ele>2186.029932282</ele>
        <time>2016-10-16T13:41:18Z</time>
      </trkpt>
      <trkpt lat="42.88446" lon="0.20469">
        <ele>2186.029932282</ele>
        <time>2016-10-16T13:41:23Z</time>
      </trkpt>
      <trkpt lat="42.8844" lon="0.20473">
        <ele>2186.029932282</ele>
        <time>2016-10-16T13:41:28Z</time>
      </trkpt>
      <trkpt lat="42.88441" lon="0.20475">
        <ele>2186.029932282</ele>
        <time>2016-10-16T13:41:33Z</time>
      </trkpt>
      <trkpt lat="42.88438" lon="0.20473">
        <ele>2185.0570873543</ele>
        <time>2016-10-16T13:41:38Z</time>
      </trkpt>
      <trkpt lat="42.88439" lon="0.20473">
        <ele>2185.0570873543</ele>
        <time>2016-10-16T13:41:43Z</time>
      </trkpt>
      <trkpt lat="42.88439" lon="0.20477">
        <ele>2185.0570873543</ele>
        <time>2016-10-16T13:41:48Z</time>
      </trkpt>
      <trkpt lat="42.88439" lon="0.20478">
        <ele>2185.0570873543</ele>
        <time>2016-10-16T13:41:53Z</time>
      </trkpt>
      <trkpt lat="42.88439" lon="0.20478">
        <ele>2185.0570873543</ele>
        <time>2016-10-16T13:41:58Z</time>
      </trkpt>
      <trkpt lat="42.88439" lon="0.20479">
        <ele>2185.0570873543</ele>
        <time>2016-10-16T13:42:03Z</time>
      </trkpt>
      <trkpt lat="42.88439" lon="0.20479">
        <ele>2185.0570873543</ele>
        <time>2016-10-16T13:42:08Z</time>
      </trkpt>
      <trkpt lat="42.88439" lon="0.20479">
        <ele>2185.0570873543</ele>
        <time>2016-10-16T13:42:13Z</time>
      </trkpt>
      <trkpt lat="42.88439" lon="0.20479">
        <ele>2185.0570873543</ele>
        <time>2016-10-16T13:42:18Z</time>
      </trkpt>
      <trkpt lat="42.88439" lon="0.20479">
        <ele>2185.0570873543</ele>
        <time>2016-10-16T13:42:23Z</time>
      </trkpt>
      <trkpt lat="42.88439" lon="0.20479">
        <ele>2185.0570873543</ele>
        <time>2016-10-16T13:42:28Z</time>
      </trkpt>
      <trkpt lat="42.88439" lon="0.20479">
        <ele>2185.0570873543</ele>
        <time>2016-10-16T13:42:33Z</time>
      </trkpt>
      <trkpt lat="42.88439" lon="0.20479">
        <ele>2185.0570873543</ele>
        <time>2016-10-16T13:42:38Z</time>
      </trkpt>
      <trkpt lat="42.88438" lon="0.20479">
        <ele>2185.0570873543</ele>
        <time>2016-10-16T13:42:43Z</time>
      </trkpt>
      <trkpt lat="42.88438" lon="0.2048">
        <ele>2185.0570873543</ele>
        <time>2016-10-16T13:42:48Z</time>
      </trkpt>
      <trkpt lat="42.88438" lon="0.2048">
        <ele>2185.0570873543</ele>
        <time>2016-10-16T13:42:53Z</time>
      </trkpt>
      <trkpt lat="42.88437" lon="0.2048">
        <ele>2185.0570873543</ele>
        <time>2016-10-16T13:42:58Z</time>
      </trkpt>
      <trkpt lat="42.88437" lon="0.20481">
        <ele>2185.0570873543</ele>
        <time>2016-10-16T13:43:03Z</time>
      </trkpt>
      <trkpt lat="42.88439" lon="0.20479">
        <ele>2183.8408020162</ele>
        <time>2016-10-16T13:43:08Z</time>
      </trkpt>
      <trkpt lat="42.8844" lon="0.20481">
        <ele>2183.8408020162</ele>
        <time>2016-10-16T13:43:13Z</time>
      </trkpt>
      <trkpt lat="42.88442" lon="0.20483">
        <ele>2183.8408020162</ele>
        <time>2016-10-16T13:43:18Z</time>
      </trkpt>
      <trkpt lat="42.88445" lon="0.20483">
        <ele>2183.8408020162</ele>
        <time>2016-10-16T13:43:23Z</time>
      </trkpt>
      <trkpt lat="42.88447" lon="0.20482">
        <ele>2182.3302838082</ele>
        <time>2016-10-16T13:43:28Z</time>
      </trkpt>
      <trkpt lat="42.88449" lon="0.20483">
        <ele>2182.3302838082</ele>
        <time>2016-10-16T13:43:33Z</time>
      </trkpt>
      <trkpt lat="42.88451" lon="0.20483">
        <ele>2182.3302838082</ele>
        <time>2016-10-16T13:43:38Z</time>
      </trkpt>
      <trkpt lat="42.88455" lon="0.20485">
        <ele>2182.3302838082</ele>
        <time>2016-10-16T13:43:43Z</time>
      </trkpt>
      <trkpt lat="42.88457" lon="0.20487">
        <ele>2180.6520829899</ele>
        <time>2016-10-16T13:43:48Z</time>
      </trkpt>
      <trkpt lat="42.88459" lon="0.2049">
        <ele>2180.6520829899</ele>
        <time>2016-10-16T13:43:53Z</time>
      </trkpt>
      <trkpt lat="42.88459" lon="0.20492">
        <ele>2180.6520829899</ele>
        <time>2016-10-16T13:43:58Z</time>
      </trkpt>
      <trkpt lat="42.88461" lon="0.20492">
        <ele>2180.6520829899</ele>
        <time>2016-10-16T13:44:03Z</time>
      </trkpt>
      <trkpt lat="42.88462" lon="0.20493">
        <ele>2180.6520829899</ele>
        <time>2016-10-16T13:44:08Z</time>
      </trkpt>
      <trkpt lat="42.88465" lon="0.20495">
        <ele>2178.7940760239</ele>
        <time>2016-10-16T13:44:13Z</time>
      </trkpt>
      <trkpt lat="42.88467" lon="0.20498">
        <ele>2178.7940760239</ele>
        <time>2016-10-16T13:44:18Z</time>
      </trkpt>
      <trkpt lat="42.8847" lon="0.20499">
        <ele>2178.7940760239</ele>
        <time>2016-10-16T13:44:23Z</time>
      </trkpt>
      <trkpt lat="42.88472" lon="0.20499">
        <ele>2178.7940760239</ele>
        <time>2016-10-16T13:44:28Z</time>
      </trkpt>
      <trkpt lat="42.8847" lon="0.205">
        <ele>2176.9183183246</ele>
        <time>2016-10-16T13:44:33Z</time>
      </trkpt>
      <trkpt lat="42.88471" lon="0.20497">
        <ele>2176.9183183246</ele>
        <time>2016-10-16T13:44:38Z</time>
      </trkpt>
      <trkpt lat="42.88473" lon="0.20499">
        <ele>2176.9183183246</ele>
        <time>2016-10-16T13:44:43Z</time>
      </trkpt>
      <trkpt lat="42.88475" lon="0.20504">
        <ele>2175.1028035232</ele>
        <time>2016-10-16T13:44:48Z</time>
      </trkpt>
      <trkpt lat="42.88474" lon="0.20508">
        <ele>2175.1028035232</ele>
        <time>2016-10-16T13:44:53Z</time>
      </trkpt>
      <trkpt lat="42.88474" lon="0.20514">
        <ele>2175.1028035232</ele>
        <time>2016-10-16T13:44:58Z</time>
      </trkpt>
      <trkpt lat="42.88472" lon="0.20521">
        <ele>2173.3041844996</ele>
        <time>2016-10-16T13:45:03Z</time>
      </trkpt>
      <trkpt lat="42.8847" lon="0.20525">
        <ele>2173.3041844996</ele>
        <time>2016-10-16T13:45:08Z</time>
      </trkpt>
      <trkpt lat="42.88471" lon="0.20525">
        <ele>2173.3041844996</ele>
        <time>2016-10-16T13:45:13Z</time>
      </trkpt>
      <trkpt lat="42.8847" lon="0.20525">
        <ele>2173.3041844996</ele>
        <time>2016-10-16T13:45:18Z</time>
      </trkpt>
      <trkpt lat="42.88472" lon="0.20526">
        <ele>2173.3041844996</ele>
        <time>2016-10-16T13:45:23Z</time>
      </trkpt>
      <trkpt lat="42.88473" lon="0.20526">
        <ele>2173.3041844996</ele>
        <time>2016-10-16T13:45:28Z</time>
      </trkpt>
      <trkpt lat="42.88474" lon="0.20526">
        <ele>2173.3041844996</ele>
        <time>2016-10-16T13:45:33Z</time>
      </trkpt>
      <trkpt lat="42.88476" lon="0.20528">
        <ele>2171.3379846068</ele>
        <time>2016-10-16T13:45:38Z</time>
      </trkpt>
      <trkpt lat="42.88477" lon="0.20529">
        <ele>2171.3379846068</ele>
        <time>2016-10-16T13:45:43Z</time>
      </trkpt>
      <trkpt lat="42.88477" lon="0.2053">
        <ele>2171.3379846068</ele>
        <time>2016-10-16T13:45:48Z</time>
      </trkpt>
      <trkpt lat="42.88478" lon="0.20531">
        <ele>2171.3379846068</ele>
        <time>2016-10-16T13:45:53Z</time>
      </trkpt>
      <trkpt lat="42.88478" lon="0.20532">
        <ele>2171.3379846068</ele>
        <time>2016-10-16T13:45:58Z</time>
      </trkpt>
      <trkpt lat="42.88478" lon="0.20533">
        <ele>2171.3379846068</ele>
        <time>2016-10-16T13:46:03Z</time>
      </trkpt>
      <trkpt lat="42.88479" lon="0.20533">
        <ele>2171.3379846068</ele>
        <time>2016-10-16T13:46:08Z</time>
      </trkpt>
      <trkpt lat="42.8848" lon="0.20534">
        <ele>2171.3379846068</ele>
        <time>2016-10-16T13:46:13Z</time>
      </trkpt>
      <trkpt lat="42.88481" lon="0.20534">
        <ele>2171.3379846068</ele>
        <time>2016-10-16T13:46:18Z</time>
      </trkpt>
      <trkpt lat="42.88483" lon="0.20537">
        <ele>2169.1056475083</ele>
        <time>2016-10-16T13:46:23Z</time>
      </trkpt>
      <trkpt lat="42.88487" lon="0.20539">
        <ele>2169.1056475083</ele>
        <time>2016-10-16T13:46:28Z</time>
      </trkpt>
      <trkpt lat="42.88488" lon="0.2054">
        <ele>2169.1056475083</ele>
        <time>2016-10-16T13:46:33Z</time>
      </trkpt>
      <trkpt lat="42.88489" lon="0.20542">
        <ele>2169.1056475083</ele>
        <time>2016-10-16T13:46:38Z</time>
      </trkpt>
      <trkpt lat="42.88493" lon="0.20547">
        <ele>2166.8046669355</ele>
        <time>2016-10-16T13:46:43Z</time>
      </trkpt>
      <trkpt lat="42.88496" lon="0.20552">
        <ele>2166.8046669355</ele>
        <time>2016-10-16T13:46:48Z</time>
      </trkpt>
      <trkpt lat="42.88499" lon="0.20557">
        <ele>2164.5892384305</ele>
        <time>2016-10-16T13:46:53Z</time>
      </trkpt>
      <trkpt lat="42.88499" lon="0.20558">
        <ele>2164.5892384305</ele>
        <time>2016-10-16T13:46:58Z</time>
      </trkpt>
      <trkpt lat="42.88501" lon="0.20558">
        <ele>2164.5892384305</ele>
        <time>2016-10-16T13:47:03Z</time>
      </trkpt>
      <trkpt lat="42.88503" lon="0.20559">
        <ele>2164.5892384305</ele>
        <time>2016-10-16T13:47:08Z</time>
      </trkpt>
      <trkpt lat="42.88504" lon="0.20559">
        <ele>2164.5892384305</ele>
        <time>2016-10-16T13:47:13Z</time>
      </trkpt>
      <trkpt lat="42.88504" lon="0.20559">
        <ele>2164.5892384305</ele>
        <time>2016-10-16T13:47:18Z</time>
      </trkpt>
      <trkpt lat="42.88505" lon="0.20558">
        <ele>2164.5892384305</ele>
        <time>2016-10-16T13:47:23Z</time>
      </trkpt>
      <trkpt lat="42.88506" lon="0.20559">
        <ele>2164.5892384305</ele>
        <time>2016-10-16T13:47:28Z</time>
      </trkpt>
      <trkpt lat="42.88506" lon="0.2056">
        <ele>2162.2847828087</ele>
        <time>2016-10-16T13:47:33Z</time>
      </trkpt>
      <trkpt lat="42.88507" lon="0.20559">
        <ele>2162.2847828087</ele>
        <time>2016-10-16T13:47:38Z</time>
      </trkpt>
      <trkpt lat="42.88508" lon="0.2056">
        <ele>2162.2847828087</ele>
        <time>2016-10-16T13:47:43Z</time>
      </trkpt>
      <trkpt lat="42.88509" lon="0.20562">
        <ele>2162.2847828087</ele>
        <time>2016-10-16T13:47:48Z</time>
      </trkpt>
      <trkpt lat="42.8851" lon="0.20562">
        <ele>2162.2847828087</ele>
        <time>2016-10-16T13:47:53Z</time>
      </trkpt>
      <trkpt lat="42.88509" lon="0.20561">
        <ele>2162.2847828087</ele>
        <time>2016-10-16T13:47:58Z</time>
      </trkpt>
      <trkpt lat="42.8851" lon="0.20561">
        <ele>2162.2847828087</ele>
        <time>2016-10-16T13:48:03Z</time>
      </trkpt>
      <trkpt lat="42.88509" lon="0.20561">
        <ele>2162.2847828087</ele>
        <time>2016-10-16T13:48:08Z</time>
      </trkpt>
      <trkpt lat="42.88509" lon="0.20561">
        <ele>2162.2847828087</ele>
        <time>2016-10-16T13:48:13Z</time>
      </trkpt>
      <trkpt lat="42.88509" lon="0.2056">
        <ele>2162.2847828087</ele>
        <time>2016-10-16T13:48:18Z</time>
      </trkpt>
      <trkpt lat="42.8851" lon="0.2056">
        <ele>2162.2847828087</ele>
        <time>2016-10-16T13:48:23Z</time>
      </trkpt>
      <trkpt lat="42.8851" lon="0.2056">
        <ele>2162.2847828087</ele>
        <time>2016-10-16T13:48:28Z</time>
      </trkpt>
      <trkpt lat="42.8851" lon="0.2056">
        <ele>2162.2847828087</ele>
        <time>2016-10-16T13:48:33Z</time>
      </trkpt>
      <trkpt lat="42.8851" lon="0.20559">
        <ele>2162.2847828087</ele>
        <time>2016-10-16T13:48:38Z</time>
      </trkpt>
      <trkpt lat="42.8851" lon="0.20559">
        <ele>2162.2847828087</ele>
        <time>2016-10-16T13:48:43Z</time>
      </trkpt>
      <trkpt lat="42.8851" lon="0.20559">
        <ele>2162.2847828087</ele>
        <time>2016-10-16T13:48:48Z</time>
      </trkpt>
      <trkpt lat="42.8851" lon="0.20559">
        <ele>2162.2847828087</ele>
        <time>2016-10-16T13:48:53Z</time>
      </trkpt>
      <trkpt lat="42.8851" lon="0.20559">
        <ele>2162.2847828087</ele>
        <time>2016-10-16T13:48:58Z</time>
      </trkpt>
      <trkpt lat="42.8851" lon="0.20559">
        <ele>2162.2847828087</ele>
        <time>2016-10-16T13:49:03Z</time>
      </trkpt>
      <trkpt lat="42.8851" lon="0.20559">
        <ele>2162.2847828087</ele>
        <time>2016-10-16T13:49:08Z</time>
      </trkpt>
      <trkpt lat="42.8851" lon="0.20559">
        <ele>2162.2847828087</ele>
        <time>2016-10-16T13:49:13Z</time>
      </trkpt>
      <trkpt lat="42.8851" lon="0.20559">
        <ele>2162.2847828087</ele>
        <time>2016-10-16T13:49:18Z</time>
      </trkpt>
      <trkpt lat="42.8851" lon="0.20559">
        <ele>2162.2847828087</ele>
        <time>2016-10-16T13:49:23Z</time>
      </trkpt>
      <trkpt lat="42.8851" lon="0.20559">
        <ele>2162.2847828087</ele>
        <time>2016-10-16T13:49:28Z</time>
      </trkpt>
      <trkpt lat="42.8851" lon="0.20558">
        <ele>2162.2847828087</ele>
        <time>2016-10-16T13:49:33Z</time>
      </trkpt>
      <trkpt lat="42.8851" lon="0.20559">
        <ele>2162.2847828087</ele>
        <time>2016-10-16T13:49:38Z</time>
      </trkpt>
      <trkpt lat="42.8851" lon="0.20558">
        <ele>2162.2847828087</ele>
        <time>2016-10-16T13:49:43Z</time>
      </trkpt>
      <trkpt lat="42.8851" lon="0.20558">
        <ele>2162.2847828087</ele>
        <time>2016-10-16T13:49:48Z</time>
      </trkpt>
      <trkpt lat="42.8851" lon="0.20558">
        <ele>2162.2847828087</ele>
        <time>2016-10-16T13:49:53Z</time>
      </trkpt>
      <trkpt lat="42.8851" lon="0.20558">
        <ele>2162.2847828087</ele>
        <time>2016-10-16T13:49:58Z</time>
      </trkpt>
      <trkpt lat="42.8851" lon="0.20558">
        <ele>2162.2847828087</ele>
        <time>2016-10-16T13:50:03Z</time>
      </trkpt>
      <trkpt lat="42.8851" lon="0.20558">
        <ele>2162.2847828087</ele>
        <time>2016-10-16T13:50:08Z</time>
      </trkpt>
      <trkpt lat="42.8851" lon="0.20558">
        <ele>2162.2847828087</ele>
        <time>2016-10-16T13:50:13Z</time>
      </trkpt>
      <trkpt lat="42.88509" lon="0.20558">
        <ele>2159.2540618844</ele>
        <time>2016-10-16T13:50:18Z</time>
      </trkpt>
      <trkpt lat="42.88509" lon="0.20558">
        <ele>2159.2540618844</ele>
        <time>2016-10-16T13:50:23Z</time>
      </trkpt>
      <trkpt lat="42.88509" lon="0.20558">
        <ele>2159.2540618844</ele>
        <time>2016-10-16T13:50:28Z</time>
      </trkpt>
      <trkpt lat="42.88509" lon="0.20558">
        <ele>2159.2540618844</ele>
        <time>2016-10-16T13:50:33Z</time>
      </trkpt>
      <trkpt lat="42.88509" lon="0.20558">
        <ele>2159.2540618844</ele>
        <time>2016-10-16T13:50:38Z</time>
      </trkpt>
      <trkpt lat="42.88509" lon="0.20558">
        <ele>2159.2540618844</ele>
        <time>2016-10-16T13:50:43Z</time>
      </trkpt>
      <trkpt lat="42.88509" lon="0.20558">
        <ele>2159.2540618844</ele>
        <time>2016-10-16T13:50:48Z</time>
      </trkpt>
      <trkpt lat="42.88508" lon="0.20558">
        <ele>2159.2540618844</ele>
        <time>2016-10-16T13:50:53Z</time>
      </trkpt>
      <trkpt lat="42.88508" lon="0.20557">
        <ele>2159.2540618844</ele>
        <time>2016-10-16T13:50:58Z</time>
      </trkpt>
      <trkpt lat="42.88509" lon="0.20557">
        <ele>2159.2540618844</ele>
        <time>2016-10-16T13:51:03Z</time>
      </trkpt>
      <trkpt lat="42.88508" lon="0.20557">
        <ele>2159.2540618844</ele>
        <time>2016-10-16T13:51:08Z</time>
      </trkpt>
      <trkpt lat="42.88508" lon="0.20557">
        <ele>2159.2540618844</ele>
        <time>2016-10-16T13:51:13Z</time>
      </trkpt>
      <trkpt lat="42.88507" lon="0.20557">
        <ele>2159.2540618844</ele>
        <time>2016-10-16T13:51:18Z</time>
      </trkpt>
      <trkpt lat="42.88507" lon="0.20556">
        <ele>2159.2540618844</ele>
        <time>2016-10-16T13:51:23Z</time>
      </trkpt>
      <trkpt lat="42.88507" lon="0.20557">
        <ele>2159.2540618844</ele>
        <time>2016-10-16T13:51:28Z</time>
      </trkpt>
      <trkpt lat="42.88507" lon="0.20557">
        <ele>2159.2540618844</ele>
        <time>2016-10-16T13:51:33Z</time>
      </trkpt>
      <trkpt lat="42.88508" lon="0.20557">
        <ele>2159.2540618844</ele>
        <time>2016-10-16T13:51:38Z</time>
      </trkpt>
      <trkpt lat="42.88508" lon="0.20557">
        <ele>2159.2540618844</ele>
        <time>2016-10-16T13:51:43Z</time>
      </trkpt>
      <trkpt lat="42.88505" lon="0.20555">
        <ele>2159.2540618844</ele>
        <time>2016-10-16T13:51:48Z</time>
      </trkpt>
      <trkpt lat="42.88502" lon="0.20553">
        <ele>2155.70112647</ele>
        <time>2016-10-16T13:51:53Z</time>
      </trkpt>
      <trkpt lat="42.88501" lon="0.20552">
        <ele>2155.70112647</ele>
        <time>2016-10-16T13:51:58Z</time>
      </trkpt>
      <trkpt lat="42.88498" lon="0.20553">
        <ele>2155.70112647</ele>
        <time>2016-10-16T13:52:03Z</time>
      </trkpt>
      <trkpt lat="42.88497" lon="0.20556">
        <ele>2155.70112647</ele>
        <time>2016-10-16T13:52:08Z</time>
      </trkpt>
      <trkpt lat="42.88497" lon="0.20557">
        <ele>2155.70112647</ele>
        <time>2016-10-16T13:52:13Z</time>
      </trkpt>
      <trkpt lat="42.88497" lon="0.20556">
        <ele>2155.70112647</ele>
        <time>2016-10-16T13:52:18Z</time>
      </trkpt>
      <trkpt lat="42.88496" lon="0.20555">
        <ele>2151.9172034005</ele>
        <time>2016-10-16T13:52:23Z</time>
      </trkpt>
      <trkpt lat="42.88495" lon="0.20555">
        <ele>2151.9172034005</ele>
        <time>2016-10-16T13:52:28Z</time>
      </trkpt>
      <trkpt lat="42.88495" lon="0.20555">
        <ele>2151.9172034005</ele>
        <time>2016-10-16T13:52:33Z</time>
      </trkpt>
      <trkpt lat="42.88495" lon="0.20556">
        <ele>2151.9172034005</ele>
        <time>2016-10-16T13:52:38Z</time>
      </trkpt>
      <trkpt lat="42.88494" lon="0.20556">
        <ele>2151.9172034005</ele>
        <time>2016-10-16T13:52:43Z</time>
      </trkpt>
      <trkpt lat="42.88493" lon="0.20559">
        <ele>2151.9172034005</ele>
        <time>2016-10-16T13:52:48Z</time>
      </trkpt>
      <trkpt lat="42.88491" lon="0.2056">
        <ele>2151.9172034005</ele>
        <time>2016-10-16T13:52:53Z</time>
      </trkpt>
      <trkpt lat="42.8849" lon="0.2056">
        <ele>2151.9172034005</ele>
        <time>2016-10-16T13:52:58Z</time>
      </trkpt>
      <trkpt lat="42.8849" lon="0.2056">
        <ele>2151.9172034005</ele>
        <time>2016-10-16T13:53:03Z</time>
      </trkpt>
      <trkpt lat="42.88489" lon="0.20559">
        <ele>2148.2734666115</ele>
        <time>2016-10-16T13:53:08Z</time>
      </trkpt>
      <trkpt lat="42.88488" lon="0.20562">
        <ele>2148.2734666115</ele>
        <time>2016-10-16T13:53:13Z</time>
      </trkpt>
      <trkpt lat="42.88488" lon="0.20562">
        <ele>2148.2734666115</ele>
        <time>2016-10-16T13:53:18Z</time>
      </trkpt>
      <trkpt lat="42.88488" lon="0.20563">
        <ele>2148.2734666115</ele>
        <time>2016-10-16T13:53:23Z</time>
      </trkpt>
      <trkpt lat="42.88487" lon="0.20563">
        <ele>2148.2734666115</ele>
        <time>2016-10-16T13:53:28Z</time>
      </trkpt>
      <trkpt lat="42.88487" lon="0.20564">
        <ele>2148.2734666115</ele>
        <time>2016-10-16T13:53:33Z</time>
      </trkpt>
      <trkpt lat="42.88487" lon="0.20565">
        <ele>2148.2734666115</ele>
        <time>2016-10-16T13:53:38Z</time>
      </trkpt>
      <trkpt lat="42.88487" lon="0.20565">
        <ele>2148.2734666115</ele>
        <time>2016-10-16T13:53:43Z</time>
      </trkpt>
      <trkpt lat="42.88486" lon="0.20566">
        <ele>2148.2734666115</ele>
        <time>2016-10-16T13:53:48Z</time>
      </trkpt>
      <trkpt lat="42.88485" lon="0.20566">
        <ele>2148.2734666115</ele>
        <time>2016-10-16T13:53:53Z</time>
      </trkpt>
      <trkpt lat="42.88485" lon="0.20567">
        <ele>2148.2734666115</ele>
        <time>2016-10-16T13:53:58Z</time>
      </trkpt>
      <trkpt lat="42.88485" lon="0.20567">
        <ele>2148.2734666115</ele>
        <time>2016-10-16T13:54:03Z</time>
      </trkpt>
      <trkpt lat="42.88485" lon="0.20567">
        <ele>2148.2734666115</ele>
        <time>2016-10-16T13:54:08Z</time>
      </trkpt>
      <trkpt lat="42.88484" lon="0.20569">
        <ele>2144.6088468983</ele>
        <time>2016-10-16T13:54:13Z</time>
      </trkpt>
      <trkpt lat="42.88484" lon="0.20572">
        <ele>2144.6088468983</ele>
        <time>2016-10-16T13:54:18Z</time>
      </trkpt>
      <trkpt lat="42.88485" lon="0.20574">
        <ele>2144.6088468983</ele>
        <time>2016-10-16T13:54:23Z</time>
      </trkpt>
      <trkpt lat="42.88485" lon="0.20577">
        <ele>2144.6088468983</ele>
        <time>2016-10-16T13:54:28Z</time>
      </trkpt>
      <trkpt lat="42.88485" lon="0.20579">
        <ele>2144.6088468983</ele>
        <time>2016-10-16T13:54:33Z</time>
      </trkpt>
      <trkpt lat="42.88486" lon="0.20586">
        <ele>2141.0621848118</ele>
        <time>2016-10-16T13:54:38Z</time>
      </trkpt>
      <trkpt lat="42.88488" lon="0.20587">
        <ele>2141.0621848118</ele>
        <time>2016-10-16T13:54:43Z</time>
      </trkpt>
      <trkpt lat="42.88488" lon="0.20587">
        <ele>2141.0621848118</ele>
        <time>2016-10-16T13:54:48Z</time>
      </trkpt>
      <trkpt lat="42.88489" lon="0.20589">
        <ele>2141.0621848118</ele>
        <time>2016-10-16T13:54:53Z</time>
      </trkpt>
      <trkpt lat="42.88489" lon="0.20592">
        <ele>2141.0621848118</ele>
        <time>2016-10-16T13:54:58Z</time>
      </trkpt>
      <trkpt lat="42.8849" lon="0.20597">
        <ele>2137.67511394</ele>
        <time>2016-10-16T13:55:03Z</time>
      </trkpt>
      <trkpt lat="42.88492" lon="0.20599">
        <ele>2137.67511394</ele>
        <time>2016-10-16T13:55:08Z</time>
      </trkpt>
      <trkpt lat="42.88495" lon="0.206">
        <ele>2137.67511394</ele>
        <time>2016-10-16T13:55:13Z</time>
      </trkpt>
      <trkpt lat="42.88495" lon="0.206">
        <ele>2137.67511394</ele>
        <time>2016-10-16T13:55:18Z</time>
      </trkpt>
      <trkpt lat="42.88496" lon="0.20601">
        <ele>2137.67511394</ele>
        <time>2016-10-16T13:55:23Z</time>
      </trkpt>
      <trkpt lat="42.88496" lon="0.206">
        <ele>2137.67511394</ele>
        <time>2016-10-16T13:55:28Z</time>
      </trkpt>
      <trkpt lat="42.88498" lon="0.20597">
        <ele>2134.5287801215</ele>
        <time>2016-10-16T13:55:33Z</time>
      </trkpt>
      <trkpt lat="42.88498" lon="0.20597">
        <ele>2134.5287801215</ele>
        <time>2016-10-16T13:55:38Z</time>
      </trkpt>
      <trkpt lat="42.88497" lon="0.20597">
        <ele>2134.5287801215</ele>
        <time>2016-10-16T13:55:43Z</time>
      </trkpt>
      <trkpt lat="42.88497" lon="0.20597">
        <ele>2134.5287801215</ele>
        <time>2016-10-16T13:55:48Z</time>
      </trkpt>
      <trkpt lat="42.885" lon="0.20597">
        <ele>2134.5287801215</ele>
        <time>2016-10-16T13:55:53Z</time>
      </trkpt>
      <trkpt lat="42.88503" lon="0.20597">
        <ele>2134.5287801215</ele>
        <time>2016-10-16T13:55:58Z</time>
      </trkpt>
      <trkpt lat="42.88503" lon="0.20597">
        <ele>2134.5287801215</ele>
        <time>2016-10-16T13:56:03Z</time>
      </trkpt>
      <trkpt lat="42.88503" lon="0.20597">
        <ele>2134.5287801215</ele>
        <time>2016-10-16T13:56:08Z</time>
      </trkpt>
      <trkpt lat="42.88504" lon="0.20597">
        <ele>2134.5287801215</ele>
        <time>2016-10-16T13:56:13Z</time>
      </trkpt>
      <trkpt lat="42.88503" lon="0.20597">
        <ele>2134.5287801215</ele>
        <time>2016-10-16T13:56:18Z</time>
      </trkpt>
      <trkpt lat="42.88503" lon="0.20598">
        <ele>2134.5287801215</ele>
        <time>2016-10-16T13:56:23Z</time>
      </trkpt>
      <trkpt lat="42.88503" lon="0.20598">
        <ele>2134.5287801215</ele>
        <time>2016-10-16T13:56:28Z</time>
      </trkpt>
      <trkpt lat="42.88504" lon="0.20598">
        <ele>2134.5287801215</ele>
        <time>2016-10-16T13:56:33Z</time>
      </trkpt>
      <trkpt lat="42.88504" lon="0.20598">
        <ele>2134.5287801215</ele>
        <time>2016-10-16T13:56:38Z</time>
      </trkpt>
      <trkpt lat="42.88504" lon="0.20598">
        <ele>2134.5287801215</ele>
        <time>2016-10-16T13:56:43Z</time>
      </trkpt>
      <trkpt lat="42.88504" lon="0.20598">
        <ele>2134.5287801215</ele>
        <time>2016-10-16T13:56:48Z</time>
      </trkpt>
      <trkpt lat="42.88504" lon="0.20598">
        <ele>2134.5287801215</ele>
        <time>2016-10-16T13:56:53Z</time>
      </trkpt>
      <trkpt lat="42.88504" lon="0.20598">
        <ele>2134.5287801215</ele>
        <time>2016-10-16T13:56:58Z</time>
      </trkpt>
      <trkpt lat="42.88504" lon="0.20597">
        <ele>2134.5287801215</ele>
        <time>2016-10-16T13:57:03Z</time>
      </trkpt>
      <trkpt lat="42.88503" lon="0.20597">
        <ele>2134.5287801215</ele>
        <time>2016-10-16T13:57:08Z</time>
      </trkpt>
      <trkpt lat="42.88504" lon="0.20596">
        <ele>2131.4380749743</ele>
        <time>2016-10-16T13:57:13Z</time>
      </trkpt>
      <trkpt lat="42.88504" lon="0.20592">
        <ele>2131.4380749743</ele>
        <time>2016-10-16T13:57:18Z</time>
      </trkpt>
      <trkpt lat="42.88505" lon="0.2059">
        <ele>2131.4380749743</ele>
        <time>2016-10-16T13:57:23Z</time>
      </trkpt>
      <trkpt lat="42.88508" lon="0.20587">
        <ele>2131.4380749743</ele>
        <time>2016-10-16T13:57:28Z</time>
      </trkpt>
      <trkpt lat="42.88508" lon="0.20583">
        <ele>2128.6058027278</ele>
        <time>2016-10-16T13:57:33Z</time>
      </trkpt>
      <trkpt lat="42.88508" lon="0.20583">
        <ele>2128.6058027278</ele>
        <time>2016-10-16T13:57:38Z</time>
      </trkpt>
      <trkpt lat="42.88508" lon="0.20577">
        <ele>2128.6058027278</ele>
        <time>2016-10-16T13:57:43Z</time>
      </trkpt>
      <trkpt lat="42.88504" lon="0.20571">
        <ele>2126.0604060381</ele>
        <time>2016-10-16T13:57:48Z</time>
      </trkpt>
      <trkpt lat="42.88504" lon="0.20563">
        <ele>2126.0604060381</ele>
        <time>2016-10-16T13:57:53Z</time>
      </trkpt>
      <trkpt lat="42.88503" lon="0.20563">
        <ele>2126.0604060381</ele>
        <time>2016-10-16T13:57:58Z</time>
      </trkpt>
      <trkpt lat="42.88503" lon="0.20561">
        <ele>2126.0604060381</ele>
        <time>2016-10-16T13:58:03Z</time>
      </trkpt>
      <trkpt lat="42.88502" lon="0.20559">
        <ele>2123.7983989937</ele>
        <time>2016-10-16T13:58:08Z</time>
      </trkpt>
      <trkpt lat="42.88502" lon="0.20555">
        <ele>2123.7983989937</ele>
        <time>2016-10-16T13:58:13Z</time>
      </trkpt>
      <trkpt lat="42.88502" lon="0.20554">
        <ele>2123.7983989937</ele>
        <time>2016-10-16T13:58:18Z</time>
      </trkpt>
      <trkpt lat="42.88501" lon="0.20554">
        <ele>2123.7983989937</ele>
        <time>2016-10-16T13:58:23Z</time>
      </trkpt>
      <trkpt lat="42.88502" lon="0.20554">
        <ele>2123.7983989937</ele>
        <time>2016-10-16T13:58:28Z</time>
      </trkpt>
      <trkpt lat="42.88502" lon="0.20554">
        <ele>2123.7983989937</ele>
        <time>2016-10-16T13:58:33Z</time>
      </trkpt>
      <trkpt lat="42.88502" lon="0.20554">
        <ele>2123.7983989937</ele>
        <time>2016-10-16T13:58:38Z</time>
      </trkpt>
      <trkpt lat="42.88502" lon="0.20554">
        <ele>2123.7983989937</ele>
        <time>2016-10-16T13:58:43Z</time>
      </trkpt>
      <trkpt lat="42.88502" lon="0.20554">
        <ele>2123.7983989937</ele>
        <time>2016-10-16T13:58:48Z</time>
      </trkpt>
      <trkpt lat="42.88501" lon="0.20555">
        <ele>2123.7983989937</ele>
        <time>2016-10-16T13:58:53Z</time>
      </trkpt>
      <trkpt lat="42.88501" lon="0.20555">
        <ele>2123.7983989937</ele>
        <time>2016-10-16T13:58:58Z</time>
      </trkpt>
      <trkpt lat="42.88501" lon="0.20555">
        <ele>2123.7983989937</ele>
        <time>2016-10-16T13:59:03Z</time>
      </trkpt>
      <trkpt lat="42.88501" lon="0.20555">
        <ele>2123.7983989937</ele>
        <time>2016-10-16T13:59:08Z</time>
      </trkpt>
      <trkpt lat="42.88501" lon="0.20556">
        <ele>2123.7983989937</ele>
        <time>2016-10-16T13:59:13Z</time>
      </trkpt>
      <trkpt lat="42.88501" lon="0.20556">
        <ele>2123.7983989937</ele>
        <time>2016-10-16T13:59:18Z</time>
      </trkpt>
      <trkpt lat="42.88501" lon="0.20556">
        <ele>2123.7983989937</ele>
        <time>2016-10-16T13:59:23Z</time>
      </trkpt>
      <trkpt lat="42.88501" lon="0.20556">
        <ele>2123.7983989937</ele>
        <time>2016-10-16T13:59:28Z</time>
      </trkpt>
      <trkpt lat="42.88501" lon="0.20556">
        <ele>2123.7983989937</ele>
        <time>2016-10-16T13:59:33Z</time>
      </trkpt>
      <trkpt lat="42.88501" lon="0.20556">
        <ele>2123.7983989937</ele>
        <time>2016-10-16T13:59:38Z</time>
      </trkpt>
      <trkpt lat="42.88501" lon="0.20556">
        <ele>2123.7983989937</ele>
        <time>2016-10-16T13:59:43Z</time>
      </trkpt>
      <trkpt lat="42.88501" lon="0.20555">
        <ele>2123.7983989937</ele>
        <time>2016-10-16T13:59:48Z</time>
      </trkpt>
      <trkpt lat="42.88501" lon="0.20555">
        <ele>2123.7983989937</ele>
        <time>2016-10-16T13:59:53Z</time>
      </trkpt>
      <trkpt lat="42.88501" lon="0.20555">
        <ele>2123.7983989937</ele>
        <time>2016-10-16T13:59:58Z</time>
      </trkpt>
      <trkpt lat="42.88501" lon="0.20555">
        <ele>2123.7983989937</ele>
        <time>2016-10-16T14:00:03Z</time>
      </trkpt>
      <trkpt lat="42.88501" lon="0.20555">
        <ele>2123.7983989937</ele>
        <time>2016-10-16T14:00:08Z</time>
      </trkpt>
      <trkpt lat="42.88501" lon="0.20555">
        <ele>2123.7983989937</ele>
        <time>2016-10-16T14:00:13Z</time>
      </trkpt>
      <trkpt lat="42.88498" lon="0.20546">
        <ele>2121.7579066275</ele>
        <time>2016-10-16T14:00:18Z</time>
      </trkpt>
      <trkpt lat="42.88498" lon="0.20552">
        <ele>2121.7579066275</ele>
        <time>2016-10-16T14:00:23Z</time>
      </trkpt>
      <trkpt lat="42.88498" lon="0.20551">
        <ele>2121.7579066275</ele>
        <time>2016-10-16T14:00:28Z</time>
      </trkpt>
      <trkpt lat="42.88498" lon="0.20551">
        <ele>2121.7579066275</ele>
        <time>2016-10-16T14:00:33Z</time>
      </trkpt>
      <trkpt lat="42.88499" lon="0.20552">
        <ele>2121.7579066275</ele>
        <time>2016-10-16T14:00:38Z</time>
      </trkpt>
      <trkpt lat="42.88499" lon="0.20553">
        <ele>2121.7579066275</ele>
        <time>2016-10-16T14:00:43Z</time>
      </trkpt>
      <trkpt lat="42.88499" lon="0.20553">
        <ele>2121.7579066275</ele>
        <time>2016-10-16T14:00:48Z</time>
      </trkpt>
      <trkpt lat="42.88499" lon="0.20553">
        <ele>2121.7579066275</ele>
        <time>2016-10-16T14:00:53Z</time>
      </trkpt>
      <trkpt lat="42.885" lon="0.20554">
        <ele>2121.7579066275</ele>
        <time>2016-10-16T14:00:58Z</time>
      </trkpt>
      <trkpt lat="42.885" lon="0.20554">
        <ele>2121.7579066275</ele>
        <time>2016-10-16T14:01:03Z</time>
      </trkpt>
      <trkpt lat="42.885" lon="0.20554">
        <ele>2121.7579066275</ele>
        <time>2016-10-16T14:01:08Z</time>
      </trkpt>
      <trkpt lat="42.885" lon="0.20554">
        <ele>2121.7579066275</ele>
        <time>2016-10-16T14:01:13Z</time>
      </trkpt>
      <trkpt lat="42.885" lon="0.20554">
        <ele>2121.7579066275</ele>
        <time>2016-10-16T14:01:18Z</time>
      </trkpt>
      <trkpt lat="42.885" lon="0.20554">
        <ele>2121.7579066275</ele>
        <time>2016-10-16T14:01:23Z</time>
      </trkpt>
      <trkpt lat="42.885" lon="0.20554">
        <ele>2121.7579066275</ele>
        <time>2016-10-16T14:01:28Z</time>
      </trkpt>
      <trkpt lat="42.885" lon="0.20554">
        <ele>2121.7579066275</ele>
        <time>2016-10-16T14:01:33Z</time>
      </trkpt>
      <trkpt lat="42.885" lon="0.20555">
        <ele>2121.7579066275</ele>
        <time>2016-10-16T14:01:38Z</time>
      </trkpt>
      <trkpt lat="42.88501" lon="0.20555">
        <ele>2121.7579066275</ele>
        <time>2016-10-16T14:01:43Z</time>
      </trkpt>
      <trkpt lat="42.88501" lon="0.20556">
        <ele>2121.7579066275</ele>
        <time>2016-10-16T14:01:48Z</time>
      </trkpt>
      <trkpt lat="42.88501" lon="0.20556">
        <ele>2121.7579066275</ele>
        <time>2016-10-16T14:01:53Z</time>
      </trkpt>
      <trkpt lat="42.88501" lon="0.20556">
        <ele>2121.7579066275</ele>
        <time>2016-10-16T14:01:58Z</time>
      </trkpt>
      <trkpt lat="42.88501" lon="0.20556">
        <ele>2121.7579066275</ele>
        <time>2016-10-16T14:02:03Z</time>
      </trkpt>
      <trkpt lat="42.88501" lon="0.20556">
        <ele>2121.7579066275</ele>
        <time>2016-10-16T14:02:08Z</time>
      </trkpt>
      <trkpt lat="42.88502" lon="0.20556">
        <ele>2119.9096031942</ele>
        <time>2016-10-16T14:02:13Z</time>
      </trkpt>
      <trkpt lat="42.88502" lon="0.20556">
        <ele>2119.9096031942</ele>
        <time>2016-10-16T14:02:18Z</time>
      </trkpt>
      <trkpt lat="42.88502" lon="0.20556">
        <ele>2119.9096031942</ele>
        <time>2016-10-16T14:02:23Z</time>
      </trkpt>
      <trkpt lat="42.88502" lon="0.20556">
        <ele>2119.9096031942</ele>
        <time>2016-10-16T14:02:28Z</time>
      </trkpt>
      <trkpt lat="42.88502" lon="0.20556">
        <ele>2119.9096031942</ele>
        <time>2016-10-16T14:02:33Z</time>
      </trkpt>
      <trkpt lat="42.88502" lon="0.20556">
        <ele>2119.9096031942</ele>
        <time>2016-10-16T14:02:38Z</time>
      </trkpt>
      <trkpt lat="42.88502" lon="0.20556">
        <ele>2119.9096031942</ele>
        <time>2016-10-16T14:02:43Z</time>
      </trkpt>
      <trkpt lat="42.88502" lon="0.20557">
        <ele>2119.9096031942</ele>
        <time>2016-10-16T14:02:48Z</time>
      </trkpt>
      <trkpt lat="42.88502" lon="0.20557">
        <ele>2119.9096031942</ele>
        <time>2016-10-16T14:02:53Z</time>
      </trkpt>
      <trkpt lat="42.88502" lon="0.20557">
        <ele>2119.9096031942</ele>
        <time>2016-10-16T14:02:58Z</time>
      </trkpt>
      <trkpt lat="42.88502" lon="0.20557">
        <ele>2119.9096031942</ele>
        <time>2016-10-16T14:03:03Z</time>
      </trkpt>
      <trkpt lat="42.88502" lon="0.20558">
        <ele>2119.9096031942</ele>
        <time>2016-10-16T14:03:08Z</time>
      </trkpt>
      <trkpt lat="42.88502" lon="0.20558">
        <ele>2119.9096031942</ele>
        <time>2016-10-16T14:03:13Z</time>
      </trkpt>
      <trkpt lat="42.88502" lon="0.20558">
        <ele>2119.9096031942</ele>
        <time>2016-10-16T14:03:18Z</time>
      </trkpt>
      <trkpt lat="42.88502" lon="0.20559">
        <ele>2119.9096031942</ele>
        <time>2016-10-16T14:03:23Z</time>
      </trkpt>
      <trkpt lat="42.88503" lon="0.20559">
        <ele>2119.9096031942</ele>
        <time>2016-10-16T14:03:28Z</time>
      </trkpt>
      <trkpt lat="42.88503" lon="0.20559">
        <ele>2119.9096031942</ele>
        <time>2016-10-16T14:03:33Z</time>
      </trkpt>
      <trkpt lat="42.88503" lon="0.20559">
        <ele>2119.9096031942</ele>
        <time>2016-10-16T14:03:38Z</time>
      </trkpt>
      <trkpt lat="42.88503" lon="0.20559">
        <ele>2119.9096031942</ele>
        <time>2016-10-16T14:03:43Z</time>
      </trkpt>
      <trkpt lat="42.88503" lon="0.20559">
        <ele>2119.9096031942</ele>
        <time>2016-10-16T14:03:48Z</time>
      </trkpt>
      <trkpt lat="42.88503" lon="0.20559">
        <ele>2119.9096031942</ele>
        <time>2016-10-16T14:03:53Z</time>
      </trkpt>
      <trkpt lat="42.88503" lon="0.20559">
        <ele>2119.9096031942</ele>
        <time>2016-10-16T14:03:58Z</time>
      </trkpt>
      <trkpt lat="42.88503" lon="0.20559">
        <ele>2119.9096031942</ele>
        <time>2016-10-16T14:04:03Z</time>
      </trkpt>
      <trkpt lat="42.88503" lon="0.20559">
        <ele>2119.9096031942</ele>
        <time>2016-10-16T14:04:08Z</time>
      </trkpt>
      <trkpt lat="42.88503" lon="0.20559">
        <ele>2119.9096031942</ele>
        <time>2016-10-16T14:04:13Z</time>
      </trkpt>
      <trkpt lat="42.88503" lon="0.2056">
        <ele>2119.9096031942</ele>
        <time>2016-10-16T14:04:18Z</time>
      </trkpt>
      <trkpt lat="42.88503" lon="0.20559">
        <ele>2119.9096031942</ele>
        <time>2016-10-16T14:04:23Z</time>
      </trkpt>
      <trkpt lat="42.88503" lon="0.20559">
        <ele>2119.9096031942</ele>
        <time>2016-10-16T14:04:28Z</time>
      </trkpt>
      <trkpt lat="42.88503" lon="0.20559">
        <ele>2119.9096031942</ele>
        <time>2016-10-16T14:04:33Z</time>
      </trkpt>
      <trkpt lat="42.88503" lon="0.20559">
        <ele>2119.9096031942</ele>
        <time>2016-10-16T14:04:38Z</time>
      </trkpt>
      <trkpt lat="42.88502" lon="0.20559">
        <ele>2119.9096031942</ele>
        <time>2016-10-16T14:04:43Z</time>
      </trkpt>
      <trkpt lat="42.88502" lon="0.20559">
        <ele>2119.9096031942</ele>
        <time>2016-10-16T14:04:48Z</time>
      </trkpt>
      <trkpt lat="42.88502" lon="0.20559">
        <ele>2119.9096031942</ele>
        <time>2016-10-16T14:04:53Z</time>
      </trkpt>
      <trkpt lat="42.88502" lon="0.20559">
        <ele>2119.9096031942</ele>
        <time>2016-10-16T14:04:58Z</time>
      </trkpt>
      <trkpt lat="42.88502" lon="0.20559">
        <ele>2119.9096031942</ele>
        <time>2016-10-16T14:05:03Z</time>
      </trkpt>
      <trkpt lat="42.88502" lon="0.20559">
        <ele>2119.9096031942</ele>
        <time>2016-10-16T14:05:08Z</time>
      </trkpt>
      <trkpt lat="42.88502" lon="0.2056">
        <ele>2119.9096031942</ele>
        <time>2016-10-16T14:05:13Z</time>
      </trkpt>
      <trkpt lat="42.88502" lon="0.2056">
        <ele>2119.9096031942</ele>
        <time>2016-10-16T14:05:18Z</time>
      </trkpt>
      <trkpt lat="42.88502" lon="0.2056">
        <ele>2119.9096031942</ele>
        <time>2016-10-16T14:05:23Z</time>
      </trkpt>
      <trkpt lat="42.88502" lon="0.2056">
        <ele>2119.9096031942</ele>
        <time>2016-10-16T14:05:28Z</time>
      </trkpt>
      <trkpt lat="42.88502" lon="0.2056">
        <ele>2119.9096031942</ele>
        <time>2016-10-16T14:05:33Z</time>
      </trkpt>
      <trkpt lat="42.88502" lon="0.2056">
        <ele>2119.9096031942</ele>
        <time>2016-10-16T14:05:38Z</time>
      </trkpt>
      <trkpt lat="42.88502" lon="0.2056">
        <ele>2119.9096031942</ele>
        <time>2016-10-16T14:05:43Z</time>
      </trkpt>
      <trkpt lat="42.88502" lon="0.2056">
        <ele>2119.9096031942</ele>
        <time>2016-10-16T14:05:48Z</time>
      </trkpt>
      <trkpt lat="42.88502" lon="0.2056">
        <ele>2119.9096031942</ele>
        <time>2016-10-16T14:05:53Z</time>
      </trkpt>
      <trkpt lat="42.88502" lon="0.2056">
        <ele>2119.9096031942</ele>
        <time>2016-10-16T14:05:58Z</time>
      </trkpt>
      <trkpt lat="42.88502" lon="0.20559">
        <ele>2119.9096031942</ele>
        <time>2016-10-16T14:06:03Z</time>
      </trkpt>
      <trkpt lat="42.88502" lon="0.2056">
        <ele>2119.9096031942</ele>
        <time>2016-10-16T14:06:08Z</time>
      </trkpt>
      <trkpt lat="42.88503" lon="0.20559">
        <ele>2119.9096031942</ele>
        <time>2016-10-16T14:06:13Z</time>
      </trkpt>
      <trkpt lat="42.88502" lon="0.20559">
        <ele>2119.9096031942</ele>
        <time>2016-10-16T14:06:18Z</time>
      </trkpt>
      <trkpt lat="42.88503" lon="0.20559">
        <ele>2119.9096031942</ele>
        <time>2016-10-16T14:06:23Z</time>
      </trkpt>
      <trkpt lat="42.88502" lon="0.2056">
        <ele>2119.9096031942</ele>
        <time>2016-10-16T14:06:28Z</time>
      </trkpt>
      <trkpt lat="42.88502" lon="0.20561">
        <ele>2119.9096031942</ele>
        <time>2016-10-16T14:06:33Z</time>
      </trkpt>
      <trkpt lat="42.88502" lon="0.20561">
        <ele>2119.9096031942</ele>
        <time>2016-10-16T14:06:38Z</time>
      </trkpt>
      <trkpt lat="42.88502" lon="0.20561">
        <ele>2119.9096031942</ele>
        <time>2016-10-16T14:06:43Z</time>
      </trkpt>
      <trkpt lat="42.88502" lon="0.20561">
        <ele>2119.9096031942</ele>
        <time>2016-10-16T14:06:48Z</time>
      </trkpt>
      <trkpt lat="42.88502" lon="0.20561">
        <ele>2119.9096031942</ele>
        <time>2016-10-16T14:06:53Z</time>
      </trkpt>
      <trkpt lat="42.88501" lon="0.20561">
        <ele>2119.9096031942</ele>
        <time>2016-10-16T14:06:58Z</time>
      </trkpt>
      <trkpt lat="42.88501" lon="0.2056">
        <ele>2118.1679472473</ele>
        <time>2016-10-16T14:07:03Z</time>
      </trkpt>
      <trkpt lat="42.88501" lon="0.20559">
        <ele>2118.1679472473</ele>
        <time>2016-10-16T14:07:08Z</time>
      </trkpt>
      <trkpt lat="42.88501" lon="0.20559">
        <ele>2118.1679472473</ele>
        <time>2016-10-16T14:07:13Z</time>
      </trkpt>
      <trkpt lat="42.88501" lon="0.20559">
        <ele>2118.1679472473</ele>
        <time>2016-10-16T14:07:18Z</time>
      </trkpt>
      <trkpt lat="42.88501" lon="0.20559">
        <ele>2118.1679472473</ele>
        <time>2016-10-16T14:07:23Z</time>
      </trkpt>
      <trkpt lat="42.88501" lon="0.20559">
        <ele>2118.1679472473</ele>
        <time>2016-10-16T14:07:28Z</time>
      </trkpt>
      <trkpt lat="42.88501" lon="0.20559">
        <ele>2118.1679472473</ele>
        <time>2016-10-16T14:07:33Z</time>
      </trkpt>
      <trkpt lat="42.88501" lon="0.20559">
        <ele>2118.1679472473</ele>
        <time>2016-10-16T14:07:38Z</time>
      </trkpt>
      <trkpt lat="42.88501" lon="0.20559">
        <ele>2118.1679472473</ele>
        <time>2016-10-16T14:07:43Z</time>
      </trkpt>
      <trkpt lat="42.88501" lon="0.20558">
        <ele>2118.1679472473</ele>
        <time>2016-10-16T14:07:48Z</time>
      </trkpt>
      <trkpt lat="42.88501" lon="0.20558">
        <ele>2118.1679472473</ele>
        <time>2016-10-16T14:07:53Z</time>
      </trkpt>
      <trkpt lat="42.88501" lon="0.20558">
        <ele>2118.1679472473</ele>
        <time>2016-10-16T14:07:58Z</time>
      </trkpt>
      <trkpt lat="42.88501" lon="0.20558">
        <ele>2118.1679472473</ele>
        <time>2016-10-16T14:08:03Z</time>
      </trkpt>
      <trkpt lat="42.88501" lon="0.20558">
        <ele>2118.1679472473</ele>
        <time>2016-10-16T14:08:08Z</time>
      </trkpt>
      <trkpt lat="42.88501" lon="0.20558">
        <ele>2118.1679472473</ele>
        <time>2016-10-16T14:08:13Z</time>
      </trkpt>
      <trkpt lat="42.88501" lon="0.20558">
        <ele>2118.1679472473</ele>
        <time>2016-10-16T14:08:18Z</time>
      </trkpt>
      <trkpt lat="42.88501" lon="0.20558">
        <ele>2118.1679472473</ele>
        <time>2016-10-16T14:08:23Z</time>
      </trkpt>
      <trkpt lat="42.88501" lon="0.20558">
        <ele>2118.1679472473</ele>
        <time>2016-10-16T14:08:28Z</time>
      </trkpt>
      <trkpt lat="42.88501" lon="0.20558">
        <ele>2118.1679472473</ele>
        <time>2016-10-16T14:08:33Z</time>
      </trkpt>
      <trkpt lat="42.88501" lon="0.20558">
        <ele>2118.1679472473</ele>
        <time>2016-10-16T14:08:38Z</time>
      </trkpt>
      <trkpt lat="42.88501" lon="0.20558">
        <ele>2118.1679472473</ele>
        <time>2016-10-16T14:08:43Z</time>
      </trkpt>
      <trkpt lat="42.88501" lon="0.20558">
        <ele>2118.1679472473</ele>
        <time>2016-10-16T14:08:48Z</time>
      </trkpt>
      <trkpt lat="42.88501" lon="0.20559">
        <ele>2118.1679472473</ele>
        <time>2016-10-16T14:08:53Z</time>
      </trkpt>
      <trkpt lat="42.88501" lon="0.20558">
        <ele>2118.1679472473</ele>
        <time>2016-10-16T14:08:58Z</time>
      </trkpt>
      <trkpt lat="42.88501" lon="0.20559">
        <ele>2118.1679472473</ele>
        <time>2016-10-16T14:09:03Z</time>
      </trkpt>
      <trkpt lat="42.885" lon="0.20558">
        <ele>2118.1679472473</ele>
        <time>2016-10-16T14:09:08Z</time>
      </trkpt>
      <trkpt lat="42.885" lon="0.20558">
        <ele>2118.1679472473</ele>
        <time>2016-10-16T14:09:13Z</time>
      </trkpt>
      <trkpt lat="42.885" lon="0.20558">
        <ele>2118.1679472473</ele>
        <time>2016-10-16T14:09:18Z</time>
      </trkpt>
      <trkpt lat="42.885" lon="0.20558">
        <ele>2118.1679472473</ele>
        <time>2016-10-16T14:09:23Z</time>
      </trkpt>
      <trkpt lat="42.885" lon="0.20558">
        <ele>2118.1679472473</ele>
        <time>2016-10-16T14:09:28Z</time>
      </trkpt>
      <trkpt lat="42.88501" lon="0.20558">
        <ele>2118.1679472473</ele>
        <time>2016-10-16T14:09:33Z</time>
      </trkpt>
      <trkpt lat="42.885" lon="0.20557">
        <ele>2118.1679472473</ele>
        <time>2016-10-16T14:09:38Z</time>
      </trkpt>
      <trkpt lat="42.885" lon="0.20557">
        <ele>2118.1679472473</ele>
        <time>2016-10-16T14:09:43Z</time>
      </trkpt>
      <trkpt lat="42.88501" lon="0.20557">
        <ele>2118.1679472473</ele>
        <time>2016-10-16T14:09:48Z</time>
      </trkpt>
      <trkpt lat="42.88501" lon="0.20557">
        <ele>2118.1679472473</ele>
        <time>2016-10-16T14:09:53Z</time>
      </trkpt>
      <trkpt lat="42.88501" lon="0.20557">
        <ele>2118.1679472473</ele>
        <time>2016-10-16T14:09:58Z</time>
      </trkpt>
      <trkpt lat="42.885" lon="0.20557">
        <ele>2118.1679472473</ele>
        <time>2016-10-16T14:10:03Z</time>
      </trkpt>
      <trkpt lat="42.885" lon="0.20556">
        <ele>2118.1679472473</ele>
        <time>2016-10-16T14:10:08Z</time>
      </trkpt>
      <trkpt lat="42.885" lon="0.20556">
        <ele>2118.1679472473</ele>
        <time>2016-10-16T14:10:13Z</time>
      </trkpt>
      <trkpt lat="42.885" lon="0.20557">
        <ele>2118.1679472473</ele>
        <time>2016-10-16T14:10:18Z</time>
      </trkpt>
      <trkpt lat="42.885" lon="0.20557">
        <ele>2118.1679472473</ele>
        <time>2016-10-16T14:10:23Z</time>
      </trkpt>
      <trkpt lat="42.885" lon="0.20557">
        <ele>2118.1679472473</ele>
        <time>2016-10-16T14:10:28Z</time>
      </trkpt>
      <trkpt lat="42.885" lon="0.20557">
        <ele>2118.1679472473</ele>
        <time>2016-10-16T14:10:33Z</time>
      </trkpt>
      <trkpt lat="42.885" lon="0.20557">
        <ele>2118.1679472473</ele>
        <time>2016-10-16T14:10:38Z</time>
      </trkpt>
      <trkpt lat="42.885" lon="0.20557">
        <ele>2118.1679472473</ele>
        <time>2016-10-16T14:10:43Z</time>
      </trkpt>
      <trkpt lat="42.885" lon="0.20557">
        <ele>2118.1679472473</ele>
        <time>2016-10-16T14:10:48Z</time>
      </trkpt>
      <trkpt lat="42.885" lon="0.20557">
        <ele>2118.1679472473</ele>
        <time>2016-10-16T14:10:53Z</time>
      </trkpt>
      <trkpt lat="42.885" lon="0.20558">
        <ele>2118.1679472473</ele>
        <time>2016-10-16T14:10:58Z</time>
      </trkpt>
      <trkpt lat="42.885" lon="0.20558">
        <ele>2118.1679472473</ele>
        <time>2016-10-16T14:11:03Z</time>
      </trkpt>
      <trkpt lat="42.885" lon="0.20558">
        <ele>2118.1679472473</ele>
        <time>2016-10-16T14:11:08Z</time>
      </trkpt>
      <trkpt lat="42.88501" lon="0.20558">
        <ele>2118.1679472473</ele>
        <time>2016-10-16T14:11:13Z</time>
      </trkpt>
      <trkpt lat="42.88501" lon="0.20558">
        <ele>2118.1679472473</ele>
        <time>2016-10-16T14:11:18Z</time>
      </trkpt>
      <trkpt lat="42.88501" lon="0.20558">
        <ele>2118.1679472473</ele>
        <time>2016-10-16T14:11:23Z</time>
      </trkpt>
      <trkpt lat="42.88501" lon="0.20559">
        <ele>2118.1679472473</ele>
        <time>2016-10-16T14:11:28Z</time>
      </trkpt>
      <trkpt lat="42.88501" lon="0.20559">
        <ele>2118.1679472473</ele>
        <time>2016-10-16T14:11:33Z</time>
      </trkpt>
      <trkpt lat="42.88501" lon="0.20559">
        <ele>2118.1679472473</ele>
        <time>2016-10-16T14:11:38Z</time>
      </trkpt>
      <trkpt lat="42.88501" lon="0.20559">
        <ele>2118.1679472473</ele>
        <time>2016-10-16T14:11:43Z</time>
      </trkpt>
      <trkpt lat="42.88501" lon="0.20559">
        <ele>2116.5684965062</ele>
        <time>2016-10-16T14:11:48Z</time>
      </trkpt>
      <trkpt lat="42.88501" lon="0.20559">
        <ele>2116.5684965062</ele>
        <time>2016-10-16T14:11:53Z</time>
      </trkpt>
      <trkpt lat="42.88501" lon="0.20559">
        <ele>2116.5684965062</ele>
        <time>2016-10-16T14:11:58Z</time>
      </trkpt>
      <trkpt lat="42.88501" lon="0.2056">
        <ele>2116.5684965062</ele>
        <time>2016-10-16T14:12:03Z</time>
      </trkpt>
      <trkpt lat="42.88501" lon="0.2056">
        <ele>2116.5684965062</ele>
        <time>2016-10-16T14:12:08Z</time>
      </trkpt>
      <trkpt lat="42.88501" lon="0.2056">
        <ele>2116.5684965062</ele>
        <time>2016-10-16T14:12:13Z</time>
      </trkpt>
      <trkpt lat="42.88502" lon="0.20559">
        <ele>2116.5684965062</ele>
        <time>2016-10-16T14:12:18Z</time>
      </trkpt>
      <trkpt lat="42.88503" lon="0.2056">
        <ele>2116.5684965062</ele>
        <time>2016-10-16T14:12:23Z</time>
      </trkpt>
      <trkpt lat="42.88503" lon="0.2056">
        <ele>2116.5684965062</ele>
        <time>2016-10-16T14:12:28Z</time>
      </trkpt>
      <trkpt lat="42.88503" lon="0.2056">
        <ele>2116.5684965062</ele>
        <time>2016-10-16T14:12:33Z</time>
      </trkpt>
      <trkpt lat="42.88504" lon="0.20559">
        <ele>2116.5684965062</ele>
        <time>2016-10-16T14:12:38Z</time>
      </trkpt>
      <trkpt lat="42.88505" lon="0.20558">
        <ele>2116.5684965062</ele>
        <time>2016-10-16T14:12:43Z</time>
      </trkpt>
      <trkpt lat="42.88504" lon="0.20558">
        <ele>2116.5684965062</ele>
        <time>2016-10-16T14:12:48Z</time>
      </trkpt>
      <trkpt lat="42.88504" lon="0.20558">
        <ele>2116.5684965062</ele>
        <time>2016-10-16T14:12:53Z</time>
      </trkpt>
      <trkpt lat="42.885" lon="0.20558">
        <ele>2115.1724585261</ele>
        <time>2016-10-16T14:12:58Z</time>
      </trkpt>
      <trkpt lat="42.88498" lon="0.2056">
        <ele>2115.1724585261</ele>
        <time>2016-10-16T14:13:03Z</time>
      </trkpt>
      <trkpt lat="42.88498" lon="0.20561">
        <ele>2115.1724585261</ele>
        <time>2016-10-16T14:13:08Z</time>
      </trkpt>
      <trkpt lat="42.88498" lon="0.20561">
        <ele>2115.1724585261</ele>
        <time>2016-10-16T14:13:13Z</time>
      </trkpt>
      <trkpt lat="42.88498" lon="0.20561">
        <ele>2115.1724585261</ele>
        <time>2016-10-16T14:13:18Z</time>
      </trkpt>
      <trkpt lat="42.88498" lon="0.20562">
        <ele>2115.1724585261</ele>
        <time>2016-10-16T14:13:23Z</time>
      </trkpt>
      <trkpt lat="42.88498" lon="0.20561">
        <ele>2115.1724585261</ele>
        <time>2016-10-16T14:13:28Z</time>
      </trkpt>
      <trkpt lat="42.88498" lon="0.20561">
        <ele>2115.1724585261</ele>
        <time>2016-10-16T14:13:33Z</time>
      </trkpt>
      <trkpt lat="42.88498" lon="0.20562">
        <ele>2115.1724585261</ele>
        <time>2016-10-16T14:13:38Z</time>
      </trkpt>
      <trkpt lat="42.88499" lon="0.2056">
        <ele>2115.1724585261</ele>
        <time>2016-10-16T14:13:43Z</time>
      </trkpt>
      <trkpt lat="42.88499" lon="0.20558">
        <ele>2115.1724585261</ele>
        <time>2016-10-16T14:13:48Z</time>
      </trkpt>
      <trkpt lat="42.88499" lon="0.20558">
        <ele>2115.1724585261</ele>
        <time>2016-10-16T14:13:53Z</time>
      </trkpt>
      <trkpt lat="42.88499" lon="0.20558">
        <ele>2115.1724585261</ele>
        <time>2016-10-16T14:13:58Z</time>
      </trkpt>
      <trkpt lat="42.88499" lon="0.20557">
        <ele>2115.1724585261</ele>
        <time>2016-10-16T14:14:03Z</time>
      </trkpt>
      <trkpt lat="42.88501" lon="0.20554">
        <ele>2113.9781819511</ele>
        <time>2016-10-16T14:14:08Z</time>
      </trkpt>
      <trkpt lat="42.885" lon="0.2055">
        <ele>2113.9781819511</ele>
        <time>2016-10-16T14:14:13Z</time>
      </trkpt>
      <trkpt lat="42.885" lon="0.20548">
        <ele>2113.9781819511</ele>
        <time>2016-10-16T14:14:18Z</time>
      </trkpt>
      <trkpt lat="42.885" lon="0.20548">
        <ele>2113.9781819511</ele>
        <time>2016-10-16T14:14:23Z</time>
      </trkpt>
      <trkpt lat="42.885" lon="0.20547">
        <ele>2113.9781819511</ele>
        <time>2016-10-16T14:14:28Z</time>
      </trkpt>
      <trkpt lat="42.885" lon="0.20547">
        <ele>2113.9781819511</ele>
        <time>2016-10-16T14:14:33Z</time>
      </trkpt>
      <trkpt lat="42.88501" lon="0.20547">
        <ele>2113.9781819511</ele>
        <time>2016-10-16T14:14:38Z</time>
      </trkpt>
      <trkpt lat="42.88501" lon="0.20547">
        <ele>2113.9781819511</ele>
        <time>2016-10-16T14:14:43Z</time>
      </trkpt>
      <trkpt lat="42.88501" lon="0.20547">
        <ele>2113.9781819511</ele>
        <time>2016-10-16T14:14:48Z</time>
      </trkpt>
      <trkpt lat="42.88503" lon="0.20547">
        <ele>2113.9781819511</ele>
        <time>2016-10-16T14:14:53Z</time>
      </trkpt>
      <trkpt lat="42.88503" lon="0.20548">
        <ele>2113.9781819511</ele>
        <time>2016-10-16T14:14:58Z</time>
      </trkpt>
      <trkpt lat="42.88503" lon="0.20549">
        <ele>2113.9781819511</ele>
        <time>2016-10-16T14:15:03Z</time>
      </trkpt>
      <trkpt lat="42.88503" lon="0.20549">
        <ele>2113.0122602088</ele>
        <time>2016-10-16T14:15:08Z</time>
      </trkpt>
      <trkpt lat="42.88503" lon="0.20549">
        <ele>2113.0122602088</ele>
        <time>2016-10-16T14:15:13Z</time>
      </trkpt>
      <trkpt lat="42.88503" lon="0.20548">
        <ele>2113.0122602088</ele>
        <time>2016-10-16T14:15:18Z</time>
      </trkpt>
      <trkpt lat="42.88504" lon="0.20547">
        <ele>2113.0122602088</ele>
        <time>2016-10-16T14:15:23Z</time>
      </trkpt>
      <trkpt lat="42.88504" lon="0.20547">
        <ele>2113.0122602088</ele>
        <time>2016-10-16T14:15:28Z</time>
      </trkpt>
      <trkpt lat="42.88504" lon="0.20547">
        <ele>2113.0122602088</ele>
        <time>2016-10-16T14:15:33Z</time>
      </trkpt>
      <trkpt lat="42.88504" lon="0.20547">
        <ele>2113.0122602088</ele>
        <time>2016-10-16T14:15:38Z</time>
      </trkpt>
      <trkpt lat="42.88504" lon="0.20546">
        <ele>2113.0122602088</ele>
        <time>2016-10-16T14:15:43Z</time>
      </trkpt>
      <trkpt lat="42.88504" lon="0.20546">
        <ele>2113.0122602088</ele>
        <time>2016-10-16T14:15:48Z</time>
      </trkpt>
      <trkpt lat="42.88502" lon="0.20546">
        <ele>2113.0122602088</ele>
        <time>2016-10-16T14:15:53Z</time>
      </trkpt>
      <trkpt lat="42.88502" lon="0.20546">
        <ele>2113.0122602088</ele>
        <time>2016-10-16T14:15:58Z</time>
      </trkpt>
      <trkpt lat="42.88502" lon="0.20547">
        <ele>2113.0122602088</ele>
        <time>2016-10-16T14:16:03Z</time>
      </trkpt>
      <trkpt lat="42.88501" lon="0.20547">
        <ele>2113.0122602088</ele>
        <time>2016-10-16T14:16:08Z</time>
      </trkpt>
      <trkpt lat="42.88502" lon="0.20547">
        <ele>2113.0122602088</ele>
        <time>2016-10-16T14:16:13Z</time>
      </trkpt>
      <trkpt lat="42.88503" lon="0.20548">
        <ele>2113.0122602088</ele>
        <time>2016-10-16T14:16:18Z</time>
      </trkpt>
      <trkpt lat="42.88505" lon="0.20548">
        <ele>2112.25534222</ele>
        <time>2016-10-16T14:16:23Z</time>
      </trkpt>
      <trkpt lat="42.88507" lon="0.20551">
        <ele>2112.25534222</ele>
        <time>2016-10-16T14:16:28Z</time>
      </trkpt>
      <trkpt lat="42.88509" lon="0.20551">
        <ele>2112.25534222</ele>
        <time>2016-10-16T14:16:33Z</time>
      </trkpt>
      <trkpt lat="42.88514" lon="0.20551">
        <ele>2111.7032228873</ele>
        <time>2016-10-16T14:16:38Z</time>
      </trkpt>
      <trkpt lat="42.88517" lon="0.20552">
        <ele>2111.7032228873</ele>
        <time>2016-10-16T14:16:43Z</time>
      </trkpt>
      <trkpt lat="42.8852" lon="0.20556">
        <ele>2111.7032228873</ele>
        <time>2016-10-16T14:16:48Z</time>
      </trkpt>
      <trkpt lat="42.88522" lon="0.20559">
        <ele>2111.3369375115</ele>
        <time>2016-10-16T14:16:53Z</time>
      </trkpt>
      <trkpt lat="42.88523" lon="0.20564">
        <ele>2111.3369375115</ele>
        <time>2016-10-16T14:16:58Z</time>
      </trkpt>
      <trkpt lat="42.88525" lon="0.20569">
        <ele>2111.3369375115</ele>
        <time>2016-10-16T14:17:03Z</time>
      </trkpt>
      <trkpt lat="42.88524" lon="0.20571">
        <ele>2111.1527395596</ele>
        <time>2016-10-16T14:17:08Z</time>
      </trkpt>
      <trkpt lat="42.88523" lon="0.20574">
        <ele>2111.1527395596</ele>
        <time>2016-10-16T14:17:13Z</time>
      </trkpt>
      <trkpt lat="42.88524" lon="0.2058">
        <ele>2111.1527395596</ele>
        <time>2016-10-16T14:17:18Z</time>
      </trkpt>
      <trkpt lat="42.88524" lon="0.20583">
        <ele>2111.1177784028</ele>
        <time>2016-10-16T14:17:23Z</time>
      </trkpt>
      <trkpt lat="42.88525" lon="0.20589">
        <ele>2111.1177784028</ele>
        <time>2016-10-16T14:17:28Z</time>
      </trkpt>
      <trkpt lat="42.88527" lon="0.20594">
        <ele>2111.1177784028</ele>
        <time>2016-10-16T14:17:33Z</time>
      </trkpt>
      <trkpt lat="42.88527" lon="0.20598">
        <ele>2111.2155814707</ele>
        <time>2016-10-16T14:17:38Z</time>
      </trkpt>
      <trkpt lat="42.88528" lon="0.206">
        <ele>2111.2155814707</ele>
        <time>2016-10-16T14:17:43Z</time>
      </trkpt>
      <trkpt lat="42.8853" lon="0.20605">
        <ele>2111.2155814707</ele>
        <time>2016-10-16T14:17:48Z</time>
      </trkpt>
      <trkpt lat="42.88531" lon="0.20608">
        <ele>2111.2155814707</ele>
        <time>2016-10-16T14:17:53Z</time>
      </trkpt>
      <trkpt lat="42.88531" lon="0.2061">
        <ele>2111.4305048655</ele>
        <time>2016-10-16T14:17:58Z</time>
      </trkpt>
      <trkpt lat="42.8853" lon="0.20609">
        <ele>2111.4305048655</ele>
        <time>2016-10-16T14:18:03Z</time>
      </trkpt>
      <trkpt lat="42.8853" lon="0.2061">
        <ele>2111.4305048655</ele>
        <time>2016-10-16T14:18:08Z</time>
      </trkpt>
      <trkpt lat="42.88532" lon="0.20613">
        <ele>2111.4305048655</ele>
        <time>2016-10-16T14:18:13Z</time>
      </trkpt>
      <trkpt lat="42.88533" lon="0.20616">
        <ele>2111.4305048655</ele>
        <time>2016-10-16T14:18:18Z</time>
      </trkpt>
      <trkpt lat="42.88532" lon="0.2062">
        <ele>2111.7477347747</ele>
        <time>2016-10-16T14:18:23Z</time>
      </trkpt>
      <trkpt lat="42.88532" lon="0.20625">
        <ele>2111.7477347747</ele>
        <time>2016-10-16T14:18:28Z</time>
      </trkpt>
      <trkpt lat="42.88535" lon="0.2063">
        <ele>2111.7477347747</ele>
        <time>2016-10-16T14:18:33Z</time>
      </trkpt>
      <trkpt lat="42.88533" lon="0.20635">
        <ele>2112.1388748773</ele>
        <time>2016-10-16T14:18:38Z</time>
      </trkpt>
      <trkpt lat="42.88532" lon="0.20639">
        <ele>2112.1388748773</ele>
        <time>2016-10-16T14:18:43Z</time>
      </trkpt>
      <trkpt lat="42.88529" lon="0.20643">
        <ele>2112.1388748773</ele>
        <time>2016-10-16T14:18:48Z</time>
      </trkpt>
      <trkpt lat="42.88527" lon="0.20645">
        <ele>2112.6062744652</ele>
        <time>2016-10-16T14:18:53Z</time>
      </trkpt>
      <trkpt lat="42.88528" lon="0.20647">
        <ele>2112.6062744652</ele>
        <time>2016-10-16T14:18:58Z</time>
      </trkpt>
      <trkpt lat="42.88531" lon="0.20651">
        <ele>2112.6062744652</ele>
        <time>2016-10-16T14:19:03Z</time>
      </trkpt>
      <trkpt lat="42.88535" lon="0.20656">
        <ele>2113.123135425</ele>
        <time>2016-10-16T14:19:08Z</time>
      </trkpt>
      <trkpt lat="42.88539" lon="0.20658">
        <ele>2113.123135425</ele>
        <time>2016-10-16T14:19:13Z</time>
      </trkpt>
      <trkpt lat="42.88545" lon="0.20656">
        <ele>2113.6933887772</ele>
        <time>2016-10-16T14:19:18Z</time>
      </trkpt>
      <trkpt lat="42.88551" lon="0.20654">
        <ele>2113.6933887772</ele>
        <time>2016-10-16T14:19:23Z</time>
      </trkpt>
      <trkpt lat="42.88558" lon="0.20655">
        <ele>2114.306207765</ele>
        <time>2016-10-16T14:19:28Z</time>
      </trkpt>
      <trkpt lat="42.88563" lon="0.20656">
        <ele>2114.306207765</ele>
        <time>2016-10-16T14:19:33Z</time>
      </trkpt>
      <trkpt lat="42.88564" lon="0.20657">
        <ele>2114.306207765</ele>
        <time>2016-10-16T14:19:38Z</time>
      </trkpt>
      <trkpt lat="42.88567" lon="0.20654">
        <ele>2114.9371361285</ele>
        <time>2016-10-16T14:19:43Z</time>
      </trkpt>
      <trkpt lat="42.88569" lon="0.20651">
        <ele>2114.9371361285</ele>
        <time>2016-10-16T14:19:48Z</time>
      </trkpt>
      <trkpt lat="42.88572" lon="0.20651">
        <ele>2114.9371361285</ele>
        <time>2016-10-16T14:19:53Z</time>
      </trkpt>
      <trkpt lat="42.88575" lon="0.20646">
        <ele>2115.5779928943</ele>
        <time>2016-10-16T14:19:58Z</time>
      </trkpt>
      <trkpt lat="42.88575" lon="0.20644">
        <ele>2115.5779928943</ele>
        <time>2016-10-16T14:20:03Z</time>
      </trkpt>
      <trkpt lat="42.88575" lon="0.20642">
        <ele>2115.5779928943</ele>
        <time>2016-10-16T14:20:08Z</time>
      </trkpt>
      <trkpt lat="42.88578" lon="0.20638">
        <ele>2115.5779928943</ele>
        <time>2016-10-16T14:20:13Z</time>
      </trkpt>
      <trkpt lat="42.88579" lon="0.20634">
        <ele>2116.2068891114</ele>
        <time>2016-10-16T14:20:18Z</time>
      </trkpt>
      <trkpt lat="42.88582" lon="0.20635">
        <ele>2116.2068891114</ele>
        <time>2016-10-16T14:20:23Z</time>
      </trkpt>
      <trkpt lat="42.88583" lon="0.20636">
        <ele>2116.2068891114</ele>
        <time>2016-10-16T14:20:28Z</time>
      </trkpt>
      <trkpt lat="42.88584" lon="0.20635">
        <ele>2116.2068891114</ele>
        <time>2016-10-16T14:20:33Z</time>
      </trkpt>
      <trkpt lat="42.88582" lon="0.20633">
        <ele>2116.8325399932</ele>
        <time>2016-10-16T14:20:38Z</time>
      </trkpt>
      <trkpt lat="42.88582" lon="0.20632">
        <ele>2116.8325399932</ele>
        <time>2016-10-16T14:20:43Z</time>
      </trkpt>
      <trkpt lat="42.88585" lon="0.20629">
        <ele>2116.8325399932</ele>
        <time>2016-10-16T14:20:48Z</time>
      </trkpt>
      <trkpt lat="42.88588" lon="0.20631">
        <ele>2116.8325399932</ele>
        <time>2016-10-16T14:20:53Z</time>
      </trkpt>
      <trkpt lat="42.88592" lon="0.20628">
        <ele>2117.4487681426</ele>
        <time>2016-10-16T14:20:58Z</time>
      </trkpt>
      <trkpt lat="42.88594" lon="0.20626">
        <ele>2117.4487681426</ele>
        <time>2016-10-16T14:21:03Z</time>
      </trkpt>
      <trkpt lat="42.88598" lon="0.20629">
        <ele>2117.4487681426</ele>
        <time>2016-10-16T14:21:08Z</time>
      </trkpt>
      <trkpt lat="42.88601" lon="0.2063">
        <ele>2118.0500339791</ele>
        <time>2016-10-16T14:21:13Z</time>
      </trkpt>
      <trkpt lat="42.88602" lon="0.20629">
        <ele>2118.0500339791</ele>
        <time>2016-10-16T14:21:18Z</time>
      </trkpt>
      <trkpt lat="42.88605" lon="0.20631">
        <ele>2118.0500339791</ele>
        <time>2016-10-16T14:21:23Z</time>
      </trkpt>
      <trkpt lat="42.88606" lon="0.2063">
        <ele>2118.0500339791</ele>
        <time>2016-10-16T14:21:28Z</time>
      </trkpt>
      <trkpt lat="42.88609" lon="0.20627">
        <ele>2118.6458223638</ele>
        <time>2016-10-16T14:21:33Z</time>
      </trkpt>
      <trkpt lat="42.88611" lon="0.20623">
        <ele>2118.6458223638</ele>
        <time>2016-10-16T14:21:38Z</time>
      </trkpt>
      <trkpt lat="42.88615" lon="0.20621">
        <ele>2118.6458223638</ele>
        <time>2016-10-16T14:21:43Z</time>
      </trkpt>
      <trkpt lat="42.88615" lon="0.20623">
        <ele>2118.6458223638</ele>
        <time>2016-10-16T14:21:48Z</time>
      </trkpt>
      <trkpt lat="42.88615" lon="0.20621">
        <ele>2119.2162846533</ele>
        <time>2016-10-16T14:21:53Z</time>
      </trkpt>
      <trkpt lat="42.88617" lon="0.20618">
        <ele>2119.2162846533</ele>
        <time>2016-10-16T14:21:58Z</time>
      </trkpt>
      <trkpt lat="42.8862" lon="0.20615">
        <ele>2119.2162846533</ele>
        <time>2016-10-16T14:22:03Z</time>
      </trkpt>
      <trkpt lat="42.88623" lon="0.20613">
        <ele>2119.7865094474</ele>
        <time>2016-10-16T14:22:08Z</time>
      </trkpt>
      <trkpt lat="42.88621" lon="0.20609">
        <ele>2119.7865094474</ele>
        <time>2016-10-16T14:22:13Z</time>
      </trkpt>
      <trkpt lat="42.88622" lon="0.20603">
        <ele>2119.7865094474</ele>
        <time>2016-10-16T14:22:18Z</time>
      </trkpt>
      <trkpt lat="42.88623" lon="0.20599">
        <ele>2120.3366881029</ele>
        <time>2016-10-16T14:22:23Z</time>
      </trkpt>
      <trkpt lat="42.88626" lon="0.20596">
        <ele>2120.3366881029</ele>
        <time>2016-10-16T14:22:28Z</time>
      </trkpt>
      <trkpt lat="42.88626" lon="0.20593">
        <ele>2120.3366881029</ele>
        <time>2016-10-16T14:22:33Z</time>
      </trkpt>
      <trkpt lat="42.88626" lon="0.20591">
        <ele>2120.3366881029</ele>
        <time>2016-10-16T14:22:38Z</time>
      </trkpt>
      <trkpt lat="42.88628" lon="0.20586">
        <ele>2120.8631156068</ele>
        <time>2016-10-16T14:22:43Z</time>
      </trkpt>
      <trkpt lat="42.88631" lon="0.20581">
        <ele>2120.8631156068</ele>
        <time>2016-10-16T14:22:48Z</time>
      </trkpt>
      <trkpt lat="42.88632" lon="0.20578">
        <ele>2120.8631156068</ele>
        <time>2016-10-16T14:22:53Z</time>
      </trkpt>
      <trkpt lat="42.88637" lon="0.20573">
        <ele>2121.3770198345</ele>
        <time>2016-10-16T14:22:58Z</time>
      </trkpt>
      <trkpt lat="42.88639" lon="0.20569">
        <ele>2121.3770198345</ele>
        <time>2016-10-16T14:23:03Z</time>
      </trkpt>
      <trkpt lat="42.8864" lon="0.20565">
        <ele>2121.3770198345</ele>
        <time>2016-10-16T14:23:08Z</time>
      </trkpt>
      <trkpt lat="42.88641" lon="0.20565">
        <ele>2121.3770198345</ele>
        <time>2016-10-16T14:23:13Z</time>
      </trkpt>
      <trkpt lat="42.88642" lon="0.20564">
        <ele>2121.3770198345</ele>
        <time>2016-10-16T14:23:18Z</time>
      </trkpt>
      <trkpt lat="42.88645" lon="0.20563">
        <ele>2121.8602007167</ele>
        <time>2016-10-16T14:23:23Z</time>
      </trkpt>
      <trkpt lat="42.88646" lon="0.20561">
        <ele>2121.8602007167</ele>
        <time>2016-10-16T14:23:28Z</time>
      </trkpt>
      <trkpt lat="42.88648" lon="0.20558">
        <ele>2121.8602007167</ele>
        <time>2016-10-16T14:23:33Z</time>
      </trkpt>
      <trkpt lat="42.88653" lon="0.20556">
        <ele>2122.3248876927</ele>
        <time>2016-10-16T14:23:38Z</time>
      </trkpt>
      <trkpt lat="42.88656" lon="0.20553">
        <ele>2122.3248876927</ele>
        <time>2016-10-16T14:23:43Z</time>
      </trkpt>
      <trkpt lat="42.88659" lon="0.2055">
        <ele>2122.3248876927</ele>
        <time>2016-10-16T14:23:48Z</time>
      </trkpt>
      <trkpt lat="42.88659" lon="0.20548">
        <ele>2122.3248876927</ele>
        <time>2016-10-16T14:23:53Z</time>
      </trkpt>
      <trkpt lat="42.88659" lon="0.20542">
        <ele>2122.7538249954</ele>
        <time>2016-10-16T14:23:58Z</time>
      </trkpt>
      <trkpt lat="42.8866" lon="0.20538">
        <ele>2122.7538249954</ele>
        <time>2016-10-16T14:24:03Z</time>
      </trkpt>
      <trkpt lat="42.88662" lon="0.20534">
        <ele>2122.7538249954</ele>
        <time>2016-10-16T14:24:08Z</time>
      </trkpt>
      <trkpt lat="42.88667" lon="0.20531">
        <ele>2123.1457180304</ele>
        <time>2016-10-16T14:24:13Z</time>
      </trkpt>
      <trkpt lat="42.88669" lon="0.20533">
        <ele>2123.1457180304</ele>
        <time>2016-10-16T14:24:18Z</time>
      </trkpt>
      <trkpt lat="42.88672" lon="0.20536">
        <ele>2123.1457180304</ele>
        <time>2016-10-16T14:24:23Z</time>
      </trkpt>
      <trkpt lat="42.88676" lon="0.20536">
        <ele>2123.4996513312</ele>
        <time>2016-10-16T14:24:28Z</time>
      </trkpt>
      <trkpt lat="42.88679" lon="0.20535">
        <ele>2123.4996513312</ele>
        <time>2016-10-16T14:24:33Z</time>
      </trkpt>
      <trkpt lat="42.88683" lon="0.20533">
        <ele>2123.4996513312</ele>
        <time>2016-10-16T14:24:38Z</time>
      </trkpt>
      <trkpt lat="42.88688" lon="0.20531">
        <ele>2123.8294716788</ele>
        <time>2016-10-16T14:24:43Z</time>
      </trkpt>
      <trkpt lat="42.88692" lon="0.20529">
        <ele>2123.8294716788</ele>
        <time>2016-10-16T14:24:48Z</time>
      </trkpt>
      <trkpt lat="42.88694" lon="0.2053">
        <ele>2123.8294716788</ele>
        <time>2016-10-16T14:24:53Z</time>
      </trkpt>
      <trkpt lat="42.88697" lon="0.20532">
        <ele>2124.1482504183</ele>
        <time>2016-10-16T14:24:58Z</time>
      </trkpt>
      <trkpt lat="42.88701" lon="0.20531">
        <ele>2124.1482504183</ele>
        <time>2016-10-16T14:25:03Z</time>
      </trkpt>
      <trkpt lat="42.88706" lon="0.20534">
        <ele>2124.1482504183</ele>
        <time>2016-10-16T14:25:08Z</time>
      </trkpt>
      <trkpt lat="42.88708" lon="0.20533">
        <ele>2124.4394777095</ele>
        <time>2016-10-16T14:25:13Z</time>
      </trkpt>
      <trkpt lat="42.88711" lon="0.20532">
        <ele>2124.4394777095</ele>
        <time>2016-10-16T14:25:18Z</time>
      </trkpt>
      <trkpt lat="42.88712" lon="0.20531">
        <ele>2124.4394777095</ele>
        <time>2016-10-16T14:25:23Z</time>
      </trkpt>
      <trkpt lat="42.88712" lon="0.20531">
        <ele>2124.4394777095</ele>
        <time>2016-10-16T14:25:28Z</time>
      </trkpt>
      <trkpt lat="42.88715" lon="0.2053">
        <ele>2124.4394777095</ele>
        <time>2016-10-16T14:25:33Z</time>
      </trkpt>
      <trkpt lat="42.88718" lon="0.20533">
        <ele>2124.7169221065</ele>
        <time>2016-10-16T14:25:38Z</time>
      </trkpt>
      <trkpt lat="42.88721" lon="0.20535">
        <ele>2124.7169221065</ele>
        <time>2016-10-16T14:25:43Z</time>
      </trkpt>
      <trkpt lat="42.88725" lon="0.20533">
        <ele>2124.7169221065</ele>
        <time>2016-10-16T14:25:48Z</time>
      </trkpt>
      <trkpt lat="42.88725" lon="0.20531">
        <ele>2124.9647186525</ele>
        <time>2016-10-16T14:25:53Z</time>
      </trkpt>
      <trkpt lat="42.88731" lon="0.20531">
        <ele>2124.9647186525</ele>
        <time>2016-10-16T14:25:58Z</time>
      </trkpt>
      <trkpt lat="42.88734" lon="0.20532">
        <ele>2125.1972298278</ele>
        <time>2016-10-16T14:26:03Z</time>
      </trkpt>
      <trkpt lat="42.88736" lon="0.20534">
        <ele>2125.1972298278</ele>
        <time>2016-10-16T14:26:08Z</time>
      </trkpt>
      <trkpt lat="42.88737" lon="0.20535">
        <ele>2125.1972298278</ele>
        <time>2016-10-16T14:26:13Z</time>
      </trkpt>
      <trkpt lat="42.8874" lon="0.20535">
        <ele>2125.1972298278</ele>
        <time>2016-10-16T14:26:18Z</time>
      </trkpt>
      <trkpt lat="42.88742" lon="0.20532">
        <ele>2125.1972298278</ele>
        <time>2016-10-16T14:26:23Z</time>
      </trkpt>
      <trkpt lat="42.88743" lon="0.2053">
        <ele>2125.4135462585</ele>
        <time>2016-10-16T14:26:28Z</time>
      </trkpt>
      <trkpt lat="42.88745" lon="0.20529">
        <ele>2125.4135462585</ele>
        <time>2016-10-16T14:26:33Z</time>
      </trkpt>
      <trkpt lat="42.88747" lon="0.20527">
        <ele>2125.4135462585</ele>
        <time>2016-10-16T14:26:38Z</time>
      </trkpt>
      <trkpt lat="42.88746" lon="0.20526">
        <ele>2125.4135462585</ele>
        <time>2016-10-16T14:26:43Z</time>
      </trkpt>
      <trkpt lat="42.88747" lon="0.2052">
        <ele>2125.61301686</ele>
        <time>2016-10-16T14:26:48Z</time>
      </trkpt>
      <trkpt lat="42.8875" lon="0.20517">
        <ele>2125.61301686</ele>
        <time>2016-10-16T14:26:53Z</time>
      </trkpt>
      <trkpt lat="42.88753" lon="0.20518">
        <ele>2125.61301686</ele>
        <time>2016-10-16T14:26:58Z</time>
      </trkpt>
      <trkpt lat="42.88756" lon="0.20518">
        <ele>2125.7952261157</ele>
        <time>2016-10-16T14:27:03Z</time>
      </trkpt>
      <trkpt lat="42.88758" lon="0.20519">
        <ele>2125.7952261157</ele>
        <time>2016-10-16T14:27:08Z</time>
      </trkpt>
      <trkpt lat="42.88759" lon="0.2052">
        <ele>2125.7952261157</ele>
        <time>2016-10-16T14:27:13Z</time>
      </trkpt>
      <trkpt lat="42.88763" lon="0.20521">
        <ele>2125.7952261157</ele>
        <time>2016-10-16T14:27:18Z</time>
      </trkpt>
      <trkpt lat="42.88766" lon="0.20522">
        <ele>2125.9599722228</ele>
        <time>2016-10-16T14:27:23Z</time>
      </trkpt>
      <trkpt lat="42.88764" lon="0.20522">
        <ele>2125.9599722228</ele>
        <time>2016-10-16T14:27:28Z</time>
      </trkpt>
      <trkpt lat="42.88765" lon="0.20522">
        <ele>2125.9599722228</ele>
        <time>2016-10-16T14:27:33Z</time>
      </trkpt>
      <trkpt lat="42.88765" lon="0.20523">
        <ele>2125.9599722228</ele>
        <time>2016-10-16T14:27:38Z</time>
      </trkpt>
      <trkpt lat="42.88767" lon="0.20524">
        <ele>2125.9599722228</ele>
        <time>2016-10-16T14:27:43Z</time>
      </trkpt>
      <trkpt lat="42.88767" lon="0.20524">
        <ele>2125.9599722228</ele>
        <time>2016-10-16T14:27:48Z</time>
      </trkpt>
      <trkpt lat="42.88768" lon="0.20521">
        <ele>2125.9599722228</ele>
        <time>2016-10-16T14:27:53Z</time>
      </trkpt>
      <trkpt lat="42.88769" lon="0.20518">
        <ele>2126.1072461276</ele>
        <time>2016-10-16T14:27:58Z</time>
      </trkpt>
      <trkpt lat="42.88772" lon="0.20516">
        <ele>2126.1072461276</ele>
        <time>2016-10-16T14:28:03Z</time>
      </trkpt>
      <trkpt lat="42.88777" lon="0.20518">
        <ele>2126.1072461276</ele>
        <time>2016-10-16T14:28:08Z</time>
      </trkpt>
      <trkpt lat="42.88782" lon="0.20519">
        <ele>2126.2372114668</ele>
        <time>2016-10-16T14:28:13Z</time>
      </trkpt>
      <trkpt lat="42.88784" lon="0.20518">
        <ele>2126.2372114668</ele>
        <time>2016-10-16T14:28:18Z</time>
      </trkpt>
      <trkpt lat="42.88787" lon="0.20517">
        <ele>2126.2372114668</ele>
        <time>2016-10-16T14:28:23Z</time>
      </trkpt>
      <trkpt lat="42.88787" lon="0.20518">
        <ele>2126.2372114668</ele>
        <time>2016-10-16T14:28:28Z</time>
      </trkpt>
      <trkpt lat="42.8879" lon="0.2052">
        <ele>2126.2372114668</ele>
        <time>2016-10-16T14:28:33Z</time>
      </trkpt>
      <trkpt lat="42.88792" lon="0.2052">
        <ele>2126.3645965735</ele>
        <time>2016-10-16T14:28:38Z</time>
      </trkpt>
      <trkpt lat="42.88796" lon="0.20518">
        <ele>2126.3645965735</ele>
        <time>2016-10-16T14:28:43Z</time>
      </trkpt>
      <trkpt lat="42.88801" lon="0.20518">
        <ele>2126.3645965735</ele>
        <time>2016-10-16T14:28:48Z</time>
      </trkpt>
      <trkpt lat="42.88805" lon="0.20516">
        <ele>2126.4887550425</ele>
        <time>2016-10-16T14:28:53Z</time>
      </trkpt>
      <trkpt lat="42.88811" lon="0.20514">
        <ele>2126.4887550425</ele>
        <time>2016-10-16T14:28:58Z</time>
      </trkpt>
      <trkpt lat="42.88816" lon="0.20514">
        <ele>2126.5803798726</ele>
        <time>2016-10-16T14:29:03Z</time>
      </trkpt>
      <trkpt lat="42.8882" lon="0.20516">
        <ele>2126.5803798726</ele>
        <time>2016-10-16T14:29:08Z</time>
      </trkpt>
      <trkpt lat="42.88825" lon="0.20516">
        <ele>2126.5803798726</ele>
        <time>2016-10-16T14:29:13Z</time>
      </trkpt>
      <trkpt lat="42.88828" lon="0.20517">
        <ele>2126.6557407104</ele>
        <time>2016-10-16T14:29:18Z</time>
      </trkpt>
      <trkpt lat="42.8883" lon="0.20516">
        <ele>2126.6557407104</ele>
        <time>2016-10-16T14:29:23Z</time>
      </trkpt>
      <trkpt lat="42.88833" lon="0.20512">
        <ele>2126.6557407104</ele>
        <time>2016-10-16T14:29:28Z</time>
      </trkpt>
      <trkpt lat="42.88837" lon="0.20509">
        <ele>2126.7156397924</ele>
        <time>2016-10-16T14:29:33Z</time>
      </trkpt>
      <trkpt lat="42.88839" lon="0.20514">
        <ele>2126.7156397924</ele>
        <time>2016-10-16T14:29:38Z</time>
      </trkpt>
      <trkpt lat="42.8884" lon="0.20518">
        <ele>2126.7156397924</ele>
        <time>2016-10-16T14:29:43Z</time>
      </trkpt>
      <trkpt lat="42.88844" lon="0.20515">
        <ele>2126.7609511418</ele>
        <time>2016-10-16T14:29:48Z</time>
      </trkpt>
      <trkpt lat="42.88848" lon="0.20511">
        <ele>2126.7609511418</ele>
        <time>2016-10-16T14:29:53Z</time>
      </trkpt>
      <trkpt lat="42.88853" lon="0.20509">
        <ele>2126.7926069799</ele>
        <time>2016-10-16T14:29:58Z</time>
      </trkpt>
      <trkpt lat="42.88856" lon="0.2051">
        <ele>2126.7926069799</ele>
        <time>2016-10-16T14:30:03Z</time>
      </trkpt>
      <trkpt lat="42.88856" lon="0.20514">
        <ele>2126.7926069799</ele>
        <time>2016-10-16T14:30:08Z</time>
      </trkpt>
      <trkpt lat="42.88854" lon="0.20512">
        <ele>2126.7926069799</ele>
        <time>2016-10-16T14:30:13Z</time>
      </trkpt>
      <trkpt lat="42.88854" lon="0.20513">
        <ele>2126.7926069799</ele>
        <time>2016-10-16T14:30:18Z</time>
      </trkpt>
      <trkpt lat="42.88853" lon="0.20514">
        <ele>2126.8115850509</ele>
        <time>2016-10-16T14:30:23Z</time>
      </trkpt>
      <trkpt lat="42.88853" lon="0.20514">
        <ele>2126.8115850509</ele>
        <time>2016-10-16T14:30:28Z</time>
      </trkpt>
      <trkpt lat="42.88853" lon="0.20514">
        <ele>2126.8115850509</ele>
        <time>2016-10-16T14:30:33Z</time>
      </trkpt>
      <trkpt lat="42.88853" lon="0.20514">
        <ele>2126.8115850509</ele>
        <time>2016-10-16T14:30:38Z</time>
      </trkpt>
      <trkpt lat="42.88853" lon="0.20515">
        <ele>2126.8115850509</ele>
        <time>2016-10-16T14:30:43Z</time>
      </trkpt>
      <trkpt lat="42.88853" lon="0.20515">
        <ele>2126.8115850509</ele>
        <time>2016-10-16T14:30:48Z</time>
      </trkpt>
      <trkpt lat="42.88853" lon="0.20515">
        <ele>2126.8115850509</ele>
        <time>2016-10-16T14:30:53Z</time>
      </trkpt>
      <trkpt lat="42.88853" lon="0.20515">
        <ele>2126.8115850509</ele>
        <time>2016-10-16T14:30:58Z</time>
      </trkpt>
      <trkpt lat="42.88853" lon="0.20516">
        <ele>2126.8115850509</ele>
        <time>2016-10-16T14:31:03Z</time>
      </trkpt>
      <trkpt lat="42.88851" lon="0.20516">
        <ele>2126.8115850509</ele>
        <time>2016-10-16T14:31:08Z</time>
      </trkpt>
      <trkpt lat="42.88851" lon="0.20515">
        <ele>2126.8115850509</ele>
        <time>2016-10-16T14:31:13Z</time>
      </trkpt>
      <trkpt lat="42.88852" lon="0.20516">
        <ele>2126.8115850509</ele>
        <time>2016-10-16T14:31:18Z</time>
      </trkpt>
      <trkpt lat="42.88853" lon="0.20515">
        <ele>2126.8115850509</ele>
        <time>2016-10-16T14:31:23Z</time>
      </trkpt>
      <trkpt lat="42.88854" lon="0.20515">
        <ele>2126.8115850509</ele>
        <time>2016-10-16T14:31:28Z</time>
      </trkpt>
      <trkpt lat="42.88854" lon="0.20515">
        <ele>2126.8115850509</ele>
        <time>2016-10-16T14:31:33Z</time>
      </trkpt>
      <trkpt lat="42.88854" lon="0.20515">
        <ele>2126.8115850509</ele>
        <time>2016-10-16T14:31:38Z</time>
      </trkpt>
      <trkpt lat="42.88853" lon="0.20515">
        <ele>2126.8115850509</ele>
        <time>2016-10-16T14:31:43Z</time>
      </trkpt>
      <trkpt lat="42.88854" lon="0.20515">
        <ele>2126.8115850509</ele>
        <time>2016-10-16T14:31:48Z</time>
      </trkpt>
      <trkpt lat="42.88853" lon="0.20514">
        <ele>2126.8115850509</ele>
        <time>2016-10-16T14:31:53Z</time>
      </trkpt>
      <trkpt lat="42.88853" lon="0.20514">
        <ele>2126.8115850509</ele>
        <time>2016-10-16T14:31:58Z</time>
      </trkpt>
      <trkpt lat="42.88853" lon="0.20514">
        <ele>2126.8115850509</ele>
        <time>2016-10-16T14:32:03Z</time>
      </trkpt>
      <trkpt lat="42.88853" lon="0.20514">
        <ele>2126.8115850509</ele>
        <time>2016-10-16T14:32:08Z</time>
      </trkpt>
      <trkpt lat="42.88853" lon="0.20513">
        <ele>2126.8188968451</ele>
        <time>2016-10-16T14:32:13Z</time>
      </trkpt>
      <trkpt lat="42.88853" lon="0.20513">
        <ele>2126.8188968451</ele>
        <time>2016-10-16T14:32:18Z</time>
      </trkpt>
      <trkpt lat="42.88853" lon="0.20513">
        <ele>2126.8188968451</ele>
        <time>2016-10-16T14:32:23Z</time>
      </trkpt>
      <trkpt lat="42.88853" lon="0.20512">
        <ele>2126.8188968451</ele>
        <time>2016-10-16T14:32:28Z</time>
      </trkpt>
      <trkpt lat="42.88853" lon="0.20512">
        <ele>2126.8188968451</ele>
        <time>2016-10-16T14:32:33Z</time>
      </trkpt>
      <trkpt lat="42.88853" lon="0.20512">
        <ele>2126.8188968451</ele>
        <time>2016-10-16T14:32:38Z</time>
      </trkpt>
      <trkpt lat="42.88853" lon="0.20512">
        <ele>2126.8188968451</ele>
        <time>2016-10-16T14:32:43Z</time>
      </trkpt>
      <trkpt lat="42.88853" lon="0.20512">
        <ele>2126.8188968451</ele>
        <time>2016-10-16T14:32:48Z</time>
      </trkpt>
      <trkpt lat="42.88853" lon="0.20513">
        <ele>2126.8188968451</ele>
        <time>2016-10-16T14:32:53Z</time>
      </trkpt>
      <trkpt lat="42.88853" lon="0.20513">
        <ele>2126.8188968451</ele>
        <time>2016-10-16T14:32:58Z</time>
      </trkpt>
      <trkpt lat="42.88853" lon="0.20513">
        <ele>2126.8188968451</ele>
        <time>2016-10-16T14:33:03Z</time>
      </trkpt>
      <trkpt lat="42.88853" lon="0.20513">
        <ele>2126.8188968451</ele>
        <time>2016-10-16T14:33:08Z</time>
      </trkpt>
      <trkpt lat="42.88853" lon="0.20513">
        <ele>2126.8188968451</ele>
        <time>2016-10-16T14:33:13Z</time>
      </trkpt>
      <trkpt lat="42.88853" lon="0.20513">
        <ele>2126.8188968451</ele>
        <time>2016-10-16T14:33:18Z</time>
      </trkpt>
      <trkpt lat="42.88853" lon="0.20513">
        <ele>2126.8188968451</ele>
        <time>2016-10-16T14:33:23Z</time>
      </trkpt>
      <trkpt lat="42.88853" lon="0.20512">
        <ele>2126.8188968451</ele>
        <time>2016-10-16T14:33:28Z</time>
      </trkpt>
      <trkpt lat="42.88853" lon="0.20512">
        <ele>2126.8188968451</ele>
        <time>2016-10-16T14:33:33Z</time>
      </trkpt>
      <trkpt lat="42.88852" lon="0.20511">
        <ele>2126.8188968451</ele>
        <time>2016-10-16T14:33:38Z</time>
      </trkpt>
      <trkpt lat="42.88852" lon="0.20511">
        <ele>2126.8188968451</ele>
        <time>2016-10-16T14:33:43Z</time>
      </trkpt>
      <trkpt lat="42.88852" lon="0.20511">
        <ele>2126.8188968451</ele>
        <time>2016-10-16T14:33:48Z</time>
      </trkpt>
      <trkpt lat="42.88852" lon="0.20511">
        <ele>2126.8188968451</ele>
        <time>2016-10-16T14:33:53Z</time>
      </trkpt>
      <trkpt lat="42.88851" lon="0.20511">
        <ele>2126.8188968451</ele>
        <time>2016-10-16T14:33:58Z</time>
      </trkpt>
      <trkpt lat="42.88851" lon="0.20513">
        <ele>2126.8188968451</ele>
        <time>2016-10-16T14:34:03Z</time>
      </trkpt>
      <trkpt lat="42.88851" lon="0.20514">
        <ele>2126.8188968451</ele>
        <time>2016-10-16T14:34:08Z</time>
      </trkpt>
      <trkpt lat="42.88851" lon="0.20514">
        <ele>2126.8188968451</ele>
        <time>2016-10-16T14:34:13Z</time>
      </trkpt>
      <trkpt lat="42.8885" lon="0.20513">
        <ele>2126.8188968451</ele>
        <time>2016-10-16T14:34:18Z</time>
      </trkpt>
      <trkpt lat="42.8885" lon="0.20514">
        <ele>2126.8155767088</ele>
        <time>2016-10-16T14:34:23Z</time>
      </trkpt>
      <trkpt lat="42.8885" lon="0.20514">
        <ele>2126.8155767088</ele>
        <time>2016-10-16T14:34:28Z</time>
      </trkpt>
      <trkpt lat="42.8885" lon="0.20514">
        <ele>2126.8155767088</ele>
        <time>2016-10-16T14:34:33Z</time>
      </trkpt>
      <trkpt lat="42.8885" lon="0.20514">
        <ele>2126.8155767088</ele>
        <time>2016-10-16T14:34:38Z</time>
      </trkpt>
      <trkpt lat="42.8885" lon="0.20514">
        <ele>2126.8155767088</ele>
        <time>2016-10-16T14:34:43Z</time>
      </trkpt>
      <trkpt lat="42.88849" lon="0.20513">
        <ele>2126.8155767088</ele>
        <time>2016-10-16T14:34:48Z</time>
      </trkpt>
      <trkpt lat="42.8885" lon="0.20513">
        <ele>2126.8155767088</ele>
        <time>2016-10-16T14:34:53Z</time>
      </trkpt>
      <trkpt lat="42.8885" lon="0.20513">
        <ele>2126.8155767088</ele>
        <time>2016-10-16T14:34:58Z</time>
      </trkpt>
      <trkpt lat="42.8885" lon="0.20513">
        <ele>2126.8155767088</ele>
        <time>2016-10-16T14:35:03Z</time>
      </trkpt>
      <trkpt lat="42.8885" lon="0.20513">
        <ele>2126.8155767088</ele>
        <time>2016-10-16T14:35:08Z</time>
      </trkpt>
      <trkpt lat="42.88851" lon="0.20512">
        <ele>2126.8155767088</ele>
        <time>2016-10-16T14:35:13Z</time>
      </trkpt>
      <trkpt lat="42.88852" lon="0.20512">
        <ele>2126.8155767088</ele>
        <time>2016-10-16T14:35:18Z</time>
      </trkpt>
      <trkpt lat="42.88856" lon="0.20514">
        <ele>2126.8314941038</ele>
        <time>2016-10-16T14:35:23Z</time>
      </trkpt>
      <trkpt lat="42.88861" lon="0.20519">
        <ele>2126.8314941038</ele>
        <time>2016-10-16T14:35:28Z</time>
      </trkpt>
      <trkpt lat="42.88864" lon="0.2052">
        <ele>2126.8366796889</ele>
        <time>2016-10-16T14:35:33Z</time>
      </trkpt>
      <trkpt lat="42.88867" lon="0.2052">
        <ele>2126.8366796889</ele>
        <time>2016-10-16T14:35:38Z</time>
      </trkpt>
      <trkpt lat="42.8887" lon="0.20517">
        <ele>2126.8366796889</ele>
        <time>2016-10-16T14:35:43Z</time>
      </trkpt>
      <trkpt lat="42.88874" lon="0.20517">
        <ele>2126.8322668066</ele>
        <time>2016-10-16T14:35:48Z</time>
      </trkpt>
      <trkpt lat="42.88877" lon="0.20515">
        <ele>2126.8322668066</ele>
        <time>2016-10-16T14:35:53Z</time>
      </trkpt>
      <trkpt lat="42.88879" lon="0.20508">
        <ele>2126.8322668066</ele>
        <time>2016-10-16T14:35:58Z</time>
      </trkpt>
      <trkpt lat="42.8888" lon="0.20505">
        <ele>2126.8049653432</ele>
        <time>2016-10-16T14:36:03Z</time>
      </trkpt>
      <trkpt lat="42.8888" lon="0.20499">
        <ele>2126.8049653432</ele>
        <time>2016-10-16T14:36:08Z</time>
      </trkpt>
      <trkpt lat="42.88882" lon="0.20494">
        <ele>2126.8049653432</ele>
        <time>2016-10-16T14:36:13Z</time>
      </trkpt>
      <trkpt lat="42.88885" lon="0.20492">
        <ele>2126.7713872524</ele>
        <time>2016-10-16T14:36:18Z</time>
      </trkpt>
      <trkpt lat="42.88888" lon="0.20489">
        <ele>2126.7713872524</ele>
        <time>2016-10-16T14:36:23Z</time>
      </trkpt>
      <trkpt lat="42.8889" lon="0.20486">
        <ele>2126.7713872524</ele>
        <time>2016-10-16T14:36:28Z</time>
      </trkpt>
      <trkpt lat="42.88892" lon="0.20482">
        <ele>2126.7325655053</ele>
        <time>2016-10-16T14:36:33Z</time>
      </trkpt>
      <trkpt lat="42.88891" lon="0.20481">
        <ele>2126.7325655053</ele>
        <time>2016-10-16T14:36:38Z</time>
      </trkpt>
      <trkpt lat="42.8889" lon="0.20479">
        <ele>2126.7325655053</ele>
        <time>2016-10-16T14:36:43Z</time>
      </trkpt>
      <trkpt lat="42.8889" lon="0.20475">
        <ele>2126.7325655053</ele>
        <time>2016-10-16T14:36:48Z</time>
      </trkpt>
      <trkpt lat="42.88889" lon="0.20472">
        <ele>2126.7325655053</ele>
        <time>2016-10-16T14:36:53Z</time>
      </trkpt>
      <trkpt lat="42.88888" lon="0.2047">
        <ele>2126.6895023739</ele>
        <time>2016-10-16T14:36:58Z</time>
      </trkpt>
      <trkpt lat="42.88888" lon="0.20467">
        <ele>2126.6895023739</ele>
        <time>2016-10-16T14:37:03Z</time>
      </trkpt>
      <trkpt lat="42.8889" lon="0.20467">
        <ele>2126.6895023739</ele>
        <time>2016-10-16T14:37:08Z</time>
      </trkpt>
      <trkpt lat="42.8889" lon="0.20467">
        <ele>2126.6895023739</ele>
        <time>2016-10-16T14:37:13Z</time>
      </trkpt>
      <trkpt lat="42.8889" lon="0.20467">
        <ele>2126.6895023739</ele>
        <time>2016-10-16T14:37:18Z</time>
      </trkpt>
      <trkpt lat="42.88892" lon="0.20465">
        <ele>2126.6895023739</ele>
        <time>2016-10-16T14:37:23Z</time>
      </trkpt>
      <trkpt lat="42.88894" lon="0.20461">
        <ele>2126.6143424075</ele>
        <time>2016-10-16T14:37:28Z</time>
      </trkpt>
      <trkpt lat="42.88896" lon="0.20454">
        <ele>2126.6143424075</ele>
        <time>2016-10-16T14:37:33Z</time>
      </trkpt>
      <trkpt lat="42.88897" lon="0.20448">
        <ele>2126.5246219439</ele>
        <time>2016-10-16T14:37:38Z</time>
      </trkpt>
      <trkpt lat="42.88898" lon="0.20445">
        <ele>2126.5246219439</ele>
        <time>2016-10-16T14:37:43Z</time>
      </trkpt>
      <trkpt lat="42.88898" lon="0.20443">
        <ele>2126.5246219439</ele>
        <time>2016-10-16T14:37:48Z</time>
      </trkpt>
      <trkpt lat="42.88897" lon="0.20438">
        <ele>2126.5246219439</ele>
        <time>2016-10-16T14:37:53Z</time>
      </trkpt>
      <trkpt lat="42.88898" lon="0.20435">
        <ele>2126.407825887</ele>
        <time>2016-10-16T14:37:58Z</time>
      </trkpt>
      <trkpt lat="42.88897" lon="0.20431">
        <ele>2126.407825887</ele>
        <time>2016-10-16T14:38:03Z</time>
      </trkpt>
      <trkpt lat="42.88898" lon="0.20424">
        <ele>2126.407825887</ele>
        <time>2016-10-16T14:38:08Z</time>
      </trkpt>
      <trkpt lat="42.88902" lon="0.20422">
        <ele>2126.281270949</ele>
        <time>2016-10-16T14:38:13Z</time>
      </trkpt>
      <trkpt lat="42.88905" lon="0.20419">
        <ele>2126.281270949</ele>
        <time>2016-10-16T14:38:18Z</time>
      </trkpt>
      <trkpt lat="42.88908" lon="0.20417">
        <ele>2126.281270949</ele>
        <time>2016-10-16T14:38:23Z</time>
      </trkpt>
      <trkpt lat="42.8891" lon="0.20414">
        <ele>2126.1322173576</ele>
        <time>2016-10-16T14:38:28Z</time>
      </trkpt>
      <trkpt lat="42.88909" lon="0.20409">
        <ele>2126.1322173576</ele>
        <time>2016-10-16T14:38:33Z</time>
      </trkpt>
      <trkpt lat="42.8891" lon="0.20408">
        <ele>2126.1322173576</ele>
        <time>2016-10-16T14:38:38Z</time>
      </trkpt>
      <trkpt lat="42.88912" lon="0.20405">
        <ele>2126.1322173576</ele>
        <time>2016-10-16T14:38:43Z</time>
      </trkpt>
      <trkpt lat="42.88915" lon="0.20401">
        <ele>2125.9777532989</ele>
        <time>2016-10-16T14:38:48Z</time>
      </trkpt>
      <trkpt lat="42.88917" lon="0.20398">
        <ele>2125.9777532989</ele>
        <time>2016-10-16T14:38:53Z</time>
      </trkpt>
      <trkpt lat="42.88919" lon="0.20393">
        <ele>2125.9777532989</ele>
        <time>2016-10-16T14:38:58Z</time>
      </trkpt>
      <trkpt lat="42.88921" lon="0.20391">
        <ele>2125.8193189361</ele>
        <time>2016-10-16T14:39:03Z</time>
      </trkpt>
      <trkpt lat="42.88921" lon="0.20388">
        <ele>2125.8193189361</ele>
        <time>2016-10-16T14:39:08Z</time>
      </trkpt>
      <trkpt lat="42.88922" lon="0.20386">
        <ele>2125.8193189361</ele>
        <time>2016-10-16T14:39:13Z</time>
      </trkpt>
      <trkpt lat="42.88924" lon="0.20382">
        <ele>2125.8193189361</ele>
        <time>2016-10-16T14:39:18Z</time>
      </trkpt>
      <trkpt lat="42.88926" lon="0.20375">
        <ele>2125.6582596123</ele>
        <time>2016-10-16T14:39:23Z</time>
      </trkpt>
      <trkpt lat="42.88926" lon="0.20373">
        <ele>2125.6582596123</ele>
        <time>2016-10-16T14:39:28Z</time>
      </trkpt>
      <trkpt lat="42.88927" lon="0.20376">
        <ele>2125.6582596123</ele>
        <time>2016-10-16T14:39:33Z</time>
      </trkpt>
      <trkpt lat="42.88929" lon="0.20382">
        <ele>2125.4814147351</ele>
        <time>2016-10-16T14:39:38Z</time>
      </trkpt>
      <trkpt lat="42.88932" lon="0.20387">
        <ele>2125.4814147351</ele>
        <time>2016-10-16T14:39:43Z</time>
      </trkpt>
      <trkpt lat="42.88934" lon="0.20388">
        <ele>2125.4814147351</ele>
        <time>2016-10-16T14:39:48Z</time>
      </trkpt>
      <trkpt lat="42.88936" lon="0.20384">
        <ele>2125.3054506645</ele>
        <time>2016-10-16T14:39:53Z</time>
      </trkpt>
      <trkpt lat="42.88938" lon="0.20383">
        <ele>2125.3054506645</ele>
        <time>2016-10-16T14:39:58Z</time>
      </trkpt>
      <trkpt lat="42.88938" lon="0.20382">
        <ele>2125.3054506645</ele>
        <time>2016-10-16T14:40:03Z</time>
      </trkpt>
      <trkpt lat="42.88938" lon="0.20379">
        <ele>2125.3054506645</ele>
        <time>2016-10-16T14:40:08Z</time>
      </trkpt>
      <trkpt lat="42.8894" lon="0.20376">
        <ele>2125.3054506645</ele>
        <time>2016-10-16T14:40:13Z</time>
      </trkpt>
      <trkpt lat="42.88942" lon="0.20376">
        <ele>2125.1169756274</ele>
        <time>2016-10-16T14:40:18Z</time>
      </trkpt>
      <trkpt lat="42.88944" lon="0.20373">
        <ele>2125.1169756274</ele>
        <time>2016-10-16T14:40:23Z</time>
      </trkpt>
      <trkpt lat="42.88943" lon="0.20369">
        <ele>2125.1169756274</ele>
        <time>2016-10-16T14:40:28Z</time>
      </trkpt>
      <trkpt lat="42.88944" lon="0.20362">
        <ele>2124.9324272067</ele>
        <time>2016-10-16T14:40:33Z</time>
      </trkpt>
      <trkpt lat="42.88944" lon="0.20362">
        <ele>2124.9324272067</ele>
        <time>2016-10-16T14:40:38Z</time>
      </trkpt>
      <trkpt lat="42.88945" lon="0.20363">
        <ele>2124.9324272067</ele>
        <time>2016-10-16T14:40:43Z</time>
      </trkpt>
      <trkpt lat="42.88945" lon="0.20362">
        <ele>2124.9324272067</ele>
        <time>2016-10-16T14:40:48Z</time>
      </trkpt>
      <trkpt lat="42.88947" lon="0.20364">
        <ele>2124.9324272067</ele>
        <time>2016-10-16T14:40:53Z</time>
      </trkpt>
      <trkpt lat="42.88951" lon="0.20365">
        <ele>2124.9324272067</ele>
        <time>2016-10-16T14:40:58Z</time>
      </trkpt>
      <trkpt lat="42.88953" lon="0.20365">
        <ele>2124.767010378</ele>
        <time>2016-10-16T14:41:03Z</time>
      </trkpt>
      <trkpt lat="42.88951" lon="0.20362">
        <ele>2124.767010378</ele>
        <time>2016-10-16T14:41:08Z</time>
      </trkpt>
      <trkpt lat="42.88951" lon="0.20357">
        <ele>2124.767010378</ele>
        <time>2016-10-16T14:41:13Z</time>
      </trkpt>
      <trkpt lat="42.88955" lon="0.20352">
        <ele>2124.6059210383</ele>
        <time>2016-10-16T14:41:18Z</time>
      </trkpt>
      <trkpt lat="42.88956" lon="0.20351">
        <ele>2124.6059210383</ele>
        <time>2016-10-16T14:41:23Z</time>
      </trkpt>
      <trkpt lat="42.88956" lon="0.2035">
        <ele>2124.6059210383</ele>
        <time>2016-10-16T14:41:28Z</time>
      </trkpt>
      <trkpt lat="42.88957" lon="0.20349">
        <ele>2124.6059210383</ele>
        <time>2016-10-16T14:41:33Z</time>
      </trkpt>
      <trkpt lat="42.88959" lon="0.20347">
        <ele>2124.6059210383</ele>
        <time>2016-10-16T14:41:38Z</time>
      </trkpt>
      <trkpt lat="42.88959" lon="0.20346">
        <ele>2124.6059210383</ele>
        <time>2016-10-16T14:41:43Z</time>
      </trkpt>
      <trkpt lat="42.88962" lon="0.20343">
        <ele>2124.4786457447</ele>
        <time>2016-10-16T14:41:48Z</time>
      </trkpt>
      <trkpt lat="42.8896" lon="0.2034">
        <ele>2124.4786457447</ele>
        <time>2016-10-16T14:41:53Z</time>
      </trkpt>
      <trkpt lat="42.88961" lon="0.20335">
        <ele>2124.4786457447</ele>
        <time>2016-10-16T14:41:58Z</time>
      </trkpt>
      <trkpt lat="42.88962" lon="0.2033">
        <ele>2124.3691572288</ele>
        <time>2016-10-16T14:42:03Z</time>
      </trkpt>
      <trkpt lat="42.88966" lon="0.20328">
        <ele>2124.3691572288</ele>
        <time>2016-10-16T14:42:08Z</time>
      </trkpt>
      <trkpt lat="42.88967" lon="0.20327">
        <ele>2124.3691572288</ele>
        <time>2016-10-16T14:42:13Z</time>
      </trkpt>
      <trkpt lat="42.88969" lon="0.20325">
        <ele>2124.3691572288</ele>
        <time>2016-10-16T14:42:18Z</time>
      </trkpt>
      <trkpt lat="42.8897" lon="0.20325">
        <ele>2124.3691572288</ele>
        <time>2016-10-16T14:42:23Z</time>
      </trkpt>
      <trkpt lat="42.88973" lon="0.20321">
        <ele>2124.2913572157</ele>
        <time>2016-10-16T14:42:28Z</time>
      </trkpt>
      <trkpt lat="42.88975" lon="0.20317">
        <ele>2124.2913572157</ele>
        <time>2016-10-16T14:42:33Z</time>
      </trkpt>
      <trkpt lat="42.88975" lon="0.20317">
        <ele>2124.2913572157</ele>
        <time>2016-10-16T14:42:38Z</time>
      </trkpt>
      <trkpt lat="42.88976" lon="0.20317">
        <ele>2124.2913572157</ele>
        <time>2016-10-16T14:42:43Z</time>
      </trkpt>
      <trkpt lat="42.88975" lon="0.20317">
        <ele>2124.2913572157</ele>
        <time>2016-10-16T14:42:48Z</time>
      </trkpt>
      <trkpt lat="42.88975" lon="0.20316">
        <ele>2124.2913572157</ele>
        <time>2016-10-16T14:42:53Z</time>
      </trkpt>
      <trkpt lat="42.88976" lon="0.20315">
        <ele>2124.2913572157</ele>
        <time>2016-10-16T14:42:58Z</time>
      </trkpt>
      <trkpt lat="42.88976" lon="0.20315">
        <ele>2124.2913572157</ele>
        <time>2016-10-16T14:43:03Z</time>
      </trkpt>
      <trkpt lat="42.88978" lon="0.20313">
        <ele>2124.2868381441</ele>
        <time>2016-10-16T14:43:08Z</time>
      </trkpt>
      <trkpt lat="42.88978" lon="0.20312">
        <ele>2124.2868381441</ele>
        <time>2016-10-16T14:43:13Z</time>
      </trkpt>
      <trkpt lat="42.88978" lon="0.20312">
        <ele>2124.2868381441</ele>
        <time>2016-10-16T14:43:18Z</time>
      </trkpt>
      <trkpt lat="42.88979" lon="0.20312">
        <ele>2124.2868381441</ele>
        <time>2016-10-16T14:43:23Z</time>
      </trkpt>
      <trkpt lat="42.88979" lon="0.20312">
        <ele>2124.2868381441</ele>
        <time>2016-10-16T14:43:28Z</time>
      </trkpt>
      <trkpt lat="42.8898" lon="0.20309">
        <ele>2124.2868381441</ele>
        <time>2016-10-16T14:43:33Z</time>
      </trkpt>
      <trkpt lat="42.88979" lon="0.20309">
        <ele>2124.2868381441</ele>
        <time>2016-10-16T14:43:38Z</time>
      </trkpt>
      <trkpt lat="42.8898" lon="0.20307">
        <ele>2124.2868381441</ele>
        <time>2016-10-16T14:43:43Z</time>
      </trkpt>
      <trkpt lat="42.88982" lon="0.20306">
        <ele>2124.3506765286</ele>
        <time>2016-10-16T14:43:48Z</time>
      </trkpt>
      <trkpt lat="42.88985" lon="0.20306">
        <ele>2124.3506765286</ele>
        <time>2016-10-16T14:43:53Z</time>
      </trkpt>
      <trkpt lat="42.88988" lon="0.20306">
        <ele>2124.3506765286</ele>
        <time>2016-10-16T14:43:58Z</time>
      </trkpt>
      <trkpt lat="42.88991" lon="0.20303">
        <ele>2124.434864021</ele>
        <time>2016-10-16T14:44:03Z</time>
      </trkpt>
      <trkpt lat="42.88991" lon="0.20299">
        <ele>2124.434864021</ele>
        <time>2016-10-16T14:44:08Z</time>
      </trkpt>
      <trkpt lat="42.88992" lon="0.20298">
        <ele>2124.434864021</ele>
        <time>2016-10-16T14:44:13Z</time>
      </trkpt>
      <trkpt lat="42.88994" lon="0.20291">
        <ele>2124.5524855726</ele>
        <time>2016-10-16T14:44:18Z</time>
      </trkpt>
      <trkpt lat="42.88995" lon="0.20286">
        <ele>2124.5524855726</ele>
        <time>2016-10-16T14:44:23Z</time>
      </trkpt>
      <trkpt lat="42.88996" lon="0.20283">
        <ele>2124.5524855726</ele>
        <time>2016-10-16T14:44:28Z</time>
      </trkpt>
      <trkpt lat="42.88998" lon="0.20279">
        <ele>2124.7011403339</ele>
        <time>2016-10-16T14:44:33Z</time>
      </trkpt>
      <trkpt lat="42.89001" lon="0.20275">
        <ele>2124.7011403339</ele>
        <time>2016-10-16T14:44:38Z</time>
      </trkpt>
      <trkpt lat="42.89004" lon="0.20273">
        <ele>2124.7011403339</ele>
        <time>2016-10-16T14:44:43Z</time>
      </trkpt>
      <trkpt lat="42.89006" lon="0.20273">
        <ele>2124.7011403339</ele>
        <time>2016-10-16T14:44:48Z</time>
      </trkpt>
      <trkpt lat="42.89009" lon="0.20271">
        <ele>2124.8929095649</ele>
        <time>2016-10-16T14:44:53Z</time>
      </trkpt>
      <trkpt lat="42.89013" lon="0.20269">
        <ele>2124.8929095649</ele>
        <time>2016-10-16T14:44:58Z</time>
      </trkpt>
      <trkpt lat="42.89014" lon="0.20269">
        <ele>2124.8929095649</ele>
        <time>2016-10-16T14:45:03Z</time>
      </trkpt>
      <trkpt lat="42.89017" lon="0.20267">
        <ele>2124.8929095649</ele>
        <time>2016-10-16T14:45:08Z</time>
      </trkpt>
      <trkpt lat="42.89019" lon="0.20265">
        <ele>2125.1388494056</ele>
        <time>2016-10-16T14:45:13Z</time>
      </trkpt>
      <trkpt lat="42.8902" lon="0.20264">
        <ele>2125.1388494056</ele>
        <time>2016-10-16T14:45:18Z</time>
      </trkpt>
      <trkpt lat="42.89022" lon="0.20263">
        <ele>2125.1388494056</ele>
        <time>2016-10-16T14:45:23Z</time>
      </trkpt>
      <trkpt lat="42.89023" lon="0.20261">
        <ele>2125.1388494056</ele>
        <time>2016-10-16T14:45:28Z</time>
      </trkpt>
      <trkpt lat="42.89027" lon="0.20262">
        <ele>2125.1388494056</ele>
        <time>2016-10-16T14:45:33Z</time>
      </trkpt>
      <trkpt lat="42.89028" lon="0.2026">
        <ele>2125.4346259567</ele>
        <time>2016-10-16T14:45:38Z</time>
      </trkpt>
      <trkpt lat="42.89029" lon="0.20259">
        <ele>2125.4346259567</ele>
        <time>2016-10-16T14:45:43Z</time>
      </trkpt>
      <trkpt lat="42.89032" lon="0.20255">
        <ele>2125.4346259567</ele>
        <time>2016-10-16T14:45:48Z</time>
      </trkpt>
      <trkpt lat="42.89033" lon="0.20253">
        <ele>2125.4346259567</ele>
        <time>2016-10-16T14:45:53Z</time>
      </trkpt>
      <trkpt lat="42.89033" lon="0.20253">
        <ele>2125.4346259567</ele>
        <time>2016-10-16T14:45:58Z</time>
      </trkpt>
      <trkpt lat="42.89034" lon="0.2025">
        <ele>2125.8048935728</ele>
        <time>2016-10-16T14:46:03Z</time>
      </trkpt>
      <trkpt lat="42.89037" lon="0.20245">
        <ele>2125.8048935728</ele>
        <time>2016-10-16T14:46:08Z</time>
      </trkpt>
      <trkpt lat="42.89037" lon="0.20241">
        <ele>2125.8048935728</ele>
        <time>2016-10-16T14:46:13Z</time>
      </trkpt>
      <trkpt lat="42.89038" lon="0.20237">
        <ele>2126.2002209459</ele>
        <time>2016-10-16T14:46:18Z</time>
      </trkpt>
      <trkpt lat="42.89038" lon="0.20233">
        <ele>2126.2002209459</ele>
        <time>2016-10-16T14:46:23Z</time>
      </trkpt>
      <trkpt lat="42.89039" lon="0.20229">
        <ele>2126.2002209459</ele>
        <time>2016-10-16T14:46:28Z</time>
      </trkpt>
      <trkpt lat="42.89039" lon="0.20222">
        <ele>2126.6323748984</ele>
        <time>2016-10-16T14:46:33Z</time>
      </trkpt>
      <trkpt lat="42.89041" lon="0.20216">
        <ele>2126.6323748984</ele>
        <time>2016-10-16T14:46:38Z</time>
      </trkpt>
      <trkpt lat="42.89043" lon="0.20215">
        <ele>2126.6323748984</ele>
        <time>2016-10-16T14:46:43Z</time>
      </trkpt>
      <trkpt lat="42.89045" lon="0.20213">
        <ele>2126.6323748984</ele>
        <time>2016-10-16T14:46:48Z</time>
      </trkpt>
      <trkpt lat="42.89047" lon="0.2021">
        <ele>2127.1121503216</ele>
        <time>2016-10-16T14:46:53Z</time>
      </trkpt>
      <trkpt lat="42.8905" lon="0.20207">
        <ele>2127.1121503216</ele>
        <time>2016-10-16T14:46:58Z</time>
      </trkpt>
      <trkpt lat="42.89052" lon="0.20207">
        <ele>2127.1121503216</ele>
        <time>2016-10-16T14:47:03Z</time>
      </trkpt>
      <trkpt lat="42.89053" lon="0.20207">
        <ele>2127.1121503216</ele>
        <time>2016-10-16T14:47:08Z</time>
      </trkpt>
      <trkpt lat="42.89054" lon="0.20207">
        <ele>2127.1121503216</ele>
        <time>2016-10-16T14:47:13Z</time>
      </trkpt>
      <trkpt lat="42.89056" lon="0.20206">
        <ele>2127.6350033179</ele>
        <time>2016-10-16T14:47:18Z</time>
      </trkpt>
      <trkpt lat="42.89056" lon="0.20205">
        <ele>2127.6350033179</ele>
        <time>2016-10-16T14:47:23Z</time>
      </trkpt>
      <trkpt lat="42.89057" lon="0.20203">
        <ele>2127.6350033179</ele>
        <time>2016-10-16T14:47:28Z</time>
      </trkpt>
      <trkpt lat="42.89057" lon="0.20202">
        <ele>2127.6350033179</ele>
        <time>2016-10-16T14:47:33Z</time>
      </trkpt>
      <trkpt lat="42.89057" lon="0.20202">
        <ele>2127.6350033179</ele>
        <time>2016-10-16T14:47:38Z</time>
      </trkpt>
      <trkpt lat="42.89057" lon="0.20202">
        <ele>2127.6350033179</ele>
        <time>2016-10-16T14:47:43Z</time>
      </trkpt>
      <trkpt lat="42.89057" lon="0.20202">
        <ele>2127.6350033179</ele>
        <time>2016-10-16T14:47:48Z</time>
      </trkpt>
      <trkpt lat="42.89056" lon="0.20202">
        <ele>2127.6350033179</ele>
        <time>2016-10-16T14:47:53Z</time>
      </trkpt>
      <trkpt lat="42.89056" lon="0.20202">
        <ele>2127.6350033179</ele>
        <time>2016-10-16T14:47:58Z</time>
      </trkpt>
      <trkpt lat="42.89056" lon="0.20202">
        <ele>2127.6350033179</ele>
        <time>2016-10-16T14:48:03Z</time>
      </trkpt>
      <trkpt lat="42.89056" lon="0.20202">
        <ele>2127.6350033179</ele>
        <time>2016-10-16T14:48:08Z</time>
      </trkpt>
      <trkpt lat="42.89056" lon="0.20201">
        <ele>2127.6350033179</ele>
        <time>2016-10-16T14:48:13Z</time>
      </trkpt>
      <trkpt lat="42.89056" lon="0.20201">
        <ele>2127.6350033179</ele>
        <time>2016-10-16T14:48:18Z</time>
      </trkpt>
      <trkpt lat="42.89056" lon="0.20202">
        <ele>2127.6350033179</ele>
        <time>2016-10-16T14:48:23Z</time>
      </trkpt>
      <trkpt lat="42.89056" lon="0.20202">
        <ele>2127.6350033179</ele>
        <time>2016-10-16T14:48:28Z</time>
      </trkpt>
      <trkpt lat="42.89056" lon="0.20202">
        <ele>2127.6350033179</ele>
        <time>2016-10-16T14:48:33Z</time>
      </trkpt>
      <trkpt lat="42.89056" lon="0.20202">
        <ele>2127.6350033179</ele>
        <time>2016-10-16T14:48:38Z</time>
      </trkpt>
      <trkpt lat="42.89056" lon="0.20202">
        <ele>2127.6350033179</ele>
        <time>2016-10-16T14:48:43Z</time>
      </trkpt>
      <trkpt lat="42.89056" lon="0.20202">
        <ele>2127.6350033179</ele>
        <time>2016-10-16T14:48:48Z</time>
      </trkpt>
      <trkpt lat="42.89056" lon="0.20202">
        <ele>2127.6350033179</ele>
        <time>2016-10-16T14:48:53Z</time>
      </trkpt>
      <trkpt lat="42.89055" lon="0.20202">
        <ele>2127.6350033179</ele>
        <time>2016-10-16T14:48:58Z</time>
      </trkpt>
      <trkpt lat="42.89056" lon="0.20202">
        <ele>2127.6350033179</ele>
        <time>2016-10-16T14:49:03Z</time>
      </trkpt>
      <trkpt lat="42.89056" lon="0.20202">
        <ele>2127.6350033179</ele>
        <time>2016-10-16T14:49:08Z</time>
      </trkpt>
      <trkpt lat="42.89056" lon="0.20202">
        <ele>2127.6350033179</ele>
        <time>2016-10-16T14:49:13Z</time>
      </trkpt>
      <trkpt lat="42.89055" lon="0.20198">
        <ele>2127.6350033179</ele>
        <time>2016-10-16T14:49:18Z</time>
      </trkpt>
      <trkpt lat="42.89055" lon="0.20197">
        <ele>2128.2974830732</ele>
        <time>2016-10-16T14:49:23Z</time>
      </trkpt>
      <trkpt lat="42.89055" lon="0.20196">
        <ele>2128.2974830732</ele>
        <time>2016-10-16T14:49:28Z</time>
      </trkpt>
      <trkpt lat="42.89055" lon="0.20196">
        <ele>2128.2974830732</ele>
        <time>2016-10-16T14:49:33Z</time>
      </trkpt>
      <trkpt lat="42.89055" lon="0.20196">
        <ele>2128.2974830732</ele>
        <time>2016-10-16T14:49:38Z</time>
      </trkpt>
      <trkpt lat="42.89055" lon="0.20197">
        <ele>2128.2974830732</ele>
        <time>2016-10-16T14:49:43Z</time>
      </trkpt>
      <trkpt lat="42.89055" lon="0.20197">
        <ele>2128.2974830732</ele>
        <time>2016-10-16T14:49:48Z</time>
      </trkpt>
      <trkpt lat="42.89056" lon="0.20199">
        <ele>2128.2974830732</ele>
        <time>2016-10-16T14:49:53Z</time>
      </trkpt>
      <trkpt lat="42.89057" lon="0.20199">
        <ele>2128.2974830732</ele>
        <time>2016-10-16T14:49:58Z</time>
      </trkpt>
      <trkpt lat="42.89057" lon="0.202">
        <ele>2128.2974830732</ele>
        <time>2016-10-16T14:50:03Z</time>
      </trkpt>
      <trkpt lat="42.89057" lon="0.20202">
        <ele>2128.2974830732</ele>
        <time>2016-10-16T14:50:08Z</time>
      </trkpt>
      <trkpt lat="42.89057" lon="0.20202">
        <ele>2128.2974830732</ele>
        <time>2016-10-16T14:50:13Z</time>
      </trkpt>
      <trkpt lat="42.89057" lon="0.20202">
        <ele>2128.2974830732</ele>
        <time>2016-10-16T14:50:18Z</time>
      </trkpt>
      <trkpt lat="42.89057" lon="0.20201">
        <ele>2128.2974830732</ele>
        <time>2016-10-16T14:50:23Z</time>
      </trkpt>
      <trkpt lat="42.89057" lon="0.20202">
        <ele>2128.2974830732</ele>
        <time>2016-10-16T14:50:28Z</time>
      </trkpt>
      <trkpt lat="42.89057" lon="0.20202">
        <ele>2128.2974830732</ele>
        <time>2016-10-16T14:50:33Z</time>
      </trkpt>
      <trkpt lat="42.89057" lon="0.20202">
        <ele>2128.2974830732</ele>
        <time>2016-10-16T14:50:38Z</time>
      </trkpt>
      <trkpt lat="42.89057" lon="0.20202">
        <ele>2128.2974830732</ele>
        <time>2016-10-16T14:50:43Z</time>
      </trkpt>
      <trkpt lat="42.89057" lon="0.20202">
        <ele>2128.2974830732</ele>
        <time>2016-10-16T14:50:48Z</time>
      </trkpt>
      <trkpt lat="42.89057" lon="0.20203">
        <ele>2128.2974830732</ele>
        <time>2016-10-16T14:50:53Z</time>
      </trkpt>
      <trkpt lat="42.89056" lon="0.20203">
        <ele>2128.2974830732</ele>
        <time>2016-10-16T14:50:58Z</time>
      </trkpt>
      <trkpt lat="42.89056" lon="0.20203">
        <ele>2128.2974830732</ele>
        <time>2016-10-16T14:51:03Z</time>
      </trkpt>
      <trkpt lat="42.89056" lon="0.20203">
        <ele>2128.2974830732</ele>
        <time>2016-10-16T14:51:08Z</time>
      </trkpt>
      <trkpt lat="42.89056" lon="0.20203">
        <ele>2128.2974830732</ele>
        <time>2016-10-16T14:51:13Z</time>
      </trkpt>
      <trkpt lat="42.89056" lon="0.20204">
        <ele>2128.2974830732</ele>
        <time>2016-10-16T14:51:18Z</time>
      </trkpt>
      <trkpt lat="42.89056" lon="0.20204">
        <ele>2128.2974830732</ele>
        <time>2016-10-16T14:51:23Z</time>
      </trkpt>
      <trkpt lat="42.89056" lon="0.20204">
        <ele>2128.2974830732</ele>
        <time>2016-10-16T14:51:28Z</time>
      </trkpt>
      <trkpt lat="42.89056" lon="0.20204">
        <ele>2128.2974830732</ele>
        <time>2016-10-16T14:51:33Z</time>
      </trkpt>
      <trkpt lat="42.89056" lon="0.20204">
        <ele>2128.2974830732</ele>
        <time>2016-10-16T14:51:38Z</time>
      </trkpt>
      <trkpt lat="42.89056" lon="0.20204">
        <ele>2128.2974830732</ele>
        <time>2016-10-16T14:51:43Z</time>
      </trkpt>
      <trkpt lat="42.89056" lon="0.20204">
        <ele>2128.2974830732</ele>
        <time>2016-10-16T14:51:48Z</time>
      </trkpt>
      <trkpt lat="42.89056" lon="0.20204">
        <ele>2128.2974830732</ele>
        <time>2016-10-16T14:51:53Z</time>
      </trkpt>
      <trkpt lat="42.89056" lon="0.20204">
        <ele>2128.2974830732</ele>
        <time>2016-10-16T14:51:58Z</time>
      </trkpt>
      <trkpt lat="42.89056" lon="0.20204">
        <ele>2128.2974830732</ele>
        <time>2016-10-16T14:52:03Z</time>
      </trkpt>
      <trkpt lat="42.89056" lon="0.20204">
        <ele>2128.2974830732</ele>
        <time>2016-10-16T14:52:08Z</time>
      </trkpt>
      <trkpt lat="42.89056" lon="0.20204">
        <ele>2129.4912948931</ele>
        <time>2016-10-16T14:52:13Z</time>
      </trkpt>
      <trkpt lat="42.89056" lon="0.20204">
        <ele>2129.4912948931</ele>
        <time>2016-10-16T14:52:18Z</time>
      </trkpt>
      <trkpt lat="42.89056" lon="0.20205">
        <ele>2129.4912948931</ele>
        <time>2016-10-16T14:52:23Z</time>
      </trkpt>
      <trkpt lat="42.89056" lon="0.20205">
        <ele>2129.4912948931</ele>
        <time>2016-10-16T14:52:28Z</time>
      </trkpt>
      <trkpt lat="42.89056" lon="0.20205">
        <ele>2129.4912948931</ele>
        <time>2016-10-16T14:52:33Z</time>
      </trkpt>
      <trkpt lat="42.89056" lon="0.20205">
        <ele>2129.4912948931</ele>
        <time>2016-10-16T14:52:38Z</time>
      </trkpt>
      <trkpt lat="42.89056" lon="0.20205">
        <ele>2129.4912948931</ele>
        <time>2016-10-16T14:52:43Z</time>
      </trkpt>
      <trkpt lat="42.89056" lon="0.20206">
        <ele>2129.4912948931</ele>
        <time>2016-10-16T14:52:48Z</time>
      </trkpt>
      <trkpt lat="42.89056" lon="0.20206">
        <ele>2129.4912948931</ele>
        <time>2016-10-16T14:52:53Z</time>
      </trkpt>
      <trkpt lat="42.89056" lon="0.20206">
        <ele>2129.4912948931</ele>
        <time>2016-10-16T14:52:58Z</time>
      </trkpt>
      <trkpt lat="42.89056" lon="0.20206">
        <ele>2129.4912948931</ele>
        <time>2016-10-16T14:53:03Z</time>
      </trkpt>
      <trkpt lat="42.89056" lon="0.20206">
        <ele>2129.4912948931</ele>
        <time>2016-10-16T14:53:08Z</time>
      </trkpt>
      <trkpt lat="42.89056" lon="0.20206">
        <ele>2129.4912948931</ele>
        <time>2016-10-16T14:53:13Z</time>
      </trkpt>
      <trkpt lat="42.89056" lon="0.20206">
        <ele>2129.4912948931</ele>
        <time>2016-10-16T14:53:18Z</time>
      </trkpt>
      <trkpt lat="42.89056" lon="0.20206">
        <ele>2129.4912948931</ele>
        <time>2016-10-16T14:53:23Z</time>
      </trkpt>
      <trkpt lat="42.89056" lon="0.20206">
        <ele>2129.4912948931</ele>
        <time>2016-10-16T14:53:28Z</time>
      </trkpt>
      <trkpt lat="42.89056" lon="0.20206">
        <ele>2129.4912948931</ele>
        <time>2016-10-16T14:53:33Z</time>
      </trkpt>
      <trkpt lat="42.89057" lon="0.20206">
        <ele>2129.4912948931</ele>
        <time>2016-10-16T14:53:38Z</time>
      </trkpt>
      <trkpt lat="42.89057" lon="0.20206">
        <ele>2129.4912948931</ele>
        <time>2016-10-16T14:53:43Z</time>
      </trkpt>
      <trkpt lat="42.89057" lon="0.20206">
        <ele>2129.4912948931</ele>
        <time>2016-10-16T14:53:48Z</time>
      </trkpt>
      <trkpt lat="42.89057" lon="0.20206">
        <ele>2129.4912948931</ele>
        <time>2016-10-16T14:53:53Z</time>
      </trkpt>
      <trkpt lat="42.89056" lon="0.20206">
        <ele>2129.4912948931</ele>
        <time>2016-10-16T14:53:58Z</time>
      </trkpt>
      <trkpt lat="42.89056" lon="0.20206">
        <ele>2129.4912948931</ele>
        <time>2016-10-16T14:54:03Z</time>
      </trkpt>
      <trkpt lat="42.89056" lon="0.20206">
        <ele>2129.4912948931</ele>
        <time>2016-10-16T14:54:08Z</time>
      </trkpt>
      <trkpt lat="42.89056" lon="0.20206">
        <ele>2129.4912948931</ele>
        <time>2016-10-16T14:54:13Z</time>
      </trkpt>
      <trkpt lat="42.89056" lon="0.20208">
        <ele>2129.4912948931</ele>
        <time>2016-10-16T14:54:18Z</time>
      </trkpt>
      <trkpt lat="42.89055" lon="0.20208">
        <ele>2129.4912948931</ele>
        <time>2016-10-16T14:54:23Z</time>
      </trkpt>
      <trkpt lat="42.89055" lon="0.20208">
        <ele>2129.4912948931</ele>
        <time>2016-10-16T14:54:28Z</time>
      </trkpt>
      <trkpt lat="42.89055" lon="0.20208">
        <ele>2129.4912948931</ele>
        <time>2016-10-16T14:54:33Z</time>
      </trkpt>
      <trkpt lat="42.89055" lon="0.20208">
        <ele>2129.4912948931</ele>
        <time>2016-10-16T14:54:38Z</time>
      </trkpt>
      <trkpt lat="42.89055" lon="0.20208">
        <ele>2129.4912948931</ele>
        <time>2016-10-16T14:54:43Z</time>
      </trkpt>
      <trkpt lat="42.89055" lon="0.20208">
        <ele>2129.4912948931</ele>
        <time>2016-10-16T14:54:48Z</time>
      </trkpt>
      <trkpt lat="42.89055" lon="0.20207">
        <ele>2129.4912948931</ele>
        <time>2016-10-16T14:54:53Z</time>
      </trkpt>
      <trkpt lat="42.89055" lon="0.20206">
        <ele>2129.4912948931</ele>
        <time>2016-10-16T14:54:58Z</time>
      </trkpt>
      <trkpt lat="42.89055" lon="0.20206">
        <ele>2129.4912948931</ele>
        <time>2016-10-16T14:55:03Z</time>
      </trkpt>
      <trkpt lat="42.89055" lon="0.20206">
        <ele>2129.4912948931</ele>
        <time>2016-10-16T14:55:08Z</time>
      </trkpt>
      <trkpt lat="42.89055" lon="0.20206">
        <ele>2129.4912948931</ele>
        <time>2016-10-16T14:55:13Z</time>
      </trkpt>
      <trkpt lat="42.89055" lon="0.20206">
        <ele>2129.4912948931</ele>
        <time>2016-10-16T14:55:18Z</time>
      </trkpt>
      <trkpt lat="42.89055" lon="0.20206">
        <ele>2129.4912948931</ele>
        <time>2016-10-16T14:55:23Z</time>
      </trkpt>
      <trkpt lat="42.89055" lon="0.20206">
        <ele>2129.4912948931</ele>
        <time>2016-10-16T14:55:28Z</time>
      </trkpt>
      <trkpt lat="42.89055" lon="0.20206">
        <ele>2129.4912948931</ele>
        <time>2016-10-16T14:55:33Z</time>
      </trkpt>
      <trkpt lat="42.89055" lon="0.20206">
        <ele>2129.4912948931</ele>
        <time>2016-10-16T14:55:38Z</time>
      </trkpt>
      <trkpt lat="42.89055" lon="0.20206">
        <ele>2129.4912948931</ele>
        <time>2016-10-16T14:55:43Z</time>
      </trkpt>
      <trkpt lat="42.89055" lon="0.20206">
        <ele>2129.4912948931</ele>
        <time>2016-10-16T14:55:48Z</time>
      </trkpt>
      <trkpt lat="42.89055" lon="0.20206">
        <ele>2129.4912948931</ele>
        <time>2016-10-16T14:55:53Z</time>
      </trkpt>
      <trkpt lat="42.89055" lon="0.20206">
        <ele>2129.4912948931</ele>
        <time>2016-10-16T14:55:58Z</time>
      </trkpt>
      <trkpt lat="42.89055" lon="0.20206">
        <ele>2129.4912948931</ele>
        <time>2016-10-16T14:56:03Z</time>
      </trkpt>
      <trkpt lat="42.89056" lon="0.20205">
        <ele>2129.4912948931</ele>
        <time>2016-10-16T14:56:08Z</time>
      </trkpt>
      <trkpt lat="42.89056" lon="0.20205">
        <ele>2129.4912948931</ele>
        <time>2016-10-16T14:56:13Z</time>
      </trkpt>
      <trkpt lat="42.89056" lon="0.20205">
        <ele>2129.4912948931</ele>
        <time>2016-10-16T14:56:18Z</time>
      </trkpt>
      <trkpt lat="42.89057" lon="0.20205">
        <ele>2131.0879139223</ele>
        <time>2016-10-16T14:56:23Z</time>
      </trkpt>
      <trkpt lat="42.89057" lon="0.20205">
        <ele>2131.0879139223</ele>
        <time>2016-10-16T14:56:28Z</time>
      </trkpt>
      <trkpt lat="42.89057" lon="0.20205">
        <ele>2131.0879139223</ele>
        <time>2016-10-16T14:56:33Z</time>
      </trkpt>
      <trkpt lat="42.89057" lon="0.20205">
        <ele>2131.0879139223</ele>
        <time>2016-10-16T14:56:38Z</time>
      </trkpt>
      <trkpt lat="42.89058" lon="0.20203">
        <ele>2131.0879139223</ele>
        <time>2016-10-16T14:56:43Z</time>
      </trkpt>
      <trkpt lat="42.8906" lon="0.20199">
        <ele>2131.0879139223</ele>
        <time>2016-10-16T14:56:48Z</time>
      </trkpt>
      <trkpt lat="42.8906" lon="0.202">
        <ele>2131.0879139223</ele>
        <time>2016-10-16T14:56:53Z</time>
      </trkpt>
      <trkpt lat="42.89061" lon="0.20199">
        <ele>2131.0879139223</ele>
        <time>2016-10-16T14:56:58Z</time>
      </trkpt>
      <trkpt lat="42.89061" lon="0.20198">
        <ele>2131.0879139223</ele>
        <time>2016-10-16T14:57:03Z</time>
      </trkpt>
      <trkpt lat="42.89062" lon="0.20194">
        <ele>2132.8518582749</ele>
        <time>2016-10-16T14:57:08Z</time>
      </trkpt>
      <trkpt lat="42.89064" lon="0.20196">
        <ele>2132.8518582749</ele>
        <time>2016-10-16T14:57:13Z</time>
      </trkpt>
      <trkpt lat="42.89065" lon="0.20194">
        <ele>2132.8518582749</ele>
        <time>2016-10-16T14:57:18Z</time>
      </trkpt>
      <trkpt lat="42.89068" lon="0.20192">
        <ele>2132.8518582749</ele>
        <time>2016-10-16T14:57:23Z</time>
      </trkpt>
      <trkpt lat="42.8907" lon="0.20187">
        <ele>2134.6221494368</ele>
        <time>2016-10-16T14:57:28Z</time>
      </trkpt>
      <trkpt lat="42.89071" lon="0.20182">
        <ele>2134.6221494368</ele>
        <time>2016-10-16T14:57:33Z</time>
      </trkpt>
      <trkpt lat="42.89073" lon="0.20181">
        <ele>2134.6221494368</ele>
        <time>2016-10-16T14:57:38Z</time>
      </trkpt>
      <trkpt lat="42.89072" lon="0.20176">
        <ele>2136.3217123531</ele>
        <time>2016-10-16T14:57:43Z</time>
      </trkpt>
      <trkpt lat="42.89071" lon="0.20172">
        <ele>2136.3217123531</ele>
        <time>2016-10-16T14:57:48Z</time>
      </trkpt>
      <trkpt lat="42.89071" lon="0.2017">
        <ele>2136.3217123531</ele>
        <time>2016-10-16T14:57:53Z</time>
      </trkpt>
      <trkpt lat="42.89073" lon="0.20164">
        <ele>2136.3217123531</ele>
        <time>2016-10-16T14:57:58Z</time>
      </trkpt>
      <trkpt lat="42.89074" lon="0.2016">
        <ele>2137.9370271244</ele>
        <time>2016-10-16T14:58:03Z</time>
      </trkpt>
      <trkpt lat="42.89077" lon="0.20156">
        <ele>2137.9370271244</ele>
        <time>2016-10-16T14:58:08Z</time>
      </trkpt>
      <trkpt lat="42.89078" lon="0.20156">
        <ele>2137.9370271244</ele>
        <time>2016-10-16T14:58:13Z</time>
      </trkpt>
      <trkpt lat="42.8908" lon="0.20158">
        <ele>2137.9370271244</ele>
        <time>2016-10-16T14:58:18Z</time>
      </trkpt>
      <trkpt lat="42.89083" lon="0.20164">
        <ele>2139.4702738699</ele>
        <time>2016-10-16T14:58:23Z</time>
      </trkpt>
      <trkpt lat="42.89086" lon="0.20164">
        <ele>2139.4702738699</ele>
        <time>2016-10-16T14:58:28Z</time>
      </trkpt>
      <trkpt lat="42.8909" lon="0.20163">
        <ele>2139.4702738699</ele>
        <time>2016-10-16T14:58:33Z</time>
      </trkpt>
      <trkpt lat="42.89093" lon="0.2016">
        <ele>2140.8805363442</ele>
        <time>2016-10-16T14:58:38Z</time>
      </trkpt>
      <trkpt lat="42.89097" lon="0.20158">
        <ele>2140.8805363442</ele>
        <time>2016-10-16T14:58:43Z</time>
      </trkpt>
      <trkpt lat="42.891" lon="0.20157">
        <ele>2140.8805363442</ele>
        <time>2016-10-16T14:58:48Z</time>
      </trkpt>
      <trkpt lat="42.891" lon="0.20155">
        <ele>2140.8805363442</ele>
        <time>2016-10-16T14:58:53Z</time>
      </trkpt>
      <trkpt lat="42.89102" lon="0.2015">
        <ele>2142.1879663318</ele>
        <time>2016-10-16T14:58:58Z</time>
      </trkpt>
      <trkpt lat="42.89104" lon="0.20148">
        <ele>2142.1879663318</ele>
        <time>2016-10-16T14:59:03Z</time>
      </trkpt>
      <trkpt lat="42.89105" lon="0.20144">
        <ele>2142.1879663318</ele>
        <time>2016-10-16T14:59:08Z</time>
      </trkpt>
      <trkpt lat="42.89107" lon="0.20137">
        <ele>2143.3971899564</ele>
        <time>2016-10-16T14:59:13Z</time>
      </trkpt>
      <trkpt lat="42.8911" lon="0.20132">
        <ele>2143.3971899564</ele>
        <time>2016-10-16T14:59:18Z</time>
      </trkpt>
      <trkpt lat="42.89113" lon="0.2013">
        <ele>2143.3971899564</ele>
        <time>2016-10-16T14:59:23Z</time>
      </trkpt>
      <trkpt lat="42.89115" lon="0.2013">
        <ele>2144.4984381958</ele>
        <time>2016-10-16T14:59:28Z</time>
      </trkpt>
      <trkpt lat="42.89118" lon="0.20127">
        <ele>2144.4984381958</ele>
        <time>2016-10-16T14:59:33Z</time>
      </trkpt>
      <trkpt lat="42.89119" lon="0.20128">
        <ele>2144.4984381958</ele>
        <time>2016-10-16T14:59:38Z</time>
      </trkpt>
      <trkpt lat="42.8912" lon="0.20127">
        <ele>2144.4984381958</ele>
        <time>2016-10-16T14:59:43Z</time>
      </trkpt>
      <trkpt lat="42.89119" lon="0.20122">
        <ele>2145.4974555975</ele>
        <time>2016-10-16T14:59:48Z</time>
      </trkpt>
      <trkpt lat="42.89117" lon="0.20118">
        <ele>2145.4974555975</ele>
        <time>2016-10-16T14:59:53Z</time>
      </trkpt>
      <trkpt lat="42.89116" lon="0.20114">
        <ele>2145.4974555975</ele>
        <time>2016-10-16T14:59:58Z</time>
      </trkpt>
      <trkpt lat="42.89117" lon="0.20111">
        <ele>2145.4974555975</ele>
        <time>2016-10-16T15:00:03Z</time>
      </trkpt>
      <trkpt lat="42.89119" lon="0.20112">
        <ele>2146.3999338139</ele>
        <time>2016-10-16T15:00:08Z</time>
      </trkpt>
      <trkpt lat="42.89122" lon="0.20114">
        <ele>2146.3999338139</ele>
        <time>2016-10-16T15:00:13Z</time>
      </trkpt>
      <trkpt lat="42.89124" lon="0.20114">
        <ele>2146.3999338139</ele>
        <time>2016-10-16T15:00:18Z</time>
      </trkpt>
      <trkpt lat="42.89124" lon="0.20114">
        <ele>2146.3999338139</ele>
        <time>2016-10-16T15:00:23Z</time>
      </trkpt>
      <trkpt lat="42.89124" lon="0.20114">
        <ele>2146.3999338139</ele>
        <time>2016-10-16T15:00:28Z</time>
      </trkpt>
      <trkpt lat="42.89124" lon="0.20114">
        <ele>2146.3999338139</ele>
        <time>2016-10-16T15:00:33Z</time>
      </trkpt>
      <trkpt lat="42.89124" lon="0.20114">
        <ele>2146.3999338139</ele>
        <time>2016-10-16T15:00:38Z</time>
      </trkpt>
      <trkpt lat="42.89124" lon="0.20114">
        <ele>2146.3999338139</ele>
        <time>2016-10-16T15:00:43Z</time>
      </trkpt>
      <trkpt lat="42.89124" lon="0.20114">
        <ele>2146.3999338139</ele>
        <time>2016-10-16T15:00:48Z</time>
      </trkpt>
      <trkpt lat="42.89124" lon="0.20115">
        <ele>2146.3999338139</ele>
        <time>2016-10-16T15:00:53Z</time>
      </trkpt>
      <trkpt lat="42.89124" lon="0.20115">
        <ele>2146.3999338139</ele>
        <time>2016-10-16T15:00:58Z</time>
      </trkpt>
      <trkpt lat="42.89124" lon="0.20115">
        <ele>2146.3999338139</ele>
        <time>2016-10-16T15:01:03Z</time>
      </trkpt>
      <trkpt lat="42.89124" lon="0.20115">
        <ele>2146.3999338139</ele>
        <time>2016-10-16T15:01:08Z</time>
      </trkpt>
      <trkpt lat="42.89124" lon="0.20115">
        <ele>2146.3999338139</ele>
        <time>2016-10-16T15:01:13Z</time>
      </trkpt>
      <trkpt lat="42.89125" lon="0.20115">
        <ele>2146.3999338139</ele>
        <time>2016-10-16T15:01:18Z</time>
      </trkpt>
      <trkpt lat="42.89126" lon="0.20115">
        <ele>2146.3999338139</ele>
        <time>2016-10-16T15:01:23Z</time>
      </trkpt>
      <trkpt lat="42.89127" lon="0.20116">
        <ele>2147.240321064</ele>
        <time>2016-10-16T15:01:28Z</time>
      </trkpt>
      <trkpt lat="42.89127" lon="0.20115">
        <ele>2147.240321064</ele>
        <time>2016-10-16T15:01:33Z</time>
      </trkpt>
      <trkpt lat="42.89127" lon="0.20114">
        <ele>2147.240321064</ele>
        <time>2016-10-16T15:01:38Z</time>
      </trkpt>
      <trkpt lat="42.89128" lon="0.20113">
        <ele>2147.240321064</ele>
        <time>2016-10-16T15:01:43Z</time>
      </trkpt>
      <trkpt lat="42.8913" lon="0.20111">
        <ele>2147.240321064</ele>
        <time>2016-10-16T15:01:48Z</time>
      </trkpt>
      <trkpt lat="42.89132" lon="0.20109">
        <ele>2147.240321064</ele>
        <time>2016-10-16T15:01:53Z</time>
      </trkpt>
      <trkpt lat="42.89135" lon="0.20103">
        <ele>2148.0363781119</ele>
        <time>2016-10-16T15:01:58Z</time>
      </trkpt>
      <trkpt lat="42.89137" lon="0.201">
        <ele>2148.0363781119</ele>
        <time>2016-10-16T15:02:03Z</time>
      </trkpt>
      <trkpt lat="42.89138" lon="0.20097">
        <ele>2148.0363781119</ele>
        <time>2016-10-16T15:02:08Z</time>
      </trkpt>
      <trkpt lat="42.89138" lon="0.20095">
        <ele>2148.0363781119</ele>
        <time>2016-10-16T15:02:13Z</time>
      </trkpt>
      <trkpt lat="42.89137" lon="0.2009">
        <ele>2148.7471185616</ele>
        <time>2016-10-16T15:02:18Z</time>
      </trkpt>
      <trkpt lat="42.89137" lon="0.20086">
        <ele>2148.7471185616</ele>
        <time>2016-10-16T15:02:23Z</time>
      </trkpt>
      <trkpt lat="42.89138" lon="0.20083">
        <ele>2148.7471185616</ele>
        <time>2016-10-16T15:02:28Z</time>
      </trkpt>
      <trkpt lat="42.89139" lon="0.20083">
        <ele>2148.7471185616</ele>
        <time>2016-10-16T15:02:33Z</time>
      </trkpt>
      <trkpt lat="42.89139" lon="0.20083">
        <ele>2148.7471185616</ele>
        <time>2016-10-16T15:02:38Z</time>
      </trkpt>
      <trkpt lat="42.89139" lon="0.20083">
        <ele>2148.7471185616</ele>
        <time>2016-10-16T15:02:43Z</time>
      </trkpt>
      <trkpt lat="42.89139" lon="0.20083">
        <ele>2148.7471185616</ele>
        <time>2016-10-16T15:02:48Z</time>
      </trkpt>
      <trkpt lat="42.8914" lon="0.20082">
        <ele>2148.7471185616</ele>
        <time>2016-10-16T15:02:53Z</time>
      </trkpt>
      <trkpt lat="42.89142" lon="0.20081">
        <ele>2148.7471185616</ele>
        <time>2016-10-16T15:02:58Z</time>
      </trkpt>
      <trkpt lat="42.89143" lon="0.20081">
        <ele>2149.3781141504</ele>
        <time>2016-10-16T15:03:03Z</time>
      </trkpt>
      <trkpt lat="42.89146" lon="0.20081">
        <ele>2149.3781141504</ele>
        <time>2016-10-16T15:03:08Z</time>
      </trkpt>
      <trkpt lat="42.89149" lon="0.20082">
        <ele>2149.3781141504</ele>
        <time>2016-10-16T15:03:13Z</time>
      </trkpt>
      <trkpt lat="42.89152" lon="0.20084">
        <ele>2149.9059997389</ele>
        <time>2016-10-16T15:03:18Z</time>
      </trkpt>
      <trkpt lat="42.89153" lon="0.20085">
        <ele>2149.9059997389</ele>
        <time>2016-10-16T15:03:23Z</time>
      </trkpt>
      <trkpt lat="42.89153" lon="0.20086">
        <ele>2149.9059997389</ele>
        <time>2016-10-16T15:03:28Z</time>
      </trkpt>
      <trkpt lat="42.89156" lon="0.20087">
        <ele>2149.9059997389</ele>
        <time>2016-10-16T15:03:33Z</time>
      </trkpt>
      <trkpt lat="42.89159" lon="0.2009">
        <ele>2149.9059997389</ele>
        <time>2016-10-16T15:03:38Z</time>
      </trkpt>
      <trkpt lat="42.8916" lon="0.20091">
        <ele>2150.3383047128</ele>
        <time>2016-10-16T15:03:43Z</time>
      </trkpt>
      <trkpt lat="42.89161" lon="0.2009">
        <ele>2150.3383047128</ele>
        <time>2016-10-16T15:03:48Z</time>
      </trkpt>
      <trkpt lat="42.89163" lon="0.2009">
        <ele>2150.3383047128</ele>
        <time>2016-10-16T15:03:53Z</time>
      </trkpt>
      <trkpt lat="42.89164" lon="0.2009">
        <ele>2150.3383047128</ele>
        <time>2016-10-16T15:03:58Z</time>
      </trkpt>
      <trkpt lat="42.89165" lon="0.20091">
        <ele>2150.3383047128</ele>
        <time>2016-10-16T15:04:03Z</time>
      </trkpt>
      <trkpt lat="42.89167" lon="0.2009">
        <ele>2150.3383047128</ele>
        <time>2016-10-16T15:04:08Z</time>
      </trkpt>
      <trkpt lat="42.89168" lon="0.20089">
        <ele>2150.6535129104</ele>
        <time>2016-10-16T15:04:13Z</time>
      </trkpt>
      <trkpt lat="42.8917" lon="0.20088">
        <ele>2150.6535129104</ele>
        <time>2016-10-16T15:04:18Z</time>
      </trkpt>
      <trkpt lat="42.89172" lon="0.2009">
        <ele>2150.6535129104</ele>
        <time>2016-10-16T15:04:23Z</time>
      </trkpt>
      <trkpt lat="42.89172" lon="0.20091">
        <ele>2150.6535129104</ele>
        <time>2016-10-16T15:04:28Z</time>
      </trkpt>
      <trkpt lat="42.8917" lon="0.20092">
        <ele>2150.6535129104</ele>
        <time>2016-10-16T15:04:33Z</time>
      </trkpt>
      <trkpt lat="42.89172" lon="0.20094">
        <ele>2150.846484324</ele>
        <time>2016-10-16T15:04:38Z</time>
      </trkpt>
      <trkpt lat="42.89175" lon="0.20095">
        <ele>2150.846484324</ele>
        <time>2016-10-16T15:04:43Z</time>
      </trkpt>
      <trkpt lat="42.89176" lon="0.20095">
        <ele>2150.846484324</ele>
        <time>2016-10-16T15:04:48Z</time>
      </trkpt>
      <trkpt lat="42.89184" lon="0.20097">
        <ele>2150.9272601936</ele>
        <time>2016-10-16T15:04:53Z</time>
      </trkpt>
      <trkpt lat="42.89191" lon="0.20096">
        <ele>2150.9272601936</ele>
        <time>2016-10-16T15:04:58Z</time>
      </trkpt>
      <trkpt lat="42.89195" lon="0.20095">
        <ele>2150.9055015622</ele>
        <time>2016-10-16T15:05:03Z</time>
      </trkpt>
      <trkpt lat="42.89198" lon="0.20095">
        <ele>2150.9055015622</ele>
        <time>2016-10-16T15:05:08Z</time>
      </trkpt>
      <trkpt lat="42.892" lon="0.20092">
        <ele>2150.9055015622</ele>
        <time>2016-10-16T15:05:13Z</time>
      </trkpt>
      <trkpt lat="42.89202" lon="0.20092">
        <ele>2150.9055015622</ele>
        <time>2016-10-16T15:05:18Z</time>
      </trkpt>
      <trkpt lat="42.89205" lon="0.20088">
        <ele>2150.7616603339</ele>
        <time>2016-10-16T15:05:23Z</time>
      </trkpt>
      <trkpt lat="42.89208" lon="0.20085">
        <ele>2150.7616603339</ele>
        <time>2016-10-16T15:05:28Z</time>
      </trkpt>
      <trkpt lat="42.89211" lon="0.20082">
        <ele>2150.7616603339</ele>
        <time>2016-10-16T15:05:33Z</time>
      </trkpt>
      <trkpt lat="42.89214" lon="0.20082">
        <ele>2150.5356385236</ele>
        <time>2016-10-16T15:05:38Z</time>
      </trkpt>
      <trkpt lat="42.89216" lon="0.20077">
        <ele>2150.5356385236</ele>
        <time>2016-10-16T15:05:43Z</time>
      </trkpt>
      <trkpt lat="42.89221" lon="0.20072">
        <ele>2150.2358341542</ele>
        <time>2016-10-16T15:05:48Z</time>
      </trkpt>
      <trkpt lat="42.89224" lon="0.20074">
        <ele>2150.2358341542</ele>
        <time>2016-10-16T15:05:53Z</time>
      </trkpt>
      <trkpt lat="42.8923" lon="0.20076">
        <ele>2149.8846568526</ele>
        <time>2016-10-16T15:05:58Z</time>
      </trkpt>
      <trkpt lat="42.89232" lon="0.20081">
        <ele>2149.8846568526</ele>
        <time>2016-10-16T15:06:03Z</time>
      </trkpt>
      <trkpt lat="42.89236" lon="0.20083">
        <ele>2149.8846568526</ele>
        <time>2016-10-16T15:06:08Z</time>
      </trkpt>
      <trkpt lat="42.89239" lon="0.20086">
        <ele>2149.4741938499</ele>
        <time>2016-10-16T15:06:13Z</time>
      </trkpt>
      <trkpt lat="42.89245" lon="0.20087">
        <ele>2149.4741938499</ele>
        <time>2016-10-16T15:06:18Z</time>
      </trkpt>
      <trkpt lat="42.89249" lon="0.20088">
        <ele>2149.0260957442</ele>
        <time>2016-10-16T15:06:23Z</time>
      </trkpt>
      <trkpt lat="42.89252" lon="0.20086">
        <ele>2149.0260957442</ele>
        <time>2016-10-16T15:06:28Z</time>
      </trkpt>
      <trkpt lat="42.89252" lon="0.20082">
        <ele>2149.0260957442</ele>
        <time>2016-10-16T15:06:33Z</time>
      </trkpt>
      <trkpt lat="42.89255" lon="0.20075">
        <ele>2148.5316914253</ele>
        <time>2016-10-16T15:06:38Z</time>
      </trkpt>
      <trkpt lat="42.89257" lon="0.20071">
        <ele>2148.5316914253</ele>
        <time>2016-10-16T15:06:43Z</time>
      </trkpt>
      <trkpt lat="42.89263" lon="0.20072">
        <ele>2148.0118764111</ele>
        <time>2016-10-16T15:06:48Z</time>
      </trkpt>
      <trkpt lat="42.89263" lon="0.20073">
        <ele>2148.0118764111</ele>
        <time>2016-10-16T15:06:53Z</time>
      </trkpt>
      <trkpt lat="42.89264" lon="0.20072">
        <ele>2148.0118764111</ele>
        <time>2016-10-16T15:06:58Z</time>
      </trkpt>
      <trkpt lat="42.89265" lon="0.20071">
        <ele>2148.0118764111</ele>
        <time>2016-10-16T15:07:03Z</time>
      </trkpt>
      <trkpt lat="42.89267" lon="0.20068">
        <ele>2148.0118764111</ele>
        <time>2016-10-16T15:07:08Z</time>
      </trkpt>
      <trkpt lat="42.89267" lon="0.20065">
        <ele>2148.0118764111</ele>
        <time>2016-10-16T15:07:13Z</time>
      </trkpt>
      <trkpt lat="42.89267" lon="0.20063">
        <ele>2148.0118764111</ele>
        <time>2016-10-16T15:07:18Z</time>
      </trkpt>
      <trkpt lat="42.89268" lon="0.20059">
        <ele>2147.4139968434</ele>
        <time>2016-10-16T15:07:23Z</time>
      </trkpt>
      <trkpt lat="42.8927" lon="0.20054">
        <ele>2147.4139968434</ele>
        <time>2016-10-16T15:07:28Z</time>
      </trkpt>
      <trkpt lat="42.89271" lon="0.20054">
        <ele>2147.4139968434</ele>
        <time>2016-10-16T15:07:33Z</time>
      </trkpt>
      <trkpt lat="42.89271" lon="0.20052">
        <ele>2147.4139968434</ele>
        <time>2016-10-16T15:07:38Z</time>
      </trkpt>
      <trkpt lat="42.89272" lon="0.2005">
        <ele>2147.4139968434</ele>
        <time>2016-10-16T15:07:43Z</time>
      </trkpt>
      <trkpt lat="42.89272" lon="0.20048">
        <ele>2146.761503913</ele>
        <time>2016-10-16T15:07:48Z</time>
      </trkpt>
      <trkpt lat="42.89272" lon="0.20045">
        <ele>2146.761503913</ele>
        <time>2016-10-16T15:07:53Z</time>
      </trkpt>
      <trkpt lat="42.89272" lon="0.20043">
        <ele>2146.761503913</ele>
        <time>2016-10-16T15:07:58Z</time>
      </trkpt>
      <trkpt lat="42.8927" lon="0.20039">
        <ele>2146.761503913</ele>
        <time>2016-10-16T15:08:03Z</time>
      </trkpt>
      <trkpt lat="42.89267" lon="0.20036">
        <ele>2146.0762347798</ele>
        <time>2016-10-16T15:08:08Z</time>
      </trkpt>
      <trkpt lat="42.89268" lon="0.20035">
        <ele>2146.0762347798</ele>
        <time>2016-10-16T15:08:13Z</time>
      </trkpt>
      <trkpt lat="42.89268" lon="0.20035">
        <ele>2146.0762347798</ele>
        <time>2016-10-16T15:08:18Z</time>
      </trkpt>
      <trkpt lat="42.89267" lon="0.20033">
        <ele>2146.0762347798</ele>
        <time>2016-10-16T15:08:23Z</time>
      </trkpt>
      <trkpt lat="42.89266" lon="0.2003">
        <ele>2146.0762347798</ele>
        <time>2016-10-16T15:08:28Z</time>
      </trkpt>
      <trkpt lat="42.89268" lon="0.20021">
        <ele>2145.3640519674</ele>
        <time>2016-10-16T15:08:33Z</time>
      </trkpt>
      <trkpt lat="42.89273" lon="0.20017">
        <ele>2145.3640519674</ele>
        <time>2016-10-16T15:08:38Z</time>
      </trkpt>
      <trkpt lat="42.89275" lon="0.20014">
        <ele>2145.3640519674</ele>
        <time>2016-10-16T15:08:43Z</time>
      </trkpt>
      <trkpt lat="42.89276" lon="0.20013">
        <ele>2144.6448161851</ele>
        <time>2016-10-16T15:08:48Z</time>
      </trkpt>
      <trkpt lat="42.89276" lon="0.20013">
        <ele>2144.6448161851</ele>
        <time>2016-10-16T15:08:53Z</time>
      </trkpt>
      <trkpt lat="42.89276" lon="0.20013">
        <ele>2144.6448161851</ele>
        <time>2016-10-16T15:08:58Z</time>
      </trkpt>
      <trkpt lat="42.89278" lon="0.20014">
        <ele>2144.6448161851</ele>
        <time>2016-10-16T15:09:03Z</time>
      </trkpt>
      <trkpt lat="42.89281" lon="0.20015">
        <ele>2144.6448161851</ele>
        <time>2016-10-16T15:09:08Z</time>
      </trkpt>
      <trkpt lat="42.89283" lon="0.20016">
        <ele>2144.6448161851</ele>
        <time>2016-10-16T15:09:13Z</time>
      </trkpt>
      <trkpt lat="42.89283" lon="0.20017">
        <ele>2144.6448161851</ele>
        <time>2016-10-16T15:09:18Z</time>
      </trkpt>
      <trkpt lat="42.89283" lon="0.20017">
        <ele>2144.6448161851</ele>
        <time>2016-10-16T15:09:23Z</time>
      </trkpt>
      <trkpt lat="42.89282" lon="0.20014">
        <ele>2143.8792406601</ele>
        <time>2016-10-16T15:09:28Z</time>
      </trkpt>
      <trkpt lat="42.89282" lon="0.20013">
        <ele>2143.8792406601</ele>
        <time>2016-10-16T15:09:33Z</time>
      </trkpt>
      <trkpt lat="42.89282" lon="0.20013">
        <ele>2143.8792406601</ele>
        <time>2016-10-16T15:09:38Z</time>
      </trkpt>
      <trkpt lat="42.89282" lon="0.20014">
        <ele>2143.8792406601</ele>
        <time>2016-10-16T15:09:43Z</time>
      </trkpt>
      <trkpt lat="42.89281" lon="0.20015">
        <ele>2143.8792406601</ele>
        <time>2016-10-16T15:09:48Z</time>
      </trkpt>
      <trkpt lat="42.89279" lon="0.20014">
        <ele>2143.8792406601</ele>
        <time>2016-10-16T15:09:53Z</time>
      </trkpt>
      <trkpt lat="42.89278" lon="0.20013">
        <ele>2143.8792406601</ele>
        <time>2016-10-16T15:09:58Z</time>
      </trkpt>
      <trkpt lat="42.89277" lon="0.2001">
        <ele>2143.0742184469</ele>
        <time>2016-10-16T15:10:03Z</time>
      </trkpt>
      <trkpt lat="42.89277" lon="0.20005">
        <ele>2143.0742184469</ele>
        <time>2016-10-16T15:10:08Z</time>
      </trkpt>
      <trkpt lat="42.89278" lon="0.2">
        <ele>2143.0742184469</ele>
        <time>2016-10-16T15:10:13Z</time>
      </trkpt>
      <trkpt lat="42.89279" lon="0.19998">
        <ele>2142.2505832661</ele>
        <time>2016-10-16T15:10:18Z</time>
      </trkpt>
      <trkpt lat="42.89278" lon="0.19998">
        <ele>2142.2505832661</ele>
        <time>2016-10-16T15:10:23Z</time>
      </trkpt>
      <trkpt lat="42.89277" lon="0.19996">
        <ele>2142.2505832661</ele>
        <time>2016-10-16T15:10:28Z</time>
      </trkpt>
      <trkpt lat="42.89277" lon="0.19992">
        <ele>2142.2505832661</ele>
        <time>2016-10-16T15:10:33Z</time>
      </trkpt>
      <trkpt lat="42.89278" lon="0.19988">
        <ele>2141.3987887591</ele>
        <time>2016-10-16T15:10:38Z</time>
      </trkpt>
      <trkpt lat="42.89279" lon="0.19987">
        <ele>2141.3987887591</ele>
        <time>2016-10-16T15:10:43Z</time>
      </trkpt>
      <trkpt lat="42.89281" lon="0.19986">
        <ele>2141.3987887591</ele>
        <time>2016-10-16T15:10:48Z</time>
      </trkpt>
      <trkpt lat="42.89283" lon="0.19986">
        <ele>2141.3987887591</ele>
        <time>2016-10-16T15:10:53Z</time>
      </trkpt>
      <trkpt lat="42.89283" lon="0.19986">
        <ele>2141.3987887591</ele>
        <time>2016-10-16T15:10:58Z</time>
      </trkpt>
      <trkpt lat="42.89283" lon="0.19986">
        <ele>2141.3987887591</ele>
        <time>2016-10-16T15:11:03Z</time>
      </trkpt>
      <trkpt lat="42.89286" lon="0.19986">
        <ele>2141.3987887591</ele>
        <time>2016-10-16T15:11:08Z</time>
      </trkpt>
      <trkpt lat="42.89289" lon="0.19986">
        <ele>2140.4667512316</ele>
        <time>2016-10-16T15:11:13Z</time>
      </trkpt>
      <trkpt lat="42.89292" lon="0.19987">
        <ele>2140.4667512316</ele>
        <time>2016-10-16T15:11:18Z</time>
      </trkpt>
      <trkpt lat="42.89294" lon="0.19987">
        <ele>2140.4667512316</ele>
        <time>2016-10-16T15:11:23Z</time>
      </trkpt>
      <trkpt lat="42.89295" lon="0.19988">
        <ele>2140.4667512316</ele>
        <time>2016-10-16T15:11:28Z</time>
      </trkpt>
      <trkpt lat="42.89295" lon="0.19985">
        <ele>2140.4667512316</ele>
        <time>2016-10-16T15:11:33Z</time>
      </trkpt>
      <trkpt lat="42.89295" lon="0.19982">
        <ele>2139.4639939543</ele>
        <time>2016-10-16T15:11:38Z</time>
      </trkpt>
      <trkpt lat="42.89292" lon="0.19981">
        <ele>2139.4639939543</ele>
        <time>2016-10-16T15:11:43Z</time>
      </trkpt>
      <trkpt lat="42.89289" lon="0.19978">
        <ele>2139.4639939543</ele>
        <time>2016-10-16T15:11:48Z</time>
      </trkpt>
      <trkpt lat="42.89288" lon="0.19975">
        <ele>2138.4426795546</ele>
        <time>2016-10-16T15:11:53Z</time>
      </trkpt>
      <trkpt lat="42.89287" lon="0.19975">
        <ele>2138.4426795546</ele>
        <time>2016-10-16T15:11:58Z</time>
      </trkpt>
      <trkpt lat="42.89287" lon="0.19976">
        <ele>2138.4426795546</ele>
        <time>2016-10-16T15:12:03Z</time>
      </trkpt>
      <trkpt lat="42.89289" lon="0.19977">
        <ele>2138.4426795546</ele>
        <time>2016-10-16T15:12:08Z</time>
      </trkpt>
      <trkpt lat="42.89291" lon="0.19977">
        <ele>2138.4426795546</ele>
        <time>2016-10-16T15:12:13Z</time>
      </trkpt>
      <trkpt lat="42.89291" lon="0.19977">
        <ele>2138.4426795546</ele>
        <time>2016-10-16T15:12:18Z</time>
      </trkpt>
      <trkpt lat="42.89291" lon="0.19977">
        <ele>2138.4426795546</ele>
        <time>2016-10-16T15:12:23Z</time>
      </trkpt>
      <trkpt lat="42.89291" lon="0.19978">
        <ele>2138.4426795546</ele>
        <time>2016-10-16T15:12:28Z</time>
      </trkpt>
      <trkpt lat="42.89291" lon="0.19978">
        <ele>2138.4426795546</ele>
        <time>2016-10-16T15:12:33Z</time>
      </trkpt>
      <trkpt lat="42.89291" lon="0.19978">
        <ele>2138.4426795546</ele>
        <time>2016-10-16T15:12:38Z</time>
      </trkpt>
      <trkpt lat="42.89292" lon="0.19979">
        <ele>2138.4426795546</ele>
        <time>2016-10-16T15:12:43Z</time>
      </trkpt>
      <trkpt lat="42.89293" lon="0.1998">
        <ele>2138.4426795546</ele>
        <time>2016-10-16T15:12:48Z</time>
      </trkpt>
      <trkpt lat="42.89294" lon="0.1998">
        <ele>2137.4078607653</ele>
        <time>2016-10-16T15:12:53Z</time>
      </trkpt>
      <trkpt lat="42.89295" lon="0.19981">
        <ele>2137.4078607653</ele>
        <time>2016-10-16T15:12:58Z</time>
      </trkpt>
      <trkpt lat="42.89295" lon="0.19981">
        <ele>2137.4078607653</ele>
        <time>2016-10-16T15:13:03Z</time>
      </trkpt>
      <trkpt lat="42.89295" lon="0.19981">
        <ele>2137.4078607653</ele>
        <time>2016-10-16T15:13:08Z</time>
      </trkpt>
      <trkpt lat="42.89295" lon="0.19981">
        <ele>2137.4078607653</ele>
        <time>2016-10-16T15:13:13Z</time>
      </trkpt>
      <trkpt lat="42.89295" lon="0.19981">
        <ele>2137.4078607653</ele>
        <time>2016-10-16T15:13:18Z</time>
      </trkpt>
      <trkpt lat="42.89295" lon="0.1998">
        <ele>2137.4078607653</ele>
        <time>2016-10-16T15:13:23Z</time>
      </trkpt>
      <trkpt lat="42.89293" lon="0.1998">
        <ele>2137.4078607653</ele>
        <time>2016-10-16T15:13:28Z</time>
      </trkpt>
      <trkpt lat="42.8929" lon="0.19978">
        <ele>2136.3497454378</ele>
        <time>2016-10-16T15:13:33Z</time>
      </trkpt>
      <trkpt lat="42.89289" lon="0.19978">
        <ele>2136.3497454378</ele>
        <time>2016-10-16T15:13:38Z</time>
      </trkpt>
      <trkpt lat="42.89288" lon="0.19978">
        <ele>2136.3497454378</ele>
        <time>2016-10-16T15:13:43Z</time>
      </trkpt>
      <trkpt lat="42.89288" lon="0.19977">
        <ele>2136.3497454378</ele>
        <time>2016-10-16T15:13:48Z</time>
      </trkpt>
      <trkpt lat="42.89287" lon="0.19977">
        <ele>2136.3497454378</ele>
        <time>2016-10-16T15:13:53Z</time>
      </trkpt>
      <trkpt lat="42.89287" lon="0.19977">
        <ele>2136.3497454378</ele>
        <time>2016-10-16T15:13:58Z</time>
      </trkpt>
      <trkpt lat="42.89287" lon="0.19976">
        <ele>2136.3497454378</ele>
        <time>2016-10-16T15:14:03Z</time>
      </trkpt>
      <trkpt lat="42.89287" lon="0.19975">
        <ele>2136.3497454378</ele>
        <time>2016-10-16T15:14:08Z</time>
      </trkpt>
      <trkpt lat="42.89286" lon="0.19975">
        <ele>2136.3497454378</ele>
        <time>2016-10-16T15:14:13Z</time>
      </trkpt>
      <trkpt lat="42.89282" lon="0.19971">
        <ele>2135.1583442621</ele>
        <time>2016-10-16T15:14:18Z</time>
      </trkpt>
      <trkpt lat="42.8928" lon="0.19968">
        <ele>2135.1583442621</ele>
        <time>2016-10-16T15:14:23Z</time>
      </trkpt>
      <trkpt lat="42.89276" lon="0.19966">
        <ele>2135.1583442621</ele>
        <time>2016-10-16T15:14:28Z</time>
      </trkpt>
      <trkpt lat="42.89274" lon="0.19964">
        <ele>2133.9193587525</ele>
        <time>2016-10-16T15:14:33Z</time>
      </trkpt>
      <trkpt lat="42.89271" lon="0.1996">
        <ele>2133.9193587525</ele>
        <time>2016-10-16T15:14:38Z</time>
      </trkpt>
      <trkpt lat="42.8927" lon="0.19956">
        <ele>2133.9193587525</ele>
        <time>2016-10-16T15:14:43Z</time>
      </trkpt>
      <trkpt lat="42.89268" lon="0.19953">
        <ele>2132.6689844635</ele>
        <time>2016-10-16T15:14:48Z</time>
      </trkpt>
      <trkpt lat="42.89267" lon="0.1995">
        <ele>2132.6689844635</ele>
        <time>2016-10-16T15:14:53Z</time>
      </trkpt>
      <trkpt lat="42.89268" lon="0.19944">
        <ele>2132.6689844635</ele>
        <time>2016-10-16T15:14:58Z</time>
      </trkpt>
      <trkpt lat="42.89271" lon="0.1994">
        <ele>2131.3974430895</ele>
        <time>2016-10-16T15:15:03Z</time>
      </trkpt>
      <trkpt lat="42.89275" lon="0.19938">
        <ele>2131.3974430895</ele>
        <time>2016-10-16T15:15:08Z</time>
      </trkpt>
      <trkpt lat="42.89274" lon="0.19936">
        <ele>2131.3974430895</ele>
        <time>2016-10-16T15:15:13Z</time>
      </trkpt>
      <trkpt lat="42.89277" lon="0.19931">
        <ele>2129.922683914</ele>
        <time>2016-10-16T15:15:18Z</time>
      </trkpt>
      <trkpt lat="42.89275" lon="0.19931">
        <ele>2129.922683914</ele>
        <time>2016-10-16T15:15:23Z</time>
      </trkpt>
      <trkpt lat="42.89274" lon="0.1993">
        <ele>2129.922683914</ele>
        <time>2016-10-16T15:15:28Z</time>
      </trkpt>
      <trkpt lat="42.89273" lon="0.1993">
        <ele>2129.922683914</ele>
        <time>2016-10-16T15:15:33Z</time>
      </trkpt>
      <trkpt lat="42.89275" lon="0.19927">
        <ele>2129.922683914</ele>
        <time>2016-10-16T15:15:38Z</time>
      </trkpt>
      <trkpt lat="42.89274" lon="0.19926">
        <ele>2129.922683914</ele>
        <time>2016-10-16T15:15:43Z</time>
      </trkpt>
      <trkpt lat="42.89275" lon="0.19924">
        <ele>2129.922683914</ele>
        <time>2016-10-16T15:15:48Z</time>
      </trkpt>
      <trkpt lat="42.89275" lon="0.19921">
        <ele>2127.2262219841</ele>
        <time>2016-10-16T15:15:53Z</time>
      </trkpt>
      <trkpt lat="42.89272" lon="0.19917">
        <ele>2127.2262219841</ele>
        <time>2016-10-16T15:15:58Z</time>
      </trkpt>
      <trkpt lat="42.89269" lon="0.19914">
        <ele>2127.2262219841</ele>
        <time>2016-10-16T15:16:03Z</time>
      </trkpt>
      <trkpt lat="42.89267" lon="0.19907">
        <ele>2124.1834887677</ele>
        <time>2016-10-16T15:16:08Z</time>
      </trkpt>
      <trkpt lat="42.89262" lon="0.19902">
        <ele>2124.1834887677</ele>
        <time>2016-10-16T15:16:13Z</time>
      </trkpt>
      <trkpt lat="42.89258" lon="0.19897">
        <ele>2121.058817525</ele>
        <time>2016-10-16T15:16:18Z</time>
      </trkpt>
      <trkpt lat="42.89253" lon="0.19891">
        <ele>2121.058817525</ele>
        <time>2016-10-16T15:16:23Z</time>
      </trkpt>
      <trkpt lat="42.89251" lon="0.19888">
        <ele>2117.9098585188</ele>
        <time>2016-10-16T15:16:28Z</time>
      </trkpt>
      <trkpt lat="42.8925" lon="0.19883">
        <ele>2117.9098585188</ele>
        <time>2016-10-16T15:16:33Z</time>
      </trkpt>
      <trkpt lat="42.89248" lon="0.19881">
        <ele>2117.9098585188</ele>
        <time>2016-10-16T15:16:38Z</time>
      </trkpt>
      <trkpt lat="42.89243" lon="0.19875">
        <ele>2114.6458199893</ele>
        <time>2016-10-16T15:16:43Z</time>
      </trkpt>
      <trkpt lat="42.89241" lon="0.19867">
        <ele>2114.6458199893</ele>
        <time>2016-10-16T15:16:48Z</time>
      </trkpt>
      <trkpt lat="42.89237" lon="0.19859">
        <ele>2111.427714768</ele>
        <time>2016-10-16T15:16:53Z</time>
      </trkpt>
      <trkpt lat="42.89234" lon="0.19853">
        <ele>2111.427714768</ele>
        <time>2016-10-16T15:16:58Z</time>
      </trkpt>
      <trkpt lat="42.89232" lon="0.19851">
        <ele>2111.427714768</ele>
        <time>2016-10-16T15:17:03Z</time>
      </trkpt>
      <trkpt lat="42.89232" lon="0.19851">
        <ele>2111.427714768</ele>
        <time>2016-10-16T15:17:08Z</time>
      </trkpt>
      <trkpt lat="42.89231" lon="0.1985">
        <ele>2108.289121866</ele>
        <time>2016-10-16T15:17:13Z</time>
      </trkpt>
      <trkpt lat="42.89231" lon="0.1985">
        <ele>2108.289121866</ele>
        <time>2016-10-16T15:17:18Z</time>
      </trkpt>
      <trkpt lat="42.89229" lon="0.19849">
        <ele>2108.289121866</ele>
        <time>2016-10-16T15:17:23Z</time>
      </trkpt>
      <trkpt lat="42.89227" lon="0.19847">
        <ele>2108.289121866</ele>
        <time>2016-10-16T15:17:28Z</time>
      </trkpt>
      <trkpt lat="42.89225" lon="0.19845">
        <ele>2108.289121866</ele>
        <time>2016-10-16T15:17:33Z</time>
      </trkpt>
      <trkpt lat="42.89225" lon="0.19845">
        <ele>2108.289121866</ele>
        <time>2016-10-16T15:17:38Z</time>
      </trkpt>
      <trkpt lat="42.89225" lon="0.19836">
        <ele>2104.8139872061</ele>
        <time>2016-10-16T15:17:43Z</time>
      </trkpt>
      <trkpt lat="42.89228" lon="0.19828">
        <ele>2104.8139872061</ele>
        <time>2016-10-16T15:17:48Z</time>
      </trkpt>
      <trkpt lat="42.89232" lon="0.1982">
        <ele>2101.4678117413</ele>
        <time>2016-10-16T15:17:53Z</time>
      </trkpt>
      <trkpt lat="42.89234" lon="0.19811">
        <ele>2101.4678117413</ele>
        <time>2016-10-16T15:17:58Z</time>
      </trkpt>
      <trkpt lat="42.89238" lon="0.19802">
        <ele>2098.2634007774</ele>
        <time>2016-10-16T15:18:03Z</time>
      </trkpt>
      <trkpt lat="42.89242" lon="0.19795">
        <ele>2098.2634007774</ele>
        <time>2016-10-16T15:18:08Z</time>
      </trkpt>
      <trkpt lat="42.89246" lon="0.19789">
        <ele>2095.240820869</ele>
        <time>2016-10-16T15:18:13Z</time>
      </trkpt>
      <trkpt lat="42.8925" lon="0.19783">
        <ele>2095.240820869</ele>
        <time>2016-10-16T15:18:18Z</time>
      </trkpt>
      <trkpt lat="42.89255" lon="0.1978">
        <ele>2092.4076356419</ele>
        <time>2016-10-16T15:18:23Z</time>
      </trkpt>
      <trkpt lat="42.89257" lon="0.19781">
        <ele>2092.4076356419</ele>
        <time>2016-10-16T15:18:28Z</time>
      </trkpt>
      <trkpt lat="42.89262" lon="0.19778">
        <ele>2092.4076356419</ele>
        <time>2016-10-16T15:18:33Z</time>
      </trkpt>
      <trkpt lat="42.89266" lon="0.19777">
        <ele>2089.7268587871</ele>
        <time>2016-10-16T15:18:38Z</time>
      </trkpt>
      <trkpt lat="42.89269" lon="0.19775">
        <ele>2089.7268587871</ele>
        <time>2016-10-16T15:18:43Z</time>
      </trkpt>
      <trkpt lat="42.89272" lon="0.19775">
        <ele>2089.7268587871</ele>
        <time>2016-10-16T15:18:48Z</time>
      </trkpt>
      <trkpt lat="42.89271" lon="0.1977">
        <ele>2087.1923859709</ele>
        <time>2016-10-16T15:18:53Z</time>
      </trkpt>
      <trkpt lat="42.89271" lon="0.19769">
        <ele>2087.1923859709</ele>
        <time>2016-10-16T15:18:58Z</time>
      </trkpt>
      <trkpt lat="42.89271" lon="0.19768">
        <ele>2087.1923859709</ele>
        <time>2016-10-16T15:19:03Z</time>
      </trkpt>
      <trkpt lat="42.8927" lon="0.1977">
        <ele>2087.1923859709</ele>
        <time>2016-10-16T15:19:08Z</time>
      </trkpt>
      <trkpt lat="42.8927" lon="0.1977">
        <ele>2087.1923859709</ele>
        <time>2016-10-16T15:19:13Z</time>
      </trkpt>
      <trkpt lat="42.8927" lon="0.19771">
        <ele>2087.1923859709</ele>
        <time>2016-10-16T15:19:18Z</time>
      </trkpt>
      <trkpt lat="42.89271" lon="0.19772">
        <ele>2087.1923859709</ele>
        <time>2016-10-16T15:19:23Z</time>
      </trkpt>
      <trkpt lat="42.8927" lon="0.19769">
        <ele>2087.1923859709</ele>
        <time>2016-10-16T15:19:28Z</time>
      </trkpt>
      <trkpt lat="42.8927" lon="0.19768">
        <ele>2087.1923859709</ele>
        <time>2016-10-16T15:19:33Z</time>
      </trkpt>
      <trkpt lat="42.89276" lon="0.19764">
        <ele>2084.7114563377</ele>
        <time>2016-10-16T15:19:38Z</time>
      </trkpt>
      <trkpt lat="42.89277" lon="0.19763">
        <ele>2084.7114563377</ele>
        <time>2016-10-16T15:19:43Z</time>
      </trkpt>
      <trkpt lat="42.89276" lon="0.19763">
        <ele>2084.7114563377</ele>
        <time>2016-10-16T15:19:48Z</time>
      </trkpt>
      <trkpt lat="42.89278" lon="0.1976">
        <ele>2084.7114563377</ele>
        <time>2016-10-16T15:19:53Z</time>
      </trkpt>
      <trkpt lat="42.8928" lon="0.19757">
        <ele>2084.7114563377</ele>
        <time>2016-10-16T15:19:58Z</time>
      </trkpt>
      <trkpt lat="42.89279" lon="0.19753">
        <ele>2082.4139156005</ele>
        <time>2016-10-16T15:20:03Z</time>
      </trkpt>
      <trkpt lat="42.89282" lon="0.19748">
        <ele>2082.4139156005</ele>
        <time>2016-10-16T15:20:08Z</time>
      </trkpt>
      <trkpt lat="42.89283" lon="0.19748">
        <ele>2082.4139156005</ele>
        <time>2016-10-16T15:20:13Z</time>
      </trkpt>
      <trkpt lat="42.89285" lon="0.19746">
        <ele>2082.4139156005</ele>
        <time>2016-10-16T15:20:18Z</time>
      </trkpt>
      <trkpt lat="42.89287" lon="0.19743">
        <ele>2080.3184599566</ele>
        <time>2016-10-16T15:20:23Z</time>
      </trkpt>
      <trkpt lat="42.8929" lon="0.19739">
        <ele>2080.3184599566</ele>
        <time>2016-10-16T15:20:28Z</time>
      </trkpt>
      <trkpt lat="42.89291" lon="0.19738">
        <ele>2080.3184599566</ele>
        <time>2016-10-16T15:20:33Z</time>
      </trkpt>
      <trkpt lat="42.89294" lon="0.19737">
        <ele>2080.3184599566</ele>
        <time>2016-10-16T15:20:38Z</time>
      </trkpt>
      <trkpt lat="42.89296" lon="0.19734">
        <ele>2078.4560444548</ele>
        <time>2016-10-16T15:20:43Z</time>
      </trkpt>
      <trkpt lat="42.89297" lon="0.19732">
        <ele>2078.4560444548</ele>
        <time>2016-10-16T15:20:48Z</time>
      </trkpt>
      <trkpt lat="42.89299" lon="0.19727">
        <ele>2078.4560444548</ele>
        <time>2016-10-16T15:20:53Z</time>
      </trkpt>
      <trkpt lat="42.89301" lon="0.19723">
        <ele>2076.7968485846</ele>
        <time>2016-10-16T15:20:58Z</time>
      </trkpt>
      <trkpt lat="42.89302" lon="0.19723">
        <ele>2076.7968485846</ele>
        <time>2016-10-16T15:21:03Z</time>
      </trkpt>
      <trkpt lat="42.89303" lon="0.19724">
        <ele>2076.7968485846</ele>
        <time>2016-10-16T15:21:08Z</time>
      </trkpt>
      <trkpt lat="42.89305" lon="0.19724">
        <ele>2076.7968485846</ele>
        <time>2016-10-16T15:21:13Z</time>
      </trkpt>
      <trkpt lat="42.89306" lon="0.19725">
        <ele>2076.7968485846</ele>
        <time>2016-10-16T15:21:18Z</time>
      </trkpt>
      <trkpt lat="42.89308" lon="0.19725">
        <ele>2076.7968485846</ele>
        <time>2016-10-16T15:21:23Z</time>
      </trkpt>
      <trkpt lat="42.89309" lon="0.19724">
        <ele>2076.7968485846</ele>
        <time>2016-10-16T15:21:28Z</time>
      </trkpt>
      <trkpt lat="42.89311" lon="0.19722">
        <ele>2075.2548345797</ele>
        <time>2016-10-16T15:21:33Z</time>
      </trkpt>
      <trkpt lat="42.89312" lon="0.19722">
        <ele>2075.2548345797</ele>
        <time>2016-10-16T15:21:38Z</time>
      </trkpt>
      <trkpt lat="42.89312" lon="0.19722">
        <ele>2075.2548345797</ele>
        <time>2016-10-16T15:21:43Z</time>
      </trkpt>
      <trkpt lat="42.89312" lon="0.19722">
        <ele>2075.2548345797</ele>
        <time>2016-10-16T15:21:48Z</time>
      </trkpt>
      <trkpt lat="42.8931" lon="0.19723">
        <ele>2075.2548345797</ele>
        <time>2016-10-16T15:21:53Z</time>
      </trkpt>
      <trkpt lat="42.89311" lon="0.19723">
        <ele>2075.2548345797</ele>
        <time>2016-10-16T15:21:58Z</time>
      </trkpt>
      <trkpt lat="42.89311" lon="0.19723">
        <ele>2075.2548345797</ele>
        <time>2016-10-16T15:22:03Z</time>
      </trkpt>
      <trkpt lat="42.89313" lon="0.19723">
        <ele>2075.2548345797</ele>
        <time>2016-10-16T15:22:08Z</time>
      </trkpt>
      <trkpt lat="42.89315" lon="0.19723">
        <ele>2073.8218299446</ele>
        <time>2016-10-16T15:22:13Z</time>
      </trkpt>
      <trkpt lat="42.89317" lon="0.19726">
        <ele>2073.8218299446</ele>
        <time>2016-10-16T15:22:18Z</time>
      </trkpt>
      <trkpt lat="42.89321" lon="0.19732">
        <ele>2073.8218299446</ele>
        <time>2016-10-16T15:22:23Z</time>
      </trkpt>
      <trkpt lat="42.89323" lon="0.19733">
        <ele>2072.576254103</ele>
        <time>2016-10-16T15:22:28Z</time>
      </trkpt>
      <trkpt lat="42.89328" lon="0.19727">
        <ele>2072.576254103</ele>
        <time>2016-10-16T15:22:33Z</time>
      </trkpt>
      <trkpt lat="42.89332" lon="0.1972">
        <ele>2071.518028543</ele>
        <time>2016-10-16T15:22:38Z</time>
      </trkpt>
      <trkpt lat="42.89336" lon="0.19718">
        <ele>2071.518028543</ele>
        <time>2016-10-16T15:22:43Z</time>
      </trkpt>
      <trkpt lat="42.89339" lon="0.19719">
        <ele>2071.518028543</ele>
        <time>2016-10-16T15:22:48Z</time>
      </trkpt>
      <trkpt lat="42.89343" lon="0.19718">
        <ele>2070.5887686633</ele>
        <time>2016-10-16T15:22:53Z</time>
      </trkpt>
      <trkpt lat="42.89347" lon="0.19717">
        <ele>2070.5887686633</ele>
        <time>2016-10-16T15:22:58Z</time>
      </trkpt>
      <trkpt lat="42.8935" lon="0.19715">
        <ele>2070.5887686633</ele>
        <time>2016-10-16T15:23:03Z</time>
      </trkpt>
      <trkpt lat="42.89351" lon="0.19717">
        <ele>2070.5887686633</ele>
        <time>2016-10-16T15:23:08Z</time>
      </trkpt>
      <trkpt lat="42.89352" lon="0.19716">
        <ele>2069.719478675</ele>
        <time>2016-10-16T15:23:13Z</time>
      </trkpt>
      <trkpt lat="42.89353" lon="0.19718">
        <ele>2069.719478675</ele>
        <time>2016-10-16T15:23:18Z</time>
      </trkpt>
      <trkpt lat="42.89356" lon="0.19717">
        <ele>2069.719478675</ele>
        <time>2016-10-16T15:23:23Z</time>
      </trkpt>
      <trkpt lat="42.89362" lon="0.19716">
        <ele>2068.9468286265</ele>
        <time>2016-10-16T15:23:28Z</time>
      </trkpt>
      <trkpt lat="42.89366" lon="0.19717">
        <ele>2068.9468286265</ele>
        <time>2016-10-16T15:23:33Z</time>
      </trkpt>
      <trkpt lat="42.89372" lon="0.19715">
        <ele>2068.2756045113</ele>
        <time>2016-10-16T15:23:38Z</time>
      </trkpt>
      <trkpt lat="42.89374" lon="0.19715">
        <ele>2068.2756045113</ele>
        <time>2016-10-16T15:23:43Z</time>
      </trkpt>
      <trkpt lat="42.89375" lon="0.19714">
        <ele>2068.2756045113</ele>
        <time>2016-10-16T15:23:48Z</time>
      </trkpt>
      <trkpt lat="42.89375" lon="0.19714">
        <ele>2068.2756045113</ele>
        <time>2016-10-16T15:23:53Z</time>
      </trkpt>
      <trkpt lat="42.89375" lon="0.19714">
        <ele>2068.2756045113</ele>
        <time>2016-10-16T15:23:58Z</time>
      </trkpt>
      <trkpt lat="42.89375" lon="0.19714">
        <ele>2068.2756045113</ele>
        <time>2016-10-16T15:24:03Z</time>
      </trkpt>
      <trkpt lat="42.89376" lon="0.19711">
        <ele>2068.2756045113</ele>
        <time>2016-10-16T15:24:08Z</time>
      </trkpt>
      <trkpt lat="42.89378" lon="0.19711">
        <ele>2068.2756045113</ele>
        <time>2016-10-16T15:24:13Z</time>
      </trkpt>
      <trkpt lat="42.8938" lon="0.19711">
        <ele>2067.4504738374</ele>
        <time>2016-10-16T15:24:18Z</time>
      </trkpt>
      <trkpt lat="42.8938" lon="0.1971">
        <ele>2067.4504738374</ele>
        <time>2016-10-16T15:24:23Z</time>
      </trkpt>
      <trkpt lat="42.89383" lon="0.19709">
        <ele>2067.4504738374</ele>
        <time>2016-10-16T15:24:28Z</time>
      </trkpt>
      <trkpt lat="42.89384" lon="0.19708">
        <ele>2067.4504738374</ele>
        <time>2016-10-16T15:24:33Z</time>
      </trkpt>
      <trkpt lat="42.89388" lon="0.19705">
        <ele>2066.566679824</ele>
        <time>2016-10-16T15:24:38Z</time>
      </trkpt>
      <trkpt lat="42.89388" lon="0.19704">
        <ele>2066.566679824</ele>
        <time>2016-10-16T15:24:43Z</time>
      </trkpt>
      <trkpt lat="42.89392" lon="0.19703">
        <ele>2066.566679824</ele>
        <time>2016-10-16T15:24:48Z</time>
      </trkpt>
      <trkpt lat="42.89392" lon="0.19703">
        <ele>2066.566679824</ele>
        <time>2016-10-16T15:24:53Z</time>
      </trkpt>
      <trkpt lat="42.89393" lon="0.19703">
        <ele>2066.566679824</ele>
        <time>2016-10-16T15:24:58Z</time>
      </trkpt>
      <trkpt lat="42.89396" lon="0.19701">
        <ele>2066.566679824</ele>
        <time>2016-10-16T15:25:03Z</time>
      </trkpt>
      <trkpt lat="42.89398" lon="0.19702">
        <ele>2065.5252337176</ele>
        <time>2016-10-16T15:25:08Z</time>
      </trkpt>
      <trkpt lat="42.89399" lon="0.19706">
        <ele>2065.5252337176</ele>
        <time>2016-10-16T15:25:13Z</time>
      </trkpt>
      <trkpt lat="42.89399" lon="0.19706">
        <ele>2065.5252337176</ele>
        <time>2016-10-16T15:25:18Z</time>
      </trkpt>
      <trkpt lat="42.894" lon="0.19707">
        <ele>2065.5252337176</ele>
        <time>2016-10-16T15:25:23Z</time>
      </trkpt>
      <trkpt lat="42.89402" lon="0.1971">
        <ele>2065.5252337176</ele>
        <time>2016-10-16T15:25:28Z</time>
      </trkpt>
      <trkpt lat="42.89402" lon="0.19711">
        <ele>2065.5252337176</ele>
        <time>2016-10-16T15:25:33Z</time>
      </trkpt>
      <trkpt lat="42.89406" lon="0.1971">
        <ele>2064.5086279043</ele>
        <time>2016-10-16T15:25:38Z</time>
      </trkpt>
      <trkpt lat="42.89408" lon="0.1971">
        <ele>2064.5086279043</ele>
        <time>2016-10-16T15:25:43Z</time>
      </trkpt>
      <trkpt lat="42.89411" lon="0.19712">
        <ele>2064.5086279043</ele>
        <time>2016-10-16T15:25:48Z</time>
      </trkpt>
      <trkpt lat="42.89411" lon="0.19713">
        <ele>2064.5086279043</ele>
        <time>2016-10-16T15:25:53Z</time>
      </trkpt>
      <trkpt lat="42.8941" lon="0.19717">
        <ele>2064.5086279043</ele>
        <time>2016-10-16T15:25:58Z</time>
      </trkpt>
      <trkpt lat="42.89411" lon="0.19719">
        <ele>2063.5129121041</ele>
        <time>2016-10-16T15:26:03Z</time>
      </trkpt>
      <trkpt lat="42.89413" lon="0.19722">
        <ele>2063.5129121041</ele>
        <time>2016-10-16T15:26:08Z</time>
      </trkpt>
      <trkpt lat="42.89414" lon="0.19723">
        <ele>2063.5129121041</ele>
        <time>2016-10-16T15:26:13Z</time>
      </trkpt>
      <trkpt lat="42.89416" lon="0.19724">
        <ele>2063.5129121041</ele>
        <time>2016-10-16T15:26:18Z</time>
      </trkpt>
      <trkpt lat="42.89417" lon="0.19724">
        <ele>2063.5129121041</ele>
        <time>2016-10-16T15:26:23Z</time>
      </trkpt>
      <trkpt lat="42.89415" lon="0.19725">
        <ele>2063.5129121041</ele>
        <time>2016-10-16T15:26:28Z</time>
      </trkpt>
      <trkpt lat="42.89415" lon="0.19722">
        <ele>2062.5487541978</ele>
        <time>2016-10-16T15:26:33Z</time>
      </trkpt>
      <trkpt lat="42.89416" lon="0.19721">
        <ele>2062.5487541978</ele>
        <time>2016-10-16T15:26:38Z</time>
      </trkpt>
      <trkpt lat="42.89419" lon="0.19722">
        <ele>2062.5487541978</ele>
        <time>2016-10-16T15:26:43Z</time>
      </trkpt>
      <trkpt lat="42.89421" lon="0.19722">
        <ele>2062.5487541978</ele>
        <time>2016-10-16T15:26:48Z</time>
      </trkpt>
      <trkpt lat="42.89426" lon="0.19729">
        <ele>2061.6547562457</ele>
        <time>2016-10-16T15:26:53Z</time>
      </trkpt>
      <trkpt lat="42.89428" lon="0.19729">
        <ele>2061.6547562457</ele>
        <time>2016-10-16T15:26:58Z</time>
      </trkpt>
      <trkpt lat="42.89431" lon="0.19734">
        <ele>2061.6547562457</ele>
        <time>2016-10-16T15:27:03Z</time>
      </trkpt>
      <trkpt lat="42.89432" lon="0.19736">
        <ele>2061.6547562457</ele>
        <time>2016-10-16T15:27:08Z</time>
      </trkpt>
      <trkpt lat="42.89434" lon="0.19742">
        <ele>2060.8376581278</ele>
        <time>2016-10-16T15:27:13Z</time>
      </trkpt>
      <trkpt lat="42.89435" lon="0.19746">
        <ele>2060.8376581278</ele>
        <time>2016-10-16T15:27:18Z</time>
      </trkpt>
      <trkpt lat="42.89437" lon="0.19748">
        <ele>2060.8376581278</ele>
        <time>2016-10-16T15:27:23Z</time>
      </trkpt>
      <trkpt lat="42.89442" lon="0.1975">
        <ele>2060.1323120189</ele>
        <time>2016-10-16T15:27:28Z</time>
      </trkpt>
      <trkpt lat="42.89444" lon="0.19751">
        <ele>2060.1323120189</ele>
        <time>2016-10-16T15:27:33Z</time>
      </trkpt>
      <trkpt lat="42.89444" lon="0.19751">
        <ele>2060.1323120189</ele>
        <time>2016-10-16T15:27:38Z</time>
      </trkpt>
      <trkpt lat="42.89444" lon="0.19752">
        <ele>2060.1323120189</ele>
        <time>2016-10-16T15:27:43Z</time>
      </trkpt>
      <trkpt lat="42.89446" lon="0.19755">
        <ele>2060.1323120189</ele>
        <time>2016-10-16T15:27:48Z</time>
      </trkpt>
      <trkpt lat="42.89447" lon="0.19761">
        <ele>2059.5130611461</ele>
        <time>2016-10-16T15:27:53Z</time>
      </trkpt>
      <trkpt lat="42.89448" lon="0.19761">
        <ele>2059.5130611461</ele>
        <time>2016-10-16T15:27:58Z</time>
      </trkpt>
      <trkpt lat="42.89447" lon="0.19761">
        <ele>2059.5130611461</ele>
        <time>2016-10-16T15:28:03Z</time>
      </trkpt>
      <trkpt lat="42.89447" lon="0.19761">
        <ele>2059.5130611461</ele>
        <time>2016-10-16T15:28:08Z</time>
      </trkpt>
      <trkpt lat="42.89449" lon="0.19763">
        <ele>2059.5130611461</ele>
        <time>2016-10-16T15:28:13Z</time>
      </trkpt>
      <trkpt lat="42.8945" lon="0.19766">
        <ele>2059.5130611461</ele>
        <time>2016-10-16T15:28:18Z</time>
      </trkpt>
      <trkpt lat="42.89453" lon="0.19768">
        <ele>2058.8838538514</ele>
        <time>2016-10-16T15:28:23Z</time>
      </trkpt>
      <trkpt lat="42.89457" lon="0.19773">
        <ele>2058.8838538514</ele>
        <time>2016-10-16T15:28:28Z</time>
      </trkpt>
      <trkpt lat="42.89459" lon="0.19776">
        <ele>2058.8838538514</ele>
        <time>2016-10-16T15:28:33Z</time>
      </trkpt>
      <trkpt lat="42.89461" lon="0.1978">
        <ele>2058.3286813863</ele>
        <time>2016-10-16T15:28:38Z</time>
      </trkpt>
      <trkpt lat="42.89464" lon="0.19782">
        <ele>2058.3286813863</ele>
        <time>2016-10-16T15:28:43Z</time>
      </trkpt>
      <trkpt lat="42.89468" lon="0.19783">
        <ele>2058.3286813863</ele>
        <time>2016-10-16T15:28:48Z</time>
      </trkpt>
      <trkpt lat="42.89472" lon="0.1979">
        <ele>2057.8387243496</ele>
        <time>2016-10-16T15:28:53Z</time>
      </trkpt>
      <trkpt lat="42.89476" lon="0.19793">
        <ele>2057.8387243496</ele>
        <time>2016-10-16T15:28:58Z</time>
      </trkpt>
      <trkpt lat="42.89478" lon="0.19798">
        <ele>2057.8387243496</ele>
        <time>2016-10-16T15:29:03Z</time>
      </trkpt>
      <trkpt lat="42.89479" lon="0.19801">
        <ele>2057.3912585298</ele>
        <time>2016-10-16T15:29:08Z</time>
      </trkpt>
      <trkpt lat="42.89481" lon="0.19805">
        <ele>2057.3912585298</ele>
        <time>2016-10-16T15:29:13Z</time>
      </trkpt>
      <trkpt lat="42.89481" lon="0.19804">
        <ele>2057.3912585298</ele>
        <time>2016-10-16T15:29:18Z</time>
      </trkpt>
      <trkpt lat="42.89485" lon="0.19807">
        <ele>2057.3912585298</ele>
        <time>2016-10-16T15:29:23Z</time>
      </trkpt>
      <trkpt lat="42.89487" lon="0.19809">
        <ele>2056.9795697037</ele>
        <time>2016-10-16T15:29:28Z</time>
      </trkpt>
      <trkpt lat="42.89488" lon="0.19809">
        <ele>2056.9795697037</ele>
        <time>2016-10-16T15:29:33Z</time>
      </trkpt>
      <trkpt lat="42.89489" lon="0.19811">
        <ele>2056.9795697037</ele>
        <time>2016-10-16T15:29:38Z</time>
      </trkpt>
      <trkpt lat="42.8949" lon="0.19813">
        <ele>2056.9795697037</ele>
        <time>2016-10-16T15:29:43Z</time>
      </trkpt>
      <trkpt lat="42.89492" lon="0.19816">
        <ele>2056.9795697037</ele>
        <time>2016-10-16T15:29:48Z</time>
      </trkpt>
      <trkpt lat="42.89493" lon="0.19817">
        <ele>2056.9795697037</ele>
        <time>2016-10-16T15:29:53Z</time>
      </trkpt>
      <trkpt lat="42.89496" lon="0.19824">
        <ele>2056.5397477884</ele>
        <time>2016-10-16T15:29:58Z</time>
      </trkpt>
      <trkpt lat="42.895" lon="0.19823">
        <ele>2056.5397477884</ele>
        <time>2016-10-16T15:30:03Z</time>
      </trkpt>
      <trkpt lat="42.89504" lon="0.19826">
        <ele>2056.5397477884</ele>
        <time>2016-10-16T15:30:08Z</time>
      </trkpt>
      <trkpt lat="42.89508" lon="0.19827">
        <ele>2056.1568299264</ele>
        <time>2016-10-16T15:30:13Z</time>
      </trkpt>
      <trkpt lat="42.89512" lon="0.19829">
        <ele>2056.1568299264</ele>
        <time>2016-10-16T15:30:18Z</time>
      </trkpt>
      <trkpt lat="42.89514" lon="0.19829">
        <ele>2056.1568299264</ele>
        <time>2016-10-16T15:30:23Z</time>
      </trkpt>
      <trkpt lat="42.89516" lon="0.1983">
        <ele>2056.1568299264</ele>
        <time>2016-10-16T15:30:28Z</time>
      </trkpt>
      <trkpt lat="42.89515" lon="0.19833">
        <ele>2055.8086374807</ele>
        <time>2016-10-16T15:30:33Z</time>
      </trkpt>
      <trkpt lat="42.89519" lon="0.19839">
        <ele>2055.8086374807</ele>
        <time>2016-10-16T15:30:38Z</time>
      </trkpt>
      <trkpt lat="42.89519" lon="0.19835">
        <ele>2055.8086374807</ele>
        <time>2016-10-16T15:30:43Z</time>
      </trkpt>
      <trkpt lat="42.89519" lon="0.19833">
        <ele>2055.503419976</ele>
        <time>2016-10-16T15:30:48Z</time>
      </trkpt>
      <trkpt lat="42.89521" lon="0.19833">
        <ele>2055.503419976</ele>
        <time>2016-10-16T15:30:53Z</time>
      </trkpt>
      <trkpt lat="42.89523" lon="0.19833">
        <ele>2055.503419976</ele>
        <time>2016-10-16T15:30:58Z</time>
      </trkpt>
      <trkpt lat="42.89522" lon="0.19833">
        <ele>2055.503419976</ele>
        <time>2016-10-16T15:31:03Z</time>
      </trkpt>
      <trkpt lat="42.89523" lon="0.19836">
        <ele>2055.503419976</ele>
        <time>2016-10-16T15:31:08Z</time>
      </trkpt>
      <trkpt lat="42.89525" lon="0.1984">
        <ele>2055.1911352232</ele>
        <time>2016-10-16T15:31:13Z</time>
      </trkpt>
      <trkpt lat="42.89532" lon="0.19841">
        <ele>2055.1911352232</ele>
        <time>2016-10-16T15:31:18Z</time>
      </trkpt>
      <trkpt lat="42.89535" lon="0.19842">
        <ele>2054.9552212172</ele>
        <time>2016-10-16T15:31:23Z</time>
      </trkpt>
      <trkpt lat="42.89538" lon="0.19841">
        <ele>2054.9552212172</ele>
        <time>2016-10-16T15:31:28Z</time>
      </trkpt>
      <trkpt lat="42.8954" lon="0.19841">
        <ele>2054.9552212172</ele>
        <time>2016-10-16T15:31:33Z</time>
      </trkpt>
      <trkpt lat="42.89542" lon="0.1984">
        <ele>2054.9552212172</ele>
        <time>2016-10-16T15:31:38Z</time>
      </trkpt>
      <trkpt lat="42.89547" lon="0.19836">
        <ele>2054.7287500062</ele>
        <time>2016-10-16T15:31:43Z</time>
      </trkpt>
      <trkpt lat="42.89549" lon="0.19842">
        <ele>2054.7287500062</ele>
        <time>2016-10-16T15:31:48Z</time>
      </trkpt>
      <trkpt lat="42.8955" lon="0.19846">
        <ele>2054.7287500062</ele>
        <time>2016-10-16T15:31:53Z</time>
      </trkpt>
      <trkpt lat="42.89553" lon="0.19851">
        <ele>2054.5362432942</ele>
        <time>2016-10-16T15:31:58Z</time>
      </trkpt>
      <trkpt lat="42.89555" lon="0.19852">
        <ele>2054.5362432942</ele>
        <time>2016-10-16T15:32:03Z</time>
      </trkpt>
      <trkpt lat="42.89557" lon="0.19852">
        <ele>2054.5362432942</ele>
        <time>2016-10-16T15:32:08Z</time>
      </trkpt>
      <trkpt lat="42.8956" lon="0.19852">
        <ele>2054.5362432942</ele>
        <time>2016-10-16T15:32:13Z</time>
      </trkpt>
      <trkpt lat="42.89563" lon="0.19851">
        <ele>2054.3716007232</ele>
        <time>2016-10-16T15:32:18Z</time>
      </trkpt>
      <trkpt lat="42.89564" lon="0.1985">
        <ele>2054.3716007232</ele>
        <time>2016-10-16T15:32:23Z</time>
      </trkpt>
      <trkpt lat="42.89569" lon="0.19851">
        <ele>2054.3716007232</ele>
        <time>2016-10-16T15:32:28Z</time>
      </trkpt>
      <trkpt lat="42.89569" lon="0.19851">
        <ele>2054.3716007232</ele>
        <time>2016-10-16T15:32:33Z</time>
      </trkpt>
      <trkpt lat="42.89574" lon="0.19852">
        <ele>2054.2291922256</ele>
        <time>2016-10-16T15:32:38Z</time>
      </trkpt>
      <trkpt lat="42.89578" lon="0.19856">
        <ele>2054.2291922256</ele>
        <time>2016-10-16T15:32:43Z</time>
      </trkpt>
      <trkpt lat="42.8958" lon="0.19858">
        <ele>2054.2291922256</ele>
        <time>2016-10-16T15:32:48Z</time>
      </trkpt>
      <trkpt lat="42.89582" lon="0.19857">
        <ele>2054.1326647057</ele>
        <time>2016-10-16T15:32:53Z</time>
      </trkpt>
      <trkpt lat="42.89584" lon="0.19859">
        <ele>2054.1326647057</ele>
        <time>2016-10-16T15:32:58Z</time>
      </trkpt>
      <trkpt lat="42.89587" lon="0.19859">
        <ele>2054.1326647057</ele>
        <time>2016-10-16T15:33:03Z</time>
      </trkpt>
      <trkpt lat="42.89585" lon="0.19858">
        <ele>2054.1326647057</ele>
        <time>2016-10-16T15:33:08Z</time>
      </trkpt>
      <trkpt lat="42.89585" lon="0.19857">
        <ele>2054.1326647057</ele>
        <time>2016-10-16T15:33:13Z</time>
      </trkpt>
      <trkpt lat="42.89587" lon="0.19858">
        <ele>2054.0462612049</ele>
        <time>2016-10-16T15:33:18Z</time>
      </trkpt>
      <trkpt lat="42.89591" lon="0.19858">
        <ele>2054.0462612049</ele>
        <time>2016-10-16T15:33:23Z</time>
      </trkpt>
      <trkpt lat="42.89593" lon="0.19859">
        <ele>2054.0462612049</ele>
        <time>2016-10-16T15:33:28Z</time>
      </trkpt>
      <trkpt lat="42.89595" lon="0.19861">
        <ele>2054.0462612049</ele>
        <time>2016-10-16T15:33:33Z</time>
      </trkpt>
      <trkpt lat="42.89597" lon="0.19861">
        <ele>2053.9657542138</ele>
        <time>2016-10-16T15:33:38Z</time>
      </trkpt>
      <trkpt lat="42.89594" lon="0.19861">
        <ele>2053.9657542138</ele>
        <time>2016-10-16T15:33:43Z</time>
      </trkpt>
      <trkpt lat="42.89594" lon="0.19862">
        <ele>2053.9657542138</ele>
        <time>2016-10-16T15:33:48Z</time>
      </trkpt>
      <trkpt lat="42.89595" lon="0.19864">
        <ele>2053.9657542138</ele>
        <time>2016-10-16T15:33:53Z</time>
      </trkpt>
      <trkpt lat="42.89596" lon="0.19868">
        <ele>2053.9657542138</ele>
        <time>2016-10-16T15:33:58Z</time>
      </trkpt>
      <trkpt lat="42.89598" lon="0.19869">
        <ele>2053.8584990416</ele>
        <time>2016-10-16T15:34:03Z</time>
      </trkpt>
      <trkpt lat="42.89599" lon="0.19872">
        <ele>2053.8584990416</ele>
        <time>2016-10-16T15:34:08Z</time>
      </trkpt>
      <trkpt lat="42.89601" lon="0.19877">
        <ele>2053.8584990416</ele>
        <time>2016-10-16T15:34:13Z</time>
      </trkpt>
      <trkpt lat="42.89602" lon="0.1988">
        <ele>2053.8584990416</ele>
        <time>2016-10-16T15:34:18Z</time>
      </trkpt>
      <trkpt lat="42.89604" lon="0.19881">
        <ele>2053.7520812782</ele>
        <time>2016-10-16T15:34:23Z</time>
      </trkpt>
      <trkpt lat="42.89605" lon="0.19884">
        <ele>2053.7520812782</ele>
        <time>2016-10-16T15:34:28Z</time>
      </trkpt>
      <trkpt lat="42.89608" lon="0.19884">
        <ele>2053.7520812782</ele>
        <time>2016-10-16T15:34:33Z</time>
      </trkpt>
      <trkpt lat="42.8961" lon="0.19887">
        <ele>2053.7520812782</ele>
        <time>2016-10-16T15:34:38Z</time>
      </trkpt>
      <trkpt lat="42.89611" lon="0.19887">
        <ele>2053.7520812782</ele>
        <time>2016-10-16T15:34:43Z</time>
      </trkpt>
      <trkpt lat="42.89613" lon="0.19889">
        <ele>2053.6433494012</ele>
        <time>2016-10-16T15:34:48Z</time>
      </trkpt>
      <trkpt lat="42.89616" lon="0.19891">
        <ele>2053.6433494012</ele>
        <time>2016-10-16T15:34:53Z</time>
      </trkpt>
      <trkpt lat="42.89617" lon="0.19893">
        <ele>2053.6433494012</ele>
        <time>2016-10-16T15:34:58Z</time>
      </trkpt>
      <trkpt lat="42.89618" lon="0.19896">
        <ele>2053.6433494012</ele>
        <time>2016-10-16T15:35:03Z</time>
      </trkpt>
      <trkpt lat="42.89621" lon="0.19897">
        <ele>2053.543915606</ele>
        <time>2016-10-16T15:35:08Z</time>
      </trkpt>
      <trkpt lat="42.89626" lon="0.19897">
        <ele>2053.543915606</ele>
        <time>2016-10-16T15:35:13Z</time>
      </trkpt>
      <trkpt lat="42.89626" lon="0.19897">
        <ele>2053.543915606</ele>
        <time>2016-10-16T15:35:18Z</time>
      </trkpt>
      <trkpt lat="42.89627" lon="0.19902">
        <ele>2053.543915606</ele>
        <time>2016-10-16T15:35:23Z</time>
      </trkpt>
      <trkpt lat="42.89627" lon="0.19906">
        <ele>2053.4502167535</ele>
        <time>2016-10-16T15:35:28Z</time>
      </trkpt>
      <trkpt lat="42.89628" lon="0.19911">
        <ele>2053.4502167535</ele>
        <time>2016-10-16T15:35:33Z</time>
      </trkpt>
      <trkpt lat="42.89628" lon="0.19913">
        <ele>2053.4502167535</ele>
        <time>2016-10-16T15:35:38Z</time>
      </trkpt>
      <trkpt lat="42.89629" lon="0.19916">
        <ele>2053.4502167535</ele>
        <time>2016-10-16T15:35:43Z</time>
      </trkpt>
      <trkpt lat="42.8963" lon="0.19922">
        <ele>2053.344639061</ele>
        <time>2016-10-16T15:35:48Z</time>
      </trkpt>
      <trkpt lat="42.89632" lon="0.19928">
        <ele>2053.344639061</ele>
        <time>2016-10-16T15:35:53Z</time>
      </trkpt>
      <trkpt lat="42.89634" lon="0.1993">
        <ele>2053.344639061</ele>
        <time>2016-10-16T15:35:58Z</time>
      </trkpt>
      <trkpt lat="42.89635" lon="0.19933">
        <ele>2053.2398326106</ele>
        <time>2016-10-16T15:36:03Z</time>
      </trkpt>
      <trkpt lat="42.89638" lon="0.19936">
        <ele>2053.2398326106</ele>
        <time>2016-10-16T15:36:08Z</time>
      </trkpt>
      <trkpt lat="42.8964" lon="0.19937">
        <ele>2053.2398326106</ele>
        <time>2016-10-16T15:36:13Z</time>
      </trkpt>
      <trkpt lat="42.89642" lon="0.1994">
        <ele>2053.1332186238</ele>
        <time>2016-10-16T15:36:18Z</time>
      </trkpt>
      <trkpt lat="42.89645" lon="0.19943">
        <ele>2053.1332186238</ele>
        <time>2016-10-16T15:36:23Z</time>
      </trkpt>
      <trkpt lat="42.89646" lon="0.19944">
        <ele>2053.1332186238</ele>
        <time>2016-10-16T15:36:28Z</time>
      </trkpt>
      <trkpt lat="42.89645" lon="0.19946">
        <ele>2053.1332186238</ele>
        <time>2016-10-16T15:36:33Z</time>
      </trkpt>
      <trkpt lat="42.89643" lon="0.1995">
        <ele>2053.0225254793</ele>
        <time>2016-10-16T15:36:38Z</time>
      </trkpt>
      <trkpt lat="42.89642" lon="0.19959">
        <ele>2053.0225254793</ele>
        <time>2016-10-16T15:36:43Z</time>
      </trkpt>
      <trkpt lat="42.89642" lon="0.19964">
        <ele>2052.9201823316</ele>
        <time>2016-10-16T15:36:48Z</time>
      </trkpt>
      <trkpt lat="42.89647" lon="0.1997">
        <ele>2052.9201823316</ele>
        <time>2016-10-16T15:36:53Z</time>
      </trkpt>
      <trkpt lat="42.89649" lon="0.19976">
        <ele>2052.837791708</ele>
        <time>2016-10-16T15:36:58Z</time>
      </trkpt>
      <trkpt lat="42.8965" lon="0.19982">
        <ele>2052.837791708</ele>
        <time>2016-10-16T15:37:03Z</time>
      </trkpt>
      <trkpt lat="42.89653" lon="0.19988">
        <ele>2052.7717449014</ele>
        <time>2016-10-16T15:37:08Z</time>
      </trkpt>
      <trkpt lat="42.89656" lon="0.19993">
        <ele>2052.7717449014</ele>
        <time>2016-10-16T15:37:13Z</time>
      </trkpt>
      <trkpt lat="42.89655" lon="0.19994">
        <ele>2052.7717449014</ele>
        <time>2016-10-16T15:37:18Z</time>
      </trkpt>
      <trkpt lat="42.89657" lon="0.1999">
        <ele>2052.7043477091</ele>
        <time>2016-10-16T15:37:23Z</time>
      </trkpt>
      <trkpt lat="42.8966" lon="0.19989">
        <ele>2052.7043477091</ele>
        <time>2016-10-16T15:37:28Z</time>
      </trkpt>
      <trkpt lat="42.89662" lon="0.19993">
        <ele>2052.7043477091</ele>
        <time>2016-10-16T15:37:33Z</time>
      </trkpt>
      <trkpt lat="42.89664" lon="0.19996">
        <ele>2052.6337251143</ele>
        <time>2016-10-16T15:37:38Z</time>
      </trkpt>
      <trkpt lat="42.89664" lon="0.19996">
        <ele>2052.6337251143</ele>
        <time>2016-10-16T15:37:43Z</time>
      </trkpt>
      <trkpt lat="42.89664" lon="0.19995">
        <ele>2052.6337251143</ele>
        <time>2016-10-16T15:37:48Z</time>
      </trkpt>
      <trkpt lat="42.89664" lon="0.19995">
        <ele>2052.6337251143</ele>
        <time>2016-10-16T15:37:53Z</time>
      </trkpt>
      <trkpt lat="42.89664" lon="0.19995">
        <ele>2052.6337251143</ele>
        <time>2016-10-16T15:37:58Z</time>
      </trkpt>
      <trkpt lat="42.89664" lon="0.19995">
        <ele>2052.6337251143</ele>
        <time>2016-10-16T15:38:03Z</time>
      </trkpt>
      <trkpt lat="42.89664" lon="0.19996">
        <ele>2052.6337251143</ele>
        <time>2016-10-16T15:38:08Z</time>
      </trkpt>
      <trkpt lat="42.89665" lon="0.19997">
        <ele>2052.6337251143</ele>
        <time>2016-10-16T15:38:13Z</time>
      </trkpt>
      <trkpt lat="42.89665" lon="0.19997">
        <ele>2052.6337251143</ele>
        <time>2016-10-16T15:38:18Z</time>
      </trkpt>
      <trkpt lat="42.89665" lon="0.19998">
        <ele>2052.6337251143</ele>
        <time>2016-10-16T15:38:23Z</time>
      </trkpt>
      <trkpt lat="42.89663" lon="0.19998">
        <ele>2052.6337251143</ele>
        <time>2016-10-16T15:38:28Z</time>
      </trkpt>
      <trkpt lat="42.89662" lon="0.20001">
        <ele>2052.6337251143</ele>
        <time>2016-10-16T15:38:33Z</time>
      </trkpt>
      <trkpt lat="42.89663" lon="0.20002">
        <ele>2052.6337251143</ele>
        <time>2016-10-16T15:38:38Z</time>
      </trkpt>
      <trkpt lat="42.89663" lon="0.20001">
        <ele>2052.4861956246</ele>
        <time>2016-10-16T15:38:43Z</time>
      </trkpt>
      <trkpt lat="42.89663" lon="0.2">
        <ele>2052.4861956246</ele>
        <time>2016-10-16T15:38:48Z</time>
      </trkpt>
      <trkpt lat="42.89663" lon="0.2">
        <ele>2052.4861956246</ele>
        <time>2016-10-16T15:38:53Z</time>
      </trkpt>
      <trkpt lat="42.89663" lon="0.2">
        <ele>2052.4861956246</ele>
        <time>2016-10-16T15:38:58Z</time>
      </trkpt>
      <trkpt lat="42.89663" lon="0.2">
        <ele>2052.4861956246</ele>
        <time>2016-10-16T15:39:03Z</time>
      </trkpt>
      <trkpt lat="42.89663" lon="0.2">
        <ele>2052.4861956246</ele>
        <time>2016-10-16T15:39:08Z</time>
      </trkpt>
      <trkpt lat="42.89663" lon="0.2">
        <ele>2052.4861956246</ele>
        <time>2016-10-16T15:39:13Z</time>
      </trkpt>
      <trkpt lat="42.89663" lon="0.2">
        <ele>2052.4861956246</ele>
        <time>2016-10-16T15:39:18Z</time>
      </trkpt>
      <trkpt lat="42.89663" lon="0.2">
        <ele>2052.4861956246</ele>
        <time>2016-10-16T15:39:23Z</time>
      </trkpt>
      <trkpt lat="42.89663" lon="0.19999">
        <ele>2052.4861956246</ele>
        <time>2016-10-16T15:39:28Z</time>
      </trkpt>
      <trkpt lat="42.89661" lon="0.2">
        <ele>2052.4861956246</ele>
        <time>2016-10-16T15:39:33Z</time>
      </trkpt>
      <trkpt lat="42.89661" lon="0.19999">
        <ele>2052.4861956246</ele>
        <time>2016-10-16T15:39:38Z</time>
      </trkpt>
      <trkpt lat="42.89661" lon="0.19999">
        <ele>2052.4861956246</ele>
        <time>2016-10-16T15:39:43Z</time>
      </trkpt>
      <trkpt lat="42.8966" lon="0.19999">
        <ele>2052.4861956246</ele>
        <time>2016-10-16T15:39:48Z</time>
      </trkpt>
      <trkpt lat="42.89658" lon="0.2">
        <ele>2052.4861956246</ele>
        <time>2016-10-16T15:39:53Z</time>
      </trkpt>
      <trkpt lat="42.89658" lon="0.2">
        <ele>2052.4861956246</ele>
        <time>2016-10-16T15:39:58Z</time>
      </trkpt>
      <trkpt lat="42.89659" lon="0.20001">
        <ele>2052.2802726241</ele>
        <time>2016-10-16T15:40:03Z</time>
      </trkpt>
      <trkpt lat="42.8966" lon="0.20001">
        <ele>2052.2802726241</ele>
        <time>2016-10-16T15:40:08Z</time>
      </trkpt>
      <trkpt lat="42.89659" lon="0.19999">
        <ele>2052.2802726241</ele>
        <time>2016-10-16T15:40:13Z</time>
      </trkpt>
      <trkpt lat="42.89659" lon="0.19998">
        <ele>2052.2802726241</ele>
        <time>2016-10-16T15:40:18Z</time>
      </trkpt>
      <trkpt lat="42.89658" lon="0.19998">
        <ele>2052.2802726241</ele>
        <time>2016-10-16T15:40:23Z</time>
      </trkpt>
      <trkpt lat="42.89655" lon="0.19999">
        <ele>2052.2802726241</ele>
        <time>2016-10-16T15:40:28Z</time>
      </trkpt>
      <trkpt lat="42.89654" lon="0.2">
        <ele>2052.2802726241</ele>
        <time>2016-10-16T15:40:33Z</time>
      </trkpt>
      <trkpt lat="42.89653" lon="0.20002">
        <ele>2052.0477813788</ele>
        <time>2016-10-16T15:40:38Z</time>
      </trkpt>
      <trkpt lat="42.89651" lon="0.20002">
        <ele>2052.0477813788</ele>
        <time>2016-10-16T15:40:43Z</time>
      </trkpt>
      <trkpt lat="42.89651" lon="0.20002">
        <ele>2052.0477813788</ele>
        <time>2016-10-16T15:40:48Z</time>
      </trkpt>
      <trkpt lat="42.8965" lon="0.20002">
        <ele>2052.0477813788</ele>
        <time>2016-10-16T15:40:53Z</time>
      </trkpt>
      <trkpt lat="42.89649" lon="0.20001">
        <ele>2052.0477813788</ele>
        <time>2016-10-16T15:40:58Z</time>
      </trkpt>
      <trkpt lat="42.89649" lon="0.2">
        <ele>2052.0477813788</ele>
        <time>2016-10-16T15:41:03Z</time>
      </trkpt>
      <trkpt lat="42.8965" lon="0.20001">
        <ele>2052.0477813788</ele>
        <time>2016-10-16T15:41:08Z</time>
      </trkpt>
      <trkpt lat="42.89651" lon="0.20002">
        <ele>2052.0477813788</ele>
        <time>2016-10-16T15:41:13Z</time>
      </trkpt>
      <trkpt lat="42.89652" lon="0.20002">
        <ele>2052.0477813788</ele>
        <time>2016-10-16T15:41:18Z</time>
      </trkpt>
      <trkpt lat="42.89653" lon="0.20003">
        <ele>2052.0477813788</ele>
        <time>2016-10-16T15:41:23Z</time>
      </trkpt>
      <trkpt lat="42.89654" lon="0.20003">
        <ele>2051.7751440583</ele>
        <time>2016-10-16T15:41:28Z</time>
      </trkpt>
      <trkpt lat="42.89654" lon="0.20002">
        <ele>2051.7751440583</ele>
        <time>2016-10-16T15:41:33Z</time>
      </trkpt>
      <trkpt lat="42.89655" lon="0.20002">
        <ele>2051.7751440583</ele>
        <time>2016-10-16T15:41:38Z</time>
      </trkpt>
      <trkpt lat="42.89653" lon="0.2">
        <ele>2051.7751440583</ele>
        <time>2016-10-16T15:41:43Z</time>
      </trkpt>
      <trkpt lat="42.89652" lon="0.19997">
        <ele>2051.7751440583</ele>
        <time>2016-10-16T15:41:48Z</time>
      </trkpt>
      <trkpt lat="42.89651" lon="0.19995">
        <ele>2051.7751440583</ele>
        <time>2016-10-16T15:41:53Z</time>
      </trkpt>
      <trkpt lat="42.89651" lon="0.19995">
        <ele>2051.7751440583</ele>
        <time>2016-10-16T15:41:58Z</time>
      </trkpt>
      <trkpt lat="42.89651" lon="0.19995">
        <ele>2051.7751440583</ele>
        <time>2016-10-16T15:42:03Z</time>
      </trkpt>
      <trkpt lat="42.89653" lon="0.19998">
        <ele>2051.4932160865</ele>
        <time>2016-10-16T15:42:08Z</time>
      </trkpt>
      <trkpt lat="42.89653" lon="0.19999">
        <ele>2051.4932160865</ele>
        <time>2016-10-16T15:42:13Z</time>
      </trkpt>
      <trkpt lat="42.89653" lon="0.19999">
        <ele>2051.4932160865</ele>
        <time>2016-10-16T15:42:18Z</time>
      </trkpt>
      <trkpt lat="42.89653" lon="0.19999">
        <ele>2051.4932160865</ele>
        <time>2016-10-16T15:42:23Z</time>
      </trkpt>
      <trkpt lat="42.89654" lon="0.2">
        <ele>2051.4932160865</ele>
        <time>2016-10-16T15:42:28Z</time>
      </trkpt>
      <trkpt lat="42.89653" lon="0.19997">
        <ele>2051.4932160865</ele>
        <time>2016-10-16T15:42:33Z</time>
      </trkpt>
      <trkpt lat="42.89651" lon="0.19995">
        <ele>2051.4932160865</ele>
        <time>2016-10-16T15:42:38Z</time>
      </trkpt>
      <trkpt lat="42.89649" lon="0.19994">
        <ele>2051.2306982877</ele>
        <time>2016-10-16T15:42:43Z</time>
      </trkpt>
      <trkpt lat="42.89651" lon="0.19994">
        <ele>2051.2306982877</ele>
        <time>2016-10-16T15:42:48Z</time>
      </trkpt>
      <trkpt lat="42.8965" lon="0.19993">
        <ele>2051.2306982877</ele>
        <time>2016-10-16T15:42:53Z</time>
      </trkpt>
      <trkpt lat="42.89649" lon="0.19994">
        <ele>2051.2306982877</ele>
        <time>2016-10-16T15:42:58Z</time>
      </trkpt>
      <trkpt lat="42.89648" lon="0.19996">
        <ele>2051.2306982877</ele>
        <time>2016-10-16T15:43:03Z</time>
      </trkpt>
      <trkpt lat="42.89649" lon="0.19997">
        <ele>2051.2306982877</ele>
        <time>2016-10-16T15:43:08Z</time>
      </trkpt>
      <trkpt lat="42.89649" lon="0.19998">
        <ele>2050.9709773264</ele>
        <time>2016-10-16T15:43:13Z</time>
      </trkpt>
      <trkpt lat="42.89647" lon="0.19999">
        <ele>2050.9709773264</ele>
        <time>2016-10-16T15:43:18Z</time>
      </trkpt>
      <trkpt lat="42.89647" lon="0.20003">
        <ele>2050.9709773264</ele>
        <time>2016-10-16T15:43:23Z</time>
      </trkpt>
      <trkpt lat="42.89647" lon="0.20001">
        <ele>2050.9709773264</ele>
        <time>2016-10-16T15:43:28Z</time>
      </trkpt>
      <trkpt lat="42.89647" lon="0.19999">
        <ele>2050.9709773264</ele>
        <time>2016-10-16T15:43:33Z</time>
      </trkpt>
      <trkpt lat="42.89647" lon="0.2">
        <ele>2050.9709773264</ele>
        <time>2016-10-16T15:43:38Z</time>
      </trkpt>
      <trkpt lat="42.89648" lon="0.20003">
        <ele>2050.7275527293</ele>
        <time>2016-10-16T15:43:43Z</time>
      </trkpt>
      <trkpt lat="42.89649" lon="0.20003">
        <ele>2050.7275527293</ele>
        <time>2016-10-16T15:43:48Z</time>
      </trkpt>
      <trkpt lat="42.89649" lon="0.20004">
        <ele>2050.7275527293</ele>
        <time>2016-10-16T15:43:53Z</time>
      </trkpt>
      <trkpt lat="42.89651" lon="0.20004">
        <ele>2050.7275527293</ele>
        <time>2016-10-16T15:43:58Z</time>
      </trkpt>
      <trkpt lat="42.89653" lon="0.20007">
        <ele>2050.7275527293</ele>
        <time>2016-10-16T15:44:03Z</time>
      </trkpt>
      <trkpt lat="42.89652" lon="0.2001">
        <ele>2050.7275527293</ele>
        <time>2016-10-16T15:44:08Z</time>
      </trkpt>
      <trkpt lat="42.89653" lon="0.20008">
        <ele>2050.4697275322</ele>
        <time>2016-10-16T15:44:13Z</time>
      </trkpt>
      <trkpt lat="42.89654" lon="0.20007">
        <ele>2050.4697275322</ele>
        <time>2016-10-16T15:44:18Z</time>
      </trkpt>
      <trkpt lat="42.89653" lon="0.20007">
        <ele>2050.4697275322</ele>
        <time>2016-10-16T15:44:23Z</time>
      </trkpt>
      <trkpt lat="42.89653" lon="0.20006">
        <ele>2050.4697275322</ele>
        <time>2016-10-16T15:44:28Z</time>
      </trkpt>
      <trkpt lat="42.89653" lon="0.20007">
        <ele>2050.4697275322</ele>
        <time>2016-10-16T15:44:33Z</time>
      </trkpt>
      <trkpt lat="42.89653" lon="0.20008">
        <ele>2050.4697275322</ele>
        <time>2016-10-16T15:44:38Z</time>
      </trkpt>
      <trkpt lat="42.89653" lon="0.20007">
        <ele>2050.4697275322</ele>
        <time>2016-10-16T15:44:43Z</time>
      </trkpt>
      <trkpt lat="42.89654" lon="0.20006">
        <ele>2050.4697275322</ele>
        <time>2016-10-16T15:44:48Z</time>
      </trkpt>
      <trkpt lat="42.89651" lon="0.20006">
        <ele>2050.4697275322</ele>
        <time>2016-10-16T15:44:53Z</time>
      </trkpt>
      <trkpt lat="42.89651" lon="0.20006">
        <ele>2050.4697275322</ele>
        <time>2016-10-16T15:44:58Z</time>
      </trkpt>
      <trkpt lat="42.89652" lon="0.20004">
        <ele>2050.1979928878</ele>
        <time>2016-10-16T15:45:03Z</time>
      </trkpt>
      <trkpt lat="42.89652" lon="0.20003">
        <ele>2050.1979928878</ele>
        <time>2016-10-16T15:45:08Z</time>
      </trkpt>
      <trkpt lat="42.89652" lon="0.20003">
        <ele>2050.1979928878</ele>
        <time>2016-10-16T15:45:13Z</time>
      </trkpt>
      <trkpt lat="42.89652" lon="0.20003">
        <ele>2050.1979928878</ele>
        <time>2016-10-16T15:45:18Z</time>
      </trkpt>
      <trkpt lat="42.89652" lon="0.20003">
        <ele>2050.1979928878</ele>
        <time>2016-10-16T15:45:23Z</time>
      </trkpt>
      <trkpt lat="42.89653" lon="0.20003">
        <ele>2050.1979928878</ele>
        <time>2016-10-16T15:45:28Z</time>
      </trkpt>
      <trkpt lat="42.89653" lon="0.20002">
        <ele>2050.1979928878</ele>
        <time>2016-10-16T15:45:33Z</time>
      </trkpt>
      <trkpt lat="42.89653" lon="0.20003">
        <ele>2050.1979928878</ele>
        <time>2016-10-16T15:45:38Z</time>
      </trkpt>
      <trkpt lat="42.89653" lon="0.20002">
        <ele>2050.1979928878</ele>
        <time>2016-10-16T15:45:43Z</time>
      </trkpt>
      <trkpt lat="42.89652" lon="0.20002">
        <ele>2050.1979928878</ele>
        <time>2016-10-16T15:45:48Z</time>
      </trkpt>
      <trkpt lat="42.89648" lon="0.20001">
        <ele>2049.9129096926</ele>
        <time>2016-10-16T15:45:53Z</time>
      </trkpt>
      <trkpt lat="42.89647" lon="0.19999">
        <ele>2049.9129096926</ele>
        <time>2016-10-16T15:45:58Z</time>
      </trkpt>
      <trkpt lat="42.89647" lon="0.19998">
        <ele>2049.9129096926</ele>
        <time>2016-10-16T15:46:03Z</time>
      </trkpt>
      <trkpt lat="42.89648" lon="0.19998">
        <ele>2049.9129096926</ele>
        <time>2016-10-16T15:46:08Z</time>
      </trkpt>
      <trkpt lat="42.89648" lon="0.19998">
        <ele>2049.9129096926</ele>
        <time>2016-10-16T15:46:13Z</time>
      </trkpt>
      <trkpt lat="42.89649" lon="0.19999">
        <ele>2049.9129096926</ele>
        <time>2016-10-16T15:46:18Z</time>
      </trkpt>
      <trkpt lat="42.89651" lon="0.19998">
        <ele>2049.9129096926</ele>
        <time>2016-10-16T15:46:23Z</time>
      </trkpt>
      <trkpt lat="42.89653" lon="0.19998">
        <ele>2049.6295093355</ele>
        <time>2016-10-16T15:46:28Z</time>
      </trkpt>
      <trkpt lat="42.89654" lon="0.2">
        <ele>2049.6295093355</ele>
        <time>2016-10-16T15:46:33Z</time>
      </trkpt>
      <trkpt lat="42.89654" lon="0.20002">
        <ele>2049.6295093355</ele>
        <time>2016-10-16T15:46:38Z</time>
      </trkpt>
      <trkpt lat="42.89655" lon="0.20001">
        <ele>2049.6295093355</ele>
        <time>2016-10-16T15:46:43Z</time>
      </trkpt>
      <trkpt lat="42.89656" lon="0.19999">
        <ele>2049.6295093355</ele>
        <time>2016-10-16T15:46:48Z</time>
      </trkpt>
      <trkpt lat="42.89658" lon="0.19999">
        <ele>2049.6295093355</ele>
        <time>2016-10-16T15:46:53Z</time>
      </trkpt>
      <trkpt lat="42.8966" lon="0.19999">
        <ele>2049.3329515086</ele>
        <time>2016-10-16T15:46:58Z</time>
      </trkpt>
      <trkpt lat="42.89662" lon="0.2">
        <ele>2049.3329515086</ele>
        <time>2016-10-16T15:47:03Z</time>
      </trkpt>
      <trkpt lat="42.89664" lon="0.2">
        <ele>2049.3329515086</ele>
        <time>2016-10-16T15:47:08Z</time>
      </trkpt>
      <trkpt lat="42.89666" lon="0.2">
        <ele>2049.3329515086</ele>
        <time>2016-10-16T15:47:13Z</time>
      </trkpt>
      <trkpt lat="42.89667" lon="0.2">
        <ele>2049.3329515086</ele>
        <time>2016-10-16T15:47:18Z</time>
      </trkpt>
      <trkpt lat="42.89667" lon="0.2">
        <ele>2049.3329515086</ele>
        <time>2016-10-16T15:47:23Z</time>
      </trkpt>
      <trkpt lat="42.89667" lon="0.19998">
        <ele>2049.0239898876</ele>
        <time>2016-10-16T15:47:28Z</time>
      </trkpt>
      <trkpt lat="42.89666" lon="0.19997">
        <ele>2049.0239898876</ele>
        <time>2016-10-16T15:47:33Z</time>
      </trkpt>
      <trkpt lat="42.89666" lon="0.19996">
        <ele>2049.0239898876</ele>
        <time>2016-10-16T15:47:38Z</time>
      </trkpt>
      <trkpt lat="42.89666" lon="0.19996">
        <ele>2049.0239898876</ele>
        <time>2016-10-16T15:47:43Z</time>
      </trkpt>
      <trkpt lat="42.89666" lon="0.19993">
        <ele>2049.0239898876</ele>
        <time>2016-10-16T15:47:48Z</time>
      </trkpt>
      <trkpt lat="42.89666" lon="0.19994">
        <ele>2049.0239898876</ele>
        <time>2016-10-16T15:47:53Z</time>
      </trkpt>
      <trkpt lat="42.89666" lon="0.19994">
        <ele>2049.0239898876</ele>
        <time>2016-10-16T15:47:58Z</time>
      </trkpt>
      <trkpt lat="42.89665" lon="0.19992">
        <ele>2049.0239898876</ele>
        <time>2016-10-16T15:48:03Z</time>
      </trkpt>
      <trkpt lat="42.89665" lon="0.19994">
        <ele>2049.0239898876</ele>
        <time>2016-10-16T15:48:08Z</time>
      </trkpt>
      <trkpt lat="42.89667" lon="0.19996">
        <ele>2048.7034097487</ele>
        <time>2016-10-16T15:48:13Z</time>
      </trkpt>
      <trkpt lat="42.89665" lon="0.19997">
        <ele>2048.7034097487</ele>
        <time>2016-10-16T15:48:18Z</time>
      </trkpt>
      <trkpt lat="42.89661" lon="0.19994">
        <ele>2048.7034097487</ele>
        <time>2016-10-16T15:48:23Z</time>
      </trkpt>
      <trkpt lat="42.89661" lon="0.19994">
        <ele>2048.7034097487</ele>
        <time>2016-10-16T15:48:28Z</time>
      </trkpt>
      <trkpt lat="42.89661" lon="0.19994">
        <ele>2048.7034097487</ele>
        <time>2016-10-16T15:48:33Z</time>
      </trkpt>
      <trkpt lat="42.89659" lon="0.19993">
        <ele>2048.3576087105</ele>
        <time>2016-10-16T15:48:38Z</time>
      </trkpt>
      <trkpt lat="42.8966" lon="0.19994">
        <ele>2048.3576087105</ele>
        <time>2016-10-16T15:48:43Z</time>
      </trkpt>
      <trkpt lat="42.8966" lon="0.19994">
        <ele>2048.3576087105</ele>
        <time>2016-10-16T15:48:48Z</time>
      </trkpt>
      <trkpt lat="42.8966" lon="0.19994">
        <ele>2048.3576087105</ele>
        <time>2016-10-16T15:48:53Z</time>
      </trkpt>
      <trkpt lat="42.89662" lon="0.19995">
        <ele>2048.3576087105</ele>
        <time>2016-10-16T15:48:58Z</time>
      </trkpt>
      <trkpt lat="42.8966" lon="0.19995">
        <ele>2048.3576087105</ele>
        <time>2016-10-16T15:49:03Z</time>
      </trkpt>
      <trkpt lat="42.89658" lon="0.19996">
        <ele>2048.3576087105</ele>
        <time>2016-10-16T15:49:08Z</time>
      </trkpt>
      <trkpt lat="42.89658" lon="0.19997">
        <ele>2048.3576087105</ele>
        <time>2016-10-16T15:49:13Z</time>
      </trkpt>
      <trkpt lat="42.89661" lon="0.19998">
        <ele>2048.0029215474</ele>
        <time>2016-10-16T15:49:18Z</time>
      </trkpt>
      <trkpt lat="42.89658" lon="0.19998">
        <ele>2048.0029215474</ele>
        <time>2016-10-16T15:49:23Z</time>
      </trkpt>
      <trkpt lat="42.89659" lon="0.19997">
        <ele>2048.0029215474</ele>
        <time>2016-10-16T15:49:28Z</time>
      </trkpt>
      <trkpt lat="42.89659" lon="0.19998">
        <ele>2048.0029215474</ele>
        <time>2016-10-16T15:49:33Z</time>
      </trkpt>
      <trkpt lat="42.89659" lon="0.2">
        <ele>2048.0029215474</ele>
        <time>2016-10-16T15:49:38Z</time>
      </trkpt>
      <trkpt lat="42.89659" lon="0.19997">
        <ele>2048.0029215474</ele>
        <time>2016-10-16T15:49:43Z</time>
      </trkpt>
      <trkpt lat="42.89659" lon="0.19999">
        <ele>2048.0029215474</ele>
        <time>2016-10-16T15:49:48Z</time>
      </trkpt>
      <trkpt lat="42.89661" lon="0.2">
        <ele>2047.6545494083</ele>
        <time>2016-10-16T15:49:53Z</time>
      </trkpt>
      <trkpt lat="42.89661" lon="0.2">
        <ele>2047.6545494083</ele>
        <time>2016-10-16T15:49:58Z</time>
      </trkpt>
      <trkpt lat="42.89663" lon="0.19996">
        <ele>2047.6545494083</ele>
        <time>2016-10-16T15:50:03Z</time>
      </trkpt>
      <trkpt lat="42.89663" lon="0.19996">
        <ele>2047.6545494083</ele>
        <time>2016-10-16T15:50:08Z</time>
      </trkpt>
      <trkpt lat="42.89663" lon="0.19996">
        <ele>2047.6545494083</ele>
        <time>2016-10-16T15:50:13Z</time>
      </trkpt>
      <trkpt lat="42.89664" lon="0.19996">
        <ele>2047.6545494083</ele>
        <time>2016-10-16T15:50:18Z</time>
      </trkpt>
      <trkpt lat="42.89664" lon="0.19996">
        <ele>2047.6545494083</ele>
        <time>2016-10-16T15:50:23Z</time>
      </trkpt>
      <trkpt lat="42.89664" lon="0.19996">
        <ele>2047.6545494083</ele>
        <time>2016-10-16T15:50:28Z</time>
      </trkpt>
      <trkpt lat="42.89664" lon="0.19996">
        <ele>2047.6545494083</ele>
        <time>2016-10-16T15:50:33Z</time>
      </trkpt>
      <trkpt lat="42.89664" lon="0.19996">
        <ele>2047.6545494083</ele>
        <time>2016-10-16T15:50:38Z</time>
      </trkpt>
      <trkpt lat="42.89664" lon="0.19996">
        <ele>2047.6545494083</ele>
        <time>2016-10-16T15:50:43Z</time>
      </trkpt>
      <trkpt lat="42.89664" lon="0.19996">
        <ele>2047.6545494083</ele>
        <time>2016-10-16T15:50:48Z</time>
      </trkpt>
      <trkpt lat="42.89664" lon="0.19996">
        <ele>2047.6545494083</ele>
        <time>2016-10-16T15:50:53Z</time>
      </trkpt>
      <trkpt lat="42.89664" lon="0.19996">
        <ele>2047.6545494083</ele>
        <time>2016-10-16T15:50:58Z</time>
      </trkpt>
      <trkpt lat="42.89664" lon="0.19997">
        <ele>2047.6545494083</ele>
        <time>2016-10-16T15:51:03Z</time>
      </trkpt>
      <trkpt lat="42.89664" lon="0.19997">
        <ele>2047.6545494083</ele>
        <time>2016-10-16T15:51:08Z</time>
      </trkpt>
      <trkpt lat="42.89664" lon="0.19997">
        <ele>2047.6545494083</ele>
        <time>2016-10-16T15:51:13Z</time>
      </trkpt>
      <trkpt lat="42.89665" lon="0.19997">
        <ele>2047.6545494083</ele>
        <time>2016-10-16T15:51:18Z</time>
      </trkpt>
      <trkpt lat="42.89665" lon="0.19997">
        <ele>2047.6545494083</ele>
        <time>2016-10-16T15:51:23Z</time>
      </trkpt>
      <trkpt lat="42.89665" lon="0.19998">
        <ele>2047.6545494083</ele>
        <time>2016-10-16T15:51:28Z</time>
      </trkpt>
      <trkpt lat="42.89665" lon="0.19998">
        <ele>2047.6545494083</ele>
        <time>2016-10-16T15:51:33Z</time>
      </trkpt>
      <trkpt lat="42.89665" lon="0.19998">
        <ele>2047.6545494083</ele>
        <time>2016-10-16T15:51:38Z</time>
      </trkpt>
      <trkpt lat="42.89664" lon="0.19997">
        <ele>2047.6545494083</ele>
        <time>2016-10-16T15:51:43Z</time>
      </trkpt>
      <trkpt lat="42.89664" lon="0.19997">
        <ele>2047.6545494083</ele>
        <time>2016-10-16T15:51:48Z</time>
      </trkpt>
      <trkpt lat="42.89664" lon="0.19999">
        <ele>2047.2833635708</ele>
        <time>2016-10-16T15:51:53Z</time>
      </trkpt>
      <trkpt lat="42.89665" lon="0.19999">
        <ele>2047.2833635708</ele>
        <time>2016-10-16T15:51:58Z</time>
      </trkpt>
      <trkpt lat="42.89665" lon="0.19999">
        <ele>2047.2833635708</ele>
        <time>2016-10-16T15:52:03Z</time>
      </trkpt>
      <trkpt lat="42.89665" lon="0.19999">
        <ele>2047.2833635708</ele>
        <time>2016-10-16T15:52:08Z</time>
      </trkpt>
      <trkpt lat="42.89665" lon="0.19999">
        <ele>2047.2833635708</ele>
        <time>2016-10-16T15:52:13Z</time>
      </trkpt>
      <trkpt lat="42.89665" lon="0.2">
        <ele>2047.2833635708</ele>
        <time>2016-10-16T15:52:18Z</time>
      </trkpt>
      <trkpt lat="42.89664" lon="0.2">
        <ele>2047.2833635708</ele>
        <time>2016-10-16T15:52:23Z</time>
      </trkpt>
      <trkpt lat="42.89665" lon="0.20001">
        <ele>2047.2833635708</ele>
        <time>2016-10-16T15:52:28Z</time>
      </trkpt>
      <trkpt lat="42.89664" lon="0.20001">
        <ele>2047.2833635708</ele>
        <time>2016-10-16T15:52:33Z</time>
      </trkpt>
      <trkpt lat="42.89665" lon="0.20001">
        <ele>2047.2833635708</ele>
        <time>2016-10-16T15:52:38Z</time>
      </trkpt>
      <trkpt lat="42.89664" lon="0.2">
        <ele>2047.2833635708</ele>
        <time>2016-10-16T15:52:43Z</time>
      </trkpt>
      <trkpt lat="42.89664" lon="0.19999">
        <ele>2047.2833635708</ele>
        <time>2016-10-16T15:52:48Z</time>
      </trkpt>
      <trkpt lat="42.89664" lon="0.2">
        <ele>2047.2833635708</ele>
        <time>2016-10-16T15:52:53Z</time>
      </trkpt>
      <trkpt lat="42.89664" lon="0.2">
        <ele>2047.2833635708</ele>
        <time>2016-10-16T15:52:58Z</time>
      </trkpt>
      <trkpt lat="42.89664" lon="0.2">
        <ele>2047.2833635708</ele>
        <time>2016-10-16T15:53:03Z</time>
      </trkpt>
      <trkpt lat="42.89664" lon="0.2">
        <ele>2047.2833635708</ele>
        <time>2016-10-16T15:53:08Z</time>
      </trkpt>
      <trkpt lat="42.89663" lon="0.2">
        <ele>2047.2833635708</ele>
        <time>2016-10-16T15:53:13Z</time>
      </trkpt>
      <trkpt lat="42.89663" lon="0.2">
        <ele>2047.2833635708</ele>
        <time>2016-10-16T15:53:18Z</time>
      </trkpt>
      <trkpt lat="42.89663" lon="0.2">
        <ele>2047.2833635708</ele>
        <time>2016-10-16T15:53:23Z</time>
      </trkpt>
      <trkpt lat="42.89663" lon="0.2">
        <ele>2047.2833635708</ele>
        <time>2016-10-16T15:53:28Z</time>
      </trkpt>
      <trkpt lat="42.89663" lon="0.2">
        <ele>2047.2833635708</ele>
        <time>2016-10-16T15:53:33Z</time>
      </trkpt>
      <trkpt lat="42.89663" lon="0.2">
        <ele>2047.2833635708</ele>
        <time>2016-10-16T15:53:38Z</time>
      </trkpt>
      <trkpt lat="42.89663" lon="0.2">
        <ele>2047.2833635708</ele>
        <time>2016-10-16T15:53:43Z</time>
      </trkpt>
      <trkpt lat="42.89663" lon="0.2">
        <ele>2047.2833635708</ele>
        <time>2016-10-16T15:53:48Z</time>
      </trkpt>
      <trkpt lat="42.89663" lon="0.2">
        <ele>2047.2833635708</ele>
        <time>2016-10-16T15:53:53Z</time>
      </trkpt>
      <trkpt lat="42.89663" lon="0.2">
        <ele>2047.2833635708</ele>
        <time>2016-10-16T15:53:58Z</time>
      </trkpt>
      <trkpt lat="42.89663" lon="0.2">
        <ele>2046.8624734229</ele>
        <time>2016-10-16T15:54:03Z</time>
      </trkpt>
      <trkpt lat="42.89663" lon="0.2">
        <ele>2046.8624734229</ele>
        <time>2016-10-16T15:54:08Z</time>
      </trkpt>
      <trkpt lat="42.89663" lon="0.2">
        <ele>2046.8624734229</ele>
        <time>2016-10-16T15:54:13Z</time>
      </trkpt>
      <trkpt lat="42.89663" lon="0.2">
        <ele>2046.8624734229</ele>
        <time>2016-10-16T15:54:18Z</time>
      </trkpt>
      <trkpt lat="42.89663" lon="0.2">
        <ele>2046.8624734229</ele>
        <time>2016-10-16T15:54:23Z</time>
      </trkpt>
      <trkpt lat="42.89663" lon="0.2">
        <ele>2046.8624734229</ele>
        <time>2016-10-16T15:54:28Z</time>
      </trkpt>
      <trkpt lat="42.89662" lon="0.19999">
        <ele>2046.8624734229</ele>
        <time>2016-10-16T15:54:33Z</time>
      </trkpt>
      <trkpt lat="42.89662" lon="0.19999">
        <ele>2046.8624734229</ele>
        <time>2016-10-16T15:54:38Z</time>
      </trkpt>
      <trkpt lat="42.89662" lon="0.2">
        <ele>2046.8624734229</ele>
        <time>2016-10-16T15:54:43Z</time>
      </trkpt>
      <trkpt lat="42.89662" lon="0.2">
        <ele>2046.8624734229</ele>
        <time>2016-10-16T15:54:48Z</time>
      </trkpt>
      <trkpt lat="42.89662" lon="0.2">
        <ele>2046.8624734229</ele>
        <time>2016-10-16T15:54:53Z</time>
      </trkpt>
      <trkpt lat="42.89662" lon="0.2">
        <ele>2046.8624734229</ele>
        <time>2016-10-16T15:54:58Z</time>
      </trkpt>
      <trkpt lat="42.89662" lon="0.20001">
        <ele>2046.8624734229</ele>
        <time>2016-10-16T15:55:03Z</time>
      </trkpt>
      <trkpt lat="42.89662" lon="0.2">
        <ele>2046.8624734229</ele>
        <time>2016-10-16T15:55:08Z</time>
      </trkpt>
      <trkpt lat="42.89662" lon="0.2">
        <ele>2046.8624734229</ele>
        <time>2016-10-16T15:55:13Z</time>
      </trkpt>
      <trkpt lat="42.89662" lon="0.2">
        <ele>2046.8624734229</ele>
        <time>2016-10-16T15:55:18Z</time>
      </trkpt>
      <trkpt lat="42.89662" lon="0.2">
        <ele>2046.8624734229</ele>
        <time>2016-10-16T15:55:23Z</time>
      </trkpt>
      <trkpt lat="42.89662" lon="0.20001">
        <ele>2046.8624734229</ele>
        <time>2016-10-16T15:55:28Z</time>
      </trkpt>
      <trkpt lat="42.89661" lon="0.20001">
        <ele>2046.8624734229</ele>
        <time>2016-10-16T15:55:33Z</time>
      </trkpt>
      <trkpt lat="42.89661" lon="0.20001">
        <ele>2046.8624734229</ele>
        <time>2016-10-16T15:55:38Z</time>
      </trkpt>
      <trkpt lat="42.89661" lon="0.20001">
        <ele>2046.8624734229</ele>
        <time>2016-10-16T15:55:43Z</time>
      </trkpt>
      <trkpt lat="42.89661" lon="0.20001">
        <ele>2046.8624734229</ele>
        <time>2016-10-16T15:55:48Z</time>
      </trkpt>
      <trkpt lat="42.89661" lon="0.20001">
        <ele>2046.8624734229</ele>
        <time>2016-10-16T15:55:53Z</time>
      </trkpt>
      <trkpt lat="42.8966" lon="0.20002">
        <ele>2046.8624734229</ele>
        <time>2016-10-16T15:55:58Z</time>
      </trkpt>
      <trkpt lat="42.89661" lon="0.20002">
        <ele>2046.8624734229</ele>
        <time>2016-10-16T15:56:03Z</time>
      </trkpt>
      <trkpt lat="42.89663" lon="0.20002">
        <ele>2046.4680118742</ele>
        <time>2016-10-16T15:56:08Z</time>
      </trkpt>
      <trkpt lat="42.89669" lon="0.20001">
        <ele>2046.4680118742</ele>
        <time>2016-10-16T15:56:13Z</time>
      </trkpt>
      <trkpt lat="42.89671" lon="0.20001">
        <ele>2046.4680118742</ele>
        <time>2016-10-16T15:56:18Z</time>
      </trkpt>
      <trkpt lat="42.89671" lon="0.2">
        <ele>2046.0984170101</ele>
        <time>2016-10-16T15:56:23Z</time>
      </trkpt>
      <trkpt lat="42.89671" lon="0.2">
        <ele>2046.0984170101</ele>
        <time>2016-10-16T15:56:28Z</time>
      </trkpt>
      <trkpt lat="42.8967" lon="0.19998">
        <ele>2046.0984170101</ele>
        <time>2016-10-16T15:56:33Z</time>
      </trkpt>
      <trkpt lat="42.89669" lon="0.19997">
        <ele>2046.0984170101</ele>
        <time>2016-10-16T15:56:38Z</time>
      </trkpt>
      <trkpt lat="42.89668" lon="0.19997">
        <ele>2046.0984170101</ele>
        <time>2016-10-16T15:56:43Z</time>
      </trkpt>
      <trkpt lat="42.89667" lon="0.19996">
        <ele>2046.0984170101</ele>
        <time>2016-10-16T15:56:48Z</time>
      </trkpt>
      <trkpt lat="42.89667" lon="0.19996">
        <ele>2046.0984170101</ele>
        <time>2016-10-16T15:56:53Z</time>
      </trkpt>
      <trkpt lat="42.89666" lon="0.19996">
        <ele>2046.0984170101</ele>
        <time>2016-10-16T15:56:58Z</time>
      </trkpt>
      <trkpt lat="42.89666" lon="0.19996">
        <ele>2046.0984170101</ele>
        <time>2016-10-16T15:57:03Z</time>
      </trkpt>
      <trkpt lat="42.89666" lon="0.19995">
        <ele>2046.0984170101</ele>
        <time>2016-10-16T15:57:08Z</time>
      </trkpt>
      <trkpt lat="42.89666" lon="0.19995">
        <ele>2046.0984170101</ele>
        <time>2016-10-16T15:57:13Z</time>
      </trkpt>
      <trkpt lat="42.89665" lon="0.19995">
        <ele>2046.0984170101</ele>
        <time>2016-10-16T15:57:18Z</time>
      </trkpt>
      <trkpt lat="42.89665" lon="0.19995">
        <ele>2046.0984170101</ele>
        <time>2016-10-16T15:57:23Z</time>
      </trkpt>
      <trkpt lat="42.89665" lon="0.19996">
        <ele>2046.0984170101</ele>
        <time>2016-10-16T15:57:28Z</time>
      </trkpt>
      <trkpt lat="42.89664" lon="0.19995">
        <ele>2045.7810186008</ele>
        <time>2016-10-16T15:57:33Z</time>
      </trkpt>
      <trkpt lat="42.89663" lon="0.19995">
        <ele>2045.7810186008</ele>
        <time>2016-10-16T15:57:38Z</time>
      </trkpt>
      <trkpt lat="42.89663" lon="0.19996">
        <ele>2045.7810186008</ele>
        <time>2016-10-16T15:57:43Z</time>
      </trkpt>
      <trkpt lat="42.89664" lon="0.19996">
        <ele>2045.7810186008</ele>
        <time>2016-10-16T15:57:48Z</time>
      </trkpt>
      <trkpt lat="42.89664" lon="0.19995">
        <ele>2045.7810186008</ele>
        <time>2016-10-16T15:57:53Z</time>
      </trkpt>
      <trkpt lat="42.89663" lon="0.19995">
        <ele>2045.7810186008</ele>
        <time>2016-10-16T15:57:58Z</time>
      </trkpt>
      <trkpt lat="42.89663" lon="0.19996">
        <ele>2045.7810186008</ele>
        <time>2016-10-16T15:58:03Z</time>
      </trkpt>
      <trkpt lat="42.89663" lon="0.19996">
        <ele>2045.7810186008</ele>
        <time>2016-10-16T15:58:08Z</time>
      </trkpt>
      <trkpt lat="42.89662" lon="0.19996">
        <ele>2045.7810186008</ele>
        <time>2016-10-16T15:58:13Z</time>
      </trkpt>
      <trkpt lat="42.89662" lon="0.19995">
        <ele>2045.7810186008</ele>
        <time>2016-10-16T15:58:18Z</time>
      </trkpt>
      <trkpt lat="42.89661" lon="0.19995">
        <ele>2045.7810186008</ele>
        <time>2016-10-16T15:58:23Z</time>
      </trkpt>
      <trkpt lat="42.89661" lon="0.19995">
        <ele>2045.7810186008</ele>
        <time>2016-10-16T15:58:28Z</time>
      </trkpt>
      <trkpt lat="42.89661" lon="0.19995">
        <ele>2045.7810186008</ele>
        <time>2016-10-16T15:58:33Z</time>
      </trkpt>
      <trkpt lat="42.8966" lon="0.19995">
        <ele>2045.7810186008</ele>
        <time>2016-10-16T15:58:38Z</time>
      </trkpt>
      <trkpt lat="42.8966" lon="0.19996">
        <ele>2045.7810186008</ele>
        <time>2016-10-16T15:58:43Z</time>
      </trkpt>
      <trkpt lat="42.8966" lon="0.19996">
        <ele>2045.7810186008</ele>
        <time>2016-10-16T15:58:48Z</time>
      </trkpt>
      <trkpt lat="42.8966" lon="0.19996">
        <ele>2045.5410141324</ele>
        <time>2016-10-16T15:58:53Z</time>
      </trkpt>
      <trkpt lat="42.8966" lon="0.19996">
        <ele>2045.5410141324</ele>
        <time>2016-10-16T15:58:58Z</time>
      </trkpt>
      <trkpt lat="42.89661" lon="0.19995">
        <ele>2045.5410141324</ele>
        <time>2016-10-16T15:59:03Z</time>
      </trkpt>
      <trkpt lat="42.89662" lon="0.19995">
        <ele>2045.5410141324</ele>
        <time>2016-10-16T15:59:08Z</time>
      </trkpt>
      <trkpt lat="42.89663" lon="0.19996">
        <ele>2045.5410141324</ele>
        <time>2016-10-16T15:59:13Z</time>
      </trkpt>
      <trkpt lat="42.89664" lon="0.19995">
        <ele>2045.5410141324</ele>
        <time>2016-10-16T15:59:18Z</time>
      </trkpt>
      <trkpt lat="42.89664" lon="0.19995">
        <ele>2045.5410141324</ele>
        <time>2016-10-16T15:59:23Z</time>
      </trkpt>
      <trkpt lat="42.89665" lon="0.19995">
        <ele>2045.5410141324</ele>
        <time>2016-10-16T15:59:28Z</time>
      </trkpt>
      <trkpt lat="42.89665" lon="0.19995">
        <ele>2045.5410141324</ele>
        <time>2016-10-16T15:59:33Z</time>
      </trkpt>
      <trkpt lat="42.89664" lon="0.19995">
        <ele>2045.5410141324</ele>
        <time>2016-10-16T15:59:38Z</time>
      </trkpt>
      <trkpt lat="42.89664" lon="0.19995">
        <ele>2045.5410141324</ele>
        <time>2016-10-16T15:59:43Z</time>
      </trkpt>
      <trkpt lat="42.89663" lon="0.19995">
        <ele>2045.5410141324</ele>
        <time>2016-10-16T15:59:48Z</time>
      </trkpt>
      <trkpt lat="42.89663" lon="0.19995">
        <ele>2045.5410141324</ele>
        <time>2016-10-16T15:59:53Z</time>
      </trkpt>
      <trkpt lat="42.89663" lon="0.19995">
        <ele>2045.5410141324</ele>
        <time>2016-10-16T15:59:58Z</time>
      </trkpt>
      <trkpt lat="42.89662" lon="0.19995">
        <ele>2045.5410141324</ele>
        <time>2016-10-16T16:00:03Z</time>
      </trkpt>
      <trkpt lat="42.89663" lon="0.19995">
        <ele>2045.5410141324</ele>
        <time>2016-10-16T16:00:08Z</time>
      </trkpt>
      <trkpt lat="42.89662" lon="0.19995">
        <ele>2045.3583192418</ele>
        <time>2016-10-16T16:00:13Z</time>
      </trkpt>
      <trkpt lat="42.89662" lon="0.19994">
        <ele>2045.3583192418</ele>
        <time>2016-10-16T16:00:18Z</time>
      </trkpt>
      <trkpt lat="42.89664" lon="0.19994">
        <ele>2045.3583192418</ele>
        <time>2016-10-16T16:00:23Z</time>
      </trkpt>
      <trkpt lat="42.89666" lon="0.1999">
        <ele>2045.3583192418</ele>
        <time>2016-10-16T16:00:28Z</time>
      </trkpt>
      <trkpt lat="42.89668" lon="0.19987">
        <ele>2045.1853598856</ele>
        <time>2016-10-16T16:00:33Z</time>
      </trkpt>
      <trkpt lat="42.8967" lon="0.19991">
        <ele>2045.1853598856</ele>
        <time>2016-10-16T16:00:38Z</time>
      </trkpt>
      <trkpt lat="42.89671" lon="0.19992">
        <ele>2045.1853598856</ele>
        <time>2016-10-16T16:00:43Z</time>
      </trkpt>
      <trkpt lat="42.89672" lon="0.19992">
        <ele>2045.1853598856</ele>
        <time>2016-10-16T16:00:48Z</time>
      </trkpt>
      <trkpt lat="42.89672" lon="0.19993">
        <ele>2045.1853598856</ele>
        <time>2016-10-16T16:00:53Z</time>
      </trkpt>
      <trkpt lat="42.89672" lon="0.19993">
        <ele>2045.1853598856</ele>
        <time>2016-10-16T16:00:58Z</time>
      </trkpt>
      <trkpt lat="42.89672" lon="0.19993">
        <ele>2045.1853598856</ele>
        <time>2016-10-16T16:01:03Z</time>
      </trkpt>
      <trkpt lat="42.89671" lon="0.19993">
        <ele>2045.1853598856</ele>
        <time>2016-10-16T16:01:08Z</time>
      </trkpt>
      <trkpt lat="42.89671" lon="0.19993">
        <ele>2045.1853598856</ele>
        <time>2016-10-16T16:01:13Z</time>
      </trkpt>
      <trkpt lat="42.89671" lon="0.19993">
        <ele>2045.1853598856</ele>
        <time>2016-10-16T16:01:18Z</time>
      </trkpt>
      <trkpt lat="42.89671" lon="0.19993">
        <ele>2045.1853598856</ele>
        <time>2016-10-16T16:01:23Z</time>
      </trkpt>
      <trkpt lat="42.8967" lon="0.19992">
        <ele>2044.9780461095</ele>
        <time>2016-10-16T16:01:28Z</time>
      </trkpt>
      <trkpt lat="42.89669" lon="0.19993">
        <ele>2044.9780461095</ele>
        <time>2016-10-16T16:01:33Z</time>
      </trkpt>
      <trkpt lat="42.89669" lon="0.19992">
        <ele>2044.9780461095</ele>
        <time>2016-10-16T16:01:38Z</time>
      </trkpt>
      <trkpt lat="42.89669" lon="0.19992">
        <ele>2044.9780461095</ele>
        <time>2016-10-16T16:01:43Z</time>
      </trkpt>
      <trkpt lat="42.89669" lon="0.19992">
        <ele>2044.9780461095</ele>
        <time>2016-10-16T16:01:48Z</time>
      </trkpt>
      <trkpt lat="42.89669" lon="0.19991">
        <ele>2044.9780461095</ele>
        <time>2016-10-16T16:01:53Z</time>
      </trkpt>
      <trkpt lat="42.89669" lon="0.19991">
        <ele>2044.9780461095</ele>
        <time>2016-10-16T16:01:58Z</time>
      </trkpt>
      <trkpt lat="42.89669" lon="0.19991">
        <ele>2044.9780461095</ele>
        <time>2016-10-16T16:02:03Z</time>
      </trkpt>
      <trkpt lat="42.89668" lon="0.19992">
        <ele>2044.9780461095</ele>
        <time>2016-10-16T16:02:08Z</time>
      </trkpt>
      <trkpt lat="42.89668" lon="0.19992">
        <ele>2044.9780461095</ele>
        <time>2016-10-16T16:02:13Z</time>
      </trkpt>
      <trkpt lat="42.89667" lon="0.19992">
        <ele>2044.9780461095</ele>
        <time>2016-10-16T16:02:18Z</time>
      </trkpt>
      <trkpt lat="42.89667" lon="0.19992">
        <ele>2044.9780461095</ele>
        <time>2016-10-16T16:02:23Z</time>
      </trkpt>
      <trkpt lat="42.89667" lon="0.19992">
        <ele>2044.9780461095</ele>
        <time>2016-10-16T16:02:28Z</time>
      </trkpt>
      <trkpt lat="42.89667" lon="0.19993">
        <ele>2044.9780461095</ele>
        <time>2016-10-16T16:02:33Z</time>
      </trkpt>
      <trkpt lat="42.89667" lon="0.19994">
        <ele>2044.9780461095</ele>
        <time>2016-10-16T16:02:38Z</time>
      </trkpt>
      <trkpt lat="42.89667" lon="0.19994">
        <ele>2044.9780461095</ele>
        <time>2016-10-16T16:02:43Z</time>
      </trkpt>
      <trkpt lat="42.89667" lon="0.19995">
        <ele>2044.9780461095</ele>
        <time>2016-10-16T16:02:48Z</time>
      </trkpt>
      <trkpt lat="42.89667" lon="0.19995">
        <ele>2044.9780461095</ele>
        <time>2016-10-16T16:02:53Z</time>
      </trkpt>
      <trkpt lat="42.89666" lon="0.19997">
        <ele>2044.7388720315</ele>
        <time>2016-10-16T16:02:58Z</time>
      </trkpt>
      <trkpt lat="42.89666" lon="0.19997">
        <ele>2044.7388720315</ele>
        <time>2016-10-16T16:03:03Z</time>
      </trkpt>
      <trkpt lat="42.89666" lon="0.19997">
        <ele>2044.7388720315</ele>
        <time>2016-10-16T16:03:08Z</time>
      </trkpt>
      <trkpt lat="42.89666" lon="0.19997">
        <ele>2044.7388720315</ele>
        <time>2016-10-16T16:03:13Z</time>
      </trkpt>
      <trkpt lat="42.89666" lon="0.19997">
        <ele>2044.7388720315</ele>
        <time>2016-10-16T16:03:18Z</time>
      </trkpt>
      <trkpt lat="42.89666" lon="0.19997">
        <ele>2044.7388720315</ele>
        <time>2016-10-16T16:03:23Z</time>
      </trkpt>
      <trkpt lat="42.89666" lon="0.19997">
        <ele>2044.7388720315</ele>
        <time>2016-10-16T16:03:28Z</time>
      </trkpt>
      <trkpt lat="42.89666" lon="0.19997">
        <ele>2044.7388720315</ele>
        <time>2016-10-16T16:03:33Z</time>
      </trkpt>
      <trkpt lat="42.89666" lon="0.19997">
        <ele>2044.7388720315</ele>
        <time>2016-10-16T16:03:38Z</time>
      </trkpt>
      <trkpt lat="42.89667" lon="0.19998">
        <ele>2044.7388720315</ele>
        <time>2016-10-16T16:03:43Z</time>
      </trkpt>
      <trkpt lat="42.89666" lon="0.19998">
        <ele>2044.7388720315</ele>
        <time>2016-10-16T16:03:48Z</time>
      </trkpt>
      <trkpt lat="42.89666" lon="0.2">
        <ele>2044.7388720315</ele>
        <time>2016-10-16T16:03:53Z</time>
      </trkpt>
      <trkpt lat="42.89667" lon="0.20001">
        <ele>2044.7388720315</ele>
        <time>2016-10-16T16:03:58Z</time>
      </trkpt>
      <trkpt lat="42.89667" lon="0.20001">
        <ele>2044.7388720315</ele>
        <time>2016-10-16T16:04:03Z</time>
      </trkpt>
      <trkpt lat="42.89666" lon="0.20002">
        <ele>2044.7388720315</ele>
        <time>2016-10-16T16:04:08Z</time>
      </trkpt>
      <trkpt lat="42.89666" lon="0.20002">
        <ele>2044.7388720315</ele>
        <time>2016-10-16T16:04:13Z</time>
      </trkpt>
      <trkpt lat="42.89666" lon="0.20002">
        <ele>2044.7388720315</ele>
        <time>2016-10-16T16:04:18Z</time>
      </trkpt>
      <trkpt lat="42.89665" lon="0.20001">
        <ele>2044.7388720315</ele>
        <time>2016-10-16T16:04:23Z</time>
      </trkpt>
      <trkpt lat="42.89665" lon="0.20001">
        <ele>2044.7388720315</ele>
        <time>2016-10-16T16:04:28Z</time>
      </trkpt>
      <trkpt lat="42.89665" lon="0.2">
        <ele>2044.7388720315</ele>
        <time>2016-10-16T16:04:33Z</time>
      </trkpt>
      <trkpt lat="42.89665" lon="0.2">
        <ele>2044.7388720315</ele>
        <time>2016-10-16T16:04:38Z</time>
      </trkpt>
      <trkpt lat="42.89665" lon="0.2">
        <ele>2044.7388720315</ele>
        <time>2016-10-16T16:04:43Z</time>
      </trkpt>
      <trkpt lat="42.89665" lon="0.2">
        <ele>2044.7388720315</ele>
        <time>2016-10-16T16:04:48Z</time>
      </trkpt>
      <trkpt lat="42.89666" lon="0.2">
        <ele>2044.527896882</ele>
        <time>2016-10-16T16:04:53Z</time>
      </trkpt>
      <trkpt lat="42.89665" lon="0.19997">
        <ele>2044.527896882</ele>
        <time>2016-10-16T16:04:58Z</time>
      </trkpt>
      <trkpt lat="42.89662" lon="0.19991">
        <ele>2044.527896882</ele>
        <time>2016-10-16T16:05:03Z</time>
      </trkpt>
      <trkpt lat="42.89659" lon="0.19989">
        <ele>2044.3430578434</ele>
        <time>2016-10-16T16:05:08Z</time>
      </trkpt>
      <trkpt lat="42.89657" lon="0.1999">
        <ele>2044.3430578434</ele>
        <time>2016-10-16T16:05:13Z</time>
      </trkpt>
      <trkpt lat="42.89656" lon="0.19991">
        <ele>2044.3430578434</ele>
        <time>2016-10-16T16:05:18Z</time>
      </trkpt>
      <trkpt lat="42.89655" lon="0.19995">
        <ele>2044.3430578434</ele>
        <time>2016-10-16T16:05:23Z</time>
      </trkpt>
      <trkpt lat="42.89655" lon="0.19997">
        <ele>2044.3430578434</ele>
        <time>2016-10-16T16:05:28Z</time>
      </trkpt>
      <trkpt lat="42.89655" lon="0.19998">
        <ele>2044.3430578434</ele>
        <time>2016-10-16T16:05:33Z</time>
      </trkpt>
      <trkpt lat="42.89653" lon="0.20001">
        <ele>2044.1823827732</ele>
        <time>2016-10-16T16:05:38Z</time>
      </trkpt>
      <trkpt lat="42.89654" lon="0.20006">
        <ele>2044.1823827732</ele>
        <time>2016-10-16T16:05:43Z</time>
      </trkpt>
      <trkpt lat="42.89656" lon="0.20012">
        <ele>2044.1823827732</ele>
        <time>2016-10-16T16:05:48Z</time>
      </trkpt>
      <trkpt lat="42.89657" lon="0.20017">
        <ele>2044.0439882702</ele>
        <time>2016-10-16T16:05:53Z</time>
      </trkpt>
      <trkpt lat="42.89658" lon="0.20023">
        <ele>2044.0439882702</ele>
        <time>2016-10-16T16:05:58Z</time>
      </trkpt>
      <trkpt lat="42.8966" lon="0.20027">
        <ele>2044.0439882702</ele>
        <time>2016-10-16T16:06:03Z</time>
      </trkpt>
      <trkpt lat="42.8966" lon="0.20028">
        <ele>2044.0439882702</ele>
        <time>2016-10-16T16:06:08Z</time>
      </trkpt>
      <trkpt lat="42.8966" lon="0.20033">
        <ele>2043.9116667243</ele>
        <time>2016-10-16T16:06:13Z</time>
      </trkpt>
      <trkpt lat="42.8966" lon="0.20037">
        <ele>2043.9116667243</ele>
        <time>2016-10-16T16:06:18Z</time>
      </trkpt>
      <trkpt lat="42.89661" lon="0.20036">
        <ele>2043.9116667243</ele>
        <time>2016-10-16T16:06:23Z</time>
      </trkpt>
      <trkpt lat="42.89662" lon="0.20038">
        <ele>2043.9116667243</ele>
        <time>2016-10-16T16:06:28Z</time>
      </trkpt>
      <trkpt lat="42.89663" lon="0.20042">
        <ele>2043.9116667243</ele>
        <time>2016-10-16T16:06:33Z</time>
      </trkpt>
      <trkpt lat="42.89664" lon="0.20046">
        <ele>2043.7559835424</ele>
        <time>2016-10-16T16:06:38Z</time>
      </trkpt>
      <trkpt lat="42.89669" lon="0.20042">
        <ele>2043.7559835424</ele>
        <time>2016-10-16T16:06:43Z</time>
      </trkpt>
      <trkpt lat="42.89672" lon="0.20037">
        <ele>2043.5929753962</ele>
        <time>2016-10-16T16:06:48Z</time>
      </trkpt>
      <trkpt lat="42.89676" lon="0.20032">
        <ele>2043.5929753962</ele>
        <time>2016-10-16T16:06:53Z</time>
      </trkpt>
      <trkpt lat="42.8968" lon="0.20027">
        <ele>2043.4087088708</ele>
        <time>2016-10-16T16:06:58Z</time>
      </trkpt>
      <trkpt lat="42.89682" lon="0.20027">
        <ele>2043.4087088708</ele>
        <time>2016-10-16T16:07:03Z</time>
      </trkpt>
      <trkpt lat="42.89687" lon="0.20024">
        <ele>2043.4087088708</ele>
        <time>2016-10-16T16:07:08Z</time>
      </trkpt>
      <trkpt lat="42.89693" lon="0.20021">
        <ele>2043.2047538912</ele>
        <time>2016-10-16T16:07:13Z</time>
      </trkpt>
      <trkpt lat="42.89697" lon="0.2002">
        <ele>2043.2047538912</ele>
        <time>2016-10-16T16:07:18Z</time>
      </trkpt>
      <trkpt lat="42.89698" lon="0.20017">
        <ele>2043.2047538912</ele>
        <time>2016-10-16T16:07:23Z</time>
      </trkpt>
      <trkpt lat="42.89699" lon="0.20015">
        <ele>2043.2047538912</ele>
        <time>2016-10-16T16:07:28Z</time>
      </trkpt>
      <trkpt lat="42.89704" lon="0.20014">
        <ele>2042.9393951843</ele>
        <time>2016-10-16T16:07:33Z</time>
      </trkpt>
      <trkpt lat="42.89709" lon="0.20012">
        <ele>2042.9393951843</ele>
        <time>2016-10-16T16:07:38Z</time>
      </trkpt>
      <trkpt lat="42.89714" lon="0.2001">
        <ele>2042.6750392353</ele>
        <time>2016-10-16T16:07:43Z</time>
      </trkpt>
      <trkpt lat="42.89715" lon="0.2001">
        <ele>2042.6750392353</ele>
        <time>2016-10-16T16:07:48Z</time>
      </trkpt>
      <trkpt lat="42.89722" lon="0.20009">
        <ele>2042.6750392353</ele>
        <time>2016-10-16T16:07:53Z</time>
      </trkpt>
      <trkpt lat="42.89725" lon="0.20007">
        <ele>2042.3830448497</ele>
        <time>2016-10-16T16:07:58Z</time>
      </trkpt>
      <trkpt lat="42.89728" lon="0.20002">
        <ele>2042.3830448497</ele>
        <time>2016-10-16T16:08:03Z</time>
      </trkpt>
      <trkpt lat="42.89731" lon="0.2">
        <ele>2042.3830448497</ele>
        <time>2016-10-16T16:08:08Z</time>
      </trkpt>
      <trkpt lat="42.89733" lon="0.2">
        <ele>2042.0657794519</ele>
        <time>2016-10-16T16:08:13Z</time>
      </trkpt>
      <trkpt lat="42.89735" lon="0.20004">
        <ele>2042.0657794519</ele>
        <time>2016-10-16T16:08:18Z</time>
      </trkpt>
      <trkpt lat="42.89738" lon="0.20005">
        <ele>2042.0657794519</ele>
        <time>2016-10-16T16:08:23Z</time>
      </trkpt>
      <trkpt lat="42.8974" lon="0.20005">
        <ele>2042.0657794519</ele>
        <time>2016-10-16T16:08:28Z</time>
      </trkpt>
      <trkpt lat="42.89743" lon="0.20008">
        <ele>2041.7110997739</ele>
        <time>2016-10-16T16:08:33Z</time>
      </trkpt>
      <trkpt lat="42.89744" lon="0.2001">
        <ele>2041.7110997739</ele>
        <time>2016-10-16T16:08:38Z</time>
      </trkpt>
      <trkpt lat="42.89745" lon="0.20012">
        <ele>2041.7110997739</ele>
        <time>2016-10-16T16:08:43Z</time>
      </trkpt>
      <trkpt lat="42.89746" lon="0.20015">
        <ele>2041.7110997739</ele>
        <time>2016-10-16T16:08:48Z</time>
      </trkpt>
      <trkpt lat="42.89749" lon="0.20017">
        <ele>2041.3222725418</ele>
        <time>2016-10-16T16:08:53Z</time>
      </trkpt>
      <trkpt lat="42.89752" lon="0.20017">
        <ele>2041.3222725418</ele>
        <time>2016-10-16T16:08:58Z</time>
      </trkpt>
      <trkpt lat="42.89754" lon="0.20019">
        <ele>2041.3222725418</ele>
        <time>2016-10-16T16:09:03Z</time>
      </trkpt>
      <trkpt lat="42.89755" lon="0.2002">
        <ele>2041.3222725418</ele>
        <time>2016-10-16T16:09:08Z</time>
      </trkpt>
      <trkpt lat="42.89758" lon="0.20025">
        <ele>2040.9024204742</ele>
        <time>2016-10-16T16:09:13Z</time>
      </trkpt>
      <trkpt lat="42.89762" lon="0.20028">
        <ele>2040.9024204742</ele>
        <time>2016-10-16T16:09:18Z</time>
      </trkpt>
      <trkpt lat="42.89765" lon="0.2003">
        <ele>2040.4977556749</ele>
        <time>2016-10-16T16:09:23Z</time>
      </trkpt>
      <trkpt lat="42.89769" lon="0.20033">
        <ele>2040.4977556749</ele>
        <time>2016-10-16T16:09:28Z</time>
      </trkpt>
      <trkpt lat="42.89772" lon="0.20035">
        <ele>2040.4977556749</ele>
        <time>2016-10-16T16:09:33Z</time>
      </trkpt>
      <trkpt lat="42.89777" lon="0.20037">
        <ele>2040.0789939182</ele>
        <time>2016-10-16T16:09:38Z</time>
      </trkpt>
      <trkpt lat="42.89779" lon="0.20041">
        <ele>2040.0789939182</ele>
        <time>2016-10-16T16:09:43Z</time>
      </trkpt>
      <trkpt lat="42.89782" lon="0.20042">
        <ele>2040.0789939182</ele>
        <time>2016-10-16T16:09:48Z</time>
      </trkpt>
      <trkpt lat="42.89785" lon="0.20043">
        <ele>2039.6478587416</ele>
        <time>2016-10-16T16:09:53Z</time>
      </trkpt>
      <trkpt lat="42.8979" lon="0.20045">
        <ele>2039.6478587416</ele>
        <time>2016-10-16T16:09:58Z</time>
      </trkpt>
      <trkpt lat="42.89796" lon="0.20047">
        <ele>2039.2347971348</ele>
        <time>2016-10-16T16:10:03Z</time>
      </trkpt>
      <trkpt lat="42.89801" lon="0.20049">
        <ele>2039.2347971348</ele>
        <time>2016-10-16T16:10:08Z</time>
      </trkpt>
      <trkpt lat="42.89805" lon="0.2005">
        <ele>2038.8391381573</ele>
        <time>2016-10-16T16:10:13Z</time>
      </trkpt>
      <trkpt lat="42.8981" lon="0.2005">
        <ele>2038.8391381573</ele>
        <time>2016-10-16T16:10:18Z</time>
      </trkpt>
      <trkpt lat="42.89814" lon="0.20051">
        <ele>2038.4457905078</ele>
        <time>2016-10-16T16:10:23Z</time>
      </trkpt>
      <trkpt lat="42.8982" lon="0.20053">
        <ele>2038.4457905078</ele>
        <time>2016-10-16T16:10:28Z</time>
      </trkpt>
      <trkpt lat="42.89822" lon="0.20052">
        <ele>2038.4457905078</ele>
        <time>2016-10-16T16:10:33Z</time>
      </trkpt>
      <trkpt lat="42.89826" lon="0.20056">
        <ele>2038.055165263</ele>
        <time>2016-10-16T16:10:38Z</time>
      </trkpt>
      <trkpt lat="42.8983" lon="0.20057">
        <ele>2038.055165263</ele>
        <time>2016-10-16T16:10:43Z</time>
      </trkpt>
      <trkpt lat="42.89832" lon="0.20058">
        <ele>2038.055165263</ele>
        <time>2016-10-16T16:10:48Z</time>
      </trkpt>
      <trkpt lat="42.89834" lon="0.20059">
        <ele>2038.055165263</ele>
        <time>2016-10-16T16:10:53Z</time>
      </trkpt>
      <trkpt lat="42.89837" lon="0.20061">
        <ele>2037.6243904395</ele>
        <time>2016-10-16T16:10:58Z</time>
      </trkpt>
      <trkpt lat="42.8984" lon="0.20063">
        <ele>2037.6243904395</ele>
        <time>2016-10-16T16:11:03Z</time>
      </trkpt>
      <trkpt lat="42.89842" lon="0.20064">
        <ele>2037.6243904395</ele>
        <time>2016-10-16T16:11:08Z</time>
      </trkpt>
      <trkpt lat="42.89846" lon="0.20067">
        <ele>2037.1714876595</ele>
        <time>2016-10-16T16:11:13Z</time>
      </trkpt>
      <trkpt lat="42.89849" lon="0.20066">
        <ele>2037.1714876595</ele>
        <time>2016-10-16T16:11:18Z</time>
      </trkpt>
      <trkpt lat="42.89854" lon="0.20068">
        <ele>2037.1714876595</ele>
        <time>2016-10-16T16:11:23Z</time>
      </trkpt>
      <trkpt lat="42.89858" lon="0.20068">
        <ele>2036.6987918098</ele>
        <time>2016-10-16T16:11:28Z</time>
      </trkpt>
      <trkpt lat="42.89864" lon="0.20071">
        <ele>2036.6987918098</ele>
        <time>2016-10-16T16:11:33Z</time>
      </trkpt>
      <trkpt lat="42.89866" lon="0.20073">
        <ele>2036.6987918098</ele>
        <time>2016-10-16T16:11:38Z</time>
      </trkpt>
      <trkpt lat="42.89868" lon="0.20071">
        <ele>2036.222918034</ele>
        <time>2016-10-16T16:11:43Z</time>
      </trkpt>
      <trkpt lat="42.89868" lon="0.20071">
        <ele>2036.222918034</ele>
        <time>2016-10-16T16:11:48Z</time>
      </trkpt>
      <trkpt lat="42.89868" lon="0.20067">
        <ele>2036.222918034</ele>
        <time>2016-10-16T16:11:53Z</time>
      </trkpt>
      <trkpt lat="42.89867" lon="0.20066">
        <ele>2036.222918034</ele>
        <time>2016-10-16T16:11:58Z</time>
      </trkpt>
      <trkpt lat="42.89866" lon="0.20065">
        <ele>2036.222918034</ele>
        <time>2016-10-16T16:12:03Z</time>
      </trkpt>
      <trkpt lat="42.89865" lon="0.20063">
        <ele>2036.222918034</ele>
        <time>2016-10-16T16:12:08Z</time>
      </trkpt>
      <trkpt lat="42.89867" lon="0.2006">
        <ele>2035.6439648244</ele>
        <time>2016-10-16T16:12:13Z</time>
      </trkpt>
      <trkpt lat="42.89867" lon="0.20058">
        <ele>2035.6439648244</ele>
        <time>2016-10-16T16:12:18Z</time>
      </trkpt>
      <trkpt lat="42.89868" lon="0.20056">
        <ele>2035.6439648244</ele>
        <time>2016-10-16T16:12:23Z</time>
      </trkpt>
      <trkpt lat="42.89869" lon="0.20055">
        <ele>2035.6439648244</ele>
        <time>2016-10-16T16:12:28Z</time>
      </trkpt>
      <trkpt lat="42.8987" lon="0.20059">
        <ele>2035.6439648244</ele>
        <time>2016-10-16T16:12:33Z</time>
      </trkpt>
      <trkpt lat="42.89873" lon="0.20064">
        <ele>2034.9849299461</ele>
        <time>2016-10-16T16:12:38Z</time>
      </trkpt>
      <trkpt lat="42.89878" lon="0.20066">
        <ele>2034.9849299461</ele>
        <time>2016-10-16T16:12:43Z</time>
      </trkpt>
      <trkpt lat="42.8988" lon="0.20066">
        <ele>2034.9849299461</ele>
        <time>2016-10-16T16:12:48Z</time>
      </trkpt>
      <trkpt lat="42.8988" lon="0.20066">
        <ele>2034.9849299461</ele>
        <time>2016-10-16T16:12:53Z</time>
      </trkpt>
      <trkpt lat="42.89879" lon="0.20066">
        <ele>2034.9849299461</ele>
        <time>2016-10-16T16:12:58Z</time>
      </trkpt>
      <trkpt lat="42.8988" lon="0.20069">
        <ele>2034.2529160068</ele>
        <time>2016-10-16T16:13:03Z</time>
      </trkpt>
      <trkpt lat="42.89879" lon="0.2007">
        <ele>2034.2529160068</ele>
        <time>2016-10-16T16:13:08Z</time>
      </trkpt>
      <trkpt lat="42.89879" lon="0.20073">
        <ele>2034.2529160068</ele>
        <time>2016-10-16T16:13:13Z</time>
      </trkpt>
      <trkpt lat="42.89876" lon="0.20078">
        <ele>2034.2529160068</ele>
        <time>2016-10-16T16:13:18Z</time>
      </trkpt>
      <trkpt lat="42.89874" lon="0.20082">
        <ele>2033.425864862</ele>
        <time>2016-10-16T16:13:23Z</time>
      </trkpt>
      <trkpt lat="42.89874" lon="0.20088">
        <ele>2033.425864862</ele>
        <time>2016-10-16T16:13:28Z</time>
      </trkpt>
      <trkpt lat="42.89875" lon="0.20091">
        <ele>2033.425864862</ele>
        <time>2016-10-16T16:13:33Z</time>
      </trkpt>
      <trkpt lat="42.89875" lon="0.20095">
        <ele>2032.5556368212</ele>
        <time>2016-10-16T16:13:38Z</time>
      </trkpt>
      <trkpt lat="42.89875" lon="0.20096">
        <ele>2032.5556368212</ele>
        <time>2016-10-16T16:13:43Z</time>
      </trkpt>
      <trkpt lat="42.89873" lon="0.20099">
        <ele>2032.5556368212</ele>
        <time>2016-10-16T16:13:48Z</time>
      </trkpt>
      <trkpt lat="42.89871" lon="0.20104">
        <ele>2032.5556368212</ele>
        <time>2016-10-16T16:13:53Z</time>
      </trkpt>
      <trkpt lat="42.8987" lon="0.20107">
        <ele>2031.5606764523</ele>
        <time>2016-10-16T16:13:58Z</time>
      </trkpt>
      <trkpt lat="42.89869" lon="0.20111">
        <ele>2031.5606764523</ele>
        <time>2016-10-16T16:14:03Z</time>
      </trkpt>
      <trkpt lat="42.89866" lon="0.20118">
        <ele>2030.5386721115</ele>
        <time>2016-10-16T16:14:08Z</time>
      </trkpt>
      <trkpt lat="42.89865" lon="0.2012">
        <ele>2030.5386721115</ele>
        <time>2016-10-16T16:14:13Z</time>
      </trkpt>
      <trkpt lat="42.89861" lon="0.20124">
        <ele>2030.5386721115</ele>
        <time>2016-10-16T16:14:18Z</time>
      </trkpt>
      <trkpt lat="42.8986" lon="0.20127">
        <ele>2029.4072442574</ele>
        <time>2016-10-16T16:14:23Z</time>
      </trkpt>
      <trkpt lat="42.89858" lon="0.20134">
        <ele>2029.4072442574</ele>
        <time>2016-10-16T16:14:28Z</time>
      </trkpt>
      <trkpt lat="42.89859" lon="0.20135">
        <ele>2029.4072442574</ele>
        <time>2016-10-16T16:14:33Z</time>
      </trkpt>
      <trkpt lat="42.89857" lon="0.20138">
        <ele>2028.1479780522</ele>
        <time>2016-10-16T16:14:38Z</time>
      </trkpt>
      <trkpt lat="42.89856" lon="0.20143">
        <ele>2028.1479780522</ele>
        <time>2016-10-16T16:14:43Z</time>
      </trkpt>
      <trkpt lat="42.89856" lon="0.20147">
        <ele>2028.1479780522</ele>
        <time>2016-10-16T16:14:48Z</time>
      </trkpt>
      <trkpt lat="42.89855" lon="0.20153">
        <ele>2026.7153049697</ele>
        <time>2016-10-16T16:14:53Z</time>
      </trkpt>
      <trkpt lat="42.89854" lon="0.20154">
        <ele>2026.7153049697</ele>
        <time>2016-10-16T16:14:58Z</time>
      </trkpt>
      <trkpt lat="42.89854" lon="0.20153">
        <ele>2026.7153049697</ele>
        <time>2016-10-16T16:15:03Z</time>
      </trkpt>
      <trkpt lat="42.89854" lon="0.20153">
        <ele>2026.7153049697</ele>
        <time>2016-10-16T16:15:08Z</time>
      </trkpt>
      <trkpt lat="42.89854" lon="0.20152">
        <ele>2026.7153049697</ele>
        <time>2016-10-16T16:15:13Z</time>
      </trkpt>
      <trkpt lat="42.89854" lon="0.20152">
        <ele>2026.7153049697</ele>
        <time>2016-10-16T16:15:18Z</time>
      </trkpt>
      <trkpt lat="42.89854" lon="0.20152">
        <ele>2026.7153049697</ele>
        <time>2016-10-16T16:15:23Z</time>
      </trkpt>
      <trkpt lat="42.89854" lon="0.2015">
        <ele>2026.7153049697</ele>
        <time>2016-10-16T16:15:28Z</time>
      </trkpt>
      <trkpt lat="42.89854" lon="0.2015">
        <ele>2026.7153049697</ele>
        <time>2016-10-16T16:15:33Z</time>
      </trkpt>
      <trkpt lat="42.89854" lon="0.2015">
        <ele>2026.7153049697</ele>
        <time>2016-10-16T16:15:38Z</time>
      </trkpt>
      <trkpt lat="42.89854" lon="0.20154">
        <ele>2026.7153049697</ele>
        <time>2016-10-16T16:15:43Z</time>
      </trkpt>
      <trkpt lat="42.89853" lon="0.20159">
        <ele>2024.5630524042</ele>
        <time>2016-10-16T16:15:48Z</time>
      </trkpt>
      <trkpt lat="42.89854" lon="0.20164">
        <ele>2024.5630524042</ele>
        <time>2016-10-16T16:15:53Z</time>
      </trkpt>
      <trkpt lat="42.89857" lon="0.20171">
        <ele>2022.2391430446</ele>
        <time>2016-10-16T16:15:58Z</time>
      </trkpt>
      <trkpt lat="42.89858" lon="0.2018">
        <ele>2022.2391430446</ele>
        <time>2016-10-16T16:16:03Z</time>
      </trkpt>
      <trkpt lat="42.89862" lon="0.20187">
        <ele>2019.7905097562</ele>
        <time>2016-10-16T16:16:08Z</time>
      </trkpt>
      <trkpt lat="42.89867" lon="0.20192">
        <ele>2019.7905097562</ele>
        <time>2016-10-16T16:16:13Z</time>
      </trkpt>
      <trkpt lat="42.89872" lon="0.202">
        <ele>2017.2320891688</ele>
        <time>2016-10-16T16:16:18Z</time>
      </trkpt>
      <trkpt lat="42.89875" lon="0.20205">
        <ele>2017.2320891688</ele>
        <time>2016-10-16T16:16:23Z</time>
      </trkpt>
      <trkpt lat="42.89879" lon="0.20211">
        <ele>2014.6067632005</ele>
        <time>2016-10-16T16:16:28Z</time>
      </trkpt>
      <trkpt lat="42.89884" lon="0.20215">
        <ele>2014.6067632005</ele>
        <time>2016-10-16T16:16:33Z</time>
      </trkpt>
      <trkpt lat="42.89889" lon="0.2022">
        <ele>2011.9399413721</ele>
        <time>2016-10-16T16:16:38Z</time>
      </trkpt>
      <trkpt lat="42.8989" lon="0.20226">
        <ele>2011.9399413721</ele>
        <time>2016-10-16T16:16:43Z</time>
      </trkpt>
      <trkpt lat="42.89893" lon="0.20232">
        <ele>2009.2551734996</ele>
        <time>2016-10-16T16:16:48Z</time>
      </trkpt>
      <trkpt lat="42.89896" lon="0.20239">
        <ele>2009.2551734996</ele>
        <time>2016-10-16T16:16:53Z</time>
      </trkpt>
      <trkpt lat="42.89899" lon="0.20241">
        <ele>2006.5742103463</ele>
        <time>2016-10-16T16:16:58Z</time>
      </trkpt>
      <trkpt lat="42.89903" lon="0.20242">
        <ele>2006.5742103463</ele>
        <time>2016-10-16T16:17:03Z</time>
      </trkpt>
      <trkpt lat="42.89907" lon="0.20246">
        <ele>2006.5742103463</ele>
        <time>2016-10-16T16:17:08Z</time>
      </trkpt>
      <trkpt lat="42.89911" lon="0.20253">
        <ele>2003.8305989688</ele>
        <time>2016-10-16T16:17:13Z</time>
      </trkpt>
      <trkpt lat="42.89914" lon="0.20258">
        <ele>2003.8305989688</ele>
        <time>2016-10-16T16:17:18Z</time>
      </trkpt>
      <trkpt lat="42.89918" lon="0.20263">
        <ele>2001.1501516747</ele>
        <time>2016-10-16T16:17:23Z</time>
      </trkpt>
      <trkpt lat="42.89923" lon="0.20269">
        <ele>2001.1501516747</ele>
        <time>2016-10-16T16:17:28Z</time>
      </trkpt>
      <trkpt lat="42.89928" lon="0.20271">
        <ele>1998.5770623745</ele>
        <time>2016-10-16T16:17:33Z</time>
      </trkpt>
      <trkpt lat="42.89933" lon="0.20272">
        <ele>1998.5770623745</ele>
        <time>2016-10-16T16:17:38Z</time>
      </trkpt>
      <trkpt lat="42.89939" lon="0.20276">
        <ele>1996.0797725749</ele>
        <time>2016-10-16T16:17:43Z</time>
      </trkpt>
      <trkpt lat="42.89942" lon="0.20283">
        <ele>1996.0797725749</ele>
        <time>2016-10-16T16:17:48Z</time>
      </trkpt>
      <trkpt lat="42.89943" lon="0.20289">
        <ele>1993.7007315886</ele>
        <time>2016-10-16T16:17:53Z</time>
      </trkpt>
      <trkpt lat="42.89946" lon="0.20297">
        <ele>1993.7007315886</ele>
        <time>2016-10-16T16:17:58Z</time>
      </trkpt>
      <trkpt lat="42.89949" lon="0.20304">
        <ele>1991.421138188</ele>
        <time>2016-10-16T16:18:03Z</time>
      </trkpt>
      <trkpt lat="42.89951" lon="0.20312">
        <ele>1991.421138188</ele>
        <time>2016-10-16T16:18:08Z</time>
      </trkpt>
      <trkpt lat="42.89951" lon="0.20319">
        <ele>1989.2519583744</ele>
        <time>2016-10-16T16:18:13Z</time>
      </trkpt>
      <trkpt lat="42.89951" lon="0.20327">
        <ele>1989.2519583744</ele>
        <time>2016-10-16T16:18:18Z</time>
      </trkpt>
      <trkpt lat="42.89952" lon="0.20334">
        <ele>1987.1884749126</ele>
        <time>2016-10-16T16:18:23Z</time>
      </trkpt>
      <trkpt lat="42.89952" lon="0.20339">
        <ele>1987.1884749126</ele>
        <time>2016-10-16T16:18:28Z</time>
      </trkpt>
      <trkpt lat="42.89954" lon="0.20345">
        <ele>1987.1884749126</ele>
        <time>2016-10-16T16:18:33Z</time>
      </trkpt>
      <trkpt lat="42.89958" lon="0.20351">
        <ele>1985.1393985966</ele>
        <time>2016-10-16T16:18:38Z</time>
      </trkpt>
      <trkpt lat="42.89959" lon="0.20358">
        <ele>1985.1393985966</ele>
        <time>2016-10-16T16:18:43Z</time>
      </trkpt>
      <trkpt lat="42.89963" lon="0.20364">
        <ele>1983.1928866255</ele>
        <time>2016-10-16T16:18:48Z</time>
      </trkpt>
      <trkpt lat="42.89965" lon="0.20369">
        <ele>1983.1928866255</ele>
        <time>2016-10-16T16:18:53Z</time>
      </trkpt>
      <trkpt lat="42.89966" lon="0.20376">
        <ele>1981.3437167825</ele>
        <time>2016-10-16T16:18:58Z</time>
      </trkpt>
      <trkpt lat="42.89969" lon="0.20381">
        <ele>1981.3437167825</ele>
        <time>2016-10-16T16:19:03Z</time>
      </trkpt>
      <trkpt lat="42.89971" lon="0.20387">
        <ele>1979.5722217028</ele>
        <time>2016-10-16T16:19:08Z</time>
      </trkpt>
      <trkpt lat="42.89972" lon="0.2039">
        <ele>1979.5722217028</ele>
        <time>2016-10-16T16:19:13Z</time>
      </trkpt>
      <trkpt lat="42.89976" lon="0.20395">
        <ele>1979.5722217028</ele>
        <time>2016-10-16T16:19:18Z</time>
      </trkpt>
      <trkpt lat="42.89978" lon="0.20397">
        <ele>1977.787765755</ele>
        <time>2016-10-16T16:19:23Z</time>
      </trkpt>
      <trkpt lat="42.89982" lon="0.204">
        <ele>1977.787765755</ele>
        <time>2016-10-16T16:19:28Z</time>
      </trkpt>
      <trkpt lat="42.89986" lon="0.20403">
        <ele>1977.787765755</ele>
        <time>2016-10-16T16:19:33Z</time>
      </trkpt>
      <trkpt lat="42.89988" lon="0.20407">
        <ele>1975.9639181254</ele>
        <time>2016-10-16T16:19:38Z</time>
      </trkpt>
      <trkpt lat="42.8999" lon="0.20411">
        <ele>1975.9639181254</ele>
        <time>2016-10-16T16:19:43Z</time>
      </trkpt>
      <trkpt lat="42.8999" lon="0.20416">
        <ele>1975.9639181254</ele>
        <time>2016-10-16T16:19:48Z</time>
      </trkpt>
      <trkpt lat="42.89989" lon="0.20416">
        <ele>1975.9639181254</ele>
        <time>2016-10-16T16:19:53Z</time>
      </trkpt>
      <trkpt lat="42.8999" lon="0.20416">
        <ele>1974.1626384713</ele>
        <time>2016-10-16T16:19:58Z</time>
      </trkpt>
      <trkpt lat="42.89994" lon="0.20419">
        <ele>1974.1626384713</ele>
        <time>2016-10-16T16:20:03Z</time>
      </trkpt>
      <trkpt lat="42.89997" lon="0.20423">
        <ele>1972.3546822851</ele>
        <time>2016-10-16T16:20:08Z</time>
      </trkpt>
      <trkpt lat="42.90001" lon="0.20427">
        <ele>1972.3546822851</ele>
        <time>2016-10-16T16:20:13Z</time>
      </trkpt>
      <trkpt lat="42.90002" lon="0.20427">
        <ele>1972.3546822851</ele>
        <time>2016-10-16T16:20:18Z</time>
      </trkpt>
      <trkpt lat="42.90004" lon="0.20426">
        <ele>1972.3546822851</ele>
        <time>2016-10-16T16:20:23Z</time>
      </trkpt>
      <trkpt lat="42.90004" lon="0.20429">
        <ele>1970.3255101067</ele>
        <time>2016-10-16T16:20:28Z</time>
      </trkpt>
      <trkpt lat="42.90007" lon="0.20425">
        <ele>1970.3255101067</ele>
        <time>2016-10-16T16:20:33Z</time>
      </trkpt>
      <trkpt lat="42.90008" lon="0.20424">
        <ele>1970.3255101067</ele>
        <time>2016-10-16T16:20:38Z</time>
      </trkpt>
      <trkpt lat="42.9001" lon="0.20425">
        <ele>1970.3255101067</ele>
        <time>2016-10-16T16:20:43Z</time>
      </trkpt>
      <trkpt lat="42.90011" lon="0.20425">
        <ele>1970.3255101067</ele>
        <time>2016-10-16T16:20:48Z</time>
      </trkpt>
      <trkpt lat="42.90013" lon="0.20424">
        <ele>1968.0353722003</ele>
        <time>2016-10-16T16:20:53Z</time>
      </trkpt>
      <trkpt lat="42.90014" lon="0.20424">
        <ele>1968.0353722003</ele>
        <time>2016-10-16T16:20:58Z</time>
      </trkpt>
      <trkpt lat="42.90017" lon="0.20424">
        <ele>1968.0353722003</ele>
        <time>2016-10-16T16:21:03Z</time>
      </trkpt>
      <trkpt lat="42.90019" lon="0.20426">
        <ele>1968.0353722003</ele>
        <time>2016-10-16T16:21:08Z</time>
      </trkpt>
      <trkpt lat="42.90019" lon="0.20426">
        <ele>1968.0353722003</ele>
        <time>2016-10-16T16:21:13Z</time>
      </trkpt>
      <trkpt lat="42.90022" lon="0.20428">
        <ele>1965.577761182</ele>
        <time>2016-10-16T16:21:18Z</time>
      </trkpt>
      <trkpt lat="42.90027" lon="0.20433">
        <ele>1965.577761182</ele>
        <time>2016-10-16T16:21:23Z</time>
      </trkpt>
      <trkpt lat="42.90031" lon="0.20441">
        <ele>1963.2702420894</ele>
        <time>2016-10-16T16:21:28Z</time>
      </trkpt>
      <trkpt lat="42.90035" lon="0.20447">
        <ele>1963.2702420894</ele>
        <time>2016-10-16T16:21:33Z</time>
      </trkpt>
      <trkpt lat="42.90037" lon="0.20453">
        <ele>1961.1038918264</ele>
        <time>2016-10-16T16:21:38Z</time>
      </trkpt>
      <trkpt lat="42.90036" lon="0.20458">
        <ele>1961.1038918264</ele>
        <time>2016-10-16T16:21:43Z</time>
      </trkpt>
      <trkpt lat="42.9004" lon="0.20462">
        <ele>1961.1038918264</ele>
        <time>2016-10-16T16:21:48Z</time>
      </trkpt>
      <trkpt lat="42.90043" lon="0.20464">
        <ele>1958.9834764913</ele>
        <time>2016-10-16T16:21:53Z</time>
      </trkpt>
      <trkpt lat="42.90046" lon="0.20468">
        <ele>1958.9834764913</ele>
        <time>2016-10-16T16:21:58Z</time>
      </trkpt>
      <trkpt lat="42.90049" lon="0.2047">
        <ele>1958.9834764913</ele>
        <time>2016-10-16T16:22:03Z</time>
      </trkpt>
      <trkpt lat="42.90049" lon="0.20472">
        <ele>1956.9214060064</ele>
        <time>2016-10-16T16:22:08Z</time>
      </trkpt>
      <trkpt lat="42.9005" lon="0.20477">
        <ele>1956.9214060064</ele>
        <time>2016-10-16T16:22:13Z</time>
      </trkpt>
      <trkpt lat="42.90052" lon="0.20481">
        <ele>1956.9214060064</ele>
        <time>2016-10-16T16:22:18Z</time>
      </trkpt>
      <trkpt lat="42.90052" lon="0.20485">
        <ele>1954.914506392</ele>
        <time>2016-10-16T16:22:23Z</time>
      </trkpt>
      <trkpt lat="42.90052" lon="0.20487">
        <ele>1954.914506392</ele>
        <time>2016-10-16T16:22:28Z</time>
      </trkpt>
      <trkpt lat="42.90054" lon="0.20488">
        <ele>1954.914506392</ele>
        <time>2016-10-16T16:22:33Z</time>
      </trkpt>
      <trkpt lat="42.90057" lon="0.20489">
        <ele>1954.914506392</ele>
        <time>2016-10-16T16:22:38Z</time>
      </trkpt>
      <trkpt lat="42.90057" lon="0.20496">
        <ele>1952.8875329339</ele>
        <time>2016-10-16T16:22:43Z</time>
      </trkpt>
      <trkpt lat="42.90059" lon="0.20497">
        <ele>1952.8875329339</ele>
        <time>2016-10-16T16:22:48Z</time>
      </trkpt>
      <trkpt lat="42.90061" lon="0.205">
        <ele>1952.8875329339</ele>
        <time>2016-10-16T16:22:53Z</time>
      </trkpt>
      <trkpt lat="42.90062" lon="0.20501">
        <ele>1952.8875329339</ele>
        <time>2016-10-16T16:22:58Z</time>
      </trkpt>
      <trkpt lat="42.90064" lon="0.20504">
        <ele>1950.7995574441</ele>
        <time>2016-10-16T16:23:03Z</time>
      </trkpt>
      <trkpt lat="42.90067" lon="0.20508">
        <ele>1950.7995574441</ele>
        <time>2016-10-16T16:23:08Z</time>
      </trkpt>
      <trkpt lat="42.9007" lon="0.20512">
        <ele>1950.7995574441</ele>
        <time>2016-10-16T16:23:13Z</time>
      </trkpt>
      <trkpt lat="42.90072" lon="0.20516">
        <ele>1948.7424441869</ele>
        <time>2016-10-16T16:23:18Z</time>
      </trkpt>
      <trkpt lat="42.90074" lon="0.20519">
        <ele>1948.7424441869</ele>
        <time>2016-10-16T16:23:23Z</time>
      </trkpt>
      <trkpt lat="42.90076" lon="0.20524">
        <ele>1948.7424441869</ele>
        <time>2016-10-16T16:23:28Z</time>
      </trkpt>
      <trkpt lat="42.9008" lon="0.20527">
        <ele>1946.6858523921</ele>
        <time>2016-10-16T16:23:33Z</time>
      </trkpt>
      <trkpt lat="42.90084" lon="0.20529">
        <ele>1946.6858523921</ele>
        <time>2016-10-16T16:23:38Z</time>
      </trkpt>
      <trkpt lat="42.90088" lon="0.20531">
        <ele>1946.6858523921</ele>
        <time>2016-10-16T16:23:43Z</time>
      </trkpt>
      <trkpt lat="42.90089" lon="0.20533">
        <ele>1944.6160024163</ele>
        <time>2016-10-16T16:23:48Z</time>
      </trkpt>
      <trkpt lat="42.90092" lon="0.20532">
        <ele>1944.6160024163</ele>
        <time>2016-10-16T16:23:53Z</time>
      </trkpt>
      <trkpt lat="42.90092" lon="0.20534">
        <ele>1944.6160024163</ele>
        <time>2016-10-16T16:23:58Z</time>
      </trkpt>
      <trkpt lat="42.90092" lon="0.20534">
        <ele>1944.6160024163</ele>
        <time>2016-10-16T16:24:03Z</time>
      </trkpt>
      <trkpt lat="42.90092" lon="0.20534">
        <ele>1944.6160024163</ele>
        <time>2016-10-16T16:24:08Z</time>
      </trkpt>
      <trkpt lat="42.90092" lon="0.20535">
        <ele>1944.6160024163</ele>
        <time>2016-10-16T16:24:13Z</time>
      </trkpt>
      <trkpt lat="42.90091" lon="0.20537">
        <ele>1944.6160024163</ele>
        <time>2016-10-16T16:24:18Z</time>
      </trkpt>
      <trkpt lat="42.90091" lon="0.20537">
        <ele>1944.6160024163</ele>
        <time>2016-10-16T16:24:23Z</time>
      </trkpt>
      <trkpt lat="42.90091" lon="0.20537">
        <ele>1944.6160024163</ele>
        <time>2016-10-16T16:24:28Z</time>
      </trkpt>
      <trkpt lat="42.90091" lon="0.20537">
        <ele>1944.6160024163</ele>
        <time>2016-10-16T16:24:33Z</time>
      </trkpt>
      <trkpt lat="42.90091" lon="0.20537">
        <ele>1944.6160024163</ele>
        <time>2016-10-16T16:24:38Z</time>
      </trkpt>
      <trkpt lat="42.90091" lon="0.20538">
        <ele>1944.6160024163</ele>
        <time>2016-10-16T16:24:43Z</time>
      </trkpt>
      <trkpt lat="42.90089" lon="0.20541">
        <ele>1942.4480347438</ele>
        <time>2016-10-16T16:24:48Z</time>
      </trkpt>
      <trkpt lat="42.90089" lon="0.20541">
        <ele>1942.4480347438</ele>
        <time>2016-10-16T16:24:53Z</time>
      </trkpt>
      <trkpt lat="42.90089" lon="0.20541">
        <ele>1942.4480347438</ele>
        <time>2016-10-16T16:24:58Z</time>
      </trkpt>
      <trkpt lat="42.90089" lon="0.20541">
        <ele>1942.4480347438</ele>
        <time>2016-10-16T16:25:03Z</time>
      </trkpt>
      <trkpt lat="42.90089" lon="0.20542">
        <ele>1942.4480347438</ele>
        <time>2016-10-16T16:25:08Z</time>
      </trkpt>
      <trkpt lat="42.90089" lon="0.20542">
        <ele>1942.4480347438</ele>
        <time>2016-10-16T16:25:13Z</time>
      </trkpt>
      <trkpt lat="42.90089" lon="0.20542">
        <ele>1942.4480347438</ele>
        <time>2016-10-16T16:25:18Z</time>
      </trkpt>
      <trkpt lat="42.90089" lon="0.20542">
        <ele>1942.4480347438</ele>
        <time>2016-10-16T16:25:23Z</time>
      </trkpt>
      <trkpt lat="42.90089" lon="0.20542">
        <ele>1942.4480347438</ele>
        <time>2016-10-16T16:25:28Z</time>
      </trkpt>
      <trkpt lat="42.90089" lon="0.20542">
        <ele>1942.4480347438</ele>
        <time>2016-10-16T16:25:33Z</time>
      </trkpt>
      <trkpt lat="42.90089" lon="0.20542">
        <ele>1942.4480347438</ele>
        <time>2016-10-16T16:25:38Z</time>
      </trkpt>
      <trkpt lat="42.90089" lon="0.20542">
        <ele>1942.4480347438</ele>
        <time>2016-10-16T16:25:43Z</time>
      </trkpt>
      <trkpt lat="42.90089" lon="0.20542">
        <ele>1942.4480347438</ele>
        <time>2016-10-16T16:25:48Z</time>
      </trkpt>
      <trkpt lat="42.90089" lon="0.20541">
        <ele>1942.4480347438</ele>
        <time>2016-10-16T16:25:53Z</time>
      </trkpt>
      <trkpt lat="42.90089" lon="0.20541">
        <ele>1942.4480347438</ele>
        <time>2016-10-16T16:25:58Z</time>
      </trkpt>
      <trkpt lat="42.90089" lon="0.20542">
        <ele>1942.4480347438</ele>
        <time>2016-10-16T16:26:03Z</time>
      </trkpt>
      <trkpt lat="42.90089" lon="0.20541">
        <ele>1942.4480347438</ele>
        <time>2016-10-16T16:26:08Z</time>
      </trkpt>
      <trkpt lat="42.90089" lon="0.20541">
        <ele>1942.4480347438</ele>
        <time>2016-10-16T16:26:13Z</time>
      </trkpt>
      <trkpt lat="42.90089" lon="0.20541">
        <ele>1942.4480347438</ele>
        <time>2016-10-16T16:26:18Z</time>
      </trkpt>
      <trkpt lat="42.90089" lon="0.2054">
        <ele>1942.4480347438</ele>
        <time>2016-10-16T16:26:23Z</time>
      </trkpt>
      <trkpt lat="42.9009" lon="0.20537">
        <ele>1942.4480347438</ele>
        <time>2016-10-16T16:26:28Z</time>
      </trkpt>
      <trkpt lat="42.9009" lon="0.20537">
        <ele>1942.4480347438</ele>
        <time>2016-10-16T16:26:33Z</time>
      </trkpt>
      <trkpt lat="42.90088" lon="0.20536">
        <ele>1942.4480347438</ele>
        <time>2016-10-16T16:26:38Z</time>
      </trkpt>
      <trkpt lat="42.90087" lon="0.20537">
        <ele>1939.4117934499</ele>
        <time>2016-10-16T16:26:43Z</time>
      </trkpt>
      <trkpt lat="42.90085" lon="0.20538">
        <ele>1939.4117934499</ele>
        <time>2016-10-16T16:26:48Z</time>
      </trkpt>
      <trkpt lat="42.90087" lon="0.20542">
        <ele>1939.4117934499</ele>
        <time>2016-10-16T16:26:53Z</time>
      </trkpt>
      <trkpt lat="42.90089" lon="0.20546">
        <ele>1939.4117934499</ele>
        <time>2016-10-16T16:26:58Z</time>
      </trkpt>
      <trkpt lat="42.90091" lon="0.20552">
        <ele>1936.0210066991</ele>
        <time>2016-10-16T16:27:03Z</time>
      </trkpt>
      <trkpt lat="42.90094" lon="0.20555">
        <ele>1936.0210066991</ele>
        <time>2016-10-16T16:27:08Z</time>
      </trkpt>
      <trkpt lat="42.90096" lon="0.20559">
        <ele>1936.0210066991</ele>
        <time>2016-10-16T16:27:13Z</time>
      </trkpt>
      <trkpt lat="42.90099" lon="0.20564">
        <ele>1932.6228849779</ele>
        <time>2016-10-16T16:27:18Z</time>
      </trkpt>
      <trkpt lat="42.90103" lon="0.20568">
        <ele>1932.6228849779</ele>
        <time>2016-10-16T16:27:23Z</time>
      </trkpt>
      <trkpt lat="42.90105" lon="0.20571">
        <ele>1932.6228849779</ele>
        <time>2016-10-16T16:27:28Z</time>
      </trkpt>
      <trkpt lat="42.90108" lon="0.20575">
        <ele>1929.2364414994</ele>
        <time>2016-10-16T16:27:33Z</time>
      </trkpt>
      <trkpt lat="42.9011" lon="0.20579">
        <ele>1929.2364414994</ele>
        <time>2016-10-16T16:27:38Z</time>
      </trkpt>
      <trkpt lat="42.9011" lon="0.20586">
        <ele>1929.2364414994</ele>
        <time>2016-10-16T16:27:43Z</time>
      </trkpt>
      <trkpt lat="42.90113" lon="0.20591">
        <ele>1925.9656426285</ele>
        <time>2016-10-16T16:27:48Z</time>
      </trkpt>
      <trkpt lat="42.90114" lon="0.20596">
        <ele>1925.9656426285</ele>
        <time>2016-10-16T16:27:53Z</time>
      </trkpt>
      <trkpt lat="42.90115" lon="0.20602">
        <ele>1925.9656426285</ele>
        <time>2016-10-16T16:27:58Z</time>
      </trkpt>
      <trkpt lat="42.90119" lon="0.20606">
        <ele>1922.8199372312</ele>
        <time>2016-10-16T16:28:03Z</time>
      </trkpt>
      <trkpt lat="42.90121" lon="0.20612">
        <ele>1922.8199372312</ele>
        <time>2016-10-16T16:28:08Z</time>
      </trkpt>
      <trkpt lat="42.90122" lon="0.20615">
        <ele>1922.8199372312</ele>
        <time>2016-10-16T16:28:13Z</time>
      </trkpt>
      <trkpt lat="42.90124" lon="0.2062">
        <ele>1919.8364586656</ele>
        <time>2016-10-16T16:28:18Z</time>
      </trkpt>
      <trkpt lat="42.90125" lon="0.20624">
        <ele>1919.8364586656</ele>
        <time>2016-10-16T16:28:23Z</time>
      </trkpt>
      <trkpt lat="42.90126" lon="0.2063">
        <ele>1919.8364586656</ele>
        <time>2016-10-16T16:28:28Z</time>
      </trkpt>
      <trkpt lat="42.90129" lon="0.20635">
        <ele>1917.0202403936</ele>
        <time>2016-10-16T16:28:33Z</time>
      </trkpt>
      <trkpt lat="42.90131" lon="0.20639">
        <ele>1917.0202403936</ele>
        <time>2016-10-16T16:28:38Z</time>
      </trkpt>
      <trkpt lat="42.90133" lon="0.20642">
        <ele>1917.0202403936</ele>
        <time>2016-10-16T16:28:43Z</time>
      </trkpt>
      <trkpt lat="42.90136" lon="0.20646">
        <ele>1914.360970633</ele>
        <time>2016-10-16T16:28:48Z</time>
      </trkpt>
      <trkpt lat="42.90138" lon="0.2065">
        <ele>1914.360970633</ele>
        <time>2016-10-16T16:28:53Z</time>
      </trkpt>
      <trkpt lat="42.9014" lon="0.20653">
        <ele>1914.360970633</ele>
        <time>2016-10-16T16:28:58Z</time>
      </trkpt>
      <trkpt lat="42.9014" lon="0.2066">
        <ele>1911.83414975</ele>
        <time>2016-10-16T16:29:03Z</time>
      </trkpt>
      <trkpt lat="42.90143" lon="0.20665">
        <ele>1911.83414975</ele>
        <time>2016-10-16T16:29:08Z</time>
      </trkpt>
      <trkpt lat="42.90146" lon="0.2067">
        <ele>1909.4886706923</ele>
        <time>2016-10-16T16:29:13Z</time>
      </trkpt>
      <trkpt lat="42.90147" lon="0.20675">
        <ele>1909.4886706923</ele>
        <time>2016-10-16T16:29:18Z</time>
      </trkpt>
      <trkpt lat="42.90148" lon="0.2068">
        <ele>1909.4886706923</ele>
        <time>2016-10-16T16:29:23Z</time>
      </trkpt>
      <trkpt lat="42.9015" lon="0.20686">
        <ele>1907.1818943156</ele>
        <time>2016-10-16T16:29:28Z</time>
      </trkpt>
      <trkpt lat="42.90152" lon="0.2069">
        <ele>1907.1818943156</ele>
        <time>2016-10-16T16:29:33Z</time>
      </trkpt>
      <trkpt lat="42.90153" lon="0.20693">
        <ele>1907.1818943156</ele>
        <time>2016-10-16T16:29:38Z</time>
      </trkpt>
      <trkpt lat="42.90157" lon="0.20699">
        <ele>1904.867935392</ele>
        <time>2016-10-16T16:29:43Z</time>
      </trkpt>
      <trkpt lat="42.9016" lon="0.20704">
        <ele>1904.867935392</ele>
        <time>2016-10-16T16:29:48Z</time>
      </trkpt>
      <trkpt lat="42.90163" lon="0.2071">
        <ele>1902.6627449251</ele>
        <time>2016-10-16T16:29:53Z</time>
      </trkpt>
      <trkpt lat="42.90164" lon="0.20715">
        <ele>1902.6627449251</ele>
        <time>2016-10-16T16:29:58Z</time>
      </trkpt>
      <trkpt lat="42.90164" lon="0.2072">
        <ele>1902.6627449251</ele>
        <time>2016-10-16T16:30:03Z</time>
      </trkpt>
      <trkpt lat="42.90163" lon="0.20723">
        <ele>1900.3995686418</ele>
        <time>2016-10-16T16:30:08Z</time>
      </trkpt>
      <trkpt lat="42.90166" lon="0.20722">
        <ele>1900.3995686418</ele>
        <time>2016-10-16T16:30:13Z</time>
      </trkpt>
      <trkpt lat="42.90166" lon="0.20724">
        <ele>1900.3995686418</ele>
        <time>2016-10-16T16:30:18Z</time>
      </trkpt>
      <trkpt lat="42.90166" lon="0.20728">
        <ele>1900.3995686418</ele>
        <time>2016-10-16T16:30:23Z</time>
      </trkpt>
      <trkpt lat="42.90168" lon="0.20731">
        <ele>1897.9816431958</ele>
        <time>2016-10-16T16:30:28Z</time>
      </trkpt>
      <trkpt lat="42.90169" lon="0.20731">
        <ele>1897.9816431958</ele>
        <time>2016-10-16T16:30:33Z</time>
      </trkpt>
      <trkpt lat="42.9017" lon="0.20735">
        <ele>1897.9816431958</ele>
        <time>2016-10-16T16:30:38Z</time>
      </trkpt>
      <trkpt lat="42.90171" lon="0.20735">
        <ele>1897.9816431958</ele>
        <time>2016-10-16T16:30:43Z</time>
      </trkpt>
      <trkpt lat="42.90175" lon="0.20737">
        <ele>1897.9816431958</ele>
        <time>2016-10-16T16:30:48Z</time>
      </trkpt>
      <trkpt lat="42.90177" lon="0.20737">
        <ele>1895.3052751251</ele>
        <time>2016-10-16T16:30:53Z</time>
      </trkpt>
      <trkpt lat="42.90177" lon="0.20738">
        <ele>1895.3052751251</ele>
        <time>2016-10-16T16:30:58Z</time>
      </trkpt>
      <trkpt lat="42.90177" lon="0.20739">
        <ele>1895.3052751251</ele>
        <time>2016-10-16T16:31:03Z</time>
      </trkpt>
      <trkpt lat="42.90176" lon="0.20743">
        <ele>1895.3052751251</ele>
        <time>2016-10-16T16:31:08Z</time>
      </trkpt>
      <trkpt lat="42.90175" lon="0.20748">
        <ele>1895.3052751251</ele>
        <time>2016-10-16T16:31:13Z</time>
      </trkpt>
      <trkpt lat="42.90172" lon="0.20751">
        <ele>1892.4479888127</ele>
        <time>2016-10-16T16:31:18Z</time>
      </trkpt>
      <trkpt lat="42.90168" lon="0.20754">
        <ele>1892.4479888127</ele>
        <time>2016-10-16T16:31:23Z</time>
      </trkpt>
      <trkpt lat="42.90166" lon="0.20757">
        <ele>1892.4479888127</ele>
        <time>2016-10-16T16:31:28Z</time>
      </trkpt>
      <trkpt lat="42.90163" lon="0.20761">
        <ele>1889.5685323339</ele>
        <time>2016-10-16T16:31:33Z</time>
      </trkpt>
      <trkpt lat="42.90163" lon="0.20764">
        <ele>1889.5685323339</ele>
        <time>2016-10-16T16:31:38Z</time>
      </trkpt>
      <trkpt lat="42.9016" lon="0.20766">
        <ele>1889.5685323339</ele>
        <time>2016-10-16T16:31:43Z</time>
      </trkpt>
      <trkpt lat="42.90157" lon="0.20772">
        <ele>1886.6698886327</ele>
        <time>2016-10-16T16:31:48Z</time>
      </trkpt>
      <trkpt lat="42.90156" lon="0.20775">
        <ele>1886.6698886327</ele>
        <time>2016-10-16T16:31:53Z</time>
      </trkpt>
      <trkpt lat="42.90154" lon="0.20777">
        <ele>1886.6698886327</ele>
        <time>2016-10-16T16:31:58Z</time>
      </trkpt>
      <trkpt lat="42.90148" lon="0.20779">
        <ele>1883.6971764675</ele>
        <time>2016-10-16T16:32:03Z</time>
      </trkpt>
      <trkpt lat="42.90146" lon="0.2078">
        <ele>1883.6971764675</ele>
        <time>2016-10-16T16:32:08Z</time>
      </trkpt>
      <trkpt lat="42.90145" lon="0.20782">
        <ele>1883.6971764675</ele>
        <time>2016-10-16T16:32:13Z</time>
      </trkpt>
      <trkpt lat="42.90145" lon="0.20782">
        <ele>1883.6971764675</ele>
        <time>2016-10-16T16:32:18Z</time>
      </trkpt>
      <trkpt lat="42.90146" lon="0.20782">
        <ele>1883.6971764675</ele>
        <time>2016-10-16T16:32:23Z</time>
      </trkpt>
      <trkpt lat="42.90149" lon="0.20784">
        <ele>1880.5420546403</ele>
        <time>2016-10-16T16:32:28Z</time>
      </trkpt>
      <trkpt lat="42.90153" lon="0.20784">
        <ele>1880.5420546403</ele>
        <time>2016-10-16T16:32:33Z</time>
      </trkpt>
      <trkpt lat="42.90157" lon="0.20786">
        <ele>1880.5420546403</ele>
        <time>2016-10-16T16:32:38Z</time>
      </trkpt>
      <trkpt lat="42.90159" lon="0.20788">
        <ele>1877.3784080635</ele>
        <time>2016-10-16T16:32:43Z</time>
      </trkpt>
      <trkpt lat="42.90162" lon="0.20789">
        <ele>1877.3784080635</ele>
        <time>2016-10-16T16:32:48Z</time>
      </trkpt>
      <trkpt lat="42.90163" lon="0.20789">
        <ele>1877.3784080635</ele>
        <time>2016-10-16T16:32:53Z</time>
      </trkpt>
      <trkpt lat="42.90165" lon="0.20788">
        <ele>1877.3784080635</ele>
        <time>2016-10-16T16:32:58Z</time>
      </trkpt>
      <trkpt lat="42.90168" lon="0.20787">
        <ele>1874.1655598403</ele>
        <time>2016-10-16T16:33:03Z</time>
      </trkpt>
      <trkpt lat="42.90171" lon="0.20787">
        <ele>1874.1655598403</ele>
        <time>2016-10-16T16:33:08Z</time>
      </trkpt>
      <trkpt lat="42.90176" lon="0.20783">
        <ele>1874.1655598403</ele>
        <time>2016-10-16T16:33:13Z</time>
      </trkpt>
      <trkpt lat="42.90179" lon="0.20782">
        <ele>1871.0676570255</ele>
        <time>2016-10-16T16:33:18Z</time>
      </trkpt>
      <trkpt lat="42.90181" lon="0.20783">
        <ele>1871.0676570255</ele>
        <time>2016-10-16T16:33:23Z</time>
      </trkpt>
      <trkpt lat="42.90185" lon="0.20785">
        <ele>1871.0676570255</ele>
        <time>2016-10-16T16:33:28Z</time>
      </trkpt>
      <trkpt lat="42.90187" lon="0.20788">
        <ele>1868.1067073075</ele>
        <time>2016-10-16T16:33:33Z</time>
      </trkpt>
      <trkpt lat="42.90187" lon="0.2079">
        <ele>1868.1067073075</ele>
        <time>2016-10-16T16:33:38Z</time>
      </trkpt>
      <trkpt lat="42.90188" lon="0.2079">
        <ele>1868.1067073075</ele>
        <time>2016-10-16T16:33:43Z</time>
      </trkpt>
      <trkpt lat="42.90189" lon="0.20791">
        <ele>1868.1067073075</ele>
        <time>2016-10-16T16:33:48Z</time>
      </trkpt>
      <trkpt lat="42.90191" lon="0.20793">
        <ele>1868.1067073075</ele>
        <time>2016-10-16T16:33:53Z</time>
      </trkpt>
      <trkpt lat="42.90194" lon="0.20793">
        <ele>1865.1441361585</ele>
        <time>2016-10-16T16:33:58Z</time>
      </trkpt>
      <trkpt lat="42.90197" lon="0.20791">
        <ele>1865.1441361585</ele>
        <time>2016-10-16T16:34:03Z</time>
      </trkpt>
      <trkpt lat="42.902" lon="0.20793">
        <ele>1865.1441361585</ele>
        <time>2016-10-16T16:34:08Z</time>
      </trkpt>
      <trkpt lat="42.90204" lon="0.20795">
        <ele>1862.2676613296</ele>
        <time>2016-10-16T16:34:13Z</time>
      </trkpt>
      <trkpt lat="42.90206" lon="0.20799">
        <ele>1862.2676613296</ele>
        <time>2016-10-16T16:34:18Z</time>
      </trkpt>
      <trkpt lat="42.90209" lon="0.208">
        <ele>1862.2676613296</ele>
        <time>2016-10-16T16:34:23Z</time>
      </trkpt>
      <trkpt lat="42.90212" lon="0.20805">
        <ele>1859.5006135821</ele>
        <time>2016-10-16T16:34:28Z</time>
      </trkpt>
      <trkpt lat="42.90213" lon="0.20809">
        <ele>1859.5006135821</ele>
        <time>2016-10-16T16:34:33Z</time>
      </trkpt>
      <trkpt lat="42.90212" lon="0.20812">
        <ele>1859.5006135821</ele>
        <time>2016-10-16T16:34:38Z</time>
      </trkpt>
      <trkpt lat="42.90213" lon="0.20812">
        <ele>1859.5006135821</ele>
        <time>2016-10-16T16:34:43Z</time>
      </trkpt>
      <trkpt lat="42.90213" lon="0.20815">
        <ele>1859.5006135821</ele>
        <time>2016-10-16T16:34:48Z</time>
      </trkpt>
      <trkpt lat="42.90213" lon="0.20819">
        <ele>1856.6913139606</ele>
        <time>2016-10-16T16:34:53Z</time>
      </trkpt>
      <trkpt lat="42.90215" lon="0.20824">
        <ele>1856.6913139606</ele>
        <time>2016-10-16T16:34:58Z</time>
      </trkpt>
      <trkpt lat="42.90214" lon="0.20829">
        <ele>1856.6913139606</ele>
        <time>2016-10-16T16:35:03Z</time>
      </trkpt>
      <trkpt lat="42.90213" lon="0.20833">
        <ele>1853.9298689498</ele>
        <time>2016-10-16T16:35:08Z</time>
      </trkpt>
      <trkpt lat="42.90214" lon="0.20835">
        <ele>1853.9298689498</ele>
        <time>2016-10-16T16:35:13Z</time>
      </trkpt>
      <trkpt lat="42.90214" lon="0.20836">
        <ele>1853.9298689498</ele>
        <time>2016-10-16T16:35:18Z</time>
      </trkpt>
      <trkpt lat="42.90216" lon="0.20835">
        <ele>1853.9298689498</ele>
        <time>2016-10-16T16:35:23Z</time>
      </trkpt>
      <trkpt lat="42.90218" lon="0.20836">
        <ele>1853.9298689498</ele>
        <time>2016-10-16T16:35:28Z</time>
      </trkpt>
      <trkpt lat="42.9022" lon="0.20834">
        <ele>1850.996947244</ele>
        <time>2016-10-16T16:35:33Z</time>
      </trkpt>
      <trkpt lat="42.90222" lon="0.20832">
        <ele>1850.996947244</ele>
        <time>2016-10-16T16:35:38Z</time>
      </trkpt>
      <trkpt lat="42.90223" lon="0.20834">
        <ele>1850.996947244</ele>
        <time>2016-10-16T16:35:43Z</time>
      </trkpt>
      <trkpt lat="42.90224" lon="0.20835">
        <ele>1850.996947244</ele>
        <time>2016-10-16T16:35:48Z</time>
      </trkpt>
      <trkpt lat="42.90226" lon="0.20835">
        <ele>1850.996947244</ele>
        <time>2016-10-16T16:35:53Z</time>
      </trkpt>
      <trkpt lat="42.90229" lon="0.20834">
        <ele>1847.8626948441</ele>
        <time>2016-10-16T16:35:58Z</time>
      </trkpt>
      <trkpt lat="42.90231" lon="0.20834">
        <ele>1847.8626948441</ele>
        <time>2016-10-16T16:36:03Z</time>
      </trkpt>
      <trkpt lat="42.90234" lon="0.20834">
        <ele>1847.8626948441</ele>
        <time>2016-10-16T16:36:08Z</time>
      </trkpt>
      <trkpt lat="42.90235" lon="0.20837">
        <ele>1847.8626948441</ele>
        <time>2016-10-16T16:36:13Z</time>
      </trkpt>
      <trkpt lat="42.90241" lon="0.20833">
        <ele>1844.687312224</ele>
        <time>2016-10-16T16:36:18Z</time>
      </trkpt>
      <trkpt lat="42.90244" lon="0.20831">
        <ele>1844.687312224</ele>
        <time>2016-10-16T16:36:23Z</time>
      </trkpt>
      <trkpt lat="42.90244" lon="0.20832">
        <ele>1844.687312224</ele>
        <time>2016-10-16T16:36:28Z</time>
      </trkpt>
      <trkpt lat="42.90244" lon="0.20832">
        <ele>1844.687312224</ele>
        <time>2016-10-16T16:36:33Z</time>
      </trkpt>
      <trkpt lat="42.90245" lon="0.20832">
        <ele>1844.687312224</ele>
        <time>2016-10-16T16:36:38Z</time>
      </trkpt>
      <trkpt lat="42.90246" lon="0.20833">
        <ele>1844.687312224</ele>
        <time>2016-10-16T16:36:43Z</time>
      </trkpt>
      <trkpt lat="42.90246" lon="0.20833">
        <ele>1844.687312224</ele>
        <time>2016-10-16T16:36:48Z</time>
      </trkpt>
      <trkpt lat="42.90246" lon="0.20833">
        <ele>1844.687312224</ele>
        <time>2016-10-16T16:36:53Z</time>
      </trkpt>
      <trkpt lat="42.90246" lon="0.20833">
        <ele>1844.687312224</ele>
        <time>2016-10-16T16:36:58Z</time>
      </trkpt>
      <trkpt lat="42.90247" lon="0.20834">
        <ele>1844.687312224</ele>
        <time>2016-10-16T16:37:03Z</time>
      </trkpt>
      <trkpt lat="42.90247" lon="0.20834">
        <ele>1844.687312224</ele>
        <time>2016-10-16T16:37:08Z</time>
      </trkpt>
      <trkpt lat="42.90247" lon="0.20834">
        <ele>1844.687312224</ele>
        <time>2016-10-16T16:37:13Z</time>
      </trkpt>
      <trkpt lat="42.90248" lon="0.20835">
        <ele>1844.687312224</ele>
        <time>2016-10-16T16:37:18Z</time>
      </trkpt>
      <trkpt lat="42.90249" lon="0.20833">
        <ele>1841.4607772427</ele>
        <time>2016-10-16T16:37:23Z</time>
      </trkpt>
      <trkpt lat="42.90249" lon="0.20833">
        <ele>1841.4607772427</ele>
        <time>2016-10-16T16:37:28Z</time>
      </trkpt>
      <trkpt lat="42.90249" lon="0.20834">
        <ele>1841.4607772427</ele>
        <time>2016-10-16T16:37:33Z</time>
      </trkpt>
      <trkpt lat="42.90249" lon="0.20834">
        <ele>1841.4607772427</ele>
        <time>2016-10-16T16:37:38Z</time>
      </trkpt>
      <trkpt lat="42.90249" lon="0.20834">
        <ele>1841.4607772427</ele>
        <time>2016-10-16T16:37:43Z</time>
      </trkpt>
      <trkpt lat="42.90249" lon="0.20834">
        <ele>1841.4607772427</ele>
        <time>2016-10-16T16:37:48Z</time>
      </trkpt>
      <trkpt lat="42.90249" lon="0.20834">
        <ele>1841.4607772427</ele>
        <time>2016-10-16T16:37:53Z</time>
      </trkpt>
      <trkpt lat="42.90249" lon="0.20834">
        <ele>1841.4607772427</ele>
        <time>2016-10-16T16:37:58Z</time>
      </trkpt>
      <trkpt lat="42.90248" lon="0.20836">
        <ele>1841.4607772427</ele>
        <time>2016-10-16T16:38:03Z</time>
      </trkpt>
      <trkpt lat="42.90248" lon="0.20838">
        <ele>1841.4607772427</ele>
        <time>2016-10-16T16:38:08Z</time>
      </trkpt>
      <trkpt lat="42.90247" lon="0.20835">
        <ele>1841.4607772427</ele>
        <time>2016-10-16T16:38:13Z</time>
      </trkpt>
      <trkpt lat="42.90247" lon="0.20834">
        <ele>1841.4607772427</ele>
        <time>2016-10-16T16:38:18Z</time>
      </trkpt>
      <trkpt lat="42.90247" lon="0.20834">
        <ele>1841.4607772427</ele>
        <time>2016-10-16T16:38:23Z</time>
      </trkpt>
      <trkpt lat="42.90247" lon="0.20834">
        <ele>1841.4607772427</ele>
        <time>2016-10-16T16:38:28Z</time>
      </trkpt>
      <trkpt lat="42.90247" lon="0.20834">
        <ele>1841.4607772427</ele>
        <time>2016-10-16T16:38:33Z</time>
      </trkpt>
      <trkpt lat="42.90247" lon="0.20834">
        <ele>1841.4607772427</ele>
        <time>2016-10-16T16:38:38Z</time>
      </trkpt>
      <trkpt lat="42.90247" lon="0.20834">
        <ele>1841.4607772427</ele>
        <time>2016-10-16T16:38:43Z</time>
      </trkpt>
      <trkpt lat="42.90247" lon="0.20833">
        <ele>1841.4607772427</ele>
        <time>2016-10-16T16:38:48Z</time>
      </trkpt>
      <trkpt lat="42.90247" lon="0.20833">
        <ele>1841.4607772427</ele>
        <time>2016-10-16T16:38:53Z</time>
      </trkpt>
      <trkpt lat="42.90247" lon="0.20833">
        <ele>1841.4607772427</ele>
        <time>2016-10-16T16:38:58Z</time>
      </trkpt>
      <trkpt lat="42.90247" lon="0.20833">
        <ele>1841.4607772427</ele>
        <time>2016-10-16T16:39:03Z</time>
      </trkpt>
      <trkpt lat="42.90247" lon="0.20834">
        <ele>1837.7559765173</ele>
        <time>2016-10-16T16:39:08Z</time>
      </trkpt>
      <trkpt lat="42.90247" lon="0.20834">
        <ele>1837.7559765173</ele>
        <time>2016-10-16T16:39:13Z</time>
      </trkpt>
      <trkpt lat="42.90247" lon="0.20833">
        <ele>1837.7559765173</ele>
        <time>2016-10-16T16:39:18Z</time>
      </trkpt>
      <trkpt lat="42.90247" lon="0.20832">
        <ele>1837.7559765173</ele>
        <time>2016-10-16T16:39:23Z</time>
      </trkpt>
      <trkpt lat="42.90247" lon="0.20832">
        <ele>1837.7559765173</ele>
        <time>2016-10-16T16:39:28Z</time>
      </trkpt>
      <trkpt lat="42.90246" lon="0.20832">
        <ele>1837.7559765173</ele>
        <time>2016-10-16T16:39:33Z</time>
      </trkpt>
      <trkpt lat="42.90246" lon="0.20832">
        <ele>1837.7559765173</ele>
        <time>2016-10-16T16:39:38Z</time>
      </trkpt>
      <trkpt lat="42.90246" lon="0.20833">
        <ele>1837.7559765173</ele>
        <time>2016-10-16T16:39:43Z</time>
      </trkpt>
      <trkpt lat="42.90245" lon="0.20834">
        <ele>1837.7559765173</ele>
        <time>2016-10-16T16:39:48Z</time>
      </trkpt>
      <trkpt lat="42.90246" lon="0.20833">
        <ele>1837.7559765173</ele>
        <time>2016-10-16T16:39:53Z</time>
      </trkpt>
      <trkpt lat="42.90246" lon="0.20833">
        <ele>1837.7559765173</ele>
        <time>2016-10-16T16:39:58Z</time>
      </trkpt>
      <trkpt lat="42.90246" lon="0.20833">
        <ele>1837.7559765173</ele>
        <time>2016-10-16T16:40:03Z</time>
      </trkpt>
      <trkpt lat="42.90246" lon="0.20833">
        <ele>1837.7559765173</ele>
        <time>2016-10-16T16:40:08Z</time>
      </trkpt>
      <trkpt lat="42.90245" lon="0.20834">
        <ele>1837.7559765173</ele>
        <time>2016-10-16T16:40:13Z</time>
      </trkpt>
      <trkpt lat="42.90242" lon="0.20835">
        <ele>1833.5531514616</ele>
        <time>2016-10-16T16:40:18Z</time>
      </trkpt>
      <trkpt lat="42.90242" lon="0.20836">
        <ele>1833.5531514616</ele>
        <time>2016-10-16T16:40:23Z</time>
      </trkpt>
      <trkpt lat="42.90243" lon="0.20835">
        <ele>1833.5531514616</ele>
        <time>2016-10-16T16:40:28Z</time>
      </trkpt>
      <trkpt lat="42.90243" lon="0.20835">
        <ele>1833.5531514616</ele>
        <time>2016-10-16T16:40:33Z</time>
      </trkpt>
      <trkpt lat="42.90246" lon="0.20836">
        <ele>1833.5531514616</ele>
        <time>2016-10-16T16:40:38Z</time>
      </trkpt>
      <trkpt lat="42.90248" lon="0.20836">
        <ele>1833.5531514616</ele>
        <time>2016-10-16T16:40:43Z</time>
      </trkpt>
      <trkpt lat="42.90249" lon="0.20833">
        <ele>1829.282080864</ele>
        <time>2016-10-16T16:40:48Z</time>
      </trkpt>
      <trkpt lat="42.90247" lon="0.2083">
        <ele>1829.282080864</ele>
        <time>2016-10-16T16:40:53Z</time>
      </trkpt>
      <trkpt lat="42.90247" lon="0.20828">
        <ele>1829.282080864</ele>
        <time>2016-10-16T16:40:58Z</time>
      </trkpt>
      <trkpt lat="42.90248" lon="0.20828">
        <ele>1829.282080864</ele>
        <time>2016-10-16T16:41:03Z</time>
      </trkpt>
      <trkpt lat="42.9025" lon="0.20827">
        <ele>1829.282080864</ele>
        <time>2016-10-16T16:41:08Z</time>
      </trkpt>
      <trkpt lat="42.9025" lon="0.20826">
        <ele>1829.282080864</ele>
        <time>2016-10-16T16:41:13Z</time>
      </trkpt>
      <trkpt lat="42.90252" lon="0.20826">
        <ele>1825.0384684363</ele>
        <time>2016-10-16T16:41:18Z</time>
      </trkpt>
      <trkpt lat="42.90252" lon="0.20826">
        <ele>1825.0384684363</ele>
        <time>2016-10-16T16:41:23Z</time>
      </trkpt>
      <trkpt lat="42.90253" lon="0.20827">
        <ele>1825.0384684363</ele>
        <time>2016-10-16T16:41:28Z</time>
      </trkpt>
      <trkpt lat="42.90257" lon="0.2083">
        <ele>1825.0384684363</ele>
        <time>2016-10-16T16:41:33Z</time>
      </trkpt>
      <trkpt lat="42.90259" lon="0.20833">
        <ele>1821.0981867075</ele>
        <time>2016-10-16T16:41:38Z</time>
      </trkpt>
      <trkpt lat="42.90259" lon="0.20834">
        <ele>1821.0981867075</ele>
        <time>2016-10-16T16:41:43Z</time>
      </trkpt>
      <trkpt lat="42.90262" lon="0.20837">
        <ele>1821.0981867075</ele>
        <time>2016-10-16T16:41:48Z</time>
      </trkpt>
      <trkpt lat="42.90264" lon="0.20838">
        <ele>1821.0981867075</ele>
        <time>2016-10-16T16:41:53Z</time>
      </trkpt>
      <trkpt lat="42.90264" lon="0.20839">
        <ele>1821.0981867075</ele>
        <time>2016-10-16T16:41:58Z</time>
      </trkpt>
      <trkpt lat="42.90265" lon="0.20841">
        <ele>1817.4132843062</ele>
        <time>2016-10-16T16:42:03Z</time>
      </trkpt>
      <trkpt lat="42.90266" lon="0.20844">
        <ele>1817.4132843062</ele>
        <time>2016-10-16T16:42:08Z</time>
      </trkpt>
      <trkpt lat="42.90268" lon="0.20843">
        <ele>1817.4132843062</ele>
        <time>2016-10-16T16:42:13Z</time>
      </trkpt>
      <trkpt lat="42.90268" lon="0.20839">
        <ele>1817.4132843062</ele>
        <time>2016-10-16T16:42:18Z</time>
      </trkpt>
      <trkpt lat="42.90268" lon="0.2084">
        <ele>1817.4132843062</ele>
        <time>2016-10-16T16:42:23Z</time>
      </trkpt>
      <trkpt lat="42.90268" lon="0.20839">
        <ele>1817.4132843062</ele>
        <time>2016-10-16T16:42:28Z</time>
      </trkpt>
      <trkpt lat="42.9027" lon="0.20837">
        <ele>1813.996182613</ele>
        <time>2016-10-16T16:42:33Z</time>
      </trkpt>
      <trkpt lat="42.9027" lon="0.20837">
        <ele>1813.996182613</ele>
        <time>2016-10-16T16:42:38Z</time>
      </trkpt>
      <trkpt lat="42.90271" lon="0.20836">
        <ele>1813.996182613</ele>
        <time>2016-10-16T16:42:43Z</time>
      </trkpt>
      <trkpt lat="42.90272" lon="0.20837">
        <ele>1813.996182613</ele>
        <time>2016-10-16T16:42:48Z</time>
      </trkpt>
      <trkpt lat="42.90272" lon="0.20837">
        <ele>1813.996182613</ele>
        <time>2016-10-16T16:42:53Z</time>
      </trkpt>
      <trkpt lat="42.90272" lon="0.20839">
        <ele>1813.996182613</ele>
        <time>2016-10-16T16:42:58Z</time>
      </trkpt>
      <trkpt lat="42.90272" lon="0.20843">
        <ele>1813.996182613</ele>
        <time>2016-10-16T16:43:03Z</time>
      </trkpt>
      <trkpt lat="42.9027" lon="0.20843">
        <ele>1813.996182613</ele>
        <time>2016-10-16T16:43:08Z</time>
      </trkpt>
      <trkpt lat="42.9027" lon="0.20843">
        <ele>1813.996182613</ele>
        <time>2016-10-16T16:43:13Z</time>
      </trkpt>
      <trkpt lat="42.90271" lon="0.20845">
        <ele>1810.6558043504</ele>
        <time>2016-10-16T16:43:18Z</time>
      </trkpt>
      <trkpt lat="42.90271" lon="0.20845">
        <ele>1810.6558043504</ele>
        <time>2016-10-16T16:43:23Z</time>
      </trkpt>
      <trkpt lat="42.90274" lon="0.20845">
        <ele>1810.6558043504</ele>
        <time>2016-10-16T16:43:28Z</time>
      </trkpt>
      <trkpt lat="42.90275" lon="0.20846">
        <ele>1810.6558043504</ele>
        <time>2016-10-16T16:43:33Z</time>
      </trkpt>
      <trkpt lat="42.90276" lon="0.20846">
        <ele>1810.6558043504</ele>
        <time>2016-10-16T16:43:38Z</time>
      </trkpt>
      <trkpt lat="42.90278" lon="0.20847">
        <ele>1810.6558043504</ele>
        <time>2016-10-16T16:43:43Z</time>
      </trkpt>
      <trkpt lat="42.90279" lon="0.20845">
        <ele>1807.5318594906</ele>
        <time>2016-10-16T16:43:48Z</time>
      </trkpt>
      <trkpt lat="42.9028" lon="0.20846">
        <ele>1807.5318594906</ele>
        <time>2016-10-16T16:43:53Z</time>
      </trkpt>
      <trkpt lat="42.90279" lon="0.20849">
        <ele>1807.5318594906</ele>
        <time>2016-10-16T16:43:58Z</time>
      </trkpt>
      <trkpt lat="42.90278" lon="0.20848">
        <ele>1807.5318594906</ele>
        <time>2016-10-16T16:44:03Z</time>
      </trkpt>
      <trkpt lat="42.90279" lon="0.20851">
        <ele>1807.5318594906</ele>
        <time>2016-10-16T16:44:08Z</time>
      </trkpt>
      <trkpt lat="42.90279" lon="0.20852">
        <ele>1807.5318594906</ele>
        <time>2016-10-16T16:44:13Z</time>
      </trkpt>
      <trkpt lat="42.9028" lon="0.20852">
        <ele>1807.5318594906</ele>
        <time>2016-10-16T16:44:18Z</time>
      </trkpt>
      <trkpt lat="42.90284" lon="0.20853">
        <ele>1804.5945896621</ele>
        <time>2016-10-16T16:44:23Z</time>
      </trkpt>
      <trkpt lat="42.9029" lon="0.20858">
        <ele>1804.5945896621</ele>
        <time>2016-10-16T16:44:28Z</time>
      </trkpt>
      <trkpt lat="42.90297" lon="0.20858">
        <ele>1802.0031719386</ele>
        <time>2016-10-16T16:44:33Z</time>
      </trkpt>
      <trkpt lat="42.90303" lon="0.20859">
        <ele>1802.0031719386</ele>
        <time>2016-10-16T16:44:38Z</time>
      </trkpt>
      <trkpt lat="42.90306" lon="0.20862">
        <ele>1799.7167104339</ele>
        <time>2016-10-16T16:44:43Z</time>
      </trkpt>
      <trkpt lat="42.90311" lon="0.20866">
        <ele>1799.7167104339</ele>
        <time>2016-10-16T16:44:48Z</time>
      </trkpt>
      <trkpt lat="42.90313" lon="0.20869">
        <ele>1799.7167104339</ele>
        <time>2016-10-16T16:44:53Z</time>
      </trkpt>
      <trkpt lat="42.90315" lon="0.20872">
        <ele>1797.6531675833</ele>
        <time>2016-10-16T16:44:58Z</time>
      </trkpt>
      <trkpt lat="42.90318" lon="0.20874">
        <ele>1797.6531675833</ele>
        <time>2016-10-16T16:45:03Z</time>
      </trkpt>
      <trkpt lat="42.90319" lon="0.20876">
        <ele>1797.6531675833</ele>
        <time>2016-10-16T16:45:08Z</time>
      </trkpt>
      <trkpt lat="42.9032" lon="0.20876">
        <ele>1797.6531675833</ele>
        <time>2016-10-16T16:45:13Z</time>
      </trkpt>
      <trkpt lat="42.90322" lon="0.20875">
        <ele>1797.6531675833</ele>
        <time>2016-10-16T16:45:18Z</time>
      </trkpt>
      <trkpt lat="42.90323" lon="0.20876">
        <ele>1795.7070374167</ele>
        <time>2016-10-16T16:45:23Z</time>
      </trkpt>
      <trkpt lat="42.90324" lon="0.20876">
        <ele>1795.7070374167</ele>
        <time>2016-10-16T16:45:28Z</time>
      </trkpt>
      <trkpt lat="42.90325" lon="0.20878">
        <ele>1795.7070374167</ele>
        <time>2016-10-16T16:45:33Z</time>
      </trkpt>
      <trkpt lat="42.90326" lon="0.20878">
        <ele>1795.7070374167</ele>
        <time>2016-10-16T16:45:38Z</time>
      </trkpt>
      <trkpt lat="42.90328" lon="0.20879">
        <ele>1795.7070374167</ele>
        <time>2016-10-16T16:45:43Z</time>
      </trkpt>
      <trkpt lat="42.90331" lon="0.2088">
        <ele>1795.7070374167</ele>
        <time>2016-10-16T16:45:48Z</time>
      </trkpt>
      <trkpt lat="42.90332" lon="0.2088">
        <ele>1793.7513763566</ele>
        <time>2016-10-16T16:45:53Z</time>
      </trkpt>
      <trkpt lat="42.90334" lon="0.20882">
        <ele>1793.7513763566</ele>
        <time>2016-10-16T16:45:58Z</time>
      </trkpt>
      <trkpt lat="42.90336" lon="0.20884">
        <ele>1793.7513763566</ele>
        <time>2016-10-16T16:46:03Z</time>
      </trkpt>
      <trkpt lat="42.90337" lon="0.20885">
        <ele>1793.7513763566</ele>
        <time>2016-10-16T16:46:08Z</time>
      </trkpt>
      <trkpt lat="42.9034" lon="0.20889">
        <ele>1791.8991456246</ele>
        <time>2016-10-16T16:46:13Z</time>
      </trkpt>
      <trkpt lat="42.90342" lon="0.20891">
        <ele>1791.8991456246</ele>
        <time>2016-10-16T16:46:18Z</time>
      </trkpt>
      <trkpt lat="42.90344" lon="0.20894">
        <ele>1791.8991456246</ele>
        <time>2016-10-16T16:46:23Z</time>
      </trkpt>
      <trkpt lat="42.90346" lon="0.20897">
        <ele>1791.8991456246</ele>
        <time>2016-10-16T16:46:28Z</time>
      </trkpt>
      <trkpt lat="42.9035" lon="0.20897">
        <ele>1790.0961822824</ele>
        <time>2016-10-16T16:46:33Z</time>
      </trkpt>
      <trkpt lat="42.90353" lon="0.20897">
        <ele>1790.0961822824</ele>
        <time>2016-10-16T16:46:38Z</time>
      </trkpt>
      <trkpt lat="42.90356" lon="0.20899">
        <ele>1790.0961822824</ele>
        <time>2016-10-16T16:46:43Z</time>
      </trkpt>
      <trkpt lat="42.90359" lon="0.20902">
        <ele>1788.3930392331</ele>
        <time>2016-10-16T16:46:48Z</time>
      </trkpt>
      <trkpt lat="42.90358" lon="0.20905">
        <ele>1788.3930392331</ele>
        <time>2016-10-16T16:46:53Z</time>
      </trkpt>
      <trkpt lat="42.9036" lon="0.20907">
        <ele>1788.3930392331</ele>
        <time>2016-10-16T16:46:58Z</time>
      </trkpt>
      <trkpt lat="42.90364" lon="0.20907">
        <ele>1786.7786396157</ele>
        <time>2016-10-16T16:47:03Z</time>
      </trkpt>
      <trkpt lat="42.90367" lon="0.20908">
        <ele>1786.7786396157</ele>
        <time>2016-10-16T16:47:08Z</time>
      </trkpt>
      <trkpt lat="42.90369" lon="0.20908">
        <ele>1786.7786396157</ele>
        <time>2016-10-16T16:47:13Z</time>
      </trkpt>
      <trkpt lat="42.90371" lon="0.2091">
        <ele>1786.7786396157</ele>
        <time>2016-10-16T16:47:18Z</time>
      </trkpt>
      <trkpt lat="42.90372" lon="0.2091">
        <ele>1786.7786396157</ele>
        <time>2016-10-16T16:47:23Z</time>
      </trkpt>
      <trkpt lat="42.90374" lon="0.2091">
        <ele>1785.0695566362</ele>
        <time>2016-10-16T16:47:28Z</time>
      </trkpt>
      <trkpt lat="42.90376" lon="0.20911">
        <ele>1785.0695566362</ele>
        <time>2016-10-16T16:47:33Z</time>
      </trkpt>
      <trkpt lat="42.90379" lon="0.20915">
        <ele>1785.0695566362</ele>
        <time>2016-10-16T16:47:38Z</time>
      </trkpt>
      <trkpt lat="42.90381" lon="0.20918">
        <ele>1783.4419990744</ele>
        <time>2016-10-16T16:47:43Z</time>
      </trkpt>
      <trkpt lat="42.90383" lon="0.2092">
        <ele>1783.4419990744</ele>
        <time>2016-10-16T16:47:48Z</time>
      </trkpt>
      <trkpt lat="42.90386" lon="0.20923">
        <ele>1783.4419990744</ele>
        <time>2016-10-16T16:47:53Z</time>
      </trkpt>
      <trkpt lat="42.90388" lon="0.20925">
        <ele>1783.4419990744</ele>
        <time>2016-10-16T16:47:58Z</time>
      </trkpt>
      <trkpt lat="42.90389" lon="0.20928">
        <ele>1781.8284631002</ele>
        <time>2016-10-16T16:48:03Z</time>
      </trkpt>
      <trkpt lat="42.90392" lon="0.20928">
        <ele>1781.8284631002</ele>
        <time>2016-10-16T16:48:08Z</time>
      </trkpt>
      <trkpt lat="42.90394" lon="0.20929">
        <ele>1781.8284631002</ele>
        <time>2016-10-16T16:48:13Z</time>
      </trkpt>
      <trkpt lat="42.90396" lon="0.2093">
        <ele>1781.8284631002</ele>
        <time>2016-10-16T16:48:18Z</time>
      </trkpt>
      <trkpt lat="42.90399" lon="0.20931">
        <ele>1780.2528779612</ele>
        <time>2016-10-16T16:48:23Z</time>
      </trkpt>
      <trkpt lat="42.90402" lon="0.20932">
        <ele>1780.2528779612</ele>
        <time>2016-10-16T16:48:28Z</time>
      </trkpt>
      <trkpt lat="42.90406" lon="0.20933">
        <ele>1780.2528779612</ele>
        <time>2016-10-16T16:48:33Z</time>
      </trkpt>
      <trkpt lat="42.90409" lon="0.20934">
        <ele>1778.7805971355</ele>
        <time>2016-10-16T16:48:38Z</time>
      </trkpt>
      <trkpt lat="42.90413" lon="0.20937">
        <ele>1778.7805971355</ele>
        <time>2016-10-16T16:48:43Z</time>
      </trkpt>
      <trkpt lat="42.90416" lon="0.20939">
        <ele>1778.7805971355</ele>
        <time>2016-10-16T16:48:48Z</time>
      </trkpt>
      <trkpt lat="42.90416" lon="0.2094">
        <ele>1778.7805971355</ele>
        <time>2016-10-16T16:48:53Z</time>
      </trkpt>
      <trkpt lat="42.90417" lon="0.20941">
        <ele>1777.3566576064</ele>
        <time>2016-10-16T16:48:58Z</time>
      </trkpt>
      <trkpt lat="42.90418" lon="0.20943">
        <ele>1777.3566576064</ele>
        <time>2016-10-16T16:49:03Z</time>
      </trkpt>
      <trkpt lat="42.90423" lon="0.20943">
        <ele>1777.3566576064</ele>
        <time>2016-10-16T16:49:08Z</time>
      </trkpt>
      <trkpt lat="42.90426" lon="0.20944">
        <ele>1775.9733022569</ele>
        <time>2016-10-16T16:49:13Z</time>
      </trkpt>
      <trkpt lat="42.9043" lon="0.20945">
        <ele>1775.9733022569</ele>
        <time>2016-10-16T16:49:18Z</time>
      </trkpt>
      <trkpt lat="42.90435" lon="0.20945">
        <ele>1774.7097746377</ele>
        <time>2016-10-16T16:49:23Z</time>
      </trkpt>
      <trkpt lat="42.90437" lon="0.2095">
        <ele>1774.7097746377</ele>
        <time>2016-10-16T16:49:28Z</time>
      </trkpt>
      <trkpt lat="42.90441" lon="0.20954">
        <ele>1773.5239572066</ele>
        <time>2016-10-16T16:49:33Z</time>
      </trkpt>
      <trkpt lat="42.90445" lon="0.2096">
        <ele>1773.5239572066</ele>
        <time>2016-10-16T16:49:38Z</time>
      </trkpt>
      <trkpt lat="42.90445" lon="0.20964">
        <ele>1773.5239572066</ele>
        <time>2016-10-16T16:49:43Z</time>
      </trkpt>
      <trkpt lat="42.90445" lon="0.20964">
        <ele>1773.5239572066</ele>
        <time>2016-10-16T16:49:48Z</time>
      </trkpt>
      <trkpt lat="42.90445" lon="0.20965">
        <ele>1772.4055227632</ele>
        <time>2016-10-16T16:49:53Z</time>
      </trkpt>
      <trkpt lat="42.90445" lon="0.20965">
        <ele>1772.4055227632</ele>
        <time>2016-10-16T16:49:58Z</time>
      </trkpt>
      <trkpt lat="42.90445" lon="0.20965">
        <ele>1772.4055227632</ele>
        <time>2016-10-16T16:50:03Z</time>
      </trkpt>
      <trkpt lat="42.90446" lon="0.20965">
        <ele>1772.4055227632</ele>
        <time>2016-10-16T16:50:08Z</time>
      </trkpt>
      <trkpt lat="42.90448" lon="0.20966">
        <ele>1772.4055227632</ele>
        <time>2016-10-16T16:50:13Z</time>
      </trkpt>
      <trkpt lat="42.90451" lon="0.20964">
        <ele>1772.4055227632</ele>
        <time>2016-10-16T16:50:18Z</time>
      </trkpt>
      <trkpt lat="42.90453" lon="0.20963">
        <ele>1770.8404227593</ele>
        <time>2016-10-16T16:50:23Z</time>
      </trkpt>
      <trkpt lat="42.90455" lon="0.20962">
        <ele>1770.8404227593</ele>
        <time>2016-10-16T16:50:28Z</time>
      </trkpt>
      <trkpt lat="42.90455" lon="0.20958">
        <ele>1770.8404227593</ele>
        <time>2016-10-16T16:50:33Z</time>
      </trkpt>
      <trkpt lat="42.90455" lon="0.20956">
        <ele>1770.8404227593</ele>
        <time>2016-10-16T16:50:38Z</time>
      </trkpt>
      <trkpt lat="42.90455" lon="0.20955">
        <ele>1770.8404227593</ele>
        <time>2016-10-16T16:50:43Z</time>
      </trkpt>
      <trkpt lat="42.90456" lon="0.2095">
        <ele>1768.8869372156</ele>
        <time>2016-10-16T16:50:48Z</time>
      </trkpt>
      <trkpt lat="42.9046" lon="0.20947">
        <ele>1768.8869372156</ele>
        <time>2016-10-16T16:50:53Z</time>
      </trkpt>
      <trkpt lat="42.90461" lon="0.20945">
        <ele>1768.8869372156</ele>
        <time>2016-10-16T16:50:58Z</time>
      </trkpt>
      <trkpt lat="42.90462" lon="0.20945">
        <ele>1768.8869372156</ele>
        <time>2016-10-16T16:51:03Z</time>
      </trkpt>
      <trkpt lat="42.90462" lon="0.20944">
        <ele>1768.8869372156</ele>
        <time>2016-10-16T16:51:08Z</time>
      </trkpt>
      <trkpt lat="42.90464" lon="0.20942">
        <ele>1766.7011369475</ele>
        <time>2016-10-16T16:51:13Z</time>
      </trkpt>
      <trkpt lat="42.90465" lon="0.20941">
        <ele>1766.7011369475</ele>
        <time>2016-10-16T16:51:18Z</time>
      </trkpt>
      <trkpt lat="42.90466" lon="0.20941">
        <ele>1766.7011369475</ele>
        <time>2016-10-16T16:51:23Z</time>
      </trkpt>
      <trkpt lat="42.90467" lon="0.20942">
        <ele>1766.7011369475</ele>
        <time>2016-10-16T16:51:28Z</time>
      </trkpt>
      <trkpt lat="42.90468" lon="0.20943">
        <ele>1766.7011369475</ele>
        <time>2016-10-16T16:51:33Z</time>
      </trkpt>
      <trkpt lat="42.90471" lon="0.20943">
        <ele>1766.7011369475</ele>
        <time>2016-10-16T16:51:38Z</time>
      </trkpt>
      <trkpt lat="42.90473" lon="0.20945">
        <ele>1764.154572174</ele>
        <time>2016-10-16T16:51:43Z</time>
      </trkpt>
      <trkpt lat="42.90473" lon="0.20945">
        <ele>1764.154572174</ele>
        <time>2016-10-16T16:51:48Z</time>
      </trkpt>
      <trkpt lat="42.90473" lon="0.20948">
        <ele>1764.154572174</ele>
        <time>2016-10-16T16:51:53Z</time>
      </trkpt>
      <trkpt lat="42.90473" lon="0.20947">
        <ele>1764.154572174</ele>
        <time>2016-10-16T16:51:58Z</time>
      </trkpt>
      <trkpt lat="42.90471" lon="0.20951">
        <ele>1764.154572174</ele>
        <time>2016-10-16T16:52:03Z</time>
      </trkpt>
      <trkpt lat="42.9047" lon="0.20952">
        <ele>1764.154572174</ele>
        <time>2016-10-16T16:52:08Z</time>
      </trkpt>
      <trkpt lat="42.9047" lon="0.20952">
        <ele>1764.154572174</ele>
        <time>2016-10-16T16:52:13Z</time>
      </trkpt>
      <trkpt lat="42.90472" lon="0.20953">
        <ele>1761.3022741888</ele>
        <time>2016-10-16T16:52:18Z</time>
      </trkpt>
      <trkpt lat="42.90473" lon="0.20953">
        <ele>1761.3022741888</ele>
        <time>2016-10-16T16:52:23Z</time>
      </trkpt>
      <trkpt lat="42.90474" lon="0.20953">
        <ele>1761.3022741888</ele>
        <time>2016-10-16T16:52:28Z</time>
      </trkpt>
      <trkpt lat="42.90475" lon="0.20954">
        <ele>1761.3022741888</ele>
        <time>2016-10-16T16:52:33Z</time>
      </trkpt>
      <trkpt lat="42.90477" lon="0.20954">
        <ele>1761.3022741888</ele>
        <time>2016-10-16T16:52:38Z</time>
      </trkpt>
      <trkpt lat="42.90478" lon="0.20954">
        <ele>1761.3022741888</ele>
        <time>2016-10-16T16:52:43Z</time>
      </trkpt>
      <trkpt lat="42.90481" lon="0.20952">
        <ele>1761.3022741888</ele>
        <time>2016-10-16T16:52:48Z</time>
      </trkpt>
      <trkpt lat="42.90483" lon="0.2095">
        <ele>1758.196182588</ele>
        <time>2016-10-16T16:52:53Z</time>
      </trkpt>
      <trkpt lat="42.90487" lon="0.20949">
        <ele>1758.196182588</ele>
        <time>2016-10-16T16:52:58Z</time>
      </trkpt>
      <trkpt lat="42.90489" lon="0.20949">
        <ele>1758.196182588</ele>
        <time>2016-10-16T16:53:03Z</time>
      </trkpt>
      <trkpt lat="42.90492" lon="0.20947">
        <ele>1755.1302073652</ele>
        <time>2016-10-16T16:53:08Z</time>
      </trkpt>
      <trkpt lat="42.90495" lon="0.20944">
        <ele>1755.1302073652</ele>
        <time>2016-10-16T16:53:13Z</time>
      </trkpt>
      <trkpt lat="42.90499" lon="0.20942">
        <ele>1755.1302073652</ele>
        <time>2016-10-16T16:53:18Z</time>
      </trkpt>
      <trkpt lat="42.90502" lon="0.20938">
        <ele>1752.0595863586</ele>
        <time>2016-10-16T16:53:23Z</time>
      </trkpt>
      <trkpt lat="42.90503" lon="0.20937">
        <ele>1752.0595863586</ele>
        <time>2016-10-16T16:53:28Z</time>
      </trkpt>
      <trkpt lat="42.90503" lon="0.20937">
        <ele>1752.0595863586</ele>
        <time>2016-10-16T16:53:33Z</time>
      </trkpt>
      <trkpt lat="42.90503" lon="0.20935">
        <ele>1752.0595863586</ele>
        <time>2016-10-16T16:53:38Z</time>
      </trkpt>
      <trkpt lat="42.90504" lon="0.20933">
        <ele>1752.0595863586</ele>
        <time>2016-10-16T16:53:43Z</time>
      </trkpt>
      <trkpt lat="42.90504" lon="0.20931">
        <ele>1752.0595863586</ele>
        <time>2016-10-16T16:53:48Z</time>
      </trkpt>
      <trkpt lat="42.90504" lon="0.20932">
        <ele>1752.0595863586</ele>
        <time>2016-10-16T16:53:53Z</time>
      </trkpt>
      <trkpt lat="42.90505" lon="0.20933">
        <ele>1752.0595863586</ele>
        <time>2016-10-16T16:53:58Z</time>
      </trkpt>
      <trkpt lat="42.90505" lon="0.20932">
        <ele>1752.0595863586</ele>
        <time>2016-10-16T16:54:03Z</time>
      </trkpt>
      <trkpt lat="42.90507" lon="0.2093">
        <ele>1748.4529453023</ele>
        <time>2016-10-16T16:54:08Z</time>
      </trkpt>
      <trkpt lat="42.90508" lon="0.20928">
        <ele>1748.4529453023</ele>
        <time>2016-10-16T16:54:13Z</time>
      </trkpt>
      <trkpt lat="42.90509" lon="0.20926">
        <ele>1748.4529453023</ele>
        <time>2016-10-16T16:54:18Z</time>
      </trkpt>
      <trkpt lat="42.9051" lon="0.20926">
        <ele>1748.4529453023</ele>
        <time>2016-10-16T16:54:23Z</time>
      </trkpt>
      <trkpt lat="42.90511" lon="0.20926">
        <ele>1748.4529453023</ele>
        <time>2016-10-16T16:54:28Z</time>
      </trkpt>
      <trkpt lat="42.90511" lon="0.20922">
        <ele>1748.4529453023</ele>
        <time>2016-10-16T16:54:33Z</time>
      </trkpt>
      <trkpt lat="42.9051" lon="0.20918">
        <ele>1744.46800114</ele>
        <time>2016-10-16T16:54:38Z</time>
      </trkpt>
      <trkpt lat="42.90512" lon="0.2092">
        <ele>1744.46800114</ele>
        <time>2016-10-16T16:54:43Z</time>
      </trkpt>
      <trkpt lat="42.90513" lon="0.20919">
        <ele>1744.46800114</ele>
        <time>2016-10-16T16:54:48Z</time>
      </trkpt>
      <trkpt lat="42.90516" lon="0.20917">
        <ele>1744.46800114</ele>
        <time>2016-10-16T16:54:53Z</time>
      </trkpt>
      <trkpt lat="42.90519" lon="0.20915">
        <ele>1740.3816863443</ele>
        <time>2016-10-16T16:54:58Z</time>
      </trkpt>
      <trkpt lat="42.90519" lon="0.20913">
        <ele>1740.3816863443</ele>
        <time>2016-10-16T16:55:03Z</time>
      </trkpt>
      <trkpt lat="42.90521" lon="0.20913">
        <ele>1740.3816863443</ele>
        <time>2016-10-16T16:55:08Z</time>
      </trkpt>
      <trkpt lat="42.90521" lon="0.20913">
        <ele>1740.3816863443</ele>
        <time>2016-10-16T16:55:13Z</time>
      </trkpt>
      <trkpt lat="42.90521" lon="0.20912">
        <ele>1740.3816863443</ele>
        <time>2016-10-16T16:55:18Z</time>
      </trkpt>
      <trkpt lat="42.90524" lon="0.20912">
        <ele>1740.3816863443</ele>
        <time>2016-10-16T16:55:23Z</time>
      </trkpt>
      <trkpt lat="42.90526" lon="0.20912">
        <ele>1736.0906222775</ele>
        <time>2016-10-16T16:55:28Z</time>
      </trkpt>
      <trkpt lat="42.90527" lon="0.20913">
        <ele>1736.0906222775</ele>
        <time>2016-10-16T16:55:33Z</time>
      </trkpt>
      <trkpt lat="42.90529" lon="0.20912">
        <ele>1736.0906222775</ele>
        <time>2016-10-16T16:55:38Z</time>
      </trkpt>
      <trkpt lat="42.90531" lon="0.20911">
        <ele>1736.0906222775</ele>
        <time>2016-10-16T16:55:43Z</time>
      </trkpt>
      <trkpt lat="42.90531" lon="0.20911">
        <ele>1736.0906222775</ele>
        <time>2016-10-16T16:55:48Z</time>
      </trkpt>
      <trkpt lat="42.9053" lon="0.2091">
        <ele>1736.0906222775</ele>
        <time>2016-10-16T16:55:53Z</time>
      </trkpt>
      <trkpt lat="42.90531" lon="0.2091">
        <ele>1736.0906222775</ele>
        <time>2016-10-16T16:55:58Z</time>
      </trkpt>
      <trkpt lat="42.90531" lon="0.2091">
        <ele>1736.0906222775</ele>
        <time>2016-10-16T16:56:03Z</time>
      </trkpt>
      <trkpt lat="42.90531" lon="0.2091">
        <ele>1736.0906222775</ele>
        <time>2016-10-16T16:56:08Z</time>
      </trkpt>
      <trkpt lat="42.90531" lon="0.2091">
        <ele>1736.0906222775</ele>
        <time>2016-10-16T16:56:13Z</time>
      </trkpt>
      <trkpt lat="42.90531" lon="0.20911">
        <ele>1736.0906222775</ele>
        <time>2016-10-16T16:56:18Z</time>
      </trkpt>
      <trkpt lat="42.90531" lon="0.20911">
        <ele>1736.0906222775</ele>
        <time>2016-10-16T16:56:23Z</time>
      </trkpt>
      <trkpt lat="42.90531" lon="0.20912">
        <ele>1736.0906222775</ele>
        <time>2016-10-16T16:56:28Z</time>
      </trkpt>
      <trkpt lat="42.90531" lon="0.20912">
        <ele>1736.0906222775</ele>
        <time>2016-10-16T16:56:33Z</time>
      </trkpt>
      <trkpt lat="42.90531" lon="0.20912">
        <ele>1736.0906222775</ele>
        <time>2016-10-16T16:56:38Z</time>
      </trkpt>
      <trkpt lat="42.90532" lon="0.20912">
        <ele>1736.0906222775</ele>
        <time>2016-10-16T16:56:43Z</time>
      </trkpt>
      <trkpt lat="42.90532" lon="0.20912">
        <ele>1736.0906222775</ele>
        <time>2016-10-16T16:56:48Z</time>
      </trkpt>
      <trkpt lat="42.90532" lon="0.20912">
        <ele>1731.3843196437</ele>
        <time>2016-10-16T16:56:53Z</time>
      </trkpt>
      <trkpt lat="42.90532" lon="0.20912">
        <ele>1731.3843196437</ele>
        <time>2016-10-16T16:56:58Z</time>
      </trkpt>
      <trkpt lat="42.90533" lon="0.20912">
        <ele>1731.3843196437</ele>
        <time>2016-10-16T16:57:03Z</time>
      </trkpt>
      <trkpt lat="42.90533" lon="0.20913">
        <ele>1731.3843196437</ele>
        <time>2016-10-16T16:57:08Z</time>
      </trkpt>
      <trkpt lat="42.90533" lon="0.20912">
        <ele>1731.3843196437</ele>
        <time>2016-10-16T16:57:13Z</time>
      </trkpt>
      <trkpt lat="42.90541" lon="0.20915">
        <ele>1726.8326991697</ele>
        <time>2016-10-16T16:57:18Z</time>
      </trkpt>
      <trkpt lat="42.90541" lon="0.20915">
        <ele>1726.8326991697</ele>
        <time>2016-10-16T16:57:23Z</time>
      </trkpt>
      <trkpt lat="42.90541" lon="0.20915">
        <ele>1726.8326991697</ele>
        <time>2016-10-16T16:57:28Z</time>
      </trkpt>
      <trkpt lat="42.9054" lon="0.20915">
        <ele>1726.8326991697</ele>
        <time>2016-10-16T16:57:33Z</time>
      </trkpt>
      <trkpt lat="42.9054" lon="0.20915">
        <ele>1726.8326991697</ele>
        <time>2016-10-16T16:57:38Z</time>
      </trkpt>
      <trkpt lat="42.9054" lon="0.20915">
        <ele>1726.8326991697</ele>
        <time>2016-10-16T16:57:43Z</time>
      </trkpt>
      <trkpt lat="42.90539" lon="0.20915">
        <ele>1726.8326991697</ele>
        <time>2016-10-16T16:57:48Z</time>
      </trkpt>
      <trkpt lat="42.90539" lon="0.20915">
        <ele>1726.8326991697</ele>
        <time>2016-10-16T16:57:53Z</time>
      </trkpt>
      <trkpt lat="42.90539" lon="0.20916">
        <ele>1726.8326991697</ele>
        <time>2016-10-16T16:57:58Z</time>
      </trkpt>
      <trkpt lat="42.90539" lon="0.20916">
        <ele>1726.8326991697</ele>
        <time>2016-10-16T16:58:03Z</time>
      </trkpt>
      <trkpt lat="42.90539" lon="0.20916">
        <ele>1726.8326991697</ele>
        <time>2016-10-16T16:58:08Z</time>
      </trkpt>
      <trkpt lat="42.90539" lon="0.20915">
        <ele>1726.8326991697</ele>
        <time>2016-10-16T16:58:13Z</time>
      </trkpt>
      <trkpt lat="42.90539" lon="0.20915">
        <ele>1726.8326991697</ele>
        <time>2016-10-16T16:58:18Z</time>
      </trkpt>
      <trkpt lat="42.90539" lon="0.20915">
        <ele>1726.8326991697</ele>
        <time>2016-10-16T16:58:23Z</time>
      </trkpt>
      <trkpt lat="42.90538" lon="0.20916">
        <ele>1726.8326991697</ele>
        <time>2016-10-16T16:58:28Z</time>
      </trkpt>
      <trkpt lat="42.90538" lon="0.20916">
        <ele>1726.8326991697</ele>
        <time>2016-10-16T16:58:33Z</time>
      </trkpt>
      <trkpt lat="42.90538" lon="0.20916">
        <ele>1726.8326991697</ele>
        <time>2016-10-16T16:58:38Z</time>
      </trkpt>
      <trkpt lat="42.90538" lon="0.20915">
        <ele>1726.8326991697</ele>
        <time>2016-10-16T16:58:43Z</time>
      </trkpt>
      <trkpt lat="42.90538" lon="0.20915">
        <ele>1726.8326991697</ele>
        <time>2016-10-16T16:58:48Z</time>
      </trkpt>
      <trkpt lat="42.90537" lon="0.20915">
        <ele>1726.8326991697</ele>
        <time>2016-10-16T16:58:53Z</time>
      </trkpt>
      <trkpt lat="42.90537" lon="0.20915">
        <ele>1726.8326991697</ele>
        <time>2016-10-16T16:58:58Z</time>
      </trkpt>
      <trkpt lat="42.90536" lon="0.20915">
        <ele>1726.8326991697</ele>
        <time>2016-10-16T16:59:03Z</time>
      </trkpt>
      <trkpt lat="42.90536" lon="0.20915">
        <ele>1726.8326991697</ele>
        <time>2016-10-16T16:59:08Z</time>
      </trkpt>
      <trkpt lat="42.90534" lon="0.20914">
        <ele>1726.8326991697</ele>
        <time>2016-10-16T16:59:13Z</time>
      </trkpt>
      <trkpt lat="42.90534" lon="0.20911">
        <ele>1721.9834025716</ele>
        <time>2016-10-16T16:59:18Z</time>
      </trkpt>
      <trkpt lat="42.90534" lon="0.2091">
        <ele>1721.9834025716</ele>
        <time>2016-10-16T16:59:23Z</time>
      </trkpt>
      <trkpt lat="42.90534" lon="0.20911">
        <ele>1721.9834025716</ele>
        <time>2016-10-16T16:59:28Z</time>
      </trkpt>
      <trkpt lat="42.90534" lon="0.2091">
        <ele>1721.9834025716</ele>
        <time>2016-10-16T16:59:33Z</time>
      </trkpt>
      <trkpt lat="42.90534" lon="0.2091">
        <ele>1721.9834025716</ele>
        <time>2016-10-16T16:59:38Z</time>
      </trkpt>
      <trkpt lat="42.90534" lon="0.2091">
        <ele>1721.9834025716</ele>
        <time>2016-10-16T16:59:43Z</time>
      </trkpt>
      <trkpt lat="42.90533" lon="0.20909">
        <ele>1721.9834025716</ele>
        <time>2016-10-16T16:59:48Z</time>
      </trkpt>
      <trkpt lat="42.90533" lon="0.20909">
        <ele>1721.9834025716</ele>
        <time>2016-10-16T16:59:53Z</time>
      </trkpt>
      <trkpt lat="42.90534" lon="0.20908">
        <ele>1721.9834025716</ele>
        <time>2016-10-16T16:59:58Z</time>
      </trkpt>
      <trkpt lat="42.90535" lon="0.20908">
        <ele>1721.9834025716</ele>
        <time>2016-10-16T17:00:03Z</time>
      </trkpt>
      <trkpt lat="42.90535" lon="0.20908">
        <ele>1721.9834025716</ele>
        <time>2016-10-16T17:00:08Z</time>
      </trkpt>
      <trkpt lat="42.90534" lon="0.20909">
        <ele>1721.9834025716</ele>
        <time>2016-10-16T17:00:13Z</time>
      </trkpt>
      <trkpt lat="42.90535" lon="0.20909">
        <ele>1721.9834025716</ele>
        <time>2016-10-16T17:00:18Z</time>
      </trkpt>
      <trkpt lat="42.90536" lon="0.20908">
        <ele>1721.9834025716</ele>
        <time>2016-10-16T17:00:23Z</time>
      </trkpt>
      <trkpt lat="42.90537" lon="0.20908">
        <ele>1716.6774962994</ele>
        <time>2016-10-16T17:00:28Z</time>
      </trkpt>
      <trkpt lat="42.90538" lon="0.20908">
        <ele>1716.6774962994</ele>
        <time>2016-10-16T17:00:33Z</time>
      </trkpt>
      <trkpt lat="42.90537" lon="0.20908">
        <ele>1716.6774962994</ele>
        <time>2016-10-16T17:00:38Z</time>
      </trkpt>
      <trkpt lat="42.9054" lon="0.20907">
        <ele>1716.6774962994</ele>
        <time>2016-10-16T17:00:43Z</time>
      </trkpt>
      <trkpt lat="42.90541" lon="0.20907">
        <ele>1716.6774962994</ele>
        <time>2016-10-16T17:00:48Z</time>
      </trkpt>
      <trkpt lat="42.90544" lon="0.20906">
        <ele>1716.6774962994</ele>
        <time>2016-10-16T17:00:53Z</time>
      </trkpt>
      <trkpt lat="42.90547" lon="0.20905">
        <ele>1711.4462677562</ele>
        <time>2016-10-16T17:00:58Z</time>
      </trkpt>
      <trkpt lat="42.9055" lon="0.20905">
        <ele>1711.4462677562</ele>
        <time>2016-10-16T17:01:03Z</time>
      </trkpt>
      <trkpt lat="42.90553" lon="0.20906">
        <ele>1711.4462677562</ele>
        <time>2016-10-16T17:01:08Z</time>
      </trkpt>
      <trkpt lat="42.90555" lon="0.20905">
        <ele>1711.4462677562</ele>
        <time>2016-10-16T17:01:13Z</time>
      </trkpt>
      <trkpt lat="42.90556" lon="0.20905">
        <ele>1711.4462677562</ele>
        <time>2016-10-16T17:01:18Z</time>
      </trkpt>
      <trkpt lat="42.90556" lon="0.20907">
        <ele>1706.5511149441</ele>
        <time>2016-10-16T17:01:23Z</time>
      </trkpt>
      <trkpt lat="42.90556" lon="0.20907">
        <ele>1706.5511149441</ele>
        <time>2016-10-16T17:01:28Z</time>
      </trkpt>
      <trkpt lat="42.90556" lon="0.20906">
        <ele>1706.5511149441</ele>
        <time>2016-10-16T17:01:33Z</time>
      </trkpt>
      <trkpt lat="42.90557" lon="0.20907">
        <ele>1706.5511149441</ele>
        <time>2016-10-16T17:01:38Z</time>
      </trkpt>
      <trkpt lat="42.90557" lon="0.20907">
        <ele>1706.5511149441</ele>
        <time>2016-10-16T17:01:43Z</time>
      </trkpt>
      <trkpt lat="42.90559" lon="0.20906">
        <ele>1706.5511149441</ele>
        <time>2016-10-16T17:01:48Z</time>
      </trkpt>
      <trkpt lat="42.90562" lon="0.20908">
        <ele>1706.5511149441</ele>
        <time>2016-10-16T17:01:53Z</time>
      </trkpt>
      <trkpt lat="42.90562" lon="0.20911">
        <ele>1701.9017460921</ele>
        <time>2016-10-16T17:01:58Z</time>
      </trkpt>
      <trkpt lat="42.90563" lon="0.20914">
        <ele>1701.9017460921</ele>
        <time>2016-10-16T17:02:03Z</time>
      </trkpt>
      <trkpt lat="42.90563" lon="0.20916">
        <ele>1701.9017460921</ele>
        <time>2016-10-16T17:02:08Z</time>
      </trkpt>
      <trkpt lat="42.90562" lon="0.20918">
        <ele>1701.9017460921</ele>
        <time>2016-10-16T17:02:13Z</time>
      </trkpt>
      <trkpt lat="42.90563" lon="0.20919">
        <ele>1701.9017460921</ele>
        <time>2016-10-16T17:02:18Z</time>
      </trkpt>
      <trkpt lat="42.90563" lon="0.20919">
        <ele>1701.9017460921</ele>
        <time>2016-10-16T17:02:23Z</time>
      </trkpt>
      <trkpt lat="42.90563" lon="0.20926">
        <ele>1697.5866443432</ele>
        <time>2016-10-16T17:02:28Z</time>
      </trkpt>
      <trkpt lat="42.90563" lon="0.20929">
        <ele>1697.5866443432</ele>
        <time>2016-10-16T17:02:33Z</time>
      </trkpt>
      <trkpt lat="42.90562" lon="0.20929">
        <ele>1697.5866443432</ele>
        <time>2016-10-16T17:02:38Z</time>
      </trkpt>
      <trkpt lat="42.90562" lon="0.20928">
        <ele>1697.5866443432</ele>
        <time>2016-10-16T17:02:43Z</time>
      </trkpt>
      <trkpt lat="42.90562" lon="0.2093">
        <ele>1697.5866443432</ele>
        <time>2016-10-16T17:02:48Z</time>
      </trkpt>
      <trkpt lat="42.90561" lon="0.20934">
        <ele>1697.5866443432</ele>
        <time>2016-10-16T17:02:53Z</time>
      </trkpt>
      <trkpt lat="42.9056" lon="0.20939">
        <ele>1693.6002776845</ele>
        <time>2016-10-16T17:02:58Z</time>
      </trkpt>
      <trkpt lat="42.90558" lon="0.20943">
        <ele>1693.6002776845</ele>
        <time>2016-10-16T17:03:03Z</time>
      </trkpt>
      <trkpt lat="42.90555" lon="0.20947">
        <ele>1693.6002776845</ele>
        <time>2016-10-16T17:03:08Z</time>
      </trkpt>
      <trkpt lat="42.90553" lon="0.20952">
        <ele>1689.9653043606</ele>
        <time>2016-10-16T17:03:13Z</time>
      </trkpt>
      <trkpt lat="42.90551" lon="0.20955">
        <ele>1689.9653043606</ele>
        <time>2016-10-16T17:03:18Z</time>
      </trkpt>
      <trkpt lat="42.90549" lon="0.20956">
        <ele>1689.9653043606</ele>
        <time>2016-10-16T17:03:23Z</time>
      </trkpt>
      <trkpt lat="42.90548" lon="0.20956">
        <ele>1689.9653043606</ele>
        <time>2016-10-16T17:03:28Z</time>
      </trkpt>
      <trkpt lat="42.90548" lon="0.20958">
        <ele>1689.9653043606</ele>
        <time>2016-10-16T17:03:33Z</time>
      </trkpt>
      <trkpt lat="42.90547" lon="0.20963">
        <ele>1686.42780276</ele>
        <time>2016-10-16T17:03:38Z</time>
      </trkpt>
      <trkpt lat="42.90547" lon="0.20966">
        <ele>1686.42780276</ele>
        <time>2016-10-16T17:03:43Z</time>
      </trkpt>
      <trkpt lat="42.90547" lon="0.20967">
        <ele>1686.42780276</ele>
        <time>2016-10-16T17:03:48Z</time>
      </trkpt>
      <trkpt lat="42.90547" lon="0.2097">
        <ele>1686.42780276</ele>
        <time>2016-10-16T17:03:53Z</time>
      </trkpt>
      <trkpt lat="42.90547" lon="0.20975">
        <ele>1683.06915746</ele>
        <time>2016-10-16T17:03:58Z</time>
      </trkpt>
      <trkpt lat="42.90547" lon="0.20978">
        <ele>1683.06915746</ele>
        <time>2016-10-16T17:04:03Z</time>
      </trkpt>
      <trkpt lat="42.90546" lon="0.20982">
        <ele>1683.06915746</ele>
        <time>2016-10-16T17:04:08Z</time>
      </trkpt>
      <trkpt lat="42.90546" lon="0.20982">
        <ele>1683.06915746</ele>
        <time>2016-10-16T17:04:13Z</time>
      </trkpt>
      <trkpt lat="42.90546" lon="0.20982">
        <ele>1683.06915746</ele>
        <time>2016-10-16T17:04:18Z</time>
      </trkpt>
      <trkpt lat="42.90546" lon="0.20985">
        <ele>1683.06915746</ele>
        <time>2016-10-16T17:04:23Z</time>
      </trkpt>
      <trkpt lat="42.90545" lon="0.20991">
        <ele>1679.7624018609</ele>
        <time>2016-10-16T17:04:28Z</time>
      </trkpt>
      <trkpt lat="42.90544" lon="0.20995">
        <ele>1679.7624018609</ele>
        <time>2016-10-16T17:04:33Z</time>
      </trkpt>
      <trkpt lat="42.90542" lon="0.20998">
        <ele>1679.7624018609</ele>
        <time>2016-10-16T17:04:38Z</time>
      </trkpt>
      <trkpt lat="42.9054" lon="0.21005">
        <ele>1676.6490395903</ele>
        <time>2016-10-16T17:04:43Z</time>
      </trkpt>
      <trkpt lat="42.90539" lon="0.2101">
        <ele>1676.6490395903</ele>
        <time>2016-10-16T17:04:48Z</time>
      </trkpt>
      <trkpt lat="42.90539" lon="0.21013">
        <ele>1676.6490395903</ele>
        <time>2016-10-16T17:04:53Z</time>
      </trkpt>
      <trkpt lat="42.90539" lon="0.21012">
        <ele>1676.6490395903</ele>
        <time>2016-10-16T17:04:58Z</time>
      </trkpt>
      <trkpt lat="42.90539" lon="0.21015">
        <ele>1676.6490395903</ele>
        <time>2016-10-16T17:05:03Z</time>
      </trkpt>
      <trkpt lat="42.90537" lon="0.21016">
        <ele>1673.5136639546</ele>
        <time>2016-10-16T17:05:08Z</time>
      </trkpt>
      <trkpt lat="42.90536" lon="0.21022">
        <ele>1673.5136639546</ele>
        <time>2016-10-16T17:05:13Z</time>
      </trkpt>
      <trkpt lat="42.90533" lon="0.21026">
        <ele>1673.5136639546</ele>
        <time>2016-10-16T17:05:18Z</time>
      </trkpt>
      <trkpt lat="42.90533" lon="0.21035">
        <ele>1670.4592866631</ele>
        <time>2016-10-16T17:05:23Z</time>
      </trkpt>
      <trkpt lat="42.90532" lon="0.21034">
        <ele>1670.4592866631</ele>
        <time>2016-10-16T17:05:28Z</time>
      </trkpt>
      <trkpt lat="42.90532" lon="0.21036">
        <ele>1670.4592866631</ele>
        <time>2016-10-16T17:05:33Z</time>
      </trkpt>
      <trkpt lat="42.90532" lon="0.21039">
        <ele>1670.4592866631</ele>
        <time>2016-10-16T17:05:38Z</time>
      </trkpt>
      <trkpt lat="42.90531" lon="0.21041">
        <ele>1670.4592866631</ele>
        <time>2016-10-16T17:05:43Z</time>
      </trkpt>
      <trkpt lat="42.90532" lon="0.21044">
        <ele>1670.4592866631</ele>
        <time>2016-10-16T17:05:48Z</time>
      </trkpt>
      <trkpt lat="42.90531" lon="0.21045">
        <ele>1666.9325296575</ele>
        <time>2016-10-16T17:05:53Z</time>
      </trkpt>
      <trkpt lat="42.90531" lon="0.21048">
        <ele>1666.9325296575</ele>
        <time>2016-10-16T17:05:58Z</time>
      </trkpt>
      <trkpt lat="42.90531" lon="0.21051">
        <ele>1666.9325296575</ele>
        <time>2016-10-16T17:06:03Z</time>
      </trkpt>
      <trkpt lat="42.90531" lon="0.21055">
        <ele>1666.9325296575</ele>
        <time>2016-10-16T17:06:08Z</time>
      </trkpt>
      <trkpt lat="42.90531" lon="0.21061">
        <ele>1663.2721563739</ele>
        <time>2016-10-16T17:06:13Z</time>
      </trkpt>
      <trkpt lat="42.9053" lon="0.21063">
        <ele>1663.2721563739</ele>
        <time>2016-10-16T17:06:18Z</time>
      </trkpt>
      <trkpt lat="42.9053" lon="0.21067">
        <ele>1663.2721563739</ele>
        <time>2016-10-16T17:06:23Z</time>
      </trkpt>
      <trkpt lat="42.90528" lon="0.21071">
        <ele>1663.2721563739</ele>
        <time>2016-10-16T17:06:28Z</time>
      </trkpt>
      <trkpt lat="42.90528" lon="0.21073">
        <ele>1659.4752881638</ele>
        <time>2016-10-16T17:06:33Z</time>
      </trkpt>
      <trkpt lat="42.90529" lon="0.21075">
        <ele>1659.4752881638</ele>
        <time>2016-10-16T17:06:38Z</time>
      </trkpt>
      <trkpt lat="42.90529" lon="0.21081">
        <ele>1659.4752881638</ele>
        <time>2016-10-16T17:06:43Z</time>
      </trkpt>
      <trkpt lat="42.90531" lon="0.21083">
        <ele>1659.4752881638</ele>
        <time>2016-10-16T17:06:48Z</time>
      </trkpt>
      <trkpt lat="42.90533" lon="0.21083">
        <ele>1655.6836670444</ele>
        <time>2016-10-16T17:06:53Z</time>
      </trkpt>
      <trkpt lat="42.90533" lon="0.21083">
        <ele>1655.6836670444</ele>
        <time>2016-10-16T17:06:58Z</time>
      </trkpt>
      <trkpt lat="42.90533" lon="0.21083">
        <ele>1655.6836670444</ele>
        <time>2016-10-16T17:07:03Z</time>
      </trkpt>
      <trkpt lat="42.90533" lon="0.21083">
        <ele>1655.6836670444</ele>
        <time>2016-10-16T17:07:08Z</time>
      </trkpt>
      <trkpt lat="42.90537" lon="0.21082">
        <ele>1655.6836670444</ele>
        <time>2016-10-16T17:07:13Z</time>
      </trkpt>
      <trkpt lat="42.90544" lon="0.21079">
        <ele>1651.9132352874</ele>
        <time>2016-10-16T17:07:18Z</time>
      </trkpt>
      <trkpt lat="42.90548" lon="0.21075">
        <ele>1651.9132352874</ele>
        <time>2016-10-16T17:07:23Z</time>
      </trkpt>
      <trkpt lat="42.90552" lon="0.21073">
        <ele>1648.3659665329</ele>
        <time>2016-10-16T17:07:28Z</time>
      </trkpt>
      <trkpt lat="42.90552" lon="0.21072">
        <ele>1648.3659665329</ele>
        <time>2016-10-16T17:07:33Z</time>
      </trkpt>
      <trkpt lat="42.90556" lon="0.21076">
        <ele>1648.3659665329</ele>
        <time>2016-10-16T17:07:38Z</time>
      </trkpt>
      <trkpt lat="42.90561" lon="0.21081">
        <ele>1644.9833017628</ele>
        <time>2016-10-16T17:07:43Z</time>
      </trkpt>
      <trkpt lat="42.90564" lon="0.21089">
        <ele>1644.9833017628</ele>
        <time>2016-10-16T17:07:48Z</time>
      </trkpt>
      <trkpt lat="42.90564" lon="0.21093">
        <ele>1641.868966543</ele>
        <time>2016-10-16T17:07:53Z</time>
      </trkpt>
      <trkpt lat="42.90565" lon="0.21091">
        <ele>1641.868966543</ele>
        <time>2016-10-16T17:07:58Z</time>
      </trkpt>
      <trkpt lat="42.90569" lon="0.21092">
        <ele>1641.868966543</ele>
        <time>2016-10-16T17:08:03Z</time>
      </trkpt>
      <trkpt lat="42.90573" lon="0.21089">
        <ele>1638.8300185211</ele>
        <time>2016-10-16T17:08:08Z</time>
      </trkpt>
      <trkpt lat="42.90576" lon="0.21089">
        <ele>1638.8300185211</ele>
        <time>2016-10-16T17:08:13Z</time>
      </trkpt>
      <trkpt lat="42.90579" lon="0.2109">
        <ele>1638.8300185211</ele>
        <time>2016-10-16T17:08:18Z</time>
      </trkpt>
      <trkpt lat="42.9058" lon="0.21091">
        <ele>1638.8300185211</ele>
        <time>2016-10-16T17:08:23Z</time>
      </trkpt>
      <trkpt lat="42.90579" lon="0.2109">
        <ele>1638.8300185211</ele>
        <time>2016-10-16T17:08:28Z</time>
      </trkpt>
      <trkpt lat="42.90581" lon="0.21092">
        <ele>1635.8459320425</ele>
        <time>2016-10-16T17:08:33Z</time>
      </trkpt>
      <trkpt lat="42.90584" lon="0.21094">
        <ele>1635.8459320425</ele>
        <time>2016-10-16T17:08:38Z</time>
      </trkpt>
      <trkpt lat="42.90588" lon="0.21095">
        <ele>1635.8459320425</ele>
        <time>2016-10-16T17:08:43Z</time>
      </trkpt>
      <trkpt lat="42.9059" lon="0.21095">
        <ele>1632.9551188937</ele>
        <time>2016-10-16T17:08:48Z</time>
      </trkpt>
      <trkpt lat="42.90593" lon="0.21093">
        <ele>1632.9551188937</ele>
        <time>2016-10-16T17:08:53Z</time>
      </trkpt>
      <trkpt lat="42.90596" lon="0.21096">
        <ele>1632.9551188937</ele>
        <time>2016-10-16T17:08:58Z</time>
      </trkpt>
      <trkpt lat="42.90598" lon="0.21099">
        <ele>1630.1784426932</ele>
        <time>2016-10-16T17:09:03Z</time>
      </trkpt>
      <trkpt lat="42.90602" lon="0.21101">
        <ele>1630.1784426932</ele>
        <time>2016-10-16T17:09:08Z</time>
      </trkpt>
      <trkpt lat="42.90606" lon="0.21101">
        <ele>1630.1784426932</ele>
        <time>2016-10-16T17:09:13Z</time>
      </trkpt>
      <trkpt lat="42.90608" lon="0.21104">
        <ele>1627.520457055</ele>
        <time>2016-10-16T17:09:18Z</time>
      </trkpt>
      <trkpt lat="42.90609" lon="0.2111">
        <ele>1627.520457055</ele>
        <time>2016-10-16T17:09:23Z</time>
      </trkpt>
      <trkpt lat="42.90609" lon="0.21114">
        <ele>1627.520457055</ele>
        <time>2016-10-16T17:09:28Z</time>
      </trkpt>
      <trkpt lat="42.90611" lon="0.21116">
        <ele>1624.970598953</ele>
        <time>2016-10-16T17:09:33Z</time>
      </trkpt>
      <trkpt lat="42.90615" lon="0.21118">
        <ele>1624.970598953</ele>
        <time>2016-10-16T17:09:38Z</time>
      </trkpt>
      <trkpt lat="42.9062" lon="0.21119">
        <ele>1622.6340374958</ele>
        <time>2016-10-16T17:09:43Z</time>
      </trkpt>
      <trkpt lat="42.90623" lon="0.21121">
        <ele>1622.6340374958</ele>
        <time>2016-10-16T17:09:48Z</time>
      </trkpt>
      <trkpt lat="42.90629" lon="0.2112">
        <ele>1620.5067198609</ele>
        <time>2016-10-16T17:09:53Z</time>
      </trkpt>
      <trkpt lat="42.90634" lon="0.2112">
        <ele>1620.5067198609</ele>
        <time>2016-10-16T17:09:58Z</time>
      </trkpt>
      <trkpt lat="42.9064" lon="0.2112">
        <ele>1618.5987051308</ele>
        <time>2016-10-16T17:10:03Z</time>
      </trkpt>
      <trkpt lat="42.90643" lon="0.2112">
        <ele>1618.5987051308</ele>
        <time>2016-10-16T17:10:08Z</time>
      </trkpt>
      <trkpt lat="42.90648" lon="0.21122">
        <ele>1618.5987051308</ele>
        <time>2016-10-16T17:10:13Z</time>
      </trkpt>
      <trkpt lat="42.90652" lon="0.21123">
        <ele>1616.83223256</ele>
        <time>2016-10-16T17:10:18Z</time>
      </trkpt>
      <trkpt lat="42.90656" lon="0.21123">
        <ele>1616.83223256</ele>
        <time>2016-10-16T17:10:23Z</time>
      </trkpt>
      <trkpt lat="42.90661" lon="0.21125">
        <ele>1615.2789806097</ele>
        <time>2016-10-16T17:10:28Z</time>
      </trkpt>
      <trkpt lat="42.90665" lon="0.21125">
        <ele>1615.2789806097</ele>
        <time>2016-10-16T17:10:33Z</time>
      </trkpt>
      <trkpt lat="42.90669" lon="0.21125">
        <ele>1615.2789806097</ele>
        <time>2016-10-16T17:10:38Z</time>
      </trkpt>
      <trkpt lat="42.90674" lon="0.21125">
        <ele>1613.8462671044</ele>
        <time>2016-10-16T17:10:43Z</time>
      </trkpt>
      <trkpt lat="42.90678" lon="0.21124">
        <ele>1613.8462671044</ele>
        <time>2016-10-16T17:10:48Z</time>
      </trkpt>
      <trkpt lat="42.90681" lon="0.21122">
        <ele>1613.8462671044</ele>
        <time>2016-10-16T17:10:53Z</time>
      </trkpt>
      <trkpt lat="42.90682" lon="0.2112">
        <ele>1612.5343848207</ele>
        <time>2016-10-16T17:10:58Z</time>
      </trkpt>
      <trkpt lat="42.90684" lon="0.21118">
        <ele>1612.5343848207</ele>
        <time>2016-10-16T17:11:03Z</time>
      </trkpt>
      <trkpt lat="42.90689" lon="0.21122">
        <ele>1612.5343848207</ele>
        <time>2016-10-16T17:11:08Z</time>
      </trkpt>
      <trkpt lat="42.90692" lon="0.21125">
        <ele>1611.3144947155</ele>
        <time>2016-10-16T17:11:13Z</time>
      </trkpt>
      <trkpt lat="42.90694" lon="0.21126">
        <ele>1611.3144947155</ele>
        <time>2016-10-16T17:11:18Z</time>
      </trkpt>
      <trkpt lat="42.90693" lon="0.21128">
        <ele>1611.3144947155</ele>
        <time>2016-10-16T17:11:23Z</time>
      </trkpt>
      <trkpt lat="42.90693" lon="0.2113">
        <ele>1611.3144947155</ele>
        <time>2016-10-16T17:11:28Z</time>
      </trkpt>
      <trkpt lat="42.90693" lon="0.21131">
        <ele>1611.3144947155</ele>
        <time>2016-10-16T17:11:33Z</time>
      </trkpt>
      <trkpt lat="42.90696" lon="0.2113">
        <ele>1611.3144947155</ele>
        <time>2016-10-16T17:11:38Z</time>
      </trkpt>
      <trkpt lat="42.90699" lon="0.21135">
        <ele>1610.0443926825</ele>
        <time>2016-10-16T17:11:43Z</time>
      </trkpt>
      <trkpt lat="42.90706" lon="0.21136">
        <ele>1610.0443926825</ele>
        <time>2016-10-16T17:11:48Z</time>
      </trkpt>
      <trkpt lat="42.90711" lon="0.2114">
        <ele>1608.9672264336</ele>
        <time>2016-10-16T17:11:53Z</time>
      </trkpt>
      <trkpt lat="42.90714" lon="0.21144">
        <ele>1608.9672264336</ele>
        <time>2016-10-16T17:11:58Z</time>
      </trkpt>
      <trkpt lat="42.90718" lon="0.21148">
        <ele>1608.0628395646</ele>
        <time>2016-10-16T17:12:03Z</time>
      </trkpt>
      <trkpt lat="42.90718" lon="0.21152">
        <ele>1608.0628395646</ele>
        <time>2016-10-16T17:12:08Z</time>
      </trkpt>
      <trkpt lat="42.90721" lon="0.21153">
        <ele>1608.0628395646</ele>
        <time>2016-10-16T17:12:13Z</time>
      </trkpt>
      <trkpt lat="42.90721" lon="0.21156">
        <ele>1608.0628395646</ele>
        <time>2016-10-16T17:12:18Z</time>
      </trkpt>
      <trkpt lat="42.90721" lon="0.21158">
        <ele>1607.2545263298</ele>
        <time>2016-10-16T17:12:23Z</time>
      </trkpt>
      <trkpt lat="42.90722" lon="0.21162">
        <ele>1607.2545263298</ele>
        <time>2016-10-16T17:12:28Z</time>
      </trkpt>
      <trkpt lat="42.90725" lon="0.21164">
        <ele>1607.2545263298</ele>
        <time>2016-10-16T17:12:33Z</time>
      </trkpt>
      <trkpt lat="42.90725" lon="0.21165">
        <ele>1607.2545263298</ele>
        <time>2016-10-16T17:12:38Z</time>
      </trkpt>
      <trkpt lat="42.90722" lon="0.2117">
        <ele>1606.5431122926</ele>
        <time>2016-10-16T17:12:43Z</time>
      </trkpt>
      <trkpt lat="42.90719" lon="0.21172">
        <ele>1606.5431122926</ele>
        <time>2016-10-16T17:12:48Z</time>
      </trkpt>
      <trkpt lat="42.90718" lon="0.21173">
        <ele>1606.5431122926</ele>
        <time>2016-10-16T17:12:53Z</time>
      </trkpt>
      <trkpt lat="42.90719" lon="0.21177">
        <ele>1606.5431122926</ele>
        <time>2016-10-16T17:12:58Z</time>
      </trkpt>
      <trkpt lat="42.90722" lon="0.21182">
        <ele>1605.90038998</ele>
        <time>2016-10-16T17:13:03Z</time>
      </trkpt>
      <trkpt lat="42.90727" lon="0.21188">
        <ele>1605.90038998</ele>
        <time>2016-10-16T17:13:08Z</time>
      </trkpt>
      <trkpt lat="42.90728" lon="0.21191">
        <ele>1605.3722194663</ele>
        <time>2016-10-16T17:13:13Z</time>
      </trkpt>
      <trkpt lat="42.90728" lon="0.21191">
        <ele>1605.3722194663</ele>
        <time>2016-10-16T17:13:18Z</time>
      </trkpt>
      <trkpt lat="42.90728" lon="0.21192">
        <ele>1605.3722194663</ele>
        <time>2016-10-16T17:13:23Z</time>
      </trkpt>
      <trkpt lat="42.90728" lon="0.21192">
        <ele>1605.3722194663</ele>
        <time>2016-10-16T17:13:28Z</time>
      </trkpt>
      <trkpt lat="42.90728" lon="0.21192">
        <ele>1605.3722194663</ele>
        <time>2016-10-16T17:13:33Z</time>
      </trkpt>
      <trkpt lat="42.90727" lon="0.21191">
        <ele>1605.3722194663</ele>
        <time>2016-10-16T17:13:38Z</time>
      </trkpt>
      <trkpt lat="42.90727" lon="0.21191">
        <ele>1605.3722194663</ele>
        <time>2016-10-16T17:13:43Z</time>
      </trkpt>
      <trkpt lat="42.90727" lon="0.21191">
        <ele>1605.3722194663</ele>
        <time>2016-10-16T17:13:48Z</time>
      </trkpt>
      <trkpt lat="42.90727" lon="0.21191">
        <ele>1605.3722194663</ele>
        <time>2016-10-16T17:13:53Z</time>
      </trkpt>
      <trkpt lat="42.90726" lon="0.21191">
        <ele>1605.3722194663</ele>
        <time>2016-10-16T17:13:58Z</time>
      </trkpt>
      <trkpt lat="42.90725" lon="0.21191">
        <ele>1605.3722194663</ele>
        <time>2016-10-16T17:14:03Z</time>
      </trkpt>
      <trkpt lat="42.90725" lon="0.21192">
        <ele>1605.3722194663</ele>
        <time>2016-10-16T17:14:08Z</time>
      </trkpt>
      <trkpt lat="42.90725" lon="0.21192">
        <ele>1605.3722194663</ele>
        <time>2016-10-16T17:14:13Z</time>
      </trkpt>
      <trkpt lat="42.90725" lon="0.21192">
        <ele>1605.3722194663</ele>
        <time>2016-10-16T17:14:18Z</time>
      </trkpt>
      <trkpt lat="42.90725" lon="0.21192">
        <ele>1605.3722194663</ele>
        <time>2016-10-16T17:14:23Z</time>
      </trkpt>
      <trkpt lat="42.90725" lon="0.21192">
        <ele>1605.3722194663</ele>
        <time>2016-10-16T17:14:28Z</time>
      </trkpt>
      <trkpt lat="42.90725" lon="0.21192">
        <ele>1605.3722194663</ele>
        <time>2016-10-16T17:14:33Z</time>
      </trkpt>
      <trkpt lat="42.90725" lon="0.21192">
        <ele>1605.3722194663</ele>
        <time>2016-10-16T17:14:38Z</time>
      </trkpt>
      <trkpt lat="42.90725" lon="0.21192">
        <ele>1605.3722194663</ele>
        <time>2016-10-16T17:14:43Z</time>
      </trkpt>
      <trkpt lat="42.90725" lon="0.21192">
        <ele>1605.3722194663</ele>
        <time>2016-10-16T17:14:48Z</time>
      </trkpt>
      <trkpt lat="42.90725" lon="0.21192">
        <ele>1605.3722194663</ele>
        <time>2016-10-16T17:14:53Z</time>
      </trkpt>
      <trkpt lat="42.90725" lon="0.21191">
        <ele>1605.3722194663</ele>
        <time>2016-10-16T17:14:58Z</time>
      </trkpt>
      <trkpt lat="42.90726" lon="0.21195">
        <ele>1605.3722194663</ele>
        <time>2016-10-16T17:15:03Z</time>
      </trkpt>
      <trkpt lat="42.90728" lon="0.21199">
        <ele>1604.611812901</ele>
        <time>2016-10-16T17:15:08Z</time>
      </trkpt>
      <trkpt lat="42.90731" lon="0.21201">
        <ele>1604.611812901</ele>
        <time>2016-10-16T17:15:13Z</time>
      </trkpt>
      <trkpt lat="42.90738" lon="0.21204">
        <ele>1603.8895159149</ele>
        <time>2016-10-16T17:15:18Z</time>
      </trkpt>
      <trkpt lat="42.90742" lon="0.21208">
        <ele>1603.8895159149</ele>
        <time>2016-10-16T17:15:23Z</time>
      </trkpt>
      <trkpt lat="42.90742" lon="0.21212">
        <ele>1603.8895159149</ele>
        <time>2016-10-16T17:15:28Z</time>
      </trkpt>
      <trkpt lat="42.90747" lon="0.21217">
        <ele>1603.1676445437</ele>
        <time>2016-10-16T17:15:33Z</time>
      </trkpt>
      <trkpt lat="42.9075" lon="0.21219">
        <ele>1603.1676445437</ele>
        <time>2016-10-16T17:15:38Z</time>
      </trkpt>
      <trkpt lat="42.90749" lon="0.21221">
        <ele>1603.1676445437</ele>
        <time>2016-10-16T17:15:43Z</time>
      </trkpt>
      <trkpt lat="42.9075" lon="0.21224">
        <ele>1603.1676445437</ele>
        <time>2016-10-16T17:15:48Z</time>
      </trkpt>
      <trkpt lat="42.90751" lon="0.2123">
        <ele>1602.4402695761</ele>
        <time>2016-10-16T17:15:53Z</time>
      </trkpt>
      <trkpt lat="42.90753" lon="0.21237">
        <ele>1602.4402695761</ele>
        <time>2016-10-16T17:15:58Z</time>
      </trkpt>
      <trkpt lat="42.90753" lon="0.2124">
        <ele>1602.4402695761</ele>
        <time>2016-10-16T17:16:03Z</time>
      </trkpt>
      <trkpt lat="42.90755" lon="0.21245">
        <ele>1601.774139119</ele>
        <time>2016-10-16T17:16:08Z</time>
      </trkpt>
      <trkpt lat="42.90756" lon="0.21248">
        <ele>1601.774139119</ele>
        <time>2016-10-16T17:16:13Z</time>
      </trkpt>
      <trkpt lat="42.90759" lon="0.21255">
        <ele>1601.774139119</ele>
        <time>2016-10-16T17:16:18Z</time>
      </trkpt>
      <trkpt lat="42.90758" lon="0.21259">
        <ele>1601.1734570511</ele>
        <time>2016-10-16T17:16:23Z</time>
      </trkpt>
      <trkpt lat="42.90757" lon="0.21265">
        <ele>1601.1734570511</ele>
        <time>2016-10-16T17:16:28Z</time>
      </trkpt>
      <trkpt lat="42.90758" lon="0.2127">
        <ele>1601.1734570511</ele>
        <time>2016-10-16T17:16:33Z</time>
      </trkpt>
      <trkpt lat="42.9076" lon="0.2128">
        <ele>1600.6277030475</ele>
        <time>2016-10-16T17:16:38Z</time>
      </trkpt>
      <trkpt lat="42.90766" lon="0.21285">
        <ele>1600.6277030475</ele>
        <time>2016-10-16T17:16:43Z</time>
      </trkpt>
      <trkpt lat="42.90771" lon="0.21286">
        <ele>1600.1703918223</ele>
        <time>2016-10-16T17:16:48Z</time>
      </trkpt>
      <trkpt lat="42.90777" lon="0.21286">
        <ele>1600.1703918223</ele>
        <time>2016-10-16T17:16:53Z</time>
      </trkpt>
      <trkpt lat="42.90781" lon="0.21286">
        <ele>1599.7892810027</ele>
        <time>2016-10-16T17:16:58Z</time>
      </trkpt>
      <trkpt lat="42.90784" lon="0.21289">
        <ele>1599.7892810027</ele>
        <time>2016-10-16T17:17:03Z</time>
      </trkpt>
      <trkpt lat="42.90784" lon="0.21292">
        <ele>1599.7892810027</ele>
        <time>2016-10-16T17:17:08Z</time>
      </trkpt>
      <trkpt lat="42.90788" lon="0.21292">
        <ele>1599.4441809816</ele>
        <time>2016-10-16T17:17:13Z</time>
      </trkpt>
      <trkpt lat="42.90796" lon="0.21297">
        <ele>1599.4441809816</ele>
        <time>2016-10-16T17:17:18Z</time>
      </trkpt>
      <trkpt lat="42.908" lon="0.21303">
        <ele>1599.1555901962</ele>
        <time>2016-10-16T17:17:23Z</time>
      </trkpt>
      <trkpt lat="42.90803" lon="0.21307">
        <ele>1599.1555901962</ele>
        <time>2016-10-16T17:17:28Z</time>
      </trkpt>
      <trkpt lat="42.90806" lon="0.21313">
        <ele>1598.9137153679</ele>
        <time>2016-10-16T17:17:33Z</time>
      </trkpt>
      <trkpt lat="42.90812" lon="0.21314">
        <ele>1598.9137153679</ele>
        <time>2016-10-16T17:17:38Z</time>
      </trkpt>
      <trkpt lat="42.90815" lon="0.21313">
        <ele>1598.9137153679</ele>
        <time>2016-10-16T17:17:43Z</time>
      </trkpt>
      <trkpt lat="42.9082" lon="0.21315">
        <ele>1598.680726325</ele>
        <time>2016-10-16T17:17:48Z</time>
      </trkpt>
      <trkpt lat="42.90826" lon="0.21321">
        <ele>1598.680726325</ele>
        <time>2016-10-16T17:17:53Z</time>
      </trkpt>
      <trkpt lat="42.90832" lon="0.21326">
        <ele>1598.4793901035</ele>
        <time>2016-10-16T17:17:58Z</time>
      </trkpt>
      <trkpt lat="42.90835" lon="0.21327">
        <ele>1598.4793901035</ele>
        <time>2016-10-16T17:18:03Z</time>
      </trkpt>
      <trkpt lat="42.90839" lon="0.21333">
        <ele>1598.4793901035</ele>
        <time>2016-10-16T17:18:08Z</time>
      </trkpt>
      <trkpt lat="42.90838" lon="0.21335">
        <ele>1598.2876790465</ele>
        <time>2016-10-16T17:18:13Z</time>
      </trkpt>
      <trkpt lat="42.90842" lon="0.21336">
        <ele>1598.2876790465</ele>
        <time>2016-10-16T17:18:18Z</time>
      </trkpt>
      <trkpt lat="42.90844" lon="0.21341">
        <ele>1598.2876790465</ele>
        <time>2016-10-16T17:18:23Z</time>
      </trkpt>
      <trkpt lat="42.9085" lon="0.21345">
        <ele>1598.1141794856</ele>
        <time>2016-10-16T17:18:28Z</time>
      </trkpt>
      <trkpt lat="42.90854" lon="0.21349">
        <ele>1598.1141794856</ele>
        <time>2016-10-16T17:18:33Z</time>
      </trkpt>
      <trkpt lat="42.90857" lon="0.21354">
        <ele>1597.9814078924</ele>
        <time>2016-10-16T17:18:38Z</time>
      </trkpt>
      <trkpt lat="42.9086" lon="0.21358">
        <ele>1597.9814078924</ele>
        <time>2016-10-16T17:18:43Z</time>
      </trkpt>
      <trkpt lat="42.90863" lon="0.21361">
        <ele>1597.9814078924</ele>
        <time>2016-10-16T17:18:48Z</time>
      </trkpt>
      <trkpt lat="42.90865" lon="0.21364">
        <ele>1597.8526686058</ele>
        <time>2016-10-16T17:18:53Z</time>
      </trkpt>
      <trkpt lat="42.90867" lon="0.21369">
        <ele>1597.8526686058</ele>
        <time>2016-10-16T17:18:58Z</time>
      </trkpt>
      <trkpt lat="42.90871" lon="0.21373">
        <ele>1597.8526686058</ele>
        <time>2016-10-16T17:19:03Z</time>
      </trkpt>
      <trkpt lat="42.90872" lon="0.21376">
        <ele>1597.722972486</ele>
        <time>2016-10-16T17:19:08Z</time>
      </trkpt>
      <trkpt lat="42.90878" lon="0.21381">
        <ele>1597.722972486</ele>
        <time>2016-10-16T17:19:13Z</time>
      </trkpt>
      <trkpt lat="42.90884" lon="0.21386">
        <ele>1597.6023095489</ele>
        <time>2016-10-16T17:19:18Z</time>
      </trkpt>
      <trkpt lat="42.90888" lon="0.21387">
        <ele>1597.6023095489</ele>
        <time>2016-10-16T17:19:23Z</time>
      </trkpt>
      <trkpt lat="42.9089" lon="0.21391">
        <ele>1597.6023095489</ele>
        <time>2016-10-16T17:19:28Z</time>
      </trkpt>
      <trkpt lat="42.90897" lon="0.21394">
        <ele>1597.4712856677</ele>
        <time>2016-10-16T17:19:33Z</time>
      </trkpt>
      <trkpt lat="42.90899" lon="0.21394">
        <ele>1597.4712856677</ele>
        <time>2016-10-16T17:19:38Z</time>
      </trkpt>
      <trkpt lat="42.90898" lon="0.214">
        <ele>1597.4712856677</ele>
        <time>2016-10-16T17:19:43Z</time>
      </trkpt>
      <trkpt lat="42.90898" lon="0.21403">
        <ele>1597.4712856677</ele>
        <time>2016-10-16T17:19:48Z</time>
      </trkpt>
      <trkpt lat="42.90899" lon="0.21411">
        <ele>1597.312155671</ele>
        <time>2016-10-16T17:19:53Z</time>
      </trkpt>
      <trkpt lat="42.90901" lon="0.21415">
        <ele>1597.312155671</ele>
        <time>2016-10-16T17:19:58Z</time>
      </trkpt>
      <trkpt lat="42.90904" lon="0.21419">
        <ele>1597.312155671</ele>
        <time>2016-10-16T17:20:03Z</time>
      </trkpt>
      <trkpt lat="42.90908" lon="0.21423">
        <ele>1597.1375716422</ele>
        <time>2016-10-16T17:20:08Z</time>
      </trkpt>
      <trkpt lat="42.9091" lon="0.21429">
        <ele>1597.1375716422</ele>
        <time>2016-10-16T17:20:13Z</time>
      </trkpt>
      <trkpt lat="42.90919" lon="0.21436">
        <ele>1596.9594891659</ele>
        <time>2016-10-16T17:20:18Z</time>
      </trkpt>
      <trkpt lat="42.90918" lon="0.21436">
        <ele>1596.9594891659</ele>
        <time>2016-10-16T17:20:23Z</time>
      </trkpt>
      <trkpt lat="42.90923" lon="0.21439">
        <ele>1596.9594891659</ele>
        <time>2016-10-16T17:20:28Z</time>
      </trkpt>
      <trkpt lat="42.90928" lon="0.21449">
        <ele>1596.7459480326</ele>
        <time>2016-10-16T17:20:33Z</time>
      </trkpt>
      <trkpt lat="42.90933" lon="0.21446">
        <ele>1596.7459480326</ele>
        <time>2016-10-16T17:20:38Z</time>
      </trkpt>
      <trkpt lat="42.90937" lon="0.21442">
        <ele>1596.525261744</ele>
        <time>2016-10-16T17:20:43Z</time>
      </trkpt>
      <trkpt lat="42.90941" lon="0.21443">
        <ele>1596.525261744</ele>
        <time>2016-10-16T17:20:48Z</time>
      </trkpt>
      <trkpt lat="42.90946" lon="0.21442">
        <ele>1596.2806282011</ele>
        <time>2016-10-16T17:20:53Z</time>
      </trkpt>
      <trkpt lat="42.90949" lon="0.21445">
        <ele>1596.2806282011</ele>
        <time>2016-10-16T17:20:58Z</time>
      </trkpt>
      <trkpt lat="42.90951" lon="0.21448">
        <ele>1596.2806282011</ele>
        <time>2016-10-16T17:21:03Z</time>
      </trkpt>
      <trkpt lat="42.90953" lon="0.21449">
        <ele>1596.2806282011</ele>
        <time>2016-10-16T17:21:08Z</time>
      </trkpt>
      <trkpt lat="42.90956" lon="0.21452">
        <ele>1595.9678972828</ele>
        <time>2016-10-16T17:21:13Z</time>
      </trkpt>
      <trkpt lat="42.90959" lon="0.21458">
        <ele>1595.9678972828</ele>
        <time>2016-10-16T17:21:18Z</time>
      </trkpt>
      <trkpt lat="42.90962" lon="0.2146">
        <ele>1595.9678972828</ele>
        <time>2016-10-16T17:21:23Z</time>
      </trkpt>
      <trkpt lat="42.90967" lon="0.21465">
        <ele>1595.6185762274</ele>
        <time>2016-10-16T17:21:28Z</time>
      </trkpt>
      <trkpt lat="42.90972" lon="0.21469">
        <ele>1595.6185762274</ele>
        <time>2016-10-16T17:21:33Z</time>
      </trkpt>
      <trkpt lat="42.90975" lon="0.21469">
        <ele>1595.2477111507</ele>
        <time>2016-10-16T17:21:38Z</time>
      </trkpt>
      <trkpt lat="42.9098" lon="0.21472">
        <ele>1595.2477111507</ele>
        <time>2016-10-16T17:21:43Z</time>
      </trkpt>
      <trkpt lat="42.90982" lon="0.21474">
        <ele>1595.2477111507</ele>
        <time>2016-10-16T17:21:48Z</time>
      </trkpt>
      <trkpt lat="42.90987" lon="0.21476">
        <ele>1594.8118146186</ele>
        <time>2016-10-16T17:21:53Z</time>
      </trkpt>
      <trkpt lat="42.90988" lon="0.21478">
        <ele>1594.8118146186</ele>
        <time>2016-10-16T17:21:58Z</time>
      </trkpt>
      <trkpt lat="42.90989" lon="0.21481">
        <ele>1594.8118146186</ele>
        <time>2016-10-16T17:22:03Z</time>
      </trkpt>
      <trkpt lat="42.90991" lon="0.21485">
        <ele>1594.8118146186</ele>
        <time>2016-10-16T17:22:08Z</time>
      </trkpt>
      <trkpt lat="42.90994" lon="0.21487">
        <ele>1594.2276919434</ele>
        <time>2016-10-16T17:22:13Z</time>
      </trkpt>
      <trkpt lat="42.90999" lon="0.21489">
        <ele>1594.2276919434</ele>
        <time>2016-10-16T17:22:18Z</time>
      </trkpt>
      <trkpt lat="42.91003" lon="0.2149">
        <ele>1593.5917510771</ele>
        <time>2016-10-16T17:22:23Z</time>
      </trkpt>
      <trkpt lat="42.91007" lon="0.21496">
        <ele>1593.5917510771</ele>
        <time>2016-10-16T17:22:28Z</time>
      </trkpt>
      <trkpt lat="42.91011" lon="0.21501">
        <ele>1592.892719793</ele>
        <time>2016-10-16T17:22:33Z</time>
      </trkpt>
      <trkpt lat="42.91015" lon="0.21506">
        <ele>1592.892719793</ele>
        <time>2016-10-16T17:22:38Z</time>
      </trkpt>
      <trkpt lat="42.9102" lon="0.21505">
        <ele>1592.1204570766</ele>
        <time>2016-10-16T17:22:43Z</time>
      </trkpt>
      <trkpt lat="42.91024" lon="0.21508">
        <ele>1592.1204570766</ele>
        <time>2016-10-16T17:22:48Z</time>
      </trkpt>
      <trkpt lat="42.91028" lon="0.2151">
        <ele>1592.1204570766</ele>
        <time>2016-10-16T17:22:53Z</time>
      </trkpt>
      <trkpt lat="42.91033" lon="0.21513">
        <ele>1591.1073673122</ele>
        <time>2016-10-16T17:22:58Z</time>
      </trkpt>
      <trkpt lat="42.91034" lon="0.21515">
        <ele>1591.1073673122</ele>
        <time>2016-10-16T17:23:03Z</time>
      </trkpt>
      <trkpt lat="42.91034" lon="0.2152">
        <ele>1591.1073673122</ele>
        <time>2016-10-16T17:23:08Z</time>
      </trkpt>
      <trkpt lat="42.91036" lon="0.21523">
        <ele>1591.1073673122</ele>
        <time>2016-10-16T17:23:13Z</time>
      </trkpt>
      <trkpt lat="42.91038" lon="0.21524">
        <ele>1589.6701270443</ele>
        <time>2016-10-16T17:23:18Z</time>
      </trkpt>
      <trkpt lat="42.91039" lon="0.21524">
        <ele>1589.6701270443</ele>
        <time>2016-10-16T17:23:23Z</time>
      </trkpt>
      <trkpt lat="42.91045" lon="0.21523">
        <ele>1589.6701270443</ele>
        <time>2016-10-16T17:23:28Z</time>
      </trkpt>
      <trkpt lat="42.9105" lon="0.21527">
        <ele>1588.0004435305</ele>
        <time>2016-10-16T17:23:33Z</time>
      </trkpt>
      <trkpt lat="42.91053" lon="0.21527">
        <ele>1588.0004435305</ele>
        <time>2016-10-16T17:23:38Z</time>
      </trkpt>
      <trkpt lat="42.91056" lon="0.21524">
        <ele>1588.0004435305</ele>
        <time>2016-10-16T17:23:43Z</time>
      </trkpt>
      <trkpt lat="42.91056" lon="0.21524">
        <ele>1588.0004435305</ele>
        <time>2016-10-16T17:23:48Z</time>
      </trkpt>
      <trkpt lat="42.91056" lon="0.21524">
        <ele>1588.0004435305</ele>
        <time>2016-10-16T17:23:53Z</time>
      </trkpt>
      <trkpt lat="42.91055" lon="0.21524">
        <ele>1588.0004435305</ele>
        <time>2016-10-16T17:23:58Z</time>
      </trkpt>
      <trkpt lat="42.91053" lon="0.21524">
        <ele>1586.1037432704</ele>
        <time>2016-10-16T17:24:03Z</time>
      </trkpt>
      <trkpt lat="42.91046" lon="0.21527">
        <ele>1586.1037432704</ele>
        <time>2016-10-16T17:24:08Z</time>
      </trkpt>
      <trkpt lat="42.9105" lon="0.2153">
        <ele>1584.0578155275</ele>
        <time>2016-10-16T17:24:13Z</time>
      </trkpt>
      <trkpt lat="42.91052" lon="0.21532">
        <ele>1584.0578155275</ele>
        <time>2016-10-16T17:24:18Z</time>
      </trkpt>
      <trkpt lat="42.91054" lon="0.21536">
        <ele>1584.0578155275</ele>
        <time>2016-10-16T17:24:23Z</time>
      </trkpt>
      <trkpt lat="42.91053" lon="0.21537">
        <ele>1584.0578155275</ele>
        <time>2016-10-16T17:24:28Z</time>
      </trkpt>
      <trkpt lat="42.91053" lon="0.21535">
        <ele>1584.0578155275</ele>
        <time>2016-10-16T17:24:33Z</time>
      </trkpt>
      <trkpt lat="42.91054" lon="0.21536">
        <ele>1584.0578155275</ele>
        <time>2016-10-16T17:24:38Z</time>
      </trkpt>
      <trkpt lat="42.91055" lon="0.21535">
        <ele>1581.517284418</ele>
        <time>2016-10-16T17:24:43Z</time>
      </trkpt>
      <trkpt lat="42.91059" lon="0.21534">
        <ele>1581.517284418</ele>
        <time>2016-10-16T17:24:48Z</time>
      </trkpt>
      <trkpt lat="42.91063" lon="0.21534">
        <ele>1581.517284418</ele>
        <time>2016-10-16T17:24:53Z</time>
      </trkpt>
      <trkpt lat="42.9107" lon="0.21532">
        <ele>1578.8408912082</ele>
        <time>2016-10-16T17:24:58Z</time>
      </trkpt>
      <trkpt lat="42.91076" lon="0.21532">
        <ele>1578.8408912082</ele>
        <time>2016-10-16T17:25:03Z</time>
      </trkpt>
      <trkpt lat="42.91081" lon="0.2153">
        <ele>1576.1740793874</ele>
        <time>2016-10-16T17:25:08Z</time>
      </trkpt>
      <trkpt lat="42.91082" lon="0.21528">
        <ele>1576.1740793874</ele>
        <time>2016-10-16T17:25:13Z</time>
      </trkpt>
      <trkpt lat="42.91082" lon="0.21527">
        <ele>1576.1740793874</ele>
        <time>2016-10-16T17:25:18Z</time>
      </trkpt>
      <trkpt lat="42.91082" lon="0.21527">
        <ele>1576.1740793874</ele>
        <time>2016-10-16T17:25:23Z</time>
      </trkpt>
      <trkpt lat="42.91081" lon="0.21528">
        <ele>1576.1740793874</ele>
        <time>2016-10-16T17:25:28Z</time>
      </trkpt>
      <trkpt lat="42.91081" lon="0.21536">
        <ele>1573.565115606</ele>
        <time>2016-10-16T17:25:33Z</time>
      </trkpt>
      <trkpt lat="42.91083" lon="0.21533">
        <ele>1573.565115606</ele>
        <time>2016-10-16T17:25:38Z</time>
      </trkpt>
      <trkpt lat="42.91087" lon="0.2153">
        <ele>1573.565115606</ele>
        <time>2016-10-16T17:25:43Z</time>
      </trkpt>
      <trkpt lat="42.91089" lon="0.21523">
        <ele>1570.9576646109</ele>
        <time>2016-10-16T17:25:48Z</time>
      </trkpt>
      <trkpt lat="42.91091" lon="0.21513">
        <ele>1570.9576646109</ele>
        <time>2016-10-16T17:25:53Z</time>
      </trkpt>
      <trkpt lat="42.91091" lon="0.21504">
        <ele>1568.4724269142</ele>
        <time>2016-10-16T17:25:58Z</time>
      </trkpt>
      <trkpt lat="42.91093" lon="0.21502">
        <ele>1568.4724269142</ele>
        <time>2016-10-16T17:26:03Z</time>
      </trkpt>
      <trkpt lat="42.91095" lon="0.21502">
        <ele>1568.4724269142</ele>
        <time>2016-10-16T17:26:08Z</time>
      </trkpt>
      <trkpt lat="42.91095" lon="0.21496">
        <ele>1566.062325698</ele>
        <time>2016-10-16T17:26:13Z</time>
      </trkpt>
      <trkpt lat="42.91097" lon="0.21493">
        <ele>1566.062325698</ele>
        <time>2016-10-16T17:26:18Z</time>
      </trkpt>
      <trkpt lat="42.91101" lon="0.21491">
        <ele>1566.062325698</ele>
        <time>2016-10-16T17:26:23Z</time>
      </trkpt>
      <trkpt lat="42.91103" lon="0.21487">
        <ele>1563.7843517931</ele>
        <time>2016-10-16T17:26:28Z</time>
      </trkpt>
      <trkpt lat="42.91107" lon="0.21482">
        <ele>1563.7843517931</ele>
        <time>2016-10-16T17:26:33Z</time>
      </trkpt>
      <trkpt lat="42.91109" lon="0.21479">
        <ele>1563.7843517931</ele>
        <time>2016-10-16T17:26:38Z</time>
      </trkpt>
      <trkpt lat="42.91114" lon="0.21477">
        <ele>1561.6332266501</ele>
        <time>2016-10-16T17:26:43Z</time>
      </trkpt>
      <trkpt lat="42.91116" lon="0.21474">
        <ele>1561.6332266501</ele>
        <time>2016-10-16T17:26:48Z</time>
      </trkpt>
      <trkpt lat="42.9112" lon="0.2147">
        <ele>1561.6332266501</ele>
        <time>2016-10-16T17:26:53Z</time>
      </trkpt>
      <trkpt lat="42.91124" lon="0.21471">
        <ele>1559.6468611357</ele>
        <time>2016-10-16T17:26:58Z</time>
      </trkpt>
      <trkpt lat="42.91126" lon="0.21475">
        <ele>1559.6468611357</ele>
        <time>2016-10-16T17:27:03Z</time>
      </trkpt>
      <trkpt lat="42.91125" lon="0.2148">
        <ele>1559.6468611357</ele>
        <time>2016-10-16T17:27:08Z</time>
      </trkpt>
      <trkpt lat="42.91123" lon="0.21484">
        <ele>1557.8166036784</ele>
        <time>2016-10-16T17:27:13Z</time>
      </trkpt>
      <trkpt lat="42.91123" lon="0.21488">
        <ele>1557.8166036784</ele>
        <time>2016-10-16T17:27:18Z</time>
      </trkpt>
      <trkpt lat="42.91124" lon="0.21491">
        <ele>1557.8166036784</ele>
        <time>2016-10-16T17:27:23Z</time>
      </trkpt>
      <trkpt lat="42.91125" lon="0.21495">
        <ele>1557.8166036784</ele>
        <time>2016-10-16T17:27:28Z</time>
      </trkpt>
      <trkpt lat="42.91125" lon="0.21499">
        <ele>1556.1483252986</ele>
        <time>2016-10-16T17:27:33Z</time>
      </trkpt>
      <trkpt lat="42.91128" lon="0.21502">
        <ele>1556.1483252986</ele>
        <time>2016-10-16T17:27:38Z</time>
      </trkpt>
      <trkpt lat="42.9113" lon="0.21507">
        <ele>1556.1483252986</ele>
        <time>2016-10-16T17:27:43Z</time>
      </trkpt>
      <trkpt lat="42.91133" lon="0.21512">
        <ele>1554.6325118104</ele>
        <time>2016-10-16T17:27:48Z</time>
      </trkpt>
      <trkpt lat="42.91136" lon="0.21514">
        <ele>1554.6325118104</ele>
        <time>2016-10-16T17:27:53Z</time>
      </trkpt>
      <trkpt lat="42.91142" lon="0.21518">
        <ele>1553.2598313046</ele>
        <time>2016-10-16T17:27:58Z</time>
      </trkpt>
      <trkpt lat="42.91148" lon="0.21522">
        <ele>1553.2598313046</ele>
        <time>2016-10-16T17:28:03Z</time>
      </trkpt>
      <trkpt lat="42.91151" lon="0.21524">
        <ele>1552.0355591499</ele>
        <time>2016-10-16T17:28:08Z</time>
      </trkpt>
      <trkpt lat="42.91157" lon="0.21529">
        <ele>1552.0355591499</ele>
        <time>2016-10-16T17:28:13Z</time>
      </trkpt>
      <trkpt lat="42.91162" lon="0.21528">
        <ele>1550.9496704542</ele>
        <time>2016-10-16T17:28:18Z</time>
      </trkpt>
      <trkpt lat="42.91164" lon="0.2153">
        <ele>1550.9496704542</ele>
        <time>2016-10-16T17:28:23Z</time>
      </trkpt>
      <trkpt lat="42.91168" lon="0.21533">
        <ele>1550.9496704542</ele>
        <time>2016-10-16T17:28:28Z</time>
      </trkpt>
      <trkpt lat="42.9117" lon="0.21539">
        <ele>1549.9924070591</ele>
        <time>2016-10-16T17:28:33Z</time>
      </trkpt>
      <trkpt lat="42.9117" lon="0.21543">
        <ele>1549.9924070591</ele>
        <time>2016-10-16T17:28:38Z</time>
      </trkpt>
      <trkpt lat="42.9117" lon="0.21545">
        <ele>1549.9924070591</ele>
        <time>2016-10-16T17:28:43Z</time>
      </trkpt>
      <trkpt lat="42.91172" lon="0.21546">
        <ele>1549.9924070591</ele>
        <time>2016-10-16T17:28:48Z</time>
      </trkpt>
      <trkpt lat="42.91176" lon="0.2155">
        <ele>1549.1398790977</ele>
        <time>2016-10-16T17:28:53Z</time>
      </trkpt>
      <trkpt lat="42.9118" lon="0.21555">
        <ele>1549.1398790977</ele>
        <time>2016-10-16T17:28:58Z</time>
      </trkpt>
      <trkpt lat="42.91183" lon="0.2156">
        <ele>1548.3984092966</ele>
        <time>2016-10-16T17:29:03Z</time>
      </trkpt>
      <trkpt lat="42.91188" lon="0.21564">
        <ele>1548.3984092966</ele>
        <time>2016-10-16T17:29:08Z</time>
      </trkpt>
      <trkpt lat="42.91193" lon="0.2157">
        <ele>1547.7878913573</ele>
        <time>2016-10-16T17:29:13Z</time>
      </trkpt>
      <trkpt lat="42.91199" lon="0.21574">
        <ele>1547.7878913573</ele>
        <time>2016-10-16T17:29:18Z</time>
      </trkpt>
      <trkpt lat="42.91205" lon="0.21579">
        <ele>1547.283100059</ele>
        <time>2016-10-16T17:29:23Z</time>
      </trkpt>
      <trkpt lat="42.91212" lon="0.21584">
        <ele>1547.283100059</ele>
        <time>2016-10-16T17:29:28Z</time>
      </trkpt>
      <trkpt lat="42.91218" lon="0.21587">
        <ele>1546.8747287516</ele>
        <time>2016-10-16T17:29:33Z</time>
      </trkpt>
      <trkpt lat="42.91224" lon="0.2159">
        <ele>1546.8747287516</ele>
        <time>2016-10-16T17:29:38Z</time>
      </trkpt>
      <trkpt lat="42.9123" lon="0.21593">
        <ele>1546.5538432898</ele>
        <time>2016-10-16T17:29:43Z</time>
      </trkpt>
      <trkpt lat="42.91236" lon="0.21594">
        <ele>1546.5538432898</ele>
        <time>2016-10-16T17:29:48Z</time>
      </trkpt>
      <trkpt lat="42.91242" lon="0.21597">
        <ele>1546.2974772338</ele>
        <time>2016-10-16T17:29:53Z</time>
      </trkpt>
      <trkpt lat="42.91247" lon="0.21598">
        <ele>1546.2974772338</ele>
        <time>2016-10-16T17:29:58Z</time>
      </trkpt>
      <trkpt lat="42.91253" lon="0.21601">
        <ele>1546.112969216</ele>
        <time>2016-10-16T17:30:03Z</time>
      </trkpt>
      <trkpt lat="42.91258" lon="0.21603">
        <ele>1546.112969216</ele>
        <time>2016-10-16T17:30:08Z</time>
      </trkpt>
      <trkpt lat="42.91264" lon="0.21605">
        <ele>1546.0213139267</ele>
        <time>2016-10-16T17:30:13Z</time>
      </trkpt>
      <trkpt lat="42.9127" lon="0.21608">
        <ele>1546.0213139267</ele>
        <time>2016-10-16T17:30:18Z</time>
      </trkpt>
      <trkpt lat="42.91275" lon="0.21611">
        <ele>1546.0128756137</ele>
        <time>2016-10-16T17:30:23Z</time>
      </trkpt>
      <trkpt lat="42.91279" lon="0.21614">
        <ele>1546.0128756137</ele>
        <time>2016-10-16T17:30:28Z</time>
      </trkpt>
      <trkpt lat="42.91282" lon="0.21617">
        <ele>1546.0128756137</ele>
        <time>2016-10-16T17:30:33Z</time>
      </trkpt>
      <trkpt lat="42.91285" lon="0.2162">
        <ele>1546.1217297786</ele>
        <time>2016-10-16T17:30:38Z</time>
      </trkpt>
      <trkpt lat="42.91289" lon="0.21624">
        <ele>1546.1217297786</ele>
        <time>2016-10-16T17:30:43Z</time>
      </trkpt>
      <trkpt lat="42.91293" lon="0.21627">
        <ele>1546.321487825</ele>
        <time>2016-10-16T17:30:48Z</time>
      </trkpt>
      <trkpt lat="42.913" lon="0.21628">
        <ele>1546.321487825</ele>
        <time>2016-10-16T17:30:53Z</time>
      </trkpt>
      <trkpt lat="42.91305" lon="0.2163">
        <ele>1546.6018774542</ele>
        <time>2016-10-16T17:30:58Z</time>
      </trkpt>
      <trkpt lat="42.91311" lon="0.21631">
        <ele>1546.6018774542</ele>
        <time>2016-10-16T17:31:03Z</time>
      </trkpt>
      <trkpt lat="42.91316" lon="0.21631">
        <ele>1546.9531856016</ele>
        <time>2016-10-16T17:31:08Z</time>
      </trkpt>
      <trkpt lat="42.9132" lon="0.21633">
        <ele>1546.9531856016</ele>
        <time>2016-10-16T17:31:13Z</time>
      </trkpt>
      <trkpt lat="42.91327" lon="0.21634">
        <ele>1547.380664796</ele>
        <time>2016-10-16T17:31:18Z</time>
      </trkpt>
      <trkpt lat="42.91332" lon="0.21635">
        <ele>1547.380664796</ele>
        <time>2016-10-16T17:31:23Z</time>
      </trkpt>
      <trkpt lat="42.91336" lon="0.21638">
        <ele>1547.8601945955</ele>
        <time>2016-10-16T17:31:28Z</time>
      </trkpt>
      <trkpt lat="42.91341" lon="0.21642">
        <ele>1547.8601945955</ele>
        <time>2016-10-16T17:31:33Z</time>
      </trkpt>
      <trkpt lat="42.91345" lon="0.21644">
        <ele>1548.3837489377</ele>
        <time>2016-10-16T17:31:38Z</time>
      </trkpt>
      <trkpt lat="42.9135" lon="0.21646">
        <ele>1548.3837489377</ele>
        <time>2016-10-16T17:31:43Z</time>
      </trkpt>
      <trkpt lat="42.91352" lon="0.21648">
        <ele>1548.3837489377</ele>
        <time>2016-10-16T17:31:48Z</time>
      </trkpt>
      <trkpt lat="42.91354" lon="0.21652">
        <ele>1548.9870669412</ele>
        <time>2016-10-16T17:31:53Z</time>
      </trkpt>
      <trkpt lat="42.91356" lon="0.21654">
        <ele>1548.9870669412</ele>
        <time>2016-10-16T17:31:58Z</time>
      </trkpt>
      <trkpt lat="42.91356" lon="0.21656">
        <ele>1548.9870669412</ele>
        <time>2016-10-16T17:32:03Z</time>
      </trkpt>
      <trkpt lat="42.91359" lon="0.21657">
        <ele>1548.9870669412</ele>
        <time>2016-10-16T17:32:08Z</time>
      </trkpt>
      <trkpt lat="42.91363" lon="0.21658">
        <ele>1549.6742901513</ele>
        <time>2016-10-16T17:32:13Z</time>
      </trkpt>
      <trkpt lat="42.91367" lon="0.21657">
        <ele>1549.6742901513</ele>
        <time>2016-10-16T17:32:18Z</time>
      </trkpt>
      <trkpt lat="42.91369" lon="0.21659">
        <ele>1549.6742901513</ele>
        <time>2016-10-16T17:32:23Z</time>
      </trkpt>
      <trkpt lat="42.91373" lon="0.21661">
        <ele>1550.39145753</ele>
        <time>2016-10-16T17:32:28Z</time>
      </trkpt>
      <trkpt lat="42.91376" lon="0.21664">
        <ele>1550.39145753</ele>
        <time>2016-10-16T17:32:33Z</time>
      </trkpt>
      <trkpt lat="42.91381" lon="0.21667">
        <ele>1551.0885767457</ele>
        <time>2016-10-16T17:32:38Z</time>
      </trkpt>
      <trkpt lat="42.91385" lon="0.21669">
        <ele>1551.0885767457</ele>
        <time>2016-10-16T17:32:43Z</time>
      </trkpt>
      <trkpt lat="42.91391" lon="0.21671">
        <ele>1551.7627129403</ele>
        <time>2016-10-16T17:32:48Z</time>
      </trkpt>
      <trkpt lat="42.91395" lon="0.21673">
        <ele>1551.7627129403</ele>
        <time>2016-10-16T17:32:53Z</time>
      </trkpt>
      <trkpt lat="42.91399" lon="0.21676">
        <ele>1551.7627129403</ele>
        <time>2016-10-16T17:32:58Z</time>
      </trkpt>
      <trkpt lat="42.91405" lon="0.21676">
        <ele>1552.3969016255</ele>
        <time>2016-10-16T17:33:03Z</time>
      </trkpt>
      <trkpt lat="42.91409" lon="0.21674">
        <ele>1552.3969016255</ele>
        <time>2016-10-16T17:33:08Z</time>
      </trkpt>
      <trkpt lat="42.91414" lon="0.21677">
        <ele>1552.9900541276</ele>
        <time>2016-10-16T17:33:13Z</time>
      </trkpt>
      <trkpt lat="42.91419" lon="0.21678">
        <ele>1552.9900541276</ele>
        <time>2016-10-16T17:33:18Z</time>
      </trkpt>
      <trkpt lat="42.91424" lon="0.2168">
        <ele>1553.5557984631</ele>
        <time>2016-10-16T17:33:23Z</time>
      </trkpt>
      <trkpt lat="42.91429" lon="0.21679">
        <ele>1553.5557984631</ele>
        <time>2016-10-16T17:33:28Z</time>
      </trkpt>
      <trkpt lat="42.91434" lon="0.2168">
        <ele>1554.1069520622</ele>
        <time>2016-10-16T17:33:33Z</time>
      </trkpt>
      <trkpt lat="42.91439" lon="0.21678">
        <ele>1554.1069520622</ele>
        <time>2016-10-16T17:33:38Z</time>
      </trkpt>
      <trkpt lat="42.91443" lon="0.21677">
        <ele>1554.6411365644</ele>
        <time>2016-10-16T17:33:43Z</time>
      </trkpt>
      <trkpt lat="42.91446" lon="0.21675">
        <ele>1554.6411365644</ele>
        <time>2016-10-16T17:33:48Z</time>
      </trkpt>
      <trkpt lat="42.91449" lon="0.21674">
        <ele>1554.6411365644</ele>
        <time>2016-10-16T17:33:53Z</time>
      </trkpt>
      <trkpt lat="42.91453" lon="0.21673">
        <ele>1555.1563134807</ele>
        <time>2016-10-16T17:33:58Z</time>
      </trkpt>
      <trkpt lat="42.91458" lon="0.21672">
        <ele>1555.1563134807</ele>
        <time>2016-10-16T17:34:03Z</time>
      </trkpt>
      <trkpt lat="42.91464" lon="0.2167">
        <ele>1555.6363547628</ele>
        <time>2016-10-16T17:34:08Z</time>
      </trkpt>
      <trkpt lat="42.91467" lon="0.21668">
        <ele>1555.6363547628</ele>
        <time>2016-10-16T17:34:13Z</time>
      </trkpt>
      <trkpt lat="42.91469" lon="0.21668">
        <ele>1555.6363547628</ele>
        <time>2016-10-16T17:34:18Z</time>
      </trkpt>
      <trkpt lat="42.91471" lon="0.21667">
        <ele>1555.6363547628</ele>
        <time>2016-10-16T17:34:23Z</time>
      </trkpt>
      <trkpt lat="42.91476" lon="0.21663">
        <ele>1556.0809455942</ele>
        <time>2016-10-16T17:34:28Z</time>
      </trkpt>
      <trkpt lat="42.91478" lon="0.2166">
        <ele>1556.0809455942</ele>
        <time>2016-10-16T17:34:33Z</time>
      </trkpt>
      <trkpt lat="42.91481" lon="0.21654">
        <ele>1556.0809455942</ele>
        <time>2016-10-16T17:34:38Z</time>
      </trkpt>
      <trkpt lat="42.91484" lon="0.21652">
        <ele>1556.4900122034</ele>
        <time>2016-10-16T17:34:43Z</time>
      </trkpt>
      <trkpt lat="42.91488" lon="0.2165">
        <ele>1556.4900122034</ele>
        <time>2016-10-16T17:34:48Z</time>
      </trkpt>
      <trkpt lat="42.91491" lon="0.21647">
        <ele>1556.4900122034</ele>
        <time>2016-10-16T17:34:53Z</time>
      </trkpt>
      <trkpt lat="42.91493" lon="0.21643">
        <ele>1556.8492922879</ele>
        <time>2016-10-16T17:34:58Z</time>
      </trkpt>
      <trkpt lat="42.91499" lon="0.2164">
        <ele>1556.8492922879</ele>
        <time>2016-10-16T17:35:03Z</time>
      </trkpt>
      <trkpt lat="42.91503" lon="0.21635">
        <ele>1557.1746490967</ele>
        <time>2016-10-16T17:35:08Z</time>
      </trkpt>
      <trkpt lat="42.91505" lon="0.21634">
        <ele>1557.1746490967</ele>
        <time>2016-10-16T17:35:13Z</time>
      </trkpt>
      <trkpt lat="42.91505" lon="0.21636">
        <ele>1557.1746490967</ele>
        <time>2016-10-16T17:35:18Z</time>
      </trkpt>
      <trkpt lat="42.91505" lon="0.21636">
        <ele>1557.1746490967</ele>
        <time>2016-10-16T17:35:23Z</time>
      </trkpt>
      <trkpt lat="42.91505" lon="0.21636">
        <ele>1557.1746490967</ele>
        <time>2016-10-16T17:35:28Z</time>
      </trkpt>
      <trkpt lat="42.91506" lon="0.21636">
        <ele>1557.1746490967</ele>
        <time>2016-10-16T17:35:33Z</time>
      </trkpt>
      <trkpt lat="42.91506" lon="0.21632">
        <ele>1557.1746490967</ele>
        <time>2016-10-16T17:35:38Z</time>
      </trkpt>
      <trkpt lat="42.9151" lon="0.21628">
        <ele>1557.4233450322</ele>
        <time>2016-10-16T17:35:43Z</time>
      </trkpt>
      <trkpt lat="42.91513" lon="0.21622">
        <ele>1557.4233450322</ele>
        <time>2016-10-16T17:35:48Z</time>
      </trkpt>
      <trkpt lat="42.91516" lon="0.21617">
        <ele>1557.628163611</ele>
        <time>2016-10-16T17:35:53Z</time>
      </trkpt>
      <trkpt lat="42.91518" lon="0.21613">
        <ele>1557.628163611</ele>
        <time>2016-10-16T17:35:58Z</time>
      </trkpt>
      <trkpt lat="42.9152" lon="0.2161">
        <ele>1557.628163611</ele>
        <time>2016-10-16T17:36:03Z</time>
      </trkpt>
      <trkpt lat="42.91524" lon="0.21603">
        <ele>1557.7908886284</ele>
        <time>2016-10-16T17:36:08Z</time>
      </trkpt>
      <trkpt lat="42.91527" lon="0.21596">
        <ele>1557.7908886284</ele>
        <time>2016-10-16T17:36:13Z</time>
      </trkpt>
      <trkpt lat="42.91528" lon="0.21591">
        <ele>1557.913394805</ele>
        <time>2016-10-16T17:36:18Z</time>
      </trkpt>
      <trkpt lat="42.91531" lon="0.21585">
        <ele>1557.913394805</ele>
        <time>2016-10-16T17:36:23Z</time>
      </trkpt>
      <trkpt lat="42.91532" lon="0.21579">
        <ele>1557.9976316224</ele>
        <time>2016-10-16T17:36:28Z</time>
      </trkpt>
      <trkpt lat="42.91535" lon="0.21572">
        <ele>1557.9976316224</ele>
        <time>2016-10-16T17:36:33Z</time>
      </trkpt>
      <trkpt lat="42.91536" lon="0.21567">
        <ele>1558.0600189568</ele>
        <time>2016-10-16T17:36:38Z</time>
      </trkpt>
      <trkpt lat="42.91538" lon="0.21558">
        <ele>1558.0600189568</ele>
        <time>2016-10-16T17:36:43Z</time>
      </trkpt>
      <trkpt lat="42.9154" lon="0.2155">
        <ele>1558.0870999093</ele>
        <time>2016-10-16T17:36:48Z</time>
      </trkpt>
      <trkpt lat="42.91542" lon="0.21543">
        <ele>1558.0870999093</ele>
        <time>2016-10-16T17:36:53Z</time>
      </trkpt>
      <trkpt lat="42.91544" lon="0.21536">
        <ele>1558.0810016744</ele>
        <time>2016-10-16T17:36:58Z</time>
      </trkpt>
      <trkpt lat="42.91545" lon="0.21531">
        <ele>1558.0810016744</ele>
        <time>2016-10-16T17:37:03Z</time>
      </trkpt>
      <trkpt lat="42.91547" lon="0.21527">
        <ele>1558.0810016744</ele>
        <time>2016-10-16T17:37:08Z</time>
      </trkpt>
      <trkpt lat="42.91549" lon="0.21522">
        <ele>1558.0438685495</ele>
        <time>2016-10-16T17:37:13Z</time>
      </trkpt>
      <trkpt lat="42.91549" lon="0.21519">
        <ele>1558.0438685495</ele>
        <time>2016-10-16T17:37:18Z</time>
      </trkpt>
      <trkpt lat="42.9155" lon="0.21512">
        <ele>1558.0438685495</ele>
        <time>2016-10-16T17:37:23Z</time>
      </trkpt>
      <trkpt lat="42.91552" lon="0.21506">
        <ele>1557.9634382989</ele>
        <time>2016-10-16T17:37:28Z</time>
      </trkpt>
      <trkpt lat="42.91554" lon="0.21501">
        <ele>1557.9634382989</ele>
        <time>2016-10-16T17:37:33Z</time>
      </trkpt>
      <trkpt lat="42.91556" lon="0.21497">
        <ele>1557.9634382989</ele>
        <time>2016-10-16T17:37:38Z</time>
      </trkpt>
      <trkpt lat="42.91559" lon="0.2149">
        <ele>1557.8573628437</ele>
        <time>2016-10-16T17:37:43Z</time>
      </trkpt>
      <trkpt lat="42.91561" lon="0.21484">
        <ele>1557.8573628437</ele>
        <time>2016-10-16T17:37:48Z</time>
      </trkpt>
      <trkpt lat="42.91561" lon="0.21479">
        <ele>1557.8573628437</ele>
        <time>2016-10-16T17:37:53Z</time>
      </trkpt>
      <trkpt lat="42.91562" lon="0.21474">
        <ele>1557.7133113465</ele>
        <time>2016-10-16T17:37:58Z</time>
      </trkpt>
      <trkpt lat="42.91562" lon="0.21473">
        <ele>1557.7133113465</ele>
        <time>2016-10-16T17:38:03Z</time>
      </trkpt>
      <trkpt lat="42.91562" lon="0.21472">
        <ele>1557.7133113465</ele>
        <time>2016-10-16T17:38:08Z</time>
      </trkpt>
      <trkpt lat="42.91563" lon="0.21469">
        <ele>1557.7133113465</ele>
        <time>2016-10-16T17:38:13Z</time>
      </trkpt>
      <trkpt lat="42.91563" lon="0.21469">
        <ele>1557.7133113465</ele>
        <time>2016-10-16T17:38:18Z</time>
      </trkpt>
      <trkpt lat="42.91563" lon="0.21468">
        <ele>1557.7133113465</ele>
        <time>2016-10-16T17:38:23Z</time>
      </trkpt>
      <trkpt lat="42.91564" lon="0.21469">
        <ele>1557.7133113465</ele>
        <time>2016-10-16T17:38:28Z</time>
      </trkpt>
      <trkpt lat="42.91564" lon="0.21468">
        <ele>1557.7133113465</ele>
        <time>2016-10-16T17:38:33Z</time>
      </trkpt>
      <trkpt lat="42.91564" lon="0.21468">
        <ele>1557.7133113465</ele>
        <time>2016-10-16T17:38:38Z</time>
      </trkpt>
      <trkpt lat="42.91564" lon="0.21468">
        <ele>1557.7133113465</ele>
        <time>2016-10-16T17:38:43Z</time>
      </trkpt>
      <trkpt lat="42.91564" lon="0.21468">
        <ele>1557.7133113465</ele>
        <time>2016-10-16T17:38:48Z</time>
      </trkpt>
      <trkpt lat="42.91564" lon="0.21468">
        <ele>1557.7133113465</ele>
        <time>2016-10-16T17:38:53Z</time>
      </trkpt>
      <trkpt lat="42.91564" lon="0.21468">
        <ele>1557.7133113465</ele>
        <time>2016-10-16T17:38:58Z</time>
      </trkpt>
      <trkpt lat="42.91565" lon="0.21468">
        <ele>1557.7133113465</ele>
        <time>2016-10-16T17:39:03Z</time>
      </trkpt>
      <trkpt lat="42.91565" lon="0.21468">
        <ele>1557.7133113465</ele>
        <time>2016-10-16T17:39:08Z</time>
      </trkpt>
      <trkpt lat="42.91565" lon="0.21468">
        <ele>1557.7133113465</ele>
        <time>2016-10-16T17:39:13Z</time>
      </trkpt>
      <trkpt lat="42.91565" lon="0.21468">
        <ele>1557.7133113465</ele>
        <time>2016-10-16T17:39:18Z</time>
      </trkpt>
      <trkpt lat="42.91566" lon="0.21468">
        <ele>1557.7133113465</ele>
        <time>2016-10-16T17:39:23Z</time>
      </trkpt>
      <trkpt lat="42.91566" lon="0.21468">
        <ele>1557.7133113465</ele>
        <time>2016-10-16T17:39:28Z</time>
      </trkpt>
      <trkpt lat="42.91566" lon="0.21469">
        <ele>1557.7133113465</ele>
        <time>2016-10-16T17:39:33Z</time>
      </trkpt>
      <trkpt lat="42.91566" lon="0.21469">
        <ele>1557.5344351433</ele>
        <time>2016-10-16T17:39:38Z</time>
      </trkpt>
      <trkpt lat="42.91566" lon="0.21469">
        <ele>1557.5344351433</ele>
        <time>2016-10-16T17:39:43Z</time>
      </trkpt>
      <trkpt lat="42.91566" lon="0.21469">
        <ele>1557.5344351433</ele>
        <time>2016-10-16T17:39:48Z</time>
      </trkpt>
      <trkpt lat="42.91566" lon="0.2147">
        <ele>1557.5344351433</ele>
        <time>2016-10-16T17:39:53Z</time>
      </trkpt>
      <trkpt lat="42.91567" lon="0.2147">
        <ele>1557.5344351433</ele>
        <time>2016-10-16T17:39:58Z</time>
      </trkpt>
      <trkpt lat="42.91567" lon="0.2147">
        <ele>1557.5344351433</ele>
        <time>2016-10-16T17:40:03Z</time>
      </trkpt>
      <trkpt lat="42.91567" lon="0.2147">
        <ele>1557.5344351433</ele>
        <time>2016-10-16T17:40:08Z</time>
      </trkpt>
      <trkpt lat="42.91566" lon="0.21471">
        <ele>1557.5344351433</ele>
        <time>2016-10-16T17:40:13Z</time>
      </trkpt>
      <trkpt lat="42.91565" lon="0.2147">
        <ele>1557.5344351433</ele>
        <time>2016-10-16T17:40:18Z</time>
      </trkpt>
      <trkpt lat="42.91565" lon="0.2147">
        <ele>1557.5344351433</ele>
        <time>2016-10-16T17:40:23Z</time>
      </trkpt>
      <trkpt lat="42.91566" lon="0.2147">
        <ele>1557.5344351433</ele>
        <time>2016-10-16T17:40:28Z</time>
      </trkpt>
      <trkpt lat="42.91567" lon="0.2147">
        <ele>1557.5344351433</ele>
        <time>2016-10-16T17:40:33Z</time>
      </trkpt>
      <trkpt lat="42.91568" lon="0.2147">
        <ele>1557.5344351433</ele>
        <time>2016-10-16T17:40:38Z</time>
      </trkpt>
      <trkpt lat="42.91568" lon="0.21471">
        <ele>1557.5344351433</ele>
        <time>2016-10-16T17:40:43Z</time>
      </trkpt>
      <trkpt lat="42.91568" lon="0.21471">
        <ele>1557.5344351433</ele>
        <time>2016-10-16T17:40:48Z</time>
      </trkpt>
      <trkpt lat="42.91568" lon="0.21473">
        <ele>1557.3093937625</ele>
        <time>2016-10-16T17:40:53Z</time>
      </trkpt>
      <trkpt lat="42.91568" lon="0.21473">
        <ele>1557.3093937625</ele>
        <time>2016-10-16T17:40:58Z</time>
      </trkpt>
      <trkpt lat="42.91567" lon="0.21475">
        <ele>1557.3093937625</ele>
        <time>2016-10-16T17:41:03Z</time>
      </trkpt>
      <trkpt lat="42.91568" lon="0.21474">
        <ele>1557.3093937625</ele>
        <time>2016-10-16T17:41:08Z</time>
      </trkpt>
      <trkpt lat="42.91568" lon="0.21474">
        <ele>1557.3093937625</ele>
        <time>2016-10-16T17:41:13Z</time>
      </trkpt>
      <trkpt lat="42.91568" lon="0.21474">
        <ele>1557.3093937625</ele>
        <time>2016-10-16T17:41:18Z</time>
      </trkpt>
      <trkpt lat="42.91567" lon="0.21474">
        <ele>1557.3093937625</ele>
        <time>2016-10-16T17:41:23Z</time>
      </trkpt>
      <trkpt lat="42.91567" lon="0.21475">
        <ele>1557.3093937625</ele>
        <time>2016-10-16T17:41:28Z</time>
      </trkpt>
      <trkpt lat="42.91567" lon="0.21475">
        <ele>1557.3093937625</ele>
        <time>2016-10-16T17:41:33Z</time>
      </trkpt>
      <trkpt lat="42.91567" lon="0.21474">
        <ele>1557.3093937625</ele>
        <time>2016-10-16T17:41:38Z</time>
      </trkpt>
      <trkpt lat="42.91567" lon="0.21474">
        <ele>1557.3093937625</ele>
        <time>2016-10-16T17:41:43Z</time>
      </trkpt>
      <trkpt lat="42.91566" lon="0.21474">
        <ele>1557.3093937625</ele>
        <time>2016-10-16T17:41:48Z</time>
      </trkpt>
      <trkpt lat="42.91566" lon="0.21474">
        <ele>1557.3093937625</ele>
        <time>2016-10-16T17:41:53Z</time>
      </trkpt>
      <trkpt lat="42.91567" lon="0.21475">
        <ele>1557.3093937625</ele>
        <time>2016-10-16T17:41:58Z</time>
      </trkpt>
      <trkpt lat="42.91567" lon="0.21475">
        <ele>1557.3093937625</ele>
        <time>2016-10-16T17:42:03Z</time>
      </trkpt>
      <trkpt lat="42.91567" lon="0.21475">
        <ele>1557.3093937625</ele>
        <time>2016-10-16T17:42:08Z</time>
      </trkpt>
      <trkpt lat="42.91567" lon="0.21475">
        <ele>1557.3093937625</ele>
        <time>2016-10-16T17:42:13Z</time>
      </trkpt>
      <trkpt lat="42.91567" lon="0.21475">
        <ele>1557.3093937625</ele>
        <time>2016-10-16T17:42:18Z</time>
      </trkpt>
      <trkpt lat="42.91566" lon="0.21474">
        <ele>1557.3093937625</ele>
        <time>2016-10-16T17:42:23Z</time>
      </trkpt>
      <trkpt lat="42.91566" lon="0.21474">
        <ele>1557.3093937625</ele>
        <time>2016-10-16T17:42:28Z</time>
      </trkpt>
      <trkpt lat="42.91566" lon="0.21474">
        <ele>1557.3093937625</ele>
        <time>2016-10-16T17:42:33Z</time>
      </trkpt>
      <trkpt lat="42.91566" lon="0.21473">
        <ele>1557.3093937625</ele>
        <time>2016-10-16T17:42:38Z</time>
      </trkpt>
      <trkpt lat="42.91566" lon="0.21474">
        <ele>1557.0278567414</ele>
        <time>2016-10-16T17:42:43Z</time>
      </trkpt>
      <trkpt lat="42.91566" lon="0.21475">
        <ele>1557.0278567414</ele>
        <time>2016-10-16T17:42:48Z</time>
      </trkpt>
      <trkpt lat="42.91566" lon="0.21474">
        <ele>1557.0278567414</ele>
        <time>2016-10-16T17:42:53Z</time>
      </trkpt>
      <trkpt lat="42.91566" lon="0.21474">
        <ele>1557.0278567414</ele>
        <time>2016-10-16T17:42:58Z</time>
      </trkpt>
      <trkpt lat="42.91566" lon="0.21474">
        <ele>1557.0278567414</ele>
        <time>2016-10-16T17:43:03Z</time>
      </trkpt>
      <trkpt lat="42.91566" lon="0.21473">
        <ele>1557.0278567414</ele>
        <time>2016-10-16T17:43:08Z</time>
      </trkpt>
      <trkpt lat="42.91566" lon="0.21474">
        <ele>1557.0278567414</ele>
        <time>2016-10-16T17:43:13Z</time>
      </trkpt>
      <trkpt lat="42.91566" lon="0.21474">
        <ele>1557.0278567414</ele>
        <time>2016-10-16T17:43:18Z</time>
      </trkpt>
      <trkpt lat="42.91565" lon="0.21474">
        <ele>1557.0278567414</ele>
        <time>2016-10-16T17:43:23Z</time>
      </trkpt>
      <trkpt lat="42.91565" lon="0.21473">
        <ele>1557.0278567414</ele>
        <time>2016-10-16T17:43:28Z</time>
      </trkpt>
      <trkpt lat="42.91564" lon="0.21475">
        <ele>1557.0278567414</ele>
        <time>2016-10-16T17:43:33Z</time>
      </trkpt>
      <trkpt lat="42.91564" lon="0.21475">
        <ele>1557.0278567414</ele>
        <time>2016-10-16T17:43:38Z</time>
      </trkpt>
      <trkpt lat="42.91565" lon="0.21474">
        <ele>1557.0278567414</ele>
        <time>2016-10-16T17:43:43Z</time>
      </trkpt>
      <trkpt lat="42.91565" lon="0.21474">
        <ele>1557.0278567414</ele>
        <time>2016-10-16T17:43:48Z</time>
      </trkpt>
      <trkpt lat="42.91565" lon="0.21474">
        <ele>1557.0278567414</ele>
        <time>2016-10-16T17:43:53Z</time>
      </trkpt>
      <trkpt lat="42.91565" lon="0.21474">
        <ele>1557.0278567414</ele>
        <time>2016-10-16T17:43:58Z</time>
      </trkpt>
      <trkpt lat="42.91565" lon="0.21474">
        <ele>1557.0278567414</ele>
        <time>2016-10-16T17:44:03Z</time>
      </trkpt>
      <trkpt lat="42.91565" lon="0.21474">
        <ele>1557.0278567414</ele>
        <time>2016-10-16T17:44:08Z</time>
      </trkpt>
      <trkpt lat="42.91565" lon="0.21474">
        <ele>1557.0278567414</ele>
        <time>2016-10-16T17:44:13Z</time>
      </trkpt>
      <trkpt lat="42.91565" lon="0.21474">
        <ele>1557.0278567414</ele>
        <time>2016-10-16T17:44:18Z</time>
      </trkpt>
      <trkpt lat="42.91565" lon="0.21474">
        <ele>1557.0278567414</ele>
        <time>2016-10-16T17:44:23Z</time>
      </trkpt>
      <trkpt lat="42.91565" lon="0.21474">
        <ele>1557.0278567414</ele>
        <time>2016-10-16T17:44:28Z</time>
      </trkpt>
      <trkpt lat="42.91565" lon="0.21474">
        <ele>1557.0278567414</ele>
        <time>2016-10-16T17:44:33Z</time>
      </trkpt>
      <trkpt lat="42.91564" lon="0.21474">
        <ele>1557.0278567414</ele>
        <time>2016-10-16T17:44:38Z</time>
      </trkpt>
      <trkpt lat="42.91564" lon="0.21474">
        <ele>1557.0278567414</ele>
        <time>2016-10-16T17:44:43Z</time>
      </trkpt>
      <trkpt lat="42.91564" lon="0.21474">
        <ele>1557.0278567414</ele>
        <time>2016-10-16T17:44:48Z</time>
      </trkpt>
      <trkpt lat="42.91564" lon="0.21474">
        <ele>1557.0278567414</ele>
        <time>2016-10-16T17:44:53Z</time>
      </trkpt>
      <trkpt lat="42.91564" lon="0.21474">
        <ele>1557.0278567414</ele>
        <time>2016-10-16T17:44:58Z</time>
      </trkpt>
      <trkpt lat="42.91564" lon="0.21474">
        <ele>1557.0278567414</ele>
        <time>2016-10-16T17:45:03Z</time>
      </trkpt>
      <trkpt lat="42.91564" lon="0.21474">
        <ele>1557.0278567414</ele>
        <time>2016-10-16T17:45:08Z</time>
      </trkpt>
      <trkpt lat="42.91564" lon="0.21474">
        <ele>1557.0278567414</ele>
        <time>2016-10-16T17:45:13Z</time>
      </trkpt>
      <trkpt lat="42.91564" lon="0.21474">
        <ele>1557.0278567414</ele>
        <time>2016-10-16T17:45:18Z</time>
      </trkpt>
      <trkpt lat="42.91564" lon="0.21474">
        <ele>1557.0278567414</ele>
        <time>2016-10-16T17:45:23Z</time>
      </trkpt>
      <trkpt lat="42.91564" lon="0.21474">
        <ele>1557.0278567414</ele>
        <time>2016-10-16T17:45:28Z</time>
      </trkpt>
      <trkpt lat="42.91564" lon="0.21474">
        <ele>1557.0278567414</ele>
        <time>2016-10-16T17:45:33Z</time>
      </trkpt>
      <trkpt lat="42.91564" lon="0.21474">
        <ele>1557.0278567414</ele>
        <time>2016-10-16T17:45:38Z</time>
      </trkpt>
      <trkpt lat="42.91564" lon="0.21474">
        <ele>1557.0278567414</ele>
        <time>2016-10-16T17:45:43Z</time>
      </trkpt>
      <trkpt lat="42.91564" lon="0.21472">
        <ele>1556.6516303386</ele>
        <time>2016-10-16T17:45:48Z</time>
      </trkpt>
      <trkpt lat="42.91564" lon="0.21467">
        <ele>1556.6516303386</ele>
        <time>2016-10-16T17:45:53Z</time>
      </trkpt>
      <trkpt lat="42.91564" lon="0.21461">
        <ele>1556.6516303386</ele>
        <time>2016-10-16T17:45:58Z</time>
      </trkpt>
      <trkpt lat="42.91565" lon="0.21458">
        <ele>1556.2465055944</ele>
        <time>2016-10-16T17:46:03Z</time>
      </trkpt>
      <trkpt lat="42.91564" lon="0.21454">
        <ele>1556.2465055944</ele>
        <time>2016-10-16T17:46:08Z</time>
      </trkpt>
      <trkpt lat="42.91566" lon="0.21451">
        <ele>1556.2465055944</ele>
        <time>2016-10-16T17:46:13Z</time>
      </trkpt>
      <trkpt lat="42.91569" lon="0.21446">
        <ele>1555.8303179052</ele>
        <time>2016-10-16T17:46:18Z</time>
      </trkpt>
      <trkpt lat="42.91572" lon="0.21443">
        <ele>1555.8303179052</ele>
        <time>2016-10-16T17:46:23Z</time>
      </trkpt>
      <trkpt lat="42.91575" lon="0.21441">
        <ele>1555.8303179052</ele>
        <time>2016-10-16T17:46:28Z</time>
      </trkpt>
      <trkpt lat="42.91576" lon="0.21439">
        <ele>1555.8303179052</ele>
        <time>2016-10-16T17:46:33Z</time>
      </trkpt>
      <trkpt lat="42.91577" lon="0.21438">
        <ele>1555.4196471381</ele>
        <time>2016-10-16T17:46:38Z</time>
      </trkpt>
      <trkpt lat="42.91576" lon="0.21436">
        <ele>1555.4196471381</ele>
        <time>2016-10-16T17:46:43Z</time>
      </trkpt>
      <trkpt lat="42.91577" lon="0.21434">
        <ele>1555.4196471381</ele>
        <time>2016-10-16T17:46:48Z</time>
      </trkpt>
      <trkpt lat="42.91578" lon="0.2143">
        <ele>1555.4196471381</ele>
        <time>2016-10-16T17:46:53Z</time>
      </trkpt>
      <trkpt lat="42.91578" lon="0.21425">
        <ele>1555.0154464329</ele>
        <time>2016-10-16T17:46:58Z</time>
      </trkpt>
      <trkpt lat="42.91578" lon="0.21421">
        <ele>1555.0154464329</ele>
        <time>2016-10-16T17:47:03Z</time>
      </trkpt>
      <trkpt lat="42.91579" lon="0.21414">
        <ele>1555.0154464329</ele>
        <time>2016-10-16T17:47:08Z</time>
      </trkpt>
      <trkpt lat="42.9158" lon="0.21411">
        <ele>1554.6041819945</ele>
        <time>2016-10-16T17:47:13Z</time>
      </trkpt>
      <trkpt lat="42.91581" lon="0.2141">
        <ele>1554.6041819945</ele>
        <time>2016-10-16T17:47:18Z</time>
      </trkpt>
      <trkpt lat="42.91582" lon="0.21407">
        <ele>1554.6041819945</ele>
        <time>2016-10-16T17:47:23Z</time>
      </trkpt>
      <trkpt lat="42.91583" lon="0.21402">
        <ele>1554.6041819945</ele>
        <time>2016-10-16T17:47:28Z</time>
      </trkpt>
      <trkpt lat="42.91584" lon="0.21398">
        <ele>1554.1733412568</ele>
        <time>2016-10-16T17:47:33Z</time>
      </trkpt>
      <trkpt lat="42.91585" lon="0.21394">
        <ele>1554.1733412568</ele>
        <time>2016-10-16T17:47:38Z</time>
      </trkpt>
      <trkpt lat="42.91587" lon="0.21389">
        <ele>1554.1733412568</ele>
        <time>2016-10-16T17:47:43Z</time>
      </trkpt>
      <trkpt lat="42.91587" lon="0.21388">
        <ele>1554.1733412568</ele>
        <time>2016-10-16T17:47:48Z</time>
      </trkpt>
      <trkpt lat="42.91587" lon="0.21385">
        <ele>1553.7257992815</ele>
        <time>2016-10-16T17:47:53Z</time>
      </trkpt>
      <trkpt lat="42.91586" lon="0.21382">
        <ele>1553.7257992815</ele>
        <time>2016-10-16T17:47:58Z</time>
      </trkpt>
      <trkpt lat="42.91585" lon="0.21379">
        <ele>1553.7257992815</ele>
        <time>2016-10-16T17:48:03Z</time>
      </trkpt>
      <trkpt lat="42.91585" lon="0.21375">
        <ele>1553.7257992815</ele>
        <time>2016-10-16T17:48:08Z</time>
      </trkpt>
      <trkpt lat="42.91585" lon="0.2137">
        <ele>1553.2354423925</ele>
        <time>2016-10-16T17:48:13Z</time>
      </trkpt>
      <trkpt lat="42.91587" lon="0.21367">
        <ele>1553.2354423925</ele>
        <time>2016-10-16T17:48:18Z</time>
      </trkpt>
      <trkpt lat="42.91588" lon="0.21364">
        <ele>1553.2354423925</ele>
        <time>2016-10-16T17:48:23Z</time>
      </trkpt>
      <trkpt lat="42.91584" lon="0.21363">
        <ele>1553.2354423925</ele>
        <time>2016-10-16T17:48:28Z</time>
      </trkpt>
      <trkpt lat="42.91582" lon="0.21359">
        <ele>1552.663777534</ele>
        <time>2016-10-16T17:48:33Z</time>
      </trkpt>
      <trkpt lat="42.91582" lon="0.21356">
        <ele>1552.663777534</ele>
        <time>2016-10-16T17:48:38Z</time>
      </trkpt>
      <trkpt lat="42.91584" lon="0.21352">
        <ele>1552.663777534</ele>
        <time>2016-10-16T17:48:43Z</time>
      </trkpt>
      <trkpt lat="42.91586" lon="0.2135">
        <ele>1552.663777534</ele>
        <time>2016-10-16T17:48:48Z</time>
      </trkpt>
      <trkpt lat="42.91586" lon="0.21352">
        <ele>1552.0041784313</ele>
        <time>2016-10-16T17:48:53Z</time>
      </trkpt>
      <trkpt lat="42.91586" lon="0.2135">
        <ele>1552.0041784313</ele>
        <time>2016-10-16T17:48:58Z</time>
      </trkpt>
      <trkpt lat="42.91586" lon="0.21352">
        <ele>1552.0041784313</ele>
        <time>2016-10-16T17:49:03Z</time>
      </trkpt>
      <trkpt lat="42.91582" lon="0.21349">
        <ele>1552.0041784313</ele>
        <time>2016-10-16T17:49:08Z</time>
      </trkpt>
      <trkpt lat="42.91582" lon="0.21345">
        <ele>1551.2651474416</ele>
        <time>2016-10-16T17:49:13Z</time>
      </trkpt>
      <trkpt lat="42.91585" lon="0.21341">
        <ele>1551.2651474416</ele>
        <time>2016-10-16T17:49:18Z</time>
      </trkpt>
      <trkpt lat="42.91586" lon="0.21339">
        <ele>1551.2651474416</ele>
        <time>2016-10-16T17:49:23Z</time>
      </trkpt>
      <trkpt lat="42.91589" lon="0.21337">
        <ele>1550.483586598</ele>
        <time>2016-10-16T17:49:28Z</time>
      </trkpt>
      <trkpt lat="42.91592" lon="0.21332">
        <ele>1550.483586598</ele>
        <time>2016-10-16T17:49:33Z</time>
      </trkpt>
      <trkpt lat="42.91595" lon="0.21327">
        <ele>1549.6649583825</ele>
        <time>2016-10-16T17:49:38Z</time>
      </trkpt>
      <trkpt lat="42.91598" lon="0.21322">
        <ele>1549.6649583825</ele>
        <time>2016-10-16T17:49:43Z</time>
      </trkpt>
      <trkpt lat="42.91597" lon="0.21327">
        <ele>1549.6649583825</ele>
        <time>2016-10-16T17:49:48Z</time>
      </trkpt>
      <trkpt lat="42.91597" lon="0.21325">
        <ele>1548.7855748564</ele>
        <time>2016-10-16T17:49:53Z</time>
      </trkpt>
      <trkpt lat="42.91598" lon="0.2132">
        <ele>1548.7855748564</ele>
        <time>2016-10-16T17:49:58Z</time>
      </trkpt>
      <trkpt lat="42.91595" lon="0.2132">
        <ele>1548.7855748564</ele>
        <time>2016-10-16T17:50:03Z</time>
      </trkpt>
      <trkpt lat="42.91594" lon="0.2132">
        <ele>1548.7855748564</ele>
        <time>2016-10-16T17:50:08Z</time>
      </trkpt>
      <trkpt lat="42.9159" lon="0.21319">
        <ele>1547.7803892038</ele>
        <time>2016-10-16T17:50:13Z</time>
      </trkpt>
      <trkpt lat="42.91588" lon="0.21316">
        <ele>1547.7803892038</ele>
        <time>2016-10-16T17:50:18Z</time>
      </trkpt>
      <trkpt lat="42.91589" lon="0.21315">
        <ele>1547.7803892038</ele>
        <time>2016-10-16T17:50:23Z</time>
      </trkpt>
      <trkpt lat="42.91587" lon="0.21312">
        <ele>1547.7803892038</ele>
        <time>2016-10-16T17:50:28Z</time>
      </trkpt>
      <trkpt lat="42.91585" lon="0.21309">
        <ele>1546.6759111958</ele>
        <time>2016-10-16T17:50:33Z</time>
      </trkpt>
      <trkpt lat="42.91581" lon="0.21308">
        <ele>1546.6759111958</ele>
        <time>2016-10-16T17:50:38Z</time>
      </trkpt>
      <trkpt lat="42.91579" lon="0.21307">
        <ele>1546.6759111958</ele>
        <time>2016-10-16T17:50:43Z</time>
      </trkpt>
      <trkpt lat="42.91581" lon="0.21304">
        <ele>1546.6759111958</ele>
        <time>2016-10-16T17:50:48Z</time>
      </trkpt>
      <trkpt lat="42.91583" lon="0.21302">
        <ele>1545.4825238615</ele>
        <time>2016-10-16T17:50:53Z</time>
      </trkpt>
      <trkpt lat="42.91583" lon="0.21301">
        <ele>1545.4825238615</ele>
        <time>2016-10-16T17:50:58Z</time>
      </trkpt>
      <trkpt lat="42.91581" lon="0.21298">
        <ele>1545.4825238615</ele>
        <time>2016-10-16T17:51:03Z</time>
      </trkpt>
      <trkpt lat="42.9158" lon="0.21295">
        <ele>1545.4825238615</ele>
        <time>2016-10-16T17:51:08Z</time>
      </trkpt>
      <trkpt lat="42.91578" lon="0.2129">
        <ele>1544.181222166</ele>
        <time>2016-10-16T17:51:13Z</time>
      </trkpt>
      <trkpt lat="42.91576" lon="0.21286">
        <ele>1544.181222166</ele>
        <time>2016-10-16T17:51:18Z</time>
      </trkpt>
      <trkpt lat="42.91576" lon="0.21283">
        <ele>1544.181222166</ele>
        <time>2016-10-16T17:51:23Z</time>
      </trkpt>
      <trkpt lat="42.91574" lon="0.21277">
        <ele>1542.8411081814</ele>
        <time>2016-10-16T17:51:28Z</time>
      </trkpt>
      <trkpt lat="42.91572" lon="0.21277">
        <ele>1542.8411081814</ele>
        <time>2016-10-16T17:51:33Z</time>
      </trkpt>
      <trkpt lat="42.91568" lon="0.21274">
        <ele>1542.8411081814</ele>
        <time>2016-10-16T17:51:38Z</time>
      </trkpt>
      <trkpt lat="42.91564" lon="0.2127">
        <ele>1541.439785568</ele>
        <time>2016-10-16T17:51:43Z</time>
      </trkpt>
      <trkpt lat="42.91563" lon="0.21267">
        <ele>1541.439785568</ele>
        <time>2016-10-16T17:51:48Z</time>
      </trkpt>
      <trkpt lat="42.91563" lon="0.21264">
        <ele>1541.439785568</ele>
        <time>2016-10-16T17:51:53Z</time>
      </trkpt>
      <trkpt lat="42.91564" lon="0.21259">
        <ele>1541.439785568</ele>
        <time>2016-10-16T17:51:58Z</time>
      </trkpt>
      <trkpt lat="42.91564" lon="0.21257">
        <ele>1539.9133711344</ele>
        <time>2016-10-16T17:52:03Z</time>
      </trkpt>
      <trkpt lat="42.91562" lon="0.21249">
        <ele>1539.9133711344</ele>
        <time>2016-10-16T17:52:08Z</time>
      </trkpt>
      <trkpt lat="42.9156" lon="0.21243">
        <ele>1538.39029364</ele>
        <time>2016-10-16T17:52:13Z</time>
      </trkpt>
      <trkpt lat="42.91559" lon="0.21236">
        <ele>1538.39029364</ele>
        <time>2016-10-16T17:52:18Z</time>
      </trkpt>
      <trkpt lat="42.91559" lon="0.21231">
        <ele>1538.39029364</ele>
        <time>2016-10-16T17:52:23Z</time>
      </trkpt>
      <trkpt lat="42.91559" lon="0.21222">
        <ele>1536.8021116211</ele>
        <time>2016-10-16T17:52:28Z</time>
      </trkpt>
      <trkpt lat="42.91563" lon="0.2122">
        <ele>1536.8021116211</ele>
        <time>2016-10-16T17:52:33Z</time>
      </trkpt>
      <trkpt lat="42.91566" lon="0.21215">
        <ele>1536.8021116211</ele>
        <time>2016-10-16T17:52:38Z</time>
      </trkpt>
      <trkpt lat="42.91568" lon="0.21214">
        <ele>1535.1287396147</ele>
        <time>2016-10-16T17:52:43Z</time>
      </trkpt>
      <trkpt lat="42.91572" lon="0.21213">
        <ele>1535.1287396147</ele>
        <time>2016-10-16T17:52:48Z</time>
      </trkpt>
      <trkpt lat="42.91573" lon="0.21209">
        <ele>1535.1287396147</ele>
        <time>2016-10-16T17:52:53Z</time>
      </trkpt>
      <trkpt lat="42.91575" lon="0.21204">
        <ele>1533.3661245806</ele>
        <time>2016-10-16T17:52:58Z</time>
      </trkpt>
      <trkpt lat="42.91574" lon="0.212">
        <ele>1533.3661245806</ele>
        <time>2016-10-16T17:53:03Z</time>
      </trkpt>
      <trkpt lat="42.91574" lon="0.21198">
        <ele>1533.3661245806</ele>
        <time>2016-10-16T17:53:08Z</time>
      </trkpt>
      <trkpt lat="42.91573" lon="0.21203">
        <ele>1533.3661245806</ele>
        <time>2016-10-16T17:53:13Z</time>
      </trkpt>
      <trkpt lat="42.91573" lon="0.21198">
        <ele>1531.3665516388</ele>
        <time>2016-10-16T17:53:18Z</time>
      </trkpt>
      <trkpt lat="42.91572" lon="0.21196">
        <ele>1531.3665516388</ele>
        <time>2016-10-16T17:53:23Z</time>
      </trkpt>
      <trkpt lat="42.91572" lon="0.21198">
        <ele>1531.3665516388</ele>
        <time>2016-10-16T17:53:28Z</time>
      </trkpt>
      <trkpt lat="42.91573" lon="0.21198">
        <ele>1531.3665516388</ele>
        <time>2016-10-16T17:53:33Z</time>
      </trkpt>
      <trkpt lat="42.91573" lon="0.21195">
        <ele>1531.3665516388</ele>
        <time>2016-10-16T17:53:38Z</time>
      </trkpt>
      <trkpt lat="42.91571" lon="0.21194">
        <ele>1531.3665516388</ele>
        <time>2016-10-16T17:53:43Z</time>
      </trkpt>
      <trkpt lat="42.91572" lon="0.21193">
        <ele>1531.3665516388</ele>
        <time>2016-10-16T17:53:48Z</time>
      </trkpt>
      <trkpt lat="42.91572" lon="0.2119">
        <ele>1528.7054937997</ele>
        <time>2016-10-16T17:53:53Z</time>
      </trkpt>
      <trkpt lat="42.91573" lon="0.21185">
        <ele>1528.7054937997</ele>
        <time>2016-10-16T17:53:58Z</time>
      </trkpt>
      <trkpt lat="42.91573" lon="0.21183">
        <ele>1528.7054937997</ele>
        <time>2016-10-16T17:54:03Z</time>
      </trkpt>
      <trkpt lat="42.91571" lon="0.2118">
        <ele>1528.7054937997</ele>
        <time>2016-10-16T17:54:08Z</time>
      </trkpt>
      <trkpt lat="42.9157" lon="0.21178">
        <ele>1525.913663283</ele>
        <time>2016-10-16T17:54:13Z</time>
      </trkpt>
      <trkpt lat="42.9157" lon="0.21176">
        <ele>1525.913663283</ele>
        <time>2016-10-16T17:54:18Z</time>
      </trkpt>
      <trkpt lat="42.91571" lon="0.21169">
        <ele>1525.913663283</ele>
        <time>2016-10-16T17:54:23Z</time>
      </trkpt>
      <trkpt lat="42.91572" lon="0.21164">
        <ele>1523.0939306928</ele>
        <time>2016-10-16T17:54:28Z</time>
      </trkpt>
      <trkpt lat="42.91573" lon="0.21161">
        <ele>1523.0939306928</ele>
        <time>2016-10-16T17:54:33Z</time>
      </trkpt>
      <trkpt lat="42.91574" lon="0.21164">
        <ele>1523.0939306928</ele>
        <time>2016-10-16T17:54:38Z</time>
      </trkpt>
      <trkpt lat="42.91574" lon="0.21163">
        <ele>1523.0939306928</ele>
        <time>2016-10-16T17:54:43Z</time>
      </trkpt>
      <trkpt lat="42.91575" lon="0.21161">
        <ele>1523.0939306928</ele>
        <time>2016-10-16T17:54:48Z</time>
      </trkpt>
      <trkpt lat="42.91576" lon="0.2116">
        <ele>1523.0939306928</ele>
        <time>2016-10-16T17:54:53Z</time>
      </trkpt>
      <trkpt lat="42.91577" lon="0.21157">
        <ele>1520.053332884</ele>
        <time>2016-10-16T17:54:58Z</time>
      </trkpt>
      <trkpt lat="42.91581" lon="0.21155">
        <ele>1520.053332884</ele>
        <time>2016-10-16T17:55:03Z</time>
      </trkpt>
      <trkpt lat="42.91582" lon="0.21155">
        <ele>1520.053332884</ele>
        <time>2016-10-16T17:55:08Z</time>
      </trkpt>
      <trkpt lat="42.91584" lon="0.21154">
        <ele>1520.053332884</ele>
        <time>2016-10-16T17:55:13Z</time>
      </trkpt>
      <trkpt lat="42.91584" lon="0.21155">
        <ele>1520.053332884</ele>
        <time>2016-10-16T17:55:18Z</time>
      </trkpt>
      <trkpt lat="42.91584" lon="0.21155">
        <ele>1520.053332884</ele>
        <time>2016-10-16T17:55:23Z</time>
      </trkpt>
      <trkpt lat="42.91583" lon="0.21153">
        <ele>1516.8441352787</ele>
        <time>2016-10-16T17:55:28Z</time>
      </trkpt>
      <trkpt lat="42.91584" lon="0.21149">
        <ele>1516.8441352787</ele>
        <time>2016-10-16T17:55:33Z</time>
      </trkpt>
      <trkpt lat="42.91584" lon="0.21143">
        <ele>1516.8441352787</ele>
        <time>2016-10-16T17:55:38Z</time>
      </trkpt>
      <trkpt lat="42.91584" lon="0.21139">
        <ele>1513.7168381924</ele>
        <time>2016-10-16T17:55:43Z</time>
      </trkpt>
      <trkpt lat="42.91584" lon="0.21138">
        <ele>1513.7168381924</ele>
        <time>2016-10-16T17:55:48Z</time>
      </trkpt>
      <trkpt lat="42.91584" lon="0.21135">
        <ele>1513.7168381924</ele>
        <time>2016-10-16T17:55:53Z</time>
      </trkpt>
      <trkpt lat="42.91584" lon="0.21132">
        <ele>1513.7168381924</ele>
        <time>2016-10-16T17:55:58Z</time>
      </trkpt>
      <trkpt lat="42.91587" lon="0.21128">
        <ele>1513.7168381924</ele>
        <time>2016-10-16T17:56:03Z</time>
      </trkpt>
      <trkpt lat="42.91585" lon="0.21122">
        <ele>1510.557279475</ele>
        <time>2016-10-16T17:56:08Z</time>
      </trkpt>
      <trkpt lat="42.91585" lon="0.21117">
        <ele>1510.557279475</ele>
        <time>2016-10-16T17:56:13Z</time>
      </trkpt>
      <trkpt lat="42.91585" lon="0.21118">
        <ele>1510.557279475</ele>
        <time>2016-10-16T17:56:18Z</time>
      </trkpt>
      <trkpt lat="42.91586" lon="0.21116">
        <ele>1510.557279475</ele>
        <time>2016-10-16T17:56:23Z</time>
      </trkpt>
      <trkpt lat="42.91587" lon="0.21115">
        <ele>1510.557279475</ele>
        <time>2016-10-16T17:56:28Z</time>
      </trkpt>
      <trkpt lat="42.91586" lon="0.21116">
        <ele>1510.557279475</ele>
        <time>2016-10-16T17:56:33Z</time>
      </trkpt>
      <trkpt lat="42.91585" lon="0.21114">
        <ele>1507.3893002624</ele>
        <time>2016-10-16T17:56:38Z</time>
      </trkpt>
      <trkpt lat="42.91585" lon="0.21109">
        <ele>1507.3893002624</ele>
        <time>2016-10-16T17:56:43Z</time>
      </trkpt>
      <trkpt lat="42.91584" lon="0.21119">
        <ele>1504.479821677</ele>
        <time>2016-10-16T17:56:48Z</time>
      </trkpt>
      <trkpt lat="42.91586" lon="0.2112">
        <ele>1504.479821677</ele>
        <time>2016-10-16T17:56:53Z</time>
      </trkpt>
      <trkpt lat="42.91589" lon="0.21115">
        <ele>1504.479821677</ele>
        <time>2016-10-16T17:56:58Z</time>
      </trkpt>
      <trkpt lat="42.9159" lon="0.21112">
        <ele>1501.7149666768</ele>
        <time>2016-10-16T17:57:03Z</time>
      </trkpt>
      <trkpt lat="42.91593" lon="0.21115">
        <ele>1501.7149666768</ele>
        <time>2016-10-16T17:57:08Z</time>
      </trkpt>
      <trkpt lat="42.91592" lon="0.21116">
        <ele>1501.7149666768</ele>
        <time>2016-10-16T17:57:13Z</time>
      </trkpt>
      <trkpt lat="42.91596" lon="0.21111">
        <ele>1499.0462710118</ele>
        <time>2016-10-16T17:57:18Z</time>
      </trkpt>
      <trkpt lat="42.91597" lon="0.21098">
        <ele>1496.6157121871</ele>
        <time>2016-10-16T17:57:23Z</time>
      </trkpt>
      <trkpt lat="42.91599" lon="0.21091">
        <ele>1496.6157121871</ele>
        <time>2016-10-16T17:57:28Z</time>
      </trkpt>
      <trkpt lat="42.916" lon="0.21087">
        <ele>1496.6157121871</ele>
        <time>2016-10-16T17:57:33Z</time>
      </trkpt>
      <trkpt lat="42.91602" lon="0.21083">
        <ele>1494.2369324663</ele>
        <time>2016-10-16T17:57:38Z</time>
      </trkpt>
      <trkpt lat="42.91604" lon="0.21079">
        <ele>1494.2369324663</ele>
        <time>2016-10-16T17:57:43Z</time>
      </trkpt>
      <trkpt lat="42.91606" lon="0.21077">
        <ele>1494.2369324663</ele>
        <time>2016-10-16T17:57:48Z</time>
      </trkpt>
      <trkpt lat="42.91608" lon="0.21076">
        <ele>1494.2369324663</ele>
        <time>2016-10-16T17:57:53Z</time>
      </trkpt>
      <trkpt lat="42.91608" lon="0.21069">
        <ele>1491.7081046832</ele>
        <time>2016-10-16T17:57:58Z</time>
      </trkpt>
      <trkpt lat="42.91608" lon="0.21063">
        <ele>1491.7081046832</ele>
        <time>2016-10-16T17:58:03Z</time>
      </trkpt>
      <trkpt lat="42.91608" lon="0.21058">
        <ele>1491.7081046832</ele>
        <time>2016-10-16T17:58:08Z</time>
      </trkpt>
      <trkpt lat="42.91609" lon="0.21051">
        <ele>1489.0153925128</ele>
        <time>2016-10-16T17:58:13Z</time>
      </trkpt>
      <trkpt lat="42.91608" lon="0.21058">
        <ele>1489.0153925128</ele>
        <time>2016-10-16T17:58:18Z</time>
      </trkpt>
      <trkpt lat="42.91608" lon="0.21053">
        <ele>1486.2183039815</ele>
        <time>2016-10-16T17:58:23Z</time>
      </trkpt>
      <trkpt lat="42.91609" lon="0.21047">
        <ele>1486.2183039815</ele>
        <time>2016-10-16T17:58:28Z</time>
      </trkpt>
      <trkpt lat="42.91609" lon="0.21045">
        <ele>1486.2183039815</ele>
        <time>2016-10-16T17:58:33Z</time>
      </trkpt>
      <trkpt lat="42.91609" lon="0.2104">
        <ele>1482.8821041125</ele>
        <time>2016-10-16T17:58:38Z</time>
      </trkpt>
      <trkpt lat="42.91611" lon="0.21031">
        <ele>1482.8821041125</ele>
        <time>2016-10-16T17:58:43Z</time>
      </trkpt>
      <trkpt lat="42.91611" lon="0.21019">
        <ele>1479.34028583</ele>
        <time>2016-10-16T17:58:48Z</time>
      </trkpt>
      <trkpt lat="42.91615" lon="0.21012">
        <ele>1479.34028583</ele>
        <time>2016-10-16T17:58:53Z</time>
      </trkpt>
      <trkpt lat="42.91617" lon="0.21006">
        <ele>1475.6716542146</ele>
        <time>2016-10-16T17:58:58Z</time>
      </trkpt>
      <trkpt lat="42.91622" lon="0.21005">
        <ele>1475.6716542146</ele>
        <time>2016-10-16T17:59:03Z</time>
      </trkpt>
      <trkpt lat="42.91628" lon="0.21004">
        <ele>1471.9638006519</ele>
        <time>2016-10-16T17:59:08Z</time>
      </trkpt>
      <trkpt lat="42.91628" lon="0.20997">
        <ele>1471.9638006519</ele>
        <time>2016-10-16T17:59:13Z</time>
      </trkpt>
      <trkpt lat="42.91629" lon="0.20995">
        <ele>1471.9638006519</ele>
        <time>2016-10-16T17:59:18Z</time>
      </trkpt>
      <trkpt lat="42.9163" lon="0.20992">
        <ele>1468.1104521588</ele>
        <time>2016-10-16T17:59:23Z</time>
      </trkpt>
      <trkpt lat="42.91632" lon="0.20988">
        <ele>1468.1104521588</ele>
        <time>2016-10-16T17:59:28Z</time>
      </trkpt>
      <trkpt lat="42.91635" lon="0.20985">
        <ele>1468.1104521588</ele>
        <time>2016-10-16T17:59:33Z</time>
      </trkpt>
      <trkpt lat="42.9164" lon="0.20984">
        <ele>1464.2006958045</ele>
        <time>2016-10-16T17:59:38Z</time>
      </trkpt>
      <trkpt lat="42.91644" lon="0.20982">
        <ele>1464.2006958045</ele>
        <time>2016-10-16T17:59:43Z</time>
      </trkpt>
      <trkpt lat="42.91649" lon="0.20975">
        <ele>1460.4899633627</ele>
        <time>2016-10-16T17:59:48Z</time>
      </trkpt>
      <trkpt lat="42.9165" lon="0.20969">
        <ele>1460.4899633627</ele>
        <time>2016-10-16T17:59:53Z</time>
      </trkpt>
      <trkpt lat="42.91647" lon="0.20966">
        <ele>1460.4899633627</ele>
        <time>2016-10-16T17:59:58Z</time>
      </trkpt>
      <trkpt lat="42.91646" lon="0.20963">
        <ele>1456.925937079</ele>
        <time>2016-10-16T18:00:03Z</time>
      </trkpt>
      <trkpt lat="42.91646" lon="0.20957">
        <ele>1456.925937079</ele>
        <time>2016-10-16T18:00:08Z</time>
      </trkpt>
      <trkpt lat="42.91647" lon="0.20953">
        <ele>1456.925937079</ele>
        <time>2016-10-16T18:00:13Z</time>
      </trkpt>
      <trkpt lat="42.91648" lon="0.20952">
        <ele>1456.925937079</ele>
        <time>2016-10-16T18:00:18Z</time>
      </trkpt>
      <trkpt lat="42.91651" lon="0.20949">
        <ele>1453.4595247813</ele>
        <time>2016-10-16T18:00:23Z</time>
      </trkpt>
      <trkpt lat="42.91654" lon="0.20943">
        <ele>1453.4595247813</ele>
        <time>2016-10-16T18:00:28Z</time>
      </trkpt>
      <trkpt lat="42.9166" lon="0.20943">
        <ele>1450.3185728016</ele>
        <time>2016-10-16T18:00:33Z</time>
      </trkpt>
      <trkpt lat="42.91666" lon="0.20945">
        <ele>1450.3185728016</ele>
        <time>2016-10-16T18:00:38Z</time>
      </trkpt>
      <trkpt lat="42.91667" lon="0.20946">
        <ele>1450.3185728016</ele>
        <time>2016-10-16T18:00:43Z</time>
      </trkpt>
      <trkpt lat="42.91664" lon="0.20943">
        <ele>1447.424852627</ele>
        <time>2016-10-16T18:00:48Z</time>
      </trkpt>
      <trkpt lat="42.91663" lon="0.20939">
        <ele>1447.424852627</ele>
        <time>2016-10-16T18:00:53Z</time>
      </trkpt>
      <trkpt lat="42.91662" lon="0.20937">
        <ele>1447.424852627</ele>
        <time>2016-10-16T18:00:58Z</time>
      </trkpt>
      <trkpt lat="42.91661" lon="0.20932">
        <ele>1447.424852627</ele>
        <time>2016-10-16T18:01:03Z</time>
      </trkpt>
      <trkpt lat="42.91661" lon="0.20929">
        <ele>1444.748225378</ele>
        <time>2016-10-16T18:01:08Z</time>
      </trkpt>
      <trkpt lat="42.91663" lon="0.20929">
        <ele>1444.748225378</ele>
        <time>2016-10-16T18:01:13Z</time>
      </trkpt>
      <trkpt lat="42.91664" lon="0.20927">
        <ele>1444.748225378</ele>
        <time>2016-10-16T18:01:18Z</time>
      </trkpt>
      <trkpt lat="42.91667" lon="0.20926">
        <ele>1444.748225378</ele>
        <time>2016-10-16T18:01:23Z</time>
      </trkpt>
      <trkpt lat="42.91669" lon="0.20929">
        <ele>1442.3032011612</ele>
        <time>2016-10-16T18:01:28Z</time>
      </trkpt>
      <trkpt lat="42.9167" lon="0.20936">
        <ele>1442.3032011612</ele>
        <time>2016-10-16T18:01:33Z</time>
      </trkpt>
      <trkpt lat="42.91668" lon="0.20937">
        <ele>1442.3032011612</ele>
        <time>2016-10-16T18:01:38Z</time>
      </trkpt>
      <trkpt lat="42.9167" lon="0.2094">
        <ele>1440.1312169727</ele>
        <time>2016-10-16T18:01:43Z</time>
      </trkpt>
      <trkpt lat="42.91674" lon="0.20944">
        <ele>1440.1312169727</ele>
        <time>2016-10-16T18:01:48Z</time>
      </trkpt>
      <trkpt lat="42.91676" lon="0.20947">
        <ele>1440.1312169727</ele>
        <time>2016-10-16T18:01:53Z</time>
      </trkpt>
      <trkpt lat="42.91679" lon="0.20947">
        <ele>1438.2120871972</ele>
        <time>2016-10-16T18:01:58Z</time>
      </trkpt>
      <trkpt lat="42.91686" lon="0.20945">
        <ele>1438.2120871972</ele>
        <time>2016-10-16T18:02:03Z</time>
      </trkpt>
      <trkpt lat="42.91689" lon="0.20943">
        <ele>1436.5406557757</ele>
        <time>2016-10-16T18:02:08Z</time>
      </trkpt>
      <trkpt lat="42.91695" lon="0.20936">
        <ele>1436.5406557757</ele>
        <time>2016-10-16T18:02:13Z</time>
      </trkpt>
      <trkpt lat="42.91702" lon="0.20929">
        <ele>1435.125721426</ele>
        <time>2016-10-16T18:02:18Z</time>
      </trkpt>
      <trkpt lat="42.91706" lon="0.20924">
        <ele>1435.125721426</ele>
        <time>2016-10-16T18:02:23Z</time>
      </trkpt>
      <trkpt lat="42.9171" lon="0.2092">
        <ele>1433.9601818902</ele>
        <time>2016-10-16T18:02:28Z</time>
      </trkpt>
      <trkpt lat="42.91714" lon="0.20916">
        <ele>1433.9601818902</ele>
        <time>2016-10-16T18:02:33Z</time>
      </trkpt>
      <trkpt lat="42.91717" lon="0.20912">
        <ele>1433.0366505812</ele>
        <time>2016-10-16T18:02:38Z</time>
      </trkpt>
      <trkpt lat="42.9172" lon="0.20911">
        <ele>1433.0366505812</ele>
        <time>2016-10-16T18:02:43Z</time>
      </trkpt>
      <trkpt lat="42.91721" lon="0.2091">
        <ele>1433.0366505812</ele>
        <time>2016-10-16T18:02:48Z</time>
      </trkpt>
      <trkpt lat="42.91723" lon="0.20913">
        <ele>1433.0366505812</ele>
        <time>2016-10-16T18:02:53Z</time>
      </trkpt>
      <trkpt lat="42.91723" lon="0.20916">
        <ele>1433.0366505812</ele>
        <time>2016-10-16T18:02:58Z</time>
      </trkpt>
      <trkpt lat="42.91723" lon="0.20917">
        <ele>1432.3186945148</ele>
        <time>2016-10-16T18:03:03Z</time>
      </trkpt>
      <trkpt lat="42.91723" lon="0.20918">
        <ele>1432.3186945148</ele>
        <time>2016-10-16T18:03:08Z</time>
      </trkpt>
      <trkpt lat="42.91722" lon="0.20918">
        <ele>1432.3186945148</ele>
        <time>2016-10-16T18:03:13Z</time>
      </trkpt>
      <trkpt lat="42.91722" lon="0.20918">
        <ele>1432.3186945148</ele>
        <time>2016-10-16T18:03:18Z</time>
      </trkpt>
      <trkpt lat="42.91722" lon="0.20916">
        <ele>1432.3186945148</ele>
        <time>2016-10-16T18:03:23Z</time>
      </trkpt>
      <trkpt lat="42.91722" lon="0.20916">
        <ele>1432.3186945148</ele>
        <time>2016-10-16T18:03:28Z</time>
      </trkpt>
      <trkpt lat="42.91721" lon="0.20915">
        <ele>1432.3186945148</ele>
        <time>2016-10-16T18:03:33Z</time>
      </trkpt>
      <trkpt lat="42.9172" lon="0.20914">
        <ele>1432.3186945148</ele>
        <time>2016-10-16T18:03:38Z</time>
      </trkpt>
      <trkpt lat="42.91721" lon="0.20914">
        <ele>1432.3186945148</ele>
        <time>2016-10-16T18:03:43Z</time>
      </trkpt>
      <trkpt lat="42.91721" lon="0.20914">
        <ele>1432.3186945148</ele>
        <time>2016-10-16T18:03:48Z</time>
      </trkpt>
      <trkpt lat="42.9172" lon="0.20914">
        <ele>1432.3186945148</ele>
        <time>2016-10-16T18:03:53Z</time>
      </trkpt>
      <trkpt lat="42.91722" lon="0.20914">
        <ele>1432.3186945148</ele>
        <time>2016-10-16T18:03:58Z</time>
      </trkpt>
      <trkpt lat="42.91722" lon="0.20914">
        <ele>1432.3186945148</ele>
        <time>2016-10-16T18:04:03Z</time>
      </trkpt>
      <trkpt lat="42.91722" lon="0.20914">
        <ele>1432.3186945148</ele>
        <time>2016-10-16T18:04:08Z</time>
      </trkpt>
      <trkpt lat="42.91722" lon="0.20914">
        <ele>1432.3186945148</ele>
        <time>2016-10-16T18:04:13Z</time>
      </trkpt>
      <trkpt lat="42.91722" lon="0.20914">
        <ele>1432.3186945148</ele>
        <time>2016-10-16T18:04:18Z</time>
      </trkpt>
      <trkpt lat="42.91723" lon="0.20918">
        <ele>1431.5989781037</ele>
        <time>2016-10-16T18:04:23Z</time>
      </trkpt>
      <trkpt lat="42.91722" lon="0.2092">
        <ele>1431.5989781037</ele>
        <time>2016-10-16T18:04:28Z</time>
      </trkpt>
      <trkpt lat="42.91721" lon="0.2092">
        <ele>1431.5989781037</ele>
        <time>2016-10-16T18:04:33Z</time>
      </trkpt>
      <trkpt lat="42.91721" lon="0.20922">
        <ele>1431.5989781037</ele>
        <time>2016-10-16T18:04:38Z</time>
      </trkpt>
      <trkpt lat="42.9172" lon="0.20923">
        <ele>1431.5989781037</ele>
        <time>2016-10-16T18:04:43Z</time>
      </trkpt>
      <trkpt lat="42.9172" lon="0.20921">
        <ele>1431.5989781037</ele>
        <time>2016-10-16T18:04:48Z</time>
      </trkpt>
      <trkpt lat="42.91719" lon="0.20922">
        <ele>1431.5989781037</ele>
        <time>2016-10-16T18:04:53Z</time>
      </trkpt>
      <trkpt lat="42.91719" lon="0.20923">
        <ele>1431.5989781037</ele>
        <time>2016-10-16T18:04:58Z</time>
      </trkpt>
      <trkpt lat="42.91716" lon="0.20924">
        <ele>1430.9303406955</ele>
        <time>2016-10-16T18:05:03Z</time>
      </trkpt>
      <trkpt lat="42.91716" lon="0.20924">
        <ele>1430.9303406955</ele>
        <time>2016-10-16T18:05:08Z</time>
      </trkpt>
      <trkpt lat="42.91716" lon="0.20923">
        <ele>1430.9303406955</ele>
        <time>2016-10-16T18:05:13Z</time>
      </trkpt>
      <trkpt lat="42.91715" lon="0.20923">
        <ele>1430.9303406955</ele>
        <time>2016-10-16T18:05:18Z</time>
      </trkpt>
      <trkpt lat="42.91715" lon="0.2092">
        <ele>1430.9303406955</ele>
        <time>2016-10-16T18:05:23Z</time>
      </trkpt>
      <trkpt lat="42.91713" lon="0.20916">
        <ele>1430.9303406955</ele>
        <time>2016-10-16T18:05:28Z</time>
      </trkpt>
      <trkpt lat="42.9171" lon="0.20914">
        <ele>1430.3471547028</ele>
        <time>2016-10-16T18:05:33Z</time>
      </trkpt>
      <trkpt lat="42.91713" lon="0.20913">
        <ele>1430.3471547028</ele>
        <time>2016-10-16T18:05:38Z</time>
      </trkpt>
      <trkpt lat="42.91712" lon="0.2092">
        <ele>1430.3471547028</ele>
        <time>2016-10-16T18:05:43Z</time>
      </trkpt>
      <trkpt lat="42.91721" lon="0.20923">
        <ele>1429.9098372689</ele>
        <time>2016-10-16T18:05:48Z</time>
      </trkpt>
      <trkpt lat="42.91724" lon="0.2092">
        <ele>1429.9098372689</ele>
        <time>2016-10-16T18:05:53Z</time>
      </trkpt>
      <trkpt lat="42.91725" lon="0.20915">
        <ele>1429.9098372689</ele>
        <time>2016-10-16T18:05:58Z</time>
      </trkpt>
      <trkpt lat="42.91715" lon="0.20925">
        <ele>1429.6019072519</ele>
        <time>2016-10-16T18:06:03Z</time>
      </trkpt>
      <trkpt lat="42.91714" lon="0.20932">
        <ele>1429.6019072519</ele>
        <time>2016-10-16T18:06:08Z</time>
      </trkpt>
      <trkpt lat="42.91718" lon="0.20932">
        <ele>1429.436575309</ele>
        <time>2016-10-16T18:06:13Z</time>
      </trkpt>
      <trkpt lat="42.91718" lon="0.20931">
        <ele>1429.436575309</ele>
        <time>2016-10-16T18:06:18Z</time>
      </trkpt>
      <trkpt lat="42.91725" lon="0.20924">
        <ele>1429.4257203523</ele>
        <time>2016-10-16T18:06:23Z</time>
      </trkpt>
      <trkpt lat="42.9173" lon="0.20917">
        <ele>1429.4257203523</ele>
        <time>2016-10-16T18:06:28Z</time>
      </trkpt>
      <trkpt lat="42.9172" lon="0.20907">
        <ele>1429.5367373589</ele>
        <time>2016-10-16T18:06:33Z</time>
      </trkpt>
      <trkpt lat="42.91724" lon="0.20909">
        <ele>1429.5367373589</ele>
        <time>2016-10-16T18:06:38Z</time>
      </trkpt>
      <trkpt lat="42.91722" lon="0.20911">
        <ele>1429.5367373589</ele>
        <time>2016-10-16T18:06:43Z</time>
      </trkpt>
      <trkpt lat="42.91723" lon="0.20913">
        <ele>1429.5367373589</ele>
        <time>2016-10-16T18:06:48Z</time>
      </trkpt>
      <trkpt lat="42.91712" lon="0.20916">
        <ele>1429.739146268</ele>
        <time>2016-10-16T18:06:53Z</time>
      </trkpt>
      <trkpt lat="42.91702" lon="0.20916">
        <ele>1430.0477706534</ele>
        <time>2016-10-16T18:06:58Z</time>
      </trkpt>
      <trkpt lat="42.91704" lon="0.20914">
        <ele>1430.0477706534</ele>
        <time>2016-10-16T18:07:03Z</time>
      </trkpt>
      <trkpt lat="42.91703" lon="0.20915">
        <ele>1430.0477706534</ele>
        <time>2016-10-16T18:07:08Z</time>
      </trkpt>
      <trkpt lat="42.91705" lon="0.20915">
        <ele>1430.0477706534</ele>
        <time>2016-10-16T18:07:13Z</time>
      </trkpt>
      <trkpt lat="42.91705" lon="0.20915">
        <ele>1430.0477706534</ele>
        <time>2016-10-16T18:07:18Z</time>
      </trkpt>
      <trkpt lat="42.91705" lon="0.20915">
        <ele>1430.0477706534</ele>
        <time>2016-10-16T18:07:23Z</time>
      </trkpt>
      <trkpt lat="42.91706" lon="0.20915">
        <ele>1430.0477706534</ele>
        <time>2016-10-16T18:07:28Z</time>
      </trkpt>
      <trkpt lat="42.91706" lon="0.20915">
        <ele>1430.0477706534</ele>
        <time>2016-10-16T18:07:33Z</time>
      </trkpt>
      <trkpt lat="42.91707" lon="0.20915">
        <ele>1430.0477706534</ele>
        <time>2016-10-16T18:07:38Z</time>
      </trkpt>
      <trkpt lat="42.91707" lon="0.20915">
        <ele>1430.0477706534</ele>
        <time>2016-10-16T18:07:43Z</time>
      </trkpt>
      <trkpt lat="42.91708" lon="0.20915">
        <ele>1430.0477706534</ele>
        <time>2016-10-16T18:07:48Z</time>
      </trkpt>
      <trkpt lat="42.91708" lon="0.20915">
        <ele>1430.0477706534</ele>
        <time>2016-10-16T18:07:53Z</time>
      </trkpt>
      <trkpt lat="42.91708" lon="0.20916">
        <ele>1430.0477706534</ele>
        <time>2016-10-16T18:07:58Z</time>
      </trkpt>
      <trkpt lat="42.91708" lon="0.20916">
        <ele>1430.0477706534</ele>
        <time>2016-10-16T18:08:03Z</time>
      </trkpt>
      <trkpt lat="42.91709" lon="0.20917">
        <ele>1430.4329168142</ele>
        <time>2016-10-16T18:08:08Z</time>
      </trkpt>
      <trkpt lat="42.9171" lon="0.20918">
        <ele>1430.4329168142</ele>
        <time>2016-10-16T18:08:13Z</time>
      </trkpt>
      <trkpt lat="42.91711" lon="0.20919">
        <ele>1430.4329168142</ele>
        <time>2016-10-16T18:08:18Z</time>
      </trkpt>
      <trkpt lat="42.91712" lon="0.20919">
        <ele>1430.4329168142</ele>
        <time>2016-10-16T18:08:23Z</time>
      </trkpt>
      <trkpt lat="42.91713" lon="0.20919">
        <ele>1430.4329168142</ele>
        <time>2016-10-16T18:08:28Z</time>
      </trkpt>
      <trkpt lat="42.91713" lon="0.20918">
        <ele>1430.4329168142</ele>
        <time>2016-10-16T18:08:33Z</time>
      </trkpt>
      <trkpt lat="42.91713" lon="0.20918">
        <ele>1430.4329168142</ele>
        <time>2016-10-16T18:08:38Z</time>
      </trkpt>
      <trkpt lat="42.91713" lon="0.20918">
        <ele>1430.4329168142</ele>
        <time>2016-10-16T18:08:43Z</time>
      </trkpt>
      <trkpt lat="42.91712" lon="0.20915">
        <ele>1430.4329168142</ele>
        <time>2016-10-16T18:08:48Z</time>
      </trkpt>
      <trkpt lat="42.91712" lon="0.20914">
        <ele>1430.4329168142</ele>
        <time>2016-10-16T18:08:53Z</time>
      </trkpt>
      <trkpt lat="42.9171" lon="0.20912">
        <ele>1430.8813864028</ele>
        <time>2016-10-16T18:08:58Z</time>
      </trkpt>
      <trkpt lat="42.9171" lon="0.20911">
        <ele>1430.8813864028</ele>
        <time>2016-10-16T18:09:03Z</time>
      </trkpt>
      <trkpt lat="42.91714" lon="0.2091">
        <ele>1430.8813864028</ele>
        <time>2016-10-16T18:09:08Z</time>
      </trkpt>
      <trkpt lat="42.91715" lon="0.2091">
        <ele>1430.8813864028</ele>
        <time>2016-10-16T18:09:13Z</time>
      </trkpt>
      <trkpt lat="42.91711" lon="0.20914">
        <ele>1431.3809044391</ele>
        <time>2016-10-16T18:09:18Z</time>
      </trkpt>
      <trkpt lat="42.91713" lon="0.20915">
        <ele>1431.3809044391</ele>
        <time>2016-10-16T18:09:23Z</time>
      </trkpt>
      <trkpt lat="42.91719" lon="0.20915">
        <ele>1431.3809044391</ele>
        <time>2016-10-16T18:09:28Z</time>
      </trkpt>
      <trkpt lat="42.91718" lon="0.20917">
        <ele>1431.3809044391</ele>
        <time>2016-10-16T18:09:33Z</time>
      </trkpt>
      <trkpt lat="42.91716" lon="0.2092">
        <ele>1431.8912765862</ele>
        <time>2016-10-16T18:09:38Z</time>
      </trkpt>
      <trkpt lat="42.9172" lon="0.20921">
        <ele>1431.8912765862</ele>
        <time>2016-10-16T18:09:43Z</time>
      </trkpt>
      <trkpt lat="42.9172" lon="0.20926">
        <ele>1431.8912765862</ele>
        <time>2016-10-16T18:09:48Z</time>
      </trkpt>
      <trkpt lat="42.9172" lon="0.20926">
        <ele>1431.8912765862</ele>
        <time>2016-10-16T18:09:53Z</time>
      </trkpt>
      <trkpt lat="42.9172" lon="0.20926">
        <ele>1431.8912765862</ele>
        <time>2016-10-16T18:09:58Z</time>
      </trkpt>
      <trkpt lat="42.91721" lon="0.20926">
        <ele>1431.8912765862</ele>
        <time>2016-10-16T18:10:03Z</time>
      </trkpt>
      <trkpt lat="42.91721" lon="0.20926">
        <ele>1432.4474425768</ele>
        <time>2016-10-16T18:10:08Z</time>
      </trkpt>
      <trkpt lat="42.91721" lon="0.20927">
        <ele>1432.4474425768</ele>
        <time>2016-10-16T18:10:13Z</time>
      </trkpt>
      <trkpt lat="42.91719" lon="0.20927">
        <ele>1432.4474425768</ele>
        <time>2016-10-16T18:10:18Z</time>
      </trkpt>
      <trkpt lat="42.91719" lon="0.20928">
        <ele>1432.4474425768</ele>
        <time>2016-10-16T18:10:23Z</time>
      </trkpt>
      <trkpt lat="42.91721" lon="0.20926">
        <ele>1432.4474425768</ele>
        <time>2016-10-16T18:10:28Z</time>
      </trkpt>
      <trkpt lat="42.91715" lon="0.20926">
        <ele>1432.9809362563</ele>
        <time>2016-10-16T18:10:33Z</time>
      </trkpt>
      <trkpt lat="42.91714" lon="0.20938">
        <ele>1432.9809362563</ele>
        <time>2016-10-16T18:10:38Z</time>
      </trkpt>
      <trkpt lat="42.91714" lon="0.20927">
        <ele>1433.5294390381</ele>
        <time>2016-10-16T18:10:43Z</time>
      </trkpt>
      <trkpt lat="42.91715" lon="0.20918">
        <ele>1433.5294390381</ele>
        <time>2016-10-16T18:10:48Z</time>
      </trkpt>
      <trkpt lat="42.91713" lon="0.20919">
        <ele>1433.5294390381</ele>
        <time>2016-10-16T18:10:53Z</time>
      </trkpt>
      <trkpt lat="42.91712" lon="0.20913">
        <ele>1434.0703627915</ele>
        <time>2016-10-16T18:10:58Z</time>
      </trkpt>
      <trkpt lat="42.91719" lon="0.20916">
        <ele>1434.0703627915</ele>
        <time>2016-10-16T18:11:03Z</time>
      </trkpt>
      <trkpt lat="42.91722" lon="0.20913">
        <ele>1434.6118145267</ele>
        <time>2016-10-16T18:11:08Z</time>
      </trkpt>
      <trkpt lat="42.91706" lon="0.20924">
        <ele>1435.1615026893</ele>
        <time>2016-10-16T18:11:13Z</time>
      </trkpt>
      <trkpt lat="42.91695" lon="0.20929">
        <ele>1435.7267499078</ele>
        <time>2016-10-16T18:11:18Z</time>
      </trkpt>
      <trkpt lat="42.91697" lon="0.20927">
        <ele>1435.7267499078</ele>
        <time>2016-10-16T18:11:23Z</time>
      </trkpt>
      <trkpt lat="42.91707" lon="0.20909">
        <ele>1436.2856826683</ele>
        <time>2016-10-16T18:11:28Z</time>
      </trkpt>
      <trkpt lat="42.91708" lon="0.20908">
        <ele>1436.2856826683</ele>
        <time>2016-10-16T18:11:33Z</time>
      </trkpt>
      <trkpt lat="42.91708" lon="0.20912">
        <ele>1436.2856826683</ele>
        <time>2016-10-16T18:11:38Z</time>
      </trkpt>
      <trkpt lat="42.91709" lon="0.20912">
        <ele>1436.2856826683</ele>
        <time>2016-10-16T18:11:43Z</time>
      </trkpt>
      <trkpt lat="42.91714" lon="0.20911">
        <ele>1436.8182628011</ele>
        <time>2016-10-16T18:11:48Z</time>
      </trkpt>
      <trkpt lat="42.91715" lon="0.20911">
        <ele>1436.8182628011</ele>
        <time>2016-10-16T18:11:53Z</time>
      </trkpt>
      <trkpt lat="42.91717" lon="0.20912">
        <ele>1436.8182628011</ele>
        <time>2016-10-16T18:11:58Z</time>
      </trkpt>
      <trkpt lat="42.91717" lon="0.20912">
        <ele>1436.8182628011</ele>
        <time>2016-10-16T18:12:03Z</time>
      </trkpt>
      <trkpt lat="42.91717" lon="0.20912">
        <ele>1436.8182628011</ele>
        <time>2016-10-16T18:12:08Z</time>
      </trkpt>
      <trkpt lat="42.91717" lon="0.20912">
        <ele>1436.8182628011</ele>
        <time>2016-10-16T18:12:13Z</time>
      </trkpt>
      <trkpt lat="42.91717" lon="0.20912">
        <ele>1436.8182628011</ele>
        <time>2016-10-16T18:12:18Z</time>
      </trkpt>
      <trkpt lat="42.91717" lon="0.20912">
        <ele>1436.8182628011</ele>
        <time>2016-10-16T18:12:23Z</time>
      </trkpt>
      <trkpt lat="42.91717" lon="0.20912">
        <ele>1436.8182628011</ele>
        <time>2016-10-16T18:12:28Z</time>
      </trkpt>
      <trkpt lat="42.91717" lon="0.20913">
        <ele>1436.8182628011</ele>
        <time>2016-10-16T18:12:33Z</time>
      </trkpt>
      <trkpt lat="42.91717" lon="0.20913">
        <ele>1436.8182628011</ele>
        <time>2016-10-16T18:12:38Z</time>
      </trkpt>
      <trkpt lat="42.91717" lon="0.20913">
        <ele>1436.8182628011</ele>
        <time>2016-10-16T18:12:43Z</time>
      </trkpt>
      <trkpt lat="42.91717" lon="0.20913">
        <ele>1436.8182628011</ele>
        <time>2016-10-16T18:12:48Z</time>
      </trkpt>
      <trkpt lat="42.91717" lon="0.20913">
        <ele>1436.8182628011</ele>
        <time>2016-10-16T18:12:53Z</time>
      </trkpt>
      <trkpt lat="42.91717" lon="0.20913">
        <ele>1436.8182628011</ele>
        <time>2016-10-16T18:12:58Z</time>
      </trkpt>
      <trkpt lat="42.91717" lon="0.20913">
        <ele>1436.8182628011</ele>
        <time>2016-10-16T18:13:03Z</time>
      </trkpt>
      <trkpt lat="42.91716" lon="0.20914">
        <ele>1436.8182628011</ele>
        <time>2016-10-16T18:13:08Z</time>
      </trkpt>
      <trkpt lat="42.91715" lon="0.20914">
        <ele>1436.8182628011</ele>
        <time>2016-10-16T18:13:13Z</time>
      </trkpt>
      <trkpt lat="42.91716" lon="0.20912">
        <ele>1437.2485665021</ele>
        <time>2016-10-16T18:13:18Z</time>
      </trkpt>
      <trkpt lat="42.91717" lon="0.20913">
        <ele>1437.2485665021</ele>
        <time>2016-10-16T18:13:23Z</time>
      </trkpt>
      <trkpt lat="42.91717" lon="0.20913">
        <ele>1437.2485665021</ele>
        <time>2016-10-16T18:13:28Z</time>
      </trkpt>
      <trkpt lat="42.91719" lon="0.20913">
        <ele>1437.2485665021</ele>
        <time>2016-10-16T18:13:33Z</time>
      </trkpt>
      <trkpt lat="42.91719" lon="0.20913">
        <ele>1437.2485665021</ele>
        <time>2016-10-16T18:13:38Z</time>
      </trkpt>
      <trkpt lat="42.91719" lon="0.20914">
        <ele>1437.2485665021</ele>
        <time>2016-10-16T18:13:43Z</time>
      </trkpt>
      <trkpt lat="42.91719" lon="0.20914">
        <ele>1437.2485665021</ele>
        <time>2016-10-16T18:13:48Z</time>
      </trkpt>
      <trkpt lat="42.9172" lon="0.20915">
        <ele>1437.2485665021</ele>
        <time>2016-10-16T18:13:53Z</time>
      </trkpt>
      <trkpt lat="42.9172" lon="0.20915">
        <ele>1437.2485665021</ele>
        <time>2016-10-16T18:13:58Z</time>
      </trkpt>
      <trkpt lat="42.9172" lon="0.20916">
        <ele>1437.2485665021</ele>
        <time>2016-10-16T18:14:03Z</time>
      </trkpt>
      <trkpt lat="42.9172" lon="0.20917">
        <ele>1437.2485665021</ele>
        <time>2016-10-16T18:14:08Z</time>
      </trkpt>
      <trkpt lat="42.91721" lon="0.20919">
        <ele>1437.2485665021</ele>
        <time>2016-10-16T18:14:13Z</time>
      </trkpt>
      <trkpt lat="42.91721" lon="0.2092">
        <ele>1437.6364482003</ele>
        <time>2016-10-16T18:14:18Z</time>
      </trkpt>
      <trkpt lat="42.91721" lon="0.20919">
        <ele>1437.6364482003</ele>
        <time>2016-10-16T18:14:23Z</time>
      </trkpt>
      <trkpt lat="42.91721" lon="0.20918">
        <ele>1437.6364482003</ele>
        <time>2016-10-16T18:14:28Z</time>
      </trkpt>
      <trkpt lat="42.9172" lon="0.20917">
        <ele>1437.6364482003</ele>
        <time>2016-10-16T18:14:33Z</time>
      </trkpt>
      <trkpt lat="42.9172" lon="0.20921">
        <ele>1437.6364482003</ele>
        <time>2016-10-16T18:14:38Z</time>
      </trkpt>
      <trkpt lat="42.9172" lon="0.20921">
        <ele>1437.6364482003</ele>
        <time>2016-10-16T18:14:43Z</time>
      </trkpt>
      <trkpt lat="42.91721" lon="0.20923">
        <ele>1437.6364482003</ele>
        <time>2016-10-16T18:14:48Z</time>
      </trkpt>
      <trkpt lat="42.91721" lon="0.20922">
        <ele>1437.6364482003</ele>
        <time>2016-10-16T18:14:53Z</time>
      </trkpt>
      <trkpt lat="42.91721" lon="0.20922">
        <ele>1437.6364482003</ele>
        <time>2016-10-16T18:14:58Z</time>
      </trkpt>
      <trkpt lat="42.91721" lon="0.20922">
        <ele>1437.6364482003</ele>
        <time>2016-10-16T18:15:03Z</time>
      </trkpt>
      <trkpt lat="42.91719" lon="0.20921">
        <ele>1437.9944649897</ele>
        <time>2016-10-16T18:15:08Z</time>
      </trkpt>
      <trkpt lat="42.91719" lon="0.20921">
        <ele>1437.9944649897</ele>
        <time>2016-10-16T18:15:13Z</time>
      </trkpt>
      <trkpt lat="42.91719" lon="0.20921">
        <ele>1437.9944649897</ele>
        <time>2016-10-16T18:15:18Z</time>
      </trkpt>
    </trkseg>
  </trk>
</gpx>